<?xml version="1.0" encoding="UTF-8" standalone="no" ?>
<gpx xmlns="http://www.topografix.com/GPX/1/1" xmlns:xsi="http://www.w3.org/2001/XMLSchema-instance" xsi:schemaLocation="http://www.topografix.com/GPX/1/1 http://www.topografix.com/GPX/1/1/gpx.xsd" version="1.1" creator="VisuGPX - https://www.visugpx.com">
  <metadata>
    <name>Hautes Rivières 2021_08_27</name>
  </metadata>
  <trk>
    <name><![CDATA[Hautes Rivières 2021_08_27_1]]></name>
    <trkseg>
      <trkpt lat="49.75364" lon="4.82156">
        <ele>222</ele>
        <time>2021-08-27T05:36:19.000Z</time>
      </trkpt>
      <trkpt lat="49.75364" lon="4.82156">
        <ele>222</ele>
        <time>2021-08-27T05:36:20.000Z</time>
      </trkpt>
      <trkpt lat="49.75365" lon="4.82155">
        <ele>222</ele>
        <time>2021-08-27T05:36:21.000Z</time>
      </trkpt>
      <trkpt lat="49.75366" lon="4.82152">
        <ele>221</ele>
        <time>2021-08-27T05:36:22.000Z</time>
      </trkpt>
      <trkpt lat="49.75368" lon="4.8215">
        <ele>221</ele>
        <time>2021-08-27T05:36:23.000Z</time>
      </trkpt>
      <trkpt lat="49.7537" lon="4.82149">
        <ele>220</ele>
        <time>2021-08-27T05:36:24.000Z</time>
      </trkpt>
      <trkpt lat="49.75374" lon="4.8215">
        <ele>219</ele>
        <time>2021-08-27T05:36:25.000Z</time>
      </trkpt>
      <trkpt lat="49.75378" lon="4.82151">
        <ele>218</ele>
        <time>2021-08-27T05:36:26.000Z</time>
      </trkpt>
      <trkpt lat="49.75383" lon="4.82153">
        <ele>218</ele>
        <time>2021-08-27T05:36:27.000Z</time>
      </trkpt>
      <trkpt lat="49.75388" lon="4.82155">
        <ele>217</ele>
        <time>2021-08-27T05:36:28.000Z</time>
      </trkpt>
      <trkpt lat="49.75394" lon="4.82159">
        <ele>216</ele>
        <time>2021-08-27T05:36:29.000Z</time>
      </trkpt>
      <trkpt lat="49.75399" lon="4.82163">
        <ele>215</ele>
        <time>2021-08-27T05:36:30.000Z</time>
      </trkpt>
      <trkpt lat="49.75405" lon="4.82166">
        <ele>213</ele>
        <time>2021-08-27T05:36:31.000Z</time>
      </trkpt>
      <trkpt lat="49.75412" lon="4.8217">
        <ele>212</ele>
        <time>2021-08-27T05:36:32.000Z</time>
      </trkpt>
      <trkpt lat="49.75418" lon="4.82176">
        <ele>211</ele>
        <time>2021-08-27T05:36:33.000Z</time>
      </trkpt>
      <trkpt lat="49.75422" lon="4.82182">
        <ele>210</ele>
        <time>2021-08-27T05:36:34.000Z</time>
      </trkpt>
      <trkpt lat="49.75426" lon="4.82187">
        <ele>208</ele>
        <time>2021-08-27T05:36:35.000Z</time>
      </trkpt>
      <trkpt lat="49.75429" lon="4.82193">
        <ele>207</ele>
        <time>2021-08-27T05:36:36.000Z</time>
      </trkpt>
      <trkpt lat="49.75433" lon="4.82197">
        <ele>206</ele>
        <time>2021-08-27T05:36:37.000Z</time>
      </trkpt>
      <trkpt lat="49.75437" lon="4.822">
        <ele>205</ele>
        <time>2021-08-27T05:36:38.000Z</time>
      </trkpt>
      <trkpt lat="49.75442" lon="4.82202">
        <ele>204</ele>
        <time>2021-08-27T05:36:39.000Z</time>
      </trkpt>
      <trkpt lat="49.75448" lon="4.82205">
        <ele>203</ele>
        <time>2021-08-27T05:36:40.000Z</time>
      </trkpt>
      <trkpt lat="49.75454" lon="4.82212">
        <ele>202</ele>
        <time>2021-08-27T05:36:41.000Z</time>
      </trkpt>
      <trkpt lat="49.7546" lon="4.8222">
        <ele>201</ele>
        <time>2021-08-27T05:36:42.000Z</time>
      </trkpt>
      <trkpt lat="49.75466" lon="4.82228">
        <ele>200</ele>
        <time>2021-08-27T05:36:43.000Z</time>
      </trkpt>
      <trkpt lat="49.75472" lon="4.82234">
        <ele>199</ele>
        <time>2021-08-27T05:36:44.000Z</time>
      </trkpt>
      <trkpt lat="49.75478" lon="4.82241">
        <ele>198</ele>
        <time>2021-08-27T05:36:45.000Z</time>
      </trkpt>
      <trkpt lat="49.75485" lon="4.82246">
        <ele>197</ele>
        <time>2021-08-27T05:36:46.000Z</time>
      </trkpt>
      <trkpt lat="49.75492" lon="4.82251">
        <ele>197</ele>
        <time>2021-08-27T05:36:47.000Z</time>
      </trkpt>
      <trkpt lat="49.75499" lon="4.82255">
        <ele>196</ele>
        <time>2021-08-27T05:36:48.000Z</time>
      </trkpt>
      <trkpt lat="49.75506" lon="4.82259">
        <ele>196</ele>
        <time>2021-08-27T05:36:49.000Z</time>
      </trkpt>
      <trkpt lat="49.75513" lon="4.82264">
        <ele>195</ele>
        <time>2021-08-27T05:36:50.000Z</time>
      </trkpt>
      <trkpt lat="49.7552" lon="4.82267">
        <ele>195</ele>
        <time>2021-08-27T05:36:51.000Z</time>
      </trkpt>
      <trkpt lat="49.75527" lon="4.82268">
        <ele>194</ele>
        <time>2021-08-27T05:36:52.000Z</time>
      </trkpt>
      <trkpt lat="49.75534" lon="4.82268">
        <ele>194</ele>
        <time>2021-08-27T05:36:53.000Z</time>
      </trkpt>
      <trkpt lat="49.75541" lon="4.82267">
        <ele>194</ele>
        <time>2021-08-27T05:36:54.000Z</time>
      </trkpt>
      <trkpt lat="49.75548" lon="4.82266">
        <ele>193</ele>
        <time>2021-08-27T05:36:55.000Z</time>
      </trkpt>
      <trkpt lat="49.75554" lon="4.82263">
        <ele>193</ele>
        <time>2021-08-27T05:36:56.000Z</time>
      </trkpt>
      <trkpt lat="49.75558" lon="4.8226">
        <ele>193</ele>
        <time>2021-08-27T05:36:57.000Z</time>
      </trkpt>
      <trkpt lat="49.7556" lon="4.82254">
        <ele>193</ele>
        <time>2021-08-27T05:36:58.000Z</time>
      </trkpt>
      <trkpt lat="49.75559" lon="4.82248">
        <ele>193</ele>
        <time>2021-08-27T05:36:59.000Z</time>
      </trkpt>
      <trkpt lat="49.75556" lon="4.82241">
        <ele>192</ele>
        <time>2021-08-27T05:37:00.000Z</time>
      </trkpt>
      <trkpt lat="49.75552" lon="4.82234">
        <ele>192</ele>
        <time>2021-08-27T05:37:01.000Z</time>
      </trkpt>
      <trkpt lat="49.75548" lon="4.82228">
        <ele>192</ele>
        <time>2021-08-27T05:37:02.000Z</time>
      </trkpt>
      <trkpt lat="49.75543" lon="4.82221">
        <ele>192</ele>
        <time>2021-08-27T05:37:03.000Z</time>
      </trkpt>
      <trkpt lat="49.75539" lon="4.82214">
        <ele>192</ele>
        <time>2021-08-27T05:37:04.000Z</time>
      </trkpt>
      <trkpt lat="49.75536" lon="4.82207">
        <ele>192</ele>
        <time>2021-08-27T05:37:05.000Z</time>
      </trkpt>
      <trkpt lat="49.75533" lon="4.82201">
        <ele>192</ele>
        <time>2021-08-27T05:37:06.000Z</time>
      </trkpt>
      <trkpt lat="49.75529" lon="4.82194">
        <ele>192</ele>
        <time>2021-08-27T05:37:07.000Z</time>
      </trkpt>
      <trkpt lat="49.75525" lon="4.82188">
        <ele>192</ele>
        <time>2021-08-27T05:37:08.000Z</time>
      </trkpt>
      <trkpt lat="49.75521" lon="4.82181">
        <ele>192</ele>
        <time>2021-08-27T05:37:09.000Z</time>
      </trkpt>
      <trkpt lat="49.75517" lon="4.82175">
        <ele>192</ele>
        <time>2021-08-27T05:37:10.000Z</time>
      </trkpt>
      <trkpt lat="49.75513" lon="4.82168">
        <ele>192</ele>
        <time>2021-08-27T05:37:11.000Z</time>
      </trkpt>
      <trkpt lat="49.75509" lon="4.82162">
        <ele>192</ele>
        <time>2021-08-27T05:37:12.000Z</time>
      </trkpt>
      <trkpt lat="49.75505" lon="4.82156">
        <ele>192</ele>
        <time>2021-08-27T05:37:13.000Z</time>
      </trkpt>
      <trkpt lat="49.75501" lon="4.8215">
        <ele>192</ele>
        <time>2021-08-27T05:37:14.000Z</time>
      </trkpt>
      <trkpt lat="49.75497" lon="4.82144">
        <ele>192</ele>
        <time>2021-08-27T05:37:15.000Z</time>
      </trkpt>
      <trkpt lat="49.75493" lon="4.82138">
        <ele>192</ele>
        <time>2021-08-27T05:37:16.000Z</time>
      </trkpt>
      <trkpt lat="49.75489" lon="4.82132">
        <ele>192</ele>
        <time>2021-08-27T05:37:17.000Z</time>
      </trkpt>
      <trkpt lat="49.75485" lon="4.82127">
        <ele>191</ele>
        <time>2021-08-27T05:37:18.000Z</time>
      </trkpt>
      <trkpt lat="49.75481" lon="4.82121">
        <ele>191</ele>
        <time>2021-08-27T05:37:19.000Z</time>
      </trkpt>
      <trkpt lat="49.75477" lon="4.82116">
        <ele>191</ele>
        <time>2021-08-27T05:37:20.000Z</time>
      </trkpt>
      <trkpt lat="49.75473" lon="4.82111">
        <ele>191</ele>
        <time>2021-08-27T05:37:21.000Z</time>
      </trkpt>
      <trkpt lat="49.75468" lon="4.82107">
        <ele>191</ele>
        <time>2021-08-27T05:37:22.000Z</time>
      </trkpt>
      <trkpt lat="49.75464" lon="4.82102">
        <ele>191</ele>
        <time>2021-08-27T05:37:23.000Z</time>
      </trkpt>
      <trkpt lat="49.75459" lon="4.82098">
        <ele>191</ele>
        <time>2021-08-27T05:37:24.000Z</time>
      </trkpt>
      <trkpt lat="49.75455" lon="4.82094">
        <ele>191</ele>
        <time>2021-08-27T05:37:25.000Z</time>
      </trkpt>
      <trkpt lat="49.7545" lon="4.8209">
        <ele>191</ele>
        <time>2021-08-27T05:37:26.000Z</time>
      </trkpt>
      <trkpt lat="49.75446" lon="4.82085">
        <ele>191</ele>
        <time>2021-08-27T05:37:27.000Z</time>
      </trkpt>
      <trkpt lat="49.75441" lon="4.82081">
        <ele>191</ele>
        <time>2021-08-27T05:37:28.000Z</time>
      </trkpt>
      <trkpt lat="49.75437" lon="4.82076">
        <ele>191</ele>
        <time>2021-08-27T05:37:29.000Z</time>
      </trkpt>
      <trkpt lat="49.75432" lon="4.82072">
        <ele>191</ele>
        <time>2021-08-27T05:37:30.000Z</time>
      </trkpt>
      <trkpt lat="49.75427" lon="4.82067">
        <ele>191</ele>
        <time>2021-08-27T05:37:31.000Z</time>
      </trkpt>
      <trkpt lat="49.75423" lon="4.82063">
        <ele>191</ele>
        <time>2021-08-27T05:37:32.000Z</time>
      </trkpt>
      <trkpt lat="49.75418" lon="4.82059">
        <ele>190</ele>
        <time>2021-08-27T05:37:33.000Z</time>
      </trkpt>
      <trkpt lat="49.75414" lon="4.82055">
        <ele>190</ele>
        <time>2021-08-27T05:37:34.000Z</time>
      </trkpt>
      <trkpt lat="49.75409" lon="4.8205">
        <ele>190</ele>
        <time>2021-08-27T05:37:35.000Z</time>
      </trkpt>
      <trkpt lat="49.75405" lon="4.82046">
        <ele>190</ele>
        <time>2021-08-27T05:37:36.000Z</time>
      </trkpt>
      <trkpt lat="49.75401" lon="4.82042">
        <ele>190</ele>
        <time>2021-08-27T05:37:37.000Z</time>
      </trkpt>
      <trkpt lat="49.75396" lon="4.82038">
        <ele>190</ele>
        <time>2021-08-27T05:37:38.000Z</time>
      </trkpt>
      <trkpt lat="49.75391" lon="4.82035">
        <ele>190</ele>
        <time>2021-08-27T05:37:39.000Z</time>
      </trkpt>
      <trkpt lat="49.75387" lon="4.82032">
        <ele>190</ele>
        <time>2021-08-27T05:37:40.000Z</time>
      </trkpt>
      <trkpt lat="49.75382" lon="4.82029">
        <ele>190</ele>
        <time>2021-08-27T05:37:41.000Z</time>
      </trkpt>
      <trkpt lat="49.75378" lon="4.82026">
        <ele>190</ele>
        <time>2021-08-27T05:37:42.000Z</time>
      </trkpt>
      <trkpt lat="49.75373" lon="4.82023">
        <ele>190</ele>
        <time>2021-08-27T05:37:43.000Z</time>
      </trkpt>
      <trkpt lat="49.75368" lon="4.82021">
        <ele>190</ele>
        <time>2021-08-27T05:37:44.000Z</time>
      </trkpt>
      <trkpt lat="49.75364" lon="4.82019">
        <ele>190</ele>
        <time>2021-08-27T05:37:45.000Z</time>
      </trkpt>
      <trkpt lat="49.75359" lon="4.82016">
        <ele>190</ele>
        <time>2021-08-27T05:37:46.000Z</time>
      </trkpt>
      <trkpt lat="49.75355" lon="4.82014">
        <ele>190</ele>
        <time>2021-08-27T05:37:47.000Z</time>
      </trkpt>
      <trkpt lat="49.75351" lon="4.82011">
        <ele>190</ele>
        <time>2021-08-27T05:37:48.000Z</time>
      </trkpt>
      <trkpt lat="49.75346" lon="4.82008">
        <ele>190</ele>
        <time>2021-08-27T05:37:49.000Z</time>
      </trkpt>
      <trkpt lat="49.75342" lon="4.82006">
        <ele>190</ele>
        <time>2021-08-27T05:37:50.000Z</time>
      </trkpt>
      <trkpt lat="49.75338" lon="4.82003">
        <ele>190</ele>
        <time>2021-08-27T05:37:51.000Z</time>
      </trkpt>
      <trkpt lat="49.75334" lon="4.82001">
        <ele>190</ele>
        <time>2021-08-27T05:37:52.000Z</time>
      </trkpt>
      <trkpt lat="49.7533" lon="4.81998">
        <ele>190</ele>
        <time>2021-08-27T05:37:53.000Z</time>
      </trkpt>
      <trkpt lat="49.75326" lon="4.81995">
        <ele>190</ele>
        <time>2021-08-27T05:37:54.000Z</time>
      </trkpt>
      <trkpt lat="49.75322" lon="4.81992">
        <ele>190</ele>
        <time>2021-08-27T05:37:55.000Z</time>
      </trkpt>
      <trkpt lat="49.75318" lon="4.8199">
        <ele>190</ele>
        <time>2021-08-27T05:37:56.000Z</time>
      </trkpt>
      <trkpt lat="49.75314" lon="4.81987">
        <ele>190</ele>
        <time>2021-08-27T05:37:57.000Z</time>
      </trkpt>
      <trkpt lat="49.75311" lon="4.81985">
        <ele>191</ele>
        <time>2021-08-27T05:37:58.000Z</time>
      </trkpt>
      <trkpt lat="49.75307" lon="4.81982">
        <ele>191</ele>
        <time>2021-08-27T05:37:59.000Z</time>
      </trkpt>
      <trkpt lat="49.75304" lon="4.8198">
        <ele>191</ele>
        <time>2021-08-27T05:38:00.000Z</time>
      </trkpt>
      <trkpt lat="49.75301" lon="4.81978">
        <ele>191</ele>
        <time>2021-08-27T05:38:01.000Z</time>
      </trkpt>
      <trkpt lat="49.75298" lon="4.81976">
        <ele>191</ele>
        <time>2021-08-27T05:38:02.000Z</time>
      </trkpt>
      <trkpt lat="49.75294" lon="4.81973">
        <ele>191</ele>
        <time>2021-08-27T05:38:03.000Z</time>
      </trkpt>
      <trkpt lat="49.75291" lon="4.81971">
        <ele>191</ele>
        <time>2021-08-27T05:38:04.000Z</time>
      </trkpt>
      <trkpt lat="49.75288" lon="4.81969">
        <ele>191</ele>
        <time>2021-08-27T05:38:05.000Z</time>
      </trkpt>
      <trkpt lat="49.75285" lon="4.81966">
        <ele>192</ele>
        <time>2021-08-27T05:38:06.000Z</time>
      </trkpt>
      <trkpt lat="49.75282" lon="4.81964">
        <ele>192</ele>
        <time>2021-08-27T05:38:07.000Z</time>
      </trkpt>
      <trkpt lat="49.75279" lon="4.81962">
        <ele>192</ele>
        <time>2021-08-27T05:38:08.000Z</time>
      </trkpt>
      <trkpt lat="49.75276" lon="4.81959">
        <ele>192</ele>
        <time>2021-08-27T05:38:09.000Z</time>
      </trkpt>
      <trkpt lat="49.75273" lon="4.81957">
        <ele>192</ele>
        <time>2021-08-27T05:38:10.000Z</time>
      </trkpt>
      <trkpt lat="49.7527" lon="4.81954">
        <ele>192</ele>
        <time>2021-08-27T05:38:11.000Z</time>
      </trkpt>
      <trkpt lat="49.75267" lon="4.81951">
        <ele>193</ele>
        <time>2021-08-27T05:38:12.000Z</time>
      </trkpt>
      <trkpt lat="49.75264" lon="4.81949">
        <ele>193</ele>
        <time>2021-08-27T05:38:13.000Z</time>
      </trkpt>
      <trkpt lat="49.75261" lon="4.81946">
        <ele>193</ele>
        <time>2021-08-27T05:38:14.000Z</time>
      </trkpt>
      <trkpt lat="49.75259" lon="4.81943">
        <ele>193</ele>
        <time>2021-08-27T05:38:15.000Z</time>
      </trkpt>
      <trkpt lat="49.75256" lon="4.8194">
        <ele>193</ele>
        <time>2021-08-27T05:38:16.000Z</time>
      </trkpt>
      <trkpt lat="49.75254" lon="4.81937">
        <ele>193</ele>
        <time>2021-08-27T05:38:17.000Z</time>
      </trkpt>
      <trkpt lat="49.75252" lon="4.81933">
        <ele>193</ele>
        <time>2021-08-27T05:38:18.000Z</time>
      </trkpt>
      <trkpt lat="49.7525" lon="4.81929">
        <ele>193</ele>
        <time>2021-08-27T05:38:19.000Z</time>
      </trkpt>
      <trkpt lat="49.75247" lon="4.81925">
        <ele>194</ele>
        <time>2021-08-27T05:38:20.000Z</time>
      </trkpt>
      <trkpt lat="49.75245" lon="4.81922">
        <ele>194</ele>
        <time>2021-08-27T05:38:21.000Z</time>
      </trkpt>
      <trkpt lat="49.75242" lon="4.81918">
        <ele>194</ele>
        <time>2021-08-27T05:38:22.000Z</time>
      </trkpt>
      <trkpt lat="49.7524" lon="4.81915">
        <ele>194</ele>
        <time>2021-08-27T05:38:23.000Z</time>
      </trkpt>
      <trkpt lat="49.75237" lon="4.81912">
        <ele>194</ele>
        <time>2021-08-27T05:38:24.000Z</time>
      </trkpt>
      <trkpt lat="49.75235" lon="4.81909">
        <ele>194</ele>
        <time>2021-08-27T05:38:25.000Z</time>
      </trkpt>
      <trkpt lat="49.75232" lon="4.81906">
        <ele>194</ele>
        <time>2021-08-27T05:38:26.000Z</time>
      </trkpt>
      <trkpt lat="49.75229" lon="4.81903">
        <ele>194</ele>
        <time>2021-08-27T05:38:27.000Z</time>
      </trkpt>
      <trkpt lat="49.75226" lon="4.819">
        <ele>195</ele>
        <time>2021-08-27T05:38:28.000Z</time>
      </trkpt>
      <trkpt lat="49.75223" lon="4.81896">
        <ele>195</ele>
        <time>2021-08-27T05:38:29.000Z</time>
      </trkpt>
      <trkpt lat="49.7522" lon="4.81892">
        <ele>195</ele>
        <time>2021-08-27T05:38:30.000Z</time>
      </trkpt>
      <trkpt lat="49.75217" lon="4.81888">
        <ele>195</ele>
        <time>2021-08-27T05:38:31.000Z</time>
      </trkpt>
      <trkpt lat="49.75214" lon="4.81884">
        <ele>195</ele>
        <time>2021-08-27T05:38:32.000Z</time>
      </trkpt>
      <trkpt lat="49.75211" lon="4.8188">
        <ele>196</ele>
        <time>2021-08-27T05:38:33.000Z</time>
      </trkpt>
      <trkpt lat="49.75208" lon="4.81876">
        <ele>196</ele>
        <time>2021-08-27T05:38:34.000Z</time>
      </trkpt>
      <trkpt lat="49.75204" lon="4.81873">
        <ele>196</ele>
        <time>2021-08-27T05:38:35.000Z</time>
      </trkpt>
      <trkpt lat="49.75201" lon="4.81868">
        <ele>196</ele>
        <time>2021-08-27T05:38:36.000Z</time>
      </trkpt>
      <trkpt lat="49.75198" lon="4.81864">
        <ele>196</ele>
        <time>2021-08-27T05:38:37.000Z</time>
      </trkpt>
      <trkpt lat="49.75195" lon="4.8186">
        <ele>196</ele>
        <time>2021-08-27T05:38:38.000Z</time>
      </trkpt>
      <trkpt lat="49.75193" lon="4.81855">
        <ele>196</ele>
        <time>2021-08-27T05:38:39.000Z</time>
      </trkpt>
      <trkpt lat="49.7519" lon="4.81851">
        <ele>197</ele>
        <time>2021-08-27T05:38:40.000Z</time>
      </trkpt>
      <trkpt lat="49.75187" lon="4.81846">
        <ele>197</ele>
        <time>2021-08-27T05:38:41.000Z</time>
      </trkpt>
      <trkpt lat="49.75184" lon="4.81841">
        <ele>197</ele>
        <time>2021-08-27T05:38:42.000Z</time>
      </trkpt>
      <trkpt lat="49.75182" lon="4.81837">
        <ele>197</ele>
        <time>2021-08-27T05:38:43.000Z</time>
      </trkpt>
      <trkpt lat="49.75179" lon="4.81832">
        <ele>197</ele>
        <time>2021-08-27T05:38:44.000Z</time>
      </trkpt>
      <trkpt lat="49.75176" lon="4.81827">
        <ele>197</ele>
        <time>2021-08-27T05:38:45.000Z</time>
      </trkpt>
      <trkpt lat="49.75174" lon="4.81822">
        <ele>197</ele>
        <time>2021-08-27T05:38:46.000Z</time>
      </trkpt>
      <trkpt lat="49.75172" lon="4.81818">
        <ele>197</ele>
        <time>2021-08-27T05:38:47.000Z</time>
      </trkpt>
      <trkpt lat="49.75169" lon="4.81814">
        <ele>197</ele>
        <time>2021-08-27T05:38:48.000Z</time>
      </trkpt>
      <trkpt lat="49.75166" lon="4.81811">
        <ele>198</ele>
        <time>2021-08-27T05:38:49.000Z</time>
      </trkpt>
      <trkpt lat="49.75164" lon="4.81807">
        <ele>198</ele>
        <time>2021-08-27T05:38:50.000Z</time>
      </trkpt>
      <trkpt lat="49.75161" lon="4.81804">
        <ele>198</ele>
        <time>2021-08-27T05:38:51.000Z</time>
      </trkpt>
      <trkpt lat="49.75159" lon="4.818">
        <ele>198</ele>
        <time>2021-08-27T05:38:52.000Z</time>
      </trkpt>
      <trkpt lat="49.75156" lon="4.81796">
        <ele>198</ele>
        <time>2021-08-27T05:38:53.000Z</time>
      </trkpt>
      <trkpt lat="49.75154" lon="4.81791">
        <ele>198</ele>
        <time>2021-08-27T05:38:54.000Z</time>
      </trkpt>
      <trkpt lat="49.75151" lon="4.81786">
        <ele>198</ele>
        <time>2021-08-27T05:38:55.000Z</time>
      </trkpt>
      <trkpt lat="49.75148" lon="4.81781">
        <ele>198</ele>
        <time>2021-08-27T05:38:56.000Z</time>
      </trkpt>
      <trkpt lat="49.75145" lon="4.81776">
        <ele>198</ele>
        <time>2021-08-27T05:38:57.000Z</time>
      </trkpt>
      <trkpt lat="49.75143" lon="4.81771">
        <ele>198</ele>
        <time>2021-08-27T05:38:58.000Z</time>
      </trkpt>
      <trkpt lat="49.7514" lon="4.81766">
        <ele>198</ele>
        <time>2021-08-27T05:38:59.000Z</time>
      </trkpt>
      <trkpt lat="49.75137" lon="4.81761">
        <ele>198</ele>
        <time>2021-08-27T05:39:00.000Z</time>
      </trkpt>
      <trkpt lat="49.75135" lon="4.81754">
        <ele>198</ele>
        <time>2021-08-27T05:39:01.000Z</time>
      </trkpt>
      <trkpt lat="49.75133" lon="4.81748">
        <ele>198</ele>
        <time>2021-08-27T05:39:02.000Z</time>
      </trkpt>
      <trkpt lat="49.75131" lon="4.81741">
        <ele>198</ele>
        <time>2021-08-27T05:39:03.000Z</time>
      </trkpt>
      <trkpt lat="49.75129" lon="4.81735">
        <ele>198</ele>
        <time>2021-08-27T05:39:04.000Z</time>
      </trkpt>
      <trkpt lat="49.75127" lon="4.81729">
        <ele>198</ele>
        <time>2021-08-27T05:39:05.000Z</time>
      </trkpt>
      <trkpt lat="49.75125" lon="4.81723">
        <ele>198</ele>
        <time>2021-08-27T05:39:06.000Z</time>
      </trkpt>
      <trkpt lat="49.75123" lon="4.81716">
        <ele>198</ele>
        <time>2021-08-27T05:39:07.000Z</time>
      </trkpt>
      <trkpt lat="49.7512" lon="4.8171">
        <ele>199</ele>
        <time>2021-08-27T05:39:08.000Z</time>
      </trkpt>
      <trkpt lat="49.75119" lon="4.81703">
        <ele>199</ele>
        <time>2021-08-27T05:39:09.000Z</time>
      </trkpt>
      <trkpt lat="49.75117" lon="4.81696">
        <ele>199</ele>
        <time>2021-08-27T05:39:10.000Z</time>
      </trkpt>
      <trkpt lat="49.75116" lon="4.81689">
        <ele>199</ele>
        <time>2021-08-27T05:39:11.000Z</time>
      </trkpt>
      <trkpt lat="49.75114" lon="4.81682">
        <ele>199</ele>
        <time>2021-08-27T05:39:12.000Z</time>
      </trkpt>
      <trkpt lat="49.75113" lon="4.81675">
        <ele>200</ele>
        <time>2021-08-27T05:39:13.000Z</time>
      </trkpt>
      <trkpt lat="49.75113" lon="4.81667">
        <ele>200</ele>
        <time>2021-08-27T05:39:14.000Z</time>
      </trkpt>
      <trkpt lat="49.75112" lon="4.8166">
        <ele>200</ele>
        <time>2021-08-27T05:39:15.000Z</time>
      </trkpt>
      <trkpt lat="49.75112" lon="4.81653">
        <ele>200</ele>
        <time>2021-08-27T05:39:16.000Z</time>
      </trkpt>
      <trkpt lat="49.75111" lon="4.81645">
        <ele>200</ele>
        <time>2021-08-27T05:39:17.000Z</time>
      </trkpt>
      <trkpt lat="49.75111" lon="4.81638">
        <ele>200</ele>
        <time>2021-08-27T05:39:18.000Z</time>
      </trkpt>
      <trkpt lat="49.75111" lon="4.8163">
        <ele>201</ele>
        <time>2021-08-27T05:39:19.000Z</time>
      </trkpt>
      <trkpt lat="49.75111" lon="4.81623">
        <ele>201</ele>
        <time>2021-08-27T05:39:20.000Z</time>
      </trkpt>
      <trkpt lat="49.75111" lon="4.81615">
        <ele>201</ele>
        <time>2021-08-27T05:39:21.000Z</time>
      </trkpt>
      <trkpt lat="49.75111" lon="4.81607">
        <ele>201</ele>
        <time>2021-08-27T05:39:22.000Z</time>
      </trkpt>
      <trkpt lat="49.75111" lon="4.81599">
        <ele>201</ele>
        <time>2021-08-27T05:39:23.000Z</time>
      </trkpt>
      <trkpt lat="49.75111" lon="4.81591">
        <ele>201</ele>
        <time>2021-08-27T05:39:24.000Z</time>
      </trkpt>
      <trkpt lat="49.75111" lon="4.81584">
        <ele>201</ele>
        <time>2021-08-27T05:39:25.000Z</time>
      </trkpt>
      <trkpt lat="49.75112" lon="4.81576">
        <ele>201</ele>
        <time>2021-08-27T05:39:26.000Z</time>
      </trkpt>
      <trkpt lat="49.75112" lon="4.81569">
        <ele>201</ele>
        <time>2021-08-27T05:39:27.000Z</time>
      </trkpt>
      <trkpt lat="49.75113" lon="4.81561">
        <ele>201</ele>
        <time>2021-08-27T05:39:28.000Z</time>
      </trkpt>
      <trkpt lat="49.75114" lon="4.81553">
        <ele>201</ele>
        <time>2021-08-27T05:39:29.000Z</time>
      </trkpt>
      <trkpt lat="49.75115" lon="4.81546">
        <ele>201</ele>
        <time>2021-08-27T05:39:30.000Z</time>
      </trkpt>
      <trkpt lat="49.75116" lon="4.81538">
        <ele>201</ele>
        <time>2021-08-27T05:39:31.000Z</time>
      </trkpt>
      <trkpt lat="49.75118" lon="4.81531">
        <ele>202</ele>
        <time>2021-08-27T05:39:32.000Z</time>
      </trkpt>
      <trkpt lat="49.75119" lon="4.81523">
        <ele>202</ele>
        <time>2021-08-27T05:39:33.000Z</time>
      </trkpt>
      <trkpt lat="49.75121" lon="4.81516">
        <ele>202</ele>
        <time>2021-08-27T05:39:34.000Z</time>
      </trkpt>
      <trkpt lat="49.75122" lon="4.81509">
        <ele>202</ele>
        <time>2021-08-27T05:39:35.000Z</time>
      </trkpt>
      <trkpt lat="49.75124" lon="4.81502">
        <ele>202</ele>
        <time>2021-08-27T05:39:36.000Z</time>
      </trkpt>
      <trkpt lat="49.75125" lon="4.81496">
        <ele>202</ele>
        <time>2021-08-27T05:39:37.000Z</time>
      </trkpt>
      <trkpt lat="49.75127" lon="4.81489">
        <ele>202</ele>
        <time>2021-08-27T05:39:38.000Z</time>
      </trkpt>
      <trkpt lat="49.75129" lon="4.81482">
        <ele>202</ele>
        <time>2021-08-27T05:39:39.000Z</time>
      </trkpt>
      <trkpt lat="49.75131" lon="4.81476">
        <ele>202</ele>
        <time>2021-08-27T05:39:40.000Z</time>
      </trkpt>
      <trkpt lat="49.75132" lon="4.8147">
        <ele>202</ele>
        <time>2021-08-27T05:39:41.000Z</time>
      </trkpt>
      <trkpt lat="49.75134" lon="4.81464">
        <ele>202</ele>
        <time>2021-08-27T05:39:42.000Z</time>
      </trkpt>
      <trkpt lat="49.75135" lon="4.81458">
        <ele>202</ele>
        <time>2021-08-27T05:39:43.000Z</time>
      </trkpt>
      <trkpt lat="49.75136" lon="4.81453">
        <ele>202</ele>
        <time>2021-08-27T05:39:44.000Z</time>
      </trkpt>
      <trkpt lat="49.75137" lon="4.81449">
        <ele>202</ele>
        <time>2021-08-27T05:39:45.000Z</time>
      </trkpt>
      <trkpt lat="49.75138" lon="4.81445">
        <ele>202</ele>
        <time>2021-08-27T05:39:46.000Z</time>
      </trkpt>
      <trkpt lat="49.75139" lon="4.8144">
        <ele>202</ele>
        <time>2021-08-27T05:39:47.000Z</time>
      </trkpt>
      <trkpt lat="49.75139" lon="4.81436">
        <ele>202</ele>
        <time>2021-08-27T05:39:48.000Z</time>
      </trkpt>
      <trkpt lat="49.7514" lon="4.81432">
        <ele>202</ele>
        <time>2021-08-27T05:39:49.000Z</time>
      </trkpt>
      <trkpt lat="49.7514" lon="4.81427">
        <ele>202</ele>
        <time>2021-08-27T05:39:50.000Z</time>
      </trkpt>
      <trkpt lat="49.75141" lon="4.81422">
        <ele>202</ele>
        <time>2021-08-27T05:39:51.000Z</time>
      </trkpt>
      <trkpt lat="49.75141" lon="4.81418">
        <ele>202</ele>
        <time>2021-08-27T05:39:52.000Z</time>
      </trkpt>
      <trkpt lat="49.75142" lon="4.81413">
        <ele>202</ele>
        <time>2021-08-27T05:39:53.000Z</time>
      </trkpt>
      <trkpt lat="49.75143" lon="4.81409">
        <ele>203</ele>
        <time>2021-08-27T05:39:54.000Z</time>
      </trkpt>
      <trkpt lat="49.75143" lon="4.81404">
        <ele>203</ele>
        <time>2021-08-27T05:39:55.000Z</time>
      </trkpt>
      <trkpt lat="49.75144" lon="4.81399">
        <ele>203</ele>
        <time>2021-08-27T05:39:56.000Z</time>
      </trkpt>
      <trkpt lat="49.75145" lon="4.81394">
        <ele>204</ele>
        <time>2021-08-27T05:39:57.000Z</time>
      </trkpt>
      <trkpt lat="49.75145" lon="4.81389">
        <ele>204</ele>
        <time>2021-08-27T05:39:58.000Z</time>
      </trkpt>
      <trkpt lat="49.75145" lon="4.81385">
        <ele>204</ele>
        <time>2021-08-27T05:39:59.000Z</time>
      </trkpt>
      <trkpt lat="49.75145" lon="4.8138">
        <ele>204</ele>
        <time>2021-08-27T05:40:00.000Z</time>
      </trkpt>
      <trkpt lat="49.75145" lon="4.81375">
        <ele>205</ele>
        <time>2021-08-27T05:40:01.000Z</time>
      </trkpt>
      <trkpt lat="49.75146" lon="4.81371">
        <ele>205</ele>
        <time>2021-08-27T05:40:02.000Z</time>
      </trkpt>
      <trkpt lat="49.75146" lon="4.81366">
        <ele>205</ele>
        <time>2021-08-27T05:40:03.000Z</time>
      </trkpt>
      <trkpt lat="49.75146" lon="4.81361">
        <ele>205</ele>
        <time>2021-08-27T05:40:04.000Z</time>
      </trkpt>
      <trkpt lat="49.75146" lon="4.81356">
        <ele>206</ele>
        <time>2021-08-27T05:40:05.000Z</time>
      </trkpt>
      <trkpt lat="49.75146" lon="4.81351">
        <ele>206</ele>
        <time>2021-08-27T05:40:06.000Z</time>
      </trkpt>
      <trkpt lat="49.75146" lon="4.81347">
        <ele>206</ele>
        <time>2021-08-27T05:40:07.000Z</time>
      </trkpt>
      <trkpt lat="49.75146" lon="4.81342">
        <ele>207</ele>
        <time>2021-08-27T05:40:08.000Z</time>
      </trkpt>
      <trkpt lat="49.75146" lon="4.81337">
        <ele>207</ele>
        <time>2021-08-27T05:40:09.000Z</time>
      </trkpt>
      <trkpt lat="49.75146" lon="4.81332">
        <ele>207</ele>
        <time>2021-08-27T05:40:10.000Z</time>
      </trkpt>
      <trkpt lat="49.75145" lon="4.81328">
        <ele>207</ele>
        <time>2021-08-27T05:40:11.000Z</time>
      </trkpt>
      <trkpt lat="49.75145" lon="4.81323">
        <ele>208</ele>
        <time>2021-08-27T05:40:12.000Z</time>
      </trkpt>
      <trkpt lat="49.75145" lon="4.81319">
        <ele>208</ele>
        <time>2021-08-27T05:40:13.000Z</time>
      </trkpt>
      <trkpt lat="49.75144" lon="4.81314">
        <ele>208</ele>
        <time>2021-08-27T05:40:14.000Z</time>
      </trkpt>
      <trkpt lat="49.75145" lon="4.81309">
        <ele>208</ele>
        <time>2021-08-27T05:40:15.000Z</time>
      </trkpt>
      <trkpt lat="49.75144" lon="4.81305">
        <ele>208</ele>
        <time>2021-08-27T05:40:16.000Z</time>
      </trkpt>
      <trkpt lat="49.75144" lon="4.813">
        <ele>208</ele>
        <time>2021-08-27T05:40:17.000Z</time>
      </trkpt>
      <trkpt lat="49.75144" lon="4.81296">
        <ele>208</ele>
        <time>2021-08-27T05:40:18.000Z</time>
      </trkpt>
      <trkpt lat="49.75143" lon="4.81291">
        <ele>209</ele>
        <time>2021-08-27T05:40:19.000Z</time>
      </trkpt>
      <trkpt lat="49.75142" lon="4.81287">
        <ele>209</ele>
        <time>2021-08-27T05:40:20.000Z</time>
      </trkpt>
      <trkpt lat="49.75141" lon="4.81282">
        <ele>209</ele>
        <time>2021-08-27T05:40:21.000Z</time>
      </trkpt>
      <trkpt lat="49.7514" lon="4.81278">
        <ele>209</ele>
        <time>2021-08-27T05:40:22.000Z</time>
      </trkpt>
      <trkpt lat="49.75139" lon="4.81273">
        <ele>209</ele>
        <time>2021-08-27T05:40:23.000Z</time>
      </trkpt>
      <trkpt lat="49.75139" lon="4.81269">
        <ele>210</ele>
        <time>2021-08-27T05:40:24.000Z</time>
      </trkpt>
      <trkpt lat="49.75138" lon="4.81265">
        <ele>210</ele>
        <time>2021-08-27T05:40:25.000Z</time>
      </trkpt>
      <trkpt lat="49.75137" lon="4.81261">
        <ele>210</ele>
        <time>2021-08-27T05:40:26.000Z</time>
      </trkpt>
      <trkpt lat="49.75136" lon="4.81257">
        <ele>210</ele>
        <time>2021-08-27T05:40:27.000Z</time>
      </trkpt>
      <trkpt lat="49.75135" lon="4.81253">
        <ele>210</ele>
        <time>2021-08-27T05:40:28.000Z</time>
      </trkpt>
      <trkpt lat="49.75134" lon="4.81248">
        <ele>210</ele>
        <time>2021-08-27T05:40:29.000Z</time>
      </trkpt>
      <trkpt lat="49.75133" lon="4.81244">
        <ele>211</ele>
        <time>2021-08-27T05:40:30.000Z</time>
      </trkpt>
      <trkpt lat="49.75132" lon="4.8124">
        <ele>211</ele>
        <time>2021-08-27T05:40:31.000Z</time>
      </trkpt>
      <trkpt lat="49.75132" lon="4.81236">
        <ele>211</ele>
        <time>2021-08-27T05:40:32.000Z</time>
      </trkpt>
      <trkpt lat="49.75131" lon="4.81232">
        <ele>211</ele>
        <time>2021-08-27T05:40:33.000Z</time>
      </trkpt>
      <trkpt lat="49.7513" lon="4.81227">
        <ele>211</ele>
        <time>2021-08-27T05:40:34.000Z</time>
      </trkpt>
      <trkpt lat="49.75129" lon="4.81223">
        <ele>211</ele>
        <time>2021-08-27T05:40:35.000Z</time>
      </trkpt>
      <trkpt lat="49.75128" lon="4.81218">
        <ele>211</ele>
        <time>2021-08-27T05:40:36.000Z</time>
      </trkpt>
      <trkpt lat="49.75128" lon="4.81214">
        <ele>211</ele>
        <time>2021-08-27T05:40:37.000Z</time>
      </trkpt>
      <trkpt lat="49.75127" lon="4.8121">
        <ele>211</ele>
        <time>2021-08-27T05:40:38.000Z</time>
      </trkpt>
      <trkpt lat="49.75126" lon="4.81205">
        <ele>212</ele>
        <time>2021-08-27T05:40:39.000Z</time>
      </trkpt>
      <trkpt lat="49.75125" lon="4.81201">
        <ele>212</ele>
        <time>2021-08-27T05:40:40.000Z</time>
      </trkpt>
      <trkpt lat="49.75124" lon="4.81197">
        <ele>212</ele>
        <time>2021-08-27T05:40:41.000Z</time>
      </trkpt>
      <trkpt lat="49.75123" lon="4.81194">
        <ele>212</ele>
        <time>2021-08-27T05:40:42.000Z</time>
      </trkpt>
      <trkpt lat="49.75123" lon="4.81191">
        <ele>212</ele>
        <time>2021-08-27T05:40:43.000Z</time>
      </trkpt>
      <trkpt lat="49.75122" lon="4.8119">
        <ele>212</ele>
        <time>2021-08-27T05:40:44.000Z</time>
      </trkpt>
      <trkpt lat="49.75122" lon="4.8119">
        <ele>212</ele>
        <time>2021-08-27T05:40:45.000Z</time>
      </trkpt>
      <trkpt lat="49.75123" lon="4.8119">
        <ele>212</ele>
        <time>2021-08-27T05:40:46.000Z</time>
      </trkpt>
      <trkpt lat="49.75123" lon="4.8119">
        <ele>212</ele>
        <time>2021-08-27T05:40:47.000Z</time>
      </trkpt>
      <trkpt lat="49.75123" lon="4.8119">
        <ele>212</ele>
        <time>2021-08-27T05:40:48.000Z</time>
      </trkpt>
      <trkpt lat="49.75123" lon="4.8119">
        <ele>212</ele>
        <time>2021-08-27T05:40:49.000Z</time>
      </trkpt>
      <trkpt lat="49.75123" lon="4.8119">
        <ele>212</ele>
        <time>2021-08-27T05:40:50.000Z</time>
      </trkpt>
      <trkpt lat="49.75123" lon="4.8119">
        <ele>212</ele>
        <time>2021-08-27T05:40:51.000Z</time>
      </trkpt>
      <trkpt lat="49.75123" lon="4.8119">
        <ele>212</ele>
        <time>2021-08-27T05:40:52.000Z</time>
      </trkpt>
      <trkpt lat="49.75123" lon="4.8119">
        <ele>212</ele>
        <time>2021-08-27T05:40:53.000Z</time>
      </trkpt>
      <trkpt lat="49.75123" lon="4.8119">
        <ele>212</ele>
        <time>2021-08-27T05:40:54.000Z</time>
      </trkpt>
      <trkpt lat="49.75123" lon="4.8119">
        <ele>212</ele>
        <time>2021-08-27T05:40:55.000Z</time>
      </trkpt>
      <trkpt lat="49.75123" lon="4.8119">
        <ele>212</ele>
        <time>2021-08-27T05:40:56.000Z</time>
      </trkpt>
      <trkpt lat="49.75123" lon="4.8119">
        <ele>212</ele>
        <time>2021-08-27T05:40:57.000Z</time>
      </trkpt>
      <trkpt lat="49.75123" lon="4.8119">
        <ele>212</ele>
        <time>2021-08-27T05:40:58.000Z</time>
      </trkpt>
      <trkpt lat="49.75122" lon="4.8119">
        <ele>212</ele>
        <time>2021-08-27T05:40:59.000Z</time>
      </trkpt>
      <trkpt lat="49.75122" lon="4.8119">
        <ele>212</ele>
        <time>2021-08-27T05:41:00.000Z</time>
      </trkpt>
      <trkpt lat="49.75122" lon="4.8119">
        <ele>212</ele>
        <time>2021-08-27T05:41:01.000Z</time>
      </trkpt>
      <trkpt lat="49.75122" lon="4.8119">
        <ele>212</ele>
        <time>2021-08-27T05:41:02.000Z</time>
      </trkpt>
      <trkpt lat="49.75122" lon="4.8119">
        <ele>212</ele>
        <time>2021-08-27T05:41:03.000Z</time>
      </trkpt>
      <trkpt lat="49.75122" lon="4.8119">
        <ele>212</ele>
        <time>2021-08-27T05:41:04.000Z</time>
      </trkpt>
      <trkpt lat="49.75122" lon="4.8119">
        <ele>212</ele>
        <time>2021-08-27T05:41:05.000Z</time>
      </trkpt>
      <trkpt lat="49.75122" lon="4.8119">
        <ele>212</ele>
        <time>2021-08-27T05:41:06.000Z</time>
      </trkpt>
      <trkpt lat="49.75122" lon="4.8119">
        <ele>212</ele>
        <time>2021-08-27T05:41:07.000Z</time>
      </trkpt>
      <trkpt lat="49.75122" lon="4.8119">
        <ele>212</ele>
        <time>2021-08-27T05:41:08.000Z</time>
      </trkpt>
      <trkpt lat="49.75122" lon="4.8119">
        <ele>212</ele>
        <time>2021-08-27T05:41:09.000Z</time>
      </trkpt>
      <trkpt lat="49.75122" lon="4.8119">
        <ele>213</ele>
        <time>2021-08-27T05:41:10.000Z</time>
      </trkpt>
      <trkpt lat="49.75122" lon="4.8119">
        <ele>213</ele>
        <time>2021-08-27T05:41:11.000Z</time>
      </trkpt>
      <trkpt lat="49.75122" lon="4.8119">
        <ele>213</ele>
        <time>2021-08-27T05:41:12.000Z</time>
      </trkpt>
      <trkpt lat="49.75122" lon="4.8119">
        <ele>213</ele>
        <time>2021-08-27T05:41:13.000Z</time>
      </trkpt>
      <trkpt lat="49.75121" lon="4.8119">
        <ele>213</ele>
        <time>2021-08-27T05:41:14.000Z</time>
      </trkpt>
      <trkpt lat="49.75121" lon="4.81189">
        <ele>213</ele>
        <time>2021-08-27T05:41:15.000Z</time>
      </trkpt>
      <trkpt lat="49.75121" lon="4.81188">
        <ele>213</ele>
        <time>2021-08-27T05:41:16.000Z</time>
      </trkpt>
      <trkpt lat="49.75121" lon="4.81187">
        <ele>213</ele>
        <time>2021-08-27T05:41:17.000Z</time>
      </trkpt>
      <trkpt lat="49.7512" lon="4.81185">
        <ele>213</ele>
        <time>2021-08-27T05:41:18.000Z</time>
      </trkpt>
      <trkpt lat="49.7512" lon="4.81183">
        <ele>213</ele>
        <time>2021-08-27T05:41:19.000Z</time>
      </trkpt>
      <trkpt lat="49.7512" lon="4.8118">
        <ele>213</ele>
        <time>2021-08-27T05:41:20.000Z</time>
      </trkpt>
      <trkpt lat="49.7512" lon="4.81177">
        <ele>213</ele>
        <time>2021-08-27T05:41:21.000Z</time>
      </trkpt>
      <trkpt lat="49.7512" lon="4.81174">
        <ele>213</ele>
        <time>2021-08-27T05:41:22.000Z</time>
      </trkpt>
      <trkpt lat="49.75119" lon="4.81171">
        <ele>213</ele>
        <time>2021-08-27T05:41:23.000Z</time>
      </trkpt>
      <trkpt lat="49.75119" lon="4.81167">
        <ele>213</ele>
        <time>2021-08-27T05:41:24.000Z</time>
      </trkpt>
      <trkpt lat="49.75118" lon="4.81163">
        <ele>214</ele>
        <time>2021-08-27T05:41:25.000Z</time>
      </trkpt>
      <trkpt lat="49.75118" lon="4.81159">
        <ele>214</ele>
        <time>2021-08-27T05:41:26.000Z</time>
      </trkpt>
      <trkpt lat="49.75118" lon="4.81155">
        <ele>214</ele>
        <time>2021-08-27T05:41:27.000Z</time>
      </trkpt>
      <trkpt lat="49.75117" lon="4.8115">
        <ele>214</ele>
        <time>2021-08-27T05:41:28.000Z</time>
      </trkpt>
      <trkpt lat="49.75116" lon="4.81145">
        <ele>214</ele>
        <time>2021-08-27T05:41:29.000Z</time>
      </trkpt>
      <trkpt lat="49.75115" lon="4.8114">
        <ele>214</ele>
        <time>2021-08-27T05:41:30.000Z</time>
      </trkpt>
      <trkpt lat="49.75114" lon="4.81135">
        <ele>214</ele>
        <time>2021-08-27T05:41:31.000Z</time>
      </trkpt>
      <trkpt lat="49.75112" lon="4.81131">
        <ele>215</ele>
        <time>2021-08-27T05:41:32.000Z</time>
      </trkpt>
      <trkpt lat="49.7511" lon="4.81127">
        <ele>215</ele>
        <time>2021-08-27T05:41:33.000Z</time>
      </trkpt>
      <trkpt lat="49.75109" lon="4.81124">
        <ele>215</ele>
        <time>2021-08-27T05:41:34.000Z</time>
      </trkpt>
      <trkpt lat="49.75107" lon="4.8112">
        <ele>215</ele>
        <time>2021-08-27T05:41:35.000Z</time>
      </trkpt>
      <trkpt lat="49.75105" lon="4.81116">
        <ele>215</ele>
        <time>2021-08-27T05:41:36.000Z</time>
      </trkpt>
      <trkpt lat="49.75103" lon="4.81111">
        <ele>216</ele>
        <time>2021-08-27T05:41:37.000Z</time>
      </trkpt>
      <trkpt lat="49.75102" lon="4.81106">
        <ele>216</ele>
        <time>2021-08-27T05:41:38.000Z</time>
      </trkpt>
      <trkpt lat="49.751" lon="4.81101">
        <ele>216</ele>
        <time>2021-08-27T05:41:39.000Z</time>
      </trkpt>
      <trkpt lat="49.75098" lon="4.81095">
        <ele>216</ele>
        <time>2021-08-27T05:41:40.000Z</time>
      </trkpt>
      <trkpt lat="49.75096" lon="4.8109">
        <ele>216</ele>
        <time>2021-08-27T05:41:41.000Z</time>
      </trkpt>
      <trkpt lat="49.75094" lon="4.81083">
        <ele>216</ele>
        <time>2021-08-27T05:41:42.000Z</time>
      </trkpt>
      <trkpt lat="49.75092" lon="4.81077">
        <ele>216</ele>
        <time>2021-08-27T05:41:43.000Z</time>
      </trkpt>
      <trkpt lat="49.75089" lon="4.81072">
        <ele>216</ele>
        <time>2021-08-27T05:41:44.000Z</time>
      </trkpt>
      <trkpt lat="49.75087" lon="4.81065">
        <ele>216</ele>
        <time>2021-08-27T05:41:45.000Z</time>
      </trkpt>
      <trkpt lat="49.75085" lon="4.81059">
        <ele>216</ele>
        <time>2021-08-27T05:41:46.000Z</time>
      </trkpt>
      <trkpt lat="49.75084" lon="4.81053">
        <ele>216</ele>
        <time>2021-08-27T05:41:47.000Z</time>
      </trkpt>
      <trkpt lat="49.75082" lon="4.81047">
        <ele>216</ele>
        <time>2021-08-27T05:41:48.000Z</time>
      </trkpt>
      <trkpt lat="49.75081" lon="4.81043">
        <ele>217</ele>
        <time>2021-08-27T05:41:49.000Z</time>
      </trkpt>
      <trkpt lat="49.7508" lon="4.81041">
        <ele>217</ele>
        <time>2021-08-27T05:41:50.000Z</time>
      </trkpt>
      <trkpt lat="49.7508" lon="4.81041">
        <ele>217</ele>
        <time>2021-08-27T05:41:51.000Z</time>
      </trkpt>
      <trkpt lat="49.75079" lon="4.8104">
        <ele>217</ele>
        <time>2021-08-27T05:41:52.000Z</time>
      </trkpt>
      <trkpt lat="49.75079" lon="4.8104">
        <ele>217</ele>
        <time>2021-08-27T05:41:53.000Z</time>
      </trkpt>
      <trkpt lat="49.75079" lon="4.8104">
        <ele>217</ele>
        <time>2021-08-27T05:41:54.000Z</time>
      </trkpt>
      <trkpt lat="49.7508" lon="4.8104">
        <ele>217</ele>
        <time>2021-08-27T05:41:55.000Z</time>
      </trkpt>
      <trkpt lat="49.7508" lon="4.8104">
        <ele>217</ele>
        <time>2021-08-27T05:41:56.000Z</time>
      </trkpt>
      <trkpt lat="49.7508" lon="4.8104">
        <ele>217</ele>
        <time>2021-08-27T05:41:57.000Z</time>
      </trkpt>
      <trkpt lat="49.7508" lon="4.8104">
        <ele>217</ele>
        <time>2021-08-27T05:41:58.000Z</time>
      </trkpt>
      <trkpt lat="49.7508" lon="4.8104">
        <ele>217</ele>
        <time>2021-08-27T05:41:59.000Z</time>
      </trkpt>
      <trkpt lat="49.7508" lon="4.8104">
        <ele>217</ele>
        <time>2021-08-27T05:42:00.000Z</time>
      </trkpt>
      <trkpt lat="49.7508" lon="4.81039">
        <ele>217</ele>
        <time>2021-08-27T05:42:01.000Z</time>
      </trkpt>
      <trkpt lat="49.7508" lon="4.81038">
        <ele>217</ele>
        <time>2021-08-27T05:42:02.000Z</time>
      </trkpt>
      <trkpt lat="49.7508" lon="4.81036">
        <ele>217</ele>
        <time>2021-08-27T05:42:03.000Z</time>
      </trkpt>
      <trkpt lat="49.7508" lon="4.81034">
        <ele>217</ele>
        <time>2021-08-27T05:42:04.000Z</time>
      </trkpt>
      <trkpt lat="49.7508" lon="4.81031">
        <ele>217</ele>
        <time>2021-08-27T05:42:05.000Z</time>
      </trkpt>
      <trkpt lat="49.7508" lon="4.81027">
        <ele>217</ele>
        <time>2021-08-27T05:42:06.000Z</time>
      </trkpt>
      <trkpt lat="49.75079" lon="4.81024">
        <ele>217</ele>
        <time>2021-08-27T05:42:07.000Z</time>
      </trkpt>
      <trkpt lat="49.75079" lon="4.81021">
        <ele>218</ele>
        <time>2021-08-27T05:42:08.000Z</time>
      </trkpt>
      <trkpt lat="49.75078" lon="4.81017">
        <ele>218</ele>
        <time>2021-08-27T05:42:09.000Z</time>
      </trkpt>
      <trkpt lat="49.75078" lon="4.81013">
        <ele>218</ele>
        <time>2021-08-27T05:42:10.000Z</time>
      </trkpt>
      <trkpt lat="49.75077" lon="4.8101">
        <ele>218</ele>
        <time>2021-08-27T05:42:11.000Z</time>
      </trkpt>
      <trkpt lat="49.75076" lon="4.81007">
        <ele>218</ele>
        <time>2021-08-27T05:42:12.000Z</time>
      </trkpt>
      <trkpt lat="49.75076" lon="4.81003">
        <ele>218</ele>
        <time>2021-08-27T05:42:13.000Z</time>
      </trkpt>
      <trkpt lat="49.75075" lon="4.80999">
        <ele>218</ele>
        <time>2021-08-27T05:42:14.000Z</time>
      </trkpt>
      <trkpt lat="49.75075" lon="4.80995">
        <ele>218</ele>
        <time>2021-08-27T05:42:15.000Z</time>
      </trkpt>
      <trkpt lat="49.75074" lon="4.80991">
        <ele>218</ele>
        <time>2021-08-27T05:42:16.000Z</time>
      </trkpt>
      <trkpt lat="49.75073" lon="4.80987">
        <ele>219</ele>
        <time>2021-08-27T05:42:17.000Z</time>
      </trkpt>
      <trkpt lat="49.75073" lon="4.80982">
        <ele>219</ele>
        <time>2021-08-27T05:42:18.000Z</time>
      </trkpt>
      <trkpt lat="49.75072" lon="4.80976">
        <ele>219</ele>
        <time>2021-08-27T05:42:19.000Z</time>
      </trkpt>
      <trkpt lat="49.75072" lon="4.8097">
        <ele>219</ele>
        <time>2021-08-27T05:42:20.000Z</time>
      </trkpt>
      <trkpt lat="49.75072" lon="4.80964">
        <ele>219</ele>
        <time>2021-08-27T05:42:21.000Z</time>
      </trkpt>
      <trkpt lat="49.75071" lon="4.80956">
        <ele>219</ele>
        <time>2021-08-27T05:42:22.000Z</time>
      </trkpt>
      <trkpt lat="49.7507" lon="4.80947">
        <ele>218</ele>
        <time>2021-08-27T05:42:23.000Z</time>
      </trkpt>
      <trkpt lat="49.75069" lon="4.80937">
        <ele>218</ele>
        <time>2021-08-27T05:42:24.000Z</time>
      </trkpt>
      <trkpt lat="49.75068" lon="4.80927">
        <ele>218</ele>
        <time>2021-08-27T05:42:25.000Z</time>
      </trkpt>
      <trkpt lat="49.75068" lon="4.80917">
        <ele>218</ele>
        <time>2021-08-27T05:42:26.000Z</time>
      </trkpt>
      <trkpt lat="49.75068" lon="4.80906">
        <ele>218</ele>
        <time>2021-08-27T05:42:27.000Z</time>
      </trkpt>
      <trkpt lat="49.75068" lon="4.80894">
        <ele>218</ele>
        <time>2021-08-27T05:42:28.000Z</time>
      </trkpt>
      <trkpt lat="49.75068" lon="4.80882">
        <ele>218</ele>
        <time>2021-08-27T05:42:29.000Z</time>
      </trkpt>
      <trkpt lat="49.75068" lon="4.80869">
        <ele>218</ele>
        <time>2021-08-27T05:42:30.000Z</time>
      </trkpt>
      <trkpt lat="49.75068" lon="4.80856">
        <ele>217</ele>
        <time>2021-08-27T05:42:31.000Z</time>
      </trkpt>
      <trkpt lat="49.75067" lon="4.80843">
        <ele>217</ele>
        <time>2021-08-27T05:42:32.000Z</time>
      </trkpt>
      <trkpt lat="49.75067" lon="4.8083">
        <ele>217</ele>
        <time>2021-08-27T05:42:33.000Z</time>
      </trkpt>
      <trkpt lat="49.75069" lon="4.80815">
        <ele>217</ele>
        <time>2021-08-27T05:42:34.000Z</time>
      </trkpt>
      <trkpt lat="49.75071" lon="4.80801">
        <ele>217</ele>
        <time>2021-08-27T05:42:35.000Z</time>
      </trkpt>
      <trkpt lat="49.75073" lon="4.80786">
        <ele>216</ele>
        <time>2021-08-27T05:42:36.000Z</time>
      </trkpt>
      <trkpt lat="49.75076" lon="4.80772">
        <ele>216</ele>
        <time>2021-08-27T05:42:37.000Z</time>
      </trkpt>
      <trkpt lat="49.75078" lon="4.80758">
        <ele>216</ele>
        <time>2021-08-27T05:42:38.000Z</time>
      </trkpt>
      <trkpt lat="49.75082" lon="4.80745">
        <ele>215</ele>
        <time>2021-08-27T05:42:39.000Z</time>
      </trkpt>
      <trkpt lat="49.75087" lon="4.80733">
        <ele>215</ele>
        <time>2021-08-27T05:42:40.000Z</time>
      </trkpt>
      <trkpt lat="49.75092" lon="4.80722">
        <ele>215</ele>
        <time>2021-08-27T05:42:41.000Z</time>
      </trkpt>
      <trkpt lat="49.751" lon="4.80713">
        <ele>214</ele>
        <time>2021-08-27T05:42:42.000Z</time>
      </trkpt>
      <trkpt lat="49.75108" lon="4.80705">
        <ele>214</ele>
        <time>2021-08-27T05:42:43.000Z</time>
      </trkpt>
      <trkpt lat="49.75116" lon="4.80699">
        <ele>213</ele>
        <time>2021-08-27T05:42:44.000Z</time>
      </trkpt>
      <trkpt lat="49.75124" lon="4.80695">
        <ele>213</ele>
        <time>2021-08-27T05:42:45.000Z</time>
      </trkpt>
      <trkpt lat="49.75133" lon="4.80693">
        <ele>212</ele>
        <time>2021-08-27T05:42:46.000Z</time>
      </trkpt>
      <trkpt lat="49.7514" lon="4.80693">
        <ele>212</ele>
        <time>2021-08-27T05:42:47.000Z</time>
      </trkpt>
      <trkpt lat="49.75148" lon="4.80694">
        <ele>211</ele>
        <time>2021-08-27T05:42:48.000Z</time>
      </trkpt>
      <trkpt lat="49.75155" lon="4.80694">
        <ele>211</ele>
        <time>2021-08-27T05:42:49.000Z</time>
      </trkpt>
      <trkpt lat="49.75162" lon="4.80693">
        <ele>210</ele>
        <time>2021-08-27T05:42:50.000Z</time>
      </trkpt>
      <trkpt lat="49.75168" lon="4.80693">
        <ele>210</ele>
        <time>2021-08-27T05:42:51.000Z</time>
      </trkpt>
      <trkpt lat="49.75175" lon="4.80692">
        <ele>210</ele>
        <time>2021-08-27T05:42:52.000Z</time>
      </trkpt>
      <trkpt lat="49.7518" lon="4.80691">
        <ele>209</ele>
        <time>2021-08-27T05:42:53.000Z</time>
      </trkpt>
      <trkpt lat="49.75186" lon="4.80691">
        <ele>209</ele>
        <time>2021-08-27T05:42:54.000Z</time>
      </trkpt>
      <trkpt lat="49.75192" lon="4.8069">
        <ele>209</ele>
        <time>2021-08-27T05:42:55.000Z</time>
      </trkpt>
      <trkpt lat="49.75198" lon="4.8069">
        <ele>209</ele>
        <time>2021-08-27T05:42:56.000Z</time>
      </trkpt>
      <trkpt lat="49.75203" lon="4.80689">
        <ele>208</ele>
        <time>2021-08-27T05:42:57.000Z</time>
      </trkpt>
      <trkpt lat="49.75209" lon="4.80689">
        <ele>208</ele>
        <time>2021-08-27T05:42:58.000Z</time>
      </trkpt>
      <trkpt lat="49.75215" lon="4.80688">
        <ele>208</ele>
        <time>2021-08-27T05:42:59.000Z</time>
      </trkpt>
      <trkpt lat="49.7522" lon="4.80689">
        <ele>208</ele>
        <time>2021-08-27T05:43:00.000Z</time>
      </trkpt>
      <trkpt lat="49.75226" lon="4.8069">
        <ele>208</ele>
        <time>2021-08-27T05:43:01.000Z</time>
      </trkpt>
      <trkpt lat="49.7523" lon="4.80692">
        <ele>208</ele>
        <time>2021-08-27T05:43:02.000Z</time>
      </trkpt>
      <trkpt lat="49.75235" lon="4.80693">
        <ele>207</ele>
        <time>2021-08-27T05:43:03.000Z</time>
      </trkpt>
      <trkpt lat="49.75239" lon="4.80695">
        <ele>207</ele>
        <time>2021-08-27T05:43:04.000Z</time>
      </trkpt>
      <trkpt lat="49.75244" lon="4.80696">
        <ele>207</ele>
        <time>2021-08-27T05:43:05.000Z</time>
      </trkpt>
      <trkpt lat="49.75248" lon="4.80697">
        <ele>207</ele>
        <time>2021-08-27T05:43:06.000Z</time>
      </trkpt>
      <trkpt lat="49.75252" lon="4.80697">
        <ele>207</ele>
        <time>2021-08-27T05:43:07.000Z</time>
      </trkpt>
      <trkpt lat="49.75256" lon="4.80697">
        <ele>206</ele>
        <time>2021-08-27T05:43:08.000Z</time>
      </trkpt>
      <trkpt lat="49.7526" lon="4.80696">
        <ele>206</ele>
        <time>2021-08-27T05:43:09.000Z</time>
      </trkpt>
      <trkpt lat="49.75263" lon="4.80694">
        <ele>206</ele>
        <time>2021-08-27T05:43:10.000Z</time>
      </trkpt>
      <trkpt lat="49.75266" lon="4.80691">
        <ele>206</ele>
        <time>2021-08-27T05:43:11.000Z</time>
      </trkpt>
      <trkpt lat="49.7527" lon="4.80689">
        <ele>206</ele>
        <time>2021-08-27T05:43:12.000Z</time>
      </trkpt>
      <trkpt lat="49.75272" lon="4.80687">
        <ele>206</ele>
        <time>2021-08-27T05:43:13.000Z</time>
      </trkpt>
      <trkpt lat="49.75275" lon="4.80685">
        <ele>206</ele>
        <time>2021-08-27T05:43:14.000Z</time>
      </trkpt>
      <trkpt lat="49.75278" lon="4.80683">
        <ele>206</ele>
        <time>2021-08-27T05:43:15.000Z</time>
      </trkpt>
      <trkpt lat="49.75281" lon="4.8068">
        <ele>206</ele>
        <time>2021-08-27T05:43:16.000Z</time>
      </trkpt>
      <trkpt lat="49.75284" lon="4.80678">
        <ele>206</ele>
        <time>2021-08-27T05:43:17.000Z</time>
      </trkpt>
      <trkpt lat="49.75287" lon="4.80676">
        <ele>206</ele>
        <time>2021-08-27T05:43:18.000Z</time>
      </trkpt>
      <trkpt lat="49.7529" lon="4.80675">
        <ele>206</ele>
        <time>2021-08-27T05:43:19.000Z</time>
      </trkpt>
      <trkpt lat="49.75293" lon="4.80673">
        <ele>206</ele>
        <time>2021-08-27T05:43:20.000Z</time>
      </trkpt>
      <trkpt lat="49.75297" lon="4.80671">
        <ele>206</ele>
        <time>2021-08-27T05:43:21.000Z</time>
      </trkpt>
      <trkpt lat="49.753" lon="4.80671">
        <ele>206</ele>
        <time>2021-08-27T05:43:22.000Z</time>
      </trkpt>
      <trkpt lat="49.75304" lon="4.8067">
        <ele>206</ele>
        <time>2021-08-27T05:43:23.000Z</time>
      </trkpt>
      <trkpt lat="49.75308" lon="4.8067">
        <ele>206</ele>
        <time>2021-08-27T05:43:24.000Z</time>
      </trkpt>
      <trkpt lat="49.75312" lon="4.8067">
        <ele>206</ele>
        <time>2021-08-27T05:43:25.000Z</time>
      </trkpt>
      <trkpt lat="49.75316" lon="4.8067">
        <ele>206</ele>
        <time>2021-08-27T05:43:26.000Z</time>
      </trkpt>
      <trkpt lat="49.75319" lon="4.8067">
        <ele>206</ele>
        <time>2021-08-27T05:43:27.000Z</time>
      </trkpt>
      <trkpt lat="49.75322" lon="4.8067">
        <ele>207</ele>
        <time>2021-08-27T05:43:28.000Z</time>
      </trkpt>
      <trkpt lat="49.75325" lon="4.8067">
        <ele>207</ele>
        <time>2021-08-27T05:43:29.000Z</time>
      </trkpt>
      <trkpt lat="49.75329" lon="4.8067">
        <ele>207</ele>
        <time>2021-08-27T05:43:30.000Z</time>
      </trkpt>
      <trkpt lat="49.75332" lon="4.80671">
        <ele>207</ele>
        <time>2021-08-27T05:43:31.000Z</time>
      </trkpt>
      <trkpt lat="49.75335" lon="4.80672">
        <ele>207</ele>
        <time>2021-08-27T05:43:32.000Z</time>
      </trkpt>
      <trkpt lat="49.75338" lon="4.80672">
        <ele>208</ele>
        <time>2021-08-27T05:43:33.000Z</time>
      </trkpt>
      <trkpt lat="49.7534" lon="4.80672">
        <ele>208</ele>
        <time>2021-08-27T05:43:34.000Z</time>
      </trkpt>
      <trkpt lat="49.75343" lon="4.80672">
        <ele>208</ele>
        <time>2021-08-27T05:43:35.000Z</time>
      </trkpt>
      <trkpt lat="49.75346" lon="4.80672">
        <ele>208</ele>
        <time>2021-08-27T05:43:36.000Z</time>
      </trkpt>
      <trkpt lat="49.7535" lon="4.80673">
        <ele>208</ele>
        <time>2021-08-27T05:43:37.000Z</time>
      </trkpt>
      <trkpt lat="49.75354" lon="4.80673">
        <ele>209</ele>
        <time>2021-08-27T05:43:38.000Z</time>
      </trkpt>
      <trkpt lat="49.75357" lon="4.80673">
        <ele>209</ele>
        <time>2021-08-27T05:43:39.000Z</time>
      </trkpt>
      <trkpt lat="49.75361" lon="4.80674">
        <ele>209</ele>
        <time>2021-08-27T05:43:40.000Z</time>
      </trkpt>
      <trkpt lat="49.75365" lon="4.80675">
        <ele>209</ele>
        <time>2021-08-27T05:43:41.000Z</time>
      </trkpt>
      <trkpt lat="49.75368" lon="4.80676">
        <ele>210</ele>
        <time>2021-08-27T05:43:42.000Z</time>
      </trkpt>
      <trkpt lat="49.75371" lon="4.80677">
        <ele>210</ele>
        <time>2021-08-27T05:43:43.000Z</time>
      </trkpt>
      <trkpt lat="49.75374" lon="4.80678">
        <ele>210</ele>
        <time>2021-08-27T05:43:44.000Z</time>
      </trkpt>
      <trkpt lat="49.75376" lon="4.80679">
        <ele>210</ele>
        <time>2021-08-27T05:43:45.000Z</time>
      </trkpt>
      <trkpt lat="49.75379" lon="4.8068">
        <ele>211</ele>
        <time>2021-08-27T05:43:46.000Z</time>
      </trkpt>
      <trkpt lat="49.75382" lon="4.80681">
        <ele>211</ele>
        <time>2021-08-27T05:43:47.000Z</time>
      </trkpt>
      <trkpt lat="49.75384" lon="4.80682">
        <ele>211</ele>
        <time>2021-08-27T05:43:48.000Z</time>
      </trkpt>
      <trkpt lat="49.75386" lon="4.80683">
        <ele>211</ele>
        <time>2021-08-27T05:43:49.000Z</time>
      </trkpt>
      <trkpt lat="49.75387" lon="4.80684">
        <ele>212</ele>
        <time>2021-08-27T05:43:50.000Z</time>
      </trkpt>
      <trkpt lat="49.75389" lon="4.80685">
        <ele>212</ele>
        <time>2021-08-27T05:43:51.000Z</time>
      </trkpt>
      <trkpt lat="49.75391" lon="4.80686">
        <ele>212</ele>
        <time>2021-08-27T05:43:52.000Z</time>
      </trkpt>
      <trkpt lat="49.75393" lon="4.80687">
        <ele>212</ele>
        <time>2021-08-27T05:43:53.000Z</time>
      </trkpt>
      <trkpt lat="49.75395" lon="4.80689">
        <ele>212</ele>
        <time>2021-08-27T05:43:54.000Z</time>
      </trkpt>
      <trkpt lat="49.75397" lon="4.8069">
        <ele>212</ele>
        <time>2021-08-27T05:43:55.000Z</time>
      </trkpt>
      <trkpt lat="49.75399" lon="4.80691">
        <ele>212</ele>
        <time>2021-08-27T05:43:56.000Z</time>
      </trkpt>
      <trkpt lat="49.75402" lon="4.80693">
        <ele>212</ele>
        <time>2021-08-27T05:43:57.000Z</time>
      </trkpt>
      <trkpt lat="49.75405" lon="4.80693">
        <ele>212</ele>
        <time>2021-08-27T05:43:58.000Z</time>
      </trkpt>
      <trkpt lat="49.75407" lon="4.80694">
        <ele>213</ele>
        <time>2021-08-27T05:43:59.000Z</time>
      </trkpt>
      <trkpt lat="49.75411" lon="4.80695">
        <ele>213</ele>
        <time>2021-08-27T05:44:00.000Z</time>
      </trkpt>
      <trkpt lat="49.75413" lon="4.80696">
        <ele>213</ele>
        <time>2021-08-27T05:44:01.000Z</time>
      </trkpt>
      <trkpt lat="49.75416" lon="4.80697">
        <ele>213</ele>
        <time>2021-08-27T05:44:02.000Z</time>
      </trkpt>
      <trkpt lat="49.75418" lon="4.80698">
        <ele>213</ele>
        <time>2021-08-27T05:44:03.000Z</time>
      </trkpt>
      <trkpt lat="49.7542" lon="4.80699">
        <ele>213</ele>
        <time>2021-08-27T05:44:04.000Z</time>
      </trkpt>
      <trkpt lat="49.75422" lon="4.807">
        <ele>213</ele>
        <time>2021-08-27T05:44:05.000Z</time>
      </trkpt>
      <trkpt lat="49.75425" lon="4.80702">
        <ele>214</ele>
        <time>2021-08-27T05:44:06.000Z</time>
      </trkpt>
      <trkpt lat="49.75427" lon="4.80703">
        <ele>214</ele>
        <time>2021-08-27T05:44:07.000Z</time>
      </trkpt>
      <trkpt lat="49.7543" lon="4.80705">
        <ele>214</ele>
        <time>2021-08-27T05:44:08.000Z</time>
      </trkpt>
      <trkpt lat="49.75432" lon="4.80706">
        <ele>214</ele>
        <time>2021-08-27T05:44:09.000Z</time>
      </trkpt>
      <trkpt lat="49.75434" lon="4.80708">
        <ele>214</ele>
        <time>2021-08-27T05:44:10.000Z</time>
      </trkpt>
      <trkpt lat="49.75437" lon="4.80711">
        <ele>214</ele>
        <time>2021-08-27T05:44:11.000Z</time>
      </trkpt>
      <trkpt lat="49.75438" lon="4.80713">
        <ele>215</ele>
        <time>2021-08-27T05:44:12.000Z</time>
      </trkpt>
      <trkpt lat="49.7544" lon="4.80715">
        <ele>215</ele>
        <time>2021-08-27T05:44:13.000Z</time>
      </trkpt>
      <trkpt lat="49.75442" lon="4.80717">
        <ele>215</ele>
        <time>2021-08-27T05:44:14.000Z</time>
      </trkpt>
      <trkpt lat="49.75445" lon="4.80719">
        <ele>215</ele>
        <time>2021-08-27T05:44:15.000Z</time>
      </trkpt>
      <trkpt lat="49.75447" lon="4.80721">
        <ele>215</ele>
        <time>2021-08-27T05:44:16.000Z</time>
      </trkpt>
      <trkpt lat="49.75449" lon="4.80723">
        <ele>215</ele>
        <time>2021-08-27T05:44:17.000Z</time>
      </trkpt>
      <trkpt lat="49.7545" lon="4.80725">
        <ele>215</ele>
        <time>2021-08-27T05:44:18.000Z</time>
      </trkpt>
      <trkpt lat="49.75453" lon="4.80726">
        <ele>215</ele>
        <time>2021-08-27T05:44:19.000Z</time>
      </trkpt>
      <trkpt lat="49.75455" lon="4.80728">
        <ele>215</ele>
        <time>2021-08-27T05:44:20.000Z</time>
      </trkpt>
      <trkpt lat="49.75457" lon="4.80729">
        <ele>216</ele>
        <time>2021-08-27T05:44:21.000Z</time>
      </trkpt>
      <trkpt lat="49.75459" lon="4.8073">
        <ele>216</ele>
        <time>2021-08-27T05:44:22.000Z</time>
      </trkpt>
      <trkpt lat="49.75461" lon="4.80732">
        <ele>216</ele>
        <time>2021-08-27T05:44:23.000Z</time>
      </trkpt>
      <trkpt lat="49.75463" lon="4.80735">
        <ele>216</ele>
        <time>2021-08-27T05:44:24.000Z</time>
      </trkpt>
      <trkpt lat="49.75465" lon="4.80737">
        <ele>216</ele>
        <time>2021-08-27T05:44:25.000Z</time>
      </trkpt>
      <trkpt lat="49.75466" lon="4.80739">
        <ele>217</ele>
        <time>2021-08-27T05:44:26.000Z</time>
      </trkpt>
      <trkpt lat="49.75468" lon="4.80742">
        <ele>217</ele>
        <time>2021-08-27T05:44:27.000Z</time>
      </trkpt>
      <trkpt lat="49.75471" lon="4.80745">
        <ele>217</ele>
        <time>2021-08-27T05:44:28.000Z</time>
      </trkpt>
      <trkpt lat="49.75473" lon="4.80748">
        <ele>217</ele>
        <time>2021-08-27T05:44:29.000Z</time>
      </trkpt>
      <trkpt lat="49.75475" lon="4.80751">
        <ele>218</ele>
        <time>2021-08-27T05:44:30.000Z</time>
      </trkpt>
      <trkpt lat="49.75478" lon="4.80754">
        <ele>218</ele>
        <time>2021-08-27T05:44:31.000Z</time>
      </trkpt>
      <trkpt lat="49.75482" lon="4.80756">
        <ele>218</ele>
        <time>2021-08-27T05:44:32.000Z</time>
      </trkpt>
      <trkpt lat="49.75485" lon="4.80758">
        <ele>218</ele>
        <time>2021-08-27T05:44:33.000Z</time>
      </trkpt>
      <trkpt lat="49.75489" lon="4.80761">
        <ele>219</ele>
        <time>2021-08-27T05:44:34.000Z</time>
      </trkpt>
      <trkpt lat="49.75493" lon="4.80763">
        <ele>219</ele>
        <time>2021-08-27T05:44:35.000Z</time>
      </trkpt>
      <trkpt lat="49.75496" lon="4.80766">
        <ele>219</ele>
        <time>2021-08-27T05:44:36.000Z</time>
      </trkpt>
      <trkpt lat="49.75499" lon="4.80768">
        <ele>220</ele>
        <time>2021-08-27T05:44:37.000Z</time>
      </trkpt>
      <trkpt lat="49.75503" lon="4.8077">
        <ele>220</ele>
        <time>2021-08-27T05:44:38.000Z</time>
      </trkpt>
      <trkpt lat="49.75506" lon="4.80772">
        <ele>221</ele>
        <time>2021-08-27T05:44:39.000Z</time>
      </trkpt>
      <trkpt lat="49.75509" lon="4.80775">
        <ele>221</ele>
        <time>2021-08-27T05:44:40.000Z</time>
      </trkpt>
      <trkpt lat="49.75512" lon="4.80778">
        <ele>221</ele>
        <time>2021-08-27T05:44:41.000Z</time>
      </trkpt>
      <trkpt lat="49.75515" lon="4.8078">
        <ele>222</ele>
        <time>2021-08-27T05:44:42.000Z</time>
      </trkpt>
      <trkpt lat="49.75518" lon="4.80783">
        <ele>222</ele>
        <time>2021-08-27T05:44:43.000Z</time>
      </trkpt>
      <trkpt lat="49.7552" lon="4.80785">
        <ele>223</ele>
        <time>2021-08-27T05:44:44.000Z</time>
      </trkpt>
      <trkpt lat="49.75522" lon="4.80788">
        <ele>223</ele>
        <time>2021-08-27T05:44:45.000Z</time>
      </trkpt>
      <trkpt lat="49.75525" lon="4.80791">
        <ele>223</ele>
        <time>2021-08-27T05:44:46.000Z</time>
      </trkpt>
      <trkpt lat="49.75528" lon="4.80794">
        <ele>224</ele>
        <time>2021-08-27T05:44:47.000Z</time>
      </trkpt>
      <trkpt lat="49.7553" lon="4.80796">
        <ele>224</ele>
        <time>2021-08-27T05:44:48.000Z</time>
      </trkpt>
      <trkpt lat="49.75533" lon="4.80799">
        <ele>225</ele>
        <time>2021-08-27T05:44:49.000Z</time>
      </trkpt>
      <trkpt lat="49.75535" lon="4.80803">
        <ele>225</ele>
        <time>2021-08-27T05:44:50.000Z</time>
      </trkpt>
      <trkpt lat="49.75537" lon="4.80805">
        <ele>225</ele>
        <time>2021-08-27T05:44:51.000Z</time>
      </trkpt>
      <trkpt lat="49.7554" lon="4.80808">
        <ele>226</ele>
        <time>2021-08-27T05:44:52.000Z</time>
      </trkpt>
      <trkpt lat="49.75542" lon="4.8081">
        <ele>226</ele>
        <time>2021-08-27T05:44:53.000Z</time>
      </trkpt>
      <trkpt lat="49.75545" lon="4.80812">
        <ele>226</ele>
        <time>2021-08-27T05:44:54.000Z</time>
      </trkpt>
      <trkpt lat="49.75547" lon="4.80814">
        <ele>227</ele>
        <time>2021-08-27T05:44:55.000Z</time>
      </trkpt>
      <trkpt lat="49.7555" lon="4.80815">
        <ele>227</ele>
        <time>2021-08-27T05:44:56.000Z</time>
      </trkpt>
      <trkpt lat="49.75552" lon="4.80817">
        <ele>228</ele>
        <time>2021-08-27T05:44:57.000Z</time>
      </trkpt>
      <trkpt lat="49.75555" lon="4.80819">
        <ele>228</ele>
        <time>2021-08-27T05:44:58.000Z</time>
      </trkpt>
      <trkpt lat="49.75558" lon="4.8082">
        <ele>228</ele>
        <time>2021-08-27T05:44:59.000Z</time>
      </trkpt>
      <trkpt lat="49.7556" lon="4.80821">
        <ele>229</ele>
        <time>2021-08-27T05:45:00.000Z</time>
      </trkpt>
      <trkpt lat="49.75563" lon="4.80822">
        <ele>229</ele>
        <time>2021-08-27T05:45:01.000Z</time>
      </trkpt>
      <trkpt lat="49.75566" lon="4.80823">
        <ele>229</ele>
        <time>2021-08-27T05:45:02.000Z</time>
      </trkpt>
      <trkpt lat="49.75568" lon="4.80824">
        <ele>230</ele>
        <time>2021-08-27T05:45:03.000Z</time>
      </trkpt>
      <trkpt lat="49.75571" lon="4.80825">
        <ele>230</ele>
        <time>2021-08-27T05:45:04.000Z</time>
      </trkpt>
      <trkpt lat="49.75574" lon="4.80826">
        <ele>230</ele>
        <time>2021-08-27T05:45:05.000Z</time>
      </trkpt>
      <trkpt lat="49.75577" lon="4.80828">
        <ele>230</ele>
        <time>2021-08-27T05:45:06.000Z</time>
      </trkpt>
      <trkpt lat="49.7558" lon="4.80829">
        <ele>231</ele>
        <time>2021-08-27T05:45:07.000Z</time>
      </trkpt>
      <trkpt lat="49.75582" lon="4.8083">
        <ele>231</ele>
        <time>2021-08-27T05:45:08.000Z</time>
      </trkpt>
      <trkpt lat="49.75584" lon="4.80831">
        <ele>231</ele>
        <time>2021-08-27T05:45:09.000Z</time>
      </trkpt>
      <trkpt lat="49.75587" lon="4.80832">
        <ele>231</ele>
        <time>2021-08-27T05:45:10.000Z</time>
      </trkpt>
      <trkpt lat="49.7559" lon="4.80833">
        <ele>231</ele>
        <time>2021-08-27T05:45:11.000Z</time>
      </trkpt>
      <trkpt lat="49.75592" lon="4.80834">
        <ele>232</ele>
        <time>2021-08-27T05:45:12.000Z</time>
      </trkpt>
      <trkpt lat="49.75595" lon="4.80835">
        <ele>232</ele>
        <time>2021-08-27T05:45:13.000Z</time>
      </trkpt>
      <trkpt lat="49.75598" lon="4.80836">
        <ele>232</ele>
        <time>2021-08-27T05:45:14.000Z</time>
      </trkpt>
      <trkpt lat="49.75601" lon="4.80838">
        <ele>232</ele>
        <time>2021-08-27T05:45:15.000Z</time>
      </trkpt>
      <trkpt lat="49.75604" lon="4.8084">
        <ele>232</ele>
        <time>2021-08-27T05:45:16.000Z</time>
      </trkpt>
      <trkpt lat="49.75607" lon="4.80841">
        <ele>233</ele>
        <time>2021-08-27T05:45:17.000Z</time>
      </trkpt>
      <trkpt lat="49.7561" lon="4.80842">
        <ele>233</ele>
        <time>2021-08-27T05:45:18.000Z</time>
      </trkpt>
      <trkpt lat="49.75612" lon="4.80844">
        <ele>233</ele>
        <time>2021-08-27T05:45:19.000Z</time>
      </trkpt>
      <trkpt lat="49.75615" lon="4.80846">
        <ele>233</ele>
        <time>2021-08-27T05:45:20.000Z</time>
      </trkpt>
      <trkpt lat="49.75618" lon="4.80848">
        <ele>233</ele>
        <time>2021-08-27T05:45:21.000Z</time>
      </trkpt>
      <trkpt lat="49.7562" lon="4.80849">
        <ele>233</ele>
        <time>2021-08-27T05:45:22.000Z</time>
      </trkpt>
      <trkpt lat="49.75624" lon="4.80851">
        <ele>234</ele>
        <time>2021-08-27T05:45:23.000Z</time>
      </trkpt>
      <trkpt lat="49.75629" lon="4.80852">
        <ele>234</ele>
        <time>2021-08-27T05:45:24.000Z</time>
      </trkpt>
      <trkpt lat="49.75633" lon="4.80854">
        <ele>234</ele>
        <time>2021-08-27T05:45:25.000Z</time>
      </trkpt>
      <trkpt lat="49.75636" lon="4.80855">
        <ele>234</ele>
        <time>2021-08-27T05:45:26.000Z</time>
      </trkpt>
      <trkpt lat="49.75638" lon="4.80856">
        <ele>234</ele>
        <time>2021-08-27T05:45:27.000Z</time>
      </trkpt>
      <trkpt lat="49.75642" lon="4.80856">
        <ele>234</ele>
        <time>2021-08-27T05:45:28.000Z</time>
      </trkpt>
      <trkpt lat="49.75644" lon="4.80856">
        <ele>234</ele>
        <time>2021-08-27T05:45:29.000Z</time>
      </trkpt>
      <trkpt lat="49.75648" lon="4.80857">
        <ele>234</ele>
        <time>2021-08-27T05:45:30.000Z</time>
      </trkpt>
      <trkpt lat="49.75651" lon="4.80858">
        <ele>235</ele>
        <time>2021-08-27T05:45:31.000Z</time>
      </trkpt>
      <trkpt lat="49.75654" lon="4.80859">
        <ele>235</ele>
        <time>2021-08-27T05:45:32.000Z</time>
      </trkpt>
      <trkpt lat="49.75657" lon="4.80861">
        <ele>235</ele>
        <time>2021-08-27T05:45:33.000Z</time>
      </trkpt>
      <trkpt lat="49.75661" lon="4.80862">
        <ele>235</ele>
        <time>2021-08-27T05:45:34.000Z</time>
      </trkpt>
      <trkpt lat="49.75664" lon="4.80863">
        <ele>236</ele>
        <time>2021-08-27T05:45:35.000Z</time>
      </trkpt>
      <trkpt lat="49.75667" lon="4.80864">
        <ele>236</ele>
        <time>2021-08-27T05:45:36.000Z</time>
      </trkpt>
      <trkpt lat="49.75671" lon="4.80864">
        <ele>236</ele>
        <time>2021-08-27T05:45:37.000Z</time>
      </trkpt>
      <trkpt lat="49.75674" lon="4.80865">
        <ele>236</ele>
        <time>2021-08-27T05:45:38.000Z</time>
      </trkpt>
      <trkpt lat="49.75677" lon="4.80866">
        <ele>236</ele>
        <time>2021-08-27T05:45:39.000Z</time>
      </trkpt>
      <trkpt lat="49.7568" lon="4.80868">
        <ele>236</ele>
        <time>2021-08-27T05:45:40.000Z</time>
      </trkpt>
      <trkpt lat="49.75682" lon="4.8087">
        <ele>237</ele>
        <time>2021-08-27T05:45:41.000Z</time>
      </trkpt>
      <trkpt lat="49.75684" lon="4.80871">
        <ele>237</ele>
        <time>2021-08-27T05:45:42.000Z</time>
      </trkpt>
      <trkpt lat="49.75686" lon="4.80871">
        <ele>237</ele>
        <time>2021-08-27T05:45:43.000Z</time>
      </trkpt>
      <trkpt lat="49.75689" lon="4.80872">
        <ele>237</ele>
        <time>2021-08-27T05:45:44.000Z</time>
      </trkpt>
      <trkpt lat="49.75692" lon="4.80873">
        <ele>237</ele>
        <time>2021-08-27T05:45:45.000Z</time>
      </trkpt>
      <trkpt lat="49.75696" lon="4.80874">
        <ele>238</ele>
        <time>2021-08-27T05:45:46.000Z</time>
      </trkpt>
      <trkpt lat="49.757" lon="4.80875">
        <ele>238</ele>
        <time>2021-08-27T05:45:47.000Z</time>
      </trkpt>
      <trkpt lat="49.75703" lon="4.80876">
        <ele>239</ele>
        <time>2021-08-27T05:45:48.000Z</time>
      </trkpt>
      <trkpt lat="49.75707" lon="4.80876">
        <ele>239</ele>
        <time>2021-08-27T05:45:49.000Z</time>
      </trkpt>
      <trkpt lat="49.75711" lon="4.80876">
        <ele>239</ele>
        <time>2021-08-27T05:45:50.000Z</time>
      </trkpt>
      <trkpt lat="49.75716" lon="4.80876">
        <ele>240</ele>
        <time>2021-08-27T05:45:51.000Z</time>
      </trkpt>
      <trkpt lat="49.75719" lon="4.80877">
        <ele>240</ele>
        <time>2021-08-27T05:45:52.000Z</time>
      </trkpt>
      <trkpt lat="49.75723" lon="4.80878">
        <ele>240</ele>
        <time>2021-08-27T05:45:53.000Z</time>
      </trkpt>
      <trkpt lat="49.75726" lon="4.8088">
        <ele>241</ele>
        <time>2021-08-27T05:45:54.000Z</time>
      </trkpt>
      <trkpt lat="49.75728" lon="4.8088">
        <ele>241</ele>
        <time>2021-08-27T05:45:55.000Z</time>
      </trkpt>
      <trkpt lat="49.75732" lon="4.80881">
        <ele>241</ele>
        <time>2021-08-27T05:45:56.000Z</time>
      </trkpt>
      <trkpt lat="49.75735" lon="4.80881">
        <ele>241</ele>
        <time>2021-08-27T05:45:57.000Z</time>
      </trkpt>
      <trkpt lat="49.75738" lon="4.8088">
        <ele>242</ele>
        <time>2021-08-27T05:45:58.000Z</time>
      </trkpt>
      <trkpt lat="49.75741" lon="4.80881">
        <ele>242</ele>
        <time>2021-08-27T05:45:59.000Z</time>
      </trkpt>
      <trkpt lat="49.75745" lon="4.80882">
        <ele>242</ele>
        <time>2021-08-27T05:46:00.000Z</time>
      </trkpt>
      <trkpt lat="49.75748" lon="4.80883">
        <ele>242</ele>
        <time>2021-08-27T05:46:01.000Z</time>
      </trkpt>
      <trkpt lat="49.75751" lon="4.80883">
        <ele>243</ele>
        <time>2021-08-27T05:46:02.000Z</time>
      </trkpt>
      <trkpt lat="49.75754" lon="4.80882">
        <ele>243</ele>
        <time>2021-08-27T05:46:03.000Z</time>
      </trkpt>
      <trkpt lat="49.75757" lon="4.80882">
        <ele>243</ele>
        <time>2021-08-27T05:46:04.000Z</time>
      </trkpt>
      <trkpt lat="49.75761" lon="4.80883">
        <ele>243</ele>
        <time>2021-08-27T05:46:05.000Z</time>
      </trkpt>
      <trkpt lat="49.75765" lon="4.80883">
        <ele>244</ele>
        <time>2021-08-27T05:46:06.000Z</time>
      </trkpt>
      <trkpt lat="49.75769" lon="4.80884">
        <ele>244</ele>
        <time>2021-08-27T05:46:07.000Z</time>
      </trkpt>
      <trkpt lat="49.75773" lon="4.80885">
        <ele>244</ele>
        <time>2021-08-27T05:46:08.000Z</time>
      </trkpt>
      <trkpt lat="49.75776" lon="4.80886">
        <ele>245</ele>
        <time>2021-08-27T05:46:09.000Z</time>
      </trkpt>
      <trkpt lat="49.7578" lon="4.80887">
        <ele>245</ele>
        <time>2021-08-27T05:46:10.000Z</time>
      </trkpt>
      <trkpt lat="49.75783" lon="4.80888">
        <ele>245</ele>
        <time>2021-08-27T05:46:11.000Z</time>
      </trkpt>
      <trkpt lat="49.75787" lon="4.80889">
        <ele>245</ele>
        <time>2021-08-27T05:46:12.000Z</time>
      </trkpt>
      <trkpt lat="49.7579" lon="4.80889">
        <ele>245</ele>
        <time>2021-08-27T05:46:13.000Z</time>
      </trkpt>
      <trkpt lat="49.75794" lon="4.8089">
        <ele>245</ele>
        <time>2021-08-27T05:46:14.000Z</time>
      </trkpt>
      <trkpt lat="49.75797" lon="4.80892">
        <ele>245</ele>
        <time>2021-08-27T05:46:15.000Z</time>
      </trkpt>
      <trkpt lat="49.758" lon="4.80894">
        <ele>245</ele>
        <time>2021-08-27T05:46:16.000Z</time>
      </trkpt>
      <trkpt lat="49.75803" lon="4.80895">
        <ele>245</ele>
        <time>2021-08-27T05:46:17.000Z</time>
      </trkpt>
      <trkpt lat="49.75805" lon="4.80897">
        <ele>246</ele>
        <time>2021-08-27T05:46:18.000Z</time>
      </trkpt>
      <trkpt lat="49.75808" lon="4.80899">
        <ele>246</ele>
        <time>2021-08-27T05:46:19.000Z</time>
      </trkpt>
      <trkpt lat="49.7581" lon="4.809">
        <ele>246</ele>
        <time>2021-08-27T05:46:20.000Z</time>
      </trkpt>
      <trkpt lat="49.75813" lon="4.80903">
        <ele>246</ele>
        <time>2021-08-27T05:46:21.000Z</time>
      </trkpt>
      <trkpt lat="49.75815" lon="4.80905">
        <ele>246</ele>
        <time>2021-08-27T05:46:22.000Z</time>
      </trkpt>
      <trkpt lat="49.75818" lon="4.80907">
        <ele>246</ele>
        <time>2021-08-27T05:46:23.000Z</time>
      </trkpt>
      <trkpt lat="49.75822" lon="4.8091">
        <ele>246</ele>
        <time>2021-08-27T05:46:24.000Z</time>
      </trkpt>
      <trkpt lat="49.75825" lon="4.80911">
        <ele>246</ele>
        <time>2021-08-27T05:46:25.000Z</time>
      </trkpt>
      <trkpt lat="49.75827" lon="4.80913">
        <ele>246</ele>
        <time>2021-08-27T05:46:26.000Z</time>
      </trkpt>
      <trkpt lat="49.7583" lon="4.80915">
        <ele>246</ele>
        <time>2021-08-27T05:46:27.000Z</time>
      </trkpt>
      <trkpt lat="49.75832" lon="4.80918">
        <ele>246</ele>
        <time>2021-08-27T05:46:28.000Z</time>
      </trkpt>
      <trkpt lat="49.75835" lon="4.80921">
        <ele>246</ele>
        <time>2021-08-27T05:46:29.000Z</time>
      </trkpt>
      <trkpt lat="49.75838" lon="4.80924">
        <ele>246</ele>
        <time>2021-08-27T05:46:30.000Z</time>
      </trkpt>
      <trkpt lat="49.75842" lon="4.80927">
        <ele>246</ele>
        <time>2021-08-27T05:46:31.000Z</time>
      </trkpt>
      <trkpt lat="49.75844" lon="4.80931">
        <ele>245</ele>
        <time>2021-08-27T05:46:32.000Z</time>
      </trkpt>
      <trkpt lat="49.75846" lon="4.80934">
        <ele>245</ele>
        <time>2021-08-27T05:46:33.000Z</time>
      </trkpt>
      <trkpt lat="49.75848" lon="4.80936">
        <ele>245</ele>
        <time>2021-08-27T05:46:34.000Z</time>
      </trkpt>
      <trkpt lat="49.75849" lon="4.8094">
        <ele>245</ele>
        <time>2021-08-27T05:46:35.000Z</time>
      </trkpt>
      <trkpt lat="49.7585" lon="4.80942">
        <ele>245</ele>
        <time>2021-08-27T05:46:36.000Z</time>
      </trkpt>
      <trkpt lat="49.75852" lon="4.80944">
        <ele>244</ele>
        <time>2021-08-27T05:46:37.000Z</time>
      </trkpt>
      <trkpt lat="49.75854" lon="4.80947">
        <ele>244</ele>
        <time>2021-08-27T05:46:38.000Z</time>
      </trkpt>
      <trkpt lat="49.75856" lon="4.80949">
        <ele>244</ele>
        <time>2021-08-27T05:46:39.000Z</time>
      </trkpt>
      <trkpt lat="49.75858" lon="4.80952">
        <ele>244</ele>
        <time>2021-08-27T05:46:40.000Z</time>
      </trkpt>
      <trkpt lat="49.7586" lon="4.80954">
        <ele>244</ele>
        <time>2021-08-27T05:46:41.000Z</time>
      </trkpt>
      <trkpt lat="49.75862" lon="4.80956">
        <ele>244</ele>
        <time>2021-08-27T05:46:42.000Z</time>
      </trkpt>
      <trkpt lat="49.75865" lon="4.80958">
        <ele>244</ele>
        <time>2021-08-27T05:46:43.000Z</time>
      </trkpt>
      <trkpt lat="49.75867" lon="4.8096">
        <ele>244</ele>
        <time>2021-08-27T05:46:44.000Z</time>
      </trkpt>
      <trkpt lat="49.7587" lon="4.80962">
        <ele>244</ele>
        <time>2021-08-27T05:46:45.000Z</time>
      </trkpt>
      <trkpt lat="49.75873" lon="4.80965">
        <ele>245</ele>
        <time>2021-08-27T05:46:46.000Z</time>
      </trkpt>
      <trkpt lat="49.75875" lon="4.80969">
        <ele>245</ele>
        <time>2021-08-27T05:46:47.000Z</time>
      </trkpt>
      <trkpt lat="49.75878" lon="4.80972">
        <ele>245</ele>
        <time>2021-08-27T05:46:48.000Z</time>
      </trkpt>
      <trkpt lat="49.7588" lon="4.80975">
        <ele>245</ele>
        <time>2021-08-27T05:46:49.000Z</time>
      </trkpt>
      <trkpt lat="49.75881" lon="4.80978">
        <ele>245</ele>
        <time>2021-08-27T05:46:50.000Z</time>
      </trkpt>
      <trkpt lat="49.75884" lon="4.80982">
        <ele>245</ele>
        <time>2021-08-27T05:46:51.000Z</time>
      </trkpt>
      <trkpt lat="49.75887" lon="4.80985">
        <ele>245</ele>
        <time>2021-08-27T05:46:52.000Z</time>
      </trkpt>
      <trkpt lat="49.7589" lon="4.80988">
        <ele>245</ele>
        <time>2021-08-27T05:46:53.000Z</time>
      </trkpt>
      <trkpt lat="49.75894" lon="4.80992">
        <ele>246</ele>
        <time>2021-08-27T05:46:54.000Z</time>
      </trkpt>
      <trkpt lat="49.75896" lon="4.80995">
        <ele>246</ele>
        <time>2021-08-27T05:46:55.000Z</time>
      </trkpt>
      <trkpt lat="49.75898" lon="4.80998">
        <ele>246</ele>
        <time>2021-08-27T05:46:56.000Z</time>
      </trkpt>
      <trkpt lat="49.75899" lon="4.81001">
        <ele>246</ele>
        <time>2021-08-27T05:46:57.000Z</time>
      </trkpt>
      <trkpt lat="49.759" lon="4.81004">
        <ele>246</ele>
        <time>2021-08-27T05:46:58.000Z</time>
      </trkpt>
      <trkpt lat="49.75902" lon="4.81007">
        <ele>246</ele>
        <time>2021-08-27T05:46:59.000Z</time>
      </trkpt>
      <trkpt lat="49.75905" lon="4.81011">
        <ele>246</ele>
        <time>2021-08-27T05:47:00.000Z</time>
      </trkpt>
      <trkpt lat="49.75907" lon="4.81015">
        <ele>247</ele>
        <time>2021-08-27T05:47:01.000Z</time>
      </trkpt>
      <trkpt lat="49.75909" lon="4.81019">
        <ele>247</ele>
        <time>2021-08-27T05:47:02.000Z</time>
      </trkpt>
      <trkpt lat="49.75912" lon="4.81023">
        <ele>247</ele>
        <time>2021-08-27T05:47:03.000Z</time>
      </trkpt>
      <trkpt lat="49.75916" lon="4.81028">
        <ele>247</ele>
        <time>2021-08-27T05:47:04.000Z</time>
      </trkpt>
      <trkpt lat="49.75918" lon="4.81031">
        <ele>248</ele>
        <time>2021-08-27T05:47:05.000Z</time>
      </trkpt>
      <trkpt lat="49.7592" lon="4.81034">
        <ele>248</ele>
        <time>2021-08-27T05:47:06.000Z</time>
      </trkpt>
      <trkpt lat="49.75922" lon="4.81036">
        <ele>248</ele>
        <time>2021-08-27T05:47:07.000Z</time>
      </trkpt>
      <trkpt lat="49.75923" lon="4.81038">
        <ele>248</ele>
        <time>2021-08-27T05:47:08.000Z</time>
      </trkpt>
      <trkpt lat="49.75924" lon="4.81041">
        <ele>249</ele>
        <time>2021-08-27T05:47:09.000Z</time>
      </trkpt>
      <trkpt lat="49.75925" lon="4.81044">
        <ele>249</ele>
        <time>2021-08-27T05:47:10.000Z</time>
      </trkpt>
      <trkpt lat="49.75927" lon="4.81047">
        <ele>250</ele>
        <time>2021-08-27T05:47:11.000Z</time>
      </trkpt>
      <trkpt lat="49.75928" lon="4.81051">
        <ele>250</ele>
        <time>2021-08-27T05:47:12.000Z</time>
      </trkpt>
      <trkpt lat="49.75929" lon="4.81054">
        <ele>250</ele>
        <time>2021-08-27T05:47:13.000Z</time>
      </trkpt>
      <trkpt lat="49.75931" lon="4.81057">
        <ele>251</ele>
        <time>2021-08-27T05:47:14.000Z</time>
      </trkpt>
      <trkpt lat="49.75932" lon="4.8106">
        <ele>251</ele>
        <time>2021-08-27T05:47:15.000Z</time>
      </trkpt>
      <trkpt lat="49.75934" lon="4.81064">
        <ele>251</ele>
        <time>2021-08-27T05:47:16.000Z</time>
      </trkpt>
      <trkpt lat="49.75936" lon="4.81067">
        <ele>251</ele>
        <time>2021-08-27T05:47:17.000Z</time>
      </trkpt>
      <trkpt lat="49.75938" lon="4.81071">
        <ele>252</ele>
        <time>2021-08-27T05:47:18.000Z</time>
      </trkpt>
      <trkpt lat="49.7594" lon="4.81075">
        <ele>252</ele>
        <time>2021-08-27T05:47:19.000Z</time>
      </trkpt>
      <trkpt lat="49.75942" lon="4.81079">
        <ele>252</ele>
        <time>2021-08-27T05:47:20.000Z</time>
      </trkpt>
      <trkpt lat="49.75944" lon="4.81082">
        <ele>252</ele>
        <time>2021-08-27T05:47:21.000Z</time>
      </trkpt>
      <trkpt lat="49.75946" lon="4.81086">
        <ele>253</ele>
        <time>2021-08-27T05:47:22.000Z</time>
      </trkpt>
      <trkpt lat="49.75948" lon="4.8109">
        <ele>253</ele>
        <time>2021-08-27T05:47:23.000Z</time>
      </trkpt>
      <trkpt lat="49.7595" lon="4.81093">
        <ele>253</ele>
        <time>2021-08-27T05:47:24.000Z</time>
      </trkpt>
      <trkpt lat="49.75953" lon="4.81095">
        <ele>253</ele>
        <time>2021-08-27T05:47:25.000Z</time>
      </trkpt>
      <trkpt lat="49.75954" lon="4.81098">
        <ele>254</ele>
        <time>2021-08-27T05:47:26.000Z</time>
      </trkpt>
      <trkpt lat="49.75956" lon="4.81101">
        <ele>254</ele>
        <time>2021-08-27T05:47:27.000Z</time>
      </trkpt>
      <trkpt lat="49.75958" lon="4.81105">
        <ele>254</ele>
        <time>2021-08-27T05:47:28.000Z</time>
      </trkpt>
      <trkpt lat="49.75961" lon="4.81108">
        <ele>254</ele>
        <time>2021-08-27T05:47:29.000Z</time>
      </trkpt>
      <trkpt lat="49.75964" lon="4.81111">
        <ele>254</ele>
        <time>2021-08-27T05:47:30.000Z</time>
      </trkpt>
      <trkpt lat="49.75966" lon="4.81114">
        <ele>255</ele>
        <time>2021-08-27T05:47:31.000Z</time>
      </trkpt>
      <trkpt lat="49.75969" lon="4.81117">
        <ele>255</ele>
        <time>2021-08-27T05:47:32.000Z</time>
      </trkpt>
      <trkpt lat="49.75971" lon="4.8112">
        <ele>255</ele>
        <time>2021-08-27T05:47:33.000Z</time>
      </trkpt>
      <trkpt lat="49.75974" lon="4.81123">
        <ele>255</ele>
        <time>2021-08-27T05:47:34.000Z</time>
      </trkpt>
      <trkpt lat="49.75977" lon="4.81125">
        <ele>255</ele>
        <time>2021-08-27T05:47:35.000Z</time>
      </trkpt>
      <trkpt lat="49.7598" lon="4.81128">
        <ele>256</ele>
        <time>2021-08-27T05:47:36.000Z</time>
      </trkpt>
      <trkpt lat="49.75983" lon="4.81131">
        <ele>256</ele>
        <time>2021-08-27T05:47:37.000Z</time>
      </trkpt>
      <trkpt lat="49.75986" lon="4.81133">
        <ele>256</ele>
        <time>2021-08-27T05:47:38.000Z</time>
      </trkpt>
      <trkpt lat="49.75988" lon="4.81136">
        <ele>256</ele>
        <time>2021-08-27T05:47:39.000Z</time>
      </trkpt>
      <trkpt lat="49.7599" lon="4.81139">
        <ele>256</ele>
        <time>2021-08-27T05:47:40.000Z</time>
      </trkpt>
      <trkpt lat="49.75993" lon="4.81143">
        <ele>257</ele>
        <time>2021-08-27T05:47:41.000Z</time>
      </trkpt>
      <trkpt lat="49.75996" lon="4.81146">
        <ele>257</ele>
        <time>2021-08-27T05:47:42.000Z</time>
      </trkpt>
      <trkpt lat="49.75998" lon="4.81149">
        <ele>257</ele>
        <time>2021-08-27T05:47:43.000Z</time>
      </trkpt>
      <trkpt lat="49.76001" lon="4.81152">
        <ele>257</ele>
        <time>2021-08-27T05:47:44.000Z</time>
      </trkpt>
      <trkpt lat="49.76003" lon="4.81156">
        <ele>258</ele>
        <time>2021-08-27T05:47:45.000Z</time>
      </trkpt>
      <trkpt lat="49.76006" lon="4.81159">
        <ele>258</ele>
        <time>2021-08-27T05:47:46.000Z</time>
      </trkpt>
      <trkpt lat="49.76007" lon="4.81162">
        <ele>258</ele>
        <time>2021-08-27T05:47:47.000Z</time>
      </trkpt>
      <trkpt lat="49.76009" lon="4.81165">
        <ele>258</ele>
        <time>2021-08-27T05:47:48.000Z</time>
      </trkpt>
      <trkpt lat="49.76011" lon="4.81168">
        <ele>258</ele>
        <time>2021-08-27T05:47:49.000Z</time>
      </trkpt>
      <trkpt lat="49.76012" lon="4.81171">
        <ele>259</ele>
        <time>2021-08-27T05:47:50.000Z</time>
      </trkpt>
      <trkpt lat="49.76014" lon="4.81174">
        <ele>259</ele>
        <time>2021-08-27T05:47:51.000Z</time>
      </trkpt>
      <trkpt lat="49.76017" lon="4.81177">
        <ele>259</ele>
        <time>2021-08-27T05:47:52.000Z</time>
      </trkpt>
      <trkpt lat="49.76019" lon="4.8118">
        <ele>259</ele>
        <time>2021-08-27T05:47:53.000Z</time>
      </trkpt>
      <trkpt lat="49.76022" lon="4.81184">
        <ele>259</ele>
        <time>2021-08-27T05:47:54.000Z</time>
      </trkpt>
      <trkpt lat="49.76025" lon="4.81187">
        <ele>260</ele>
        <time>2021-08-27T05:47:55.000Z</time>
      </trkpt>
      <trkpt lat="49.76028" lon="4.8119">
        <ele>260</ele>
        <time>2021-08-27T05:47:56.000Z</time>
      </trkpt>
      <trkpt lat="49.76032" lon="4.81192">
        <ele>260</ele>
        <time>2021-08-27T05:47:57.000Z</time>
      </trkpt>
      <trkpt lat="49.76034" lon="4.81195">
        <ele>260</ele>
        <time>2021-08-27T05:47:58.000Z</time>
      </trkpt>
      <trkpt lat="49.76036" lon="4.81198">
        <ele>260</ele>
        <time>2021-08-27T05:47:59.000Z</time>
      </trkpt>
      <trkpt lat="49.76039" lon="4.81202">
        <ele>260</ele>
        <time>2021-08-27T05:48:00.000Z</time>
      </trkpt>
      <trkpt lat="49.76041" lon="4.81205">
        <ele>260</ele>
        <time>2021-08-27T05:48:01.000Z</time>
      </trkpt>
      <trkpt lat="49.76043" lon="4.81208">
        <ele>260</ele>
        <time>2021-08-27T05:48:02.000Z</time>
      </trkpt>
      <trkpt lat="49.76045" lon="4.81211">
        <ele>260</ele>
        <time>2021-08-27T05:48:03.000Z</time>
      </trkpt>
      <trkpt lat="49.76047" lon="4.81213">
        <ele>260</ele>
        <time>2021-08-27T05:48:04.000Z</time>
      </trkpt>
      <trkpt lat="49.76049" lon="4.81216">
        <ele>260</ele>
        <time>2021-08-27T05:48:05.000Z</time>
      </trkpt>
      <trkpt lat="49.76051" lon="4.81218">
        <ele>261</ele>
        <time>2021-08-27T05:48:06.000Z</time>
      </trkpt>
      <trkpt lat="49.76053" lon="4.81221">
        <ele>261</ele>
        <time>2021-08-27T05:48:07.000Z</time>
      </trkpt>
      <trkpt lat="49.76055" lon="4.81223">
        <ele>261</ele>
        <time>2021-08-27T05:48:08.000Z</time>
      </trkpt>
      <trkpt lat="49.76056" lon="4.81226">
        <ele>261</ele>
        <time>2021-08-27T05:48:09.000Z</time>
      </trkpt>
      <trkpt lat="49.76058" lon="4.81229">
        <ele>261</ele>
        <time>2021-08-27T05:48:10.000Z</time>
      </trkpt>
      <trkpt lat="49.7606" lon="4.81232">
        <ele>261</ele>
        <time>2021-08-27T05:48:11.000Z</time>
      </trkpt>
      <trkpt lat="49.76062" lon="4.81235">
        <ele>261</ele>
        <time>2021-08-27T05:48:12.000Z</time>
      </trkpt>
      <trkpt lat="49.76065" lon="4.81238">
        <ele>261</ele>
        <time>2021-08-27T05:48:13.000Z</time>
      </trkpt>
      <trkpt lat="49.76067" lon="4.8124">
        <ele>261</ele>
        <time>2021-08-27T05:48:14.000Z</time>
      </trkpt>
      <trkpt lat="49.76069" lon="4.81243">
        <ele>262</ele>
        <time>2021-08-27T05:48:15.000Z</time>
      </trkpt>
      <trkpt lat="49.76071" lon="4.81246">
        <ele>262</ele>
        <time>2021-08-27T05:48:16.000Z</time>
      </trkpt>
      <trkpt lat="49.76074" lon="4.81248">
        <ele>262</ele>
        <time>2021-08-27T05:48:17.000Z</time>
      </trkpt>
      <trkpt lat="49.76077" lon="4.81251">
        <ele>262</ele>
        <time>2021-08-27T05:48:18.000Z</time>
      </trkpt>
      <trkpt lat="49.7608" lon="4.81253">
        <ele>262</ele>
        <time>2021-08-27T05:48:19.000Z</time>
      </trkpt>
      <trkpt lat="49.76083" lon="4.81255">
        <ele>262</ele>
        <time>2021-08-27T05:48:20.000Z</time>
      </trkpt>
      <trkpt lat="49.76086" lon="4.81257">
        <ele>263</ele>
        <time>2021-08-27T05:48:21.000Z</time>
      </trkpt>
      <trkpt lat="49.76089" lon="4.81259">
        <ele>263</ele>
        <time>2021-08-27T05:48:22.000Z</time>
      </trkpt>
      <trkpt lat="49.76091" lon="4.81262">
        <ele>263</ele>
        <time>2021-08-27T05:48:23.000Z</time>
      </trkpt>
      <trkpt lat="49.76094" lon="4.81264">
        <ele>263</ele>
        <time>2021-08-27T05:48:24.000Z</time>
      </trkpt>
      <trkpt lat="49.76096" lon="4.81267">
        <ele>263</ele>
        <time>2021-08-27T05:48:25.000Z</time>
      </trkpt>
      <trkpt lat="49.76099" lon="4.8127">
        <ele>263</ele>
        <time>2021-08-27T05:48:26.000Z</time>
      </trkpt>
      <trkpt lat="49.76101" lon="4.81273">
        <ele>263</ele>
        <time>2021-08-27T05:48:27.000Z</time>
      </trkpt>
      <trkpt lat="49.76103" lon="4.81276">
        <ele>263</ele>
        <time>2021-08-27T05:48:28.000Z</time>
      </trkpt>
      <trkpt lat="49.76105" lon="4.81279">
        <ele>263</ele>
        <time>2021-08-27T05:48:29.000Z</time>
      </trkpt>
      <trkpt lat="49.76107" lon="4.81281">
        <ele>263</ele>
        <time>2021-08-27T05:48:30.000Z</time>
      </trkpt>
      <trkpt lat="49.76109" lon="4.81284">
        <ele>264</ele>
        <time>2021-08-27T05:48:31.000Z</time>
      </trkpt>
      <trkpt lat="49.76112" lon="4.81287">
        <ele>264</ele>
        <time>2021-08-27T05:48:32.000Z</time>
      </trkpt>
      <trkpt lat="49.76115" lon="4.81288">
        <ele>264</ele>
        <time>2021-08-27T05:48:33.000Z</time>
      </trkpt>
      <trkpt lat="49.76118" lon="4.81289">
        <ele>264</ele>
        <time>2021-08-27T05:48:34.000Z</time>
      </trkpt>
      <trkpt lat="49.76121" lon="4.81291">
        <ele>264</ele>
        <time>2021-08-27T05:48:35.000Z</time>
      </trkpt>
      <trkpt lat="49.76123" lon="4.81294">
        <ele>264</ele>
        <time>2021-08-27T05:48:36.000Z</time>
      </trkpt>
      <trkpt lat="49.76125" lon="4.81296">
        <ele>264</ele>
        <time>2021-08-27T05:48:37.000Z</time>
      </trkpt>
      <trkpt lat="49.76127" lon="4.81299">
        <ele>263</ele>
        <time>2021-08-27T05:48:38.000Z</time>
      </trkpt>
      <trkpt lat="49.7613" lon="4.81301">
        <ele>263</ele>
        <time>2021-08-27T05:48:39.000Z</time>
      </trkpt>
      <trkpt lat="49.76131" lon="4.81305">
        <ele>263</ele>
        <time>2021-08-27T05:48:40.000Z</time>
      </trkpt>
      <trkpt lat="49.76132" lon="4.81309">
        <ele>263</ele>
        <time>2021-08-27T05:48:41.000Z</time>
      </trkpt>
      <trkpt lat="49.76133" lon="4.81312">
        <ele>263</ele>
        <time>2021-08-27T05:48:42.000Z</time>
      </trkpt>
      <trkpt lat="49.76134" lon="4.81315">
        <ele>263</ele>
        <time>2021-08-27T05:48:43.000Z</time>
      </trkpt>
      <trkpt lat="49.76134" lon="4.81318">
        <ele>263</ele>
        <time>2021-08-27T05:48:44.000Z</time>
      </trkpt>
      <trkpt lat="49.76135" lon="4.81322">
        <ele>264</ele>
        <time>2021-08-27T05:48:45.000Z</time>
      </trkpt>
      <trkpt lat="49.76135" lon="4.81325">
        <ele>264</ele>
        <time>2021-08-27T05:48:46.000Z</time>
      </trkpt>
      <trkpt lat="49.76135" lon="4.81328">
        <ele>264</ele>
        <time>2021-08-27T05:48:47.000Z</time>
      </trkpt>
      <trkpt lat="49.76135" lon="4.81331">
        <ele>264</ele>
        <time>2021-08-27T05:48:48.000Z</time>
      </trkpt>
      <trkpt lat="49.76134" lon="4.81333">
        <ele>264</ele>
        <time>2021-08-27T05:48:49.000Z</time>
      </trkpt>
      <trkpt lat="49.76134" lon="4.81336">
        <ele>265</ele>
        <time>2021-08-27T05:48:50.000Z</time>
      </trkpt>
      <trkpt lat="49.76133" lon="4.81339">
        <ele>265</ele>
        <time>2021-08-27T05:48:51.000Z</time>
      </trkpt>
      <trkpt lat="49.76133" lon="4.81342">
        <ele>265</ele>
        <time>2021-08-27T05:48:52.000Z</time>
      </trkpt>
      <trkpt lat="49.76133" lon="4.81344">
        <ele>265</ele>
        <time>2021-08-27T05:48:53.000Z</time>
      </trkpt>
      <trkpt lat="49.76133" lon="4.81347">
        <ele>265</ele>
        <time>2021-08-27T05:48:54.000Z</time>
      </trkpt>
      <trkpt lat="49.76133" lon="4.8135">
        <ele>265</ele>
        <time>2021-08-27T05:48:55.000Z</time>
      </trkpt>
      <trkpt lat="49.76133" lon="4.81353">
        <ele>266</ele>
        <time>2021-08-27T05:48:56.000Z</time>
      </trkpt>
      <trkpt lat="49.76132" lon="4.81355">
        <ele>266</ele>
        <time>2021-08-27T05:48:57.000Z</time>
      </trkpt>
      <trkpt lat="49.76132" lon="4.81357">
        <ele>266</ele>
        <time>2021-08-27T05:48:58.000Z</time>
      </trkpt>
      <trkpt lat="49.76132" lon="4.8136">
        <ele>266</ele>
        <time>2021-08-27T05:48:59.000Z</time>
      </trkpt>
      <trkpt lat="49.76131" lon="4.81363">
        <ele>266</ele>
        <time>2021-08-27T05:49:00.000Z</time>
      </trkpt>
      <trkpt lat="49.7613" lon="4.81367">
        <ele>266</ele>
        <time>2021-08-27T05:49:01.000Z</time>
      </trkpt>
      <trkpt lat="49.76129" lon="4.8137">
        <ele>266</ele>
        <time>2021-08-27T05:49:02.000Z</time>
      </trkpt>
      <trkpt lat="49.76129" lon="4.81374">
        <ele>266</ele>
        <time>2021-08-27T05:49:03.000Z</time>
      </trkpt>
      <trkpt lat="49.76129" lon="4.81377">
        <ele>266</ele>
        <time>2021-08-27T05:49:04.000Z</time>
      </trkpt>
      <trkpt lat="49.76129" lon="4.81381">
        <ele>266</ele>
        <time>2021-08-27T05:49:05.000Z</time>
      </trkpt>
      <trkpt lat="49.76129" lon="4.81385">
        <ele>267</ele>
        <time>2021-08-27T05:49:06.000Z</time>
      </trkpt>
      <trkpt lat="49.76128" lon="4.81389">
        <ele>267</ele>
        <time>2021-08-27T05:49:07.000Z</time>
      </trkpt>
      <trkpt lat="49.76128" lon="4.81393">
        <ele>267</ele>
        <time>2021-08-27T05:49:08.000Z</time>
      </trkpt>
      <trkpt lat="49.76128" lon="4.81397">
        <ele>267</ele>
        <time>2021-08-27T05:49:09.000Z</time>
      </trkpt>
      <trkpt lat="49.76128" lon="4.81401">
        <ele>267</ele>
        <time>2021-08-27T05:49:10.000Z</time>
      </trkpt>
      <trkpt lat="49.76128" lon="4.81405">
        <ele>267</ele>
        <time>2021-08-27T05:49:11.000Z</time>
      </trkpt>
      <trkpt lat="49.76128" lon="4.81408">
        <ele>267</ele>
        <time>2021-08-27T05:49:12.000Z</time>
      </trkpt>
      <trkpt lat="49.76128" lon="4.81412">
        <ele>267</ele>
        <time>2021-08-27T05:49:13.000Z</time>
      </trkpt>
      <trkpt lat="49.76128" lon="4.81415">
        <ele>267</ele>
        <time>2021-08-27T05:49:14.000Z</time>
      </trkpt>
      <trkpt lat="49.76129" lon="4.81418">
        <ele>267</ele>
        <time>2021-08-27T05:49:15.000Z</time>
      </trkpt>
      <trkpt lat="49.7613" lon="4.81421">
        <ele>268</ele>
        <time>2021-08-27T05:49:16.000Z</time>
      </trkpt>
      <trkpt lat="49.76132" lon="4.81423">
        <ele>268</ele>
        <time>2021-08-27T05:49:17.000Z</time>
      </trkpt>
      <trkpt lat="49.76135" lon="4.81425">
        <ele>268</ele>
        <time>2021-08-27T05:49:18.000Z</time>
      </trkpt>
      <trkpt lat="49.76138" lon="4.81426">
        <ele>268</ele>
        <time>2021-08-27T05:49:19.000Z</time>
      </trkpt>
      <trkpt lat="49.7614" lon="4.81427">
        <ele>268</ele>
        <time>2021-08-27T05:49:20.000Z</time>
      </trkpt>
      <trkpt lat="49.76143" lon="4.81428">
        <ele>268</ele>
        <time>2021-08-27T05:49:21.000Z</time>
      </trkpt>
      <trkpt lat="49.76146" lon="4.81429">
        <ele>269</ele>
        <time>2021-08-27T05:49:22.000Z</time>
      </trkpt>
      <trkpt lat="49.76148" lon="4.8143">
        <ele>269</ele>
        <time>2021-08-27T05:49:23.000Z</time>
      </trkpt>
      <trkpt lat="49.76152" lon="4.8143">
        <ele>269</ele>
        <time>2021-08-27T05:49:24.000Z</time>
      </trkpt>
      <trkpt lat="49.76155" lon="4.81431">
        <ele>269</ele>
        <time>2021-08-27T05:49:25.000Z</time>
      </trkpt>
      <trkpt lat="49.76158" lon="4.81432">
        <ele>269</ele>
        <time>2021-08-27T05:49:26.000Z</time>
      </trkpt>
      <trkpt lat="49.76162" lon="4.81433">
        <ele>269</ele>
        <time>2021-08-27T05:49:27.000Z</time>
      </trkpt>
      <trkpt lat="49.76165" lon="4.81434">
        <ele>269</ele>
        <time>2021-08-27T05:49:28.000Z</time>
      </trkpt>
      <trkpt lat="49.76168" lon="4.81435">
        <ele>269</ele>
        <time>2021-08-27T05:49:29.000Z</time>
      </trkpt>
      <trkpt lat="49.76171" lon="4.81436">
        <ele>270</ele>
        <time>2021-08-27T05:49:30.000Z</time>
      </trkpt>
      <trkpt lat="49.76174" lon="4.81437">
        <ele>270</ele>
        <time>2021-08-27T05:49:31.000Z</time>
      </trkpt>
      <trkpt lat="49.76176" lon="4.81438">
        <ele>270</ele>
        <time>2021-08-27T05:49:32.000Z</time>
      </trkpt>
      <trkpt lat="49.76178" lon="4.81439">
        <ele>270</ele>
        <time>2021-08-27T05:49:33.000Z</time>
      </trkpt>
      <trkpt lat="49.7618" lon="4.81438">
        <ele>270</ele>
        <time>2021-08-27T05:49:34.000Z</time>
      </trkpt>
      <trkpt lat="49.76181" lon="4.81437">
        <ele>270</ele>
        <time>2021-08-27T05:49:35.000Z</time>
      </trkpt>
      <trkpt lat="49.76182" lon="4.81435">
        <ele>270</ele>
        <time>2021-08-27T05:49:36.000Z</time>
      </trkpt>
      <trkpt lat="49.76182" lon="4.81433">
        <ele>270</ele>
        <time>2021-08-27T05:49:37.000Z</time>
      </trkpt>
      <trkpt lat="49.76182" lon="4.8143">
        <ele>270</ele>
        <time>2021-08-27T05:49:38.000Z</time>
      </trkpt>
      <trkpt lat="49.76181" lon="4.81427">
        <ele>270</ele>
        <time>2021-08-27T05:49:39.000Z</time>
      </trkpt>
      <trkpt lat="49.76181" lon="4.81423">
        <ele>270</ele>
        <time>2021-08-27T05:49:40.000Z</time>
      </trkpt>
      <trkpt lat="49.7618" lon="4.81417">
        <ele>270</ele>
        <time>2021-08-27T05:49:41.000Z</time>
      </trkpt>
      <trkpt lat="49.7618" lon="4.81411">
        <ele>270</ele>
        <time>2021-08-27T05:49:42.000Z</time>
      </trkpt>
      <trkpt lat="49.7618" lon="4.81404">
        <ele>270</ele>
        <time>2021-08-27T05:49:43.000Z</time>
      </trkpt>
      <trkpt lat="49.76181" lon="4.81396">
        <ele>270</ele>
        <time>2021-08-27T05:49:44.000Z</time>
      </trkpt>
      <trkpt lat="49.76181" lon="4.81389">
        <ele>270</ele>
        <time>2021-08-27T05:49:45.000Z</time>
      </trkpt>
      <trkpt lat="49.7618" lon="4.81381">
        <ele>270</ele>
        <time>2021-08-27T05:49:46.000Z</time>
      </trkpt>
      <trkpt lat="49.76181" lon="4.81373">
        <ele>269</ele>
        <time>2021-08-27T05:49:47.000Z</time>
      </trkpt>
      <trkpt lat="49.76181" lon="4.81365">
        <ele>269</ele>
        <time>2021-08-27T05:49:48.000Z</time>
      </trkpt>
      <trkpt lat="49.76181" lon="4.81357">
        <ele>269</ele>
        <time>2021-08-27T05:49:49.000Z</time>
      </trkpt>
      <trkpt lat="49.76181" lon="4.81349">
        <ele>269</ele>
        <time>2021-08-27T05:49:50.000Z</time>
      </trkpt>
      <trkpt lat="49.76182" lon="4.81342">
        <ele>269</ele>
        <time>2021-08-27T05:49:51.000Z</time>
      </trkpt>
      <trkpt lat="49.76182" lon="4.81334">
        <ele>269</ele>
        <time>2021-08-27T05:49:52.000Z</time>
      </trkpt>
      <trkpt lat="49.76183" lon="4.81325">
        <ele>268</ele>
        <time>2021-08-27T05:49:53.000Z</time>
      </trkpt>
      <trkpt lat="49.76184" lon="4.81317">
        <ele>268</ele>
        <time>2021-08-27T05:49:54.000Z</time>
      </trkpt>
      <trkpt lat="49.76184" lon="4.81308">
        <ele>268</ele>
        <time>2021-08-27T05:49:55.000Z</time>
      </trkpt>
      <trkpt lat="49.76185" lon="4.813">
        <ele>268</ele>
        <time>2021-08-27T05:49:56.000Z</time>
      </trkpt>
      <trkpt lat="49.76186" lon="4.81292">
        <ele>268</ele>
        <time>2021-08-27T05:49:57.000Z</time>
      </trkpt>
      <trkpt lat="49.76187" lon="4.81287">
        <ele>268</ele>
        <time>2021-08-27T05:49:58.000Z</time>
      </trkpt>
      <trkpt lat="49.76187" lon="4.81282">
        <ele>268</ele>
        <time>2021-08-27T05:49:59.000Z</time>
      </trkpt>
      <trkpt lat="49.76187" lon="4.81278">
        <ele>268</ele>
        <time>2021-08-27T05:50:00.000Z</time>
      </trkpt>
      <trkpt lat="49.76188" lon="4.81274">
        <ele>268</ele>
        <time>2021-08-27T05:50:01.000Z</time>
      </trkpt>
      <trkpt lat="49.76188" lon="4.8127">
        <ele>268</ele>
        <time>2021-08-27T05:50:02.000Z</time>
      </trkpt>
      <trkpt lat="49.76188" lon="4.81266">
        <ele>267</ele>
        <time>2021-08-27T05:50:03.000Z</time>
      </trkpt>
      <trkpt lat="49.76188" lon="4.81262">
        <ele>267</ele>
        <time>2021-08-27T05:50:04.000Z</time>
      </trkpt>
      <trkpt lat="49.76188" lon="4.81258">
        <ele>267</ele>
        <time>2021-08-27T05:50:05.000Z</time>
      </trkpt>
      <trkpt lat="49.76188" lon="4.81254">
        <ele>267</ele>
        <time>2021-08-27T05:50:06.000Z</time>
      </trkpt>
      <trkpt lat="49.76188" lon="4.81249">
        <ele>267</ele>
        <time>2021-08-27T05:50:07.000Z</time>
      </trkpt>
      <trkpt lat="49.76189" lon="4.81244">
        <ele>267</ele>
        <time>2021-08-27T05:50:08.000Z</time>
      </trkpt>
      <trkpt lat="49.76189" lon="4.81239">
        <ele>266</ele>
        <time>2021-08-27T05:50:09.000Z</time>
      </trkpt>
      <trkpt lat="49.76189" lon="4.81233">
        <ele>266</ele>
        <time>2021-08-27T05:50:10.000Z</time>
      </trkpt>
      <trkpt lat="49.7619" lon="4.81228">
        <ele>266</ele>
        <time>2021-08-27T05:50:11.000Z</time>
      </trkpt>
      <trkpt lat="49.7619" lon="4.81222">
        <ele>266</ele>
        <time>2021-08-27T05:50:12.000Z</time>
      </trkpt>
      <trkpt lat="49.7619" lon="4.81217">
        <ele>266</ele>
        <time>2021-08-27T05:50:13.000Z</time>
      </trkpt>
      <trkpt lat="49.7619" lon="4.81212">
        <ele>266</ele>
        <time>2021-08-27T05:50:14.000Z</time>
      </trkpt>
      <trkpt lat="49.76191" lon="4.81207">
        <ele>266</ele>
        <time>2021-08-27T05:50:15.000Z</time>
      </trkpt>
      <trkpt lat="49.76191" lon="4.81202">
        <ele>266</ele>
        <time>2021-08-27T05:50:16.000Z</time>
      </trkpt>
      <trkpt lat="49.76191" lon="4.81196">
        <ele>266</ele>
        <time>2021-08-27T05:50:17.000Z</time>
      </trkpt>
      <trkpt lat="49.76191" lon="4.81191">
        <ele>266</ele>
        <time>2021-08-27T05:50:18.000Z</time>
      </trkpt>
      <trkpt lat="49.76192" lon="4.81186">
        <ele>266</ele>
        <time>2021-08-27T05:50:19.000Z</time>
      </trkpt>
      <trkpt lat="49.76192" lon="4.81181">
        <ele>266</ele>
        <time>2021-08-27T05:50:20.000Z</time>
      </trkpt>
      <trkpt lat="49.76192" lon="4.81175">
        <ele>266</ele>
        <time>2021-08-27T05:50:21.000Z</time>
      </trkpt>
      <trkpt lat="49.76192" lon="4.81169">
        <ele>266</ele>
        <time>2021-08-27T05:50:22.000Z</time>
      </trkpt>
      <trkpt lat="49.76192" lon="4.81163">
        <ele>266</ele>
        <time>2021-08-27T05:50:23.000Z</time>
      </trkpt>
      <trkpt lat="49.76192" lon="4.81157">
        <ele>266</ele>
        <time>2021-08-27T05:50:24.000Z</time>
      </trkpt>
      <trkpt lat="49.76192" lon="4.81151">
        <ele>266</ele>
        <time>2021-08-27T05:50:25.000Z</time>
      </trkpt>
      <trkpt lat="49.76193" lon="4.81144">
        <ele>266</ele>
        <time>2021-08-27T05:50:26.000Z</time>
      </trkpt>
      <trkpt lat="49.76194" lon="4.81137">
        <ele>266</ele>
        <time>2021-08-27T05:50:27.000Z</time>
      </trkpt>
      <trkpt lat="49.76194" lon="4.81131">
        <ele>266</ele>
        <time>2021-08-27T05:50:28.000Z</time>
      </trkpt>
      <trkpt lat="49.76195" lon="4.81124">
        <ele>266</ele>
        <time>2021-08-27T05:50:29.000Z</time>
      </trkpt>
      <trkpt lat="49.76195" lon="4.81117">
        <ele>266</ele>
        <time>2021-08-27T05:50:30.000Z</time>
      </trkpt>
      <trkpt lat="49.76196" lon="4.8111">
        <ele>266</ele>
        <time>2021-08-27T05:50:31.000Z</time>
      </trkpt>
      <trkpt lat="49.76196" lon="4.81102">
        <ele>266</ele>
        <time>2021-08-27T05:50:32.000Z</time>
      </trkpt>
      <trkpt lat="49.76195" lon="4.81093">
        <ele>266</ele>
        <time>2021-08-27T05:50:33.000Z</time>
      </trkpt>
      <trkpt lat="49.76195" lon="4.81084">
        <ele>266</ele>
        <time>2021-08-27T05:50:34.000Z</time>
      </trkpt>
      <trkpt lat="49.76195" lon="4.81074">
        <ele>266</ele>
        <time>2021-08-27T05:50:35.000Z</time>
      </trkpt>
      <trkpt lat="49.76196" lon="4.81065">
        <ele>265</ele>
        <time>2021-08-27T05:50:36.000Z</time>
      </trkpt>
      <trkpt lat="49.76196" lon="4.81056">
        <ele>265</ele>
        <time>2021-08-27T05:50:37.000Z</time>
      </trkpt>
      <trkpt lat="49.76197" lon="4.81047">
        <ele>265</ele>
        <time>2021-08-27T05:50:38.000Z</time>
      </trkpt>
      <trkpt lat="49.76196" lon="4.81039">
        <ele>265</ele>
        <time>2021-08-27T05:50:39.000Z</time>
      </trkpt>
      <trkpt lat="49.76196" lon="4.8103">
        <ele>265</ele>
        <time>2021-08-27T05:50:40.000Z</time>
      </trkpt>
      <trkpt lat="49.76195" lon="4.81022">
        <ele>265</ele>
        <time>2021-08-27T05:50:41.000Z</time>
      </trkpt>
      <trkpt lat="49.76195" lon="4.81013">
        <ele>265</ele>
        <time>2021-08-27T05:50:42.000Z</time>
      </trkpt>
      <trkpt lat="49.76195" lon="4.81005">
        <ele>265</ele>
        <time>2021-08-27T05:50:43.000Z</time>
      </trkpt>
      <trkpt lat="49.76195" lon="4.80998">
        <ele>265</ele>
        <time>2021-08-27T05:50:44.000Z</time>
      </trkpt>
      <trkpt lat="49.76195" lon="4.8099">
        <ele>265</ele>
        <time>2021-08-27T05:50:45.000Z</time>
      </trkpt>
      <trkpt lat="49.76196" lon="4.80983">
        <ele>265</ele>
        <time>2021-08-27T05:50:46.000Z</time>
      </trkpt>
      <trkpt lat="49.76196" lon="4.80976">
        <ele>265</ele>
        <time>2021-08-27T05:50:47.000Z</time>
      </trkpt>
      <trkpt lat="49.76196" lon="4.80969">
        <ele>265</ele>
        <time>2021-08-27T05:50:48.000Z</time>
      </trkpt>
      <trkpt lat="49.76197" lon="4.80962">
        <ele>265</ele>
        <time>2021-08-27T05:50:49.000Z</time>
      </trkpt>
      <trkpt lat="49.76197" lon="4.80955">
        <ele>265</ele>
        <time>2021-08-27T05:50:50.000Z</time>
      </trkpt>
      <trkpt lat="49.76197" lon="4.80949">
        <ele>265</ele>
        <time>2021-08-27T05:50:51.000Z</time>
      </trkpt>
      <trkpt lat="49.76197" lon="4.80942">
        <ele>265</ele>
        <time>2021-08-27T05:50:52.000Z</time>
      </trkpt>
      <trkpt lat="49.76195" lon="4.80935">
        <ele>265</ele>
        <time>2021-08-27T05:50:53.000Z</time>
      </trkpt>
      <trkpt lat="49.76194" lon="4.80927">
        <ele>265</ele>
        <time>2021-08-27T05:50:54.000Z</time>
      </trkpt>
      <trkpt lat="49.76195" lon="4.80919">
        <ele>265</ele>
        <time>2021-08-27T05:50:55.000Z</time>
      </trkpt>
      <trkpt lat="49.76197" lon="4.80912">
        <ele>265</ele>
        <time>2021-08-27T05:50:56.000Z</time>
      </trkpt>
      <trkpt lat="49.76198" lon="4.80907">
        <ele>265</ele>
        <time>2021-08-27T05:50:57.000Z</time>
      </trkpt>
      <trkpt lat="49.76201" lon="4.80904">
        <ele>265</ele>
        <time>2021-08-27T05:50:58.000Z</time>
      </trkpt>
      <trkpt lat="49.76205" lon="4.80902">
        <ele>265</ele>
        <time>2021-08-27T05:50:59.000Z</time>
      </trkpt>
      <trkpt lat="49.76208" lon="4.80902">
        <ele>265</ele>
        <time>2021-08-27T05:51:00.000Z</time>
      </trkpt>
      <trkpt lat="49.76211" lon="4.80902">
        <ele>265</ele>
        <time>2021-08-27T05:51:01.000Z</time>
      </trkpt>
      <trkpt lat="49.76214" lon="4.80903">
        <ele>265</ele>
        <time>2021-08-27T05:51:02.000Z</time>
      </trkpt>
      <trkpt lat="49.76217" lon="4.80904">
        <ele>265</ele>
        <time>2021-08-27T05:51:03.000Z</time>
      </trkpt>
      <trkpt lat="49.7622" lon="4.80906">
        <ele>265</ele>
        <time>2021-08-27T05:51:04.000Z</time>
      </trkpt>
      <trkpt lat="49.76222" lon="4.80907">
        <ele>265</ele>
        <time>2021-08-27T05:51:05.000Z</time>
      </trkpt>
      <trkpt lat="49.76225" lon="4.80908">
        <ele>265</ele>
        <time>2021-08-27T05:51:06.000Z</time>
      </trkpt>
      <trkpt lat="49.76227" lon="4.80909">
        <ele>265</ele>
        <time>2021-08-27T05:51:07.000Z</time>
      </trkpt>
      <trkpt lat="49.7623" lon="4.8091">
        <ele>266</ele>
        <time>2021-08-27T05:51:08.000Z</time>
      </trkpt>
      <trkpt lat="49.76232" lon="4.80911">
        <ele>266</ele>
        <time>2021-08-27T05:51:09.000Z</time>
      </trkpt>
      <trkpt lat="49.76235" lon="4.80912">
        <ele>266</ele>
        <time>2021-08-27T05:51:10.000Z</time>
      </trkpt>
      <trkpt lat="49.76237" lon="4.80914">
        <ele>266</ele>
        <time>2021-08-27T05:51:11.000Z</time>
      </trkpt>
      <trkpt lat="49.7624" lon="4.80915">
        <ele>266</ele>
        <time>2021-08-27T05:51:12.000Z</time>
      </trkpt>
      <trkpt lat="49.76242" lon="4.80916">
        <ele>266</ele>
        <time>2021-08-27T05:51:13.000Z</time>
      </trkpt>
      <trkpt lat="49.76245" lon="4.80917">
        <ele>266</ele>
        <time>2021-08-27T05:51:14.000Z</time>
      </trkpt>
      <trkpt lat="49.76247" lon="4.80918">
        <ele>266</ele>
        <time>2021-08-27T05:51:15.000Z</time>
      </trkpt>
      <trkpt lat="49.7625" lon="4.80919">
        <ele>266</ele>
        <time>2021-08-27T05:51:16.000Z</time>
      </trkpt>
      <trkpt lat="49.76252" lon="4.8092">
        <ele>267</ele>
        <time>2021-08-27T05:51:17.000Z</time>
      </trkpt>
      <trkpt lat="49.76254" lon="4.80921">
        <ele>267</ele>
        <time>2021-08-27T05:51:18.000Z</time>
      </trkpt>
      <trkpt lat="49.76257" lon="4.80922">
        <ele>267</ele>
        <time>2021-08-27T05:51:19.000Z</time>
      </trkpt>
      <trkpt lat="49.76259" lon="4.80924">
        <ele>267</ele>
        <time>2021-08-27T05:51:20.000Z</time>
      </trkpt>
      <trkpt lat="49.76261" lon="4.80924">
        <ele>267</ele>
        <time>2021-08-27T05:51:21.000Z</time>
      </trkpt>
      <trkpt lat="49.76264" lon="4.80925">
        <ele>267</ele>
        <time>2021-08-27T05:51:22.000Z</time>
      </trkpt>
      <trkpt lat="49.76266" lon="4.80926">
        <ele>267</ele>
        <time>2021-08-27T05:51:23.000Z</time>
      </trkpt>
      <trkpt lat="49.76268" lon="4.80927">
        <ele>267</ele>
        <time>2021-08-27T05:51:24.000Z</time>
      </trkpt>
      <trkpt lat="49.76271" lon="4.80928">
        <ele>268</ele>
        <time>2021-08-27T05:51:25.000Z</time>
      </trkpt>
      <trkpt lat="49.76273" lon="4.80929">
        <ele>268</ele>
        <time>2021-08-27T05:51:26.000Z</time>
      </trkpt>
      <trkpt lat="49.76275" lon="4.8093">
        <ele>268</ele>
        <time>2021-08-27T05:51:27.000Z</time>
      </trkpt>
      <trkpt lat="49.76277" lon="4.80931">
        <ele>268</ele>
        <time>2021-08-27T05:51:28.000Z</time>
      </trkpt>
      <trkpt lat="49.76279" lon="4.80932">
        <ele>268</ele>
        <time>2021-08-27T05:51:29.000Z</time>
      </trkpt>
      <trkpt lat="49.76282" lon="4.80933">
        <ele>268</ele>
        <time>2021-08-27T05:51:30.000Z</time>
      </trkpt>
      <trkpt lat="49.76284" lon="4.80934">
        <ele>268</ele>
        <time>2021-08-27T05:51:31.000Z</time>
      </trkpt>
      <trkpt lat="49.76286" lon="4.80935">
        <ele>269</ele>
        <time>2021-08-27T05:51:32.000Z</time>
      </trkpt>
      <trkpt lat="49.76288" lon="4.80936">
        <ele>269</ele>
        <time>2021-08-27T05:51:33.000Z</time>
      </trkpt>
      <trkpt lat="49.76291" lon="4.80937">
        <ele>269</ele>
        <time>2021-08-27T05:51:34.000Z</time>
      </trkpt>
      <trkpt lat="49.76293" lon="4.80938">
        <ele>269</ele>
        <time>2021-08-27T05:51:35.000Z</time>
      </trkpt>
      <trkpt lat="49.76295" lon="4.80939">
        <ele>269</ele>
        <time>2021-08-27T05:51:36.000Z</time>
      </trkpt>
      <trkpt lat="49.76297" lon="4.8094">
        <ele>269</ele>
        <time>2021-08-27T05:51:37.000Z</time>
      </trkpt>
      <trkpt lat="49.76299" lon="4.8094">
        <ele>270</ele>
        <time>2021-08-27T05:51:38.000Z</time>
      </trkpt>
      <trkpt lat="49.76302" lon="4.80939">
        <ele>270</ele>
        <time>2021-08-27T05:51:39.000Z</time>
      </trkpt>
      <trkpt lat="49.76304" lon="4.80937">
        <ele>270</ele>
        <time>2021-08-27T05:51:40.000Z</time>
      </trkpt>
      <trkpt lat="49.76305" lon="4.80934">
        <ele>270</ele>
        <time>2021-08-27T05:51:41.000Z</time>
      </trkpt>
      <trkpt lat="49.76306" lon="4.8093">
        <ele>270</ele>
        <time>2021-08-27T05:51:42.000Z</time>
      </trkpt>
      <trkpt lat="49.76307" lon="4.80925">
        <ele>270</ele>
        <time>2021-08-27T05:51:43.000Z</time>
      </trkpt>
      <trkpt lat="49.76308" lon="4.80919">
        <ele>270</ele>
        <time>2021-08-27T05:51:44.000Z</time>
      </trkpt>
      <trkpt lat="49.76309" lon="4.80913">
        <ele>270</ele>
        <time>2021-08-27T05:51:45.000Z</time>
      </trkpt>
      <trkpt lat="49.7631" lon="4.80907">
        <ele>271</ele>
        <time>2021-08-27T05:51:46.000Z</time>
      </trkpt>
      <trkpt lat="49.7631" lon="4.809">
        <ele>271</ele>
        <time>2021-08-27T05:51:47.000Z</time>
      </trkpt>
      <trkpt lat="49.76311" lon="4.80894">
        <ele>271</ele>
        <time>2021-08-27T05:51:48.000Z</time>
      </trkpt>
      <trkpt lat="49.76311" lon="4.80888">
        <ele>271</ele>
        <time>2021-08-27T05:51:49.000Z</time>
      </trkpt>
      <trkpt lat="49.76311" lon="4.80882">
        <ele>271</ele>
        <time>2021-08-27T05:51:50.000Z</time>
      </trkpt>
      <trkpt lat="49.76312" lon="4.80876">
        <ele>271</ele>
        <time>2021-08-27T05:51:51.000Z</time>
      </trkpt>
      <trkpt lat="49.76312" lon="4.80869">
        <ele>271</ele>
        <time>2021-08-27T05:51:52.000Z</time>
      </trkpt>
      <trkpt lat="49.76312" lon="4.80863">
        <ele>271</ele>
        <time>2021-08-27T05:51:53.000Z</time>
      </trkpt>
      <trkpt lat="49.76313" lon="4.80857">
        <ele>271</ele>
        <time>2021-08-27T05:51:54.000Z</time>
      </trkpt>
      <trkpt lat="49.76314" lon="4.80852">
        <ele>271</ele>
        <time>2021-08-27T05:51:55.000Z</time>
      </trkpt>
      <trkpt lat="49.76314" lon="4.80847">
        <ele>271</ele>
        <time>2021-08-27T05:51:56.000Z</time>
      </trkpt>
      <trkpt lat="49.76314" lon="4.80841">
        <ele>271</ele>
        <time>2021-08-27T05:51:57.000Z</time>
      </trkpt>
      <trkpt lat="49.76314" lon="4.80835">
        <ele>271</ele>
        <time>2021-08-27T05:51:58.000Z</time>
      </trkpt>
      <trkpt lat="49.76314" lon="4.80829">
        <ele>271</ele>
        <time>2021-08-27T05:51:59.000Z</time>
      </trkpt>
      <trkpt lat="49.76314" lon="4.80822">
        <ele>271</ele>
        <time>2021-08-27T05:52:00.000Z</time>
      </trkpt>
      <trkpt lat="49.76313" lon="4.80815">
        <ele>271</ele>
        <time>2021-08-27T05:52:01.000Z</time>
      </trkpt>
      <trkpt lat="49.76313" lon="4.80808">
        <ele>271</ele>
        <time>2021-08-27T05:52:02.000Z</time>
      </trkpt>
      <trkpt lat="49.76313" lon="4.80801">
        <ele>271</ele>
        <time>2021-08-27T05:52:03.000Z</time>
      </trkpt>
      <trkpt lat="49.76313" lon="4.80794">
        <ele>271</ele>
        <time>2021-08-27T05:52:04.000Z</time>
      </trkpt>
      <trkpt lat="49.76313" lon="4.80787">
        <ele>271</ele>
        <time>2021-08-27T05:52:05.000Z</time>
      </trkpt>
      <trkpt lat="49.76312" lon="4.8078">
        <ele>271</ele>
        <time>2021-08-27T05:52:06.000Z</time>
      </trkpt>
      <trkpt lat="49.76312" lon="4.80773">
        <ele>271</ele>
        <time>2021-08-27T05:52:07.000Z</time>
      </trkpt>
      <trkpt lat="49.76312" lon="4.80767">
        <ele>271</ele>
        <time>2021-08-27T05:52:08.000Z</time>
      </trkpt>
      <trkpt lat="49.76313" lon="4.80761">
        <ele>271</ele>
        <time>2021-08-27T05:52:09.000Z</time>
      </trkpt>
      <trkpt lat="49.76313" lon="4.80755">
        <ele>271</ele>
        <time>2021-08-27T05:52:10.000Z</time>
      </trkpt>
      <trkpt lat="49.76315" lon="4.8075">
        <ele>271</ele>
        <time>2021-08-27T05:52:11.000Z</time>
      </trkpt>
      <trkpt lat="49.76316" lon="4.80744">
        <ele>271</ele>
        <time>2021-08-27T05:52:12.000Z</time>
      </trkpt>
      <trkpt lat="49.76318" lon="4.80738">
        <ele>271</ele>
        <time>2021-08-27T05:52:13.000Z</time>
      </trkpt>
      <trkpt lat="49.7632" lon="4.80733">
        <ele>271</ele>
        <time>2021-08-27T05:52:14.000Z</time>
      </trkpt>
      <trkpt lat="49.76322" lon="4.80728">
        <ele>271</ele>
        <time>2021-08-27T05:52:15.000Z</time>
      </trkpt>
      <trkpt lat="49.76324" lon="4.80722">
        <ele>271</ele>
        <time>2021-08-27T05:52:16.000Z</time>
      </trkpt>
      <trkpt lat="49.76327" lon="4.80717">
        <ele>271</ele>
        <time>2021-08-27T05:52:17.000Z</time>
      </trkpt>
      <trkpt lat="49.7633" lon="4.80712">
        <ele>271</ele>
        <time>2021-08-27T05:52:18.000Z</time>
      </trkpt>
      <trkpt lat="49.76333" lon="4.80706">
        <ele>271</ele>
        <time>2021-08-27T05:52:19.000Z</time>
      </trkpt>
      <trkpt lat="49.76336" lon="4.80701">
        <ele>271</ele>
        <time>2021-08-27T05:52:20.000Z</time>
      </trkpt>
      <trkpt lat="49.76338" lon="4.80697">
        <ele>271</ele>
        <time>2021-08-27T05:52:21.000Z</time>
      </trkpt>
      <trkpt lat="49.7634" lon="4.80693">
        <ele>271</ele>
        <time>2021-08-27T05:52:22.000Z</time>
      </trkpt>
      <trkpt lat="49.76343" lon="4.80689">
        <ele>271</ele>
        <time>2021-08-27T05:52:23.000Z</time>
      </trkpt>
      <trkpt lat="49.76345" lon="4.80684">
        <ele>271</ele>
        <time>2021-08-27T05:52:24.000Z</time>
      </trkpt>
      <trkpt lat="49.76348" lon="4.80679">
        <ele>271</ele>
        <time>2021-08-27T05:52:25.000Z</time>
      </trkpt>
      <trkpt lat="49.76351" lon="4.80674">
        <ele>271</ele>
        <time>2021-08-27T05:52:26.000Z</time>
      </trkpt>
      <trkpt lat="49.76354" lon="4.8067">
        <ele>271</ele>
        <time>2021-08-27T05:52:27.000Z</time>
      </trkpt>
      <trkpt lat="49.76357" lon="4.80665">
        <ele>271</ele>
        <time>2021-08-27T05:52:28.000Z</time>
      </trkpt>
      <trkpt lat="49.76361" lon="4.8066">
        <ele>271</ele>
        <time>2021-08-27T05:52:29.000Z</time>
      </trkpt>
      <trkpt lat="49.76365" lon="4.80656">
        <ele>271</ele>
        <time>2021-08-27T05:52:30.000Z</time>
      </trkpt>
      <trkpt lat="49.7637" lon="4.80651">
        <ele>271</ele>
        <time>2021-08-27T05:52:31.000Z</time>
      </trkpt>
      <trkpt lat="49.76374" lon="4.80648">
        <ele>271</ele>
        <time>2021-08-27T05:52:32.000Z</time>
      </trkpt>
      <trkpt lat="49.76379" lon="4.80644">
        <ele>271</ele>
        <time>2021-08-27T05:52:33.000Z</time>
      </trkpt>
      <trkpt lat="49.76383" lon="4.8064">
        <ele>271</ele>
        <time>2021-08-27T05:52:34.000Z</time>
      </trkpt>
      <trkpt lat="49.76388" lon="4.80637">
        <ele>271</ele>
        <time>2021-08-27T05:52:35.000Z</time>
      </trkpt>
      <trkpt lat="49.76392" lon="4.80633">
        <ele>271</ele>
        <time>2021-08-27T05:52:36.000Z</time>
      </trkpt>
      <trkpt lat="49.76397" lon="4.8063">
        <ele>271</ele>
        <time>2021-08-27T05:52:37.000Z</time>
      </trkpt>
      <trkpt lat="49.76401" lon="4.80626">
        <ele>271</ele>
        <time>2021-08-27T05:52:38.000Z</time>
      </trkpt>
      <trkpt lat="49.76406" lon="4.80623">
        <ele>271</ele>
        <time>2021-08-27T05:52:39.000Z</time>
      </trkpt>
      <trkpt lat="49.7641" lon="4.8062">
        <ele>271</ele>
        <time>2021-08-27T05:52:40.000Z</time>
      </trkpt>
      <trkpt lat="49.76414" lon="4.80617">
        <ele>271</ele>
        <time>2021-08-27T05:52:41.000Z</time>
      </trkpt>
      <trkpt lat="49.76419" lon="4.80614">
        <ele>271</ele>
        <time>2021-08-27T05:52:42.000Z</time>
      </trkpt>
      <trkpt lat="49.76424" lon="4.80611">
        <ele>271</ele>
        <time>2021-08-27T05:52:43.000Z</time>
      </trkpt>
      <trkpt lat="49.76429" lon="4.80607">
        <ele>271</ele>
        <time>2021-08-27T05:52:44.000Z</time>
      </trkpt>
      <trkpt lat="49.76434" lon="4.80604">
        <ele>271</ele>
        <time>2021-08-27T05:52:45.000Z</time>
      </trkpt>
      <trkpt lat="49.76439" lon="4.806">
        <ele>271</ele>
        <time>2021-08-27T05:52:46.000Z</time>
      </trkpt>
      <trkpt lat="49.76443" lon="4.80596">
        <ele>271</ele>
        <time>2021-08-27T05:52:47.000Z</time>
      </trkpt>
      <trkpt lat="49.76448" lon="4.80592">
        <ele>271</ele>
        <time>2021-08-27T05:52:48.000Z</time>
      </trkpt>
      <trkpt lat="49.76453" lon="4.80589">
        <ele>271</ele>
        <time>2021-08-27T05:52:49.000Z</time>
      </trkpt>
      <trkpt lat="49.76457" lon="4.80585">
        <ele>271</ele>
        <time>2021-08-27T05:52:50.000Z</time>
      </trkpt>
      <trkpt lat="49.76462" lon="4.80581">
        <ele>271</ele>
        <time>2021-08-27T05:52:51.000Z</time>
      </trkpt>
      <trkpt lat="49.76466" lon="4.80578">
        <ele>271</ele>
        <time>2021-08-27T05:52:52.000Z</time>
      </trkpt>
      <trkpt lat="49.7647" lon="4.80574">
        <ele>271</ele>
        <time>2021-08-27T05:52:53.000Z</time>
      </trkpt>
      <trkpt lat="49.76474" lon="4.8057">
        <ele>271</ele>
        <time>2021-08-27T05:52:54.000Z</time>
      </trkpt>
      <trkpt lat="49.76478" lon="4.80566">
        <ele>271</ele>
        <time>2021-08-27T05:52:55.000Z</time>
      </trkpt>
      <trkpt lat="49.76482" lon="4.80563">
        <ele>270</ele>
        <time>2021-08-27T05:52:56.000Z</time>
      </trkpt>
      <trkpt lat="49.76486" lon="4.8056">
        <ele>270</ele>
        <time>2021-08-27T05:52:57.000Z</time>
      </trkpt>
      <trkpt lat="49.76489" lon="4.80557">
        <ele>270</ele>
        <time>2021-08-27T05:52:58.000Z</time>
      </trkpt>
      <trkpt lat="49.76492" lon="4.80554">
        <ele>270</ele>
        <time>2021-08-27T05:52:59.000Z</time>
      </trkpt>
      <trkpt lat="49.76494" lon="4.80551">
        <ele>270</ele>
        <time>2021-08-27T05:53:00.000Z</time>
      </trkpt>
      <trkpt lat="49.76497" lon="4.80548">
        <ele>270</ele>
        <time>2021-08-27T05:53:01.000Z</time>
      </trkpt>
      <trkpt lat="49.765" lon="4.80544">
        <ele>270</ele>
        <time>2021-08-27T05:53:02.000Z</time>
      </trkpt>
      <trkpt lat="49.76503" lon="4.80541">
        <ele>271</ele>
        <time>2021-08-27T05:53:03.000Z</time>
      </trkpt>
      <trkpt lat="49.76506" lon="4.80538">
        <ele>271</ele>
        <time>2021-08-27T05:53:04.000Z</time>
      </trkpt>
      <trkpt lat="49.76509" lon="4.80534">
        <ele>271</ele>
        <time>2021-08-27T05:53:05.000Z</time>
      </trkpt>
      <trkpt lat="49.76512" lon="4.80531">
        <ele>271</ele>
        <time>2021-08-27T05:53:06.000Z</time>
      </trkpt>
      <trkpt lat="49.76515" lon="4.80527">
        <ele>271</ele>
        <time>2021-08-27T05:53:07.000Z</time>
      </trkpt>
      <trkpt lat="49.76518" lon="4.80524">
        <ele>271</ele>
        <time>2021-08-27T05:53:08.000Z</time>
      </trkpt>
      <trkpt lat="49.76522" lon="4.80522">
        <ele>272</ele>
        <time>2021-08-27T05:53:09.000Z</time>
      </trkpt>
      <trkpt lat="49.76526" lon="4.80521">
        <ele>272</ele>
        <time>2021-08-27T05:53:10.000Z</time>
      </trkpt>
      <trkpt lat="49.76531" lon="4.8052">
        <ele>272</ele>
        <time>2021-08-27T05:53:11.000Z</time>
      </trkpt>
      <trkpt lat="49.76536" lon="4.80519">
        <ele>272</ele>
        <time>2021-08-27T05:53:12.000Z</time>
      </trkpt>
      <trkpt lat="49.76542" lon="4.80518">
        <ele>272</ele>
        <time>2021-08-27T05:53:13.000Z</time>
      </trkpt>
      <trkpt lat="49.76546" lon="4.80517">
        <ele>273</ele>
        <time>2021-08-27T05:53:14.000Z</time>
      </trkpt>
      <trkpt lat="49.76551" lon="4.80515">
        <ele>273</ele>
        <time>2021-08-27T05:53:15.000Z</time>
      </trkpt>
      <trkpt lat="49.76554" lon="4.80514">
        <ele>273</ele>
        <time>2021-08-27T05:53:16.000Z</time>
      </trkpt>
      <trkpt lat="49.76557" lon="4.80512">
        <ele>273</ele>
        <time>2021-08-27T05:53:17.000Z</time>
      </trkpt>
      <trkpt lat="49.76561" lon="4.80511">
        <ele>274</ele>
        <time>2021-08-27T05:53:18.000Z</time>
      </trkpt>
      <trkpt lat="49.76563" lon="4.80511">
        <ele>274</ele>
        <time>2021-08-27T05:53:19.000Z</time>
      </trkpt>
      <trkpt lat="49.76566" lon="4.80511">
        <ele>274</ele>
        <time>2021-08-27T05:53:20.000Z</time>
      </trkpt>
      <trkpt lat="49.76569" lon="4.80509">
        <ele>274</ele>
        <time>2021-08-27T05:53:21.000Z</time>
      </trkpt>
      <trkpt lat="49.76572" lon="4.80508">
        <ele>274</ele>
        <time>2021-08-27T05:53:22.000Z</time>
      </trkpt>
      <trkpt lat="49.76575" lon="4.80507">
        <ele>275</ele>
        <time>2021-08-27T05:53:23.000Z</time>
      </trkpt>
      <trkpt lat="49.76578" lon="4.80507">
        <ele>275</ele>
        <time>2021-08-27T05:53:24.000Z</time>
      </trkpt>
      <trkpt lat="49.76581" lon="4.80506">
        <ele>275</ele>
        <time>2021-08-27T05:53:25.000Z</time>
      </trkpt>
      <trkpt lat="49.76583" lon="4.80505">
        <ele>275</ele>
        <time>2021-08-27T05:53:26.000Z</time>
      </trkpt>
      <trkpt lat="49.76585" lon="4.80503">
        <ele>275</ele>
        <time>2021-08-27T05:53:27.000Z</time>
      </trkpt>
      <trkpt lat="49.76588" lon="4.80502">
        <ele>275</ele>
        <time>2021-08-27T05:53:28.000Z</time>
      </trkpt>
      <trkpt lat="49.7659" lon="4.805">
        <ele>275</ele>
        <time>2021-08-27T05:53:29.000Z</time>
      </trkpt>
      <trkpt lat="49.76592" lon="4.80499">
        <ele>276</ele>
        <time>2021-08-27T05:53:30.000Z</time>
      </trkpt>
      <trkpt lat="49.76594" lon="4.80498">
        <ele>276</ele>
        <time>2021-08-27T05:53:31.000Z</time>
      </trkpt>
      <trkpt lat="49.76597" lon="4.80497">
        <ele>276</ele>
        <time>2021-08-27T05:53:32.000Z</time>
      </trkpt>
      <trkpt lat="49.76599" lon="4.80496">
        <ele>276</ele>
        <time>2021-08-27T05:53:33.000Z</time>
      </trkpt>
      <trkpt lat="49.76602" lon="4.80495">
        <ele>276</ele>
        <time>2021-08-27T05:53:34.000Z</time>
      </trkpt>
      <trkpt lat="49.76605" lon="4.80494">
        <ele>276</ele>
        <time>2021-08-27T05:53:35.000Z</time>
      </trkpt>
      <trkpt lat="49.76607" lon="4.80493">
        <ele>276</ele>
        <time>2021-08-27T05:53:36.000Z</time>
      </trkpt>
      <trkpt lat="49.7661" lon="4.80492">
        <ele>277</ele>
        <time>2021-08-27T05:53:37.000Z</time>
      </trkpt>
      <trkpt lat="49.76613" lon="4.80491">
        <ele>277</ele>
        <time>2021-08-27T05:53:38.000Z</time>
      </trkpt>
      <trkpt lat="49.76616" lon="4.8049">
        <ele>277</ele>
        <time>2021-08-27T05:53:39.000Z</time>
      </trkpt>
      <trkpt lat="49.7662" lon="4.8049">
        <ele>277</ele>
        <time>2021-08-27T05:53:40.000Z</time>
      </trkpt>
      <trkpt lat="49.76623" lon="4.80489">
        <ele>277</ele>
        <time>2021-08-27T05:53:41.000Z</time>
      </trkpt>
      <trkpt lat="49.76627" lon="4.80488">
        <ele>278</ele>
        <time>2021-08-27T05:53:42.000Z</time>
      </trkpt>
      <trkpt lat="49.7663" lon="4.80486">
        <ele>278</ele>
        <time>2021-08-27T05:53:43.000Z</time>
      </trkpt>
      <trkpt lat="49.76633" lon="4.80484">
        <ele>278</ele>
        <time>2021-08-27T05:53:44.000Z</time>
      </trkpt>
      <trkpt lat="49.76636" lon="4.80483">
        <ele>278</ele>
        <time>2021-08-27T05:53:45.000Z</time>
      </trkpt>
      <trkpt lat="49.76639" lon="4.80481">
        <ele>278</ele>
        <time>2021-08-27T05:53:46.000Z</time>
      </trkpt>
      <trkpt lat="49.76643" lon="4.8048">
        <ele>279</ele>
        <time>2021-08-27T05:53:47.000Z</time>
      </trkpt>
      <trkpt lat="49.76647" lon="4.8048">
        <ele>279</ele>
        <time>2021-08-27T05:53:48.000Z</time>
      </trkpt>
      <trkpt lat="49.76651" lon="4.80479">
        <ele>279</ele>
        <time>2021-08-27T05:53:49.000Z</time>
      </trkpt>
      <trkpt lat="49.76654" lon="4.80479">
        <ele>280</ele>
        <time>2021-08-27T05:53:50.000Z</time>
      </trkpt>
      <trkpt lat="49.76659" lon="4.80479">
        <ele>280</ele>
        <time>2021-08-27T05:53:51.000Z</time>
      </trkpt>
      <trkpt lat="49.76663" lon="4.8048">
        <ele>280</ele>
        <time>2021-08-27T05:53:52.000Z</time>
      </trkpt>
      <trkpt lat="49.76666" lon="4.8048">
        <ele>281</ele>
        <time>2021-08-27T05:53:53.000Z</time>
      </trkpt>
      <trkpt lat="49.7667" lon="4.80481">
        <ele>281</ele>
        <time>2021-08-27T05:53:54.000Z</time>
      </trkpt>
      <trkpt lat="49.76674" lon="4.80482">
        <ele>281</ele>
        <time>2021-08-27T05:53:55.000Z</time>
      </trkpt>
      <trkpt lat="49.76678" lon="4.80483">
        <ele>281</ele>
        <time>2021-08-27T05:53:56.000Z</time>
      </trkpt>
      <trkpt lat="49.76682" lon="4.80483">
        <ele>281</ele>
        <time>2021-08-27T05:53:57.000Z</time>
      </trkpt>
      <trkpt lat="49.76686" lon="4.80482">
        <ele>281</ele>
        <time>2021-08-27T05:53:58.000Z</time>
      </trkpt>
      <trkpt lat="49.76689" lon="4.80482">
        <ele>281</ele>
        <time>2021-08-27T05:53:59.000Z</time>
      </trkpt>
      <trkpt lat="49.76693" lon="4.8048">
        <ele>282</ele>
        <time>2021-08-27T05:54:00.000Z</time>
      </trkpt>
      <trkpt lat="49.76697" lon="4.80479">
        <ele>282</ele>
        <time>2021-08-27T05:54:01.000Z</time>
      </trkpt>
      <trkpt lat="49.767" lon="4.80478">
        <ele>282</ele>
        <time>2021-08-27T05:54:02.000Z</time>
      </trkpt>
      <trkpt lat="49.76704" lon="4.80476">
        <ele>282</ele>
        <time>2021-08-27T05:54:03.000Z</time>
      </trkpt>
      <trkpt lat="49.76708" lon="4.80475">
        <ele>282</ele>
        <time>2021-08-27T05:54:04.000Z</time>
      </trkpt>
      <trkpt lat="49.76712" lon="4.80473">
        <ele>282</ele>
        <time>2021-08-27T05:54:05.000Z</time>
      </trkpt>
      <trkpt lat="49.76716" lon="4.80472">
        <ele>282</ele>
        <time>2021-08-27T05:54:06.000Z</time>
      </trkpt>
      <trkpt lat="49.7672" lon="4.80471">
        <ele>282</ele>
        <time>2021-08-27T05:54:07.000Z</time>
      </trkpt>
      <trkpt lat="49.76725" lon="4.80469">
        <ele>282</ele>
        <time>2021-08-27T05:54:08.000Z</time>
      </trkpt>
      <trkpt lat="49.76729" lon="4.80468">
        <ele>282</ele>
        <time>2021-08-27T05:54:09.000Z</time>
      </trkpt>
      <trkpt lat="49.76734" lon="4.80467">
        <ele>282</ele>
        <time>2021-08-27T05:54:10.000Z</time>
      </trkpt>
      <trkpt lat="49.76738" lon="4.80465">
        <ele>282</ele>
        <time>2021-08-27T05:54:11.000Z</time>
      </trkpt>
      <trkpt lat="49.76742" lon="4.80464">
        <ele>281</ele>
        <time>2021-08-27T05:54:12.000Z</time>
      </trkpt>
      <trkpt lat="49.76747" lon="4.80462">
        <ele>281</ele>
        <time>2021-08-27T05:54:13.000Z</time>
      </trkpt>
      <trkpt lat="49.76751" lon="4.8046">
        <ele>281</ele>
        <time>2021-08-27T05:54:14.000Z</time>
      </trkpt>
      <trkpt lat="49.76754" lon="4.80459">
        <ele>281</ele>
        <time>2021-08-27T05:54:15.000Z</time>
      </trkpt>
      <trkpt lat="49.76759" lon="4.80458">
        <ele>281</ele>
        <time>2021-08-27T05:54:16.000Z</time>
      </trkpt>
      <trkpt lat="49.76763" lon="4.80457">
        <ele>281</ele>
        <time>2021-08-27T05:54:17.000Z</time>
      </trkpt>
      <trkpt lat="49.76768" lon="4.80455">
        <ele>281</ele>
        <time>2021-08-27T05:54:18.000Z</time>
      </trkpt>
      <trkpt lat="49.76772" lon="4.80454">
        <ele>281</ele>
        <time>2021-08-27T05:54:19.000Z</time>
      </trkpt>
      <trkpt lat="49.76776" lon="4.80453">
        <ele>281</ele>
        <time>2021-08-27T05:54:20.000Z</time>
      </trkpt>
      <trkpt lat="49.7678" lon="4.80452">
        <ele>281</ele>
        <time>2021-08-27T05:54:21.000Z</time>
      </trkpt>
      <trkpt lat="49.76783" lon="4.8045">
        <ele>281</ele>
        <time>2021-08-27T05:54:22.000Z</time>
      </trkpt>
      <trkpt lat="49.76787" lon="4.80449">
        <ele>281</ele>
        <time>2021-08-27T05:54:23.000Z</time>
      </trkpt>
      <trkpt lat="49.76791" lon="4.80447">
        <ele>281</ele>
        <time>2021-08-27T05:54:24.000Z</time>
      </trkpt>
      <trkpt lat="49.76796" lon="4.80445">
        <ele>281</ele>
        <time>2021-08-27T05:54:25.000Z</time>
      </trkpt>
      <trkpt lat="49.76799" lon="4.80443">
        <ele>281</ele>
        <time>2021-08-27T05:54:26.000Z</time>
      </trkpt>
      <trkpt lat="49.76803" lon="4.80441">
        <ele>281</ele>
        <time>2021-08-27T05:54:27.000Z</time>
      </trkpt>
      <trkpt lat="49.76807" lon="4.80439">
        <ele>281</ele>
        <time>2021-08-27T05:54:28.000Z</time>
      </trkpt>
      <trkpt lat="49.7681" lon="4.80438">
        <ele>281</ele>
        <time>2021-08-27T05:54:29.000Z</time>
      </trkpt>
      <trkpt lat="49.76814" lon="4.80435">
        <ele>281</ele>
        <time>2021-08-27T05:54:30.000Z</time>
      </trkpt>
      <trkpt lat="49.76818" lon="4.80433">
        <ele>281</ele>
        <time>2021-08-27T05:54:31.000Z</time>
      </trkpt>
      <trkpt lat="49.76821" lon="4.8043">
        <ele>281</ele>
        <time>2021-08-27T05:54:32.000Z</time>
      </trkpt>
      <trkpt lat="49.76824" lon="4.80427">
        <ele>281</ele>
        <time>2021-08-27T05:54:33.000Z</time>
      </trkpt>
      <trkpt lat="49.76828" lon="4.80424">
        <ele>281</ele>
        <time>2021-08-27T05:54:34.000Z</time>
      </trkpt>
      <trkpt lat="49.76831" lon="4.80422">
        <ele>281</ele>
        <time>2021-08-27T05:54:35.000Z</time>
      </trkpt>
      <trkpt lat="49.76835" lon="4.8042">
        <ele>281</ele>
        <time>2021-08-27T05:54:36.000Z</time>
      </trkpt>
      <trkpt lat="49.76838" lon="4.80416">
        <ele>281</ele>
        <time>2021-08-27T05:54:37.000Z</time>
      </trkpt>
      <trkpt lat="49.76842" lon="4.80413">
        <ele>281</ele>
        <time>2021-08-27T05:54:38.000Z</time>
      </trkpt>
      <trkpt lat="49.76846" lon="4.80411">
        <ele>281</ele>
        <time>2021-08-27T05:54:39.000Z</time>
      </trkpt>
      <trkpt lat="49.7685" lon="4.80408">
        <ele>281</ele>
        <time>2021-08-27T05:54:40.000Z</time>
      </trkpt>
      <trkpt lat="49.76854" lon="4.80406">
        <ele>281</ele>
        <time>2021-08-27T05:54:41.000Z</time>
      </trkpt>
      <trkpt lat="49.76859" lon="4.80403">
        <ele>281</ele>
        <time>2021-08-27T05:54:42.000Z</time>
      </trkpt>
      <trkpt lat="49.76863" lon="4.80401">
        <ele>281</ele>
        <time>2021-08-27T05:54:43.000Z</time>
      </trkpt>
      <trkpt lat="49.76867" lon="4.80399">
        <ele>282</ele>
        <time>2021-08-27T05:54:44.000Z</time>
      </trkpt>
      <trkpt lat="49.76872" lon="4.80397">
        <ele>282</ele>
        <time>2021-08-27T05:54:45.000Z</time>
      </trkpt>
      <trkpt lat="49.76876" lon="4.80395">
        <ele>282</ele>
        <time>2021-08-27T05:54:46.000Z</time>
      </trkpt>
      <trkpt lat="49.7688" lon="4.80393">
        <ele>282</ele>
        <time>2021-08-27T05:54:47.000Z</time>
      </trkpt>
      <trkpt lat="49.76884" lon="4.8039">
        <ele>282</ele>
        <time>2021-08-27T05:54:48.000Z</time>
      </trkpt>
      <trkpt lat="49.76887" lon="4.80388">
        <ele>282</ele>
        <time>2021-08-27T05:54:49.000Z</time>
      </trkpt>
      <trkpt lat="49.76891" lon="4.80385">
        <ele>282</ele>
        <time>2021-08-27T05:54:50.000Z</time>
      </trkpt>
      <trkpt lat="49.76895" lon="4.80381">
        <ele>282</ele>
        <time>2021-08-27T05:54:51.000Z</time>
      </trkpt>
      <trkpt lat="49.76898" lon="4.80378">
        <ele>282</ele>
        <time>2021-08-27T05:54:52.000Z</time>
      </trkpt>
      <trkpt lat="49.76902" lon="4.80373">
        <ele>282</ele>
        <time>2021-08-27T05:54:53.000Z</time>
      </trkpt>
      <trkpt lat="49.76905" lon="4.80369">
        <ele>282</ele>
        <time>2021-08-27T05:54:54.000Z</time>
      </trkpt>
      <trkpt lat="49.76908" lon="4.80364">
        <ele>282</ele>
        <time>2021-08-27T05:54:55.000Z</time>
      </trkpt>
      <trkpt lat="49.76911" lon="4.8036">
        <ele>282</ele>
        <time>2021-08-27T05:54:56.000Z</time>
      </trkpt>
      <trkpt lat="49.76915" lon="4.80355">
        <ele>282</ele>
        <time>2021-08-27T05:54:57.000Z</time>
      </trkpt>
      <trkpt lat="49.76918" lon="4.8035">
        <ele>282</ele>
        <time>2021-08-27T05:54:58.000Z</time>
      </trkpt>
      <trkpt lat="49.76921" lon="4.80345">
        <ele>282</ele>
        <time>2021-08-27T05:54:59.000Z</time>
      </trkpt>
      <trkpt lat="49.76925" lon="4.8034">
        <ele>282</ele>
        <time>2021-08-27T05:55:00.000Z</time>
      </trkpt>
      <trkpt lat="49.76929" lon="4.80337">
        <ele>282</ele>
        <time>2021-08-27T05:55:01.000Z</time>
      </trkpt>
      <trkpt lat="49.76932" lon="4.80334">
        <ele>283</ele>
        <time>2021-08-27T05:55:02.000Z</time>
      </trkpt>
      <trkpt lat="49.76934" lon="4.80331">
        <ele>283</ele>
        <time>2021-08-27T05:55:03.000Z</time>
      </trkpt>
      <trkpt lat="49.76937" lon="4.80328">
        <ele>283</ele>
        <time>2021-08-27T05:55:04.000Z</time>
      </trkpt>
      <trkpt lat="49.76939" lon="4.80324">
        <ele>283</ele>
        <time>2021-08-27T05:55:05.000Z</time>
      </trkpt>
      <trkpt lat="49.76941" lon="4.80321">
        <ele>283</ele>
        <time>2021-08-27T05:55:06.000Z</time>
      </trkpt>
      <trkpt lat="49.76944" lon="4.80319">
        <ele>283</ele>
        <time>2021-08-27T05:55:07.000Z</time>
      </trkpt>
      <trkpt lat="49.76945" lon="4.80317">
        <ele>284</ele>
        <time>2021-08-27T05:55:08.000Z</time>
      </trkpt>
      <trkpt lat="49.76947" lon="4.80315">
        <ele>284</ele>
        <time>2021-08-27T05:55:09.000Z</time>
      </trkpt>
      <trkpt lat="49.76948" lon="4.80313">
        <ele>284</ele>
        <time>2021-08-27T05:55:10.000Z</time>
      </trkpt>
      <trkpt lat="49.76949" lon="4.80311">
        <ele>284</ele>
        <time>2021-08-27T05:55:11.000Z</time>
      </trkpt>
      <trkpt lat="49.7695" lon="4.80309">
        <ele>284</ele>
        <time>2021-08-27T05:55:12.000Z</time>
      </trkpt>
      <trkpt lat="49.76952" lon="4.80307">
        <ele>284</ele>
        <time>2021-08-27T05:55:13.000Z</time>
      </trkpt>
      <trkpt lat="49.76953" lon="4.80306">
        <ele>284</ele>
        <time>2021-08-27T05:55:14.000Z</time>
      </trkpt>
      <trkpt lat="49.76955" lon="4.80304">
        <ele>285</ele>
        <time>2021-08-27T05:55:15.000Z</time>
      </trkpt>
      <trkpt lat="49.76956" lon="4.80302">
        <ele>285</ele>
        <time>2021-08-27T05:55:16.000Z</time>
      </trkpt>
      <trkpt lat="49.76958" lon="4.803">
        <ele>285</ele>
        <time>2021-08-27T05:55:17.000Z</time>
      </trkpt>
      <trkpt lat="49.76959" lon="4.80297">
        <ele>285</ele>
        <time>2021-08-27T05:55:18.000Z</time>
      </trkpt>
      <trkpt lat="49.7696" lon="4.80295">
        <ele>285</ele>
        <time>2021-08-27T05:55:19.000Z</time>
      </trkpt>
      <trkpt lat="49.76962" lon="4.80293">
        <ele>286</ele>
        <time>2021-08-27T05:55:20.000Z</time>
      </trkpt>
      <trkpt lat="49.76964" lon="4.8029">
        <ele>286</ele>
        <time>2021-08-27T05:55:21.000Z</time>
      </trkpt>
      <trkpt lat="49.76966" lon="4.80287">
        <ele>286</ele>
        <time>2021-08-27T05:55:22.000Z</time>
      </trkpt>
      <trkpt lat="49.76967" lon="4.80285">
        <ele>286</ele>
        <time>2021-08-27T05:55:23.000Z</time>
      </trkpt>
      <trkpt lat="49.76969" lon="4.80281">
        <ele>286</ele>
        <time>2021-08-27T05:55:24.000Z</time>
      </trkpt>
      <trkpt lat="49.7697" lon="4.80278">
        <ele>286</ele>
        <time>2021-08-27T05:55:25.000Z</time>
      </trkpt>
      <trkpt lat="49.76972" lon="4.80276">
        <ele>287</ele>
        <time>2021-08-27T05:55:26.000Z</time>
      </trkpt>
      <trkpt lat="49.76973" lon="4.80273">
        <ele>287</ele>
        <time>2021-08-27T05:55:27.000Z</time>
      </trkpt>
      <trkpt lat="49.76975" lon="4.80271">
        <ele>287</ele>
        <time>2021-08-27T05:55:28.000Z</time>
      </trkpt>
      <trkpt lat="49.76977" lon="4.80268">
        <ele>287</ele>
        <time>2021-08-27T05:55:29.000Z</time>
      </trkpt>
      <trkpt lat="49.76979" lon="4.80266">
        <ele>287</ele>
        <time>2021-08-27T05:55:30.000Z</time>
      </trkpt>
      <trkpt lat="49.76981" lon="4.80263">
        <ele>287</ele>
        <time>2021-08-27T05:55:31.000Z</time>
      </trkpt>
      <trkpt lat="49.76984" lon="4.80261">
        <ele>288</ele>
        <time>2021-08-27T05:55:32.000Z</time>
      </trkpt>
      <trkpt lat="49.76986" lon="4.80259">
        <ele>288</ele>
        <time>2021-08-27T05:55:33.000Z</time>
      </trkpt>
      <trkpt lat="49.76988" lon="4.80256">
        <ele>288</ele>
        <time>2021-08-27T05:55:34.000Z</time>
      </trkpt>
      <trkpt lat="49.76991" lon="4.80253">
        <ele>288</ele>
        <time>2021-08-27T05:55:35.000Z</time>
      </trkpt>
      <trkpt lat="49.76994" lon="4.80251">
        <ele>289</ele>
        <time>2021-08-27T05:55:36.000Z</time>
      </trkpt>
      <trkpt lat="49.76997" lon="4.80248">
        <ele>289</ele>
        <time>2021-08-27T05:55:37.000Z</time>
      </trkpt>
      <trkpt lat="49.77" lon="4.80246">
        <ele>289</ele>
        <time>2021-08-27T05:55:38.000Z</time>
      </trkpt>
      <trkpt lat="49.77002" lon="4.80243">
        <ele>289</ele>
        <time>2021-08-27T05:55:39.000Z</time>
      </trkpt>
      <trkpt lat="49.77004" lon="4.8024">
        <ele>290</ele>
        <time>2021-08-27T05:55:40.000Z</time>
      </trkpt>
      <trkpt lat="49.77006" lon="4.80238">
        <ele>290</ele>
        <time>2021-08-27T05:55:41.000Z</time>
      </trkpt>
      <trkpt lat="49.77008" lon="4.80235">
        <ele>290</ele>
        <time>2021-08-27T05:55:42.000Z</time>
      </trkpt>
      <trkpt lat="49.7701" lon="4.80232">
        <ele>290</ele>
        <time>2021-08-27T05:55:43.000Z</time>
      </trkpt>
      <trkpt lat="49.77013" lon="4.80229">
        <ele>291</ele>
        <time>2021-08-27T05:55:44.000Z</time>
      </trkpt>
      <trkpt lat="49.77015" lon="4.80226">
        <ele>291</ele>
        <time>2021-08-27T05:55:45.000Z</time>
      </trkpt>
      <trkpt lat="49.77017" lon="4.80224">
        <ele>291</ele>
        <time>2021-08-27T05:55:46.000Z</time>
      </trkpt>
      <trkpt lat="49.77019" lon="4.80221">
        <ele>292</ele>
        <time>2021-08-27T05:55:47.000Z</time>
      </trkpt>
      <trkpt lat="49.77021" lon="4.80217">
        <ele>292</ele>
        <time>2021-08-27T05:55:48.000Z</time>
      </trkpt>
      <trkpt lat="49.77023" lon="4.80215">
        <ele>292</ele>
        <time>2021-08-27T05:55:49.000Z</time>
      </trkpt>
      <trkpt lat="49.77026" lon="4.80212">
        <ele>292</ele>
        <time>2021-08-27T05:55:50.000Z</time>
      </trkpt>
      <trkpt lat="49.77029" lon="4.80209">
        <ele>292</ele>
        <time>2021-08-27T05:55:51.000Z</time>
      </trkpt>
      <trkpt lat="49.77031" lon="4.80206">
        <ele>293</ele>
        <time>2021-08-27T05:55:52.000Z</time>
      </trkpt>
      <trkpt lat="49.77033" lon="4.80203">
        <ele>293</ele>
        <time>2021-08-27T05:55:53.000Z</time>
      </trkpt>
      <trkpt lat="49.77036" lon="4.802">
        <ele>293</ele>
        <time>2021-08-27T05:55:54.000Z</time>
      </trkpt>
      <trkpt lat="49.77038" lon="4.80197">
        <ele>293</ele>
        <time>2021-08-27T05:55:55.000Z</time>
      </trkpt>
      <trkpt lat="49.77041" lon="4.80193">
        <ele>293</ele>
        <time>2021-08-27T05:55:56.000Z</time>
      </trkpt>
      <trkpt lat="49.77044" lon="4.80189">
        <ele>293</ele>
        <time>2021-08-27T05:55:57.000Z</time>
      </trkpt>
      <trkpt lat="49.77046" lon="4.80186">
        <ele>294</ele>
        <time>2021-08-27T05:55:58.000Z</time>
      </trkpt>
      <trkpt lat="49.77049" lon="4.80182">
        <ele>294</ele>
        <time>2021-08-27T05:55:59.000Z</time>
      </trkpt>
      <trkpt lat="49.77051" lon="4.80177">
        <ele>294</ele>
        <time>2021-08-27T05:56:00.000Z</time>
      </trkpt>
      <trkpt lat="49.77053" lon="4.80173">
        <ele>294</ele>
        <time>2021-08-27T05:56:01.000Z</time>
      </trkpt>
      <trkpt lat="49.77055" lon="4.80169">
        <ele>294</ele>
        <time>2021-08-27T05:56:02.000Z</time>
      </trkpt>
      <trkpt lat="49.77057" lon="4.80166">
        <ele>294</ele>
        <time>2021-08-27T05:56:03.000Z</time>
      </trkpt>
      <trkpt lat="49.7706" lon="4.80163">
        <ele>294</ele>
        <time>2021-08-27T05:56:04.000Z</time>
      </trkpt>
      <trkpt lat="49.77063" lon="4.8016">
        <ele>295</ele>
        <time>2021-08-27T05:56:05.000Z</time>
      </trkpt>
      <trkpt lat="49.77066" lon="4.80157">
        <ele>295</ele>
        <time>2021-08-27T05:56:06.000Z</time>
      </trkpt>
      <trkpt lat="49.77069" lon="4.80157">
        <ele>295</ele>
        <time>2021-08-27T05:56:07.000Z</time>
      </trkpt>
      <trkpt lat="49.77072" lon="4.80158">
        <ele>295</ele>
        <time>2021-08-27T05:56:08.000Z</time>
      </trkpt>
      <trkpt lat="49.77076" lon="4.80159">
        <ele>295</ele>
        <time>2021-08-27T05:56:09.000Z</time>
      </trkpt>
      <trkpt lat="49.7708" lon="4.80161">
        <ele>295</ele>
        <time>2021-08-27T05:56:10.000Z</time>
      </trkpt>
      <trkpt lat="49.77083" lon="4.80163">
        <ele>296</ele>
        <time>2021-08-27T05:56:11.000Z</time>
      </trkpt>
      <trkpt lat="49.77087" lon="4.80165">
        <ele>296</ele>
        <time>2021-08-27T05:56:12.000Z</time>
      </trkpt>
      <trkpt lat="49.7709" lon="4.80168">
        <ele>296</ele>
        <time>2021-08-27T05:56:13.000Z</time>
      </trkpt>
      <trkpt lat="49.77093" lon="4.8017">
        <ele>296</ele>
        <time>2021-08-27T05:56:14.000Z</time>
      </trkpt>
      <trkpt lat="49.77096" lon="4.80173">
        <ele>296</ele>
        <time>2021-08-27T05:56:15.000Z</time>
      </trkpt>
      <trkpt lat="49.77099" lon="4.80175">
        <ele>296</ele>
        <time>2021-08-27T05:56:16.000Z</time>
      </trkpt>
      <trkpt lat="49.77103" lon="4.80177">
        <ele>296</ele>
        <time>2021-08-27T05:56:17.000Z</time>
      </trkpt>
      <trkpt lat="49.77106" lon="4.80178">
        <ele>296</ele>
        <time>2021-08-27T05:56:18.000Z</time>
      </trkpt>
      <trkpt lat="49.7711" lon="4.80178">
        <ele>296</ele>
        <time>2021-08-27T05:56:19.000Z</time>
      </trkpt>
      <trkpt lat="49.77113" lon="4.80177">
        <ele>296</ele>
        <time>2021-08-27T05:56:20.000Z</time>
      </trkpt>
      <trkpt lat="49.77117" lon="4.80177">
        <ele>296</ele>
        <time>2021-08-27T05:56:21.000Z</time>
      </trkpt>
      <trkpt lat="49.7712" lon="4.80177">
        <ele>296</ele>
        <time>2021-08-27T05:56:22.000Z</time>
      </trkpt>
      <trkpt lat="49.77123" lon="4.80175">
        <ele>296</ele>
        <time>2021-08-27T05:56:23.000Z</time>
      </trkpt>
      <trkpt lat="49.77127" lon="4.80173">
        <ele>296</ele>
        <time>2021-08-27T05:56:24.000Z</time>
      </trkpt>
      <trkpt lat="49.77131" lon="4.80173">
        <ele>296</ele>
        <time>2021-08-27T05:56:25.000Z</time>
      </trkpt>
      <trkpt lat="49.77136" lon="4.80172">
        <ele>296</ele>
        <time>2021-08-27T05:56:26.000Z</time>
      </trkpt>
      <trkpt lat="49.77139" lon="4.80171">
        <ele>296</ele>
        <time>2021-08-27T05:56:27.000Z</time>
      </trkpt>
      <trkpt lat="49.77143" lon="4.8017">
        <ele>296</ele>
        <time>2021-08-27T05:56:28.000Z</time>
      </trkpt>
      <trkpt lat="49.77147" lon="4.80169">
        <ele>296</ele>
        <time>2021-08-27T05:56:29.000Z</time>
      </trkpt>
      <trkpt lat="49.77151" lon="4.80168">
        <ele>296</ele>
        <time>2021-08-27T05:56:30.000Z</time>
      </trkpt>
      <trkpt lat="49.77155" lon="4.80169">
        <ele>296</ele>
        <time>2021-08-27T05:56:31.000Z</time>
      </trkpt>
      <trkpt lat="49.77159" lon="4.8017">
        <ele>296</ele>
        <time>2021-08-27T05:56:32.000Z</time>
      </trkpt>
      <trkpt lat="49.77163" lon="4.8017">
        <ele>296</ele>
        <time>2021-08-27T05:56:33.000Z</time>
      </trkpt>
      <trkpt lat="49.77167" lon="4.80169">
        <ele>296</ele>
        <time>2021-08-27T05:56:34.000Z</time>
      </trkpt>
      <trkpt lat="49.77168" lon="4.80169">
        <ele>296</ele>
        <time>2021-08-27T05:56:35.000Z</time>
      </trkpt>
      <trkpt lat="49.77168" lon="4.8017">
        <ele>296</ele>
        <time>2021-08-27T05:56:36.000Z</time>
      </trkpt>
      <trkpt lat="49.77169" lon="4.8017">
        <ele>296</ele>
        <time>2021-08-27T05:56:37.000Z</time>
      </trkpt>
      <trkpt lat="49.77169" lon="4.8017">
        <ele>296</ele>
        <time>2021-08-27T05:56:38.000Z</time>
      </trkpt>
      <trkpt lat="49.77169" lon="4.8017">
        <ele>296</ele>
        <time>2021-08-27T05:56:39.000Z</time>
      </trkpt>
      <trkpt lat="49.7717" lon="4.8017">
        <ele>296</ele>
        <time>2021-08-27T05:56:40.000Z</time>
      </trkpt>
      <trkpt lat="49.7717" lon="4.8017">
        <ele>296</ele>
        <time>2021-08-27T05:56:41.000Z</time>
      </trkpt>
      <trkpt lat="49.7717" lon="4.8017">
        <ele>296</ele>
        <time>2021-08-27T05:56:42.000Z</time>
      </trkpt>
      <trkpt lat="49.77171" lon="4.8017">
        <ele>296</ele>
        <time>2021-08-27T05:56:43.000Z</time>
      </trkpt>
      <trkpt lat="49.77171" lon="4.8017">
        <ele>296</ele>
        <time>2021-08-27T05:56:44.000Z</time>
      </trkpt>
      <trkpt lat="49.77171" lon="4.8017">
        <ele>297</ele>
        <time>2021-08-27T05:56:45.000Z</time>
      </trkpt>
      <trkpt lat="49.77171" lon="4.8017">
        <ele>297</ele>
        <time>2021-08-27T05:56:46.000Z</time>
      </trkpt>
      <trkpt lat="49.77171" lon="4.8017">
        <ele>297</ele>
        <time>2021-08-27T05:56:47.000Z</time>
      </trkpt>
      <trkpt lat="49.77171" lon="4.8017">
        <ele>297</ele>
        <time>2021-08-27T05:56:48.000Z</time>
      </trkpt>
      <trkpt lat="49.77171" lon="4.80169">
        <ele>298</ele>
        <time>2021-08-27T05:56:49.000Z</time>
      </trkpt>
      <trkpt lat="49.77171" lon="4.80169">
        <ele>298</ele>
        <time>2021-08-27T05:56:50.000Z</time>
      </trkpt>
      <trkpt lat="49.77171" lon="4.80169">
        <ele>298</ele>
        <time>2021-08-27T05:56:51.000Z</time>
      </trkpt>
      <trkpt lat="49.77171" lon="4.80169">
        <ele>298</ele>
        <time>2021-08-27T05:56:52.000Z</time>
      </trkpt>
      <trkpt lat="49.77171" lon="4.80169">
        <ele>298</ele>
        <time>2021-08-27T05:56:53.000Z</time>
      </trkpt>
      <trkpt lat="49.77171" lon="4.80169">
        <ele>298</ele>
        <time>2021-08-27T05:56:54.000Z</time>
      </trkpt>
      <trkpt lat="49.77171" lon="4.80169">
        <ele>298</ele>
        <time>2021-08-27T05:56:55.000Z</time>
      </trkpt>
      <trkpt lat="49.77171" lon="4.80169">
        <ele>298</ele>
        <time>2021-08-27T05:56:56.000Z</time>
      </trkpt>
      <trkpt lat="49.77171" lon="4.80169">
        <ele>299</ele>
        <time>2021-08-27T05:56:57.000Z</time>
      </trkpt>
      <trkpt lat="49.77171" lon="4.80169">
        <ele>299</ele>
        <time>2021-08-27T05:56:58.000Z</time>
      </trkpt>
      <trkpt lat="49.77171" lon="4.80169">
        <ele>299</ele>
        <time>2021-08-27T05:56:59.000Z</time>
      </trkpt>
      <trkpt lat="49.77171" lon="4.80169">
        <ele>299</ele>
        <time>2021-08-27T05:57:00.000Z</time>
      </trkpt>
      <trkpt lat="49.77171" lon="4.80169">
        <ele>299</ele>
        <time>2021-08-27T05:57:01.000Z</time>
      </trkpt>
      <trkpt lat="49.77171" lon="4.80169">
        <ele>299</ele>
        <time>2021-08-27T05:57:02.000Z</time>
      </trkpt>
      <trkpt lat="49.77171" lon="4.80169">
        <ele>299</ele>
        <time>2021-08-27T05:57:03.000Z</time>
      </trkpt>
      <trkpt lat="49.77171" lon="4.80169">
        <ele>299</ele>
        <time>2021-08-27T05:57:04.000Z</time>
      </trkpt>
      <trkpt lat="49.77171" lon="4.80168">
        <ele>299</ele>
        <time>2021-08-27T05:57:05.000Z</time>
      </trkpt>
      <trkpt lat="49.77171" lon="4.80168">
        <ele>299</ele>
        <time>2021-08-27T05:57:06.000Z</time>
      </trkpt>
      <trkpt lat="49.77172" lon="4.80168">
        <ele>299</ele>
        <time>2021-08-27T05:57:07.000Z</time>
      </trkpt>
      <trkpt lat="49.77174" lon="4.80169">
        <ele>299</ele>
        <time>2021-08-27T05:57:08.000Z</time>
      </trkpt>
      <trkpt lat="49.77176" lon="4.80169">
        <ele>299</ele>
        <time>2021-08-27T05:57:09.000Z</time>
      </trkpt>
      <trkpt lat="49.77179" lon="4.80168">
        <ele>299</ele>
        <time>2021-08-27T05:57:10.000Z</time>
      </trkpt>
      <trkpt lat="49.77182" lon="4.80168">
        <ele>299</ele>
        <time>2021-08-27T05:57:11.000Z</time>
      </trkpt>
      <trkpt lat="49.77186" lon="4.80167">
        <ele>299</ele>
        <time>2021-08-27T05:57:12.000Z</time>
      </trkpt>
      <trkpt lat="49.77189" lon="4.80167">
        <ele>299</ele>
        <time>2021-08-27T05:57:13.000Z</time>
      </trkpt>
      <trkpt lat="49.77193" lon="4.80167">
        <ele>299</ele>
        <time>2021-08-27T05:57:14.000Z</time>
      </trkpt>
      <trkpt lat="49.77197" lon="4.80166">
        <ele>299</ele>
        <time>2021-08-27T05:57:15.000Z</time>
      </trkpt>
      <trkpt lat="49.77201" lon="4.80166">
        <ele>299</ele>
        <time>2021-08-27T05:57:16.000Z</time>
      </trkpt>
      <trkpt lat="49.77206" lon="4.80165">
        <ele>298</ele>
        <time>2021-08-27T05:57:17.000Z</time>
      </trkpt>
      <trkpt lat="49.7721" lon="4.80164">
        <ele>298</ele>
        <time>2021-08-27T05:57:18.000Z</time>
      </trkpt>
      <trkpt lat="49.77215" lon="4.80164">
        <ele>298</ele>
        <time>2021-08-27T05:57:19.000Z</time>
      </trkpt>
      <trkpt lat="49.77221" lon="4.80163">
        <ele>298</ele>
        <time>2021-08-27T05:57:20.000Z</time>
      </trkpt>
      <trkpt lat="49.77226" lon="4.80162">
        <ele>298</ele>
        <time>2021-08-27T05:57:21.000Z</time>
      </trkpt>
      <trkpt lat="49.77232" lon="4.80162">
        <ele>297</ele>
        <time>2021-08-27T05:57:22.000Z</time>
      </trkpt>
      <trkpt lat="49.77237" lon="4.80161">
        <ele>297</ele>
        <time>2021-08-27T05:57:23.000Z</time>
      </trkpt>
      <trkpt lat="49.77242" lon="4.8016">
        <ele>297</ele>
        <time>2021-08-27T05:57:24.000Z</time>
      </trkpt>
      <trkpt lat="49.77248" lon="4.8016">
        <ele>297</ele>
        <time>2021-08-27T05:57:25.000Z</time>
      </trkpt>
      <trkpt lat="49.77253" lon="4.80159">
        <ele>296</ele>
        <time>2021-08-27T05:57:26.000Z</time>
      </trkpt>
      <trkpt lat="49.77254" lon="4.80158">
        <ele>296</ele>
        <time>2021-08-27T05:57:27.000Z</time>
      </trkpt>
      <trkpt lat="49.77254" lon="4.80158">
        <ele>296</ele>
        <time>2021-08-27T05:57:28.000Z</time>
      </trkpt>
      <trkpt lat="49.77254" lon="4.80158">
        <ele>296</ele>
        <time>2021-08-27T05:57:29.000Z</time>
      </trkpt>
      <trkpt lat="49.77255" lon="4.80158">
        <ele>296</ele>
        <time>2021-08-27T05:57:30.000Z</time>
      </trkpt>
      <trkpt lat="49.77257" lon="4.80158">
        <ele>296</ele>
        <time>2021-08-27T05:57:31.000Z</time>
      </trkpt>
      <trkpt lat="49.7726" lon="4.80158">
        <ele>296</ele>
        <time>2021-08-27T05:57:32.000Z</time>
      </trkpt>
      <trkpt lat="49.77264" lon="4.80157">
        <ele>295</ele>
        <time>2021-08-27T05:57:33.000Z</time>
      </trkpt>
      <trkpt lat="49.77268" lon="4.80156">
        <ele>295</ele>
        <time>2021-08-27T05:57:34.000Z</time>
      </trkpt>
      <trkpt lat="49.77272" lon="4.80156">
        <ele>295</ele>
        <time>2021-08-27T05:57:35.000Z</time>
      </trkpt>
      <trkpt lat="49.77276" lon="4.80155">
        <ele>295</ele>
        <time>2021-08-27T05:57:36.000Z</time>
      </trkpt>
      <trkpt lat="49.77281" lon="4.80154">
        <ele>294</ele>
        <time>2021-08-27T05:57:37.000Z</time>
      </trkpt>
      <trkpt lat="49.77285" lon="4.80153">
        <ele>294</ele>
        <time>2021-08-27T05:57:38.000Z</time>
      </trkpt>
      <trkpt lat="49.7729" lon="4.80152">
        <ele>294</ele>
        <time>2021-08-27T05:57:39.000Z</time>
      </trkpt>
      <trkpt lat="49.77295" lon="4.80151">
        <ele>294</ele>
        <time>2021-08-27T05:57:40.000Z</time>
      </trkpt>
      <trkpt lat="49.77301" lon="4.8015">
        <ele>293</ele>
        <time>2021-08-27T05:57:41.000Z</time>
      </trkpt>
      <trkpt lat="49.77306" lon="4.80149">
        <ele>293</ele>
        <time>2021-08-27T05:57:42.000Z</time>
      </trkpt>
      <trkpt lat="49.77311" lon="4.80148">
        <ele>293</ele>
        <time>2021-08-27T05:57:43.000Z</time>
      </trkpt>
      <trkpt lat="49.77317" lon="4.80146">
        <ele>292</ele>
        <time>2021-08-27T05:57:44.000Z</time>
      </trkpt>
      <trkpt lat="49.77321" lon="4.80145">
        <ele>292</ele>
        <time>2021-08-27T05:57:45.000Z</time>
      </trkpt>
      <trkpt lat="49.77326" lon="4.80143">
        <ele>292</ele>
        <time>2021-08-27T05:57:46.000Z</time>
      </trkpt>
      <trkpt lat="49.77331" lon="4.80141">
        <ele>292</ele>
        <time>2021-08-27T05:57:47.000Z</time>
      </trkpt>
      <trkpt lat="49.77336" lon="4.80139">
        <ele>292</ele>
        <time>2021-08-27T05:57:48.000Z</time>
      </trkpt>
      <trkpt lat="49.7734" lon="4.80136">
        <ele>292</ele>
        <time>2021-08-27T05:57:49.000Z</time>
      </trkpt>
      <trkpt lat="49.77345" lon="4.80132">
        <ele>291</ele>
        <time>2021-08-27T05:57:50.000Z</time>
      </trkpt>
      <trkpt lat="49.7735" lon="4.80129">
        <ele>291</ele>
        <time>2021-08-27T05:57:51.000Z</time>
      </trkpt>
      <trkpt lat="49.77355" lon="4.80125">
        <ele>291</ele>
        <time>2021-08-27T05:57:52.000Z</time>
      </trkpt>
      <trkpt lat="49.77359" lon="4.8012">
        <ele>291</ele>
        <time>2021-08-27T05:57:53.000Z</time>
      </trkpt>
      <trkpt lat="49.77363" lon="4.80116">
        <ele>291</ele>
        <time>2021-08-27T05:57:54.000Z</time>
      </trkpt>
      <trkpt lat="49.77367" lon="4.80111">
        <ele>291</ele>
        <time>2021-08-27T05:57:55.000Z</time>
      </trkpt>
      <trkpt lat="49.77371" lon="4.80105">
        <ele>291</ele>
        <time>2021-08-27T05:57:56.000Z</time>
      </trkpt>
      <trkpt lat="49.77375" lon="4.80099">
        <ele>290</ele>
        <time>2021-08-27T05:57:57.000Z</time>
      </trkpt>
      <trkpt lat="49.7738" lon="4.80092">
        <ele>290</ele>
        <time>2021-08-27T05:57:58.000Z</time>
      </trkpt>
      <trkpt lat="49.77384" lon="4.80084">
        <ele>290</ele>
        <time>2021-08-27T05:57:59.000Z</time>
      </trkpt>
      <trkpt lat="49.77388" lon="4.80076">
        <ele>289</ele>
        <time>2021-08-27T05:58:00.000Z</time>
      </trkpt>
      <trkpt lat="49.77392" lon="4.80068">
        <ele>289</ele>
        <time>2021-08-27T05:58:01.000Z</time>
      </trkpt>
      <trkpt lat="49.77397" lon="4.80059">
        <ele>289</ele>
        <time>2021-08-27T05:58:02.000Z</time>
      </trkpt>
      <trkpt lat="49.77401" lon="4.80051">
        <ele>289</ele>
        <time>2021-08-27T05:58:03.000Z</time>
      </trkpt>
      <trkpt lat="49.77407" lon="4.80044">
        <ele>288</ele>
        <time>2021-08-27T05:58:04.000Z</time>
      </trkpt>
      <trkpt lat="49.77414" lon="4.80041">
        <ele>288</ele>
        <time>2021-08-27T05:58:05.000Z</time>
      </trkpt>
      <trkpt lat="49.77422" lon="4.8004">
        <ele>287</ele>
        <time>2021-08-27T05:58:06.000Z</time>
      </trkpt>
      <trkpt lat="49.7743" lon="4.80041">
        <ele>287</ele>
        <time>2021-08-27T05:58:07.000Z</time>
      </trkpt>
      <trkpt lat="49.77438" lon="4.80042">
        <ele>286</ele>
        <time>2021-08-27T05:58:08.000Z</time>
      </trkpt>
      <trkpt lat="49.77445" lon="4.80041">
        <ele>286</ele>
        <time>2021-08-27T05:58:09.000Z</time>
      </trkpt>
      <trkpt lat="49.77452" lon="4.80039">
        <ele>285</ele>
        <time>2021-08-27T05:58:10.000Z</time>
      </trkpt>
      <trkpt lat="49.77458" lon="4.80037">
        <ele>285</ele>
        <time>2021-08-27T05:58:11.000Z</time>
      </trkpt>
      <trkpt lat="49.77465" lon="4.80033">
        <ele>284</ele>
        <time>2021-08-27T05:58:12.000Z</time>
      </trkpt>
      <trkpt lat="49.77471" lon="4.80028">
        <ele>283</ele>
        <time>2021-08-27T05:58:13.000Z</time>
      </trkpt>
      <trkpt lat="49.77477" lon="4.80023">
        <ele>282</ele>
        <time>2021-08-27T05:58:14.000Z</time>
      </trkpt>
      <trkpt lat="49.77483" lon="4.80018">
        <ele>281</ele>
        <time>2021-08-27T05:58:15.000Z</time>
      </trkpt>
      <trkpt lat="49.77489" lon="4.80013">
        <ele>280</ele>
        <time>2021-08-27T05:58:16.000Z</time>
      </trkpt>
      <trkpt lat="49.77495" lon="4.80008">
        <ele>279</ele>
        <time>2021-08-27T05:58:17.000Z</time>
      </trkpt>
      <trkpt lat="49.77501" lon="4.80003">
        <ele>278</ele>
        <time>2021-08-27T05:58:18.000Z</time>
      </trkpt>
      <trkpt lat="49.77508" lon="4.79999">
        <ele>277</ele>
        <time>2021-08-27T05:58:19.000Z</time>
      </trkpt>
      <trkpt lat="49.77516" lon="4.79996">
        <ele>276</ele>
        <time>2021-08-27T05:58:20.000Z</time>
      </trkpt>
      <trkpt lat="49.77523" lon="4.79993">
        <ele>274</ele>
        <time>2021-08-27T05:58:21.000Z</time>
      </trkpt>
      <trkpt lat="49.77531" lon="4.79992">
        <ele>273</ele>
        <time>2021-08-27T05:58:22.000Z</time>
      </trkpt>
      <trkpt lat="49.77538" lon="4.79991">
        <ele>272</ele>
        <time>2021-08-27T05:58:23.000Z</time>
      </trkpt>
      <trkpt lat="49.77545" lon="4.79989">
        <ele>271</ele>
        <time>2021-08-27T05:58:24.000Z</time>
      </trkpt>
      <trkpt lat="49.77552" lon="4.79988">
        <ele>270</ele>
        <time>2021-08-27T05:58:25.000Z</time>
      </trkpt>
      <trkpt lat="49.7756" lon="4.79986">
        <ele>269</ele>
        <time>2021-08-27T05:58:26.000Z</time>
      </trkpt>
      <trkpt lat="49.77567" lon="4.79985">
        <ele>268</ele>
        <time>2021-08-27T05:58:27.000Z</time>
      </trkpt>
      <trkpt lat="49.77575" lon="4.79983">
        <ele>267</ele>
        <time>2021-08-27T05:58:28.000Z</time>
      </trkpt>
      <trkpt lat="49.77582" lon="4.79982">
        <ele>266</ele>
        <time>2021-08-27T05:58:29.000Z</time>
      </trkpt>
      <trkpt lat="49.7759" lon="4.79982">
        <ele>265</ele>
        <time>2021-08-27T05:58:30.000Z</time>
      </trkpt>
      <trkpt lat="49.77597" lon="4.79981">
        <ele>265</ele>
        <time>2021-08-27T05:58:31.000Z</time>
      </trkpt>
      <trkpt lat="49.77604" lon="4.7998">
        <ele>264</ele>
        <time>2021-08-27T05:58:32.000Z</time>
      </trkpt>
      <trkpt lat="49.77611" lon="4.79979">
        <ele>264</ele>
        <time>2021-08-27T05:58:33.000Z</time>
      </trkpt>
      <trkpt lat="49.77618" lon="4.79978">
        <ele>263</ele>
        <time>2021-08-27T05:58:34.000Z</time>
      </trkpt>
      <trkpt lat="49.77625" lon="4.79976">
        <ele>263</ele>
        <time>2021-08-27T05:58:35.000Z</time>
      </trkpt>
      <trkpt lat="49.77631" lon="4.79974">
        <ele>262</ele>
        <time>2021-08-27T05:58:36.000Z</time>
      </trkpt>
      <trkpt lat="49.77637" lon="4.79971">
        <ele>262</ele>
        <time>2021-08-27T05:58:37.000Z</time>
      </trkpt>
      <trkpt lat="49.77642" lon="4.79968">
        <ele>262</ele>
        <time>2021-08-27T05:58:38.000Z</time>
      </trkpt>
      <trkpt lat="49.77647" lon="4.79965">
        <ele>262</ele>
        <time>2021-08-27T05:58:39.000Z</time>
      </trkpt>
      <trkpt lat="49.77652" lon="4.79962">
        <ele>261</ele>
        <time>2021-08-27T05:58:40.000Z</time>
      </trkpt>
      <trkpt lat="49.77656" lon="4.79958">
        <ele>261</ele>
        <time>2021-08-27T05:58:41.000Z</time>
      </trkpt>
      <trkpt lat="49.77661" lon="4.79955">
        <ele>261</ele>
        <time>2021-08-27T05:58:42.000Z</time>
      </trkpt>
      <trkpt lat="49.77665" lon="4.79951">
        <ele>261</ele>
        <time>2021-08-27T05:58:43.000Z</time>
      </trkpt>
      <trkpt lat="49.7767" lon="4.79946">
        <ele>260</ele>
        <time>2021-08-27T05:58:44.000Z</time>
      </trkpt>
      <trkpt lat="49.77674" lon="4.79941">
        <ele>260</ele>
        <time>2021-08-27T05:58:45.000Z</time>
      </trkpt>
      <trkpt lat="49.77679" lon="4.79936">
        <ele>260</ele>
        <time>2021-08-27T05:58:46.000Z</time>
      </trkpt>
      <trkpt lat="49.77683" lon="4.79931">
        <ele>259</ele>
        <time>2021-08-27T05:58:47.000Z</time>
      </trkpt>
      <trkpt lat="49.77688" lon="4.79925">
        <ele>259</ele>
        <time>2021-08-27T05:58:48.000Z</time>
      </trkpt>
      <trkpt lat="49.77693" lon="4.79919">
        <ele>259</ele>
        <time>2021-08-27T05:58:49.000Z</time>
      </trkpt>
      <trkpt lat="49.77698" lon="4.79913">
        <ele>259</ele>
        <time>2021-08-27T05:58:50.000Z</time>
      </trkpt>
      <trkpt lat="49.77703" lon="4.79907">
        <ele>258</ele>
        <time>2021-08-27T05:58:51.000Z</time>
      </trkpt>
      <trkpt lat="49.77709" lon="4.79901">
        <ele>258</ele>
        <time>2021-08-27T05:58:52.000Z</time>
      </trkpt>
      <trkpt lat="49.77714" lon="4.79895">
        <ele>258</ele>
        <time>2021-08-27T05:58:53.000Z</time>
      </trkpt>
      <trkpt lat="49.7772" lon="4.7989">
        <ele>258</ele>
        <time>2021-08-27T05:58:54.000Z</time>
      </trkpt>
      <trkpt lat="49.77725" lon="4.79886">
        <ele>258</ele>
        <time>2021-08-27T05:58:55.000Z</time>
      </trkpt>
      <trkpt lat="49.7773" lon="4.79882">
        <ele>257</ele>
        <time>2021-08-27T05:58:56.000Z</time>
      </trkpt>
      <trkpt lat="49.77735" lon="4.79878">
        <ele>257</ele>
        <time>2021-08-27T05:58:57.000Z</time>
      </trkpt>
      <trkpt lat="49.7774" lon="4.79874">
        <ele>257</ele>
        <time>2021-08-27T05:58:58.000Z</time>
      </trkpt>
      <trkpt lat="49.77745" lon="4.7987">
        <ele>257</ele>
        <time>2021-08-27T05:58:59.000Z</time>
      </trkpt>
      <trkpt lat="49.7775" lon="4.79866">
        <ele>257</ele>
        <time>2021-08-27T05:59:00.000Z</time>
      </trkpt>
      <trkpt lat="49.77755" lon="4.79862">
        <ele>257</ele>
        <time>2021-08-27T05:59:01.000Z</time>
      </trkpt>
      <trkpt lat="49.7776" lon="4.79857">
        <ele>257</ele>
        <time>2021-08-27T05:59:02.000Z</time>
      </trkpt>
      <trkpt lat="49.77765" lon="4.79853">
        <ele>257</ele>
        <time>2021-08-27T05:59:03.000Z</time>
      </trkpt>
      <trkpt lat="49.7777" lon="4.79848">
        <ele>257</ele>
        <time>2021-08-27T05:59:04.000Z</time>
      </trkpt>
      <trkpt lat="49.77775" lon="4.79843">
        <ele>256</ele>
        <time>2021-08-27T05:59:05.000Z</time>
      </trkpt>
      <trkpt lat="49.7778" lon="4.79838">
        <ele>256</ele>
        <time>2021-08-27T05:59:06.000Z</time>
      </trkpt>
      <trkpt lat="49.77785" lon="4.79833">
        <ele>256</ele>
        <time>2021-08-27T05:59:07.000Z</time>
      </trkpt>
      <trkpt lat="49.77789" lon="4.79828">
        <ele>256</ele>
        <time>2021-08-27T05:59:08.000Z</time>
      </trkpt>
      <trkpt lat="49.77793" lon="4.79823">
        <ele>256</ele>
        <time>2021-08-27T05:59:09.000Z</time>
      </trkpt>
      <trkpt lat="49.77797" lon="4.79819">
        <ele>256</ele>
        <time>2021-08-27T05:59:10.000Z</time>
      </trkpt>
      <trkpt lat="49.77801" lon="4.79815">
        <ele>256</ele>
        <time>2021-08-27T05:59:11.000Z</time>
      </trkpt>
      <trkpt lat="49.77806" lon="4.79812">
        <ele>256</ele>
        <time>2021-08-27T05:59:12.000Z</time>
      </trkpt>
      <trkpt lat="49.77811" lon="4.79809">
        <ele>256</ele>
        <time>2021-08-27T05:59:13.000Z</time>
      </trkpt>
      <trkpt lat="49.77816" lon="4.79807">
        <ele>256</ele>
        <time>2021-08-27T05:59:14.000Z</time>
      </trkpt>
      <trkpt lat="49.77821" lon="4.79804">
        <ele>256</ele>
        <time>2021-08-27T05:59:15.000Z</time>
      </trkpt>
      <trkpt lat="49.77826" lon="4.79802">
        <ele>257</ele>
        <time>2021-08-27T05:59:16.000Z</time>
      </trkpt>
      <trkpt lat="49.77831" lon="4.798">
        <ele>256</ele>
        <time>2021-08-27T05:59:17.000Z</time>
      </trkpt>
      <trkpt lat="49.77835" lon="4.79797">
        <ele>256</ele>
        <time>2021-08-27T05:59:18.000Z</time>
      </trkpt>
      <trkpt lat="49.77839" lon="4.79794">
        <ele>256</ele>
        <time>2021-08-27T05:59:19.000Z</time>
      </trkpt>
      <trkpt lat="49.77843" lon="4.7979">
        <ele>256</ele>
        <time>2021-08-27T05:59:20.000Z</time>
      </trkpt>
      <trkpt lat="49.77849" lon="4.79785">
        <ele>256</ele>
        <time>2021-08-27T05:59:21.000Z</time>
      </trkpt>
      <trkpt lat="49.77854" lon="4.79781">
        <ele>256</ele>
        <time>2021-08-27T05:59:22.000Z</time>
      </trkpt>
      <trkpt lat="49.7786" lon="4.79776">
        <ele>256</ele>
        <time>2021-08-27T05:59:23.000Z</time>
      </trkpt>
      <trkpt lat="49.77866" lon="4.79771">
        <ele>256</ele>
        <time>2021-08-27T05:59:24.000Z</time>
      </trkpt>
      <trkpt lat="49.77873" lon="4.79767">
        <ele>256</ele>
        <time>2021-08-27T05:59:25.000Z</time>
      </trkpt>
      <trkpt lat="49.77879" lon="4.79762">
        <ele>256</ele>
        <time>2021-08-27T05:59:26.000Z</time>
      </trkpt>
      <trkpt lat="49.77885" lon="4.79756">
        <ele>255</ele>
        <time>2021-08-27T05:59:27.000Z</time>
      </trkpt>
      <trkpt lat="49.77891" lon="4.79751">
        <ele>255</ele>
        <time>2021-08-27T05:59:28.000Z</time>
      </trkpt>
      <trkpt lat="49.77898" lon="4.79746">
        <ele>255</ele>
        <time>2021-08-27T05:59:29.000Z</time>
      </trkpt>
      <trkpt lat="49.77905" lon="4.79742">
        <ele>255</ele>
        <time>2021-08-27T05:59:30.000Z</time>
      </trkpt>
      <trkpt lat="49.77912" lon="4.79737">
        <ele>255</ele>
        <time>2021-08-27T05:59:31.000Z</time>
      </trkpt>
      <trkpt lat="49.77919" lon="4.79734">
        <ele>255</ele>
        <time>2021-08-27T05:59:32.000Z</time>
      </trkpt>
      <trkpt lat="49.77927" lon="4.79731">
        <ele>255</ele>
        <time>2021-08-27T05:59:33.000Z</time>
      </trkpt>
      <trkpt lat="49.77936" lon="4.79728">
        <ele>255</ele>
        <time>2021-08-27T05:59:34.000Z</time>
      </trkpt>
      <trkpt lat="49.77944" lon="4.79726">
        <ele>255</ele>
        <time>2021-08-27T05:59:35.000Z</time>
      </trkpt>
      <trkpt lat="49.77951" lon="4.79725">
        <ele>254</ele>
        <time>2021-08-27T05:59:36.000Z</time>
      </trkpt>
      <trkpt lat="49.77958" lon="4.79724">
        <ele>254</ele>
        <time>2021-08-27T05:59:37.000Z</time>
      </trkpt>
      <trkpt lat="49.77964" lon="4.79725">
        <ele>254</ele>
        <time>2021-08-27T05:59:38.000Z</time>
      </trkpt>
      <trkpt lat="49.7797" lon="4.79729">
        <ele>253</ele>
        <time>2021-08-27T05:59:39.000Z</time>
      </trkpt>
      <trkpt lat="49.77974" lon="4.79736">
        <ele>253</ele>
        <time>2021-08-27T05:59:40.000Z</time>
      </trkpt>
      <trkpt lat="49.77976" lon="4.79744">
        <ele>253</ele>
        <time>2021-08-27T05:59:41.000Z</time>
      </trkpt>
      <trkpt lat="49.77978" lon="4.79753">
        <ele>253</ele>
        <time>2021-08-27T05:59:42.000Z</time>
      </trkpt>
      <trkpt lat="49.7798" lon="4.7976">
        <ele>253</ele>
        <time>2021-08-27T05:59:43.000Z</time>
      </trkpt>
      <trkpt lat="49.77984" lon="4.79766">
        <ele>253</ele>
        <time>2021-08-27T05:59:44.000Z</time>
      </trkpt>
      <trkpt lat="49.77989" lon="4.79771">
        <ele>253</ele>
        <time>2021-08-27T05:59:45.000Z</time>
      </trkpt>
      <trkpt lat="49.77994" lon="4.79775">
        <ele>253</ele>
        <time>2021-08-27T05:59:46.000Z</time>
      </trkpt>
      <trkpt lat="49.77999" lon="4.79777">
        <ele>253</ele>
        <time>2021-08-27T05:59:47.000Z</time>
      </trkpt>
      <trkpt lat="49.78005" lon="4.79779">
        <ele>253</ele>
        <time>2021-08-27T05:59:48.000Z</time>
      </trkpt>
      <trkpt lat="49.78011" lon="4.7978">
        <ele>253</ele>
        <time>2021-08-27T05:59:49.000Z</time>
      </trkpt>
      <trkpt lat="49.78016" lon="4.79781">
        <ele>254</ele>
        <time>2021-08-27T05:59:50.000Z</time>
      </trkpt>
      <trkpt lat="49.78022" lon="4.79782">
        <ele>254</ele>
        <time>2021-08-27T05:59:51.000Z</time>
      </trkpt>
      <trkpt lat="49.78027" lon="4.79782">
        <ele>254</ele>
        <time>2021-08-27T05:59:52.000Z</time>
      </trkpt>
      <trkpt lat="49.78033" lon="4.79782">
        <ele>254</ele>
        <time>2021-08-27T05:59:53.000Z</time>
      </trkpt>
      <trkpt lat="49.78038" lon="4.79782">
        <ele>254</ele>
        <time>2021-08-27T05:59:54.000Z</time>
      </trkpt>
      <trkpt lat="49.78043" lon="4.79781">
        <ele>254</ele>
        <time>2021-08-27T05:59:55.000Z</time>
      </trkpt>
      <trkpt lat="49.78048" lon="4.79781">
        <ele>254</ele>
        <time>2021-08-27T05:59:56.000Z</time>
      </trkpt>
      <trkpt lat="49.78053" lon="4.7978">
        <ele>254</ele>
        <time>2021-08-27T05:59:57.000Z</time>
      </trkpt>
      <trkpt lat="49.78058" lon="4.79779">
        <ele>254</ele>
        <time>2021-08-27T05:59:58.000Z</time>
      </trkpt>
      <trkpt lat="49.78063" lon="4.79777">
        <ele>254</ele>
        <time>2021-08-27T05:59:59.000Z</time>
      </trkpt>
      <trkpt lat="49.78068" lon="4.79775">
        <ele>254</ele>
        <time>2021-08-27T06:00:00.000Z</time>
      </trkpt>
      <trkpt lat="49.78073" lon="4.79771">
        <ele>254</ele>
        <time>2021-08-27T06:00:01.000Z</time>
      </trkpt>
      <trkpt lat="49.78078" lon="4.79767">
        <ele>254</ele>
        <time>2021-08-27T06:00:02.000Z</time>
      </trkpt>
      <trkpt lat="49.78082" lon="4.79763">
        <ele>254</ele>
        <time>2021-08-27T06:00:03.000Z</time>
      </trkpt>
      <trkpt lat="49.78086" lon="4.79759">
        <ele>254</ele>
        <time>2021-08-27T06:00:04.000Z</time>
      </trkpt>
      <trkpt lat="49.78089" lon="4.79753">
        <ele>253</ele>
        <time>2021-08-27T06:00:05.000Z</time>
      </trkpt>
      <trkpt lat="49.78092" lon="4.79746">
        <ele>253</ele>
        <time>2021-08-27T06:00:06.000Z</time>
      </trkpt>
      <trkpt lat="49.78095" lon="4.79739">
        <ele>254</ele>
        <time>2021-08-27T06:00:07.000Z</time>
      </trkpt>
      <trkpt lat="49.781" lon="4.79733">
        <ele>254</ele>
        <time>2021-08-27T06:00:08.000Z</time>
      </trkpt>
      <trkpt lat="49.78103" lon="4.79727">
        <ele>254</ele>
        <time>2021-08-27T06:00:09.000Z</time>
      </trkpt>
      <trkpt lat="49.78106" lon="4.79722">
        <ele>254</ele>
        <time>2021-08-27T06:00:10.000Z</time>
      </trkpt>
      <trkpt lat="49.78109" lon="4.79716">
        <ele>254</ele>
        <time>2021-08-27T06:00:11.000Z</time>
      </trkpt>
      <trkpt lat="49.78111" lon="4.7971">
        <ele>255</ele>
        <time>2021-08-27T06:00:12.000Z</time>
      </trkpt>
      <trkpt lat="49.78115" lon="4.79705">
        <ele>255</ele>
        <time>2021-08-27T06:00:13.000Z</time>
      </trkpt>
      <trkpt lat="49.78119" lon="4.797">
        <ele>255</ele>
        <time>2021-08-27T06:00:14.000Z</time>
      </trkpt>
      <trkpt lat="49.78124" lon="4.79697">
        <ele>255</ele>
        <time>2021-08-27T06:00:15.000Z</time>
      </trkpt>
      <trkpt lat="49.78128" lon="4.79694">
        <ele>255</ele>
        <time>2021-08-27T06:00:16.000Z</time>
      </trkpt>
      <trkpt lat="49.78132" lon="4.79692">
        <ele>255</ele>
        <time>2021-08-27T06:00:17.000Z</time>
      </trkpt>
      <trkpt lat="49.78137" lon="4.79689">
        <ele>255</ele>
        <time>2021-08-27T06:00:18.000Z</time>
      </trkpt>
      <trkpt lat="49.78141" lon="4.79686">
        <ele>255</ele>
        <time>2021-08-27T06:00:19.000Z</time>
      </trkpt>
      <trkpt lat="49.78146" lon="4.79684">
        <ele>256</ele>
        <time>2021-08-27T06:00:20.000Z</time>
      </trkpt>
      <trkpt lat="49.7815" lon="4.79681">
        <ele>256</ele>
        <time>2021-08-27T06:00:21.000Z</time>
      </trkpt>
      <trkpt lat="49.78155" lon="4.79677">
        <ele>256</ele>
        <time>2021-08-27T06:00:22.000Z</time>
      </trkpt>
      <trkpt lat="49.7816" lon="4.79674">
        <ele>256</ele>
        <time>2021-08-27T06:00:23.000Z</time>
      </trkpt>
      <trkpt lat="49.78165" lon="4.7967">
        <ele>256</ele>
        <time>2021-08-27T06:00:24.000Z</time>
      </trkpt>
      <trkpt lat="49.78169" lon="4.79666">
        <ele>256</ele>
        <time>2021-08-27T06:00:25.000Z</time>
      </trkpt>
      <trkpt lat="49.78174" lon="4.79662">
        <ele>257</ele>
        <time>2021-08-27T06:00:26.000Z</time>
      </trkpt>
      <trkpt lat="49.78179" lon="4.79658">
        <ele>257</ele>
        <time>2021-08-27T06:00:27.000Z</time>
      </trkpt>
      <trkpt lat="49.78184" lon="4.79654">
        <ele>257</ele>
        <time>2021-08-27T06:00:28.000Z</time>
      </trkpt>
      <trkpt lat="49.78189" lon="4.7965">
        <ele>257</ele>
        <time>2021-08-27T06:00:29.000Z</time>
      </trkpt>
      <trkpt lat="49.78193" lon="4.79646">
        <ele>257</ele>
        <time>2021-08-27T06:00:30.000Z</time>
      </trkpt>
      <trkpt lat="49.78198" lon="4.79642">
        <ele>257</ele>
        <time>2021-08-27T06:00:31.000Z</time>
      </trkpt>
      <trkpt lat="49.78203" lon="4.79637">
        <ele>257</ele>
        <time>2021-08-27T06:00:32.000Z</time>
      </trkpt>
      <trkpt lat="49.78208" lon="4.79633">
        <ele>257</ele>
        <time>2021-08-27T06:00:33.000Z</time>
      </trkpt>
      <trkpt lat="49.78213" lon="4.79629">
        <ele>256</ele>
        <time>2021-08-27T06:00:34.000Z</time>
      </trkpt>
      <trkpt lat="49.78219" lon="4.79625">
        <ele>256</ele>
        <time>2021-08-27T06:00:35.000Z</time>
      </trkpt>
      <trkpt lat="49.78224" lon="4.79621">
        <ele>256</ele>
        <time>2021-08-27T06:00:36.000Z</time>
      </trkpt>
      <trkpt lat="49.7823" lon="4.79617">
        <ele>256</ele>
        <time>2021-08-27T06:00:37.000Z</time>
      </trkpt>
      <trkpt lat="49.78237" lon="4.79614">
        <ele>256</ele>
        <time>2021-08-27T06:00:38.000Z</time>
      </trkpt>
      <trkpt lat="49.78244" lon="4.79611">
        <ele>255</ele>
        <time>2021-08-27T06:00:39.000Z</time>
      </trkpt>
      <trkpt lat="49.78251" lon="4.79608">
        <ele>255</ele>
        <time>2021-08-27T06:00:40.000Z</time>
      </trkpt>
      <trkpt lat="49.78258" lon="4.79604">
        <ele>255</ele>
        <time>2021-08-27T06:00:41.000Z</time>
      </trkpt>
      <trkpt lat="49.78265" lon="4.79602">
        <ele>254</ele>
        <time>2021-08-27T06:00:42.000Z</time>
      </trkpt>
      <trkpt lat="49.78272" lon="4.796">
        <ele>254</ele>
        <time>2021-08-27T06:00:43.000Z</time>
      </trkpt>
      <trkpt lat="49.7828" lon="4.79599">
        <ele>254</ele>
        <time>2021-08-27T06:00:44.000Z</time>
      </trkpt>
      <trkpt lat="49.78287" lon="4.79597">
        <ele>253</ele>
        <time>2021-08-27T06:00:45.000Z</time>
      </trkpt>
      <trkpt lat="49.78294" lon="4.79595">
        <ele>253</ele>
        <time>2021-08-27T06:00:46.000Z</time>
      </trkpt>
      <trkpt lat="49.78302" lon="4.79595">
        <ele>253</ele>
        <time>2021-08-27T06:00:47.000Z</time>
      </trkpt>
      <trkpt lat="49.7831" lon="4.79597">
        <ele>252</ele>
        <time>2021-08-27T06:00:48.000Z</time>
      </trkpt>
      <trkpt lat="49.78316" lon="4.79601">
        <ele>252</ele>
        <time>2021-08-27T06:00:49.000Z</time>
      </trkpt>
      <trkpt lat="49.78323" lon="4.79605">
        <ele>252</ele>
        <time>2021-08-27T06:00:50.000Z</time>
      </trkpt>
      <trkpt lat="49.78329" lon="4.79609">
        <ele>252</ele>
        <time>2021-08-27T06:00:51.000Z</time>
      </trkpt>
      <trkpt lat="49.78335" lon="4.79612">
        <ele>252</ele>
        <time>2021-08-27T06:00:52.000Z</time>
      </trkpt>
      <trkpt lat="49.78341" lon="4.79616">
        <ele>252</ele>
        <time>2021-08-27T06:00:53.000Z</time>
      </trkpt>
      <trkpt lat="49.78347" lon="4.7962">
        <ele>252</ele>
        <time>2021-08-27T06:00:54.000Z</time>
      </trkpt>
      <trkpt lat="49.78352" lon="4.79623">
        <ele>252</ele>
        <time>2021-08-27T06:00:55.000Z</time>
      </trkpt>
      <trkpt lat="49.78358" lon="4.79627">
        <ele>252</ele>
        <time>2021-08-27T06:00:56.000Z</time>
      </trkpt>
      <trkpt lat="49.78363" lon="4.79631">
        <ele>252</ele>
        <time>2021-08-27T06:00:57.000Z</time>
      </trkpt>
      <trkpt lat="49.78369" lon="4.79634">
        <ele>252</ele>
        <time>2021-08-27T06:00:58.000Z</time>
      </trkpt>
      <trkpt lat="49.78374" lon="4.79637">
        <ele>252</ele>
        <time>2021-08-27T06:00:59.000Z</time>
      </trkpt>
      <trkpt lat="49.78379" lon="4.7964">
        <ele>252</ele>
        <time>2021-08-27T06:01:00.000Z</time>
      </trkpt>
      <trkpt lat="49.78384" lon="4.79643">
        <ele>252</ele>
        <time>2021-08-27T06:01:01.000Z</time>
      </trkpt>
      <trkpt lat="49.78389" lon="4.79646">
        <ele>252</ele>
        <time>2021-08-27T06:01:02.000Z</time>
      </trkpt>
      <trkpt lat="49.78393" lon="4.79648">
        <ele>252</ele>
        <time>2021-08-27T06:01:03.000Z</time>
      </trkpt>
      <trkpt lat="49.78398" lon="4.79649">
        <ele>252</ele>
        <time>2021-08-27T06:01:04.000Z</time>
      </trkpt>
      <trkpt lat="49.78402" lon="4.79651">
        <ele>252</ele>
        <time>2021-08-27T06:01:05.000Z</time>
      </trkpt>
      <trkpt lat="49.78407" lon="4.79654">
        <ele>253</ele>
        <time>2021-08-27T06:01:06.000Z</time>
      </trkpt>
      <trkpt lat="49.78411" lon="4.79656">
        <ele>253</ele>
        <time>2021-08-27T06:01:07.000Z</time>
      </trkpt>
      <trkpt lat="49.78416" lon="4.79658">
        <ele>253</ele>
        <time>2021-08-27T06:01:08.000Z</time>
      </trkpt>
      <trkpt lat="49.7842" lon="4.7966">
        <ele>253</ele>
        <time>2021-08-27T06:01:09.000Z</time>
      </trkpt>
      <trkpt lat="49.78425" lon="4.79662">
        <ele>253</ele>
        <time>2021-08-27T06:01:10.000Z</time>
      </trkpt>
      <trkpt lat="49.78429" lon="4.79663">
        <ele>253</ele>
        <time>2021-08-27T06:01:11.000Z</time>
      </trkpt>
      <trkpt lat="49.78433" lon="4.79665">
        <ele>253</ele>
        <time>2021-08-27T06:01:12.000Z</time>
      </trkpt>
      <trkpt lat="49.78437" lon="4.79667">
        <ele>253</ele>
        <time>2021-08-27T06:01:13.000Z</time>
      </trkpt>
      <trkpt lat="49.78442" lon="4.79669">
        <ele>253</ele>
        <time>2021-08-27T06:01:14.000Z</time>
      </trkpt>
      <trkpt lat="49.78446" lon="4.79671">
        <ele>253</ele>
        <time>2021-08-27T06:01:15.000Z</time>
      </trkpt>
      <trkpt lat="49.7845" lon="4.79672">
        <ele>254</ele>
        <time>2021-08-27T06:01:16.000Z</time>
      </trkpt>
      <trkpt lat="49.78455" lon="4.79674">
        <ele>254</ele>
        <time>2021-08-27T06:01:17.000Z</time>
      </trkpt>
      <trkpt lat="49.78459" lon="4.79676">
        <ele>254</ele>
        <time>2021-08-27T06:01:18.000Z</time>
      </trkpt>
      <trkpt lat="49.78463" lon="4.79677">
        <ele>254</ele>
        <time>2021-08-27T06:01:19.000Z</time>
      </trkpt>
      <trkpt lat="49.78467" lon="4.79678">
        <ele>254</ele>
        <time>2021-08-27T06:01:20.000Z</time>
      </trkpt>
      <trkpt lat="49.78472" lon="4.7968">
        <ele>254</ele>
        <time>2021-08-27T06:01:21.000Z</time>
      </trkpt>
      <trkpt lat="49.78476" lon="4.79682">
        <ele>254</ele>
        <time>2021-08-27T06:01:22.000Z</time>
      </trkpt>
      <trkpt lat="49.7848" lon="4.79683">
        <ele>255</ele>
        <time>2021-08-27T06:01:23.000Z</time>
      </trkpt>
      <trkpt lat="49.78484" lon="4.79685">
        <ele>255</ele>
        <time>2021-08-27T06:01:24.000Z</time>
      </trkpt>
      <trkpt lat="49.78488" lon="4.79686">
        <ele>255</ele>
        <time>2021-08-27T06:01:25.000Z</time>
      </trkpt>
      <trkpt lat="49.78492" lon="4.79688">
        <ele>255</ele>
        <time>2021-08-27T06:01:26.000Z</time>
      </trkpt>
      <trkpt lat="49.78497" lon="4.79689">
        <ele>255</ele>
        <time>2021-08-27T06:01:27.000Z</time>
      </trkpt>
      <trkpt lat="49.78501" lon="4.79691">
        <ele>255</ele>
        <time>2021-08-27T06:01:28.000Z</time>
      </trkpt>
      <trkpt lat="49.78505" lon="4.79693">
        <ele>256</ele>
        <time>2021-08-27T06:01:29.000Z</time>
      </trkpt>
      <trkpt lat="49.78509" lon="4.79694">
        <ele>256</ele>
        <time>2021-08-27T06:01:30.000Z</time>
      </trkpt>
      <trkpt lat="49.78513" lon="4.79696">
        <ele>256</ele>
        <time>2021-08-27T06:01:31.000Z</time>
      </trkpt>
      <trkpt lat="49.78517" lon="4.79698">
        <ele>256</ele>
        <time>2021-08-27T06:01:32.000Z</time>
      </trkpt>
      <trkpt lat="49.78522" lon="4.79699">
        <ele>257</ele>
        <time>2021-08-27T06:01:33.000Z</time>
      </trkpt>
      <trkpt lat="49.78526" lon="4.79701">
        <ele>257</ele>
        <time>2021-08-27T06:01:34.000Z</time>
      </trkpt>
      <trkpt lat="49.7853" lon="4.79702">
        <ele>257</ele>
        <time>2021-08-27T06:01:35.000Z</time>
      </trkpt>
      <trkpt lat="49.78535" lon="4.79703">
        <ele>257</ele>
        <time>2021-08-27T06:01:36.000Z</time>
      </trkpt>
      <trkpt lat="49.78539" lon="4.79704">
        <ele>258</ele>
        <time>2021-08-27T06:01:37.000Z</time>
      </trkpt>
      <trkpt lat="49.78543" lon="4.79706">
        <ele>258</ele>
        <time>2021-08-27T06:01:38.000Z</time>
      </trkpt>
      <trkpt lat="49.78548" lon="4.79707">
        <ele>258</ele>
        <time>2021-08-27T06:01:39.000Z</time>
      </trkpt>
      <trkpt lat="49.78552" lon="4.79709">
        <ele>258</ele>
        <time>2021-08-27T06:01:40.000Z</time>
      </trkpt>
      <trkpt lat="49.78556" lon="4.79711">
        <ele>259</ele>
        <time>2021-08-27T06:01:41.000Z</time>
      </trkpt>
      <trkpt lat="49.7856" lon="4.79712">
        <ele>259</ele>
        <time>2021-08-27T06:01:42.000Z</time>
      </trkpt>
      <trkpt lat="49.78564" lon="4.79713">
        <ele>259</ele>
        <time>2021-08-27T06:01:43.000Z</time>
      </trkpt>
      <trkpt lat="49.78569" lon="4.79714">
        <ele>260</ele>
        <time>2021-08-27T06:01:44.000Z</time>
      </trkpt>
      <trkpt lat="49.78573" lon="4.79716">
        <ele>260</ele>
        <time>2021-08-27T06:01:45.000Z</time>
      </trkpt>
      <trkpt lat="49.78577" lon="4.79718">
        <ele>260</ele>
        <time>2021-08-27T06:01:46.000Z</time>
      </trkpt>
      <trkpt lat="49.78581" lon="4.79719">
        <ele>260</ele>
        <time>2021-08-27T06:01:47.000Z</time>
      </trkpt>
      <trkpt lat="49.78585" lon="4.79721">
        <ele>261</ele>
        <time>2021-08-27T06:01:48.000Z</time>
      </trkpt>
      <trkpt lat="49.7859" lon="4.79723">
        <ele>261</ele>
        <time>2021-08-27T06:01:49.000Z</time>
      </trkpt>
      <trkpt lat="49.78594" lon="4.79724">
        <ele>261</ele>
        <time>2021-08-27T06:01:50.000Z</time>
      </trkpt>
      <trkpt lat="49.78598" lon="4.79726">
        <ele>261</ele>
        <time>2021-08-27T06:01:51.000Z</time>
      </trkpt>
      <trkpt lat="49.78603" lon="4.79727">
        <ele>261</ele>
        <time>2021-08-27T06:01:52.000Z</time>
      </trkpt>
      <trkpt lat="49.78607" lon="4.79729">
        <ele>261</ele>
        <time>2021-08-27T06:01:53.000Z</time>
      </trkpt>
      <trkpt lat="49.78611" lon="4.7973">
        <ele>262</ele>
        <time>2021-08-27T06:01:54.000Z</time>
      </trkpt>
      <trkpt lat="49.78616" lon="4.79732">
        <ele>262</ele>
        <time>2021-08-27T06:01:55.000Z</time>
      </trkpt>
      <trkpt lat="49.7862" lon="4.79734">
        <ele>262</ele>
        <time>2021-08-27T06:01:56.000Z</time>
      </trkpt>
      <trkpt lat="49.78624" lon="4.79735">
        <ele>262</ele>
        <time>2021-08-27T06:01:57.000Z</time>
      </trkpt>
      <trkpt lat="49.78629" lon="4.79737">
        <ele>262</ele>
        <time>2021-08-27T06:01:58.000Z</time>
      </trkpt>
      <trkpt lat="49.78633" lon="4.79738">
        <ele>262</ele>
        <time>2021-08-27T06:01:59.000Z</time>
      </trkpt>
      <trkpt lat="49.78637" lon="4.7974">
        <ele>263</ele>
        <time>2021-08-27T06:02:00.000Z</time>
      </trkpt>
      <trkpt lat="49.78642" lon="4.79742">
        <ele>263</ele>
        <time>2021-08-27T06:02:01.000Z</time>
      </trkpt>
      <trkpt lat="49.78646" lon="4.79744">
        <ele>263</ele>
        <time>2021-08-27T06:02:02.000Z</time>
      </trkpt>
      <trkpt lat="49.78651" lon="4.79745">
        <ele>263</ele>
        <time>2021-08-27T06:02:03.000Z</time>
      </trkpt>
      <trkpt lat="49.78655" lon="4.79747">
        <ele>263</ele>
        <time>2021-08-27T06:02:04.000Z</time>
      </trkpt>
      <trkpt lat="49.7866" lon="4.79748">
        <ele>263</ele>
        <time>2021-08-27T06:02:05.000Z</time>
      </trkpt>
      <trkpt lat="49.78664" lon="4.7975">
        <ele>263</ele>
        <time>2021-08-27T06:02:06.000Z</time>
      </trkpt>
      <trkpt lat="49.78668" lon="4.79752">
        <ele>264</ele>
        <time>2021-08-27T06:02:07.000Z</time>
      </trkpt>
      <trkpt lat="49.78673" lon="4.79754">
        <ele>264</ele>
        <time>2021-08-27T06:02:08.000Z</time>
      </trkpt>
      <trkpt lat="49.78677" lon="4.79755">
        <ele>264</ele>
        <time>2021-08-27T06:02:09.000Z</time>
      </trkpt>
      <trkpt lat="49.78682" lon="4.79757">
        <ele>264</ele>
        <time>2021-08-27T06:02:10.000Z</time>
      </trkpt>
      <trkpt lat="49.78687" lon="4.79758">
        <ele>264</ele>
        <time>2021-08-27T06:02:11.000Z</time>
      </trkpt>
      <trkpt lat="49.78692" lon="4.7976">
        <ele>264</ele>
        <time>2021-08-27T06:02:12.000Z</time>
      </trkpt>
      <trkpt lat="49.78696" lon="4.79761">
        <ele>264</ele>
        <time>2021-08-27T06:02:13.000Z</time>
      </trkpt>
      <trkpt lat="49.78701" lon="4.79763">
        <ele>264</ele>
        <time>2021-08-27T06:02:14.000Z</time>
      </trkpt>
      <trkpt lat="49.78705" lon="4.79766">
        <ele>264</ele>
        <time>2021-08-27T06:02:15.000Z</time>
      </trkpt>
      <trkpt lat="49.7871" lon="4.79768">
        <ele>264</ele>
        <time>2021-08-27T06:02:16.000Z</time>
      </trkpt>
      <trkpt lat="49.78715" lon="4.79769">
        <ele>265</ele>
        <time>2021-08-27T06:02:17.000Z</time>
      </trkpt>
      <trkpt lat="49.7872" lon="4.79771">
        <ele>265</ele>
        <time>2021-08-27T06:02:18.000Z</time>
      </trkpt>
      <trkpt lat="49.78725" lon="4.79772">
        <ele>265</ele>
        <time>2021-08-27T06:02:19.000Z</time>
      </trkpt>
      <trkpt lat="49.78729" lon="4.79773">
        <ele>265</ele>
        <time>2021-08-27T06:02:20.000Z</time>
      </trkpt>
      <trkpt lat="49.78734" lon="4.79775">
        <ele>265</ele>
        <time>2021-08-27T06:02:21.000Z</time>
      </trkpt>
      <trkpt lat="49.78739" lon="4.79777">
        <ele>265</ele>
        <time>2021-08-27T06:02:22.000Z</time>
      </trkpt>
      <trkpt lat="49.78744" lon="4.79779">
        <ele>266</ele>
        <time>2021-08-27T06:02:23.000Z</time>
      </trkpt>
      <trkpt lat="49.78749" lon="4.79781">
        <ele>266</ele>
        <time>2021-08-27T06:02:24.000Z</time>
      </trkpt>
      <trkpt lat="49.78754" lon="4.79783">
        <ele>266</ele>
        <time>2021-08-27T06:02:25.000Z</time>
      </trkpt>
      <trkpt lat="49.78759" lon="4.79785">
        <ele>266</ele>
        <time>2021-08-27T06:02:26.000Z</time>
      </trkpt>
      <trkpt lat="49.78764" lon="4.79787">
        <ele>266</ele>
        <time>2021-08-27T06:02:27.000Z</time>
      </trkpt>
      <trkpt lat="49.7877" lon="4.79789">
        <ele>266</ele>
        <time>2021-08-27T06:02:28.000Z</time>
      </trkpt>
      <trkpt lat="49.78775" lon="4.79791">
        <ele>266</ele>
        <time>2021-08-27T06:02:29.000Z</time>
      </trkpt>
      <trkpt lat="49.7878" lon="4.79793">
        <ele>267</ele>
        <time>2021-08-27T06:02:30.000Z</time>
      </trkpt>
      <trkpt lat="49.78785" lon="4.79796">
        <ele>267</ele>
        <time>2021-08-27T06:02:31.000Z</time>
      </trkpt>
      <trkpt lat="49.7879" lon="4.79798">
        <ele>267</ele>
        <time>2021-08-27T06:02:32.000Z</time>
      </trkpt>
      <trkpt lat="49.78795" lon="4.79801">
        <ele>267</ele>
        <time>2021-08-27T06:02:33.000Z</time>
      </trkpt>
      <trkpt lat="49.788" lon="4.79803">
        <ele>267</ele>
        <time>2021-08-27T06:02:34.000Z</time>
      </trkpt>
      <trkpt lat="49.78805" lon="4.79806">
        <ele>267</ele>
        <time>2021-08-27T06:02:35.000Z</time>
      </trkpt>
      <trkpt lat="49.7881" lon="4.79808">
        <ele>267</ele>
        <time>2021-08-27T06:02:36.000Z</time>
      </trkpt>
      <trkpt lat="49.78815" lon="4.79811">
        <ele>267</ele>
        <time>2021-08-27T06:02:37.000Z</time>
      </trkpt>
      <trkpt lat="49.78821" lon="4.79814">
        <ele>267</ele>
        <time>2021-08-27T06:02:38.000Z</time>
      </trkpt>
      <trkpt lat="49.78826" lon="4.79817">
        <ele>267</ele>
        <time>2021-08-27T06:02:39.000Z</time>
      </trkpt>
      <trkpt lat="49.78831" lon="4.7982">
        <ele>267</ele>
        <time>2021-08-27T06:02:40.000Z</time>
      </trkpt>
      <trkpt lat="49.78836" lon="4.79824">
        <ele>267</ele>
        <time>2021-08-27T06:02:41.000Z</time>
      </trkpt>
      <trkpt lat="49.78842" lon="4.79827">
        <ele>267</ele>
        <time>2021-08-27T06:02:42.000Z</time>
      </trkpt>
      <trkpt lat="49.78847" lon="4.7983">
        <ele>267</ele>
        <time>2021-08-27T06:02:43.000Z</time>
      </trkpt>
      <trkpt lat="49.78852" lon="4.79833">
        <ele>267</ele>
        <time>2021-08-27T06:02:44.000Z</time>
      </trkpt>
      <trkpt lat="49.78857" lon="4.79837">
        <ele>267</ele>
        <time>2021-08-27T06:02:45.000Z</time>
      </trkpt>
      <trkpt lat="49.78862" lon="4.7984">
        <ele>267</ele>
        <time>2021-08-27T06:02:46.000Z</time>
      </trkpt>
      <trkpt lat="49.78867" lon="4.79844">
        <ele>268</ele>
        <time>2021-08-27T06:02:47.000Z</time>
      </trkpt>
      <trkpt lat="49.78872" lon="4.79847">
        <ele>268</ele>
        <time>2021-08-27T06:02:48.000Z</time>
      </trkpt>
      <trkpt lat="49.78878" lon="4.79851">
        <ele>268</ele>
        <time>2021-08-27T06:02:49.000Z</time>
      </trkpt>
      <trkpt lat="49.78882" lon="4.79854">
        <ele>268</ele>
        <time>2021-08-27T06:02:50.000Z</time>
      </trkpt>
      <trkpt lat="49.78887" lon="4.79858">
        <ele>267</ele>
        <time>2021-08-27T06:02:51.000Z</time>
      </trkpt>
      <trkpt lat="49.78893" lon="4.79862">
        <ele>267</ele>
        <time>2021-08-27T06:02:52.000Z</time>
      </trkpt>
      <trkpt lat="49.78898" lon="4.79865">
        <ele>267</ele>
        <time>2021-08-27T06:02:53.000Z</time>
      </trkpt>
      <trkpt lat="49.78903" lon="4.79869">
        <ele>267</ele>
        <time>2021-08-27T06:02:54.000Z</time>
      </trkpt>
      <trkpt lat="49.78908" lon="4.79873">
        <ele>267</ele>
        <time>2021-08-27T06:02:55.000Z</time>
      </trkpt>
      <trkpt lat="49.78913" lon="4.79877">
        <ele>266</ele>
        <time>2021-08-27T06:02:56.000Z</time>
      </trkpt>
      <trkpt lat="49.78918" lon="4.79881">
        <ele>266</ele>
        <time>2021-08-27T06:02:57.000Z</time>
      </trkpt>
      <trkpt lat="49.78923" lon="4.79886">
        <ele>266</ele>
        <time>2021-08-27T06:02:58.000Z</time>
      </trkpt>
      <trkpt lat="49.78928" lon="4.7989">
        <ele>266</ele>
        <time>2021-08-27T06:02:59.000Z</time>
      </trkpt>
      <trkpt lat="49.78934" lon="4.79894">
        <ele>265</ele>
        <time>2021-08-27T06:03:00.000Z</time>
      </trkpt>
      <trkpt lat="49.78939" lon="4.79899">
        <ele>265</ele>
        <time>2021-08-27T06:03:01.000Z</time>
      </trkpt>
      <trkpt lat="49.78944" lon="4.79903">
        <ele>265</ele>
        <time>2021-08-27T06:03:02.000Z</time>
      </trkpt>
      <trkpt lat="49.78949" lon="4.79908">
        <ele>265</ele>
        <time>2021-08-27T06:03:03.000Z</time>
      </trkpt>
      <trkpt lat="49.78954" lon="4.79913">
        <ele>265</ele>
        <time>2021-08-27T06:03:04.000Z</time>
      </trkpt>
      <trkpt lat="49.7896" lon="4.79917">
        <ele>264</ele>
        <time>2021-08-27T06:03:05.000Z</time>
      </trkpt>
      <trkpt lat="49.78965" lon="4.79922">
        <ele>264</ele>
        <time>2021-08-27T06:03:06.000Z</time>
      </trkpt>
      <trkpt lat="49.7897" lon="4.79927">
        <ele>264</ele>
        <time>2021-08-27T06:03:07.000Z</time>
      </trkpt>
      <trkpt lat="49.78975" lon="4.79932">
        <ele>264</ele>
        <time>2021-08-27T06:03:08.000Z</time>
      </trkpt>
      <trkpt lat="49.78981" lon="4.79937">
        <ele>264</ele>
        <time>2021-08-27T06:03:09.000Z</time>
      </trkpt>
      <trkpt lat="49.78986" lon="4.79942">
        <ele>264</ele>
        <time>2021-08-27T06:03:10.000Z</time>
      </trkpt>
      <trkpt lat="49.78991" lon="4.79946">
        <ele>264</ele>
        <time>2021-08-27T06:03:11.000Z</time>
      </trkpt>
      <trkpt lat="49.78996" lon="4.79951">
        <ele>263</ele>
        <time>2021-08-27T06:03:12.000Z</time>
      </trkpt>
      <trkpt lat="49.79001" lon="4.79955">
        <ele>263</ele>
        <time>2021-08-27T06:03:13.000Z</time>
      </trkpt>
      <trkpt lat="49.79006" lon="4.7996">
        <ele>263</ele>
        <time>2021-08-27T06:03:14.000Z</time>
      </trkpt>
      <trkpt lat="49.79011" lon="4.79965">
        <ele>263</ele>
        <time>2021-08-27T06:03:15.000Z</time>
      </trkpt>
      <trkpt lat="49.79016" lon="4.79969">
        <ele>263</ele>
        <time>2021-08-27T06:03:16.000Z</time>
      </trkpt>
      <trkpt lat="49.79022" lon="4.79974">
        <ele>263</ele>
        <time>2021-08-27T06:03:17.000Z</time>
      </trkpt>
      <trkpt lat="49.79027" lon="4.79979">
        <ele>263</ele>
        <time>2021-08-27T06:03:18.000Z</time>
      </trkpt>
      <trkpt lat="49.79032" lon="4.79984">
        <ele>263</ele>
        <time>2021-08-27T06:03:19.000Z</time>
      </trkpt>
      <trkpt lat="49.79037" lon="4.79989">
        <ele>262</ele>
        <time>2021-08-27T06:03:20.000Z</time>
      </trkpt>
      <trkpt lat="49.79042" lon="4.79994">
        <ele>262</ele>
        <time>2021-08-27T06:03:21.000Z</time>
      </trkpt>
      <trkpt lat="49.79047" lon="4.79998">
        <ele>262</ele>
        <time>2021-08-27T06:03:22.000Z</time>
      </trkpt>
      <trkpt lat="49.79053" lon="4.80003">
        <ele>262</ele>
        <time>2021-08-27T06:03:23.000Z</time>
      </trkpt>
      <trkpt lat="49.79058" lon="4.80008">
        <ele>262</ele>
        <time>2021-08-27T06:03:24.000Z</time>
      </trkpt>
      <trkpt lat="49.79063" lon="4.80012">
        <ele>262</ele>
        <time>2021-08-27T06:03:25.000Z</time>
      </trkpt>
      <trkpt lat="49.79068" lon="4.80017">
        <ele>262</ele>
        <time>2021-08-27T06:03:26.000Z</time>
      </trkpt>
      <trkpt lat="49.79073" lon="4.80022">
        <ele>262</ele>
        <time>2021-08-27T06:03:27.000Z</time>
      </trkpt>
      <trkpt lat="49.79078" lon="4.80026">
        <ele>261</ele>
        <time>2021-08-27T06:03:28.000Z</time>
      </trkpt>
      <trkpt lat="49.79083" lon="4.80031">
        <ele>261</ele>
        <time>2021-08-27T06:03:29.000Z</time>
      </trkpt>
      <trkpt lat="49.79088" lon="4.80035">
        <ele>261</ele>
        <time>2021-08-27T06:03:30.000Z</time>
      </trkpt>
      <trkpt lat="49.79093" lon="4.8004">
        <ele>261</ele>
        <time>2021-08-27T06:03:31.000Z</time>
      </trkpt>
      <trkpt lat="49.79099" lon="4.80044">
        <ele>261</ele>
        <time>2021-08-27T06:03:32.000Z</time>
      </trkpt>
      <trkpt lat="49.79104" lon="4.80048">
        <ele>261</ele>
        <time>2021-08-27T06:03:33.000Z</time>
      </trkpt>
      <trkpt lat="49.79109" lon="4.80052">
        <ele>262</ele>
        <time>2021-08-27T06:03:34.000Z</time>
      </trkpt>
      <trkpt lat="49.79114" lon="4.80056">
        <ele>262</ele>
        <time>2021-08-27T06:03:35.000Z</time>
      </trkpt>
      <trkpt lat="49.79119" lon="4.8006">
        <ele>262</ele>
        <time>2021-08-27T06:03:36.000Z</time>
      </trkpt>
      <trkpt lat="49.79123" lon="4.80064">
        <ele>262</ele>
        <time>2021-08-27T06:03:37.000Z</time>
      </trkpt>
      <trkpt lat="49.79128" lon="4.80067">
        <ele>262</ele>
        <time>2021-08-27T06:03:38.000Z</time>
      </trkpt>
      <trkpt lat="49.79133" lon="4.80069">
        <ele>262</ele>
        <time>2021-08-27T06:03:39.000Z</time>
      </trkpt>
      <trkpt lat="49.79137" lon="4.80071">
        <ele>262</ele>
        <time>2021-08-27T06:03:40.000Z</time>
      </trkpt>
      <trkpt lat="49.79141" lon="4.80073">
        <ele>262</ele>
        <time>2021-08-27T06:03:41.000Z</time>
      </trkpt>
      <trkpt lat="49.79146" lon="4.80073">
        <ele>262</ele>
        <time>2021-08-27T06:03:42.000Z</time>
      </trkpt>
      <trkpt lat="49.7915" lon="4.80072">
        <ele>262</ele>
        <time>2021-08-27T06:03:43.000Z</time>
      </trkpt>
      <trkpt lat="49.79154" lon="4.80071">
        <ele>263</ele>
        <time>2021-08-27T06:03:44.000Z</time>
      </trkpt>
      <trkpt lat="49.79158" lon="4.8007">
        <ele>263</ele>
        <time>2021-08-27T06:03:45.000Z</time>
      </trkpt>
      <trkpt lat="49.79163" lon="4.80069">
        <ele>263</ele>
        <time>2021-08-27T06:03:46.000Z</time>
      </trkpt>
      <trkpt lat="49.79168" lon="4.80068">
        <ele>263</ele>
        <time>2021-08-27T06:03:47.000Z</time>
      </trkpt>
      <trkpt lat="49.79172" lon="4.80068">
        <ele>263</ele>
        <time>2021-08-27T06:03:48.000Z</time>
      </trkpt>
      <trkpt lat="49.79177" lon="4.80067">
        <ele>263</ele>
        <time>2021-08-27T06:03:49.000Z</time>
      </trkpt>
      <trkpt lat="49.79182" lon="4.80066">
        <ele>264</ele>
        <time>2021-08-27T06:03:50.000Z</time>
      </trkpt>
      <trkpt lat="49.79186" lon="4.80065">
        <ele>264</ele>
        <time>2021-08-27T06:03:51.000Z</time>
      </trkpt>
      <trkpt lat="49.79191" lon="4.80064">
        <ele>264</ele>
        <time>2021-08-27T06:03:52.000Z</time>
      </trkpt>
      <trkpt lat="49.79196" lon="4.80063">
        <ele>264</ele>
        <time>2021-08-27T06:03:53.000Z</time>
      </trkpt>
      <trkpt lat="49.792" lon="4.80062">
        <ele>265</ele>
        <time>2021-08-27T06:03:54.000Z</time>
      </trkpt>
      <trkpt lat="49.79204" lon="4.80061">
        <ele>265</ele>
        <time>2021-08-27T06:03:55.000Z</time>
      </trkpt>
      <trkpt lat="49.79207" lon="4.8006">
        <ele>265</ele>
        <time>2021-08-27T06:03:56.000Z</time>
      </trkpt>
      <trkpt lat="49.7921" lon="4.80059">
        <ele>266</ele>
        <time>2021-08-27T06:03:57.000Z</time>
      </trkpt>
      <trkpt lat="49.79213" lon="4.80058">
        <ele>266</ele>
        <time>2021-08-27T06:03:58.000Z</time>
      </trkpt>
      <trkpt lat="49.79215" lon="4.80058">
        <ele>266</ele>
        <time>2021-08-27T06:03:59.000Z</time>
      </trkpt>
      <trkpt lat="49.79218" lon="4.80058">
        <ele>266</ele>
        <time>2021-08-27T06:04:00.000Z</time>
      </trkpt>
      <trkpt lat="49.7922" lon="4.80057">
        <ele>267</ele>
        <time>2021-08-27T06:04:01.000Z</time>
      </trkpt>
      <trkpt lat="49.79222" lon="4.80057">
        <ele>267</ele>
        <time>2021-08-27T06:04:02.000Z</time>
      </trkpt>
      <trkpt lat="49.79225" lon="4.80057">
        <ele>267</ele>
        <time>2021-08-27T06:04:03.000Z</time>
      </trkpt>
      <trkpt lat="49.79228" lon="4.80057">
        <ele>268</ele>
        <time>2021-08-27T06:04:04.000Z</time>
      </trkpt>
      <trkpt lat="49.7923" lon="4.80056">
        <ele>268</ele>
        <time>2021-08-27T06:04:05.000Z</time>
      </trkpt>
      <trkpt lat="49.79232" lon="4.80056">
        <ele>268</ele>
        <time>2021-08-27T06:04:06.000Z</time>
      </trkpt>
      <trkpt lat="49.79234" lon="4.80056">
        <ele>269</ele>
        <time>2021-08-27T06:04:07.000Z</time>
      </trkpt>
      <trkpt lat="49.79237" lon="4.80055">
        <ele>269</ele>
        <time>2021-08-27T06:04:08.000Z</time>
      </trkpt>
      <trkpt lat="49.79239" lon="4.80054">
        <ele>269</ele>
        <time>2021-08-27T06:04:09.000Z</time>
      </trkpt>
      <trkpt lat="49.79242" lon="4.80054">
        <ele>269</ele>
        <time>2021-08-27T06:04:10.000Z</time>
      </trkpt>
      <trkpt lat="49.79244" lon="4.80053">
        <ele>270</ele>
        <time>2021-08-27T06:04:11.000Z</time>
      </trkpt>
      <trkpt lat="49.79247" lon="4.80053">
        <ele>270</ele>
        <time>2021-08-27T06:04:12.000Z</time>
      </trkpt>
      <trkpt lat="49.79249" lon="4.80053">
        <ele>270</ele>
        <time>2021-08-27T06:04:13.000Z</time>
      </trkpt>
      <trkpt lat="49.7925" lon="4.80053">
        <ele>270</ele>
        <time>2021-08-27T06:04:14.000Z</time>
      </trkpt>
      <trkpt lat="49.79252" lon="4.80053">
        <ele>271</ele>
        <time>2021-08-27T06:04:15.000Z</time>
      </trkpt>
      <trkpt lat="49.79254" lon="4.80052">
        <ele>271</ele>
        <time>2021-08-27T06:04:16.000Z</time>
      </trkpt>
      <trkpt lat="49.79257" lon="4.80051">
        <ele>271</ele>
        <time>2021-08-27T06:04:17.000Z</time>
      </trkpt>
      <trkpt lat="49.79258" lon="4.8005">
        <ele>272</ele>
        <time>2021-08-27T06:04:18.000Z</time>
      </trkpt>
      <trkpt lat="49.7926" lon="4.8005">
        <ele>272</ele>
        <time>2021-08-27T06:04:19.000Z</time>
      </trkpt>
      <trkpt lat="49.79263" lon="4.80048">
        <ele>272</ele>
        <time>2021-08-27T06:04:20.000Z</time>
      </trkpt>
      <trkpt lat="49.79265" lon="4.80048">
        <ele>272</ele>
        <time>2021-08-27T06:04:21.000Z</time>
      </trkpt>
      <trkpt lat="49.79267" lon="4.80047">
        <ele>273</ele>
        <time>2021-08-27T06:04:22.000Z</time>
      </trkpt>
      <trkpt lat="49.79269" lon="4.80046">
        <ele>273</ele>
        <time>2021-08-27T06:04:23.000Z</time>
      </trkpt>
      <trkpt lat="49.79271" lon="4.80046">
        <ele>274</ele>
        <time>2021-08-27T06:04:24.000Z</time>
      </trkpt>
      <trkpt lat="49.79274" lon="4.80046">
        <ele>274</ele>
        <time>2021-08-27T06:04:25.000Z</time>
      </trkpt>
      <trkpt lat="49.79277" lon="4.80045">
        <ele>274</ele>
        <time>2021-08-27T06:04:26.000Z</time>
      </trkpt>
      <trkpt lat="49.7928" lon="4.80043">
        <ele>275</ele>
        <time>2021-08-27T06:04:27.000Z</time>
      </trkpt>
      <trkpt lat="49.79282" lon="4.80043">
        <ele>275</ele>
        <time>2021-08-27T06:04:28.000Z</time>
      </trkpt>
      <trkpt lat="49.79284" lon="4.80042">
        <ele>275</ele>
        <time>2021-08-27T06:04:29.000Z</time>
      </trkpt>
      <trkpt lat="49.79286" lon="4.80041">
        <ele>276</ele>
        <time>2021-08-27T06:04:30.000Z</time>
      </trkpt>
      <trkpt lat="49.79288" lon="4.80041">
        <ele>276</ele>
        <time>2021-08-27T06:04:31.000Z</time>
      </trkpt>
      <trkpt lat="49.7929" lon="4.80041">
        <ele>276</ele>
        <time>2021-08-27T06:04:32.000Z</time>
      </trkpt>
      <trkpt lat="49.79292" lon="4.8004">
        <ele>277</ele>
        <time>2021-08-27T06:04:33.000Z</time>
      </trkpt>
      <trkpt lat="49.79295" lon="4.8004">
        <ele>277</ele>
        <time>2021-08-27T06:04:34.000Z</time>
      </trkpt>
      <trkpt lat="49.79297" lon="4.8004">
        <ele>277</ele>
        <time>2021-08-27T06:04:35.000Z</time>
      </trkpt>
      <trkpt lat="49.793" lon="4.8004">
        <ele>278</ele>
        <time>2021-08-27T06:04:36.000Z</time>
      </trkpt>
      <trkpt lat="49.79302" lon="4.80038">
        <ele>278</ele>
        <time>2021-08-27T06:04:37.000Z</time>
      </trkpt>
      <trkpt lat="49.79305" lon="4.80036">
        <ele>278</ele>
        <time>2021-08-27T06:04:38.000Z</time>
      </trkpt>
      <trkpt lat="49.79307" lon="4.80032">
        <ele>278</ele>
        <time>2021-08-27T06:04:39.000Z</time>
      </trkpt>
      <trkpt lat="49.79309" lon="4.80029">
        <ele>278</ele>
        <time>2021-08-27T06:04:40.000Z</time>
      </trkpt>
      <trkpt lat="49.79311" lon="4.80025">
        <ele>278</ele>
        <time>2021-08-27T06:04:41.000Z</time>
      </trkpt>
      <trkpt lat="49.79314" lon="4.80022">
        <ele>278</ele>
        <time>2021-08-27T06:04:42.000Z</time>
      </trkpt>
      <trkpt lat="49.79316" lon="4.80017">
        <ele>279</ele>
        <time>2021-08-27T06:04:43.000Z</time>
      </trkpt>
      <trkpt lat="49.79318" lon="4.80013">
        <ele>279</ele>
        <time>2021-08-27T06:04:44.000Z</time>
      </trkpt>
      <trkpt lat="49.7932" lon="4.80009">
        <ele>279</ele>
        <time>2021-08-27T06:04:45.000Z</time>
      </trkpt>
      <trkpt lat="49.79322" lon="4.80004">
        <ele>279</ele>
        <time>2021-08-27T06:04:46.000Z</time>
      </trkpt>
      <trkpt lat="49.79324" lon="4.79999">
        <ele>279</ele>
        <time>2021-08-27T06:04:47.000Z</time>
      </trkpt>
      <trkpt lat="49.79326" lon="4.79995">
        <ele>279</ele>
        <time>2021-08-27T06:04:48.000Z</time>
      </trkpt>
      <trkpt lat="49.79328" lon="4.79991">
        <ele>279</ele>
        <time>2021-08-27T06:04:49.000Z</time>
      </trkpt>
      <trkpt lat="49.7933" lon="4.79986">
        <ele>279</ele>
        <time>2021-08-27T06:04:50.000Z</time>
      </trkpt>
      <trkpt lat="49.79331" lon="4.79982">
        <ele>279</ele>
        <time>2021-08-27T06:04:51.000Z</time>
      </trkpt>
      <trkpt lat="49.79333" lon="4.79977">
        <ele>279</ele>
        <time>2021-08-27T06:04:52.000Z</time>
      </trkpt>
      <trkpt lat="49.79335" lon="4.79972">
        <ele>279</ele>
        <time>2021-08-27T06:04:53.000Z</time>
      </trkpt>
      <trkpt lat="49.79336" lon="4.79967">
        <ele>279</ele>
        <time>2021-08-27T06:04:54.000Z</time>
      </trkpt>
      <trkpt lat="49.79337" lon="4.79962">
        <ele>279</ele>
        <time>2021-08-27T06:04:55.000Z</time>
      </trkpt>
      <trkpt lat="49.79338" lon="4.79957">
        <ele>279</ele>
        <time>2021-08-27T06:04:56.000Z</time>
      </trkpt>
      <trkpt lat="49.79339" lon="4.79953">
        <ele>279</ele>
        <time>2021-08-27T06:04:57.000Z</time>
      </trkpt>
      <trkpt lat="49.7934" lon="4.79949">
        <ele>278</ele>
        <time>2021-08-27T06:04:58.000Z</time>
      </trkpt>
      <trkpt lat="49.79342" lon="4.79945">
        <ele>278</ele>
        <time>2021-08-27T06:04:59.000Z</time>
      </trkpt>
      <trkpt lat="49.79343" lon="4.79941">
        <ele>278</ele>
        <time>2021-08-27T06:05:00.000Z</time>
      </trkpt>
      <trkpt lat="49.79344" lon="4.79936">
        <ele>278</ele>
        <time>2021-08-27T06:05:01.000Z</time>
      </trkpt>
      <trkpt lat="49.79345" lon="4.79932">
        <ele>278</ele>
        <time>2021-08-27T06:05:02.000Z</time>
      </trkpt>
      <trkpt lat="49.79347" lon="4.79926">
        <ele>278</ele>
        <time>2021-08-27T06:05:03.000Z</time>
      </trkpt>
      <trkpt lat="49.79348" lon="4.7992">
        <ele>278</ele>
        <time>2021-08-27T06:05:04.000Z</time>
      </trkpt>
      <trkpt lat="49.7935" lon="4.79915">
        <ele>278</ele>
        <time>2021-08-27T06:05:05.000Z</time>
      </trkpt>
      <trkpt lat="49.79352" lon="4.7991">
        <ele>278</ele>
        <time>2021-08-27T06:05:06.000Z</time>
      </trkpt>
      <trkpt lat="49.79354" lon="4.79906">
        <ele>278</ele>
        <time>2021-08-27T06:05:07.000Z</time>
      </trkpt>
      <trkpt lat="49.79357" lon="4.79902">
        <ele>278</ele>
        <time>2021-08-27T06:05:08.000Z</time>
      </trkpt>
      <trkpt lat="49.79359" lon="4.79898">
        <ele>278</ele>
        <time>2021-08-27T06:05:09.000Z</time>
      </trkpt>
      <trkpt lat="49.79361" lon="4.79894">
        <ele>278</ele>
        <time>2021-08-27T06:05:10.000Z</time>
      </trkpt>
      <trkpt lat="49.79363" lon="4.79891">
        <ele>278</ele>
        <time>2021-08-27T06:05:11.000Z</time>
      </trkpt>
      <trkpt lat="49.79365" lon="4.79887">
        <ele>278</ele>
        <time>2021-08-27T06:05:12.000Z</time>
      </trkpt>
      <trkpt lat="49.79367" lon="4.79883">
        <ele>278</ele>
        <time>2021-08-27T06:05:13.000Z</time>
      </trkpt>
      <trkpt lat="49.79368" lon="4.79879">
        <ele>278</ele>
        <time>2021-08-27T06:05:14.000Z</time>
      </trkpt>
      <trkpt lat="49.7937" lon="4.79875">
        <ele>278</ele>
        <time>2021-08-27T06:05:15.000Z</time>
      </trkpt>
      <trkpt lat="49.79371" lon="4.79872">
        <ele>278</ele>
        <time>2021-08-27T06:05:16.000Z</time>
      </trkpt>
      <trkpt lat="49.79373" lon="4.79869">
        <ele>278</ele>
        <time>2021-08-27T06:05:17.000Z</time>
      </trkpt>
      <trkpt lat="49.79374" lon="4.79865">
        <ele>278</ele>
        <time>2021-08-27T06:05:18.000Z</time>
      </trkpt>
      <trkpt lat="49.79375" lon="4.79861">
        <ele>278</ele>
        <time>2021-08-27T06:05:19.000Z</time>
      </trkpt>
      <trkpt lat="49.79376" lon="4.79857">
        <ele>279</ele>
        <time>2021-08-27T06:05:20.000Z</time>
      </trkpt>
      <trkpt lat="49.79378" lon="4.79854">
        <ele>279</ele>
        <time>2021-08-27T06:05:21.000Z</time>
      </trkpt>
      <trkpt lat="49.7938" lon="4.79851">
        <ele>279</ele>
        <time>2021-08-27T06:05:22.000Z</time>
      </trkpt>
      <trkpt lat="49.79382" lon="4.79849">
        <ele>279</ele>
        <time>2021-08-27T06:05:23.000Z</time>
      </trkpt>
      <trkpt lat="49.79384" lon="4.79848">
        <ele>279</ele>
        <time>2021-08-27T06:05:24.000Z</time>
      </trkpt>
      <trkpt lat="49.79387" lon="4.79848">
        <ele>279</ele>
        <time>2021-08-27T06:05:25.000Z</time>
      </trkpt>
      <trkpt lat="49.79389" lon="4.79847">
        <ele>280</ele>
        <time>2021-08-27T06:05:26.000Z</time>
      </trkpt>
      <trkpt lat="49.79391" lon="4.79847">
        <ele>280</ele>
        <time>2021-08-27T06:05:27.000Z</time>
      </trkpt>
      <trkpt lat="49.79393" lon="4.79846">
        <ele>280</ele>
        <time>2021-08-27T06:05:28.000Z</time>
      </trkpt>
      <trkpt lat="49.79395" lon="4.79846">
        <ele>280</ele>
        <time>2021-08-27T06:05:29.000Z</time>
      </trkpt>
      <trkpt lat="49.79398" lon="4.79845">
        <ele>280</ele>
        <time>2021-08-27T06:05:30.000Z</time>
      </trkpt>
      <trkpt lat="49.794" lon="4.79845">
        <ele>281</ele>
        <time>2021-08-27T06:05:31.000Z</time>
      </trkpt>
      <trkpt lat="49.79402" lon="4.79845">
        <ele>281</ele>
        <time>2021-08-27T06:05:32.000Z</time>
      </trkpt>
      <trkpt lat="49.79404" lon="4.79844">
        <ele>281</ele>
        <time>2021-08-27T06:05:33.000Z</time>
      </trkpt>
      <trkpt lat="49.79406" lon="4.79844">
        <ele>281</ele>
        <time>2021-08-27T06:05:34.000Z</time>
      </trkpt>
      <trkpt lat="49.79408" lon="4.79843">
        <ele>281</ele>
        <time>2021-08-27T06:05:35.000Z</time>
      </trkpt>
      <trkpt lat="49.7941" lon="4.79843">
        <ele>282</ele>
        <time>2021-08-27T06:05:36.000Z</time>
      </trkpt>
      <trkpt lat="49.79412" lon="4.79842">
        <ele>282</ele>
        <time>2021-08-27T06:05:37.000Z</time>
      </trkpt>
      <trkpt lat="49.79415" lon="4.79842">
        <ele>282</ele>
        <time>2021-08-27T06:05:38.000Z</time>
      </trkpt>
      <trkpt lat="49.79417" lon="4.79841">
        <ele>282</ele>
        <time>2021-08-27T06:05:39.000Z</time>
      </trkpt>
      <trkpt lat="49.79419" lon="4.7984">
        <ele>283</ele>
        <time>2021-08-27T06:05:40.000Z</time>
      </trkpt>
      <trkpt lat="49.79421" lon="4.79839">
        <ele>283</ele>
        <time>2021-08-27T06:05:41.000Z</time>
      </trkpt>
      <trkpt lat="49.79424" lon="4.79839">
        <ele>283</ele>
        <time>2021-08-27T06:05:42.000Z</time>
      </trkpt>
      <trkpt lat="49.79427" lon="4.79838">
        <ele>283</ele>
        <time>2021-08-27T06:05:43.000Z</time>
      </trkpt>
      <trkpt lat="49.79429" lon="4.79838">
        <ele>284</ele>
        <time>2021-08-27T06:05:44.000Z</time>
      </trkpt>
      <trkpt lat="49.79432" lon="4.79838">
        <ele>284</ele>
        <time>2021-08-27T06:05:45.000Z</time>
      </trkpt>
      <trkpt lat="49.79434" lon="4.79838">
        <ele>284</ele>
        <time>2021-08-27T06:05:46.000Z</time>
      </trkpt>
      <trkpt lat="49.79437" lon="4.79838">
        <ele>284</ele>
        <time>2021-08-27T06:05:47.000Z</time>
      </trkpt>
      <trkpt lat="49.79441" lon="4.79837">
        <ele>285</ele>
        <time>2021-08-27T06:05:48.000Z</time>
      </trkpt>
      <trkpt lat="49.79444" lon="4.79837">
        <ele>285</ele>
        <time>2021-08-27T06:05:49.000Z</time>
      </trkpt>
      <trkpt lat="49.79449" lon="4.79837">
        <ele>285</ele>
        <time>2021-08-27T06:05:50.000Z</time>
      </trkpt>
      <trkpt lat="49.79453" lon="4.79836">
        <ele>286</ele>
        <time>2021-08-27T06:05:51.000Z</time>
      </trkpt>
      <trkpt lat="49.79456" lon="4.79837">
        <ele>286</ele>
        <time>2021-08-27T06:05:52.000Z</time>
      </trkpt>
      <trkpt lat="49.7946" lon="4.79837">
        <ele>286</ele>
        <time>2021-08-27T06:05:53.000Z</time>
      </trkpt>
      <trkpt lat="49.79463" lon="4.79837">
        <ele>286</ele>
        <time>2021-08-27T06:05:54.000Z</time>
      </trkpt>
      <trkpt lat="49.79466" lon="4.79837">
        <ele>287</ele>
        <time>2021-08-27T06:05:55.000Z</time>
      </trkpt>
      <trkpt lat="49.79468" lon="4.79837">
        <ele>287</ele>
        <time>2021-08-27T06:05:56.000Z</time>
      </trkpt>
      <trkpt lat="49.7947" lon="4.79837">
        <ele>287</ele>
        <time>2021-08-27T06:05:57.000Z</time>
      </trkpt>
      <trkpt lat="49.79472" lon="4.79836">
        <ele>288</ele>
        <time>2021-08-27T06:05:58.000Z</time>
      </trkpt>
      <trkpt lat="49.79475" lon="4.79835">
        <ele>288</ele>
        <time>2021-08-27T06:05:59.000Z</time>
      </trkpt>
      <trkpt lat="49.79478" lon="4.79834">
        <ele>288</ele>
        <time>2021-08-27T06:06:00.000Z</time>
      </trkpt>
      <trkpt lat="49.7948" lon="4.79834">
        <ele>289</ele>
        <time>2021-08-27T06:06:01.000Z</time>
      </trkpt>
      <trkpt lat="49.79483" lon="4.79833">
        <ele>289</ele>
        <time>2021-08-27T06:06:02.000Z</time>
      </trkpt>
      <trkpt lat="49.79486" lon="4.79833">
        <ele>289</ele>
        <time>2021-08-27T06:06:03.000Z</time>
      </trkpt>
      <trkpt lat="49.79488" lon="4.79834">
        <ele>290</ele>
        <time>2021-08-27T06:06:04.000Z</time>
      </trkpt>
      <trkpt lat="49.7949" lon="4.79834">
        <ele>290</ele>
        <time>2021-08-27T06:06:05.000Z</time>
      </trkpt>
      <trkpt lat="49.79492" lon="4.79834">
        <ele>290</ele>
        <time>2021-08-27T06:06:06.000Z</time>
      </trkpt>
      <trkpt lat="49.79494" lon="4.79834">
        <ele>290</ele>
        <time>2021-08-27T06:06:07.000Z</time>
      </trkpt>
      <trkpt lat="49.79497" lon="4.79833">
        <ele>291</ele>
        <time>2021-08-27T06:06:08.000Z</time>
      </trkpt>
      <trkpt lat="49.79499" lon="4.79832">
        <ele>291</ele>
        <time>2021-08-27T06:06:09.000Z</time>
      </trkpt>
      <trkpt lat="49.79502" lon="4.79832">
        <ele>291</ele>
        <time>2021-08-27T06:06:10.000Z</time>
      </trkpt>
      <trkpt lat="49.79504" lon="4.79832">
        <ele>291</ele>
        <time>2021-08-27T06:06:11.000Z</time>
      </trkpt>
      <trkpt lat="49.79507" lon="4.79832">
        <ele>291</ele>
        <time>2021-08-27T06:06:12.000Z</time>
      </trkpt>
      <trkpt lat="49.79509" lon="4.79832">
        <ele>292</ele>
        <time>2021-08-27T06:06:13.000Z</time>
      </trkpt>
      <trkpt lat="49.79511" lon="4.79831">
        <ele>292</ele>
        <time>2021-08-27T06:06:14.000Z</time>
      </trkpt>
      <trkpt lat="49.79514" lon="4.7983">
        <ele>292</ele>
        <time>2021-08-27T06:06:15.000Z</time>
      </trkpt>
      <trkpt lat="49.79517" lon="4.7983">
        <ele>292</ele>
        <time>2021-08-27T06:06:16.000Z</time>
      </trkpt>
      <trkpt lat="49.7952" lon="4.7983">
        <ele>292</ele>
        <time>2021-08-27T06:06:17.000Z</time>
      </trkpt>
      <trkpt lat="49.79523" lon="4.7983">
        <ele>293</ele>
        <time>2021-08-27T06:06:18.000Z</time>
      </trkpt>
      <trkpt lat="49.79525" lon="4.7983">
        <ele>293</ele>
        <time>2021-08-27T06:06:19.000Z</time>
      </trkpt>
      <trkpt lat="49.79527" lon="4.7983">
        <ele>293</ele>
        <time>2021-08-27T06:06:20.000Z</time>
      </trkpt>
      <trkpt lat="49.79529" lon="4.79829">
        <ele>293</ele>
        <time>2021-08-27T06:06:21.000Z</time>
      </trkpt>
      <trkpt lat="49.79531" lon="4.79829">
        <ele>293</ele>
        <time>2021-08-27T06:06:22.000Z</time>
      </trkpt>
      <trkpt lat="49.79533" lon="4.79828">
        <ele>293</ele>
        <time>2021-08-27T06:06:23.000Z</time>
      </trkpt>
      <trkpt lat="49.79534" lon="4.79827">
        <ele>294</ele>
        <time>2021-08-27T06:06:24.000Z</time>
      </trkpt>
      <trkpt lat="49.79536" lon="4.79827">
        <ele>294</ele>
        <time>2021-08-27T06:06:25.000Z</time>
      </trkpt>
      <trkpt lat="49.79539" lon="4.79827">
        <ele>294</ele>
        <time>2021-08-27T06:06:26.000Z</time>
      </trkpt>
      <trkpt lat="49.79541" lon="4.79827">
        <ele>294</ele>
        <time>2021-08-27T06:06:27.000Z</time>
      </trkpt>
      <trkpt lat="49.79544" lon="4.79826">
        <ele>294</ele>
        <time>2021-08-27T06:06:28.000Z</time>
      </trkpt>
      <trkpt lat="49.79547" lon="4.79827">
        <ele>295</ele>
        <time>2021-08-27T06:06:29.000Z</time>
      </trkpt>
      <trkpt lat="49.79551" lon="4.79827">
        <ele>295</ele>
        <time>2021-08-27T06:06:30.000Z</time>
      </trkpt>
      <trkpt lat="49.79554" lon="4.79828">
        <ele>295</ele>
        <time>2021-08-27T06:06:31.000Z</time>
      </trkpt>
      <trkpt lat="49.79557" lon="4.79828">
        <ele>296</ele>
        <time>2021-08-27T06:06:32.000Z</time>
      </trkpt>
      <trkpt lat="49.79561" lon="4.79828">
        <ele>296</ele>
        <time>2021-08-27T06:06:33.000Z</time>
      </trkpt>
      <trkpt lat="49.79565" lon="4.79829">
        <ele>296</ele>
        <time>2021-08-27T06:06:34.000Z</time>
      </trkpt>
      <trkpt lat="49.79568" lon="4.79829">
        <ele>297</ele>
        <time>2021-08-27T06:06:35.000Z</time>
      </trkpt>
      <trkpt lat="49.7957" lon="4.79828">
        <ele>297</ele>
        <time>2021-08-27T06:06:36.000Z</time>
      </trkpt>
      <trkpt lat="49.79572" lon="4.79828">
        <ele>297</ele>
        <time>2021-08-27T06:06:37.000Z</time>
      </trkpt>
      <trkpt lat="49.79574" lon="4.79828">
        <ele>298</ele>
        <time>2021-08-27T06:06:38.000Z</time>
      </trkpt>
      <trkpt lat="49.79577" lon="4.79828">
        <ele>298</ele>
        <time>2021-08-27T06:06:39.000Z</time>
      </trkpt>
      <trkpt lat="49.7958" lon="4.79827">
        <ele>298</ele>
        <time>2021-08-27T06:06:40.000Z</time>
      </trkpt>
      <trkpt lat="49.79583" lon="4.79827">
        <ele>299</ele>
        <time>2021-08-27T06:06:41.000Z</time>
      </trkpt>
      <trkpt lat="49.79586" lon="4.79826">
        <ele>299</ele>
        <time>2021-08-27T06:06:42.000Z</time>
      </trkpt>
      <trkpt lat="49.79589" lon="4.79826">
        <ele>299</ele>
        <time>2021-08-27T06:06:43.000Z</time>
      </trkpt>
      <trkpt lat="49.79593" lon="4.79825">
        <ele>300</ele>
        <time>2021-08-27T06:06:44.000Z</time>
      </trkpt>
      <trkpt lat="49.79596" lon="4.79825">
        <ele>300</ele>
        <time>2021-08-27T06:06:45.000Z</time>
      </trkpt>
      <trkpt lat="49.79599" lon="4.79825">
        <ele>300</ele>
        <time>2021-08-27T06:06:46.000Z</time>
      </trkpt>
      <trkpt lat="49.79601" lon="4.79824">
        <ele>300</ele>
        <time>2021-08-27T06:06:47.000Z</time>
      </trkpt>
      <trkpt lat="49.79604" lon="4.79824">
        <ele>300</ele>
        <time>2021-08-27T06:06:48.000Z</time>
      </trkpt>
      <trkpt lat="49.79606" lon="4.79823">
        <ele>301</ele>
        <time>2021-08-27T06:06:49.000Z</time>
      </trkpt>
      <trkpt lat="49.79609" lon="4.79823">
        <ele>301</ele>
        <time>2021-08-27T06:06:50.000Z</time>
      </trkpt>
      <trkpt lat="49.79612" lon="4.79823">
        <ele>301</ele>
        <time>2021-08-27T06:06:51.000Z</time>
      </trkpt>
      <trkpt lat="49.79614" lon="4.79822">
        <ele>302</ele>
        <time>2021-08-27T06:06:52.000Z</time>
      </trkpt>
      <trkpt lat="49.79617" lon="4.79822">
        <ele>302</ele>
        <time>2021-08-27T06:06:53.000Z</time>
      </trkpt>
      <trkpt lat="49.7962" lon="4.79822">
        <ele>302</ele>
        <time>2021-08-27T06:06:54.000Z</time>
      </trkpt>
      <trkpt lat="49.79621" lon="4.79822">
        <ele>302</ele>
        <time>2021-08-27T06:06:55.000Z</time>
      </trkpt>
      <trkpt lat="49.79623" lon="4.79821">
        <ele>303</ele>
        <time>2021-08-27T06:06:56.000Z</time>
      </trkpt>
      <trkpt lat="49.79625" lon="4.79821">
        <ele>303</ele>
        <time>2021-08-27T06:06:57.000Z</time>
      </trkpt>
      <trkpt lat="49.79627" lon="4.79821">
        <ele>303</ele>
        <time>2021-08-27T06:06:58.000Z</time>
      </trkpt>
      <trkpt lat="49.79629" lon="4.79821">
        <ele>303</ele>
        <time>2021-08-27T06:06:59.000Z</time>
      </trkpt>
      <trkpt lat="49.79631" lon="4.7982">
        <ele>304</ele>
        <time>2021-08-27T06:07:00.000Z</time>
      </trkpt>
      <trkpt lat="49.79634" lon="4.7982">
        <ele>304</ele>
        <time>2021-08-27T06:07:01.000Z</time>
      </trkpt>
      <trkpt lat="49.79637" lon="4.7982">
        <ele>304</ele>
        <time>2021-08-27T06:07:02.000Z</time>
      </trkpt>
      <trkpt lat="49.7964" lon="4.79819">
        <ele>304</ele>
        <time>2021-08-27T06:07:03.000Z</time>
      </trkpt>
      <trkpt lat="49.79643" lon="4.79819">
        <ele>304</ele>
        <time>2021-08-27T06:07:04.000Z</time>
      </trkpt>
      <trkpt lat="49.79646" lon="4.79819">
        <ele>304</ele>
        <time>2021-08-27T06:07:05.000Z</time>
      </trkpt>
      <trkpt lat="49.7965" lon="4.79819">
        <ele>305</ele>
        <time>2021-08-27T06:07:06.000Z</time>
      </trkpt>
      <trkpt lat="49.79654" lon="4.79819">
        <ele>305</ele>
        <time>2021-08-27T06:07:07.000Z</time>
      </trkpt>
      <trkpt lat="49.79657" lon="4.7982">
        <ele>305</ele>
        <time>2021-08-27T06:07:08.000Z</time>
      </trkpt>
      <trkpt lat="49.79661" lon="4.79819">
        <ele>305</ele>
        <time>2021-08-27T06:07:09.000Z</time>
      </trkpt>
      <trkpt lat="49.79665" lon="4.79819">
        <ele>305</ele>
        <time>2021-08-27T06:07:10.000Z</time>
      </trkpt>
      <trkpt lat="49.79669" lon="4.7982">
        <ele>306</ele>
        <time>2021-08-27T06:07:11.000Z</time>
      </trkpt>
      <trkpt lat="49.79673" lon="4.7982">
        <ele>306</ele>
        <time>2021-08-27T06:07:12.000Z</time>
      </trkpt>
      <trkpt lat="49.79676" lon="4.79819">
        <ele>306</ele>
        <time>2021-08-27T06:07:13.000Z</time>
      </trkpt>
      <trkpt lat="49.7968" lon="4.79819">
        <ele>306</ele>
        <time>2021-08-27T06:07:14.000Z</time>
      </trkpt>
      <trkpt lat="49.79683" lon="4.79819">
        <ele>306</ele>
        <time>2021-08-27T06:07:15.000Z</time>
      </trkpt>
      <trkpt lat="49.79686" lon="4.79818">
        <ele>306</ele>
        <time>2021-08-27T06:07:16.000Z</time>
      </trkpt>
      <trkpt lat="49.79689" lon="4.79818">
        <ele>306</ele>
        <time>2021-08-27T06:07:17.000Z</time>
      </trkpt>
      <trkpt lat="49.7969" lon="4.79818">
        <ele>306</ele>
        <time>2021-08-27T06:07:18.000Z</time>
      </trkpt>
      <trkpt lat="49.79692" lon="4.79818">
        <ele>306</ele>
        <time>2021-08-27T06:07:19.000Z</time>
      </trkpt>
      <trkpt lat="49.79692" lon="4.79817">
        <ele>306</ele>
        <time>2021-08-27T06:07:20.000Z</time>
      </trkpt>
      <trkpt lat="49.79693" lon="4.79817">
        <ele>306</ele>
        <time>2021-08-27T06:07:21.000Z</time>
      </trkpt>
      <trkpt lat="49.79693" lon="4.79817">
        <ele>307</ele>
        <time>2021-08-27T06:07:22.000Z</time>
      </trkpt>
      <trkpt lat="49.79693" lon="4.79817">
        <ele>307</ele>
        <time>2021-08-27T06:07:23.000Z</time>
      </trkpt>
      <trkpt lat="49.79693" lon="4.79816">
        <ele>307</ele>
        <time>2021-08-27T06:07:24.000Z</time>
      </trkpt>
      <trkpt lat="49.79694" lon="4.79816">
        <ele>307</ele>
        <time>2021-08-27T06:07:25.000Z</time>
      </trkpt>
      <trkpt lat="49.79694" lon="4.79816">
        <ele>307</ele>
        <time>2021-08-27T06:07:26.000Z</time>
      </trkpt>
      <trkpt lat="49.79694" lon="4.79816">
        <ele>307</ele>
        <time>2021-08-27T06:07:27.000Z</time>
      </trkpt>
      <trkpt lat="49.79694" lon="4.79815">
        <ele>308</ele>
        <time>2021-08-27T06:07:28.000Z</time>
      </trkpt>
      <trkpt lat="49.79694" lon="4.79815">
        <ele>308</ele>
        <time>2021-08-27T06:07:29.000Z</time>
      </trkpt>
      <trkpt lat="49.79694" lon="4.79814">
        <ele>308</ele>
        <time>2021-08-27T06:07:30.000Z</time>
      </trkpt>
      <trkpt lat="49.79694" lon="4.79814">
        <ele>308</ele>
        <time>2021-08-27T06:07:31.000Z</time>
      </trkpt>
      <trkpt lat="49.79694" lon="4.79814">
        <ele>308</ele>
        <time>2021-08-27T06:07:32.000Z</time>
      </trkpt>
      <trkpt lat="49.79695" lon="4.79813">
        <ele>309</ele>
        <time>2021-08-27T06:07:33.000Z</time>
      </trkpt>
      <trkpt lat="49.79695" lon="4.79813">
        <ele>309</ele>
        <time>2021-08-27T06:07:34.000Z</time>
      </trkpt>
      <trkpt lat="49.79695" lon="4.79812">
        <ele>309</ele>
        <time>2021-08-27T06:07:35.000Z</time>
      </trkpt>
      <trkpt lat="49.79695" lon="4.79812">
        <ele>309</ele>
        <time>2021-08-27T06:07:36.000Z</time>
      </trkpt>
      <trkpt lat="49.79695" lon="4.79812">
        <ele>309</ele>
        <time>2021-08-27T06:07:37.000Z</time>
      </trkpt>
      <trkpt lat="49.79696" lon="4.79811">
        <ele>310</ele>
        <time>2021-08-27T06:07:38.000Z</time>
      </trkpt>
      <trkpt lat="49.79696" lon="4.79811">
        <ele>310</ele>
        <time>2021-08-27T06:07:39.000Z</time>
      </trkpt>
      <trkpt lat="49.79696" lon="4.79811">
        <ele>310</ele>
        <time>2021-08-27T06:07:40.000Z</time>
      </trkpt>
      <trkpt lat="49.79696" lon="4.79811">
        <ele>310</ele>
        <time>2021-08-27T06:07:41.000Z</time>
      </trkpt>
      <trkpt lat="49.79696" lon="4.79811">
        <ele>310</ele>
        <time>2021-08-27T06:07:42.000Z</time>
      </trkpt>
      <trkpt lat="49.79696" lon="4.79811">
        <ele>310</ele>
        <time>2021-08-27T06:07:43.000Z</time>
      </trkpt>
      <trkpt lat="49.79697" lon="4.79811">
        <ele>310</ele>
        <time>2021-08-27T06:07:44.000Z</time>
      </trkpt>
      <trkpt lat="49.79696" lon="4.79811">
        <ele>310</ele>
        <time>2021-08-27T06:07:45.000Z</time>
      </trkpt>
      <trkpt lat="49.79696" lon="4.7981">
        <ele>310</ele>
        <time>2021-08-27T06:07:46.000Z</time>
      </trkpt>
      <trkpt lat="49.79696" lon="4.7981">
        <ele>310</ele>
        <time>2021-08-27T06:07:47.000Z</time>
      </trkpt>
      <trkpt lat="49.79696" lon="4.7981">
        <ele>311</ele>
        <time>2021-08-27T06:07:48.000Z</time>
      </trkpt>
      <trkpt lat="49.79697" lon="4.7981">
        <ele>311</ele>
        <time>2021-08-27T06:07:49.000Z</time>
      </trkpt>
      <trkpt lat="49.79697" lon="4.7981">
        <ele>311</ele>
        <time>2021-08-27T06:07:50.000Z</time>
      </trkpt>
      <trkpt lat="49.79697" lon="4.79811">
        <ele>311</ele>
        <time>2021-08-27T06:07:51.000Z</time>
      </trkpt>
      <trkpt lat="49.79697" lon="4.79811">
        <ele>311</ele>
        <time>2021-08-27T06:07:52.000Z</time>
      </trkpt>
      <trkpt lat="49.79697" lon="4.79811">
        <ele>311</ele>
        <time>2021-08-27T06:07:53.000Z</time>
      </trkpt>
      <trkpt lat="49.79697" lon="4.79812">
        <ele>311</ele>
        <time>2021-08-27T06:07:54.000Z</time>
      </trkpt>
      <trkpt lat="49.79698" lon="4.79813">
        <ele>311</ele>
        <time>2021-08-27T06:07:55.000Z</time>
      </trkpt>
      <trkpt lat="49.79698" lon="4.79813">
        <ele>311</ele>
        <time>2021-08-27T06:07:56.000Z</time>
      </trkpt>
      <trkpt lat="49.79698" lon="4.79814">
        <ele>310</ele>
        <time>2021-08-27T06:07:57.000Z</time>
      </trkpt>
      <trkpt lat="49.79699" lon="4.79815">
        <ele>310</ele>
        <time>2021-08-27T06:07:58.000Z</time>
      </trkpt>
      <trkpt lat="49.79699" lon="4.79815">
        <ele>310</ele>
        <time>2021-08-27T06:07:59.000Z</time>
      </trkpt>
      <trkpt lat="49.797" lon="4.79816">
        <ele>310</ele>
        <time>2021-08-27T06:08:00.000Z</time>
      </trkpt>
      <trkpt lat="49.79701" lon="4.79816">
        <ele>310</ele>
        <time>2021-08-27T06:08:01.000Z</time>
      </trkpt>
      <trkpt lat="49.79703" lon="4.79816">
        <ele>309</ele>
        <time>2021-08-27T06:08:02.000Z</time>
      </trkpt>
      <trkpt lat="49.79705" lon="4.79816">
        <ele>309</ele>
        <time>2021-08-27T06:08:03.000Z</time>
      </trkpt>
      <trkpt lat="49.79708" lon="4.79817">
        <ele>309</ele>
        <time>2021-08-27T06:08:04.000Z</time>
      </trkpt>
      <trkpt lat="49.79711" lon="4.79817">
        <ele>309</ele>
        <time>2021-08-27T06:08:05.000Z</time>
      </trkpt>
      <trkpt lat="49.79714" lon="4.79817">
        <ele>309</ele>
        <time>2021-08-27T06:08:06.000Z</time>
      </trkpt>
      <trkpt lat="49.79717" lon="4.79817">
        <ele>309</ele>
        <time>2021-08-27T06:08:07.000Z</time>
      </trkpt>
      <trkpt lat="49.7972" lon="4.79817">
        <ele>309</ele>
        <time>2021-08-27T06:08:08.000Z</time>
      </trkpt>
      <trkpt lat="49.79723" lon="4.79817">
        <ele>309</ele>
        <time>2021-08-27T06:08:09.000Z</time>
      </trkpt>
      <trkpt lat="49.79726" lon="4.79816">
        <ele>309</ele>
        <time>2021-08-27T06:08:10.000Z</time>
      </trkpt>
      <trkpt lat="49.79728" lon="4.79816">
        <ele>310</ele>
        <time>2021-08-27T06:08:11.000Z</time>
      </trkpt>
      <trkpt lat="49.79731" lon="4.79816">
        <ele>310</ele>
        <time>2021-08-27T06:08:12.000Z</time>
      </trkpt>
      <trkpt lat="49.79734" lon="4.79816">
        <ele>310</ele>
        <time>2021-08-27T06:08:13.000Z</time>
      </trkpt>
      <trkpt lat="49.79738" lon="4.79815">
        <ele>310</ele>
        <time>2021-08-27T06:08:14.000Z</time>
      </trkpt>
      <trkpt lat="49.79741" lon="4.79815">
        <ele>309</ele>
        <time>2021-08-27T06:08:15.000Z</time>
      </trkpt>
      <trkpt lat="49.79745" lon="4.79814">
        <ele>309</ele>
        <time>2021-08-27T06:08:16.000Z</time>
      </trkpt>
      <trkpt lat="49.79748" lon="4.79814">
        <ele>309</ele>
        <time>2021-08-27T06:08:17.000Z</time>
      </trkpt>
      <trkpt lat="49.79752" lon="4.79813">
        <ele>309</ele>
        <time>2021-08-27T06:08:18.000Z</time>
      </trkpt>
      <trkpt lat="49.79756" lon="4.79813">
        <ele>309</ele>
        <time>2021-08-27T06:08:19.000Z</time>
      </trkpt>
      <trkpt lat="49.79759" lon="4.79813">
        <ele>309</ele>
        <time>2021-08-27T06:08:20.000Z</time>
      </trkpt>
      <trkpt lat="49.79763" lon="4.79813">
        <ele>309</ele>
        <time>2021-08-27T06:08:21.000Z</time>
      </trkpt>
      <trkpt lat="49.79768" lon="4.79813">
        <ele>309</ele>
        <time>2021-08-27T06:08:22.000Z</time>
      </trkpt>
      <trkpt lat="49.79771" lon="4.79813">
        <ele>309</ele>
        <time>2021-08-27T06:08:23.000Z</time>
      </trkpt>
      <trkpt lat="49.79776" lon="4.79812">
        <ele>309</ele>
        <time>2021-08-27T06:08:24.000Z</time>
      </trkpt>
      <trkpt lat="49.7978" lon="4.79812">
        <ele>308</ele>
        <time>2021-08-27T06:08:25.000Z</time>
      </trkpt>
      <trkpt lat="49.79784" lon="4.79811">
        <ele>308</ele>
        <time>2021-08-27T06:08:26.000Z</time>
      </trkpt>
      <trkpt lat="49.79789" lon="4.79811">
        <ele>308</ele>
        <time>2021-08-27T06:08:27.000Z</time>
      </trkpt>
      <trkpt lat="49.79794" lon="4.79812">
        <ele>308</ele>
        <time>2021-08-27T06:08:28.000Z</time>
      </trkpt>
      <trkpt lat="49.79799" lon="4.79812">
        <ele>308</ele>
        <time>2021-08-27T06:08:29.000Z</time>
      </trkpt>
      <trkpt lat="49.79805" lon="4.79811">
        <ele>308</ele>
        <time>2021-08-27T06:08:30.000Z</time>
      </trkpt>
      <trkpt lat="49.7981" lon="4.79811">
        <ele>308</ele>
        <time>2021-08-27T06:08:31.000Z</time>
      </trkpt>
      <trkpt lat="49.79816" lon="4.79811">
        <ele>308</ele>
        <time>2021-08-27T06:08:32.000Z</time>
      </trkpt>
      <trkpt lat="49.79822" lon="4.79811">
        <ele>308</ele>
        <time>2021-08-27T06:08:33.000Z</time>
      </trkpt>
      <trkpt lat="49.79827" lon="4.79811">
        <ele>308</ele>
        <time>2021-08-27T06:08:34.000Z</time>
      </trkpt>
      <trkpt lat="49.79832" lon="4.7981">
        <ele>307</ele>
        <time>2021-08-27T06:08:35.000Z</time>
      </trkpt>
      <trkpt lat="49.79838" lon="4.7981">
        <ele>307</ele>
        <time>2021-08-27T06:08:36.000Z</time>
      </trkpt>
      <trkpt lat="49.79843" lon="4.79809">
        <ele>307</ele>
        <time>2021-08-27T06:08:37.000Z</time>
      </trkpt>
      <trkpt lat="49.79849" lon="4.79809">
        <ele>307</ele>
        <time>2021-08-27T06:08:38.000Z</time>
      </trkpt>
      <trkpt lat="49.79855" lon="4.79809">
        <ele>307</ele>
        <time>2021-08-27T06:08:39.000Z</time>
      </trkpt>
      <trkpt lat="49.7986" lon="4.79809">
        <ele>307</ele>
        <time>2021-08-27T06:08:40.000Z</time>
      </trkpt>
      <trkpt lat="49.79865" lon="4.79808">
        <ele>307</ele>
        <time>2021-08-27T06:08:41.000Z</time>
      </trkpt>
      <trkpt lat="49.79869" lon="4.79808">
        <ele>307</ele>
        <time>2021-08-27T06:08:42.000Z</time>
      </trkpt>
      <trkpt lat="49.79873" lon="4.79809">
        <ele>307</ele>
        <time>2021-08-27T06:08:43.000Z</time>
      </trkpt>
      <trkpt lat="49.79878" lon="4.79809">
        <ele>307</ele>
        <time>2021-08-27T06:08:44.000Z</time>
      </trkpt>
      <trkpt lat="49.79883" lon="4.79808">
        <ele>307</ele>
        <time>2021-08-27T06:08:45.000Z</time>
      </trkpt>
      <trkpt lat="49.79888" lon="4.79805">
        <ele>306</ele>
        <time>2021-08-27T06:08:46.000Z</time>
      </trkpt>
      <trkpt lat="49.79892" lon="4.79803">
        <ele>306</ele>
        <time>2021-08-27T06:08:47.000Z</time>
      </trkpt>
      <trkpt lat="49.79896" lon="4.79802">
        <ele>306</ele>
        <time>2021-08-27T06:08:48.000Z</time>
      </trkpt>
      <trkpt lat="49.79901" lon="4.79802">
        <ele>306</ele>
        <time>2021-08-27T06:08:49.000Z</time>
      </trkpt>
      <trkpt lat="49.79906" lon="4.79801">
        <ele>306</ele>
        <time>2021-08-27T06:08:50.000Z</time>
      </trkpt>
      <trkpt lat="49.79912" lon="4.79801">
        <ele>306</ele>
        <time>2021-08-27T06:08:51.000Z</time>
      </trkpt>
      <trkpt lat="49.79917" lon="4.798">
        <ele>306</ele>
        <time>2021-08-27T06:08:52.000Z</time>
      </trkpt>
      <trkpt lat="49.79923" lon="4.798">
        <ele>306</ele>
        <time>2021-08-27T06:08:53.000Z</time>
      </trkpt>
      <trkpt lat="49.79929" lon="4.798">
        <ele>306</ele>
        <time>2021-08-27T06:08:54.000Z</time>
      </trkpt>
      <trkpt lat="49.79934" lon="4.79799">
        <ele>306</ele>
        <time>2021-08-27T06:08:55.000Z</time>
      </trkpt>
      <trkpt lat="49.79939" lon="4.79798">
        <ele>306</ele>
        <time>2021-08-27T06:08:56.000Z</time>
      </trkpt>
      <trkpt lat="49.79945" lon="4.79798">
        <ele>306</ele>
        <time>2021-08-27T06:08:57.000Z</time>
      </trkpt>
      <trkpt lat="49.7995" lon="4.79797">
        <ele>306</ele>
        <time>2021-08-27T06:08:58.000Z</time>
      </trkpt>
      <trkpt lat="49.79955" lon="4.79797">
        <ele>306</ele>
        <time>2021-08-27T06:08:59.000Z</time>
      </trkpt>
      <trkpt lat="49.7996" lon="4.79797">
        <ele>306</ele>
        <time>2021-08-27T06:09:00.000Z</time>
      </trkpt>
      <trkpt lat="49.79965" lon="4.79797">
        <ele>306</ele>
        <time>2021-08-27T06:09:01.000Z</time>
      </trkpt>
      <trkpt lat="49.79971" lon="4.79796">
        <ele>306</ele>
        <time>2021-08-27T06:09:02.000Z</time>
      </trkpt>
      <trkpt lat="49.79976" lon="4.79795">
        <ele>306</ele>
        <time>2021-08-27T06:09:03.000Z</time>
      </trkpt>
      <trkpt lat="49.79982" lon="4.79795">
        <ele>307</ele>
        <time>2021-08-27T06:09:04.000Z</time>
      </trkpt>
      <trkpt lat="49.79988" lon="4.79795">
        <ele>307</ele>
        <time>2021-08-27T06:09:05.000Z</time>
      </trkpt>
      <trkpt lat="49.79993" lon="4.79795">
        <ele>307</ele>
        <time>2021-08-27T06:09:06.000Z</time>
      </trkpt>
      <trkpt lat="49.79999" lon="4.79795">
        <ele>307</ele>
        <time>2021-08-27T06:09:07.000Z</time>
      </trkpt>
      <trkpt lat="49.80004" lon="4.79795">
        <ele>307</ele>
        <time>2021-08-27T06:09:08.000Z</time>
      </trkpt>
      <trkpt lat="49.80009" lon="4.79794">
        <ele>307</ele>
        <time>2021-08-27T06:09:09.000Z</time>
      </trkpt>
      <trkpt lat="49.80014" lon="4.79794">
        <ele>307</ele>
        <time>2021-08-27T06:09:10.000Z</time>
      </trkpt>
      <trkpt lat="49.80018" lon="4.79793">
        <ele>307</ele>
        <time>2021-08-27T06:09:11.000Z</time>
      </trkpt>
      <trkpt lat="49.80023" lon="4.79793">
        <ele>307</ele>
        <time>2021-08-27T06:09:12.000Z</time>
      </trkpt>
      <trkpt lat="49.80028" lon="4.79793">
        <ele>307</ele>
        <time>2021-08-27T06:09:13.000Z</time>
      </trkpt>
      <trkpt lat="49.80033" lon="4.79793">
        <ele>307</ele>
        <time>2021-08-27T06:09:14.000Z</time>
      </trkpt>
      <trkpt lat="49.80039" lon="4.79791">
        <ele>307</ele>
        <time>2021-08-27T06:09:15.000Z</time>
      </trkpt>
      <trkpt lat="49.80045" lon="4.7979">
        <ele>307</ele>
        <time>2021-08-27T06:09:16.000Z</time>
      </trkpt>
      <trkpt lat="49.8005" lon="4.79789">
        <ele>307</ele>
        <time>2021-08-27T06:09:17.000Z</time>
      </trkpt>
      <trkpt lat="49.80055" lon="4.79789">
        <ele>307</ele>
        <time>2021-08-27T06:09:18.000Z</time>
      </trkpt>
      <trkpt lat="49.8006" lon="4.79789">
        <ele>306</ele>
        <time>2021-08-27T06:09:19.000Z</time>
      </trkpt>
      <trkpt lat="49.80064" lon="4.79789">
        <ele>306</ele>
        <time>2021-08-27T06:09:20.000Z</time>
      </trkpt>
      <trkpt lat="49.80067" lon="4.79789">
        <ele>306</ele>
        <time>2021-08-27T06:09:21.000Z</time>
      </trkpt>
      <trkpt lat="49.80071" lon="4.79789">
        <ele>306</ele>
        <time>2021-08-27T06:09:22.000Z</time>
      </trkpt>
      <trkpt lat="49.80075" lon="4.79787">
        <ele>306</ele>
        <time>2021-08-27T06:09:23.000Z</time>
      </trkpt>
      <trkpt lat="49.80079" lon="4.79786">
        <ele>305</ele>
        <time>2021-08-27T06:09:24.000Z</time>
      </trkpt>
      <trkpt lat="49.80084" lon="4.79785">
        <ele>305</ele>
        <time>2021-08-27T06:09:25.000Z</time>
      </trkpt>
      <trkpt lat="49.80089" lon="4.79785">
        <ele>305</ele>
        <time>2021-08-27T06:09:26.000Z</time>
      </trkpt>
      <trkpt lat="49.80095" lon="4.79785">
        <ele>305</ele>
        <time>2021-08-27T06:09:27.000Z</time>
      </trkpt>
      <trkpt lat="49.801" lon="4.79784">
        <ele>305</ele>
        <time>2021-08-27T06:09:28.000Z</time>
      </trkpt>
      <trkpt lat="49.80106" lon="4.79783">
        <ele>305</ele>
        <time>2021-08-27T06:09:29.000Z</time>
      </trkpt>
      <trkpt lat="49.80111" lon="4.79783">
        <ele>304</ele>
        <time>2021-08-27T06:09:30.000Z</time>
      </trkpt>
      <trkpt lat="49.80117" lon="4.79782">
        <ele>304</ele>
        <time>2021-08-27T06:09:31.000Z</time>
      </trkpt>
      <trkpt lat="49.80122" lon="4.79781">
        <ele>304</ele>
        <time>2021-08-27T06:09:32.000Z</time>
      </trkpt>
      <trkpt lat="49.80128" lon="4.79781">
        <ele>304</ele>
        <time>2021-08-27T06:09:33.000Z</time>
      </trkpt>
      <trkpt lat="49.80133" lon="4.7978">
        <ele>304</ele>
        <time>2021-08-27T06:09:34.000Z</time>
      </trkpt>
      <trkpt lat="49.80139" lon="4.79779">
        <ele>304</ele>
        <time>2021-08-27T06:09:35.000Z</time>
      </trkpt>
      <trkpt lat="49.80143" lon="4.79779">
        <ele>304</ele>
        <time>2021-08-27T06:09:36.000Z</time>
      </trkpt>
      <trkpt lat="49.80147" lon="4.79778">
        <ele>304</ele>
        <time>2021-08-27T06:09:37.000Z</time>
      </trkpt>
      <trkpt lat="49.80151" lon="4.79777">
        <ele>303</ele>
        <time>2021-08-27T06:09:38.000Z</time>
      </trkpt>
      <trkpt lat="49.80155" lon="4.79777">
        <ele>303</ele>
        <time>2021-08-27T06:09:39.000Z</time>
      </trkpt>
      <trkpt lat="49.80159" lon="4.79776">
        <ele>303</ele>
        <time>2021-08-27T06:09:40.000Z</time>
      </trkpt>
      <trkpt lat="49.80161" lon="4.79777">
        <ele>303</ele>
        <time>2021-08-27T06:09:41.000Z</time>
      </trkpt>
      <trkpt lat="49.80163" lon="4.79778">
        <ele>303</ele>
        <time>2021-08-27T06:09:42.000Z</time>
      </trkpt>
      <trkpt lat="49.80166" lon="4.7978">
        <ele>303</ele>
        <time>2021-08-27T06:09:43.000Z</time>
      </trkpt>
      <trkpt lat="49.80168" lon="4.79783">
        <ele>303</ele>
        <time>2021-08-27T06:09:44.000Z</time>
      </trkpt>
      <trkpt lat="49.80169" lon="4.79786">
        <ele>302</ele>
        <time>2021-08-27T06:09:45.000Z</time>
      </trkpt>
      <trkpt lat="49.80171" lon="4.7979">
        <ele>302</ele>
        <time>2021-08-27T06:09:46.000Z</time>
      </trkpt>
      <trkpt lat="49.80173" lon="4.79793">
        <ele>302</ele>
        <time>2021-08-27T06:09:47.000Z</time>
      </trkpt>
      <trkpt lat="49.80175" lon="4.79797">
        <ele>301</ele>
        <time>2021-08-27T06:09:48.000Z</time>
      </trkpt>
      <trkpt lat="49.80176" lon="4.79801">
        <ele>301</ele>
        <time>2021-08-27T06:09:49.000Z</time>
      </trkpt>
      <trkpt lat="49.80178" lon="4.79805">
        <ele>301</ele>
        <time>2021-08-27T06:09:50.000Z</time>
      </trkpt>
      <trkpt lat="49.8018" lon="4.79808">
        <ele>300</ele>
        <time>2021-08-27T06:09:51.000Z</time>
      </trkpt>
      <trkpt lat="49.80182" lon="4.79812">
        <ele>300</ele>
        <time>2021-08-27T06:09:52.000Z</time>
      </trkpt>
      <trkpt lat="49.80184" lon="4.79816">
        <ele>300</ele>
        <time>2021-08-27T06:09:53.000Z</time>
      </trkpt>
      <trkpt lat="49.80185" lon="4.79818">
        <ele>299</ele>
        <time>2021-08-27T06:09:54.000Z</time>
      </trkpt>
      <trkpt lat="49.80187" lon="4.79818">
        <ele>299</ele>
        <time>2021-08-27T06:09:55.000Z</time>
      </trkpt>
      <trkpt lat="49.8019" lon="4.79818">
        <ele>299</ele>
        <time>2021-08-27T06:09:56.000Z</time>
      </trkpt>
      <trkpt lat="49.80193" lon="4.79818">
        <ele>298</ele>
        <time>2021-08-27T06:09:57.000Z</time>
      </trkpt>
      <trkpt lat="49.80195" lon="4.79818">
        <ele>298</ele>
        <time>2021-08-27T06:09:58.000Z</time>
      </trkpt>
      <trkpt lat="49.80198" lon="4.79818">
        <ele>298</ele>
        <time>2021-08-27T06:09:59.000Z</time>
      </trkpt>
      <trkpt lat="49.80199" lon="4.79819">
        <ele>298</ele>
        <time>2021-08-27T06:10:00.000Z</time>
      </trkpt>
      <trkpt lat="49.80202" lon="4.79818">
        <ele>298</ele>
        <time>2021-08-27T06:10:01.000Z</time>
      </trkpt>
      <trkpt lat="49.80204" lon="4.79818">
        <ele>297</ele>
        <time>2021-08-27T06:10:02.000Z</time>
      </trkpt>
      <trkpt lat="49.80207" lon="4.79818">
        <ele>297</ele>
        <time>2021-08-27T06:10:03.000Z</time>
      </trkpt>
      <trkpt lat="49.8021" lon="4.79818">
        <ele>297</ele>
        <time>2021-08-27T06:10:04.000Z</time>
      </trkpt>
      <trkpt lat="49.80214" lon="4.79818">
        <ele>297</ele>
        <time>2021-08-27T06:10:05.000Z</time>
      </trkpt>
      <trkpt lat="49.80217" lon="4.79818">
        <ele>297</ele>
        <time>2021-08-27T06:10:06.000Z</time>
      </trkpt>
      <trkpt lat="49.8022" lon="4.79818">
        <ele>297</ele>
        <time>2021-08-27T06:10:07.000Z</time>
      </trkpt>
      <trkpt lat="49.80223" lon="4.79818">
        <ele>297</ele>
        <time>2021-08-27T06:10:08.000Z</time>
      </trkpt>
      <trkpt lat="49.80226" lon="4.79819">
        <ele>297</ele>
        <time>2021-08-27T06:10:09.000Z</time>
      </trkpt>
      <trkpt lat="49.80228" lon="4.7982">
        <ele>297</ele>
        <time>2021-08-27T06:10:10.000Z</time>
      </trkpt>
      <trkpt lat="49.80231" lon="4.7982">
        <ele>297</ele>
        <time>2021-08-27T06:10:11.000Z</time>
      </trkpt>
      <trkpt lat="49.80234" lon="4.79821">
        <ele>297</ele>
        <time>2021-08-27T06:10:12.000Z</time>
      </trkpt>
      <trkpt lat="49.80237" lon="4.79822">
        <ele>297</ele>
        <time>2021-08-27T06:10:13.000Z</time>
      </trkpt>
      <trkpt lat="49.8024" lon="4.79823">
        <ele>297</ele>
        <time>2021-08-27T06:10:14.000Z</time>
      </trkpt>
      <trkpt lat="49.80243" lon="4.79823">
        <ele>297</ele>
        <time>2021-08-27T06:10:15.000Z</time>
      </trkpt>
      <trkpt lat="49.80247" lon="4.79823">
        <ele>297</ele>
        <time>2021-08-27T06:10:16.000Z</time>
      </trkpt>
      <trkpt lat="49.8025" lon="4.79824">
        <ele>297</ele>
        <time>2021-08-27T06:10:17.000Z</time>
      </trkpt>
      <trkpt lat="49.80253" lon="4.79824">
        <ele>297</ele>
        <time>2021-08-27T06:10:18.000Z</time>
      </trkpt>
      <trkpt lat="49.80256" lon="4.79825">
        <ele>297</ele>
        <time>2021-08-27T06:10:19.000Z</time>
      </trkpt>
      <trkpt lat="49.80259" lon="4.79826">
        <ele>297</ele>
        <time>2021-08-27T06:10:20.000Z</time>
      </trkpt>
      <trkpt lat="49.80261" lon="4.79826">
        <ele>297</ele>
        <time>2021-08-27T06:10:21.000Z</time>
      </trkpt>
      <trkpt lat="49.80264" lon="4.79827">
        <ele>297</ele>
        <time>2021-08-27T06:10:22.000Z</time>
      </trkpt>
      <trkpt lat="49.80266" lon="4.79828">
        <ele>297</ele>
        <time>2021-08-27T06:10:23.000Z</time>
      </trkpt>
      <trkpt lat="49.80269" lon="4.79829">
        <ele>297</ele>
        <time>2021-08-27T06:10:24.000Z</time>
      </trkpt>
      <trkpt lat="49.8027" lon="4.7983">
        <ele>297</ele>
        <time>2021-08-27T06:10:25.000Z</time>
      </trkpt>
      <trkpt lat="49.80272" lon="4.79831">
        <ele>297</ele>
        <time>2021-08-27T06:10:26.000Z</time>
      </trkpt>
      <trkpt lat="49.80274" lon="4.79831">
        <ele>297</ele>
        <time>2021-08-27T06:10:27.000Z</time>
      </trkpt>
      <trkpt lat="49.80277" lon="4.79832">
        <ele>297</ele>
        <time>2021-08-27T06:10:28.000Z</time>
      </trkpt>
      <trkpt lat="49.80279" lon="4.79832">
        <ele>297</ele>
        <time>2021-08-27T06:10:29.000Z</time>
      </trkpt>
      <trkpt lat="49.80282" lon="4.79832">
        <ele>297</ele>
        <time>2021-08-27T06:10:30.000Z</time>
      </trkpt>
      <trkpt lat="49.80284" lon="4.79833">
        <ele>297</ele>
        <time>2021-08-27T06:10:31.000Z</time>
      </trkpt>
      <trkpt lat="49.80286" lon="4.79834">
        <ele>297</ele>
        <time>2021-08-27T06:10:32.000Z</time>
      </trkpt>
      <trkpt lat="49.80288" lon="4.79835">
        <ele>297</ele>
        <time>2021-08-27T06:10:33.000Z</time>
      </trkpt>
      <trkpt lat="49.80289" lon="4.79837">
        <ele>297</ele>
        <time>2021-08-27T06:10:34.000Z</time>
      </trkpt>
      <trkpt lat="49.80291" lon="4.79838">
        <ele>297</ele>
        <time>2021-08-27T06:10:35.000Z</time>
      </trkpt>
      <trkpt lat="49.80292" lon="4.7984">
        <ele>297</ele>
        <time>2021-08-27T06:10:36.000Z</time>
      </trkpt>
      <trkpt lat="49.80293" lon="4.79843">
        <ele>297</ele>
        <time>2021-08-27T06:10:37.000Z</time>
      </trkpt>
      <trkpt lat="49.80294" lon="4.79844">
        <ele>297</ele>
        <time>2021-08-27T06:10:38.000Z</time>
      </trkpt>
      <trkpt lat="49.80295" lon="4.79846">
        <ele>297</ele>
        <time>2021-08-27T06:10:39.000Z</time>
      </trkpt>
      <trkpt lat="49.80297" lon="4.79848">
        <ele>297</ele>
        <time>2021-08-27T06:10:40.000Z</time>
      </trkpt>
      <trkpt lat="49.80298" lon="4.79849">
        <ele>297</ele>
        <time>2021-08-27T06:10:41.000Z</time>
      </trkpt>
      <trkpt lat="49.80299" lon="4.79851">
        <ele>297</ele>
        <time>2021-08-27T06:10:42.000Z</time>
      </trkpt>
      <trkpt lat="49.80301" lon="4.79853">
        <ele>297</ele>
        <time>2021-08-27T06:10:43.000Z</time>
      </trkpt>
      <trkpt lat="49.80303" lon="4.79856">
        <ele>297</ele>
        <time>2021-08-27T06:10:44.000Z</time>
      </trkpt>
      <trkpt lat="49.80305" lon="4.79858">
        <ele>297</ele>
        <time>2021-08-27T06:10:45.000Z</time>
      </trkpt>
      <trkpt lat="49.80307" lon="4.79861">
        <ele>297</ele>
        <time>2021-08-27T06:10:46.000Z</time>
      </trkpt>
      <trkpt lat="49.80309" lon="4.79864">
        <ele>297</ele>
        <time>2021-08-27T06:10:47.000Z</time>
      </trkpt>
      <trkpt lat="49.80311" lon="4.79867">
        <ele>297</ele>
        <time>2021-08-27T06:10:48.000Z</time>
      </trkpt>
      <trkpt lat="49.80311" lon="4.79871">
        <ele>297</ele>
        <time>2021-08-27T06:10:49.000Z</time>
      </trkpt>
      <trkpt lat="49.80311" lon="4.79877">
        <ele>297</ele>
        <time>2021-08-27T06:10:50.000Z</time>
      </trkpt>
      <trkpt lat="49.8031" lon="4.79881">
        <ele>296</ele>
        <time>2021-08-27T06:10:51.000Z</time>
      </trkpt>
      <trkpt lat="49.8031" lon="4.79885">
        <ele>296</ele>
        <time>2021-08-27T06:10:52.000Z</time>
      </trkpt>
      <trkpt lat="49.8031" lon="4.7989">
        <ele>296</ele>
        <time>2021-08-27T06:10:53.000Z</time>
      </trkpt>
      <trkpt lat="49.80309" lon="4.79894">
        <ele>296</ele>
        <time>2021-08-27T06:10:54.000Z</time>
      </trkpt>
      <trkpt lat="49.80309" lon="4.79899">
        <ele>296</ele>
        <time>2021-08-27T06:10:55.000Z</time>
      </trkpt>
      <trkpt lat="49.80309" lon="4.79903">
        <ele>296</ele>
        <time>2021-08-27T06:10:56.000Z</time>
      </trkpt>
      <trkpt lat="49.80309" lon="4.79908">
        <ele>296</ele>
        <time>2021-08-27T06:10:57.000Z</time>
      </trkpt>
      <trkpt lat="49.80309" lon="4.79913">
        <ele>296</ele>
        <time>2021-08-27T06:10:58.000Z</time>
      </trkpt>
      <trkpt lat="49.80309" lon="4.79918">
        <ele>296</ele>
        <time>2021-08-27T06:10:59.000Z</time>
      </trkpt>
      <trkpt lat="49.80308" lon="4.79923">
        <ele>296</ele>
        <time>2021-08-27T06:11:00.000Z</time>
      </trkpt>
      <trkpt lat="49.80308" lon="4.79928">
        <ele>296</ele>
        <time>2021-08-27T06:11:01.000Z</time>
      </trkpt>
      <trkpt lat="49.80308" lon="4.79932">
        <ele>296</ele>
        <time>2021-08-27T06:11:02.000Z</time>
      </trkpt>
      <trkpt lat="49.80307" lon="4.79937">
        <ele>296</ele>
        <time>2021-08-27T06:11:03.000Z</time>
      </trkpt>
      <trkpt lat="49.80307" lon="4.79943">
        <ele>296</ele>
        <time>2021-08-27T06:11:04.000Z</time>
      </trkpt>
      <trkpt lat="49.80306" lon="4.79948">
        <ele>296</ele>
        <time>2021-08-27T06:11:05.000Z</time>
      </trkpt>
      <trkpt lat="49.80305" lon="4.79954">
        <ele>296</ele>
        <time>2021-08-27T06:11:06.000Z</time>
      </trkpt>
      <trkpt lat="49.80304" lon="4.7996">
        <ele>296</ele>
        <time>2021-08-27T06:11:07.000Z</time>
      </trkpt>
      <trkpt lat="49.80303" lon="4.79966">
        <ele>296</ele>
        <time>2021-08-27T06:11:08.000Z</time>
      </trkpt>
      <trkpt lat="49.80303" lon="4.79972">
        <ele>296</ele>
        <time>2021-08-27T06:11:09.000Z</time>
      </trkpt>
      <trkpt lat="49.80302" lon="4.79978">
        <ele>296</ele>
        <time>2021-08-27T06:11:10.000Z</time>
      </trkpt>
      <trkpt lat="49.80302" lon="4.79983">
        <ele>295</ele>
        <time>2021-08-27T06:11:11.000Z</time>
      </trkpt>
      <trkpt lat="49.80302" lon="4.79989">
        <ele>295</ele>
        <time>2021-08-27T06:11:12.000Z</time>
      </trkpt>
      <trkpt lat="49.803" lon="4.79995">
        <ele>295</ele>
        <time>2021-08-27T06:11:13.000Z</time>
      </trkpt>
      <trkpt lat="49.80299" lon="4.80001">
        <ele>295</ele>
        <time>2021-08-27T06:11:14.000Z</time>
      </trkpt>
      <trkpt lat="49.80298" lon="4.80007">
        <ele>295</ele>
        <time>2021-08-27T06:11:15.000Z</time>
      </trkpt>
      <trkpt lat="49.80297" lon="4.80013">
        <ele>295</ele>
        <time>2021-08-27T06:11:16.000Z</time>
      </trkpt>
      <trkpt lat="49.80296" lon="4.80019">
        <ele>295</ele>
        <time>2021-08-27T06:11:17.000Z</time>
      </trkpt>
      <trkpt lat="49.80297" lon="4.80025">
        <ele>295</ele>
        <time>2021-08-27T06:11:18.000Z</time>
      </trkpt>
      <trkpt lat="49.80297" lon="4.80031">
        <ele>295</ele>
        <time>2021-08-27T06:11:19.000Z</time>
      </trkpt>
      <trkpt lat="49.80298" lon="4.80038">
        <ele>294</ele>
        <time>2021-08-27T06:11:20.000Z</time>
      </trkpt>
      <trkpt lat="49.803" lon="4.80045">
        <ele>294</ele>
        <time>2021-08-27T06:11:21.000Z</time>
      </trkpt>
      <trkpt lat="49.80301" lon="4.80053">
        <ele>294</ele>
        <time>2021-08-27T06:11:22.000Z</time>
      </trkpt>
      <trkpt lat="49.80303" lon="4.8006">
        <ele>294</ele>
        <time>2021-08-27T06:11:23.000Z</time>
      </trkpt>
      <trkpt lat="49.80305" lon="4.80067">
        <ele>294</ele>
        <time>2021-08-27T06:11:24.000Z</time>
      </trkpt>
      <trkpt lat="49.80306" lon="4.80073">
        <ele>294</ele>
        <time>2021-08-27T06:11:25.000Z</time>
      </trkpt>
      <trkpt lat="49.80308" lon="4.80081">
        <ele>293</ele>
        <time>2021-08-27T06:11:26.000Z</time>
      </trkpt>
      <trkpt lat="49.80309" lon="4.80088">
        <ele>293</ele>
        <time>2021-08-27T06:11:27.000Z</time>
      </trkpt>
      <trkpt lat="49.8031" lon="4.80095">
        <ele>293</ele>
        <time>2021-08-27T06:11:28.000Z</time>
      </trkpt>
      <trkpt lat="49.80312" lon="4.80103">
        <ele>293</ele>
        <time>2021-08-27T06:11:29.000Z</time>
      </trkpt>
      <trkpt lat="49.80314" lon="4.8011">
        <ele>293</ele>
        <time>2021-08-27T06:11:30.000Z</time>
      </trkpt>
      <trkpt lat="49.80316" lon="4.80116">
        <ele>293</ele>
        <time>2021-08-27T06:11:31.000Z</time>
      </trkpt>
      <trkpt lat="49.80317" lon="4.80123">
        <ele>292</ele>
        <time>2021-08-27T06:11:32.000Z</time>
      </trkpt>
      <trkpt lat="49.80318" lon="4.8013">
        <ele>292</ele>
        <time>2021-08-27T06:11:33.000Z</time>
      </trkpt>
      <trkpt lat="49.80321" lon="4.80136">
        <ele>292</ele>
        <time>2021-08-27T06:11:34.000Z</time>
      </trkpt>
      <trkpt lat="49.80324" lon="4.80143">
        <ele>292</ele>
        <time>2021-08-27T06:11:35.000Z</time>
      </trkpt>
      <trkpt lat="49.80325" lon="4.8015">
        <ele>291</ele>
        <time>2021-08-27T06:11:36.000Z</time>
      </trkpt>
      <trkpt lat="49.80326" lon="4.80158">
        <ele>291</ele>
        <time>2021-08-27T06:11:37.000Z</time>
      </trkpt>
      <trkpt lat="49.80326" lon="4.80165">
        <ele>291</ele>
        <time>2021-08-27T06:11:38.000Z</time>
      </trkpt>
      <trkpt lat="49.80327" lon="4.80173">
        <ele>290</ele>
        <time>2021-08-27T06:11:39.000Z</time>
      </trkpt>
      <trkpt lat="49.80328" lon="4.80181">
        <ele>290</ele>
        <time>2021-08-27T06:11:40.000Z</time>
      </trkpt>
      <trkpt lat="49.80328" lon="4.80189">
        <ele>290</ele>
        <time>2021-08-27T06:11:41.000Z</time>
      </trkpt>
      <trkpt lat="49.80328" lon="4.80197">
        <ele>289</ele>
        <time>2021-08-27T06:11:42.000Z</time>
      </trkpt>
      <trkpt lat="49.80328" lon="4.80204">
        <ele>289</ele>
        <time>2021-08-27T06:11:43.000Z</time>
      </trkpt>
      <trkpt lat="49.80329" lon="4.8021">
        <ele>289</ele>
        <time>2021-08-27T06:11:44.000Z</time>
      </trkpt>
      <trkpt lat="49.80329" lon="4.80218">
        <ele>289</ele>
        <time>2021-08-27T06:11:45.000Z</time>
      </trkpt>
      <trkpt lat="49.80329" lon="4.80226">
        <ele>288</ele>
        <time>2021-08-27T06:11:46.000Z</time>
      </trkpt>
      <trkpt lat="49.80329" lon="4.80234">
        <ele>288</ele>
        <time>2021-08-27T06:11:47.000Z</time>
      </trkpt>
      <trkpt lat="49.80329" lon="4.80242">
        <ele>288</ele>
        <time>2021-08-27T06:11:48.000Z</time>
      </trkpt>
      <trkpt lat="49.80329" lon="4.80249">
        <ele>288</ele>
        <time>2021-08-27T06:11:49.000Z</time>
      </trkpt>
      <trkpt lat="49.80328" lon="4.80256">
        <ele>287</ele>
        <time>2021-08-27T06:11:50.000Z</time>
      </trkpt>
      <trkpt lat="49.80326" lon="4.80261">
        <ele>287</ele>
        <time>2021-08-27T06:11:51.000Z</time>
      </trkpt>
      <trkpt lat="49.80325" lon="4.80267">
        <ele>287</ele>
        <time>2021-08-27T06:11:52.000Z</time>
      </trkpt>
      <trkpt lat="49.80323" lon="4.80273">
        <ele>286</ele>
        <time>2021-08-27T06:11:53.000Z</time>
      </trkpt>
      <trkpt lat="49.8032" lon="4.80279">
        <ele>286</ele>
        <time>2021-08-27T06:11:54.000Z</time>
      </trkpt>
      <trkpt lat="49.80317" lon="4.80287">
        <ele>286</ele>
        <time>2021-08-27T06:11:55.000Z</time>
      </trkpt>
      <trkpt lat="49.80314" lon="4.80295">
        <ele>285</ele>
        <time>2021-08-27T06:11:56.000Z</time>
      </trkpt>
      <trkpt lat="49.80311" lon="4.80304">
        <ele>285</ele>
        <time>2021-08-27T06:11:57.000Z</time>
      </trkpt>
      <trkpt lat="49.80308" lon="4.80311">
        <ele>285</ele>
        <time>2021-08-27T06:11:58.000Z</time>
      </trkpt>
      <trkpt lat="49.80306" lon="4.80319">
        <ele>284</ele>
        <time>2021-08-27T06:11:59.000Z</time>
      </trkpt>
      <trkpt lat="49.80305" lon="4.80326">
        <ele>284</ele>
        <time>2021-08-27T06:12:00.000Z</time>
      </trkpt>
      <trkpt lat="49.80303" lon="4.80332">
        <ele>284</ele>
        <time>2021-08-27T06:12:01.000Z</time>
      </trkpt>
      <trkpt lat="49.80301" lon="4.80338">
        <ele>283</ele>
        <time>2021-08-27T06:12:02.000Z</time>
      </trkpt>
      <trkpt lat="49.80299" lon="4.80344">
        <ele>283</ele>
        <time>2021-08-27T06:12:03.000Z</time>
      </trkpt>
      <trkpt lat="49.80297" lon="4.80348">
        <ele>283</ele>
        <time>2021-08-27T06:12:04.000Z</time>
      </trkpt>
      <trkpt lat="49.80294" lon="4.80351">
        <ele>282</ele>
        <time>2021-08-27T06:12:05.000Z</time>
      </trkpt>
      <trkpt lat="49.80292" lon="4.80352">
        <ele>282</ele>
        <time>2021-08-27T06:12:06.000Z</time>
      </trkpt>
      <trkpt lat="49.8029" lon="4.80355">
        <ele>282</ele>
        <time>2021-08-27T06:12:07.000Z</time>
      </trkpt>
      <trkpt lat="49.80289" lon="4.80359">
        <ele>281</ele>
        <time>2021-08-27T06:12:08.000Z</time>
      </trkpt>
      <trkpt lat="49.80288" lon="4.80363">
        <ele>281</ele>
        <time>2021-08-27T06:12:09.000Z</time>
      </trkpt>
      <trkpt lat="49.80288" lon="4.80368">
        <ele>281</ele>
        <time>2021-08-27T06:12:10.000Z</time>
      </trkpt>
      <trkpt lat="49.80287" lon="4.80371">
        <ele>281</ele>
        <time>2021-08-27T06:12:11.000Z</time>
      </trkpt>
      <trkpt lat="49.80287" lon="4.80375">
        <ele>280</ele>
        <time>2021-08-27T06:12:12.000Z</time>
      </trkpt>
      <trkpt lat="49.80286" lon="4.8038">
        <ele>280</ele>
        <time>2021-08-27T06:12:13.000Z</time>
      </trkpt>
      <trkpt lat="49.80284" lon="4.80383">
        <ele>280</ele>
        <time>2021-08-27T06:12:14.000Z</time>
      </trkpt>
      <trkpt lat="49.80282" lon="4.80387">
        <ele>280</ele>
        <time>2021-08-27T06:12:15.000Z</time>
      </trkpt>
      <trkpt lat="49.80279" lon="4.80389">
        <ele>279</ele>
        <time>2021-08-27T06:12:16.000Z</time>
      </trkpt>
      <trkpt lat="49.80277" lon="4.80392">
        <ele>279</ele>
        <time>2021-08-27T06:12:17.000Z</time>
      </trkpt>
      <trkpt lat="49.80275" lon="4.80394">
        <ele>279</ele>
        <time>2021-08-27T06:12:18.000Z</time>
      </trkpt>
      <trkpt lat="49.80273" lon="4.80397">
        <ele>278</ele>
        <time>2021-08-27T06:12:19.000Z</time>
      </trkpt>
      <trkpt lat="49.80272" lon="4.80399">
        <ele>278</ele>
        <time>2021-08-27T06:12:20.000Z</time>
      </trkpt>
      <trkpt lat="49.8027" lon="4.804">
        <ele>278</ele>
        <time>2021-08-27T06:12:21.000Z</time>
      </trkpt>
      <trkpt lat="49.80269" lon="4.80401">
        <ele>278</ele>
        <time>2021-08-27T06:12:22.000Z</time>
      </trkpt>
      <trkpt lat="49.80267" lon="4.80403">
        <ele>278</ele>
        <time>2021-08-27T06:12:23.000Z</time>
      </trkpt>
      <trkpt lat="49.80266" lon="4.80404">
        <ele>278</ele>
        <time>2021-08-27T06:12:24.000Z</time>
      </trkpt>
      <trkpt lat="49.80264" lon="4.80405">
        <ele>278</ele>
        <time>2021-08-27T06:12:25.000Z</time>
      </trkpt>
      <trkpt lat="49.80263" lon="4.80406">
        <ele>278</ele>
        <time>2021-08-27T06:12:26.000Z</time>
      </trkpt>
      <trkpt lat="49.80262" lon="4.80408">
        <ele>278</ele>
        <time>2021-08-27T06:12:27.000Z</time>
      </trkpt>
      <trkpt lat="49.80262" lon="4.8041">
        <ele>277</ele>
        <time>2021-08-27T06:12:28.000Z</time>
      </trkpt>
      <trkpt lat="49.80262" lon="4.80413">
        <ele>277</ele>
        <time>2021-08-27T06:12:29.000Z</time>
      </trkpt>
      <trkpt lat="49.80262" lon="4.80415">
        <ele>277</ele>
        <time>2021-08-27T06:12:30.000Z</time>
      </trkpt>
      <trkpt lat="49.80263" lon="4.80417">
        <ele>277</ele>
        <time>2021-08-27T06:12:31.000Z</time>
      </trkpt>
      <trkpt lat="49.80263" lon="4.80419">
        <ele>277</ele>
        <time>2021-08-27T06:12:32.000Z</time>
      </trkpt>
      <trkpt lat="49.80262" lon="4.80421">
        <ele>277</ele>
        <time>2021-08-27T06:12:33.000Z</time>
      </trkpt>
      <trkpt lat="49.80262" lon="4.80423">
        <ele>277</ele>
        <time>2021-08-27T06:12:34.000Z</time>
      </trkpt>
      <trkpt lat="49.80261" lon="4.80425">
        <ele>277</ele>
        <time>2021-08-27T06:12:35.000Z</time>
      </trkpt>
      <trkpt lat="49.80261" lon="4.80428">
        <ele>277</ele>
        <time>2021-08-27T06:12:36.000Z</time>
      </trkpt>
      <trkpt lat="49.8026" lon="4.8043">
        <ele>277</ele>
        <time>2021-08-27T06:12:37.000Z</time>
      </trkpt>
      <trkpt lat="49.8026" lon="4.80431">
        <ele>277</ele>
        <time>2021-08-27T06:12:38.000Z</time>
      </trkpt>
      <trkpt lat="49.80259" lon="4.80433">
        <ele>277</ele>
        <time>2021-08-27T06:12:39.000Z</time>
      </trkpt>
      <trkpt lat="49.80259" lon="4.80435">
        <ele>277</ele>
        <time>2021-08-27T06:12:40.000Z</time>
      </trkpt>
      <trkpt lat="49.80258" lon="4.80437">
        <ele>277</ele>
        <time>2021-08-27T06:12:41.000Z</time>
      </trkpt>
      <trkpt lat="49.80258" lon="4.8044">
        <ele>277</ele>
        <time>2021-08-27T06:12:42.000Z</time>
      </trkpt>
      <trkpt lat="49.80258" lon="4.80442">
        <ele>277</ele>
        <time>2021-08-27T06:12:43.000Z</time>
      </trkpt>
      <trkpt lat="49.80257" lon="4.80444">
        <ele>276</ele>
        <time>2021-08-27T06:12:44.000Z</time>
      </trkpt>
      <trkpt lat="49.80257" lon="4.80446">
        <ele>276</ele>
        <time>2021-08-27T06:12:45.000Z</time>
      </trkpt>
      <trkpt lat="49.80257" lon="4.80448">
        <ele>276</ele>
        <time>2021-08-27T06:12:46.000Z</time>
      </trkpt>
      <trkpt lat="49.80257" lon="4.8045">
        <ele>276</ele>
        <time>2021-08-27T06:12:47.000Z</time>
      </trkpt>
      <trkpt lat="49.80257" lon="4.80452">
        <ele>276</ele>
        <time>2021-08-27T06:12:48.000Z</time>
      </trkpt>
      <trkpt lat="49.80257" lon="4.80454">
        <ele>276</ele>
        <time>2021-08-27T06:12:49.000Z</time>
      </trkpt>
      <trkpt lat="49.80257" lon="4.80457">
        <ele>275</ele>
        <time>2021-08-27T06:12:50.000Z</time>
      </trkpt>
      <trkpt lat="49.80256" lon="4.80459">
        <ele>275</ele>
        <time>2021-08-27T06:12:51.000Z</time>
      </trkpt>
      <trkpt lat="49.80256" lon="4.8046">
        <ele>275</ele>
        <time>2021-08-27T06:12:52.000Z</time>
      </trkpt>
      <trkpt lat="49.80256" lon="4.80462">
        <ele>275</ele>
        <time>2021-08-27T06:12:53.000Z</time>
      </trkpt>
      <trkpt lat="49.80255" lon="4.80464">
        <ele>275</ele>
        <time>2021-08-27T06:12:54.000Z</time>
      </trkpt>
      <trkpt lat="49.80255" lon="4.80467">
        <ele>275</ele>
        <time>2021-08-27T06:12:55.000Z</time>
      </trkpt>
      <trkpt lat="49.80255" lon="4.80469">
        <ele>275</ele>
        <time>2021-08-27T06:12:56.000Z</time>
      </trkpt>
      <trkpt lat="49.80255" lon="4.80472">
        <ele>275</ele>
        <time>2021-08-27T06:12:57.000Z</time>
      </trkpt>
      <trkpt lat="49.80255" lon="4.80474">
        <ele>274</ele>
        <time>2021-08-27T06:12:58.000Z</time>
      </trkpt>
      <trkpt lat="49.80255" lon="4.80477">
        <ele>274</ele>
        <time>2021-08-27T06:12:59.000Z</time>
      </trkpt>
      <trkpt lat="49.80254" lon="4.80479">
        <ele>274</ele>
        <time>2021-08-27T06:13:00.000Z</time>
      </trkpt>
      <trkpt lat="49.80254" lon="4.80481">
        <ele>274</ele>
        <time>2021-08-27T06:13:01.000Z</time>
      </trkpt>
      <trkpt lat="49.80253" lon="4.80484">
        <ele>274</ele>
        <time>2021-08-27T06:13:02.000Z</time>
      </trkpt>
      <trkpt lat="49.80253" lon="4.80487">
        <ele>273</ele>
        <time>2021-08-27T06:13:03.000Z</time>
      </trkpt>
      <trkpt lat="49.80253" lon="4.80489">
        <ele>273</ele>
        <time>2021-08-27T06:13:04.000Z</time>
      </trkpt>
      <trkpt lat="49.80252" lon="4.80492">
        <ele>273</ele>
        <time>2021-08-27T06:13:05.000Z</time>
      </trkpt>
      <trkpt lat="49.80252" lon="4.80496">
        <ele>272</ele>
        <time>2021-08-27T06:13:06.000Z</time>
      </trkpt>
      <trkpt lat="49.80252" lon="4.805">
        <ele>272</ele>
        <time>2021-08-27T06:13:07.000Z</time>
      </trkpt>
      <trkpt lat="49.80252" lon="4.80503">
        <ele>272</ele>
        <time>2021-08-27T06:13:08.000Z</time>
      </trkpt>
      <trkpt lat="49.80251" lon="4.80506">
        <ele>272</ele>
        <time>2021-08-27T06:13:09.000Z</time>
      </trkpt>
      <trkpt lat="49.80251" lon="4.80509">
        <ele>272</ele>
        <time>2021-08-27T06:13:10.000Z</time>
      </trkpt>
      <trkpt lat="49.80252" lon="4.80512">
        <ele>271</ele>
        <time>2021-08-27T06:13:11.000Z</time>
      </trkpt>
      <trkpt lat="49.80252" lon="4.80515">
        <ele>271</ele>
        <time>2021-08-27T06:13:12.000Z</time>
      </trkpt>
      <trkpt lat="49.80252" lon="4.80518">
        <ele>271</ele>
        <time>2021-08-27T06:13:13.000Z</time>
      </trkpt>
      <trkpt lat="49.80252" lon="4.80521">
        <ele>271</ele>
        <time>2021-08-27T06:13:14.000Z</time>
      </trkpt>
      <trkpt lat="49.80252" lon="4.80524">
        <ele>271</ele>
        <time>2021-08-27T06:13:15.000Z</time>
      </trkpt>
      <trkpt lat="49.80251" lon="4.80527">
        <ele>271</ele>
        <time>2021-08-27T06:13:16.000Z</time>
      </trkpt>
      <trkpt lat="49.80251" lon="4.8053">
        <ele>271</ele>
        <time>2021-08-27T06:13:17.000Z</time>
      </trkpt>
      <trkpt lat="49.80251" lon="4.80533">
        <ele>271</ele>
        <time>2021-08-27T06:13:18.000Z</time>
      </trkpt>
      <trkpt lat="49.80251" lon="4.80536">
        <ele>271</ele>
        <time>2021-08-27T06:13:19.000Z</time>
      </trkpt>
      <trkpt lat="49.80251" lon="4.8054">
        <ele>271</ele>
        <time>2021-08-27T06:13:20.000Z</time>
      </trkpt>
      <trkpt lat="49.80251" lon="4.80543">
        <ele>271</ele>
        <time>2021-08-27T06:13:21.000Z</time>
      </trkpt>
      <trkpt lat="49.80251" lon="4.80546">
        <ele>271</ele>
        <time>2021-08-27T06:13:22.000Z</time>
      </trkpt>
      <trkpt lat="49.80251" lon="4.80549">
        <ele>272</ele>
        <time>2021-08-27T06:13:23.000Z</time>
      </trkpt>
      <trkpt lat="49.80252" lon="4.80553">
        <ele>272</ele>
        <time>2021-08-27T06:13:24.000Z</time>
      </trkpt>
      <trkpt lat="49.80252" lon="4.80556">
        <ele>272</ele>
        <time>2021-08-27T06:13:25.000Z</time>
      </trkpt>
      <trkpt lat="49.80252" lon="4.80559">
        <ele>272</ele>
        <time>2021-08-27T06:13:26.000Z</time>
      </trkpt>
      <trkpt lat="49.80252" lon="4.80562">
        <ele>272</ele>
        <time>2021-08-27T06:13:27.000Z</time>
      </trkpt>
      <trkpt lat="49.80251" lon="4.80566">
        <ele>272</ele>
        <time>2021-08-27T06:13:28.000Z</time>
      </trkpt>
      <trkpt lat="49.80251" lon="4.80569">
        <ele>272</ele>
        <time>2021-08-27T06:13:29.000Z</time>
      </trkpt>
      <trkpt lat="49.8025" lon="4.80572">
        <ele>272</ele>
        <time>2021-08-27T06:13:30.000Z</time>
      </trkpt>
      <trkpt lat="49.8025" lon="4.80576">
        <ele>272</ele>
        <time>2021-08-27T06:13:31.000Z</time>
      </trkpt>
      <trkpt lat="49.80249" lon="4.80579">
        <ele>272</ele>
        <time>2021-08-27T06:13:32.000Z</time>
      </trkpt>
      <trkpt lat="49.80249" lon="4.80582">
        <ele>272</ele>
        <time>2021-08-27T06:13:33.000Z</time>
      </trkpt>
      <trkpt lat="49.80249" lon="4.80585">
        <ele>272</ele>
        <time>2021-08-27T06:13:34.000Z</time>
      </trkpt>
      <trkpt lat="49.80249" lon="4.80588">
        <ele>272</ele>
        <time>2021-08-27T06:13:35.000Z</time>
      </trkpt>
      <trkpt lat="49.80249" lon="4.80592">
        <ele>273</ele>
        <time>2021-08-27T06:13:36.000Z</time>
      </trkpt>
      <trkpt lat="49.80249" lon="4.80595">
        <ele>273</ele>
        <time>2021-08-27T06:13:37.000Z</time>
      </trkpt>
      <trkpt lat="49.80248" lon="4.80599">
        <ele>273</ele>
        <time>2021-08-27T06:13:38.000Z</time>
      </trkpt>
      <trkpt lat="49.80248" lon="4.80602">
        <ele>273</ele>
        <time>2021-08-27T06:13:39.000Z</time>
      </trkpt>
      <trkpt lat="49.80248" lon="4.80606">
        <ele>273</ele>
        <time>2021-08-27T06:13:40.000Z</time>
      </trkpt>
      <trkpt lat="49.80247" lon="4.80609">
        <ele>273</ele>
        <time>2021-08-27T06:13:41.000Z</time>
      </trkpt>
      <trkpt lat="49.80247" lon="4.80613">
        <ele>274</ele>
        <time>2021-08-27T06:13:42.000Z</time>
      </trkpt>
      <trkpt lat="49.80247" lon="4.80616">
        <ele>274</ele>
        <time>2021-08-27T06:13:43.000Z</time>
      </trkpt>
      <trkpt lat="49.80246" lon="4.8062">
        <ele>274</ele>
        <time>2021-08-27T06:13:44.000Z</time>
      </trkpt>
      <trkpt lat="49.80246" lon="4.80623">
        <ele>274</ele>
        <time>2021-08-27T06:13:45.000Z</time>
      </trkpt>
      <trkpt lat="49.80245" lon="4.80626">
        <ele>274</ele>
        <time>2021-08-27T06:13:46.000Z</time>
      </trkpt>
      <trkpt lat="49.80244" lon="4.80629">
        <ele>274</ele>
        <time>2021-08-27T06:13:47.000Z</time>
      </trkpt>
      <trkpt lat="49.80244" lon="4.80633">
        <ele>275</ele>
        <time>2021-08-27T06:13:48.000Z</time>
      </trkpt>
      <trkpt lat="49.80244" lon="4.80636">
        <ele>275</ele>
        <time>2021-08-27T06:13:49.000Z</time>
      </trkpt>
      <trkpt lat="49.80244" lon="4.8064">
        <ele>275</ele>
        <time>2021-08-27T06:13:50.000Z</time>
      </trkpt>
      <trkpt lat="49.80244" lon="4.80644">
        <ele>275</ele>
        <time>2021-08-27T06:13:51.000Z</time>
      </trkpt>
      <trkpt lat="49.80243" lon="4.80647">
        <ele>275</ele>
        <time>2021-08-27T06:13:52.000Z</time>
      </trkpt>
      <trkpt lat="49.80242" lon="4.80651">
        <ele>275</ele>
        <time>2021-08-27T06:13:53.000Z</time>
      </trkpt>
      <trkpt lat="49.80242" lon="4.80656">
        <ele>275</ele>
        <time>2021-08-27T06:13:54.000Z</time>
      </trkpt>
      <trkpt lat="49.80241" lon="4.8066">
        <ele>275</ele>
        <time>2021-08-27T06:13:55.000Z</time>
      </trkpt>
      <trkpt lat="49.80241" lon="4.80665">
        <ele>275</ele>
        <time>2021-08-27T06:13:56.000Z</time>
      </trkpt>
      <trkpt lat="49.8024" lon="4.80669">
        <ele>275</ele>
        <time>2021-08-27T06:13:57.000Z</time>
      </trkpt>
      <trkpt lat="49.8024" lon="4.80674">
        <ele>276</ele>
        <time>2021-08-27T06:13:58.000Z</time>
      </trkpt>
      <trkpt lat="49.80239" lon="4.80679">
        <ele>276</ele>
        <time>2021-08-27T06:13:59.000Z</time>
      </trkpt>
      <trkpt lat="49.80238" lon="4.80684">
        <ele>276</ele>
        <time>2021-08-27T06:14:00.000Z</time>
      </trkpt>
      <trkpt lat="49.80237" lon="4.8069">
        <ele>276</ele>
        <time>2021-08-27T06:14:01.000Z</time>
      </trkpt>
      <trkpt lat="49.80236" lon="4.80695">
        <ele>276</ele>
        <time>2021-08-27T06:14:02.000Z</time>
      </trkpt>
      <trkpt lat="49.80235" lon="4.80701">
        <ele>276</ele>
        <time>2021-08-27T06:14:03.000Z</time>
      </trkpt>
      <trkpt lat="49.80235" lon="4.80707">
        <ele>276</ele>
        <time>2021-08-27T06:14:04.000Z</time>
      </trkpt>
      <trkpt lat="49.80235" lon="4.80713">
        <ele>276</ele>
        <time>2021-08-27T06:14:05.000Z</time>
      </trkpt>
      <trkpt lat="49.80234" lon="4.80719">
        <ele>276</ele>
        <time>2021-08-27T06:14:06.000Z</time>
      </trkpt>
      <trkpt lat="49.80235" lon="4.80726">
        <ele>276</ele>
        <time>2021-08-27T06:14:07.000Z</time>
      </trkpt>
      <trkpt lat="49.80235" lon="4.80732">
        <ele>276</ele>
        <time>2021-08-27T06:14:08.000Z</time>
      </trkpt>
      <trkpt lat="49.80235" lon="4.80739">
        <ele>276</ele>
        <time>2021-08-27T06:14:09.000Z</time>
      </trkpt>
      <trkpt lat="49.80235" lon="4.80746">
        <ele>277</ele>
        <time>2021-08-27T06:14:10.000Z</time>
      </trkpt>
      <trkpt lat="49.80235" lon="4.80752">
        <ele>277</ele>
        <time>2021-08-27T06:14:11.000Z</time>
      </trkpt>
      <trkpt lat="49.80235" lon="4.80759">
        <ele>277</ele>
        <time>2021-08-27T06:14:12.000Z</time>
      </trkpt>
      <trkpt lat="49.80235" lon="4.80766">
        <ele>277</ele>
        <time>2021-08-27T06:14:13.000Z</time>
      </trkpt>
      <trkpt lat="49.80235" lon="4.80772">
        <ele>277</ele>
        <time>2021-08-27T06:14:14.000Z</time>
      </trkpt>
      <trkpt lat="49.80235" lon="4.80777">
        <ele>277</ele>
        <time>2021-08-27T06:14:15.000Z</time>
      </trkpt>
      <trkpt lat="49.80235" lon="4.80783">
        <ele>277</ele>
        <time>2021-08-27T06:14:16.000Z</time>
      </trkpt>
      <trkpt lat="49.80235" lon="4.80789">
        <ele>277</ele>
        <time>2021-08-27T06:14:17.000Z</time>
      </trkpt>
      <trkpt lat="49.80236" lon="4.80796">
        <ele>277</ele>
        <time>2021-08-27T06:14:18.000Z</time>
      </trkpt>
      <trkpt lat="49.80236" lon="4.80802">
        <ele>277</ele>
        <time>2021-08-27T06:14:19.000Z</time>
      </trkpt>
      <trkpt lat="49.80236" lon="4.80809">
        <ele>277</ele>
        <time>2021-08-27T06:14:20.000Z</time>
      </trkpt>
      <trkpt lat="49.80236" lon="4.80816">
        <ele>277</ele>
        <time>2021-08-27T06:14:21.000Z</time>
      </trkpt>
      <trkpt lat="49.80235" lon="4.80823">
        <ele>276</ele>
        <time>2021-08-27T06:14:22.000Z</time>
      </trkpt>
      <trkpt lat="49.80235" lon="4.8083">
        <ele>276</ele>
        <time>2021-08-27T06:14:23.000Z</time>
      </trkpt>
      <trkpt lat="49.80235" lon="4.80837">
        <ele>276</ele>
        <time>2021-08-27T06:14:24.000Z</time>
      </trkpt>
      <trkpt lat="49.80235" lon="4.80844">
        <ele>276</ele>
        <time>2021-08-27T06:14:25.000Z</time>
      </trkpt>
      <trkpt lat="49.80234" lon="4.80851">
        <ele>276</ele>
        <time>2021-08-27T06:14:26.000Z</time>
      </trkpt>
      <trkpt lat="49.80234" lon="4.80858">
        <ele>275</ele>
        <time>2021-08-27T06:14:27.000Z</time>
      </trkpt>
      <trkpt lat="49.80234" lon="4.80863">
        <ele>275</ele>
        <time>2021-08-27T06:14:28.000Z</time>
      </trkpt>
      <trkpt lat="49.80234" lon="4.80867">
        <ele>275</ele>
        <time>2021-08-27T06:14:29.000Z</time>
      </trkpt>
      <trkpt lat="49.80235" lon="4.80869">
        <ele>275</ele>
        <time>2021-08-27T06:14:30.000Z</time>
      </trkpt>
      <trkpt lat="49.80235" lon="4.8087">
        <ele>274</ele>
        <time>2021-08-27T06:14:31.000Z</time>
      </trkpt>
      <trkpt lat="49.80235" lon="4.8087">
        <ele>274</ele>
        <time>2021-08-27T06:14:32.000Z</time>
      </trkpt>
      <trkpt lat="49.80235" lon="4.80871">
        <ele>274</ele>
        <time>2021-08-27T06:14:33.000Z</time>
      </trkpt>
      <trkpt lat="49.80236" lon="4.80871">
        <ele>274</ele>
        <time>2021-08-27T06:14:34.000Z</time>
      </trkpt>
      <trkpt lat="49.80235" lon="4.80871">
        <ele>274</ele>
        <time>2021-08-27T06:14:35.000Z</time>
      </trkpt>
      <trkpt lat="49.80235" lon="4.80869">
        <ele>274</ele>
        <time>2021-08-27T06:14:36.000Z</time>
      </trkpt>
      <trkpt lat="49.80235" lon="4.80868">
        <ele>273</ele>
        <time>2021-08-27T06:14:37.000Z</time>
      </trkpt>
      <trkpt lat="49.80236" lon="4.80867">
        <ele>273</ele>
        <time>2021-08-27T06:14:38.000Z</time>
      </trkpt>
      <trkpt lat="49.80236" lon="4.80866">
        <ele>273</ele>
        <time>2021-08-27T06:14:39.000Z</time>
      </trkpt>
      <trkpt lat="49.80236" lon="4.80866">
        <ele>273</ele>
        <time>2021-08-27T06:14:40.000Z</time>
      </trkpt>
      <trkpt lat="49.80236" lon="4.80866">
        <ele>273</ele>
        <time>2021-08-27T06:14:41.000Z</time>
      </trkpt>
      <trkpt lat="49.80237" lon="4.80865">
        <ele>273</ele>
        <time>2021-08-27T06:14:42.000Z</time>
      </trkpt>
      <trkpt lat="49.80237" lon="4.80865">
        <ele>273</ele>
        <time>2021-08-27T06:14:43.000Z</time>
      </trkpt>
      <trkpt lat="49.80239" lon="4.80864">
        <ele>273</ele>
        <time>2021-08-27T06:14:44.000Z</time>
      </trkpt>
      <trkpt lat="49.80241" lon="4.80863">
        <ele>272</ele>
        <time>2021-08-27T06:14:45.000Z</time>
      </trkpt>
      <trkpt lat="49.80243" lon="4.80862">
        <ele>272</ele>
        <time>2021-08-27T06:14:46.000Z</time>
      </trkpt>
      <trkpt lat="49.80246" lon="4.80861">
        <ele>272</ele>
        <time>2021-08-27T06:14:47.000Z</time>
      </trkpt>
      <trkpt lat="49.80248" lon="4.80859">
        <ele>272</ele>
        <time>2021-08-27T06:14:48.000Z</time>
      </trkpt>
      <trkpt lat="49.80251" lon="4.80857">
        <ele>272</ele>
        <time>2021-08-27T06:14:49.000Z</time>
      </trkpt>
      <trkpt lat="49.80254" lon="4.80855">
        <ele>272</ele>
        <time>2021-08-27T06:14:50.000Z</time>
      </trkpt>
      <trkpt lat="49.80257" lon="4.80852">
        <ele>272</ele>
        <time>2021-08-27T06:14:51.000Z</time>
      </trkpt>
      <trkpt lat="49.80259" lon="4.80849">
        <ele>272</ele>
        <time>2021-08-27T06:14:52.000Z</time>
      </trkpt>
      <trkpt lat="49.8026" lon="4.80845">
        <ele>272</ele>
        <time>2021-08-27T06:14:53.000Z</time>
      </trkpt>
      <trkpt lat="49.80262" lon="4.80841">
        <ele>272</ele>
        <time>2021-08-27T06:14:54.000Z</time>
      </trkpt>
      <trkpt lat="49.80263" lon="4.80836">
        <ele>272</ele>
        <time>2021-08-27T06:14:55.000Z</time>
      </trkpt>
      <trkpt lat="49.80264" lon="4.80831">
        <ele>271</ele>
        <time>2021-08-27T06:14:56.000Z</time>
      </trkpt>
      <trkpt lat="49.80266" lon="4.80826">
        <ele>271</ele>
        <time>2021-08-27T06:14:57.000Z</time>
      </trkpt>
      <trkpt lat="49.80268" lon="4.80822">
        <ele>271</ele>
        <time>2021-08-27T06:14:58.000Z</time>
      </trkpt>
      <trkpt lat="49.8027" lon="4.80818">
        <ele>271</ele>
        <time>2021-08-27T06:14:59.000Z</time>
      </trkpt>
      <trkpt lat="49.80273" lon="4.80815">
        <ele>271</ele>
        <time>2021-08-27T06:15:00.000Z</time>
      </trkpt>
      <trkpt lat="49.80275" lon="4.8081">
        <ele>271</ele>
        <time>2021-08-27T06:15:01.000Z</time>
      </trkpt>
      <trkpt lat="49.80278" lon="4.80804">
        <ele>271</ele>
        <time>2021-08-27T06:15:02.000Z</time>
      </trkpt>
      <trkpt lat="49.8028" lon="4.80798">
        <ele>271</ele>
        <time>2021-08-27T06:15:03.000Z</time>
      </trkpt>
      <trkpt lat="49.80281" lon="4.80791">
        <ele>271</ele>
        <time>2021-08-27T06:15:04.000Z</time>
      </trkpt>
      <trkpt lat="49.80283" lon="4.80785">
        <ele>270</ele>
        <time>2021-08-27T06:15:05.000Z</time>
      </trkpt>
      <trkpt lat="49.80285" lon="4.80779">
        <ele>270</ele>
        <time>2021-08-27T06:15:06.000Z</time>
      </trkpt>
      <trkpt lat="49.80288" lon="4.80774">
        <ele>270</ele>
        <time>2021-08-27T06:15:07.000Z</time>
      </trkpt>
      <trkpt lat="49.80291" lon="4.8077">
        <ele>270</ele>
        <time>2021-08-27T06:15:08.000Z</time>
      </trkpt>
      <trkpt lat="49.80293" lon="4.80764">
        <ele>270</ele>
        <time>2021-08-27T06:15:09.000Z</time>
      </trkpt>
      <trkpt lat="49.80296" lon="4.80758">
        <ele>269</ele>
        <time>2021-08-27T06:15:10.000Z</time>
      </trkpt>
      <trkpt lat="49.80297" lon="4.80752">
        <ele>269</ele>
        <time>2021-08-27T06:15:11.000Z</time>
      </trkpt>
      <trkpt lat="49.80298" lon="4.80745">
        <ele>269</ele>
        <time>2021-08-27T06:15:12.000Z</time>
      </trkpt>
      <trkpt lat="49.80298" lon="4.80738">
        <ele>269</ele>
        <time>2021-08-27T06:15:13.000Z</time>
      </trkpt>
      <trkpt lat="49.80299" lon="4.80731">
        <ele>269</ele>
        <time>2021-08-27T06:15:14.000Z</time>
      </trkpt>
      <trkpt lat="49.803" lon="4.80724">
        <ele>269</ele>
        <time>2021-08-27T06:15:15.000Z</time>
      </trkpt>
      <trkpt lat="49.803" lon="4.80718">
        <ele>269</ele>
        <time>2021-08-27T06:15:16.000Z</time>
      </trkpt>
      <trkpt lat="49.80302" lon="4.80713">
        <ele>269</ele>
        <time>2021-08-27T06:15:17.000Z</time>
      </trkpt>
      <trkpt lat="49.80303" lon="4.80707">
        <ele>268</ele>
        <time>2021-08-27T06:15:18.000Z</time>
      </trkpt>
      <trkpt lat="49.80305" lon="4.80701">
        <ele>268</ele>
        <time>2021-08-27T06:15:19.000Z</time>
      </trkpt>
      <trkpt lat="49.80308" lon="4.80695">
        <ele>268</ele>
        <time>2021-08-27T06:15:20.000Z</time>
      </trkpt>
      <trkpt lat="49.8031" lon="4.8069">
        <ele>268</ele>
        <time>2021-08-27T06:15:21.000Z</time>
      </trkpt>
      <trkpt lat="49.80312" lon="4.80683">
        <ele>268</ele>
        <time>2021-08-27T06:15:22.000Z</time>
      </trkpt>
      <trkpt lat="49.80315" lon="4.80677">
        <ele>268</ele>
        <time>2021-08-27T06:15:23.000Z</time>
      </trkpt>
      <trkpt lat="49.80318" lon="4.80672">
        <ele>268</ele>
        <time>2021-08-27T06:15:24.000Z</time>
      </trkpt>
      <trkpt lat="49.8032" lon="4.80666">
        <ele>268</ele>
        <time>2021-08-27T06:15:25.000Z</time>
      </trkpt>
      <trkpt lat="49.80322" lon="4.80662">
        <ele>267</ele>
        <time>2021-08-27T06:15:26.000Z</time>
      </trkpt>
      <trkpt lat="49.80325" lon="4.80657">
        <ele>267</ele>
        <time>2021-08-27T06:15:27.000Z</time>
      </trkpt>
      <trkpt lat="49.80327" lon="4.80651">
        <ele>267</ele>
        <time>2021-08-27T06:15:28.000Z</time>
      </trkpt>
      <trkpt lat="49.80329" lon="4.80645">
        <ele>267</ele>
        <time>2021-08-27T06:15:29.000Z</time>
      </trkpt>
      <trkpt lat="49.80332" lon="4.80641">
        <ele>267</ele>
        <time>2021-08-27T06:15:30.000Z</time>
      </trkpt>
      <trkpt lat="49.80334" lon="4.80636">
        <ele>266</ele>
        <time>2021-08-27T06:15:31.000Z</time>
      </trkpt>
      <trkpt lat="49.80337" lon="4.80631">
        <ele>266</ele>
        <time>2021-08-27T06:15:32.000Z</time>
      </trkpt>
      <trkpt lat="49.80339" lon="4.80624">
        <ele>266</ele>
        <time>2021-08-27T06:15:33.000Z</time>
      </trkpt>
      <trkpt lat="49.80342" lon="4.80619">
        <ele>266</ele>
        <time>2021-08-27T06:15:34.000Z</time>
      </trkpt>
      <trkpt lat="49.80345" lon="4.80614">
        <ele>265</ele>
        <time>2021-08-27T06:15:35.000Z</time>
      </trkpt>
      <trkpt lat="49.80348" lon="4.8061">
        <ele>265</ele>
        <time>2021-08-27T06:15:36.000Z</time>
      </trkpt>
      <trkpt lat="49.80351" lon="4.80606">
        <ele>265</ele>
        <time>2021-08-27T06:15:37.000Z</time>
      </trkpt>
      <trkpt lat="49.80353" lon="4.80601">
        <ele>264</ele>
        <time>2021-08-27T06:15:38.000Z</time>
      </trkpt>
      <trkpt lat="49.80355" lon="4.80596">
        <ele>264</ele>
        <time>2021-08-27T06:15:39.000Z</time>
      </trkpt>
      <trkpt lat="49.80356" lon="4.8059">
        <ele>264</ele>
        <time>2021-08-27T06:15:40.000Z</time>
      </trkpt>
      <trkpt lat="49.80358" lon="4.80585">
        <ele>263</ele>
        <time>2021-08-27T06:15:41.000Z</time>
      </trkpt>
      <trkpt lat="49.80359" lon="4.8058">
        <ele>263</ele>
        <time>2021-08-27T06:15:42.000Z</time>
      </trkpt>
      <trkpt lat="49.80361" lon="4.80576">
        <ele>262</ele>
        <time>2021-08-27T06:15:43.000Z</time>
      </trkpt>
      <trkpt lat="49.80364" lon="4.80572">
        <ele>262</ele>
        <time>2021-08-27T06:15:44.000Z</time>
      </trkpt>
      <trkpt lat="49.80367" lon="4.80568">
        <ele>262</ele>
        <time>2021-08-27T06:15:45.000Z</time>
      </trkpt>
      <trkpt lat="49.8037" lon="4.80565">
        <ele>261</ele>
        <time>2021-08-27T06:15:46.000Z</time>
      </trkpt>
      <trkpt lat="49.80373" lon="4.80562">
        <ele>261</ele>
        <time>2021-08-27T06:15:47.000Z</time>
      </trkpt>
      <trkpt lat="49.80376" lon="4.80559">
        <ele>261</ele>
        <time>2021-08-27T06:15:48.000Z</time>
      </trkpt>
      <trkpt lat="49.80378" lon="4.80555">
        <ele>261</ele>
        <time>2021-08-27T06:15:49.000Z</time>
      </trkpt>
      <trkpt lat="49.80382" lon="4.80552">
        <ele>260</ele>
        <time>2021-08-27T06:15:50.000Z</time>
      </trkpt>
      <trkpt lat="49.80385" lon="4.8055">
        <ele>260</ele>
        <time>2021-08-27T06:15:51.000Z</time>
      </trkpt>
      <trkpt lat="49.80389" lon="4.80548">
        <ele>260</ele>
        <time>2021-08-27T06:15:52.000Z</time>
      </trkpt>
      <trkpt lat="49.80393" lon="4.80546">
        <ele>260</ele>
        <time>2021-08-27T06:15:53.000Z</time>
      </trkpt>
      <trkpt lat="49.80395" lon="4.80543">
        <ele>260</ele>
        <time>2021-08-27T06:15:54.000Z</time>
      </trkpt>
      <trkpt lat="49.80397" lon="4.80541">
        <ele>260</ele>
        <time>2021-08-27T06:15:55.000Z</time>
      </trkpt>
      <trkpt lat="49.804" lon="4.80537">
        <ele>260</ele>
        <time>2021-08-27T06:15:56.000Z</time>
      </trkpt>
      <trkpt lat="49.80402" lon="4.80534">
        <ele>260</ele>
        <time>2021-08-27T06:15:57.000Z</time>
      </trkpt>
      <trkpt lat="49.80405" lon="4.8053">
        <ele>260</ele>
        <time>2021-08-27T06:15:58.000Z</time>
      </trkpt>
      <trkpt lat="49.80409" lon="4.80527">
        <ele>259</ele>
        <time>2021-08-27T06:15:59.000Z</time>
      </trkpt>
      <trkpt lat="49.80414" lon="4.80524">
        <ele>259</ele>
        <time>2021-08-27T06:16:00.000Z</time>
      </trkpt>
      <trkpt lat="49.80419" lon="4.80521">
        <ele>259</ele>
        <time>2021-08-27T06:16:01.000Z</time>
      </trkpt>
      <trkpt lat="49.80423" lon="4.80518">
        <ele>259</ele>
        <time>2021-08-27T06:16:02.000Z</time>
      </trkpt>
      <trkpt lat="49.80428" lon="4.80516">
        <ele>259</ele>
        <time>2021-08-27T06:16:03.000Z</time>
      </trkpt>
      <trkpt lat="49.80432" lon="4.80514">
        <ele>259</ele>
        <time>2021-08-27T06:16:04.000Z</time>
      </trkpt>
      <trkpt lat="49.80436" lon="4.80513">
        <ele>259</ele>
        <time>2021-08-27T06:16:05.000Z</time>
      </trkpt>
      <trkpt lat="49.80438" lon="4.80511">
        <ele>259</ele>
        <time>2021-08-27T06:16:06.000Z</time>
      </trkpt>
      <trkpt lat="49.80441" lon="4.8051">
        <ele>259</ele>
        <time>2021-08-27T06:16:07.000Z</time>
      </trkpt>
      <trkpt lat="49.80443" lon="4.80508">
        <ele>258</ele>
        <time>2021-08-27T06:16:08.000Z</time>
      </trkpt>
      <trkpt lat="49.80445" lon="4.80507">
        <ele>258</ele>
        <time>2021-08-27T06:16:09.000Z</time>
      </trkpt>
      <trkpt lat="49.80448" lon="4.80506">
        <ele>258</ele>
        <time>2021-08-27T06:16:10.000Z</time>
      </trkpt>
      <trkpt lat="49.8045" lon="4.80505">
        <ele>258</ele>
        <time>2021-08-27T06:16:11.000Z</time>
      </trkpt>
      <trkpt lat="49.80453" lon="4.80504">
        <ele>257</ele>
        <time>2021-08-27T06:16:12.000Z</time>
      </trkpt>
      <trkpt lat="49.80454" lon="4.80503">
        <ele>257</ele>
        <time>2021-08-27T06:16:13.000Z</time>
      </trkpt>
      <trkpt lat="49.80456" lon="4.80502">
        <ele>257</ele>
        <time>2021-08-27T06:16:14.000Z</time>
      </trkpt>
      <trkpt lat="49.80458" lon="4.80501">
        <ele>256</ele>
        <time>2021-08-27T06:16:15.000Z</time>
      </trkpt>
      <trkpt lat="49.8046" lon="4.80499">
        <ele>256</ele>
        <time>2021-08-27T06:16:16.000Z</time>
      </trkpt>
      <trkpt lat="49.80463" lon="4.80498">
        <ele>255</ele>
        <time>2021-08-27T06:16:17.000Z</time>
      </trkpt>
      <trkpt lat="49.80466" lon="4.80496">
        <ele>255</ele>
        <time>2021-08-27T06:16:18.000Z</time>
      </trkpt>
      <trkpt lat="49.80469" lon="4.80492">
        <ele>254</ele>
        <time>2021-08-27T06:16:19.000Z</time>
      </trkpt>
      <trkpt lat="49.80473" lon="4.80487">
        <ele>253</ele>
        <time>2021-08-27T06:16:20.000Z</time>
      </trkpt>
      <trkpt lat="49.80476" lon="4.80482">
        <ele>253</ele>
        <time>2021-08-27T06:16:21.000Z</time>
      </trkpt>
      <trkpt lat="49.8048" lon="4.80476">
        <ele>252</ele>
        <time>2021-08-27T06:16:22.000Z</time>
      </trkpt>
      <trkpt lat="49.80483" lon="4.8047">
        <ele>252</ele>
        <time>2021-08-27T06:16:23.000Z</time>
      </trkpt>
      <trkpt lat="49.80486" lon="4.80464">
        <ele>251</ele>
        <time>2021-08-27T06:16:24.000Z</time>
      </trkpt>
      <trkpt lat="49.80489" lon="4.80458">
        <ele>250</ele>
        <time>2021-08-27T06:16:25.000Z</time>
      </trkpt>
      <trkpt lat="49.80492" lon="4.80453">
        <ele>250</ele>
        <time>2021-08-27T06:16:26.000Z</time>
      </trkpt>
      <trkpt lat="49.80495" lon="4.80448">
        <ele>249</ele>
        <time>2021-08-27T06:16:27.000Z</time>
      </trkpt>
      <trkpt lat="49.80499" lon="4.80443">
        <ele>249</ele>
        <time>2021-08-27T06:16:28.000Z</time>
      </trkpt>
      <trkpt lat="49.80502" lon="4.80439">
        <ele>248</ele>
        <time>2021-08-27T06:16:29.000Z</time>
      </trkpt>
      <trkpt lat="49.80505" lon="4.80434">
        <ele>248</ele>
        <time>2021-08-27T06:16:30.000Z</time>
      </trkpt>
      <trkpt lat="49.80508" lon="4.80428">
        <ele>248</ele>
        <time>2021-08-27T06:16:31.000Z</time>
      </trkpt>
      <trkpt lat="49.8051" lon="4.80423">
        <ele>247</ele>
        <time>2021-08-27T06:16:32.000Z</time>
      </trkpt>
      <trkpt lat="49.80513" lon="4.80418">
        <ele>247</ele>
        <time>2021-08-27T06:16:33.000Z</time>
      </trkpt>
      <trkpt lat="49.80515" lon="4.80413">
        <ele>246</ele>
        <time>2021-08-27T06:16:34.000Z</time>
      </trkpt>
      <trkpt lat="49.80517" lon="4.80407">
        <ele>246</ele>
        <time>2021-08-27T06:16:35.000Z</time>
      </trkpt>
      <trkpt lat="49.8052" lon="4.80402">
        <ele>246</ele>
        <time>2021-08-27T06:16:36.000Z</time>
      </trkpt>
      <trkpt lat="49.80522" lon="4.80396">
        <ele>245</ele>
        <time>2021-08-27T06:16:37.000Z</time>
      </trkpt>
      <trkpt lat="49.80525" lon="4.80391">
        <ele>245</ele>
        <time>2021-08-27T06:16:38.000Z</time>
      </trkpt>
      <trkpt lat="49.80528" lon="4.80386">
        <ele>244</ele>
        <time>2021-08-27T06:16:39.000Z</time>
      </trkpt>
      <trkpt lat="49.80531" lon="4.8038">
        <ele>244</ele>
        <time>2021-08-27T06:16:40.000Z</time>
      </trkpt>
      <trkpt lat="49.80535" lon="4.80374">
        <ele>243</ele>
        <time>2021-08-27T06:16:41.000Z</time>
      </trkpt>
      <trkpt lat="49.80539" lon="4.80368">
        <ele>243</ele>
        <time>2021-08-27T06:16:42.000Z</time>
      </trkpt>
      <trkpt lat="49.80543" lon="4.80362">
        <ele>242</ele>
        <time>2021-08-27T06:16:43.000Z</time>
      </trkpt>
      <trkpt lat="49.80546" lon="4.80357">
        <ele>242</ele>
        <time>2021-08-27T06:16:44.000Z</time>
      </trkpt>
      <trkpt lat="49.80549" lon="4.80351">
        <ele>241</ele>
        <time>2021-08-27T06:16:45.000Z</time>
      </trkpt>
      <trkpt lat="49.80551" lon="4.80347">
        <ele>241</ele>
        <time>2021-08-27T06:16:46.000Z</time>
      </trkpt>
      <trkpt lat="49.80554" lon="4.80341">
        <ele>240</ele>
        <time>2021-08-27T06:16:47.000Z</time>
      </trkpt>
      <trkpt lat="49.80558" lon="4.80335">
        <ele>240</ele>
        <time>2021-08-27T06:16:48.000Z</time>
      </trkpt>
      <trkpt lat="49.80562" lon="4.80329">
        <ele>240</ele>
        <time>2021-08-27T06:16:49.000Z</time>
      </trkpt>
      <trkpt lat="49.80565" lon="4.80322">
        <ele>239</ele>
        <time>2021-08-27T06:16:50.000Z</time>
      </trkpt>
      <trkpt lat="49.80568" lon="4.80315">
        <ele>239</ele>
        <time>2021-08-27T06:16:51.000Z</time>
      </trkpt>
      <trkpt lat="49.80573" lon="4.80308">
        <ele>239</ele>
        <time>2021-08-27T06:16:52.000Z</time>
      </trkpt>
      <trkpt lat="49.80577" lon="4.80301">
        <ele>239</ele>
        <time>2021-08-27T06:16:53.000Z</time>
      </trkpt>
      <trkpt lat="49.80581" lon="4.80294">
        <ele>238</ele>
        <time>2021-08-27T06:16:54.000Z</time>
      </trkpt>
      <trkpt lat="49.80586" lon="4.80286">
        <ele>238</ele>
        <time>2021-08-27T06:16:55.000Z</time>
      </trkpt>
      <trkpt lat="49.80591" lon="4.80277">
        <ele>238</ele>
        <time>2021-08-27T06:16:56.000Z</time>
      </trkpt>
      <trkpt lat="49.80597" lon="4.80267">
        <ele>237</ele>
        <time>2021-08-27T06:16:57.000Z</time>
      </trkpt>
      <trkpt lat="49.80602" lon="4.80258">
        <ele>237</ele>
        <time>2021-08-27T06:16:58.000Z</time>
      </trkpt>
      <trkpt lat="49.80607" lon="4.8025">
        <ele>236</ele>
        <time>2021-08-27T06:16:59.000Z</time>
      </trkpt>
      <trkpt lat="49.80613" lon="4.80242">
        <ele>235</ele>
        <time>2021-08-27T06:17:00.000Z</time>
      </trkpt>
      <trkpt lat="49.80619" lon="4.80234">
        <ele>235</ele>
        <time>2021-08-27T06:17:01.000Z</time>
      </trkpt>
      <trkpt lat="49.80625" lon="4.80225">
        <ele>234</ele>
        <time>2021-08-27T06:17:02.000Z</time>
      </trkpt>
      <trkpt lat="49.80631" lon="4.80216">
        <ele>233</ele>
        <time>2021-08-27T06:17:03.000Z</time>
      </trkpt>
      <trkpt lat="49.80636" lon="4.80208">
        <ele>232</ele>
        <time>2021-08-27T06:17:04.000Z</time>
      </trkpt>
      <trkpt lat="49.80641" lon="4.80201">
        <ele>232</ele>
        <time>2021-08-27T06:17:05.000Z</time>
      </trkpt>
      <trkpt lat="49.80646" lon="4.80195">
        <ele>231</ele>
        <time>2021-08-27T06:17:06.000Z</time>
      </trkpt>
      <trkpt lat="49.80651" lon="4.80188">
        <ele>230</ele>
        <time>2021-08-27T06:17:07.000Z</time>
      </trkpt>
      <trkpt lat="49.80656" lon="4.80182">
        <ele>230</ele>
        <time>2021-08-27T06:17:08.000Z</time>
      </trkpt>
      <trkpt lat="49.80661" lon="4.80177">
        <ele>229</ele>
        <time>2021-08-27T06:17:09.000Z</time>
      </trkpt>
      <trkpt lat="49.80665" lon="4.80171">
        <ele>228</ele>
        <time>2021-08-27T06:17:10.000Z</time>
      </trkpt>
      <trkpt lat="49.80669" lon="4.80166">
        <ele>228</ele>
        <time>2021-08-27T06:17:11.000Z</time>
      </trkpt>
      <trkpt lat="49.80673" lon="4.80161">
        <ele>227</ele>
        <time>2021-08-27T06:17:12.000Z</time>
      </trkpt>
      <trkpt lat="49.80677" lon="4.80156">
        <ele>226</ele>
        <time>2021-08-27T06:17:13.000Z</time>
      </trkpt>
      <trkpt lat="49.80681" lon="4.80151">
        <ele>226</ele>
        <time>2021-08-27T06:17:14.000Z</time>
      </trkpt>
      <trkpt lat="49.80684" lon="4.80147">
        <ele>225</ele>
        <time>2021-08-27T06:17:15.000Z</time>
      </trkpt>
      <trkpt lat="49.80688" lon="4.80141">
        <ele>224</ele>
        <time>2021-08-27T06:17:16.000Z</time>
      </trkpt>
      <trkpt lat="49.80692" lon="4.80136">
        <ele>223</ele>
        <time>2021-08-27T06:17:17.000Z</time>
      </trkpt>
      <trkpt lat="49.80697" lon="4.80131">
        <ele>223</ele>
        <time>2021-08-27T06:17:18.000Z</time>
      </trkpt>
      <trkpt lat="49.80702" lon="4.80125">
        <ele>222</ele>
        <time>2021-08-27T06:17:19.000Z</time>
      </trkpt>
      <trkpt lat="49.80707" lon="4.8012">
        <ele>221</ele>
        <time>2021-08-27T06:17:20.000Z</time>
      </trkpt>
      <trkpt lat="49.80712" lon="4.80115">
        <ele>221</ele>
        <time>2021-08-27T06:17:21.000Z</time>
      </trkpt>
      <trkpt lat="49.80717" lon="4.80111">
        <ele>220</ele>
        <time>2021-08-27T06:17:22.000Z</time>
      </trkpt>
      <trkpt lat="49.80723" lon="4.80108">
        <ele>219</ele>
        <time>2021-08-27T06:17:23.000Z</time>
      </trkpt>
      <trkpt lat="49.80728" lon="4.80106">
        <ele>219</ele>
        <time>2021-08-27T06:17:24.000Z</time>
      </trkpt>
      <trkpt lat="49.80733" lon="4.80105">
        <ele>218</ele>
        <time>2021-08-27T06:17:25.000Z</time>
      </trkpt>
      <trkpt lat="49.80739" lon="4.80104">
        <ele>218</ele>
        <time>2021-08-27T06:17:26.000Z</time>
      </trkpt>
      <trkpt lat="49.80744" lon="4.80102">
        <ele>217</ele>
        <time>2021-08-27T06:17:27.000Z</time>
      </trkpt>
      <trkpt lat="49.80749" lon="4.80098">
        <ele>216</ele>
        <time>2021-08-27T06:17:28.000Z</time>
      </trkpt>
      <trkpt lat="49.80753" lon="4.80093">
        <ele>216</ele>
        <time>2021-08-27T06:17:29.000Z</time>
      </trkpt>
      <trkpt lat="49.80757" lon="4.80085">
        <ele>215</ele>
        <time>2021-08-27T06:17:30.000Z</time>
      </trkpt>
      <trkpt lat="49.80761" lon="4.80077">
        <ele>214</ele>
        <time>2021-08-27T06:17:31.000Z</time>
      </trkpt>
      <trkpt lat="49.80764" lon="4.80069">
        <ele>214</ele>
        <time>2021-08-27T06:17:32.000Z</time>
      </trkpt>
      <trkpt lat="49.80767" lon="4.80059">
        <ele>213</ele>
        <time>2021-08-27T06:17:33.000Z</time>
      </trkpt>
      <trkpt lat="49.80771" lon="4.8005">
        <ele>213</ele>
        <time>2021-08-27T06:17:34.000Z</time>
      </trkpt>
      <trkpt lat="49.80774" lon="4.8004">
        <ele>212</ele>
        <time>2021-08-27T06:17:35.000Z</time>
      </trkpt>
      <trkpt lat="49.80778" lon="4.8003">
        <ele>211</ele>
        <time>2021-08-27T06:17:36.000Z</time>
      </trkpt>
      <trkpt lat="49.80781" lon="4.80019">
        <ele>211</ele>
        <time>2021-08-27T06:17:37.000Z</time>
      </trkpt>
      <trkpt lat="49.80784" lon="4.80009">
        <ele>210</ele>
        <time>2021-08-27T06:17:38.000Z</time>
      </trkpt>
      <trkpt lat="49.80787" lon="4.79998">
        <ele>209</ele>
        <time>2021-08-27T06:17:39.000Z</time>
      </trkpt>
      <trkpt lat="49.8079" lon="4.79988">
        <ele>209</ele>
        <time>2021-08-27T06:17:40.000Z</time>
      </trkpt>
      <trkpt lat="49.80793" lon="4.79977">
        <ele>208</ele>
        <time>2021-08-27T06:17:41.000Z</time>
      </trkpt>
      <trkpt lat="49.80796" lon="4.79967">
        <ele>208</ele>
        <time>2021-08-27T06:17:42.000Z</time>
      </trkpt>
      <trkpt lat="49.80799" lon="4.79956">
        <ele>207</ele>
        <time>2021-08-27T06:17:43.000Z</time>
      </trkpt>
      <trkpt lat="49.80803" lon="4.79945">
        <ele>206</ele>
        <time>2021-08-27T06:17:44.000Z</time>
      </trkpt>
      <trkpt lat="49.80806" lon="4.79934">
        <ele>205</ele>
        <time>2021-08-27T06:17:45.000Z</time>
      </trkpt>
      <trkpt lat="49.8081" lon="4.79923">
        <ele>205</ele>
        <time>2021-08-27T06:17:46.000Z</time>
      </trkpt>
      <trkpt lat="49.80814" lon="4.79911">
        <ele>204</ele>
        <time>2021-08-27T06:17:47.000Z</time>
      </trkpt>
      <trkpt lat="49.80819" lon="4.79901">
        <ele>203</ele>
        <time>2021-08-27T06:17:48.000Z</time>
      </trkpt>
      <trkpt lat="49.80824" lon="4.79892">
        <ele>202</ele>
        <time>2021-08-27T06:17:49.000Z</time>
      </trkpt>
      <trkpt lat="49.8083" lon="4.79882">
        <ele>201</ele>
        <time>2021-08-27T06:17:50.000Z</time>
      </trkpt>
      <trkpt lat="49.80837" lon="4.79873">
        <ele>200</ele>
        <time>2021-08-27T06:17:51.000Z</time>
      </trkpt>
      <trkpt lat="49.80844" lon="4.79864">
        <ele>199</ele>
        <time>2021-08-27T06:17:52.000Z</time>
      </trkpt>
      <trkpt lat="49.80852" lon="4.79856">
        <ele>198</ele>
        <time>2021-08-27T06:17:53.000Z</time>
      </trkpt>
      <trkpt lat="49.80861" lon="4.79848">
        <ele>196</ele>
        <time>2021-08-27T06:17:54.000Z</time>
      </trkpt>
      <trkpt lat="49.80869" lon="4.7984">
        <ele>195</ele>
        <time>2021-08-27T06:17:55.000Z</time>
      </trkpt>
      <trkpt lat="49.80878" lon="4.79833">
        <ele>194</ele>
        <time>2021-08-27T06:17:56.000Z</time>
      </trkpt>
      <trkpt lat="49.80886" lon="4.79825">
        <ele>192</ele>
        <time>2021-08-27T06:17:57.000Z</time>
      </trkpt>
      <trkpt lat="49.80895" lon="4.79818">
        <ele>191</ele>
        <time>2021-08-27T06:17:58.000Z</time>
      </trkpt>
      <trkpt lat="49.80903" lon="4.79811">
        <ele>189</ele>
        <time>2021-08-27T06:17:59.000Z</time>
      </trkpt>
      <trkpt lat="49.80911" lon="4.79804">
        <ele>188</ele>
        <time>2021-08-27T06:18:00.000Z</time>
      </trkpt>
      <trkpt lat="49.80919" lon="4.79796">
        <ele>186</ele>
        <time>2021-08-27T06:18:01.000Z</time>
      </trkpt>
      <trkpt lat="49.80926" lon="4.79789">
        <ele>185</ele>
        <time>2021-08-27T06:18:02.000Z</time>
      </trkpt>
      <trkpt lat="49.80934" lon="4.79783">
        <ele>184</ele>
        <time>2021-08-27T06:18:03.000Z</time>
      </trkpt>
      <trkpt lat="49.80942" lon="4.79777">
        <ele>184</ele>
        <time>2021-08-27T06:18:04.000Z</time>
      </trkpt>
      <trkpt lat="49.80949" lon="4.79772">
        <ele>183</ele>
        <time>2021-08-27T06:18:05.000Z</time>
      </trkpt>
      <trkpt lat="49.80957" lon="4.79768">
        <ele>183</ele>
        <time>2021-08-27T06:18:06.000Z</time>
      </trkpt>
      <trkpt lat="49.80964" lon="4.79765">
        <ele>182</ele>
        <time>2021-08-27T06:18:07.000Z</time>
      </trkpt>
      <trkpt lat="49.8097" lon="4.79761">
        <ele>182</ele>
        <time>2021-08-27T06:18:08.000Z</time>
      </trkpt>
      <trkpt lat="49.80977" lon="4.79757">
        <ele>182</ele>
        <time>2021-08-27T06:18:09.000Z</time>
      </trkpt>
      <trkpt lat="49.80983" lon="4.79752">
        <ele>181</ele>
        <time>2021-08-27T06:18:10.000Z</time>
      </trkpt>
      <trkpt lat="49.80988" lon="4.79746">
        <ele>181</ele>
        <time>2021-08-27T06:18:11.000Z</time>
      </trkpt>
      <trkpt lat="49.80994" lon="4.79741">
        <ele>181</ele>
        <time>2021-08-27T06:18:12.000Z</time>
      </trkpt>
      <trkpt lat="49.80999" lon="4.79736">
        <ele>181</ele>
        <time>2021-08-27T06:18:13.000Z</time>
      </trkpt>
      <trkpt lat="49.81004" lon="4.79731">
        <ele>181</ele>
        <time>2021-08-27T06:18:14.000Z</time>
      </trkpt>
      <trkpt lat="49.81009" lon="4.79726">
        <ele>181</ele>
        <time>2021-08-27T06:18:15.000Z</time>
      </trkpt>
      <trkpt lat="49.81014" lon="4.79724">
        <ele>181</ele>
        <time>2021-08-27T06:18:16.000Z</time>
      </trkpt>
      <trkpt lat="49.81019" lon="4.79725">
        <ele>181</ele>
        <time>2021-08-27T06:18:17.000Z</time>
      </trkpt>
      <trkpt lat="49.81023" lon="4.7973">
        <ele>181</ele>
        <time>2021-08-27T06:18:18.000Z</time>
      </trkpt>
      <trkpt lat="49.81027" lon="4.79736">
        <ele>180</ele>
        <time>2021-08-27T06:18:19.000Z</time>
      </trkpt>
      <trkpt lat="49.81031" lon="4.79741">
        <ele>180</ele>
        <time>2021-08-27T06:18:20.000Z</time>
      </trkpt>
      <trkpt lat="49.81035" lon="4.79748">
        <ele>180</ele>
        <time>2021-08-27T06:18:21.000Z</time>
      </trkpt>
      <trkpt lat="49.81039" lon="4.79755">
        <ele>180</ele>
        <time>2021-08-27T06:18:22.000Z</time>
      </trkpt>
      <trkpt lat="49.81043" lon="4.79761">
        <ele>180</ele>
        <time>2021-08-27T06:18:23.000Z</time>
      </trkpt>
      <trkpt lat="49.81047" lon="4.79768">
        <ele>180</ele>
        <time>2021-08-27T06:18:24.000Z</time>
      </trkpt>
      <trkpt lat="49.81051" lon="4.79776">
        <ele>180</ele>
        <time>2021-08-27T06:18:25.000Z</time>
      </trkpt>
      <trkpt lat="49.81055" lon="4.79784">
        <ele>180</ele>
        <time>2021-08-27T06:18:26.000Z</time>
      </trkpt>
      <trkpt lat="49.81059" lon="4.79793">
        <ele>180</ele>
        <time>2021-08-27T06:18:27.000Z</time>
      </trkpt>
      <trkpt lat="49.81062" lon="4.79802">
        <ele>180</ele>
        <time>2021-08-27T06:18:28.000Z</time>
      </trkpt>
      <trkpt lat="49.81066" lon="4.7981">
        <ele>180</ele>
        <time>2021-08-27T06:18:29.000Z</time>
      </trkpt>
      <trkpt lat="49.8107" lon="4.7982">
        <ele>180</ele>
        <time>2021-08-27T06:18:30.000Z</time>
      </trkpt>
      <trkpt lat="49.81073" lon="4.79829">
        <ele>180</ele>
        <time>2021-08-27T06:18:31.000Z</time>
      </trkpt>
      <trkpt lat="49.81077" lon="4.79838">
        <ele>180</ele>
        <time>2021-08-27T06:18:32.000Z</time>
      </trkpt>
      <trkpt lat="49.8108" lon="4.79846">
        <ele>180</ele>
        <time>2021-08-27T06:18:33.000Z</time>
      </trkpt>
      <trkpt lat="49.81084" lon="4.79855">
        <ele>180</ele>
        <time>2021-08-27T06:18:34.000Z</time>
      </trkpt>
      <trkpt lat="49.81087" lon="4.79863">
        <ele>180</ele>
        <time>2021-08-27T06:18:35.000Z</time>
      </trkpt>
      <trkpt lat="49.81091" lon="4.79872">
        <ele>180</ele>
        <time>2021-08-27T06:18:36.000Z</time>
      </trkpt>
      <trkpt lat="49.81094" lon="4.79881">
        <ele>179</ele>
        <time>2021-08-27T06:18:37.000Z</time>
      </trkpt>
      <trkpt lat="49.81097" lon="4.79889">
        <ele>179</ele>
        <time>2021-08-27T06:18:38.000Z</time>
      </trkpt>
      <trkpt lat="49.81101" lon="4.79896">
        <ele>179</ele>
        <time>2021-08-27T06:18:39.000Z</time>
      </trkpt>
      <trkpt lat="49.81105" lon="4.79904">
        <ele>179</ele>
        <time>2021-08-27T06:18:40.000Z</time>
      </trkpt>
      <trkpt lat="49.81109" lon="4.79911">
        <ele>179</ele>
        <time>2021-08-27T06:18:41.000Z</time>
      </trkpt>
      <trkpt lat="49.81113" lon="4.79918">
        <ele>179</ele>
        <time>2021-08-27T06:18:42.000Z</time>
      </trkpt>
      <trkpt lat="49.81117" lon="4.79925">
        <ele>179</ele>
        <time>2021-08-27T06:18:43.000Z</time>
      </trkpt>
      <trkpt lat="49.81121" lon="4.79932">
        <ele>179</ele>
        <time>2021-08-27T06:18:44.000Z</time>
      </trkpt>
      <trkpt lat="49.81125" lon="4.79939">
        <ele>179</ele>
        <time>2021-08-27T06:18:45.000Z</time>
      </trkpt>
      <trkpt lat="49.8113" lon="4.79946">
        <ele>179</ele>
        <time>2021-08-27T06:18:46.000Z</time>
      </trkpt>
      <trkpt lat="49.81134" lon="4.79953">
        <ele>179</ele>
        <time>2021-08-27T06:18:47.000Z</time>
      </trkpt>
      <trkpt lat="49.81138" lon="4.7996">
        <ele>179</ele>
        <time>2021-08-27T06:18:48.000Z</time>
      </trkpt>
      <trkpt lat="49.81141" lon="4.79968">
        <ele>179</ele>
        <time>2021-08-27T06:18:49.000Z</time>
      </trkpt>
      <trkpt lat="49.81144" lon="4.79977">
        <ele>179</ele>
        <time>2021-08-27T06:18:50.000Z</time>
      </trkpt>
      <trkpt lat="49.81145" lon="4.79985">
        <ele>179</ele>
        <time>2021-08-27T06:18:51.000Z</time>
      </trkpt>
      <trkpt lat="49.81146" lon="4.79993">
        <ele>179</ele>
        <time>2021-08-27T06:18:52.000Z</time>
      </trkpt>
      <trkpt lat="49.81147" lon="4.8">
        <ele>179</ele>
        <time>2021-08-27T06:18:53.000Z</time>
      </trkpt>
      <trkpt lat="49.81147" lon="4.80004">
        <ele>179</ele>
        <time>2021-08-27T06:18:54.000Z</time>
      </trkpt>
      <trkpt lat="49.81149" lon="4.80008">
        <ele>179</ele>
        <time>2021-08-27T06:18:55.000Z</time>
      </trkpt>
      <trkpt lat="49.81149" lon="4.80012">
        <ele>179</ele>
        <time>2021-08-27T06:18:56.000Z</time>
      </trkpt>
      <trkpt lat="49.8115" lon="4.80016">
        <ele>179</ele>
        <time>2021-08-27T06:18:57.000Z</time>
      </trkpt>
      <trkpt lat="49.8115" lon="4.8002">
        <ele>179</ele>
        <time>2021-08-27T06:18:58.000Z</time>
      </trkpt>
      <trkpt lat="49.8115" lon="4.80023">
        <ele>179</ele>
        <time>2021-08-27T06:18:59.000Z</time>
      </trkpt>
      <trkpt lat="49.8115" lon="4.80026">
        <ele>179</ele>
        <time>2021-08-27T06:19:00.000Z</time>
      </trkpt>
      <trkpt lat="49.8115" lon="4.80029">
        <ele>179</ele>
        <time>2021-08-27T06:19:01.000Z</time>
      </trkpt>
      <trkpt lat="49.8115" lon="4.80033">
        <ele>179</ele>
        <time>2021-08-27T06:19:02.000Z</time>
      </trkpt>
      <trkpt lat="49.81149" lon="4.80037">
        <ele>179</ele>
        <time>2021-08-27T06:19:03.000Z</time>
      </trkpt>
      <trkpt lat="49.81149" lon="4.8004">
        <ele>179</ele>
        <time>2021-08-27T06:19:04.000Z</time>
      </trkpt>
      <trkpt lat="49.81149" lon="4.80043">
        <ele>179</ele>
        <time>2021-08-27T06:19:05.000Z</time>
      </trkpt>
      <trkpt lat="49.81148" lon="4.80047">
        <ele>179</ele>
        <time>2021-08-27T06:19:06.000Z</time>
      </trkpt>
      <trkpt lat="49.81148" lon="4.80051">
        <ele>179</ele>
        <time>2021-08-27T06:19:07.000Z</time>
      </trkpt>
      <trkpt lat="49.81148" lon="4.80054">
        <ele>178</ele>
        <time>2021-08-27T06:19:08.000Z</time>
      </trkpt>
      <trkpt lat="49.81147" lon="4.80058">
        <ele>178</ele>
        <time>2021-08-27T06:19:09.000Z</time>
      </trkpt>
      <trkpt lat="49.81147" lon="4.80063">
        <ele>178</ele>
        <time>2021-08-27T06:19:10.000Z</time>
      </trkpt>
      <trkpt lat="49.81147" lon="4.80066">
        <ele>178</ele>
        <time>2021-08-27T06:19:11.000Z</time>
      </trkpt>
      <trkpt lat="49.81147" lon="4.8007">
        <ele>178</ele>
        <time>2021-08-27T06:19:12.000Z</time>
      </trkpt>
      <trkpt lat="49.81147" lon="4.80074">
        <ele>178</ele>
        <time>2021-08-27T06:19:13.000Z</time>
      </trkpt>
      <trkpt lat="49.81147" lon="4.80079">
        <ele>178</ele>
        <time>2021-08-27T06:19:14.000Z</time>
      </trkpt>
      <trkpt lat="49.81146" lon="4.80083">
        <ele>178</ele>
        <time>2021-08-27T06:19:15.000Z</time>
      </trkpt>
      <trkpt lat="49.81146" lon="4.80086">
        <ele>178</ele>
        <time>2021-08-27T06:19:16.000Z</time>
      </trkpt>
      <trkpt lat="49.81146" lon="4.80089">
        <ele>178</ele>
        <time>2021-08-27T06:19:17.000Z</time>
      </trkpt>
      <trkpt lat="49.81145" lon="4.80092">
        <ele>178</ele>
        <time>2021-08-27T06:19:18.000Z</time>
      </trkpt>
      <trkpt lat="49.81145" lon="4.80095">
        <ele>178</ele>
        <time>2021-08-27T06:19:19.000Z</time>
      </trkpt>
      <trkpt lat="49.81144" lon="4.80098">
        <ele>178</ele>
        <time>2021-08-27T06:19:20.000Z</time>
      </trkpt>
      <trkpt lat="49.81144" lon="4.80101">
        <ele>178</ele>
        <time>2021-08-27T06:19:21.000Z</time>
      </trkpt>
      <trkpt lat="49.81143" lon="4.80106">
        <ele>178</ele>
        <time>2021-08-27T06:19:22.000Z</time>
      </trkpt>
      <trkpt lat="49.81143" lon="4.8011">
        <ele>178</ele>
        <time>2021-08-27T06:19:23.000Z</time>
      </trkpt>
      <trkpt lat="49.81142" lon="4.80114">
        <ele>178</ele>
        <time>2021-08-27T06:19:24.000Z</time>
      </trkpt>
      <trkpt lat="49.81142" lon="4.80117">
        <ele>178</ele>
        <time>2021-08-27T06:19:25.000Z</time>
      </trkpt>
      <trkpt lat="49.81142" lon="4.80121">
        <ele>178</ele>
        <time>2021-08-27T06:19:26.000Z</time>
      </trkpt>
      <trkpt lat="49.81142" lon="4.80125">
        <ele>178</ele>
        <time>2021-08-27T06:19:27.000Z</time>
      </trkpt>
      <trkpt lat="49.81141" lon="4.80129">
        <ele>179</ele>
        <time>2021-08-27T06:19:28.000Z</time>
      </trkpt>
      <trkpt lat="49.81141" lon="4.80133">
        <ele>179</ele>
        <time>2021-08-27T06:19:29.000Z</time>
      </trkpt>
      <trkpt lat="49.81141" lon="4.80137">
        <ele>179</ele>
        <time>2021-08-27T06:19:30.000Z</time>
      </trkpt>
      <trkpt lat="49.81141" lon="4.80141">
        <ele>179</ele>
        <time>2021-08-27T06:19:31.000Z</time>
      </trkpt>
      <trkpt lat="49.8114" lon="4.80145">
        <ele>179</ele>
        <time>2021-08-27T06:19:32.000Z</time>
      </trkpt>
      <trkpt lat="49.8114" lon="4.80148">
        <ele>179</ele>
        <time>2021-08-27T06:19:33.000Z</time>
      </trkpt>
      <trkpt lat="49.8114" lon="4.80152">
        <ele>179</ele>
        <time>2021-08-27T06:19:34.000Z</time>
      </trkpt>
      <trkpt lat="49.8114" lon="4.80155">
        <ele>180</ele>
        <time>2021-08-27T06:19:35.000Z</time>
      </trkpt>
      <trkpt lat="49.8114" lon="4.80158">
        <ele>180</ele>
        <time>2021-08-27T06:19:36.000Z</time>
      </trkpt>
      <trkpt lat="49.81139" lon="4.80162">
        <ele>180</ele>
        <time>2021-08-27T06:19:37.000Z</time>
      </trkpt>
      <trkpt lat="49.81139" lon="4.80164">
        <ele>180</ele>
        <time>2021-08-27T06:19:38.000Z</time>
      </trkpt>
      <trkpt lat="49.81138" lon="4.80166">
        <ele>180</ele>
        <time>2021-08-27T06:19:39.000Z</time>
      </trkpt>
      <trkpt lat="49.81138" lon="4.80168">
        <ele>180</ele>
        <time>2021-08-27T06:19:40.000Z</time>
      </trkpt>
      <trkpt lat="49.81137" lon="4.8017">
        <ele>181</ele>
        <time>2021-08-27T06:19:41.000Z</time>
      </trkpt>
      <trkpt lat="49.81137" lon="4.80173">
        <ele>181</ele>
        <time>2021-08-27T06:19:42.000Z</time>
      </trkpt>
      <trkpt lat="49.81137" lon="4.80176">
        <ele>181</ele>
        <time>2021-08-27T06:19:43.000Z</time>
      </trkpt>
      <trkpt lat="49.81137" lon="4.80178">
        <ele>181</ele>
        <time>2021-08-27T06:19:44.000Z</time>
      </trkpt>
      <trkpt lat="49.81136" lon="4.80182">
        <ele>181</ele>
        <time>2021-08-27T06:19:45.000Z</time>
      </trkpt>
      <trkpt lat="49.81136" lon="4.80185">
        <ele>181</ele>
        <time>2021-08-27T06:19:46.000Z</time>
      </trkpt>
      <trkpt lat="49.81136" lon="4.80188">
        <ele>182</ele>
        <time>2021-08-27T06:19:47.000Z</time>
      </trkpt>
      <trkpt lat="49.81135" lon="4.80192">
        <ele>182</ele>
        <time>2021-08-27T06:19:48.000Z</time>
      </trkpt>
      <trkpt lat="49.81135" lon="4.80195">
        <ele>182</ele>
        <time>2021-08-27T06:19:49.000Z</time>
      </trkpt>
      <trkpt lat="49.81135" lon="4.80199">
        <ele>182</ele>
        <time>2021-08-27T06:19:50.000Z</time>
      </trkpt>
      <trkpt lat="49.81135" lon="4.80203">
        <ele>182</ele>
        <time>2021-08-27T06:19:51.000Z</time>
      </trkpt>
      <trkpt lat="49.81135" lon="4.80207">
        <ele>182</ele>
        <time>2021-08-27T06:19:52.000Z</time>
      </trkpt>
      <trkpt lat="49.81136" lon="4.80212">
        <ele>182</ele>
        <time>2021-08-27T06:19:53.000Z</time>
      </trkpt>
      <trkpt lat="49.81136" lon="4.80215">
        <ele>182</ele>
        <time>2021-08-27T06:19:54.000Z</time>
      </trkpt>
      <trkpt lat="49.81136" lon="4.80219">
        <ele>183</ele>
        <time>2021-08-27T06:19:55.000Z</time>
      </trkpt>
      <trkpt lat="49.81137" lon="4.80222">
        <ele>183</ele>
        <time>2021-08-27T06:19:56.000Z</time>
      </trkpt>
      <trkpt lat="49.81137" lon="4.80226">
        <ele>183</ele>
        <time>2021-08-27T06:19:57.000Z</time>
      </trkpt>
      <trkpt lat="49.81137" lon="4.8023">
        <ele>183</ele>
        <time>2021-08-27T06:19:58.000Z</time>
      </trkpt>
      <trkpt lat="49.81138" lon="4.80234">
        <ele>183</ele>
        <time>2021-08-27T06:19:59.000Z</time>
      </trkpt>
      <trkpt lat="49.81139" lon="4.80238">
        <ele>183</ele>
        <time>2021-08-27T06:20:00.000Z</time>
      </trkpt>
      <trkpt lat="49.81139" lon="4.80242">
        <ele>183</ele>
        <time>2021-08-27T06:20:01.000Z</time>
      </trkpt>
      <trkpt lat="49.81139" lon="4.80246">
        <ele>183</ele>
        <time>2021-08-27T06:20:02.000Z</time>
      </trkpt>
      <trkpt lat="49.8114" lon="4.8025">
        <ele>184</ele>
        <time>2021-08-27T06:20:03.000Z</time>
      </trkpt>
      <trkpt lat="49.8114" lon="4.80254">
        <ele>184</ele>
        <time>2021-08-27T06:20:04.000Z</time>
      </trkpt>
      <trkpt lat="49.81141" lon="4.80258">
        <ele>184</ele>
        <time>2021-08-27T06:20:05.000Z</time>
      </trkpt>
      <trkpt lat="49.81141" lon="4.80262">
        <ele>184</ele>
        <time>2021-08-27T06:20:06.000Z</time>
      </trkpt>
      <trkpt lat="49.8114" lon="4.80265">
        <ele>184</ele>
        <time>2021-08-27T06:20:07.000Z</time>
      </trkpt>
      <trkpt lat="49.81141" lon="4.80269">
        <ele>184</ele>
        <time>2021-08-27T06:20:08.000Z</time>
      </trkpt>
      <trkpt lat="49.81141" lon="4.80272">
        <ele>184</ele>
        <time>2021-08-27T06:20:09.000Z</time>
      </trkpt>
      <trkpt lat="49.81141" lon="4.80275">
        <ele>185</ele>
        <time>2021-08-27T06:20:10.000Z</time>
      </trkpt>
      <trkpt lat="49.81141" lon="4.80278">
        <ele>185</ele>
        <time>2021-08-27T06:20:11.000Z</time>
      </trkpt>
      <trkpt lat="49.81141" lon="4.80282">
        <ele>185</ele>
        <time>2021-08-27T06:20:12.000Z</time>
      </trkpt>
      <trkpt lat="49.81141" lon="4.80286">
        <ele>185</ele>
        <time>2021-08-27T06:20:13.000Z</time>
      </trkpt>
      <trkpt lat="49.81141" lon="4.8029">
        <ele>185</ele>
        <time>2021-08-27T06:20:14.000Z</time>
      </trkpt>
      <trkpt lat="49.81142" lon="4.80294">
        <ele>185</ele>
        <time>2021-08-27T06:20:15.000Z</time>
      </trkpt>
      <trkpt lat="49.81142" lon="4.80298">
        <ele>185</ele>
        <time>2021-08-27T06:20:16.000Z</time>
      </trkpt>
      <trkpt lat="49.81141" lon="4.80301">
        <ele>185</ele>
        <time>2021-08-27T06:20:17.000Z</time>
      </trkpt>
      <trkpt lat="49.81142" lon="4.80305">
        <ele>185</ele>
        <time>2021-08-27T06:20:18.000Z</time>
      </trkpt>
      <trkpt lat="49.81142" lon="4.80308">
        <ele>185</ele>
        <time>2021-08-27T06:20:19.000Z</time>
      </trkpt>
      <trkpt lat="49.81142" lon="4.80311">
        <ele>185</ele>
        <time>2021-08-27T06:20:20.000Z</time>
      </trkpt>
      <trkpt lat="49.81142" lon="4.80315">
        <ele>185</ele>
        <time>2021-08-27T06:20:21.000Z</time>
      </trkpt>
      <trkpt lat="49.81143" lon="4.80318">
        <ele>185</ele>
        <time>2021-08-27T06:20:22.000Z</time>
      </trkpt>
      <trkpt lat="49.81143" lon="4.80322">
        <ele>185</ele>
        <time>2021-08-27T06:20:23.000Z</time>
      </trkpt>
      <trkpt lat="49.81143" lon="4.80325">
        <ele>185</ele>
        <time>2021-08-27T06:20:24.000Z</time>
      </trkpt>
      <trkpt lat="49.81143" lon="4.80329">
        <ele>185</ele>
        <time>2021-08-27T06:20:25.000Z</time>
      </trkpt>
      <trkpt lat="49.81144" lon="4.80333">
        <ele>185</ele>
        <time>2021-08-27T06:20:26.000Z</time>
      </trkpt>
      <trkpt lat="49.81144" lon="4.80336">
        <ele>185</ele>
        <time>2021-08-27T06:20:27.000Z</time>
      </trkpt>
      <trkpt lat="49.81146" lon="4.80338">
        <ele>185</ele>
        <time>2021-08-27T06:20:28.000Z</time>
      </trkpt>
      <trkpt lat="49.81148" lon="4.8034">
        <ele>185</ele>
        <time>2021-08-27T06:20:29.000Z</time>
      </trkpt>
      <trkpt lat="49.81149" lon="4.80342">
        <ele>185</ele>
        <time>2021-08-27T06:20:30.000Z</time>
      </trkpt>
      <trkpt lat="49.8115" lon="4.80344">
        <ele>186</ele>
        <time>2021-08-27T06:20:31.000Z</time>
      </trkpt>
      <trkpt lat="49.81152" lon="4.80346">
        <ele>186</ele>
        <time>2021-08-27T06:20:32.000Z</time>
      </trkpt>
      <trkpt lat="49.81154" lon="4.80346">
        <ele>186</ele>
        <time>2021-08-27T06:20:33.000Z</time>
      </trkpt>
      <trkpt lat="49.81155" lon="4.80346">
        <ele>186</ele>
        <time>2021-08-27T06:20:34.000Z</time>
      </trkpt>
      <trkpt lat="49.81157" lon="4.80345">
        <ele>186</ele>
        <time>2021-08-27T06:20:35.000Z</time>
      </trkpt>
      <trkpt lat="49.81158" lon="4.80344">
        <ele>186</ele>
        <time>2021-08-27T06:20:36.000Z</time>
      </trkpt>
      <trkpt lat="49.8116" lon="4.80342">
        <ele>186</ele>
        <time>2021-08-27T06:20:37.000Z</time>
      </trkpt>
      <trkpt lat="49.81162" lon="4.80339">
        <ele>186</ele>
        <time>2021-08-27T06:20:38.000Z</time>
      </trkpt>
      <trkpt lat="49.81163" lon="4.80337">
        <ele>186</ele>
        <time>2021-08-27T06:20:39.000Z</time>
      </trkpt>
      <trkpt lat="49.81164" lon="4.80335">
        <ele>187</ele>
        <time>2021-08-27T06:20:40.000Z</time>
      </trkpt>
      <trkpt lat="49.81166" lon="4.80332">
        <ele>187</ele>
        <time>2021-08-27T06:20:41.000Z</time>
      </trkpt>
      <trkpt lat="49.81167" lon="4.8033">
        <ele>187</ele>
        <time>2021-08-27T06:20:42.000Z</time>
      </trkpt>
      <trkpt lat="49.81169" lon="4.80326">
        <ele>187</ele>
        <time>2021-08-27T06:20:43.000Z</time>
      </trkpt>
      <trkpt lat="49.81171" lon="4.80322">
        <ele>187</ele>
        <time>2021-08-27T06:20:44.000Z</time>
      </trkpt>
      <trkpt lat="49.81173" lon="4.80319">
        <ele>188</ele>
        <time>2021-08-27T06:20:45.000Z</time>
      </trkpt>
      <trkpt lat="49.81175" lon="4.80315">
        <ele>188</ele>
        <time>2021-08-27T06:20:46.000Z</time>
      </trkpt>
      <trkpt lat="49.81177" lon="4.8031">
        <ele>188</ele>
        <time>2021-08-27T06:20:47.000Z</time>
      </trkpt>
      <trkpt lat="49.81179" lon="4.80306">
        <ele>188</ele>
        <time>2021-08-27T06:20:48.000Z</time>
      </trkpt>
      <trkpt lat="49.8118" lon="4.80302">
        <ele>189</ele>
        <time>2021-08-27T06:20:49.000Z</time>
      </trkpt>
      <trkpt lat="49.81182" lon="4.80298">
        <ele>189</ele>
        <time>2021-08-27T06:20:50.000Z</time>
      </trkpt>
      <trkpt lat="49.81183" lon="4.80295">
        <ele>189</ele>
        <time>2021-08-27T06:20:51.000Z</time>
      </trkpt>
      <trkpt lat="49.81185" lon="4.8029">
        <ele>189</ele>
        <time>2021-08-27T06:20:52.000Z</time>
      </trkpt>
      <trkpt lat="49.81186" lon="4.80285">
        <ele>189</ele>
        <time>2021-08-27T06:20:53.000Z</time>
      </trkpt>
      <trkpt lat="49.81188" lon="4.80281">
        <ele>189</ele>
        <time>2021-08-27T06:20:54.000Z</time>
      </trkpt>
      <trkpt lat="49.8119" lon="4.80278">
        <ele>189</ele>
        <time>2021-08-27T06:20:55.000Z</time>
      </trkpt>
      <trkpt lat="49.81191" lon="4.80274">
        <ele>190</ele>
        <time>2021-08-27T06:20:56.000Z</time>
      </trkpt>
      <trkpt lat="49.81193" lon="4.8027">
        <ele>190</ele>
        <time>2021-08-27T06:20:57.000Z</time>
      </trkpt>
      <trkpt lat="49.81193" lon="4.80269">
        <ele>190</ele>
        <time>2021-08-27T06:20:58.000Z</time>
      </trkpt>
      <trkpt lat="49.81194" lon="4.80268">
        <ele>190</ele>
        <time>2021-08-27T06:20:59.000Z</time>
      </trkpt>
      <trkpt lat="49.81194" lon="4.80268">
        <ele>190</ele>
        <time>2021-08-27T06:21:00.000Z</time>
      </trkpt>
      <trkpt lat="49.81194" lon="4.80268">
        <ele>190</ele>
        <time>2021-08-27T06:21:01.000Z</time>
      </trkpt>
      <trkpt lat="49.81194" lon="4.80268">
        <ele>190</ele>
        <time>2021-08-27T06:21:02.000Z</time>
      </trkpt>
      <trkpt lat="49.81194" lon="4.80267">
        <ele>190</ele>
        <time>2021-08-27T06:21:03.000Z</time>
      </trkpt>
      <trkpt lat="49.81194" lon="4.80267">
        <ele>190</ele>
        <time>2021-08-27T06:21:04.000Z</time>
      </trkpt>
      <trkpt lat="49.81194" lon="4.80267">
        <ele>191</ele>
        <time>2021-08-27T06:21:05.000Z</time>
      </trkpt>
      <trkpt lat="49.81194" lon="4.80266">
        <ele>191</ele>
        <time>2021-08-27T06:21:06.000Z</time>
      </trkpt>
      <trkpt lat="49.81194" lon="4.80266">
        <ele>191</ele>
        <time>2021-08-27T06:21:07.000Z</time>
      </trkpt>
      <trkpt lat="49.81194" lon="4.80266">
        <ele>191</ele>
        <time>2021-08-27T06:21:08.000Z</time>
      </trkpt>
      <trkpt lat="49.81194" lon="4.80265">
        <ele>191</ele>
        <time>2021-08-27T06:21:09.000Z</time>
      </trkpt>
      <trkpt lat="49.81194" lon="4.80265">
        <ele>191</ele>
        <time>2021-08-27T06:21:10.000Z</time>
      </trkpt>
      <trkpt lat="49.81194" lon="4.80265">
        <ele>191</ele>
        <time>2021-08-27T06:21:11.000Z</time>
      </trkpt>
      <trkpt lat="49.81195" lon="4.80265">
        <ele>191</ele>
        <time>2021-08-27T06:21:12.000Z</time>
      </trkpt>
      <trkpt lat="49.81195" lon="4.80265">
        <ele>191</ele>
        <time>2021-08-27T06:21:13.000Z</time>
      </trkpt>
      <trkpt lat="49.81195" lon="4.80265">
        <ele>191</ele>
        <time>2021-08-27T06:21:14.000Z</time>
      </trkpt>
      <trkpt lat="49.81195" lon="4.80264">
        <ele>191</ele>
        <time>2021-08-27T06:21:15.000Z</time>
      </trkpt>
      <trkpt lat="49.81195" lon="4.80264">
        <ele>191</ele>
        <time>2021-08-27T06:21:16.000Z</time>
      </trkpt>
      <trkpt lat="49.81195" lon="4.80264">
        <ele>191</ele>
        <time>2021-08-27T06:21:17.000Z</time>
      </trkpt>
      <trkpt lat="49.81195" lon="4.80264">
        <ele>191</ele>
        <time>2021-08-27T06:21:18.000Z</time>
      </trkpt>
      <trkpt lat="49.81195" lon="4.80264">
        <ele>191</ele>
        <time>2021-08-27T06:21:19.000Z</time>
      </trkpt>
      <trkpt lat="49.81195" lon="4.80264">
        <ele>191</ele>
        <time>2021-08-27T06:21:20.000Z</time>
      </trkpt>
      <trkpt lat="49.81195" lon="4.80264">
        <ele>191</ele>
        <time>2021-08-27T06:21:21.000Z</time>
      </trkpt>
      <trkpt lat="49.81195" lon="4.80264">
        <ele>191</ele>
        <time>2021-08-27T06:21:22.000Z</time>
      </trkpt>
      <trkpt lat="49.81195" lon="4.80264">
        <ele>191</ele>
        <time>2021-08-27T06:21:23.000Z</time>
      </trkpt>
      <trkpt lat="49.81195" lon="4.80264">
        <ele>191</ele>
        <time>2021-08-27T06:21:24.000Z</time>
      </trkpt>
      <trkpt lat="49.81195" lon="4.80264">
        <ele>191</ele>
        <time>2021-08-27T06:21:25.000Z</time>
      </trkpt>
      <trkpt lat="49.81195" lon="4.80264">
        <ele>191</ele>
        <time>2021-08-27T06:21:26.000Z</time>
      </trkpt>
      <trkpt lat="49.81195" lon="4.80263">
        <ele>191</ele>
        <time>2021-08-27T06:21:27.000Z</time>
      </trkpt>
      <trkpt lat="49.81195" lon="4.80263">
        <ele>191</ele>
        <time>2021-08-27T06:21:28.000Z</time>
      </trkpt>
      <trkpt lat="49.81195" lon="4.80261">
        <ele>191</ele>
        <time>2021-08-27T06:21:29.000Z</time>
      </trkpt>
      <trkpt lat="49.81196" lon="4.80259">
        <ele>191</ele>
        <time>2021-08-27T06:21:30.000Z</time>
      </trkpt>
      <trkpt lat="49.81197" lon="4.80257">
        <ele>191</ele>
        <time>2021-08-27T06:21:31.000Z</time>
      </trkpt>
      <trkpt lat="49.81199" lon="4.80254">
        <ele>191</ele>
        <time>2021-08-27T06:21:32.000Z</time>
      </trkpt>
      <trkpt lat="49.81201" lon="4.8025">
        <ele>191</ele>
        <time>2021-08-27T06:21:33.000Z</time>
      </trkpt>
      <trkpt lat="49.81203" lon="4.80246">
        <ele>192</ele>
        <time>2021-08-27T06:21:34.000Z</time>
      </trkpt>
      <trkpt lat="49.81204" lon="4.80242">
        <ele>192</ele>
        <time>2021-08-27T06:21:35.000Z</time>
      </trkpt>
      <trkpt lat="49.81205" lon="4.80239">
        <ele>192</ele>
        <time>2021-08-27T06:21:36.000Z</time>
      </trkpt>
      <trkpt lat="49.81207" lon="4.80235">
        <ele>192</ele>
        <time>2021-08-27T06:21:37.000Z</time>
      </trkpt>
      <trkpt lat="49.8121" lon="4.80231">
        <ele>192</ele>
        <time>2021-08-27T06:21:38.000Z</time>
      </trkpt>
      <trkpt lat="49.81211" lon="4.80226">
        <ele>192</ele>
        <time>2021-08-27T06:21:39.000Z</time>
      </trkpt>
      <trkpt lat="49.81214" lon="4.80221">
        <ele>192</ele>
        <time>2021-08-27T06:21:40.000Z</time>
      </trkpt>
      <trkpt lat="49.81216" lon="4.80216">
        <ele>192</ele>
        <time>2021-08-27T06:21:41.000Z</time>
      </trkpt>
      <trkpt lat="49.81218" lon="4.80211">
        <ele>193</ele>
        <time>2021-08-27T06:21:42.000Z</time>
      </trkpt>
      <trkpt lat="49.8122" lon="4.80205">
        <ele>193</ele>
        <time>2021-08-27T06:21:43.000Z</time>
      </trkpt>
      <trkpt lat="49.81222" lon="4.80199">
        <ele>193</ele>
        <time>2021-08-27T06:21:44.000Z</time>
      </trkpt>
      <trkpt lat="49.81224" lon="4.80193">
        <ele>193</ele>
        <time>2021-08-27T06:21:45.000Z</time>
      </trkpt>
      <trkpt lat="49.81227" lon="4.80187">
        <ele>193</ele>
        <time>2021-08-27T06:21:46.000Z</time>
      </trkpt>
      <trkpt lat="49.8123" lon="4.8018">
        <ele>193</ele>
        <time>2021-08-27T06:21:47.000Z</time>
      </trkpt>
      <trkpt lat="49.81232" lon="4.80174">
        <ele>193</ele>
        <time>2021-08-27T06:21:48.000Z</time>
      </trkpt>
      <trkpt lat="49.81235" lon="4.80168">
        <ele>194</ele>
        <time>2021-08-27T06:21:49.000Z</time>
      </trkpt>
      <trkpt lat="49.81237" lon="4.80162">
        <ele>194</ele>
        <time>2021-08-27T06:21:50.000Z</time>
      </trkpt>
      <trkpt lat="49.81239" lon="4.80156">
        <ele>194</ele>
        <time>2021-08-27T06:21:51.000Z</time>
      </trkpt>
      <trkpt lat="49.81242" lon="4.8015">
        <ele>194</ele>
        <time>2021-08-27T06:21:52.000Z</time>
      </trkpt>
      <trkpt lat="49.81244" lon="4.80144">
        <ele>194</ele>
        <time>2021-08-27T06:21:53.000Z</time>
      </trkpt>
      <trkpt lat="49.81247" lon="4.80139">
        <ele>194</ele>
        <time>2021-08-27T06:21:54.000Z</time>
      </trkpt>
      <trkpt lat="49.8125" lon="4.80133">
        <ele>194</ele>
        <time>2021-08-27T06:21:55.000Z</time>
      </trkpt>
      <trkpt lat="49.81253" lon="4.80128">
        <ele>194</ele>
        <time>2021-08-27T06:21:56.000Z</time>
      </trkpt>
      <trkpt lat="49.81255" lon="4.80123">
        <ele>194</ele>
        <time>2021-08-27T06:21:57.000Z</time>
      </trkpt>
      <trkpt lat="49.81257" lon="4.80118">
        <ele>194</ele>
        <time>2021-08-27T06:21:58.000Z</time>
      </trkpt>
      <trkpt lat="49.81259" lon="4.80113">
        <ele>194</ele>
        <time>2021-08-27T06:21:59.000Z</time>
      </trkpt>
      <trkpt lat="49.81261" lon="4.80109">
        <ele>194</ele>
        <time>2021-08-27T06:22:00.000Z</time>
      </trkpt>
      <trkpt lat="49.81263" lon="4.80105">
        <ele>195</ele>
        <time>2021-08-27T06:22:01.000Z</time>
      </trkpt>
      <trkpt lat="49.81265" lon="4.80099">
        <ele>195</ele>
        <time>2021-08-27T06:22:02.000Z</time>
      </trkpt>
      <trkpt lat="49.81267" lon="4.80094">
        <ele>195</ele>
        <time>2021-08-27T06:22:03.000Z</time>
      </trkpt>
      <trkpt lat="49.8127" lon="4.80088">
        <ele>195</ele>
        <time>2021-08-27T06:22:04.000Z</time>
      </trkpt>
      <trkpt lat="49.81272" lon="4.80081">
        <ele>195</ele>
        <time>2021-08-27T06:22:05.000Z</time>
      </trkpt>
      <trkpt lat="49.81275" lon="4.80075">
        <ele>195</ele>
        <time>2021-08-27T06:22:06.000Z</time>
      </trkpt>
      <trkpt lat="49.81277" lon="4.80068">
        <ele>195</ele>
        <time>2021-08-27T06:22:07.000Z</time>
      </trkpt>
      <trkpt lat="49.81279" lon="4.80062">
        <ele>195</ele>
        <time>2021-08-27T06:22:08.000Z</time>
      </trkpt>
      <trkpt lat="49.81281" lon="4.80056">
        <ele>195</ele>
        <time>2021-08-27T06:22:09.000Z</time>
      </trkpt>
      <trkpt lat="49.81284" lon="4.80052">
        <ele>195</ele>
        <time>2021-08-27T06:22:10.000Z</time>
      </trkpt>
      <trkpt lat="49.81287" lon="4.80047">
        <ele>195</ele>
        <time>2021-08-27T06:22:11.000Z</time>
      </trkpt>
      <trkpt lat="49.8129" lon="4.80042">
        <ele>195</ele>
        <time>2021-08-27T06:22:12.000Z</time>
      </trkpt>
      <trkpt lat="49.81292" lon="4.80037">
        <ele>195</ele>
        <time>2021-08-27T06:22:13.000Z</time>
      </trkpt>
      <trkpt lat="49.81295" lon="4.80032">
        <ele>195</ele>
        <time>2021-08-27T06:22:14.000Z</time>
      </trkpt>
      <trkpt lat="49.81297" lon="4.80026">
        <ele>195</ele>
        <time>2021-08-27T06:22:15.000Z</time>
      </trkpt>
      <trkpt lat="49.813" lon="4.8002">
        <ele>195</ele>
        <time>2021-08-27T06:22:16.000Z</time>
      </trkpt>
      <trkpt lat="49.81302" lon="4.80015">
        <ele>195</ele>
        <time>2021-08-27T06:22:17.000Z</time>
      </trkpt>
      <trkpt lat="49.81304" lon="4.80008">
        <ele>195</ele>
        <time>2021-08-27T06:22:18.000Z</time>
      </trkpt>
      <trkpt lat="49.81306" lon="4.80001">
        <ele>195</ele>
        <time>2021-08-27T06:22:19.000Z</time>
      </trkpt>
      <trkpt lat="49.81307" lon="4.79995">
        <ele>196</ele>
        <time>2021-08-27T06:22:20.000Z</time>
      </trkpt>
      <trkpt lat="49.81309" lon="4.79988">
        <ele>196</ele>
        <time>2021-08-27T06:22:21.000Z</time>
      </trkpt>
      <trkpt lat="49.81312" lon="4.79982">
        <ele>196</ele>
        <time>2021-08-27T06:22:22.000Z</time>
      </trkpt>
      <trkpt lat="49.81315" lon="4.79976">
        <ele>196</ele>
        <time>2021-08-27T06:22:23.000Z</time>
      </trkpt>
      <trkpt lat="49.81317" lon="4.7997">
        <ele>196</ele>
        <time>2021-08-27T06:22:24.000Z</time>
      </trkpt>
      <trkpt lat="49.8132" lon="4.79963">
        <ele>196</ele>
        <time>2021-08-27T06:22:25.000Z</time>
      </trkpt>
      <trkpt lat="49.81322" lon="4.79957">
        <ele>196</ele>
        <time>2021-08-27T06:22:26.000Z</time>
      </trkpt>
      <trkpt lat="49.81325" lon="4.79951">
        <ele>196</ele>
        <time>2021-08-27T06:22:27.000Z</time>
      </trkpt>
      <trkpt lat="49.81328" lon="4.79945">
        <ele>196</ele>
        <time>2021-08-27T06:22:28.000Z</time>
      </trkpt>
      <trkpt lat="49.81331" lon="4.79938">
        <ele>196</ele>
        <time>2021-08-27T06:22:29.000Z</time>
      </trkpt>
      <trkpt lat="49.81334" lon="4.79931">
        <ele>196</ele>
        <time>2021-08-27T06:22:30.000Z</time>
      </trkpt>
      <trkpt lat="49.81336" lon="4.79925">
        <ele>196</ele>
        <time>2021-08-27T06:22:31.000Z</time>
      </trkpt>
      <trkpt lat="49.81339" lon="4.79919">
        <ele>196</ele>
        <time>2021-08-27T06:22:32.000Z</time>
      </trkpt>
      <trkpt lat="49.8134" lon="4.79914">
        <ele>196</ele>
        <time>2021-08-27T06:22:33.000Z</time>
      </trkpt>
      <trkpt lat="49.81342" lon="4.79909">
        <ele>196</ele>
        <time>2021-08-27T06:22:34.000Z</time>
      </trkpt>
      <trkpt lat="49.81344" lon="4.79901">
        <ele>197</ele>
        <time>2021-08-27T06:22:35.000Z</time>
      </trkpt>
      <trkpt lat="49.81347" lon="4.79894">
        <ele>197</ele>
        <time>2021-08-27T06:22:36.000Z</time>
      </trkpt>
      <trkpt lat="49.8135" lon="4.79888">
        <ele>197</ele>
        <time>2021-08-27T06:22:37.000Z</time>
      </trkpt>
      <trkpt lat="49.81352" lon="4.79882">
        <ele>197</ele>
        <time>2021-08-27T06:22:38.000Z</time>
      </trkpt>
      <trkpt lat="49.81354" lon="4.79875">
        <ele>197</ele>
        <time>2021-08-27T06:22:39.000Z</time>
      </trkpt>
      <trkpt lat="49.81356" lon="4.79867">
        <ele>197</ele>
        <time>2021-08-27T06:22:40.000Z</time>
      </trkpt>
      <trkpt lat="49.81357" lon="4.7986">
        <ele>197</ele>
        <time>2021-08-27T06:22:41.000Z</time>
      </trkpt>
      <trkpt lat="49.81359" lon="4.79853">
        <ele>197</ele>
        <time>2021-08-27T06:22:42.000Z</time>
      </trkpt>
      <trkpt lat="49.81362" lon="4.79846">
        <ele>197</ele>
        <time>2021-08-27T06:22:43.000Z</time>
      </trkpt>
      <trkpt lat="49.81365" lon="4.79838">
        <ele>197</ele>
        <time>2021-08-27T06:22:44.000Z</time>
      </trkpt>
      <trkpt lat="49.81368" lon="4.79832">
        <ele>197</ele>
        <time>2021-08-27T06:22:45.000Z</time>
      </trkpt>
      <trkpt lat="49.81371" lon="4.79824">
        <ele>197</ele>
        <time>2021-08-27T06:22:46.000Z</time>
      </trkpt>
      <trkpt lat="49.81374" lon="4.79817">
        <ele>197</ele>
        <time>2021-08-27T06:22:47.000Z</time>
      </trkpt>
      <trkpt lat="49.81377" lon="4.79811">
        <ele>197</ele>
        <time>2021-08-27T06:22:48.000Z</time>
      </trkpt>
      <trkpt lat="49.81381" lon="4.79806">
        <ele>197</ele>
        <time>2021-08-27T06:22:49.000Z</time>
      </trkpt>
      <trkpt lat="49.81383" lon="4.798">
        <ele>197</ele>
        <time>2021-08-27T06:22:50.000Z</time>
      </trkpt>
      <trkpt lat="49.81385" lon="4.79794">
        <ele>197</ele>
        <time>2021-08-27T06:22:51.000Z</time>
      </trkpt>
      <trkpt lat="49.81387" lon="4.79787">
        <ele>197</ele>
        <time>2021-08-27T06:22:52.000Z</time>
      </trkpt>
      <trkpt lat="49.8139" lon="4.7978">
        <ele>197</ele>
        <time>2021-08-27T06:22:53.000Z</time>
      </trkpt>
      <trkpt lat="49.81393" lon="4.79773">
        <ele>197</ele>
        <time>2021-08-27T06:22:54.000Z</time>
      </trkpt>
      <trkpt lat="49.81396" lon="4.79765">
        <ele>197</ele>
        <time>2021-08-27T06:22:55.000Z</time>
      </trkpt>
      <trkpt lat="49.81399" lon="4.79758">
        <ele>197</ele>
        <time>2021-08-27T06:22:56.000Z</time>
      </trkpt>
      <trkpt lat="49.81402" lon="4.7975">
        <ele>197</ele>
        <time>2021-08-27T06:22:57.000Z</time>
      </trkpt>
      <trkpt lat="49.81404" lon="4.79742">
        <ele>198</ele>
        <time>2021-08-27T06:22:58.000Z</time>
      </trkpt>
      <trkpt lat="49.81406" lon="4.79734">
        <ele>198</ele>
        <time>2021-08-27T06:22:59.000Z</time>
      </trkpt>
      <trkpt lat="49.81408" lon="4.79727">
        <ele>198</ele>
        <time>2021-08-27T06:23:00.000Z</time>
      </trkpt>
      <trkpt lat="49.8141" lon="4.79719">
        <ele>198</ele>
        <time>2021-08-27T06:23:01.000Z</time>
      </trkpt>
      <trkpt lat="49.81412" lon="4.79711">
        <ele>198</ele>
        <time>2021-08-27T06:23:02.000Z</time>
      </trkpt>
      <trkpt lat="49.81414" lon="4.79703">
        <ele>198</ele>
        <time>2021-08-27T06:23:03.000Z</time>
      </trkpt>
      <trkpt lat="49.81416" lon="4.79695">
        <ele>198</ele>
        <time>2021-08-27T06:23:04.000Z</time>
      </trkpt>
      <trkpt lat="49.81418" lon="4.79688">
        <ele>198</ele>
        <time>2021-08-27T06:23:05.000Z</time>
      </trkpt>
      <trkpt lat="49.8142" lon="4.79681">
        <ele>198</ele>
        <time>2021-08-27T06:23:06.000Z</time>
      </trkpt>
      <trkpt lat="49.81421" lon="4.79674">
        <ele>198</ele>
        <time>2021-08-27T06:23:07.000Z</time>
      </trkpt>
      <trkpt lat="49.81422" lon="4.79666">
        <ele>198</ele>
        <time>2021-08-27T06:23:08.000Z</time>
      </trkpt>
      <trkpt lat="49.81423" lon="4.79659">
        <ele>198</ele>
        <time>2021-08-27T06:23:09.000Z</time>
      </trkpt>
      <trkpt lat="49.81424" lon="4.79651">
        <ele>198</ele>
        <time>2021-08-27T06:23:10.000Z</time>
      </trkpt>
      <trkpt lat="49.81425" lon="4.79645">
        <ele>198</ele>
        <time>2021-08-27T06:23:11.000Z</time>
      </trkpt>
      <trkpt lat="49.81426" lon="4.79637">
        <ele>198</ele>
        <time>2021-08-27T06:23:12.000Z</time>
      </trkpt>
      <trkpt lat="49.81427" lon="4.7963">
        <ele>198</ele>
        <time>2021-08-27T06:23:13.000Z</time>
      </trkpt>
      <trkpt lat="49.81428" lon="4.79624">
        <ele>198</ele>
        <time>2021-08-27T06:23:14.000Z</time>
      </trkpt>
      <trkpt lat="49.81429" lon="4.79617">
        <ele>199</ele>
        <time>2021-08-27T06:23:15.000Z</time>
      </trkpt>
      <trkpt lat="49.8143" lon="4.79611">
        <ele>199</ele>
        <time>2021-08-27T06:23:16.000Z</time>
      </trkpt>
      <trkpt lat="49.81431" lon="4.79605">
        <ele>199</ele>
        <time>2021-08-27T06:23:17.000Z</time>
      </trkpt>
      <trkpt lat="49.81431" lon="4.79599">
        <ele>199</ele>
        <time>2021-08-27T06:23:18.000Z</time>
      </trkpt>
      <trkpt lat="49.81432" lon="4.79593">
        <ele>199</ele>
        <time>2021-08-27T06:23:19.000Z</time>
      </trkpt>
      <trkpt lat="49.81433" lon="4.79585">
        <ele>199</ele>
        <time>2021-08-27T06:23:20.000Z</time>
      </trkpt>
      <trkpt lat="49.81434" lon="4.79577">
        <ele>199</ele>
        <time>2021-08-27T06:23:21.000Z</time>
      </trkpt>
      <trkpt lat="49.81435" lon="4.79568">
        <ele>199</ele>
        <time>2021-08-27T06:23:22.000Z</time>
      </trkpt>
      <trkpt lat="49.81437" lon="4.79561">
        <ele>199</ele>
        <time>2021-08-27T06:23:23.000Z</time>
      </trkpt>
      <trkpt lat="49.81438" lon="4.79552">
        <ele>199</ele>
        <time>2021-08-27T06:23:24.000Z</time>
      </trkpt>
      <trkpt lat="49.81439" lon="4.79544">
        <ele>199</ele>
        <time>2021-08-27T06:23:25.000Z</time>
      </trkpt>
      <trkpt lat="49.8144" lon="4.79537">
        <ele>199</ele>
        <time>2021-08-27T06:23:26.000Z</time>
      </trkpt>
      <trkpt lat="49.81442" lon="4.7953">
        <ele>199</ele>
        <time>2021-08-27T06:23:27.000Z</time>
      </trkpt>
      <trkpt lat="49.81442" lon="4.79522">
        <ele>199</ele>
        <time>2021-08-27T06:23:28.000Z</time>
      </trkpt>
      <trkpt lat="49.81443" lon="4.79514">
        <ele>199</ele>
        <time>2021-08-27T06:23:29.000Z</time>
      </trkpt>
      <trkpt lat="49.81443" lon="4.79506">
        <ele>199</ele>
        <time>2021-08-27T06:23:30.000Z</time>
      </trkpt>
      <trkpt lat="49.81443" lon="4.79498">
        <ele>199</ele>
        <time>2021-08-27T06:23:31.000Z</time>
      </trkpt>
      <trkpt lat="49.81443" lon="4.7949">
        <ele>199</ele>
        <time>2021-08-27T06:23:32.000Z</time>
      </trkpt>
      <trkpt lat="49.81443" lon="4.79483">
        <ele>199</ele>
        <time>2021-08-27T06:23:33.000Z</time>
      </trkpt>
      <trkpt lat="49.81443" lon="4.79476">
        <ele>199</ele>
        <time>2021-08-27T06:23:34.000Z</time>
      </trkpt>
      <trkpt lat="49.81443" lon="4.7947">
        <ele>199</ele>
        <time>2021-08-27T06:23:35.000Z</time>
      </trkpt>
      <trkpt lat="49.81443" lon="4.79463">
        <ele>199</ele>
        <time>2021-08-27T06:23:36.000Z</time>
      </trkpt>
      <trkpt lat="49.81443" lon="4.79457">
        <ele>199</ele>
        <time>2021-08-27T06:23:37.000Z</time>
      </trkpt>
      <trkpt lat="49.81443" lon="4.7945">
        <ele>199</ele>
        <time>2021-08-27T06:23:38.000Z</time>
      </trkpt>
      <trkpt lat="49.81444" lon="4.79443">
        <ele>199</ele>
        <time>2021-08-27T06:23:39.000Z</time>
      </trkpt>
      <trkpt lat="49.81444" lon="4.79436">
        <ele>199</ele>
        <time>2021-08-27T06:23:40.000Z</time>
      </trkpt>
      <trkpt lat="49.81444" lon="4.79429">
        <ele>199</ele>
        <time>2021-08-27T06:23:41.000Z</time>
      </trkpt>
      <trkpt lat="49.81445" lon="4.79422">
        <ele>199</ele>
        <time>2021-08-27T06:23:42.000Z</time>
      </trkpt>
      <trkpt lat="49.81446" lon="4.79415">
        <ele>199</ele>
        <time>2021-08-27T06:23:43.000Z</time>
      </trkpt>
      <trkpt lat="49.81447" lon="4.79408">
        <ele>199</ele>
        <time>2021-08-27T06:23:44.000Z</time>
      </trkpt>
      <trkpt lat="49.81449" lon="4.79403">
        <ele>199</ele>
        <time>2021-08-27T06:23:45.000Z</time>
      </trkpt>
      <trkpt lat="49.81451" lon="4.79399">
        <ele>199</ele>
        <time>2021-08-27T06:23:46.000Z</time>
      </trkpt>
      <trkpt lat="49.81453" lon="4.79395">
        <ele>199</ele>
        <time>2021-08-27T06:23:47.000Z</time>
      </trkpt>
      <trkpt lat="49.81454" lon="4.7939">
        <ele>199</ele>
        <time>2021-08-27T06:23:48.000Z</time>
      </trkpt>
      <trkpt lat="49.81454" lon="4.79384">
        <ele>199</ele>
        <time>2021-08-27T06:23:49.000Z</time>
      </trkpt>
      <trkpt lat="49.81455" lon="4.79377">
        <ele>199</ele>
        <time>2021-08-27T06:23:50.000Z</time>
      </trkpt>
      <trkpt lat="49.81455" lon="4.7937">
        <ele>199</ele>
        <time>2021-08-27T06:23:51.000Z</time>
      </trkpt>
      <trkpt lat="49.81456" lon="4.79361">
        <ele>199</ele>
        <time>2021-08-27T06:23:52.000Z</time>
      </trkpt>
      <trkpt lat="49.81456" lon="4.79354">
        <ele>199</ele>
        <time>2021-08-27T06:23:53.000Z</time>
      </trkpt>
      <trkpt lat="49.81457" lon="4.79348">
        <ele>199</ele>
        <time>2021-08-27T06:23:54.000Z</time>
      </trkpt>
      <trkpt lat="49.81456" lon="4.79343">
        <ele>199</ele>
        <time>2021-08-27T06:23:55.000Z</time>
      </trkpt>
      <trkpt lat="49.81457" lon="4.79337">
        <ele>199</ele>
        <time>2021-08-27T06:23:56.000Z</time>
      </trkpt>
      <trkpt lat="49.81457" lon="4.79332">
        <ele>199</ele>
        <time>2021-08-27T06:23:57.000Z</time>
      </trkpt>
      <trkpt lat="49.81458" lon="4.79326">
        <ele>199</ele>
        <time>2021-08-27T06:23:58.000Z</time>
      </trkpt>
      <trkpt lat="49.81458" lon="4.79319">
        <ele>199</ele>
        <time>2021-08-27T06:23:59.000Z</time>
      </trkpt>
      <trkpt lat="49.81459" lon="4.79312">
        <ele>199</ele>
        <time>2021-08-27T06:24:00.000Z</time>
      </trkpt>
      <trkpt lat="49.8146" lon="4.79304">
        <ele>199</ele>
        <time>2021-08-27T06:24:01.000Z</time>
      </trkpt>
      <trkpt lat="49.81461" lon="4.79297">
        <ele>199</ele>
        <time>2021-08-27T06:24:02.000Z</time>
      </trkpt>
      <trkpt lat="49.81462" lon="4.7929">
        <ele>199</ele>
        <time>2021-08-27T06:24:03.000Z</time>
      </trkpt>
      <trkpt lat="49.81463" lon="4.79283">
        <ele>199</ele>
        <time>2021-08-27T06:24:04.000Z</time>
      </trkpt>
      <trkpt lat="49.81464" lon="4.79275">
        <ele>199</ele>
        <time>2021-08-27T06:24:05.000Z</time>
      </trkpt>
      <trkpt lat="49.81465" lon="4.79268">
        <ele>199</ele>
        <time>2021-08-27T06:24:06.000Z</time>
      </trkpt>
      <trkpt lat="49.81467" lon="4.79261">
        <ele>198</ele>
        <time>2021-08-27T06:24:07.000Z</time>
      </trkpt>
      <trkpt lat="49.81468" lon="4.79253">
        <ele>198</ele>
        <time>2021-08-27T06:24:08.000Z</time>
      </trkpt>
      <trkpt lat="49.81469" lon="4.79246">
        <ele>198</ele>
        <time>2021-08-27T06:24:09.000Z</time>
      </trkpt>
      <trkpt lat="49.8147" lon="4.79241">
        <ele>198</ele>
        <time>2021-08-27T06:24:10.000Z</time>
      </trkpt>
      <trkpt lat="49.81472" lon="4.79235">
        <ele>198</ele>
        <time>2021-08-27T06:24:11.000Z</time>
      </trkpt>
      <trkpt lat="49.81474" lon="4.79229">
        <ele>198</ele>
        <time>2021-08-27T06:24:12.000Z</time>
      </trkpt>
      <trkpt lat="49.81475" lon="4.79224">
        <ele>198</ele>
        <time>2021-08-27T06:24:13.000Z</time>
      </trkpt>
      <trkpt lat="49.81477" lon="4.79218">
        <ele>198</ele>
        <time>2021-08-27T06:24:14.000Z</time>
      </trkpt>
      <trkpt lat="49.81477" lon="4.79212">
        <ele>198</ele>
        <time>2021-08-27T06:24:15.000Z</time>
      </trkpt>
      <trkpt lat="49.81478" lon="4.79205">
        <ele>198</ele>
        <time>2021-08-27T06:24:16.000Z</time>
      </trkpt>
      <trkpt lat="49.81477" lon="4.79197">
        <ele>198</ele>
        <time>2021-08-27T06:24:17.000Z</time>
      </trkpt>
      <trkpt lat="49.81477" lon="4.79188">
        <ele>198</ele>
        <time>2021-08-27T06:24:18.000Z</time>
      </trkpt>
      <trkpt lat="49.81476" lon="4.79179">
        <ele>198</ele>
        <time>2021-08-27T06:24:19.000Z</time>
      </trkpt>
      <trkpt lat="49.81476" lon="4.79169">
        <ele>198</ele>
        <time>2021-08-27T06:24:20.000Z</time>
      </trkpt>
      <trkpt lat="49.81476" lon="4.79158">
        <ele>198</ele>
        <time>2021-08-27T06:24:21.000Z</time>
      </trkpt>
      <trkpt lat="49.81475" lon="4.79148">
        <ele>198</ele>
        <time>2021-08-27T06:24:22.000Z</time>
      </trkpt>
      <trkpt lat="49.81475" lon="4.79138">
        <ele>198</ele>
        <time>2021-08-27T06:24:23.000Z</time>
      </trkpt>
      <trkpt lat="49.81475" lon="4.79128">
        <ele>197</ele>
        <time>2021-08-27T06:24:24.000Z</time>
      </trkpt>
      <trkpt lat="49.81475" lon="4.79118">
        <ele>197</ele>
        <time>2021-08-27T06:24:25.000Z</time>
      </trkpt>
      <trkpt lat="49.81476" lon="4.79108">
        <ele>197</ele>
        <time>2021-08-27T06:24:26.000Z</time>
      </trkpt>
      <trkpt lat="49.81477" lon="4.79099">
        <ele>197</ele>
        <time>2021-08-27T06:24:27.000Z</time>
      </trkpt>
      <trkpt lat="49.81477" lon="4.79093">
        <ele>197</ele>
        <time>2021-08-27T06:24:28.000Z</time>
      </trkpt>
      <trkpt lat="49.81479" lon="4.79087">
        <ele>196</ele>
        <time>2021-08-27T06:24:29.000Z</time>
      </trkpt>
      <trkpt lat="49.8148" lon="4.79082">
        <ele>196</ele>
        <time>2021-08-27T06:24:30.000Z</time>
      </trkpt>
      <trkpt lat="49.81482" lon="4.79078">
        <ele>196</ele>
        <time>2021-08-27T06:24:31.000Z</time>
      </trkpt>
      <trkpt lat="49.81482" lon="4.79074">
        <ele>196</ele>
        <time>2021-08-27T06:24:32.000Z</time>
      </trkpt>
      <trkpt lat="49.81483" lon="4.79071">
        <ele>196</ele>
        <time>2021-08-27T06:24:33.000Z</time>
      </trkpt>
      <trkpt lat="49.81485" lon="4.79068">
        <ele>195</ele>
        <time>2021-08-27T06:24:34.000Z</time>
      </trkpt>
      <trkpt lat="49.81486" lon="4.79063">
        <ele>195</ele>
        <time>2021-08-27T06:24:35.000Z</time>
      </trkpt>
      <trkpt lat="49.81487" lon="4.79059">
        <ele>195</ele>
        <time>2021-08-27T06:24:36.000Z</time>
      </trkpt>
      <trkpt lat="49.81488" lon="4.79055">
        <ele>195</ele>
        <time>2021-08-27T06:24:37.000Z</time>
      </trkpt>
      <trkpt lat="49.81489" lon="4.79051">
        <ele>195</ele>
        <time>2021-08-27T06:24:38.000Z</time>
      </trkpt>
      <trkpt lat="49.8149" lon="4.79047">
        <ele>195</ele>
        <time>2021-08-27T06:24:39.000Z</time>
      </trkpt>
      <trkpt lat="49.81492" lon="4.79042">
        <ele>195</ele>
        <time>2021-08-27T06:24:40.000Z</time>
      </trkpt>
      <trkpt lat="49.81493" lon="4.79036">
        <ele>194</ele>
        <time>2021-08-27T06:24:41.000Z</time>
      </trkpt>
      <trkpt lat="49.81494" lon="4.79031">
        <ele>194</ele>
        <time>2021-08-27T06:24:42.000Z</time>
      </trkpt>
      <trkpt lat="49.81495" lon="4.79025">
        <ele>194</ele>
        <time>2021-08-27T06:24:43.000Z</time>
      </trkpt>
      <trkpt lat="49.81496" lon="4.79019">
        <ele>194</ele>
        <time>2021-08-27T06:24:44.000Z</time>
      </trkpt>
      <trkpt lat="49.81498" lon="4.79013">
        <ele>194</ele>
        <time>2021-08-27T06:24:45.000Z</time>
      </trkpt>
      <trkpt lat="49.81499" lon="4.79008">
        <ele>194</ele>
        <time>2021-08-27T06:24:46.000Z</time>
      </trkpt>
      <trkpt lat="49.81501" lon="4.79002">
        <ele>194</ele>
        <time>2021-08-27T06:24:47.000Z</time>
      </trkpt>
      <trkpt lat="49.81502" lon="4.78997">
        <ele>194</ele>
        <time>2021-08-27T06:24:48.000Z</time>
      </trkpt>
      <trkpt lat="49.81503" lon="4.78991">
        <ele>194</ele>
        <time>2021-08-27T06:24:49.000Z</time>
      </trkpt>
      <trkpt lat="49.81505" lon="4.78986">
        <ele>194</ele>
        <time>2021-08-27T06:24:50.000Z</time>
      </trkpt>
      <trkpt lat="49.81506" lon="4.7898">
        <ele>194</ele>
        <time>2021-08-27T06:24:51.000Z</time>
      </trkpt>
      <trkpt lat="49.81507" lon="4.78975">
        <ele>194</ele>
        <time>2021-08-27T06:24:52.000Z</time>
      </trkpt>
      <trkpt lat="49.81507" lon="4.78969">
        <ele>193</ele>
        <time>2021-08-27T06:24:53.000Z</time>
      </trkpt>
      <trkpt lat="49.81508" lon="4.78964">
        <ele>193</ele>
        <time>2021-08-27T06:24:54.000Z</time>
      </trkpt>
      <trkpt lat="49.81509" lon="4.78958">
        <ele>193</ele>
        <time>2021-08-27T06:24:55.000Z</time>
      </trkpt>
      <trkpt lat="49.81509" lon="4.78952">
        <ele>193</ele>
        <time>2021-08-27T06:24:56.000Z</time>
      </trkpt>
      <trkpt lat="49.8151" lon="4.78945">
        <ele>193</ele>
        <time>2021-08-27T06:24:57.000Z</time>
      </trkpt>
      <trkpt lat="49.81511" lon="4.78938">
        <ele>193</ele>
        <time>2021-08-27T06:24:58.000Z</time>
      </trkpt>
      <trkpt lat="49.81512" lon="4.78931">
        <ele>193</ele>
        <time>2021-08-27T06:24:59.000Z</time>
      </trkpt>
      <trkpt lat="49.81513" lon="4.78924">
        <ele>193</ele>
        <time>2021-08-27T06:25:00.000Z</time>
      </trkpt>
      <trkpt lat="49.81514" lon="4.78919">
        <ele>192</ele>
        <time>2021-08-27T06:25:01.000Z</time>
      </trkpt>
      <trkpt lat="49.81514" lon="4.78913">
        <ele>192</ele>
        <time>2021-08-27T06:25:02.000Z</time>
      </trkpt>
      <trkpt lat="49.81515" lon="4.78908">
        <ele>192</ele>
        <time>2021-08-27T06:25:03.000Z</time>
      </trkpt>
      <trkpt lat="49.81517" lon="4.78902">
        <ele>192</ele>
        <time>2021-08-27T06:25:04.000Z</time>
      </trkpt>
      <trkpt lat="49.81518" lon="4.78897">
        <ele>192</ele>
        <time>2021-08-27T06:25:05.000Z</time>
      </trkpt>
      <trkpt lat="49.8152" lon="4.78891">
        <ele>192</ele>
        <time>2021-08-27T06:25:06.000Z</time>
      </trkpt>
      <trkpt lat="49.81522" lon="4.78885">
        <ele>192</ele>
        <time>2021-08-27T06:25:07.000Z</time>
      </trkpt>
      <trkpt lat="49.81524" lon="4.7888">
        <ele>191</ele>
        <time>2021-08-27T06:25:08.000Z</time>
      </trkpt>
      <trkpt lat="49.81525" lon="4.78874">
        <ele>191</ele>
        <time>2021-08-27T06:25:09.000Z</time>
      </trkpt>
      <trkpt lat="49.81527" lon="4.78869">
        <ele>191</ele>
        <time>2021-08-27T06:25:10.000Z</time>
      </trkpt>
      <trkpt lat="49.81528" lon="4.78863">
        <ele>191</ele>
        <time>2021-08-27T06:25:11.000Z</time>
      </trkpt>
      <trkpt lat="49.8153" lon="4.78857">
        <ele>191</ele>
        <time>2021-08-27T06:25:12.000Z</time>
      </trkpt>
      <trkpt lat="49.81531" lon="4.78851">
        <ele>191</ele>
        <time>2021-08-27T06:25:13.000Z</time>
      </trkpt>
      <trkpt lat="49.81532" lon="4.78846">
        <ele>190</ele>
        <time>2021-08-27T06:25:14.000Z</time>
      </trkpt>
      <trkpt lat="49.81533" lon="4.7884">
        <ele>190</ele>
        <time>2021-08-27T06:25:15.000Z</time>
      </trkpt>
      <trkpt lat="49.81534" lon="4.78835">
        <ele>190</ele>
        <time>2021-08-27T06:25:16.000Z</time>
      </trkpt>
      <trkpt lat="49.81536" lon="4.7883">
        <ele>190</ele>
        <time>2021-08-27T06:25:17.000Z</time>
      </trkpt>
      <trkpt lat="49.81538" lon="4.78823">
        <ele>190</ele>
        <time>2021-08-27T06:25:18.000Z</time>
      </trkpt>
      <trkpt lat="49.81539" lon="4.78817">
        <ele>190</ele>
        <time>2021-08-27T06:25:19.000Z</time>
      </trkpt>
      <trkpt lat="49.8154" lon="4.7881">
        <ele>190</ele>
        <time>2021-08-27T06:25:20.000Z</time>
      </trkpt>
      <trkpt lat="49.81541" lon="4.78804">
        <ele>190</ele>
        <time>2021-08-27T06:25:21.000Z</time>
      </trkpt>
      <trkpt lat="49.81543" lon="4.78797">
        <ele>190</ele>
        <time>2021-08-27T06:25:22.000Z</time>
      </trkpt>
      <trkpt lat="49.81544" lon="4.78791">
        <ele>190</ele>
        <time>2021-08-27T06:25:23.000Z</time>
      </trkpt>
      <trkpt lat="49.81545" lon="4.78786">
        <ele>190</ele>
        <time>2021-08-27T06:25:24.000Z</time>
      </trkpt>
      <trkpt lat="49.81547" lon="4.78781">
        <ele>190</ele>
        <time>2021-08-27T06:25:25.000Z</time>
      </trkpt>
      <trkpt lat="49.81548" lon="4.78778">
        <ele>190</ele>
        <time>2021-08-27T06:25:26.000Z</time>
      </trkpt>
      <trkpt lat="49.81549" lon="4.78776">
        <ele>190</ele>
        <time>2021-08-27T06:25:27.000Z</time>
      </trkpt>
      <trkpt lat="49.81549" lon="4.78773">
        <ele>190</ele>
        <time>2021-08-27T06:25:28.000Z</time>
      </trkpt>
      <trkpt lat="49.8155" lon="4.78771">
        <ele>190</ele>
        <time>2021-08-27T06:25:29.000Z</time>
      </trkpt>
      <trkpt lat="49.81551" lon="4.78768">
        <ele>190</ele>
        <time>2021-08-27T06:25:30.000Z</time>
      </trkpt>
      <trkpt lat="49.81552" lon="4.78765">
        <ele>189</ele>
        <time>2021-08-27T06:25:31.000Z</time>
      </trkpt>
      <trkpt lat="49.81553" lon="4.78762">
        <ele>189</ele>
        <time>2021-08-27T06:25:32.000Z</time>
      </trkpt>
      <trkpt lat="49.81554" lon="4.78759">
        <ele>189</ele>
        <time>2021-08-27T06:25:33.000Z</time>
      </trkpt>
      <trkpt lat="49.81556" lon="4.78754">
        <ele>189</ele>
        <time>2021-08-27T06:25:34.000Z</time>
      </trkpt>
      <trkpt lat="49.81558" lon="4.7875">
        <ele>189</ele>
        <time>2021-08-27T06:25:35.000Z</time>
      </trkpt>
      <trkpt lat="49.8156" lon="4.78746">
        <ele>189</ele>
        <time>2021-08-27T06:25:36.000Z</time>
      </trkpt>
      <trkpt lat="49.81561" lon="4.78743">
        <ele>189</ele>
        <time>2021-08-27T06:25:37.000Z</time>
      </trkpt>
      <trkpt lat="49.81563" lon="4.7874">
        <ele>189</ele>
        <time>2021-08-27T06:25:38.000Z</time>
      </trkpt>
      <trkpt lat="49.81565" lon="4.78738">
        <ele>189</ele>
        <time>2021-08-27T06:25:39.000Z</time>
      </trkpt>
      <trkpt lat="49.81566" lon="4.78735">
        <ele>189</ele>
        <time>2021-08-27T06:25:40.000Z</time>
      </trkpt>
      <trkpt lat="49.81568" lon="4.78733">
        <ele>189</ele>
        <time>2021-08-27T06:25:41.000Z</time>
      </trkpt>
      <trkpt lat="49.81569" lon="4.78731">
        <ele>189</ele>
        <time>2021-08-27T06:25:42.000Z</time>
      </trkpt>
      <trkpt lat="49.8157" lon="4.78728">
        <ele>189</ele>
        <time>2021-08-27T06:25:43.000Z</time>
      </trkpt>
      <trkpt lat="49.81572" lon="4.78726">
        <ele>189</ele>
        <time>2021-08-27T06:25:44.000Z</time>
      </trkpt>
      <trkpt lat="49.81573" lon="4.78723">
        <ele>189</ele>
        <time>2021-08-27T06:25:45.000Z</time>
      </trkpt>
      <trkpt lat="49.81575" lon="4.78721">
        <ele>189</ele>
        <time>2021-08-27T06:25:46.000Z</time>
      </trkpt>
      <trkpt lat="49.81577" lon="4.78718">
        <ele>189</ele>
        <time>2021-08-27T06:25:47.000Z</time>
      </trkpt>
      <trkpt lat="49.81578" lon="4.78714">
        <ele>189</ele>
        <time>2021-08-27T06:25:48.000Z</time>
      </trkpt>
      <trkpt lat="49.81579" lon="4.7871">
        <ele>189</ele>
        <time>2021-08-27T06:25:49.000Z</time>
      </trkpt>
      <trkpt lat="49.81581" lon="4.78707">
        <ele>189</ele>
        <time>2021-08-27T06:25:50.000Z</time>
      </trkpt>
      <trkpt lat="49.81583" lon="4.78703">
        <ele>189</ele>
        <time>2021-08-27T06:25:51.000Z</time>
      </trkpt>
      <trkpt lat="49.81585" lon="4.78699">
        <ele>189</ele>
        <time>2021-08-27T06:25:52.000Z</time>
      </trkpt>
      <trkpt lat="49.81586" lon="4.78695">
        <ele>189</ele>
        <time>2021-08-27T06:25:53.000Z</time>
      </trkpt>
      <trkpt lat="49.81586" lon="4.78691">
        <ele>189</ele>
        <time>2021-08-27T06:25:54.000Z</time>
      </trkpt>
      <trkpt lat="49.81588" lon="4.78686">
        <ele>189</ele>
        <time>2021-08-27T06:25:55.000Z</time>
      </trkpt>
      <trkpt lat="49.8159" lon="4.78683">
        <ele>189</ele>
        <time>2021-08-27T06:25:56.000Z</time>
      </trkpt>
      <trkpt lat="49.81592" lon="4.7868">
        <ele>189</ele>
        <time>2021-08-27T06:25:57.000Z</time>
      </trkpt>
      <trkpt lat="49.81594" lon="4.78679">
        <ele>189</ele>
        <time>2021-08-27T06:25:58.000Z</time>
      </trkpt>
      <trkpt lat="49.81595" lon="4.78678">
        <ele>189</ele>
        <time>2021-08-27T06:25:59.000Z</time>
      </trkpt>
      <trkpt lat="49.81597" lon="4.78677">
        <ele>189</ele>
        <time>2021-08-27T06:26:00.000Z</time>
      </trkpt>
      <trkpt lat="49.81599" lon="4.78676">
        <ele>189</ele>
        <time>2021-08-27T06:26:01.000Z</time>
      </trkpt>
      <trkpt lat="49.81602" lon="4.78676">
        <ele>189</ele>
        <time>2021-08-27T06:26:02.000Z</time>
      </trkpt>
      <trkpt lat="49.81605" lon="4.78675">
        <ele>189</ele>
        <time>2021-08-27T06:26:03.000Z</time>
      </trkpt>
      <trkpt lat="49.81609" lon="4.78676">
        <ele>189</ele>
        <time>2021-08-27T06:26:04.000Z</time>
      </trkpt>
      <trkpt lat="49.81612" lon="4.78678">
        <ele>189</ele>
        <time>2021-08-27T06:26:05.000Z</time>
      </trkpt>
      <trkpt lat="49.81615" lon="4.78679">
        <ele>189</ele>
        <time>2021-08-27T06:26:06.000Z</time>
      </trkpt>
      <trkpt lat="49.81618" lon="4.78681">
        <ele>189</ele>
        <time>2021-08-27T06:26:07.000Z</time>
      </trkpt>
      <trkpt lat="49.81621" lon="4.78683">
        <ele>189</ele>
        <time>2021-08-27T06:26:08.000Z</time>
      </trkpt>
      <trkpt lat="49.81624" lon="4.78685">
        <ele>189</ele>
        <time>2021-08-27T06:26:09.000Z</time>
      </trkpt>
      <trkpt lat="49.81628" lon="4.78686">
        <ele>189</ele>
        <time>2021-08-27T06:26:10.000Z</time>
      </trkpt>
      <trkpt lat="49.81632" lon="4.78686">
        <ele>189</ele>
        <time>2021-08-27T06:26:11.000Z</time>
      </trkpt>
      <trkpt lat="49.81636" lon="4.78687">
        <ele>189</ele>
        <time>2021-08-27T06:26:12.000Z</time>
      </trkpt>
      <trkpt lat="49.81639" lon="4.78689">
        <ele>189</ele>
        <time>2021-08-27T06:26:13.000Z</time>
      </trkpt>
      <trkpt lat="49.81642" lon="4.78691">
        <ele>189</ele>
        <time>2021-08-27T06:26:14.000Z</time>
      </trkpt>
      <trkpt lat="49.81645" lon="4.78693">
        <ele>189</ele>
        <time>2021-08-27T06:26:15.000Z</time>
      </trkpt>
      <trkpt lat="49.81649" lon="4.78694">
        <ele>189</ele>
        <time>2021-08-27T06:26:16.000Z</time>
      </trkpt>
      <trkpt lat="49.81653" lon="4.78695">
        <ele>189</ele>
        <time>2021-08-27T06:26:17.000Z</time>
      </trkpt>
      <trkpt lat="49.81657" lon="4.78697">
        <ele>189</ele>
        <time>2021-08-27T06:26:18.000Z</time>
      </trkpt>
      <trkpt lat="49.81661" lon="4.78698">
        <ele>189</ele>
        <time>2021-08-27T06:26:19.000Z</time>
      </trkpt>
      <trkpt lat="49.81666" lon="4.787">
        <ele>189</ele>
        <time>2021-08-27T06:26:20.000Z</time>
      </trkpt>
      <trkpt lat="49.81669" lon="4.78703">
        <ele>189</ele>
        <time>2021-08-27T06:26:21.000Z</time>
      </trkpt>
      <trkpt lat="49.81672" lon="4.78704">
        <ele>189</ele>
        <time>2021-08-27T06:26:22.000Z</time>
      </trkpt>
      <trkpt lat="49.81676" lon="4.78706">
        <ele>189</ele>
        <time>2021-08-27T06:26:23.000Z</time>
      </trkpt>
      <trkpt lat="49.81679" lon="4.78708">
        <ele>189</ele>
        <time>2021-08-27T06:26:24.000Z</time>
      </trkpt>
      <trkpt lat="49.81682" lon="4.7871">
        <ele>189</ele>
        <time>2021-08-27T06:26:25.000Z</time>
      </trkpt>
      <trkpt lat="49.81686" lon="4.78712">
        <ele>189</ele>
        <time>2021-08-27T06:26:26.000Z</time>
      </trkpt>
      <trkpt lat="49.81689" lon="4.78713">
        <ele>189</ele>
        <time>2021-08-27T06:26:27.000Z</time>
      </trkpt>
      <trkpt lat="49.81693" lon="4.78716">
        <ele>189</ele>
        <time>2021-08-27T06:26:28.000Z</time>
      </trkpt>
      <trkpt lat="49.81696" lon="4.78718">
        <ele>189</ele>
        <time>2021-08-27T06:26:29.000Z</time>
      </trkpt>
      <trkpt lat="49.81699" lon="4.7872">
        <ele>190</ele>
        <time>2021-08-27T06:26:30.000Z</time>
      </trkpt>
      <trkpt lat="49.81703" lon="4.78723">
        <ele>190</ele>
        <time>2021-08-27T06:26:31.000Z</time>
      </trkpt>
      <trkpt lat="49.81707" lon="4.78725">
        <ele>190</ele>
        <time>2021-08-27T06:26:32.000Z</time>
      </trkpt>
      <trkpt lat="49.81711" lon="4.78728">
        <ele>190</ele>
        <time>2021-08-27T06:26:33.000Z</time>
      </trkpt>
      <trkpt lat="49.81715" lon="4.78731">
        <ele>190</ele>
        <time>2021-08-27T06:26:34.000Z</time>
      </trkpt>
      <trkpt lat="49.81718" lon="4.78734">
        <ele>190</ele>
        <time>2021-08-27T06:26:35.000Z</time>
      </trkpt>
      <trkpt lat="49.81722" lon="4.78736">
        <ele>190</ele>
        <time>2021-08-27T06:26:36.000Z</time>
      </trkpt>
      <trkpt lat="49.81726" lon="4.78738">
        <ele>190</ele>
        <time>2021-08-27T06:26:37.000Z</time>
      </trkpt>
      <trkpt lat="49.8173" lon="4.78741">
        <ele>190</ele>
        <time>2021-08-27T06:26:38.000Z</time>
      </trkpt>
      <trkpt lat="49.81733" lon="4.78744">
        <ele>190</ele>
        <time>2021-08-27T06:26:39.000Z</time>
      </trkpt>
      <trkpt lat="49.81736" lon="4.78746">
        <ele>190</ele>
        <time>2021-08-27T06:26:40.000Z</time>
      </trkpt>
      <trkpt lat="49.81739" lon="4.78749">
        <ele>190</ele>
        <time>2021-08-27T06:26:41.000Z</time>
      </trkpt>
      <trkpt lat="49.81742" lon="4.78752">
        <ele>191</ele>
        <time>2021-08-27T06:26:42.000Z</time>
      </trkpt>
      <trkpt lat="49.81745" lon="4.78755">
        <ele>191</ele>
        <time>2021-08-27T06:26:43.000Z</time>
      </trkpt>
      <trkpt lat="49.81748" lon="4.78757">
        <ele>191</ele>
        <time>2021-08-27T06:26:44.000Z</time>
      </trkpt>
      <trkpt lat="49.81751" lon="4.7876">
        <ele>191</ele>
        <time>2021-08-27T06:26:45.000Z</time>
      </trkpt>
      <trkpt lat="49.81754" lon="4.78762">
        <ele>191</ele>
        <time>2021-08-27T06:26:46.000Z</time>
      </trkpt>
      <trkpt lat="49.81758" lon="4.78762">
        <ele>191</ele>
        <time>2021-08-27T06:26:47.000Z</time>
      </trkpt>
      <trkpt lat="49.81762" lon="4.78762">
        <ele>191</ele>
        <time>2021-08-27T06:26:48.000Z</time>
      </trkpt>
      <trkpt lat="49.81765" lon="4.78761">
        <ele>191</ele>
        <time>2021-08-27T06:26:49.000Z</time>
      </trkpt>
      <trkpt lat="49.81768" lon="4.78759">
        <ele>191</ele>
        <time>2021-08-27T06:26:50.000Z</time>
      </trkpt>
      <trkpt lat="49.81769" lon="4.78756">
        <ele>191</ele>
        <time>2021-08-27T06:26:51.000Z</time>
      </trkpt>
      <trkpt lat="49.8177" lon="4.78753">
        <ele>191</ele>
        <time>2021-08-27T06:26:52.000Z</time>
      </trkpt>
      <trkpt lat="49.81769" lon="4.7875">
        <ele>192</ele>
        <time>2021-08-27T06:26:53.000Z</time>
      </trkpt>
      <trkpt lat="49.81766" lon="4.78747">
        <ele>192</ele>
        <time>2021-08-27T06:26:54.000Z</time>
      </trkpt>
      <trkpt lat="49.81762" lon="4.78743">
        <ele>192</ele>
        <time>2021-08-27T06:26:55.000Z</time>
      </trkpt>
      <trkpt lat="49.81758" lon="4.78739">
        <ele>192</ele>
        <time>2021-08-27T06:26:56.000Z</time>
      </trkpt>
      <trkpt lat="49.81754" lon="4.78734">
        <ele>192</ele>
        <time>2021-08-27T06:26:57.000Z</time>
      </trkpt>
      <trkpt lat="49.81749" lon="4.78729">
        <ele>192</ele>
        <time>2021-08-27T06:26:58.000Z</time>
      </trkpt>
      <trkpt lat="49.81745" lon="4.78725">
        <ele>192</ele>
        <time>2021-08-27T06:26:59.000Z</time>
      </trkpt>
      <trkpt lat="49.8174" lon="4.7872">
        <ele>192</ele>
        <time>2021-08-27T06:27:00.000Z</time>
      </trkpt>
      <trkpt lat="49.81736" lon="4.78715">
        <ele>192</ele>
        <time>2021-08-27T06:27:01.000Z</time>
      </trkpt>
      <trkpt lat="49.81731" lon="4.78711">
        <ele>192</ele>
        <time>2021-08-27T06:27:02.000Z</time>
      </trkpt>
      <trkpt lat="49.81726" lon="4.78707">
        <ele>192</ele>
        <time>2021-08-27T06:27:03.000Z</time>
      </trkpt>
      <trkpt lat="49.81721" lon="4.78704">
        <ele>192</ele>
        <time>2021-08-27T06:27:04.000Z</time>
      </trkpt>
      <trkpt lat="49.81716" lon="4.78699">
        <ele>192</ele>
        <time>2021-08-27T06:27:05.000Z</time>
      </trkpt>
      <trkpt lat="49.81711" lon="4.78695">
        <ele>192</ele>
        <time>2021-08-27T06:27:06.000Z</time>
      </trkpt>
      <trkpt lat="49.81706" lon="4.7869">
        <ele>192</ele>
        <time>2021-08-27T06:27:07.000Z</time>
      </trkpt>
      <trkpt lat="49.81701" lon="4.78686">
        <ele>192</ele>
        <time>2021-08-27T06:27:08.000Z</time>
      </trkpt>
      <trkpt lat="49.81697" lon="4.78682">
        <ele>191</ele>
        <time>2021-08-27T06:27:09.000Z</time>
      </trkpt>
      <trkpt lat="49.81692" lon="4.78677">
        <ele>191</ele>
        <time>2021-08-27T06:27:10.000Z</time>
      </trkpt>
      <trkpt lat="49.81688" lon="4.78672">
        <ele>191</ele>
        <time>2021-08-27T06:27:11.000Z</time>
      </trkpt>
      <trkpt lat="49.81683" lon="4.78667">
        <ele>191</ele>
        <time>2021-08-27T06:27:12.000Z</time>
      </trkpt>
      <trkpt lat="49.81678" lon="4.78663">
        <ele>191</ele>
        <time>2021-08-27T06:27:13.000Z</time>
      </trkpt>
      <trkpt lat="49.81673" lon="4.78659">
        <ele>190</ele>
        <time>2021-08-27T06:27:14.000Z</time>
      </trkpt>
      <trkpt lat="49.81668" lon="4.78655">
        <ele>190</ele>
        <time>2021-08-27T06:27:15.000Z</time>
      </trkpt>
      <trkpt lat="49.81662" lon="4.78652">
        <ele>190</ele>
        <time>2021-08-27T06:27:16.000Z</time>
      </trkpt>
      <trkpt lat="49.81657" lon="4.78649">
        <ele>189</ele>
        <time>2021-08-27T06:27:17.000Z</time>
      </trkpt>
      <trkpt lat="49.81652" lon="4.78646">
        <ele>189</ele>
        <time>2021-08-27T06:27:18.000Z</time>
      </trkpt>
      <trkpt lat="49.81647" lon="4.78643">
        <ele>189</ele>
        <time>2021-08-27T06:27:19.000Z</time>
      </trkpt>
      <trkpt lat="49.81642" lon="4.7864">
        <ele>188</ele>
        <time>2021-08-27T06:27:20.000Z</time>
      </trkpt>
      <trkpt lat="49.81637" lon="4.78637">
        <ele>188</ele>
        <time>2021-08-27T06:27:21.000Z</time>
      </trkpt>
      <trkpt lat="49.81632" lon="4.78633">
        <ele>188</ele>
        <time>2021-08-27T06:27:22.000Z</time>
      </trkpt>
      <trkpt lat="49.81626" lon="4.7863">
        <ele>187</ele>
        <time>2021-08-27T06:27:23.000Z</time>
      </trkpt>
      <trkpt lat="49.81621" lon="4.78627">
        <ele>187</ele>
        <time>2021-08-27T06:27:24.000Z</time>
      </trkpt>
      <trkpt lat="49.81616" lon="4.78624">
        <ele>187</ele>
        <time>2021-08-27T06:27:25.000Z</time>
      </trkpt>
      <trkpt lat="49.81611" lon="4.78622">
        <ele>187</ele>
        <time>2021-08-27T06:27:26.000Z</time>
      </trkpt>
      <trkpt lat="49.81606" lon="4.78619">
        <ele>186</ele>
        <time>2021-08-27T06:27:27.000Z</time>
      </trkpt>
      <trkpt lat="49.81601" lon="4.78617">
        <ele>186</ele>
        <time>2021-08-27T06:27:28.000Z</time>
      </trkpt>
      <trkpt lat="49.81596" lon="4.78616">
        <ele>186</ele>
        <time>2021-08-27T06:27:29.000Z</time>
      </trkpt>
      <trkpt lat="49.81592" lon="4.78615">
        <ele>185</ele>
        <time>2021-08-27T06:27:30.000Z</time>
      </trkpt>
      <trkpt lat="49.81587" lon="4.78615">
        <ele>185</ele>
        <time>2021-08-27T06:27:31.000Z</time>
      </trkpt>
      <trkpt lat="49.81582" lon="4.78617">
        <ele>185</ele>
        <time>2021-08-27T06:27:32.000Z</time>
      </trkpt>
      <trkpt lat="49.81577" lon="4.78618">
        <ele>185</ele>
        <time>2021-08-27T06:27:33.000Z</time>
      </trkpt>
      <trkpt lat="49.81572" lon="4.78621">
        <ele>184</ele>
        <time>2021-08-27T06:27:34.000Z</time>
      </trkpt>
      <trkpt lat="49.81568" lon="4.78623">
        <ele>184</ele>
        <time>2021-08-27T06:27:35.000Z</time>
      </trkpt>
      <trkpt lat="49.81563" lon="4.78626">
        <ele>184</ele>
        <time>2021-08-27T06:27:36.000Z</time>
      </trkpt>
      <trkpt lat="49.81559" lon="4.7863">
        <ele>184</ele>
        <time>2021-08-27T06:27:37.000Z</time>
      </trkpt>
      <trkpt lat="49.81554" lon="4.78634">
        <ele>183</ele>
        <time>2021-08-27T06:27:38.000Z</time>
      </trkpt>
      <trkpt lat="49.8155" lon="4.78638">
        <ele>183</ele>
        <time>2021-08-27T06:27:39.000Z</time>
      </trkpt>
      <trkpt lat="49.81545" lon="4.78643">
        <ele>183</ele>
        <time>2021-08-27T06:27:40.000Z</time>
      </trkpt>
      <trkpt lat="49.8154" lon="4.78647">
        <ele>183</ele>
        <time>2021-08-27T06:27:41.000Z</time>
      </trkpt>
      <trkpt lat="49.81536" lon="4.78652">
        <ele>183</ele>
        <time>2021-08-27T06:27:42.000Z</time>
      </trkpt>
      <trkpt lat="49.81532" lon="4.78657">
        <ele>182</ele>
        <time>2021-08-27T06:27:43.000Z</time>
      </trkpt>
      <trkpt lat="49.81528" lon="4.78661">
        <ele>182</ele>
        <time>2021-08-27T06:27:44.000Z</time>
      </trkpt>
      <trkpt lat="49.81523" lon="4.78665">
        <ele>182</ele>
        <time>2021-08-27T06:27:45.000Z</time>
      </trkpt>
      <trkpt lat="49.81519" lon="4.78669">
        <ele>182</ele>
        <time>2021-08-27T06:27:46.000Z</time>
      </trkpt>
      <trkpt lat="49.81515" lon="4.78673">
        <ele>181</ele>
        <time>2021-08-27T06:27:47.000Z</time>
      </trkpt>
      <trkpt lat="49.81511" lon="4.78677">
        <ele>181</ele>
        <time>2021-08-27T06:27:48.000Z</time>
      </trkpt>
      <trkpt lat="49.81507" lon="4.78681">
        <ele>181</ele>
        <time>2021-08-27T06:27:49.000Z</time>
      </trkpt>
      <trkpt lat="49.81503" lon="4.78685">
        <ele>181</ele>
        <time>2021-08-27T06:27:50.000Z</time>
      </trkpt>
      <trkpt lat="49.81499" lon="4.78689">
        <ele>181</ele>
        <time>2021-08-27T06:27:51.000Z</time>
      </trkpt>
      <trkpt lat="49.81495" lon="4.78692">
        <ele>180</ele>
        <time>2021-08-27T06:27:52.000Z</time>
      </trkpt>
      <trkpt lat="49.81491" lon="4.78694">
        <ele>180</ele>
        <time>2021-08-27T06:27:53.000Z</time>
      </trkpt>
      <trkpt lat="49.81488" lon="4.78693">
        <ele>180</ele>
        <time>2021-08-27T06:27:54.000Z</time>
      </trkpt>
      <trkpt lat="49.81484" lon="4.78689">
        <ele>180</ele>
        <time>2021-08-27T06:27:55.000Z</time>
      </trkpt>
      <trkpt lat="49.81481" lon="4.78685">
        <ele>180</ele>
        <time>2021-08-27T06:27:56.000Z</time>
      </trkpt>
      <trkpt lat="49.81478" lon="4.78678">
        <ele>179</ele>
        <time>2021-08-27T06:27:57.000Z</time>
      </trkpt>
      <trkpt lat="49.81476" lon="4.78671">
        <ele>179</ele>
        <time>2021-08-27T06:27:58.000Z</time>
      </trkpt>
      <trkpt lat="49.81474" lon="4.78663">
        <ele>179</ele>
        <time>2021-08-27T06:27:59.000Z</time>
      </trkpt>
      <trkpt lat="49.81473" lon="4.78655">
        <ele>179</ele>
        <time>2021-08-27T06:28:00.000Z</time>
      </trkpt>
      <trkpt lat="49.81473" lon="4.78646">
        <ele>179</ele>
        <time>2021-08-27T06:28:01.000Z</time>
      </trkpt>
      <trkpt lat="49.81474" lon="4.78637">
        <ele>178</ele>
        <time>2021-08-27T06:28:02.000Z</time>
      </trkpt>
      <trkpt lat="49.81475" lon="4.78628">
        <ele>178</ele>
        <time>2021-08-27T06:28:03.000Z</time>
      </trkpt>
      <trkpt lat="49.81476" lon="4.78619">
        <ele>178</ele>
        <time>2021-08-27T06:28:04.000Z</time>
      </trkpt>
      <trkpt lat="49.81478" lon="4.78609">
        <ele>178</ele>
        <time>2021-08-27T06:28:05.000Z</time>
      </trkpt>
      <trkpt lat="49.8148" lon="4.786">
        <ele>178</ele>
        <time>2021-08-27T06:28:06.000Z</time>
      </trkpt>
      <trkpt lat="49.81483" lon="4.78592">
        <ele>177</ele>
        <time>2021-08-27T06:28:07.000Z</time>
      </trkpt>
      <trkpt lat="49.81486" lon="4.78583">
        <ele>177</ele>
        <time>2021-08-27T06:28:08.000Z</time>
      </trkpt>
      <trkpt lat="49.81489" lon="4.78574">
        <ele>177</ele>
        <time>2021-08-27T06:28:09.000Z</time>
      </trkpt>
      <trkpt lat="49.81492" lon="4.78566">
        <ele>177</ele>
        <time>2021-08-27T06:28:10.000Z</time>
      </trkpt>
      <trkpt lat="49.81496" lon="4.78557">
        <ele>176</ele>
        <time>2021-08-27T06:28:11.000Z</time>
      </trkpt>
      <trkpt lat="49.815" lon="4.78549">
        <ele>176</ele>
        <time>2021-08-27T06:28:12.000Z</time>
      </trkpt>
      <trkpt lat="49.81504" lon="4.78541">
        <ele>176</ele>
        <time>2021-08-27T06:28:13.000Z</time>
      </trkpt>
      <trkpt lat="49.81509" lon="4.78533">
        <ele>175</ele>
        <time>2021-08-27T06:28:14.000Z</time>
      </trkpt>
      <trkpt lat="49.81514" lon="4.78527">
        <ele>175</ele>
        <time>2021-08-27T06:28:15.000Z</time>
      </trkpt>
      <trkpt lat="49.81519" lon="4.7852">
        <ele>174</ele>
        <time>2021-08-27T06:28:16.000Z</time>
      </trkpt>
      <trkpt lat="49.81523" lon="4.78514">
        <ele>174</ele>
        <time>2021-08-27T06:28:17.000Z</time>
      </trkpt>
      <trkpt lat="49.81528" lon="4.78507">
        <ele>174</ele>
        <time>2021-08-27T06:28:18.000Z</time>
      </trkpt>
      <trkpt lat="49.81531" lon="4.785">
        <ele>173</ele>
        <time>2021-08-27T06:28:19.000Z</time>
      </trkpt>
      <trkpt lat="49.81535" lon="4.78493">
        <ele>173</ele>
        <time>2021-08-27T06:28:20.000Z</time>
      </trkpt>
      <trkpt lat="49.81538" lon="4.78487">
        <ele>173</ele>
        <time>2021-08-27T06:28:21.000Z</time>
      </trkpt>
      <trkpt lat="49.81541" lon="4.78481">
        <ele>173</ele>
        <time>2021-08-27T06:28:22.000Z</time>
      </trkpt>
      <trkpt lat="49.81544" lon="4.78476">
        <ele>172</ele>
        <time>2021-08-27T06:28:23.000Z</time>
      </trkpt>
      <trkpt lat="49.81546" lon="4.7847">
        <ele>172</ele>
        <time>2021-08-27T06:28:24.000Z</time>
      </trkpt>
      <trkpt lat="49.81547" lon="4.78464">
        <ele>172</ele>
        <time>2021-08-27T06:28:25.000Z</time>
      </trkpt>
      <trkpt lat="49.81549" lon="4.78457">
        <ele>172</ele>
        <time>2021-08-27T06:28:26.000Z</time>
      </trkpt>
      <trkpt lat="49.81549" lon="4.78449">
        <ele>172</ele>
        <time>2021-08-27T06:28:27.000Z</time>
      </trkpt>
      <trkpt lat="49.81548" lon="4.78441">
        <ele>171</ele>
        <time>2021-08-27T06:28:28.000Z</time>
      </trkpt>
      <trkpt lat="49.81548" lon="4.78432">
        <ele>171</ele>
        <time>2021-08-27T06:28:29.000Z</time>
      </trkpt>
      <trkpt lat="49.81547" lon="4.78423">
        <ele>171</ele>
        <time>2021-08-27T06:28:30.000Z</time>
      </trkpt>
      <trkpt lat="49.81548" lon="4.78414">
        <ele>171</ele>
        <time>2021-08-27T06:28:31.000Z</time>
      </trkpt>
      <trkpt lat="49.81548" lon="4.78405">
        <ele>171</ele>
        <time>2021-08-27T06:28:32.000Z</time>
      </trkpt>
      <trkpt lat="49.81548" lon="4.78397">
        <ele>171</ele>
        <time>2021-08-27T06:28:33.000Z</time>
      </trkpt>
      <trkpt lat="49.81549" lon="4.78388">
        <ele>171</ele>
        <time>2021-08-27T06:28:34.000Z</time>
      </trkpt>
      <trkpt lat="49.81551" lon="4.78381">
        <ele>171</ele>
        <time>2021-08-27T06:28:35.000Z</time>
      </trkpt>
      <trkpt lat="49.81553" lon="4.78373">
        <ele>171</ele>
        <time>2021-08-27T06:28:36.000Z</time>
      </trkpt>
      <trkpt lat="49.81554" lon="4.78366">
        <ele>171</ele>
        <time>2021-08-27T06:28:37.000Z</time>
      </trkpt>
      <trkpt lat="49.81553" lon="4.78359">
        <ele>171</ele>
        <time>2021-08-27T06:28:38.000Z</time>
      </trkpt>
      <trkpt lat="49.81554" lon="4.78352">
        <ele>171</ele>
        <time>2021-08-27T06:28:39.000Z</time>
      </trkpt>
      <trkpt lat="49.81555" lon="4.78346">
        <ele>171</ele>
        <time>2021-08-27T06:28:40.000Z</time>
      </trkpt>
      <trkpt lat="49.81556" lon="4.78341">
        <ele>171</ele>
        <time>2021-08-27T06:28:41.000Z</time>
      </trkpt>
      <trkpt lat="49.81558" lon="4.78337">
        <ele>171</ele>
        <time>2021-08-27T06:28:42.000Z</time>
      </trkpt>
      <trkpt lat="49.8156" lon="4.78333">
        <ele>171</ele>
        <time>2021-08-27T06:28:43.000Z</time>
      </trkpt>
      <trkpt lat="49.81563" lon="4.7833">
        <ele>170</ele>
        <time>2021-08-27T06:28:44.000Z</time>
      </trkpt>
      <trkpt lat="49.81566" lon="4.78327">
        <ele>170</ele>
        <time>2021-08-27T06:28:45.000Z</time>
      </trkpt>
      <trkpt lat="49.81568" lon="4.78323">
        <ele>170</ele>
        <time>2021-08-27T06:28:46.000Z</time>
      </trkpt>
      <trkpt lat="49.8157" lon="4.7832">
        <ele>170</ele>
        <time>2021-08-27T06:28:47.000Z</time>
      </trkpt>
      <trkpt lat="49.81571" lon="4.78315">
        <ele>170</ele>
        <time>2021-08-27T06:28:48.000Z</time>
      </trkpt>
      <trkpt lat="49.81573" lon="4.7831">
        <ele>170</ele>
        <time>2021-08-27T06:28:49.000Z</time>
      </trkpt>
      <trkpt lat="49.81574" lon="4.78305">
        <ele>170</ele>
        <time>2021-08-27T06:28:50.000Z</time>
      </trkpt>
      <trkpt lat="49.81575" lon="4.783">
        <ele>170</ele>
        <time>2021-08-27T06:28:51.000Z</time>
      </trkpt>
      <trkpt lat="49.81576" lon="4.78295">
        <ele>170</ele>
        <time>2021-08-27T06:28:52.000Z</time>
      </trkpt>
      <trkpt lat="49.81577" lon="4.78291">
        <ele>170</ele>
        <time>2021-08-27T06:28:53.000Z</time>
      </trkpt>
      <trkpt lat="49.81579" lon="4.78288">
        <ele>170</ele>
        <time>2021-08-27T06:28:54.000Z</time>
      </trkpt>
      <trkpt lat="49.81581" lon="4.78287">
        <ele>170</ele>
        <time>2021-08-27T06:28:55.000Z</time>
      </trkpt>
      <trkpt lat="49.81583" lon="4.78288">
        <ele>170</ele>
        <time>2021-08-27T06:28:56.000Z</time>
      </trkpt>
      <trkpt lat="49.81585" lon="4.7829">
        <ele>170</ele>
        <time>2021-08-27T06:28:57.000Z</time>
      </trkpt>
      <trkpt lat="49.81586" lon="4.78292">
        <ele>170</ele>
        <time>2021-08-27T06:28:58.000Z</time>
      </trkpt>
      <trkpt lat="49.81586" lon="4.78294">
        <ele>170</ele>
        <time>2021-08-27T06:28:59.000Z</time>
      </trkpt>
      <trkpt lat="49.81587" lon="4.78297">
        <ele>170</ele>
        <time>2021-08-27T06:29:00.000Z</time>
      </trkpt>
      <trkpt lat="49.81588" lon="4.783">
        <ele>170</ele>
        <time>2021-08-27T06:29:01.000Z</time>
      </trkpt>
      <trkpt lat="49.81587" lon="4.78304">
        <ele>170</ele>
        <time>2021-08-27T06:29:02.000Z</time>
      </trkpt>
      <trkpt lat="49.81587" lon="4.78307">
        <ele>170</ele>
        <time>2021-08-27T06:29:03.000Z</time>
      </trkpt>
      <trkpt lat="49.81585" lon="4.7831">
        <ele>170</ele>
        <time>2021-08-27T06:29:04.000Z</time>
      </trkpt>
      <trkpt lat="49.81583" lon="4.78311">
        <ele>170</ele>
        <time>2021-08-27T06:29:05.000Z</time>
      </trkpt>
      <trkpt lat="49.81581" lon="4.78312">
        <ele>170</ele>
        <time>2021-08-27T06:29:06.000Z</time>
      </trkpt>
      <trkpt lat="49.81579" lon="4.78313">
        <ele>170</ele>
        <time>2021-08-27T06:29:07.000Z</time>
      </trkpt>
      <trkpt lat="49.81577" lon="4.78314">
        <ele>170</ele>
        <time>2021-08-27T06:29:08.000Z</time>
      </trkpt>
      <trkpt lat="49.81575" lon="4.78317">
        <ele>171</ele>
        <time>2021-08-27T06:29:09.000Z</time>
      </trkpt>
      <trkpt lat="49.81571" lon="4.7832">
        <ele>171</ele>
        <time>2021-08-27T06:29:10.000Z</time>
      </trkpt>
      <trkpt lat="49.81569" lon="4.78322">
        <ele>171</ele>
        <time>2021-08-27T06:29:11.000Z</time>
      </trkpt>
      <trkpt lat="49.81568" lon="4.78326">
        <ele>171</ele>
        <time>2021-08-27T06:29:12.000Z</time>
      </trkpt>
      <trkpt lat="49.81568" lon="4.78327">
        <ele>171</ele>
        <time>2021-08-27T06:29:13.000Z</time>
      </trkpt>
      <trkpt lat="49.81569" lon="4.78326">
        <ele>171</ele>
        <time>2021-08-27T06:29:14.000Z</time>
      </trkpt>
      <trkpt lat="49.8157" lon="4.78325">
        <ele>171</ele>
        <time>2021-08-27T06:29:15.000Z</time>
      </trkpt>
      <trkpt lat="49.81571" lon="4.78322">
        <ele>171</ele>
        <time>2021-08-27T06:29:16.000Z</time>
      </trkpt>
      <trkpt lat="49.81571" lon="4.78318">
        <ele>171</ele>
        <time>2021-08-27T06:29:17.000Z</time>
      </trkpt>
      <trkpt lat="49.81572" lon="4.78314">
        <ele>171</ele>
        <time>2021-08-27T06:29:18.000Z</time>
      </trkpt>
      <trkpt lat="49.81573" lon="4.78309">
        <ele>171</ele>
        <time>2021-08-27T06:29:19.000Z</time>
      </trkpt>
      <trkpt lat="49.81574" lon="4.78305">
        <ele>171</ele>
        <time>2021-08-27T06:29:20.000Z</time>
      </trkpt>
      <trkpt lat="49.81574" lon="4.78301">
        <ele>171</ele>
        <time>2021-08-27T06:29:21.000Z</time>
      </trkpt>
      <trkpt lat="49.81575" lon="4.78298">
        <ele>171</ele>
        <time>2021-08-27T06:29:22.000Z</time>
      </trkpt>
      <trkpt lat="49.81576" lon="4.78295">
        <ele>171</ele>
        <time>2021-08-27T06:29:23.000Z</time>
      </trkpt>
      <trkpt lat="49.81578" lon="4.78293">
        <ele>171</ele>
        <time>2021-08-27T06:29:24.000Z</time>
      </trkpt>
      <trkpt lat="49.8158" lon="4.78292">
        <ele>171</ele>
        <time>2021-08-27T06:29:25.000Z</time>
      </trkpt>
      <trkpt lat="49.81582" lon="4.78291">
        <ele>171</ele>
        <time>2021-08-27T06:29:26.000Z</time>
      </trkpt>
      <trkpt lat="49.81584" lon="4.78292">
        <ele>171</ele>
        <time>2021-08-27T06:29:27.000Z</time>
      </trkpt>
      <trkpt lat="49.81586" lon="4.78294">
        <ele>172</ele>
        <time>2021-08-27T06:29:28.000Z</time>
      </trkpt>
      <trkpt lat="49.81588" lon="4.78297">
        <ele>172</ele>
        <time>2021-08-27T06:29:29.000Z</time>
      </trkpt>
      <trkpt lat="49.81589" lon="4.78299">
        <ele>172</ele>
        <time>2021-08-27T06:29:30.000Z</time>
      </trkpt>
      <trkpt lat="49.81589" lon="4.78303">
        <ele>172</ele>
        <time>2021-08-27T06:29:31.000Z</time>
      </trkpt>
      <trkpt lat="49.81589" lon="4.78307">
        <ele>172</ele>
        <time>2021-08-27T06:29:32.000Z</time>
      </trkpt>
      <trkpt lat="49.81589" lon="4.7831">
        <ele>172</ele>
        <time>2021-08-27T06:29:33.000Z</time>
      </trkpt>
      <trkpt lat="49.81587" lon="4.78313">
        <ele>172</ele>
        <time>2021-08-27T06:29:34.000Z</time>
      </trkpt>
      <trkpt lat="49.81586" lon="4.78315">
        <ele>172</ele>
        <time>2021-08-27T06:29:35.000Z</time>
      </trkpt>
      <trkpt lat="49.81583" lon="4.78315">
        <ele>172</ele>
        <time>2021-08-27T06:29:36.000Z</time>
      </trkpt>
      <trkpt lat="49.81581" lon="4.78315">
        <ele>172</ele>
        <time>2021-08-27T06:29:37.000Z</time>
      </trkpt>
      <trkpt lat="49.81579" lon="4.78316">
        <ele>172</ele>
        <time>2021-08-27T06:29:38.000Z</time>
      </trkpt>
      <trkpt lat="49.81575" lon="4.78318">
        <ele>172</ele>
        <time>2021-08-27T06:29:39.000Z</time>
      </trkpt>
      <trkpt lat="49.81571" lon="4.78319">
        <ele>172</ele>
        <time>2021-08-27T06:29:40.000Z</time>
      </trkpt>
      <trkpt lat="49.81568" lon="4.78322">
        <ele>172</ele>
        <time>2021-08-27T06:29:41.000Z</time>
      </trkpt>
      <trkpt lat="49.81568" lon="4.78325">
        <ele>172</ele>
        <time>2021-08-27T06:29:42.000Z</time>
      </trkpt>
      <trkpt lat="49.81568" lon="4.78325">
        <ele>173</ele>
        <time>2021-08-27T06:29:43.000Z</time>
      </trkpt>
      <trkpt lat="49.81569" lon="4.78323">
        <ele>173</ele>
        <time>2021-08-27T06:29:44.000Z</time>
      </trkpt>
      <trkpt lat="49.8157" lon="4.78321">
        <ele>173</ele>
        <time>2021-08-27T06:29:45.000Z</time>
      </trkpt>
      <trkpt lat="49.81571" lon="4.78319">
        <ele>173</ele>
        <time>2021-08-27T06:29:46.000Z</time>
      </trkpt>
      <trkpt lat="49.81572" lon="4.78316">
        <ele>173</ele>
        <time>2021-08-27T06:29:47.000Z</time>
      </trkpt>
      <trkpt lat="49.81572" lon="4.78312">
        <ele>173</ele>
        <time>2021-08-27T06:29:48.000Z</time>
      </trkpt>
      <trkpt lat="49.81573" lon="4.78308">
        <ele>173</ele>
        <time>2021-08-27T06:29:49.000Z</time>
      </trkpt>
      <trkpt lat="49.81574" lon="4.78304">
        <ele>173</ele>
        <time>2021-08-27T06:29:50.000Z</time>
      </trkpt>
      <trkpt lat="49.81576" lon="4.78301">
        <ele>173</ele>
        <time>2021-08-27T06:29:51.000Z</time>
      </trkpt>
      <trkpt lat="49.81577" lon="4.78298">
        <ele>173</ele>
        <time>2021-08-27T06:29:52.000Z</time>
      </trkpt>
      <trkpt lat="49.81577" lon="4.78294">
        <ele>173</ele>
        <time>2021-08-27T06:29:53.000Z</time>
      </trkpt>
      <trkpt lat="49.81579" lon="4.78291">
        <ele>173</ele>
        <time>2021-08-27T06:29:54.000Z</time>
      </trkpt>
      <trkpt lat="49.81581" lon="4.78289">
        <ele>173</ele>
        <time>2021-08-27T06:29:55.000Z</time>
      </trkpt>
      <trkpt lat="49.81583" lon="4.78289">
        <ele>173</ele>
        <time>2021-08-27T06:29:56.000Z</time>
      </trkpt>
      <trkpt lat="49.81585" lon="4.7829">
        <ele>173</ele>
        <time>2021-08-27T06:29:57.000Z</time>
      </trkpt>
      <trkpt lat="49.81587" lon="4.78292">
        <ele>174</ele>
        <time>2021-08-27T06:29:58.000Z</time>
      </trkpt>
      <trkpt lat="49.81588" lon="4.78295">
        <ele>174</ele>
        <time>2021-08-27T06:29:59.000Z</time>
      </trkpt>
      <trkpt lat="49.81589" lon="4.78297">
        <ele>174</ele>
        <time>2021-08-27T06:30:00.000Z</time>
      </trkpt>
      <trkpt lat="49.81589" lon="4.78301">
        <ele>174</ele>
        <time>2021-08-27T06:30:01.000Z</time>
      </trkpt>
      <trkpt lat="49.81589" lon="4.78304">
        <ele>174</ele>
        <time>2021-08-27T06:30:02.000Z</time>
      </trkpt>
      <trkpt lat="49.81589" lon="4.78308">
        <ele>174</ele>
        <time>2021-08-27T06:30:03.000Z</time>
      </trkpt>
      <trkpt lat="49.81588" lon="4.78311">
        <ele>175</ele>
        <time>2021-08-27T06:30:04.000Z</time>
      </trkpt>
      <trkpt lat="49.81586" lon="4.78313">
        <ele>175</ele>
        <time>2021-08-27T06:30:05.000Z</time>
      </trkpt>
      <trkpt lat="49.81584" lon="4.78314">
        <ele>175</ele>
        <time>2021-08-27T06:30:06.000Z</time>
      </trkpt>
      <trkpt lat="49.81582" lon="4.78316">
        <ele>175</ele>
        <time>2021-08-27T06:30:07.000Z</time>
      </trkpt>
      <trkpt lat="49.8158" lon="4.78317">
        <ele>175</ele>
        <time>2021-08-27T06:30:08.000Z</time>
      </trkpt>
      <trkpt lat="49.81577" lon="4.78318">
        <ele>175</ele>
        <time>2021-08-27T06:30:09.000Z</time>
      </trkpt>
      <trkpt lat="49.81574" lon="4.7832">
        <ele>175</ele>
        <time>2021-08-27T06:30:10.000Z</time>
      </trkpt>
      <trkpt lat="49.81571" lon="4.78322">
        <ele>175</ele>
        <time>2021-08-27T06:30:11.000Z</time>
      </trkpt>
      <trkpt lat="49.8157" lon="4.78324">
        <ele>175</ele>
        <time>2021-08-27T06:30:12.000Z</time>
      </trkpt>
      <trkpt lat="49.81571" lon="4.78326">
        <ele>175</ele>
        <time>2021-08-27T06:30:13.000Z</time>
      </trkpt>
      <trkpt lat="49.81571" lon="4.78325">
        <ele>175</ele>
        <time>2021-08-27T06:30:14.000Z</time>
      </trkpt>
      <trkpt lat="49.81572" lon="4.78323">
        <ele>175</ele>
        <time>2021-08-27T06:30:15.000Z</time>
      </trkpt>
      <trkpt lat="49.81572" lon="4.78319">
        <ele>175</ele>
        <time>2021-08-27T06:30:16.000Z</time>
      </trkpt>
      <trkpt lat="49.81573" lon="4.78316">
        <ele>175</ele>
        <time>2021-08-27T06:30:17.000Z</time>
      </trkpt>
      <trkpt lat="49.81573" lon="4.78312">
        <ele>175</ele>
        <time>2021-08-27T06:30:18.000Z</time>
      </trkpt>
      <trkpt lat="49.81574" lon="4.78308">
        <ele>175</ele>
        <time>2021-08-27T06:30:19.000Z</time>
      </trkpt>
      <trkpt lat="49.81573" lon="4.78304">
        <ele>175</ele>
        <time>2021-08-27T06:30:20.000Z</time>
      </trkpt>
      <trkpt lat="49.81574" lon="4.783">
        <ele>175</ele>
        <time>2021-08-27T06:30:21.000Z</time>
      </trkpt>
      <trkpt lat="49.81575" lon="4.78297">
        <ele>175</ele>
        <time>2021-08-27T06:30:22.000Z</time>
      </trkpt>
      <trkpt lat="49.81575" lon="4.78293">
        <ele>175</ele>
        <time>2021-08-27T06:30:23.000Z</time>
      </trkpt>
      <trkpt lat="49.81576" lon="4.7829">
        <ele>175</ele>
        <time>2021-08-27T06:30:24.000Z</time>
      </trkpt>
      <trkpt lat="49.81577" lon="4.78286">
        <ele>175</ele>
        <time>2021-08-27T06:30:25.000Z</time>
      </trkpt>
      <trkpt lat="49.81579" lon="4.78284">
        <ele>175</ele>
        <time>2021-08-27T06:30:26.000Z</time>
      </trkpt>
      <trkpt lat="49.8158" lon="4.78284">
        <ele>174</ele>
        <time>2021-08-27T06:30:27.000Z</time>
      </trkpt>
      <trkpt lat="49.81582" lon="4.78285">
        <ele>174</ele>
        <time>2021-08-27T06:30:28.000Z</time>
      </trkpt>
      <trkpt lat="49.81584" lon="4.78287">
        <ele>174</ele>
        <time>2021-08-27T06:30:29.000Z</time>
      </trkpt>
      <trkpt lat="49.81585" lon="4.7829">
        <ele>174</ele>
        <time>2021-08-27T06:30:30.000Z</time>
      </trkpt>
      <trkpt lat="49.81586" lon="4.78293">
        <ele>174</ele>
        <time>2021-08-27T06:30:31.000Z</time>
      </trkpt>
      <trkpt lat="49.81586" lon="4.78296">
        <ele>174</ele>
        <time>2021-08-27T06:30:32.000Z</time>
      </trkpt>
      <trkpt lat="49.81587" lon="4.78299">
        <ele>174</ele>
        <time>2021-08-27T06:30:33.000Z</time>
      </trkpt>
      <trkpt lat="49.81588" lon="4.78302">
        <ele>174</ele>
        <time>2021-08-27T06:30:34.000Z</time>
      </trkpt>
      <trkpt lat="49.81589" lon="4.78306">
        <ele>174</ele>
        <time>2021-08-27T06:30:35.000Z</time>
      </trkpt>
      <trkpt lat="49.8159" lon="4.7831">
        <ele>174</ele>
        <time>2021-08-27T06:30:36.000Z</time>
      </trkpt>
      <trkpt lat="49.81591" lon="4.78313">
        <ele>174</ele>
        <time>2021-08-27T06:30:37.000Z</time>
      </trkpt>
      <trkpt lat="49.81593" lon="4.78317">
        <ele>174</ele>
        <time>2021-08-27T06:30:38.000Z</time>
      </trkpt>
      <trkpt lat="49.81594" lon="4.7832">
        <ele>175</ele>
        <time>2021-08-27T06:30:39.000Z</time>
      </trkpt>
      <trkpt lat="49.81595" lon="4.78322">
        <ele>175</ele>
        <time>2021-08-27T06:30:40.000Z</time>
      </trkpt>
      <trkpt lat="49.81597" lon="4.78322">
        <ele>175</ele>
        <time>2021-08-27T06:30:41.000Z</time>
      </trkpt>
      <trkpt lat="49.81598" lon="4.7832">
        <ele>175</ele>
        <time>2021-08-27T06:30:42.000Z</time>
      </trkpt>
      <trkpt lat="49.816" lon="4.78317">
        <ele>175</ele>
        <time>2021-08-27T06:30:43.000Z</time>
      </trkpt>
      <trkpt lat="49.81602" lon="4.78315">
        <ele>175</ele>
        <time>2021-08-27T06:30:44.000Z</time>
      </trkpt>
      <trkpt lat="49.81604" lon="4.78313">
        <ele>175</ele>
        <time>2021-08-27T06:30:45.000Z</time>
      </trkpt>
      <trkpt lat="49.81606" lon="4.78313">
        <ele>175</ele>
        <time>2021-08-27T06:30:46.000Z</time>
      </trkpt>
      <trkpt lat="49.81608" lon="4.78314">
        <ele>175</ele>
        <time>2021-08-27T06:30:47.000Z</time>
      </trkpt>
      <trkpt lat="49.8161" lon="4.78315">
        <ele>176</ele>
        <time>2021-08-27T06:30:48.000Z</time>
      </trkpt>
      <trkpt lat="49.81611" lon="4.78317">
        <ele>176</ele>
        <time>2021-08-27T06:30:49.000Z</time>
      </trkpt>
      <trkpt lat="49.81612" lon="4.78319">
        <ele>176</ele>
        <time>2021-08-27T06:30:50.000Z</time>
      </trkpt>
      <trkpt lat="49.81614" lon="4.78322">
        <ele>176</ele>
        <time>2021-08-27T06:30:51.000Z</time>
      </trkpt>
      <trkpt lat="49.81615" lon="4.78324">
        <ele>176</ele>
        <time>2021-08-27T06:30:52.000Z</time>
      </trkpt>
      <trkpt lat="49.81616" lon="4.78327">
        <ele>177</ele>
        <time>2021-08-27T06:30:53.000Z</time>
      </trkpt>
      <trkpt lat="49.81617" lon="4.78329">
        <ele>177</ele>
        <time>2021-08-27T06:30:54.000Z</time>
      </trkpt>
      <trkpt lat="49.81617" lon="4.7833">
        <ele>177</ele>
        <time>2021-08-27T06:30:55.000Z</time>
      </trkpt>
      <trkpt lat="49.81619" lon="4.78331">
        <ele>177</ele>
        <time>2021-08-27T06:30:56.000Z</time>
      </trkpt>
      <trkpt lat="49.8162" lon="4.78332">
        <ele>177</ele>
        <time>2021-08-27T06:30:57.000Z</time>
      </trkpt>
      <trkpt lat="49.81622" lon="4.78331">
        <ele>177</ele>
        <time>2021-08-27T06:30:58.000Z</time>
      </trkpt>
      <trkpt lat="49.81623" lon="4.7833">
        <ele>178</ele>
        <time>2021-08-27T06:30:59.000Z</time>
      </trkpt>
      <trkpt lat="49.81624" lon="4.78328">
        <ele>178</ele>
        <time>2021-08-27T06:31:00.000Z</time>
      </trkpt>
      <trkpt lat="49.81626" lon="4.78327">
        <ele>178</ele>
        <time>2021-08-27T06:31:01.000Z</time>
      </trkpt>
      <trkpt lat="49.81627" lon="4.78325">
        <ele>178</ele>
        <time>2021-08-27T06:31:02.000Z</time>
      </trkpt>
      <trkpt lat="49.81628" lon="4.78323">
        <ele>178</ele>
        <time>2021-08-27T06:31:03.000Z</time>
      </trkpt>
      <trkpt lat="49.81629" lon="4.78321">
        <ele>178</ele>
        <time>2021-08-27T06:31:04.000Z</time>
      </trkpt>
      <trkpt lat="49.81629" lon="4.78319">
        <ele>179</ele>
        <time>2021-08-27T06:31:05.000Z</time>
      </trkpt>
      <trkpt lat="49.81628" lon="4.78317">
        <ele>179</ele>
        <time>2021-08-27T06:31:06.000Z</time>
      </trkpt>
      <trkpt lat="49.81627" lon="4.78315">
        <ele>179</ele>
        <time>2021-08-27T06:31:07.000Z</time>
      </trkpt>
      <trkpt lat="49.81626" lon="4.78311">
        <ele>179</ele>
        <time>2021-08-27T06:31:08.000Z</time>
      </trkpt>
      <trkpt lat="49.81625" lon="4.78308">
        <ele>179</ele>
        <time>2021-08-27T06:31:09.000Z</time>
      </trkpt>
      <trkpt lat="49.81626" lon="4.78305">
        <ele>179</ele>
        <time>2021-08-27T06:31:10.000Z</time>
      </trkpt>
      <trkpt lat="49.81626" lon="4.78302">
        <ele>180</ele>
        <time>2021-08-27T06:31:11.000Z</time>
      </trkpt>
      <trkpt lat="49.81626" lon="4.783">
        <ele>180</ele>
        <time>2021-08-27T06:31:12.000Z</time>
      </trkpt>
      <trkpt lat="49.81627" lon="4.78297">
        <ele>180</ele>
        <time>2021-08-27T06:31:13.000Z</time>
      </trkpt>
      <trkpt lat="49.81628" lon="4.78294">
        <ele>180</ele>
        <time>2021-08-27T06:31:14.000Z</time>
      </trkpt>
      <trkpt lat="49.81629" lon="4.78294">
        <ele>180</ele>
        <time>2021-08-27T06:31:15.000Z</time>
      </trkpt>
      <trkpt lat="49.81629" lon="4.78295">
        <ele>180</ele>
        <time>2021-08-27T06:31:16.000Z</time>
      </trkpt>
      <trkpt lat="49.81629" lon="4.78297">
        <ele>181</ele>
        <time>2021-08-27T06:31:17.000Z</time>
      </trkpt>
      <trkpt lat="49.81627" lon="4.78299">
        <ele>181</ele>
        <time>2021-08-27T06:31:18.000Z</time>
      </trkpt>
      <trkpt lat="49.81624" lon="4.783">
        <ele>181</ele>
        <time>2021-08-27T06:31:19.000Z</time>
      </trkpt>
      <trkpt lat="49.81621" lon="4.78301">
        <ele>181</ele>
        <time>2021-08-27T06:31:20.000Z</time>
      </trkpt>
      <trkpt lat="49.81618" lon="4.78302">
        <ele>181</ele>
        <time>2021-08-27T06:31:21.000Z</time>
      </trkpt>
      <trkpt lat="49.81615" lon="4.78304">
        <ele>181</ele>
        <time>2021-08-27T06:31:22.000Z</time>
      </trkpt>
      <trkpt lat="49.81612" lon="4.78307">
        <ele>181</ele>
        <time>2021-08-27T06:31:23.000Z</time>
      </trkpt>
      <trkpt lat="49.81607" lon="4.78311">
        <ele>181</ele>
        <time>2021-08-27T06:31:24.000Z</time>
      </trkpt>
      <trkpt lat="49.81602" lon="4.78315">
        <ele>181</ele>
        <time>2021-08-27T06:31:25.000Z</time>
      </trkpt>
      <trkpt lat="49.81599" lon="4.7832">
        <ele>182</ele>
        <time>2021-08-27T06:31:26.000Z</time>
      </trkpt>
      <trkpt lat="49.81597" lon="4.78326">
        <ele>182</ele>
        <time>2021-08-27T06:31:27.000Z</time>
      </trkpt>
      <trkpt lat="49.81597" lon="4.78332">
        <ele>181</ele>
        <time>2021-08-27T06:31:28.000Z</time>
      </trkpt>
      <trkpt lat="49.81598" lon="4.78338">
        <ele>181</ele>
        <time>2021-08-27T06:31:29.000Z</time>
      </trkpt>
      <trkpt lat="49.816" lon="4.78343">
        <ele>181</ele>
        <time>2021-08-27T06:31:30.000Z</time>
      </trkpt>
      <trkpt lat="49.81602" lon="4.78347">
        <ele>181</ele>
        <time>2021-08-27T06:31:31.000Z</time>
      </trkpt>
      <trkpt lat="49.81604" lon="4.78352">
        <ele>181</ele>
        <time>2021-08-27T06:31:32.000Z</time>
      </trkpt>
      <trkpt lat="49.81607" lon="4.78357">
        <ele>181</ele>
        <time>2021-08-27T06:31:33.000Z</time>
      </trkpt>
      <trkpt lat="49.81609" lon="4.78362">
        <ele>181</ele>
        <time>2021-08-27T06:31:34.000Z</time>
      </trkpt>
      <trkpt lat="49.81612" lon="4.78367">
        <ele>180</ele>
        <time>2021-08-27T06:31:35.000Z</time>
      </trkpt>
      <trkpt lat="49.81614" lon="4.78372">
        <ele>180</ele>
        <time>2021-08-27T06:31:36.000Z</time>
      </trkpt>
      <trkpt lat="49.81617" lon="4.78376">
        <ele>180</ele>
        <time>2021-08-27T06:31:37.000Z</time>
      </trkpt>
      <trkpt lat="49.81619" lon="4.78381">
        <ele>180</ele>
        <time>2021-08-27T06:31:38.000Z</time>
      </trkpt>
      <trkpt lat="49.81622" lon="4.78386">
        <ele>180</ele>
        <time>2021-08-27T06:31:39.000Z</time>
      </trkpt>
      <trkpt lat="49.81624" lon="4.78392">
        <ele>180</ele>
        <time>2021-08-27T06:31:40.000Z</time>
      </trkpt>
      <trkpt lat="49.81627" lon="4.78397">
        <ele>180</ele>
        <time>2021-08-27T06:31:41.000Z</time>
      </trkpt>
      <trkpt lat="49.8163" lon="4.78402">
        <ele>180</ele>
        <time>2021-08-27T06:31:42.000Z</time>
      </trkpt>
      <trkpt lat="49.81633" lon="4.78406">
        <ele>180</ele>
        <time>2021-08-27T06:31:43.000Z</time>
      </trkpt>
      <trkpt lat="49.81636" lon="4.78411">
        <ele>180</ele>
        <time>2021-08-27T06:31:44.000Z</time>
      </trkpt>
      <trkpt lat="49.8164" lon="4.78415">
        <ele>179</ele>
        <time>2021-08-27T06:31:45.000Z</time>
      </trkpt>
      <trkpt lat="49.81643" lon="4.78419">
        <ele>179</ele>
        <time>2021-08-27T06:31:46.000Z</time>
      </trkpt>
      <trkpt lat="49.81646" lon="4.78423">
        <ele>179</ele>
        <time>2021-08-27T06:31:47.000Z</time>
      </trkpt>
      <trkpt lat="49.81649" lon="4.78427">
        <ele>179</ele>
        <time>2021-08-27T06:31:48.000Z</time>
      </trkpt>
      <trkpt lat="49.81653" lon="4.78431">
        <ele>179</ele>
        <time>2021-08-27T06:31:49.000Z</time>
      </trkpt>
      <trkpt lat="49.81656" lon="4.78434">
        <ele>179</ele>
        <time>2021-08-27T06:31:50.000Z</time>
      </trkpt>
      <trkpt lat="49.8166" lon="4.78438">
        <ele>179</ele>
        <time>2021-08-27T06:31:51.000Z</time>
      </trkpt>
      <trkpt lat="49.81664" lon="4.78441">
        <ele>179</ele>
        <time>2021-08-27T06:31:52.000Z</time>
      </trkpt>
      <trkpt lat="49.81669" lon="4.78444">
        <ele>179</ele>
        <time>2021-08-27T06:31:53.000Z</time>
      </trkpt>
      <trkpt lat="49.81674" lon="4.78448">
        <ele>179</ele>
        <time>2021-08-27T06:31:54.000Z</time>
      </trkpt>
      <trkpt lat="49.81678" lon="4.78452">
        <ele>179</ele>
        <time>2021-08-27T06:31:55.000Z</time>
      </trkpt>
      <trkpt lat="49.81682" lon="4.78456">
        <ele>179</ele>
        <time>2021-08-27T06:31:56.000Z</time>
      </trkpt>
      <trkpt lat="49.81686" lon="4.7846">
        <ele>180</ele>
        <time>2021-08-27T06:31:57.000Z</time>
      </trkpt>
      <trkpt lat="49.8169" lon="4.78463">
        <ele>180</ele>
        <time>2021-08-27T06:31:58.000Z</time>
      </trkpt>
      <trkpt lat="49.81694" lon="4.78467">
        <ele>180</ele>
        <time>2021-08-27T06:31:59.000Z</time>
      </trkpt>
      <trkpt lat="49.81697" lon="4.78471">
        <ele>180</ele>
        <time>2021-08-27T06:32:00.000Z</time>
      </trkpt>
      <trkpt lat="49.81701" lon="4.78475">
        <ele>180</ele>
        <time>2021-08-27T06:32:01.000Z</time>
      </trkpt>
      <trkpt lat="49.81705" lon="4.7848">
        <ele>180</ele>
        <time>2021-08-27T06:32:02.000Z</time>
      </trkpt>
      <trkpt lat="49.81709" lon="4.78485">
        <ele>180</ele>
        <time>2021-08-27T06:32:03.000Z</time>
      </trkpt>
      <trkpt lat="49.81713" lon="4.78489">
        <ele>180</ele>
        <time>2021-08-27T06:32:04.000Z</time>
      </trkpt>
      <trkpt lat="49.81717" lon="4.78492">
        <ele>181</ele>
        <time>2021-08-27T06:32:05.000Z</time>
      </trkpt>
      <trkpt lat="49.81721" lon="4.78496">
        <ele>181</ele>
        <time>2021-08-27T06:32:06.000Z</time>
      </trkpt>
      <trkpt lat="49.81725" lon="4.78499">
        <ele>181</ele>
        <time>2021-08-27T06:32:07.000Z</time>
      </trkpt>
      <trkpt lat="49.81729" lon="4.78502">
        <ele>181</ele>
        <time>2021-08-27T06:32:08.000Z</time>
      </trkpt>
      <trkpt lat="49.81733" lon="4.78505">
        <ele>181</ele>
        <time>2021-08-27T06:32:09.000Z</time>
      </trkpt>
      <trkpt lat="49.81737" lon="4.78508">
        <ele>181</ele>
        <time>2021-08-27T06:32:10.000Z</time>
      </trkpt>
      <trkpt lat="49.81741" lon="4.78511">
        <ele>181</ele>
        <time>2021-08-27T06:32:11.000Z</time>
      </trkpt>
      <trkpt lat="49.81745" lon="4.78513">
        <ele>181</ele>
        <time>2021-08-27T06:32:12.000Z</time>
      </trkpt>
      <trkpt lat="49.81748" lon="4.78516">
        <ele>181</ele>
        <time>2021-08-27T06:32:13.000Z</time>
      </trkpt>
      <trkpt lat="49.81752" lon="4.78518">
        <ele>181</ele>
        <time>2021-08-27T06:32:14.000Z</time>
      </trkpt>
      <trkpt lat="49.81755" lon="4.78522">
        <ele>182</ele>
        <time>2021-08-27T06:32:15.000Z</time>
      </trkpt>
      <trkpt lat="49.81759" lon="4.78524">
        <ele>182</ele>
        <time>2021-08-27T06:32:16.000Z</time>
      </trkpt>
      <trkpt lat="49.81762" lon="4.78526">
        <ele>182</ele>
        <time>2021-08-27T06:32:17.000Z</time>
      </trkpt>
      <trkpt lat="49.81765" lon="4.78528">
        <ele>182</ele>
        <time>2021-08-27T06:32:18.000Z</time>
      </trkpt>
      <trkpt lat="49.81768" lon="4.7853">
        <ele>182</ele>
        <time>2021-08-27T06:32:19.000Z</time>
      </trkpt>
      <trkpt lat="49.81772" lon="4.78533">
        <ele>182</ele>
        <time>2021-08-27T06:32:20.000Z</time>
      </trkpt>
      <trkpt lat="49.81775" lon="4.78535">
        <ele>183</ele>
        <time>2021-08-27T06:32:21.000Z</time>
      </trkpt>
      <trkpt lat="49.81779" lon="4.78537">
        <ele>183</ele>
        <time>2021-08-27T06:32:22.000Z</time>
      </trkpt>
      <trkpt lat="49.81783" lon="4.78539">
        <ele>183</ele>
        <time>2021-08-27T06:32:23.000Z</time>
      </trkpt>
      <trkpt lat="49.81786" lon="4.78542">
        <ele>183</ele>
        <time>2021-08-27T06:32:24.000Z</time>
      </trkpt>
      <trkpt lat="49.8179" lon="4.78544">
        <ele>183</ele>
        <time>2021-08-27T06:32:25.000Z</time>
      </trkpt>
      <trkpt lat="49.81794" lon="4.78546">
        <ele>183</ele>
        <time>2021-08-27T06:32:26.000Z</time>
      </trkpt>
      <trkpt lat="49.81798" lon="4.78549">
        <ele>183</ele>
        <time>2021-08-27T06:32:27.000Z</time>
      </trkpt>
      <trkpt lat="49.81802" lon="4.78552">
        <ele>184</ele>
        <time>2021-08-27T06:32:28.000Z</time>
      </trkpt>
      <trkpt lat="49.81806" lon="4.78555">
        <ele>184</ele>
        <time>2021-08-27T06:32:29.000Z</time>
      </trkpt>
      <trkpt lat="49.8181" lon="4.78558">
        <ele>184</ele>
        <time>2021-08-27T06:32:30.000Z</time>
      </trkpt>
      <trkpt lat="49.81814" lon="4.78562">
        <ele>184</ele>
        <time>2021-08-27T06:32:31.000Z</time>
      </trkpt>
      <trkpt lat="49.81817" lon="4.78565">
        <ele>184</ele>
        <time>2021-08-27T06:32:32.000Z</time>
      </trkpt>
      <trkpt lat="49.81821" lon="4.78569">
        <ele>184</ele>
        <time>2021-08-27T06:32:33.000Z</time>
      </trkpt>
      <trkpt lat="49.81825" lon="4.78572">
        <ele>185</ele>
        <time>2021-08-27T06:32:34.000Z</time>
      </trkpt>
      <trkpt lat="49.81829" lon="4.78575">
        <ele>185</ele>
        <time>2021-08-27T06:32:35.000Z</time>
      </trkpt>
      <trkpt lat="49.81832" lon="4.78579">
        <ele>185</ele>
        <time>2021-08-27T06:32:36.000Z</time>
      </trkpt>
      <trkpt lat="49.81836" lon="4.78583">
        <ele>186</ele>
        <time>2021-08-27T06:32:37.000Z</time>
      </trkpt>
      <trkpt lat="49.81839" lon="4.78586">
        <ele>186</ele>
        <time>2021-08-27T06:32:38.000Z</time>
      </trkpt>
      <trkpt lat="49.81843" lon="4.7859">
        <ele>186</ele>
        <time>2021-08-27T06:32:39.000Z</time>
      </trkpt>
      <trkpt lat="49.81847" lon="4.78594">
        <ele>187</ele>
        <time>2021-08-27T06:32:40.000Z</time>
      </trkpt>
      <trkpt lat="49.8185" lon="4.78598">
        <ele>187</ele>
        <time>2021-08-27T06:32:41.000Z</time>
      </trkpt>
      <trkpt lat="49.81854" lon="4.78602">
        <ele>187</ele>
        <time>2021-08-27T06:32:42.000Z</time>
      </trkpt>
      <trkpt lat="49.81858" lon="4.78606">
        <ele>188</ele>
        <time>2021-08-27T06:32:43.000Z</time>
      </trkpt>
      <trkpt lat="49.81861" lon="4.7861">
        <ele>188</ele>
        <time>2021-08-27T06:32:44.000Z</time>
      </trkpt>
      <trkpt lat="49.81865" lon="4.78614">
        <ele>188</ele>
        <time>2021-08-27T06:32:45.000Z</time>
      </trkpt>
      <trkpt lat="49.81868" lon="4.78617">
        <ele>188</ele>
        <time>2021-08-27T06:32:46.000Z</time>
      </trkpt>
      <trkpt lat="49.81871" lon="4.78621">
        <ele>189</ele>
        <time>2021-08-27T06:32:47.000Z</time>
      </trkpt>
      <trkpt lat="49.81875" lon="4.78625">
        <ele>189</ele>
        <time>2021-08-27T06:32:48.000Z</time>
      </trkpt>
      <trkpt lat="49.81879" lon="4.7863">
        <ele>189</ele>
        <time>2021-08-27T06:32:49.000Z</time>
      </trkpt>
      <trkpt lat="49.81883" lon="4.78634">
        <ele>189</ele>
        <time>2021-08-27T06:32:50.000Z</time>
      </trkpt>
      <trkpt lat="49.81886" lon="4.78639">
        <ele>190</ele>
        <time>2021-08-27T06:32:51.000Z</time>
      </trkpt>
      <trkpt lat="49.8189" lon="4.78643">
        <ele>190</ele>
        <time>2021-08-27T06:32:52.000Z</time>
      </trkpt>
      <trkpt lat="49.81894" lon="4.78647">
        <ele>190</ele>
        <time>2021-08-27T06:32:53.000Z</time>
      </trkpt>
      <trkpt lat="49.81898" lon="4.78652">
        <ele>190</ele>
        <time>2021-08-27T06:32:54.000Z</time>
      </trkpt>
      <trkpt lat="49.81902" lon="4.78656">
        <ele>191</ele>
        <time>2021-08-27T06:32:55.000Z</time>
      </trkpt>
      <trkpt lat="49.81906" lon="4.78661">
        <ele>191</ele>
        <time>2021-08-27T06:32:56.000Z</time>
      </trkpt>
      <trkpt lat="49.8191" lon="4.78665">
        <ele>191</ele>
        <time>2021-08-27T06:32:57.000Z</time>
      </trkpt>
      <trkpt lat="49.81914" lon="4.78669">
        <ele>191</ele>
        <time>2021-08-27T06:32:58.000Z</time>
      </trkpt>
      <trkpt lat="49.81918" lon="4.78673">
        <ele>191</ele>
        <time>2021-08-27T06:32:59.000Z</time>
      </trkpt>
      <trkpt lat="49.81921" lon="4.78676">
        <ele>192</ele>
        <time>2021-08-27T06:33:00.000Z</time>
      </trkpt>
      <trkpt lat="49.81925" lon="4.7868">
        <ele>192</ele>
        <time>2021-08-27T06:33:01.000Z</time>
      </trkpt>
      <trkpt lat="49.81929" lon="4.78684">
        <ele>192</ele>
        <time>2021-08-27T06:33:02.000Z</time>
      </trkpt>
      <trkpt lat="49.81933" lon="4.78689">
        <ele>192</ele>
        <time>2021-08-27T06:33:03.000Z</time>
      </trkpt>
      <trkpt lat="49.81937" lon="4.78692">
        <ele>192</ele>
        <time>2021-08-27T06:33:04.000Z</time>
      </trkpt>
      <trkpt lat="49.81941" lon="4.78695">
        <ele>193</ele>
        <time>2021-08-27T06:33:05.000Z</time>
      </trkpt>
      <trkpt lat="49.81945" lon="4.78699">
        <ele>193</ele>
        <time>2021-08-27T06:33:06.000Z</time>
      </trkpt>
      <trkpt lat="49.81949" lon="4.78702">
        <ele>193</ele>
        <time>2021-08-27T06:33:07.000Z</time>
      </trkpt>
      <trkpt lat="49.81953" lon="4.78705">
        <ele>193</ele>
        <time>2021-08-27T06:33:08.000Z</time>
      </trkpt>
      <trkpt lat="49.81957" lon="4.78708">
        <ele>193</ele>
        <time>2021-08-27T06:33:09.000Z</time>
      </trkpt>
      <trkpt lat="49.81961" lon="4.78712">
        <ele>194</ele>
        <time>2021-08-27T06:33:10.000Z</time>
      </trkpt>
      <trkpt lat="49.81965" lon="4.78715">
        <ele>194</ele>
        <time>2021-08-27T06:33:11.000Z</time>
      </trkpt>
      <trkpt lat="49.81969" lon="4.78719">
        <ele>194</ele>
        <time>2021-08-27T06:33:12.000Z</time>
      </trkpt>
      <trkpt lat="49.81973" lon="4.78722">
        <ele>194</ele>
        <time>2021-08-27T06:33:13.000Z</time>
      </trkpt>
      <trkpt lat="49.81977" lon="4.78725">
        <ele>195</ele>
        <time>2021-08-27T06:33:14.000Z</time>
      </trkpt>
      <trkpt lat="49.81981" lon="4.78728">
        <ele>195</ele>
        <time>2021-08-27T06:33:15.000Z</time>
      </trkpt>
      <trkpt lat="49.81985" lon="4.78732">
        <ele>195</ele>
        <time>2021-08-27T06:33:16.000Z</time>
      </trkpt>
      <trkpt lat="49.81989" lon="4.78735">
        <ele>195</ele>
        <time>2021-08-27T06:33:17.000Z</time>
      </trkpt>
      <trkpt lat="49.81993" lon="4.78738">
        <ele>196</ele>
        <time>2021-08-27T06:33:18.000Z</time>
      </trkpt>
      <trkpt lat="49.81996" lon="4.78742">
        <ele>196</ele>
        <time>2021-08-27T06:33:19.000Z</time>
      </trkpt>
      <trkpt lat="49.82" lon="4.78744">
        <ele>196</ele>
        <time>2021-08-27T06:33:20.000Z</time>
      </trkpt>
      <trkpt lat="49.82004" lon="4.78747">
        <ele>196</ele>
        <time>2021-08-27T06:33:21.000Z</time>
      </trkpt>
      <trkpt lat="49.82008" lon="4.7875">
        <ele>196</ele>
        <time>2021-08-27T06:33:22.000Z</time>
      </trkpt>
      <trkpt lat="49.82012" lon="4.78753">
        <ele>197</ele>
        <time>2021-08-27T06:33:23.000Z</time>
      </trkpt>
      <trkpt lat="49.82015" lon="4.78756">
        <ele>197</ele>
        <time>2021-08-27T06:33:24.000Z</time>
      </trkpt>
      <trkpt lat="49.82019" lon="4.78758">
        <ele>197</ele>
        <time>2021-08-27T06:33:25.000Z</time>
      </trkpt>
      <trkpt lat="49.82023" lon="4.78761">
        <ele>197</ele>
        <time>2021-08-27T06:33:26.000Z</time>
      </trkpt>
      <trkpt lat="49.82027" lon="4.78764">
        <ele>198</ele>
        <time>2021-08-27T06:33:27.000Z</time>
      </trkpt>
      <trkpt lat="49.8203" lon="4.78767">
        <ele>198</ele>
        <time>2021-08-27T06:33:28.000Z</time>
      </trkpt>
      <trkpt lat="49.82034" lon="4.78771">
        <ele>198</ele>
        <time>2021-08-27T06:33:29.000Z</time>
      </trkpt>
      <trkpt lat="49.82037" lon="4.78774">
        <ele>198</ele>
        <time>2021-08-27T06:33:30.000Z</time>
      </trkpt>
      <trkpt lat="49.82041" lon="4.78777">
        <ele>199</ele>
        <time>2021-08-27T06:33:31.000Z</time>
      </trkpt>
      <trkpt lat="49.82045" lon="4.78779">
        <ele>199</ele>
        <time>2021-08-27T06:33:32.000Z</time>
      </trkpt>
      <trkpt lat="49.82048" lon="4.78782">
        <ele>199</ele>
        <time>2021-08-27T06:33:33.000Z</time>
      </trkpt>
      <trkpt lat="49.82052" lon="4.78786">
        <ele>199</ele>
        <time>2021-08-27T06:33:34.000Z</time>
      </trkpt>
      <trkpt lat="49.82055" lon="4.78789">
        <ele>200</ele>
        <time>2021-08-27T06:33:35.000Z</time>
      </trkpt>
      <trkpt lat="49.82058" lon="4.78793">
        <ele>200</ele>
        <time>2021-08-27T06:33:36.000Z</time>
      </trkpt>
      <trkpt lat="49.82062" lon="4.78797">
        <ele>200</ele>
        <time>2021-08-27T06:33:37.000Z</time>
      </trkpt>
      <trkpt lat="49.82065" lon="4.78801">
        <ele>200</ele>
        <time>2021-08-27T06:33:38.000Z</time>
      </trkpt>
      <trkpt lat="49.82069" lon="4.78804">
        <ele>200</ele>
        <time>2021-08-27T06:33:39.000Z</time>
      </trkpt>
      <trkpt lat="49.82072" lon="4.78808">
        <ele>200</ele>
        <time>2021-08-27T06:33:40.000Z</time>
      </trkpt>
      <trkpt lat="49.82075" lon="4.78812">
        <ele>201</ele>
        <time>2021-08-27T06:33:41.000Z</time>
      </trkpt>
      <trkpt lat="49.82078" lon="4.78816">
        <ele>201</ele>
        <time>2021-08-27T06:33:42.000Z</time>
      </trkpt>
      <trkpt lat="49.82082" lon="4.7882">
        <ele>201</ele>
        <time>2021-08-27T06:33:43.000Z</time>
      </trkpt>
      <trkpt lat="49.82085" lon="4.78825">
        <ele>201</ele>
        <time>2021-08-27T06:33:44.000Z</time>
      </trkpt>
      <trkpt lat="49.82087" lon="4.7883">
        <ele>201</ele>
        <time>2021-08-27T06:33:45.000Z</time>
      </trkpt>
      <trkpt lat="49.8209" lon="4.78835">
        <ele>202</ele>
        <time>2021-08-27T06:33:46.000Z</time>
      </trkpt>
      <trkpt lat="49.82093" lon="4.78841">
        <ele>202</ele>
        <time>2021-08-27T06:33:47.000Z</time>
      </trkpt>
      <trkpt lat="49.82095" lon="4.78846">
        <ele>202</ele>
        <time>2021-08-27T06:33:48.000Z</time>
      </trkpt>
      <trkpt lat="49.82097" lon="4.78852">
        <ele>202</ele>
        <time>2021-08-27T06:33:49.000Z</time>
      </trkpt>
      <trkpt lat="49.82099" lon="4.78857">
        <ele>202</ele>
        <time>2021-08-27T06:33:50.000Z</time>
      </trkpt>
      <trkpt lat="49.82101" lon="4.78863">
        <ele>202</ele>
        <time>2021-08-27T06:33:51.000Z</time>
      </trkpt>
      <trkpt lat="49.82103" lon="4.78868">
        <ele>202</ele>
        <time>2021-08-27T06:33:52.000Z</time>
      </trkpt>
      <trkpt lat="49.82105" lon="4.78873">
        <ele>202</ele>
        <time>2021-08-27T06:33:53.000Z</time>
      </trkpt>
      <trkpt lat="49.82108" lon="4.78878">
        <ele>202</ele>
        <time>2021-08-27T06:33:54.000Z</time>
      </trkpt>
      <trkpt lat="49.82109" lon="4.78883">
        <ele>202</ele>
        <time>2021-08-27T06:33:55.000Z</time>
      </trkpt>
      <trkpt lat="49.82112" lon="4.78888">
        <ele>202</ele>
        <time>2021-08-27T06:33:56.000Z</time>
      </trkpt>
      <trkpt lat="49.82114" lon="4.78892">
        <ele>202</ele>
        <time>2021-08-27T06:33:57.000Z</time>
      </trkpt>
      <trkpt lat="49.82116" lon="4.78897">
        <ele>202</ele>
        <time>2021-08-27T06:33:58.000Z</time>
      </trkpt>
      <trkpt lat="49.82118" lon="4.78902">
        <ele>202</ele>
        <time>2021-08-27T06:33:59.000Z</time>
      </trkpt>
      <trkpt lat="49.8212" lon="4.78906">
        <ele>202</ele>
        <time>2021-08-27T06:34:00.000Z</time>
      </trkpt>
      <trkpt lat="49.82122" lon="4.78911">
        <ele>202</ele>
        <time>2021-08-27T06:34:01.000Z</time>
      </trkpt>
      <trkpt lat="49.82125" lon="4.78915">
        <ele>203</ele>
        <time>2021-08-27T06:34:02.000Z</time>
      </trkpt>
      <trkpt lat="49.82127" lon="4.7892">
        <ele>203</ele>
        <time>2021-08-27T06:34:03.000Z</time>
      </trkpt>
      <trkpt lat="49.82129" lon="4.78924">
        <ele>202</ele>
        <time>2021-08-27T06:34:04.000Z</time>
      </trkpt>
      <trkpt lat="49.82131" lon="4.78928">
        <ele>202</ele>
        <time>2021-08-27T06:34:05.000Z</time>
      </trkpt>
      <trkpt lat="49.82134" lon="4.78932">
        <ele>203</ele>
        <time>2021-08-27T06:34:06.000Z</time>
      </trkpt>
      <trkpt lat="49.82136" lon="4.78937">
        <ele>203</ele>
        <time>2021-08-27T06:34:07.000Z</time>
      </trkpt>
      <trkpt lat="49.82139" lon="4.78941">
        <ele>203</ele>
        <time>2021-08-27T06:34:08.000Z</time>
      </trkpt>
      <trkpt lat="49.82141" lon="4.78945">
        <ele>203</ele>
        <time>2021-08-27T06:34:09.000Z</time>
      </trkpt>
      <trkpt lat="49.82144" lon="4.78949">
        <ele>203</ele>
        <time>2021-08-27T06:34:10.000Z</time>
      </trkpt>
      <trkpt lat="49.82147" lon="4.78953">
        <ele>203</ele>
        <time>2021-08-27T06:34:11.000Z</time>
      </trkpt>
      <trkpt lat="49.8215" lon="4.78958">
        <ele>203</ele>
        <time>2021-08-27T06:34:12.000Z</time>
      </trkpt>
      <trkpt lat="49.82152" lon="4.78962">
        <ele>203</ele>
        <time>2021-08-27T06:34:13.000Z</time>
      </trkpt>
      <trkpt lat="49.82155" lon="4.78967">
        <ele>203</ele>
        <time>2021-08-27T06:34:14.000Z</time>
      </trkpt>
      <trkpt lat="49.82158" lon="4.78972">
        <ele>203</ele>
        <time>2021-08-27T06:34:15.000Z</time>
      </trkpt>
      <trkpt lat="49.82161" lon="4.78976">
        <ele>203</ele>
        <time>2021-08-27T06:34:16.000Z</time>
      </trkpt>
      <trkpt lat="49.82164" lon="4.7898">
        <ele>203</ele>
        <time>2021-08-27T06:34:17.000Z</time>
      </trkpt>
      <trkpt lat="49.82167" lon="4.78985">
        <ele>203</ele>
        <time>2021-08-27T06:34:18.000Z</time>
      </trkpt>
      <trkpt lat="49.8217" lon="4.78988">
        <ele>203</ele>
        <time>2021-08-27T06:34:19.000Z</time>
      </trkpt>
      <trkpt lat="49.82174" lon="4.78991">
        <ele>203</ele>
        <time>2021-08-27T06:34:20.000Z</time>
      </trkpt>
      <trkpt lat="49.82177" lon="4.78995">
        <ele>203</ele>
        <time>2021-08-27T06:34:21.000Z</time>
      </trkpt>
      <trkpt lat="49.82182" lon="4.78998">
        <ele>203</ele>
        <time>2021-08-27T06:34:22.000Z</time>
      </trkpt>
      <trkpt lat="49.82186" lon="4.79">
        <ele>203</ele>
        <time>2021-08-27T06:34:23.000Z</time>
      </trkpt>
      <trkpt lat="49.8219" lon="4.79003">
        <ele>203</ele>
        <time>2021-08-27T06:34:24.000Z</time>
      </trkpt>
      <trkpt lat="49.82195" lon="4.79005">
        <ele>203</ele>
        <time>2021-08-27T06:34:25.000Z</time>
      </trkpt>
      <trkpt lat="49.822" lon="4.79007">
        <ele>202</ele>
        <time>2021-08-27T06:34:26.000Z</time>
      </trkpt>
      <trkpt lat="49.82205" lon="4.79008">
        <ele>202</ele>
        <time>2021-08-27T06:34:27.000Z</time>
      </trkpt>
      <trkpt lat="49.8221" lon="4.7901">
        <ele>202</ele>
        <time>2021-08-27T06:34:28.000Z</time>
      </trkpt>
      <trkpt lat="49.82216" lon="4.79011">
        <ele>202</ele>
        <time>2021-08-27T06:34:29.000Z</time>
      </trkpt>
      <trkpt lat="49.82222" lon="4.79012">
        <ele>202</ele>
        <time>2021-08-27T06:34:30.000Z</time>
      </trkpt>
      <trkpt lat="49.82227" lon="4.79013">
        <ele>202</ele>
        <time>2021-08-27T06:34:31.000Z</time>
      </trkpt>
      <trkpt lat="49.82233" lon="4.79013">
        <ele>202</ele>
        <time>2021-08-27T06:34:32.000Z</time>
      </trkpt>
      <trkpt lat="49.82239" lon="4.79014">
        <ele>202</ele>
        <time>2021-08-27T06:34:33.000Z</time>
      </trkpt>
      <trkpt lat="49.82245" lon="4.79016">
        <ele>201</ele>
        <time>2021-08-27T06:34:34.000Z</time>
      </trkpt>
      <trkpt lat="49.8225" lon="4.79018">
        <ele>201</ele>
        <time>2021-08-27T06:34:35.000Z</time>
      </trkpt>
      <trkpt lat="49.82256" lon="4.79019">
        <ele>201</ele>
        <time>2021-08-27T06:34:36.000Z</time>
      </trkpt>
      <trkpt lat="49.82261" lon="4.79021">
        <ele>201</ele>
        <time>2021-08-27T06:34:37.000Z</time>
      </trkpt>
      <trkpt lat="49.82266" lon="4.79023">
        <ele>201</ele>
        <time>2021-08-27T06:34:38.000Z</time>
      </trkpt>
      <trkpt lat="49.82271" lon="4.79025">
        <ele>201</ele>
        <time>2021-08-27T06:34:39.000Z</time>
      </trkpt>
      <trkpt lat="49.82276" lon="4.79027">
        <ele>200</ele>
        <time>2021-08-27T06:34:40.000Z</time>
      </trkpt>
      <trkpt lat="49.82281" lon="4.79028">
        <ele>200</ele>
        <time>2021-08-27T06:34:41.000Z</time>
      </trkpt>
      <trkpt lat="49.82286" lon="4.7903">
        <ele>200</ele>
        <time>2021-08-27T06:34:42.000Z</time>
      </trkpt>
      <trkpt lat="49.82291" lon="4.79032">
        <ele>200</ele>
        <time>2021-08-27T06:34:43.000Z</time>
      </trkpt>
      <trkpt lat="49.82295" lon="4.79033">
        <ele>200</ele>
        <time>2021-08-27T06:34:44.000Z</time>
      </trkpt>
      <trkpt lat="49.823" lon="4.79035">
        <ele>200</ele>
        <time>2021-08-27T06:34:45.000Z</time>
      </trkpt>
      <trkpt lat="49.82305" lon="4.79037">
        <ele>200</ele>
        <time>2021-08-27T06:34:46.000Z</time>
      </trkpt>
      <trkpt lat="49.8231" lon="4.79038">
        <ele>200</ele>
        <time>2021-08-27T06:34:47.000Z</time>
      </trkpt>
      <trkpt lat="49.82315" lon="4.7904">
        <ele>200</ele>
        <time>2021-08-27T06:34:48.000Z</time>
      </trkpt>
      <trkpt lat="49.8232" lon="4.79041">
        <ele>200</ele>
        <time>2021-08-27T06:34:49.000Z</time>
      </trkpt>
      <trkpt lat="49.82325" lon="4.79043">
        <ele>200</ele>
        <time>2021-08-27T06:34:50.000Z</time>
      </trkpt>
      <trkpt lat="49.8233" lon="4.79044">
        <ele>201</ele>
        <time>2021-08-27T06:34:51.000Z</time>
      </trkpt>
      <trkpt lat="49.82335" lon="4.79045">
        <ele>201</ele>
        <time>2021-08-27T06:34:52.000Z</time>
      </trkpt>
      <trkpt lat="49.8234" lon="4.79047">
        <ele>201</ele>
        <time>2021-08-27T06:34:53.000Z</time>
      </trkpt>
      <trkpt lat="49.82345" lon="4.79047">
        <ele>201</ele>
        <time>2021-08-27T06:34:54.000Z</time>
      </trkpt>
      <trkpt lat="49.8235" lon="4.79048">
        <ele>201</ele>
        <time>2021-08-27T06:34:55.000Z</time>
      </trkpt>
      <trkpt lat="49.82356" lon="4.79047">
        <ele>201</ele>
        <time>2021-08-27T06:34:56.000Z</time>
      </trkpt>
      <trkpt lat="49.82361" lon="4.79047">
        <ele>201</ele>
        <time>2021-08-27T06:34:57.000Z</time>
      </trkpt>
      <trkpt lat="49.82367" lon="4.79047">
        <ele>201</ele>
        <time>2021-08-27T06:34:58.000Z</time>
      </trkpt>
      <trkpt lat="49.82372" lon="4.79047">
        <ele>201</ele>
        <time>2021-08-27T06:34:59.000Z</time>
      </trkpt>
      <trkpt lat="49.82378" lon="4.79048">
        <ele>201</ele>
        <time>2021-08-27T06:35:00.000Z</time>
      </trkpt>
      <trkpt lat="49.82383" lon="4.79049">
        <ele>201</ele>
        <time>2021-08-27T06:35:01.000Z</time>
      </trkpt>
      <trkpt lat="49.82388" lon="4.79051">
        <ele>201</ele>
        <time>2021-08-27T06:35:02.000Z</time>
      </trkpt>
      <trkpt lat="49.82393" lon="4.79053">
        <ele>201</ele>
        <time>2021-08-27T06:35:03.000Z</time>
      </trkpt>
      <trkpt lat="49.82398" lon="4.79055">
        <ele>202</ele>
        <time>2021-08-27T06:35:04.000Z</time>
      </trkpt>
      <trkpt lat="49.82403" lon="4.79057">
        <ele>202</ele>
        <time>2021-08-27T06:35:05.000Z</time>
      </trkpt>
      <trkpt lat="49.82408" lon="4.79059">
        <ele>202</ele>
        <time>2021-08-27T06:35:06.000Z</time>
      </trkpt>
      <trkpt lat="49.82413" lon="4.7906">
        <ele>202</ele>
        <time>2021-08-27T06:35:07.000Z</time>
      </trkpt>
      <trkpt lat="49.82418" lon="4.79062">
        <ele>202</ele>
        <time>2021-08-27T06:35:08.000Z</time>
      </trkpt>
      <trkpt lat="49.82423" lon="4.79064">
        <ele>202</ele>
        <time>2021-08-27T06:35:09.000Z</time>
      </trkpt>
      <trkpt lat="49.82428" lon="4.79066">
        <ele>202</ele>
        <time>2021-08-27T06:35:10.000Z</time>
      </trkpt>
      <trkpt lat="49.82433" lon="4.79068">
        <ele>202</ele>
        <time>2021-08-27T06:35:11.000Z</time>
      </trkpt>
      <trkpt lat="49.82438" lon="4.79069">
        <ele>203</ele>
        <time>2021-08-27T06:35:12.000Z</time>
      </trkpt>
      <trkpt lat="49.82442" lon="4.7907">
        <ele>203</ele>
        <time>2021-08-27T06:35:13.000Z</time>
      </trkpt>
      <trkpt lat="49.82447" lon="4.79071">
        <ele>203</ele>
        <time>2021-08-27T06:35:14.000Z</time>
      </trkpt>
      <trkpt lat="49.82452" lon="4.79071">
        <ele>203</ele>
        <time>2021-08-27T06:35:15.000Z</time>
      </trkpt>
      <trkpt lat="49.82457" lon="4.7907">
        <ele>204</ele>
        <time>2021-08-27T06:35:16.000Z</time>
      </trkpt>
      <trkpt lat="49.82461" lon="4.79069">
        <ele>204</ele>
        <time>2021-08-27T06:35:17.000Z</time>
      </trkpt>
      <trkpt lat="49.82466" lon="4.79068">
        <ele>204</ele>
        <time>2021-08-27T06:35:18.000Z</time>
      </trkpt>
      <trkpt lat="49.82471" lon="4.79065">
        <ele>204</ele>
        <time>2021-08-27T06:35:19.000Z</time>
      </trkpt>
      <trkpt lat="49.82476" lon="4.79061">
        <ele>205</ele>
        <time>2021-08-27T06:35:20.000Z</time>
      </trkpt>
      <trkpt lat="49.8248" lon="4.79059">
        <ele>205</ele>
        <time>2021-08-27T06:35:21.000Z</time>
      </trkpt>
      <trkpt lat="49.82486" lon="4.79058">
        <ele>205</ele>
        <time>2021-08-27T06:35:22.000Z</time>
      </trkpt>
      <trkpt lat="49.82491" lon="4.79058">
        <ele>205</ele>
        <time>2021-08-27T06:35:23.000Z</time>
      </trkpt>
      <trkpt lat="49.82496" lon="4.79058">
        <ele>205</ele>
        <time>2021-08-27T06:35:24.000Z</time>
      </trkpt>
      <trkpt lat="49.82501" lon="4.7906">
        <ele>205</ele>
        <time>2021-08-27T06:35:25.000Z</time>
      </trkpt>
      <trkpt lat="49.82506" lon="4.79061">
        <ele>206</ele>
        <time>2021-08-27T06:35:26.000Z</time>
      </trkpt>
      <trkpt lat="49.82511" lon="4.79063">
        <ele>206</ele>
        <time>2021-08-27T06:35:27.000Z</time>
      </trkpt>
      <trkpt lat="49.82515" lon="4.79064">
        <ele>206</ele>
        <time>2021-08-27T06:35:28.000Z</time>
      </trkpt>
      <trkpt lat="49.8252" lon="4.79065">
        <ele>206</ele>
        <time>2021-08-27T06:35:29.000Z</time>
      </trkpt>
      <trkpt lat="49.82525" lon="4.79066">
        <ele>207</ele>
        <time>2021-08-27T06:35:30.000Z</time>
      </trkpt>
      <trkpt lat="49.8253" lon="4.79067">
        <ele>207</ele>
        <time>2021-08-27T06:35:31.000Z</time>
      </trkpt>
      <trkpt lat="49.82535" lon="4.79068">
        <ele>207</ele>
        <time>2021-08-27T06:35:32.000Z</time>
      </trkpt>
      <trkpt lat="49.8254" lon="4.7907">
        <ele>207</ele>
        <time>2021-08-27T06:35:33.000Z</time>
      </trkpt>
      <trkpt lat="49.82545" lon="4.79071">
        <ele>208</ele>
        <time>2021-08-27T06:35:34.000Z</time>
      </trkpt>
      <trkpt lat="49.82551" lon="4.79071">
        <ele>208</ele>
        <time>2021-08-27T06:35:35.000Z</time>
      </trkpt>
      <trkpt lat="49.82556" lon="4.79072">
        <ele>208</ele>
        <time>2021-08-27T06:35:36.000Z</time>
      </trkpt>
      <trkpt lat="49.82561" lon="4.79074">
        <ele>208</ele>
        <time>2021-08-27T06:35:37.000Z</time>
      </trkpt>
      <trkpt lat="49.82566" lon="4.79076">
        <ele>209</ele>
        <time>2021-08-27T06:35:38.000Z</time>
      </trkpt>
      <trkpt lat="49.8257" lon="4.79077">
        <ele>209</ele>
        <time>2021-08-27T06:35:39.000Z</time>
      </trkpt>
      <trkpt lat="49.82575" lon="4.79079">
        <ele>209</ele>
        <time>2021-08-27T06:35:40.000Z</time>
      </trkpt>
      <trkpt lat="49.82579" lon="4.7908">
        <ele>209</ele>
        <time>2021-08-27T06:35:41.000Z</time>
      </trkpt>
      <trkpt lat="49.82584" lon="4.79081">
        <ele>209</ele>
        <time>2021-08-27T06:35:42.000Z</time>
      </trkpt>
      <trkpt lat="49.82588" lon="4.79082">
        <ele>210</ele>
        <time>2021-08-27T06:35:43.000Z</time>
      </trkpt>
      <trkpt lat="49.82593" lon="4.79083">
        <ele>210</ele>
        <time>2021-08-27T06:35:44.000Z</time>
      </trkpt>
      <trkpt lat="49.82598" lon="4.79085">
        <ele>210</ele>
        <time>2021-08-27T06:35:45.000Z</time>
      </trkpt>
      <trkpt lat="49.82603" lon="4.79087">
        <ele>210</ele>
        <time>2021-08-27T06:35:46.000Z</time>
      </trkpt>
      <trkpt lat="49.82608" lon="4.79089">
        <ele>210</ele>
        <time>2021-08-27T06:35:47.000Z</time>
      </trkpt>
      <trkpt lat="49.82613" lon="4.79092">
        <ele>210</ele>
        <time>2021-08-27T06:35:48.000Z</time>
      </trkpt>
      <trkpt lat="49.82617" lon="4.79093">
        <ele>210</ele>
        <time>2021-08-27T06:35:49.000Z</time>
      </trkpt>
      <trkpt lat="49.82622" lon="4.79095">
        <ele>210</ele>
        <time>2021-08-27T06:35:50.000Z</time>
      </trkpt>
      <trkpt lat="49.82627" lon="4.79098">
        <ele>210</ele>
        <time>2021-08-27T06:35:51.000Z</time>
      </trkpt>
      <trkpt lat="49.82631" lon="4.79101">
        <ele>210</ele>
        <time>2021-08-27T06:35:52.000Z</time>
      </trkpt>
      <trkpt lat="49.82635" lon="4.79103">
        <ele>210</ele>
        <time>2021-08-27T06:35:53.000Z</time>
      </trkpt>
      <trkpt lat="49.8264" lon="4.79105">
        <ele>210</ele>
        <time>2021-08-27T06:35:54.000Z</time>
      </trkpt>
      <trkpt lat="49.82644" lon="4.79107">
        <ele>211</ele>
        <time>2021-08-27T06:35:55.000Z</time>
      </trkpt>
      <trkpt lat="49.82648" lon="4.79109">
        <ele>211</ele>
        <time>2021-08-27T06:35:56.000Z</time>
      </trkpt>
      <trkpt lat="49.82652" lon="4.79111">
        <ele>211</ele>
        <time>2021-08-27T06:35:57.000Z</time>
      </trkpt>
      <trkpt lat="49.82656" lon="4.79113">
        <ele>211</ele>
        <time>2021-08-27T06:35:58.000Z</time>
      </trkpt>
      <trkpt lat="49.8266" lon="4.79114">
        <ele>211</ele>
        <time>2021-08-27T06:35:59.000Z</time>
      </trkpt>
      <trkpt lat="49.82664" lon="4.79114">
        <ele>211</ele>
        <time>2021-08-27T06:36:00.000Z</time>
      </trkpt>
      <trkpt lat="49.82667" lon="4.79115">
        <ele>211</ele>
        <time>2021-08-27T06:36:01.000Z</time>
      </trkpt>
      <trkpt lat="49.82671" lon="4.79115">
        <ele>211</ele>
        <time>2021-08-27T06:36:02.000Z</time>
      </trkpt>
      <trkpt lat="49.82675" lon="4.79115">
        <ele>211</ele>
        <time>2021-08-27T06:36:03.000Z</time>
      </trkpt>
      <trkpt lat="49.82679" lon="4.79115">
        <ele>211</ele>
        <time>2021-08-27T06:36:04.000Z</time>
      </trkpt>
      <trkpt lat="49.82683" lon="4.79115">
        <ele>211</ele>
        <time>2021-08-27T06:36:05.000Z</time>
      </trkpt>
      <trkpt lat="49.82687" lon="4.79115">
        <ele>211</ele>
        <time>2021-08-27T06:36:06.000Z</time>
      </trkpt>
      <trkpt lat="49.82692" lon="4.79116">
        <ele>211</ele>
        <time>2021-08-27T06:36:07.000Z</time>
      </trkpt>
      <trkpt lat="49.82696" lon="4.79117">
        <ele>211</ele>
        <time>2021-08-27T06:36:08.000Z</time>
      </trkpt>
      <trkpt lat="49.82701" lon="4.79119">
        <ele>211</ele>
        <time>2021-08-27T06:36:09.000Z</time>
      </trkpt>
      <trkpt lat="49.82705" lon="4.79121">
        <ele>211</ele>
        <time>2021-08-27T06:36:10.000Z</time>
      </trkpt>
      <trkpt lat="49.82709" lon="4.79125">
        <ele>211</ele>
        <time>2021-08-27T06:36:11.000Z</time>
      </trkpt>
      <trkpt lat="49.82713" lon="4.79128">
        <ele>211</ele>
        <time>2021-08-27T06:36:12.000Z</time>
      </trkpt>
      <trkpt lat="49.82717" lon="4.79131">
        <ele>211</ele>
        <time>2021-08-27T06:36:13.000Z</time>
      </trkpt>
      <trkpt lat="49.82721" lon="4.79135">
        <ele>211</ele>
        <time>2021-08-27T06:36:14.000Z</time>
      </trkpt>
      <trkpt lat="49.82725" lon="4.79138">
        <ele>211</ele>
        <time>2021-08-27T06:36:15.000Z</time>
      </trkpt>
      <trkpt lat="49.82729" lon="4.79141">
        <ele>211</ele>
        <time>2021-08-27T06:36:16.000Z</time>
      </trkpt>
      <trkpt lat="49.82733" lon="4.79144">
        <ele>211</ele>
        <time>2021-08-27T06:36:17.000Z</time>
      </trkpt>
      <trkpt lat="49.82737" lon="4.79147">
        <ele>211</ele>
        <time>2021-08-27T06:36:18.000Z</time>
      </trkpt>
      <trkpt lat="49.82741" lon="4.7915">
        <ele>211</ele>
        <time>2021-08-27T06:36:19.000Z</time>
      </trkpt>
      <trkpt lat="49.82745" lon="4.79153">
        <ele>211</ele>
        <time>2021-08-27T06:36:20.000Z</time>
      </trkpt>
      <trkpt lat="49.82749" lon="4.79156">
        <ele>212</ele>
        <time>2021-08-27T06:36:21.000Z</time>
      </trkpt>
      <trkpt lat="49.82753" lon="4.79159">
        <ele>212</ele>
        <time>2021-08-27T06:36:22.000Z</time>
      </trkpt>
      <trkpt lat="49.82758" lon="4.79162">
        <ele>212</ele>
        <time>2021-08-27T06:36:23.000Z</time>
      </trkpt>
      <trkpt lat="49.82762" lon="4.79165">
        <ele>212</ele>
        <time>2021-08-27T06:36:24.000Z</time>
      </trkpt>
      <trkpt lat="49.82766" lon="4.79169">
        <ele>212</ele>
        <time>2021-08-27T06:36:25.000Z</time>
      </trkpt>
      <trkpt lat="49.8277" lon="4.79173">
        <ele>212</ele>
        <time>2021-08-27T06:36:26.000Z</time>
      </trkpt>
      <trkpt lat="49.82774" lon="4.79177">
        <ele>212</ele>
        <time>2021-08-27T06:36:27.000Z</time>
      </trkpt>
      <trkpt lat="49.82778" lon="4.79181">
        <ele>212</ele>
        <time>2021-08-27T06:36:28.000Z</time>
      </trkpt>
      <trkpt lat="49.82782" lon="4.79186">
        <ele>212</ele>
        <time>2021-08-27T06:36:29.000Z</time>
      </trkpt>
      <trkpt lat="49.82786" lon="4.79191">
        <ele>212</ele>
        <time>2021-08-27T06:36:30.000Z</time>
      </trkpt>
      <trkpt lat="49.82789" lon="4.79197">
        <ele>212</ele>
        <time>2021-08-27T06:36:31.000Z</time>
      </trkpt>
      <trkpt lat="49.82792" lon="4.79202">
        <ele>212</ele>
        <time>2021-08-27T06:36:32.000Z</time>
      </trkpt>
      <trkpt lat="49.82795" lon="4.79208">
        <ele>212</ele>
        <time>2021-08-27T06:36:33.000Z</time>
      </trkpt>
      <trkpt lat="49.82798" lon="4.79214">
        <ele>212</ele>
        <time>2021-08-27T06:36:34.000Z</time>
      </trkpt>
      <trkpt lat="49.82801" lon="4.7922">
        <ele>212</ele>
        <time>2021-08-27T06:36:35.000Z</time>
      </trkpt>
      <trkpt lat="49.82804" lon="4.79226">
        <ele>212</ele>
        <time>2021-08-27T06:36:36.000Z</time>
      </trkpt>
      <trkpt lat="49.82807" lon="4.79231">
        <ele>211</ele>
        <time>2021-08-27T06:36:37.000Z</time>
      </trkpt>
      <trkpt lat="49.8281" lon="4.79237">
        <ele>211</ele>
        <time>2021-08-27T06:36:38.000Z</time>
      </trkpt>
      <trkpt lat="49.82812" lon="4.79243">
        <ele>211</ele>
        <time>2021-08-27T06:36:39.000Z</time>
      </trkpt>
      <trkpt lat="49.82815" lon="4.79248">
        <ele>211</ele>
        <time>2021-08-27T06:36:40.000Z</time>
      </trkpt>
      <trkpt lat="49.82818" lon="4.79254">
        <ele>211</ele>
        <time>2021-08-27T06:36:41.000Z</time>
      </trkpt>
      <trkpt lat="49.82822" lon="4.79259">
        <ele>210</ele>
        <time>2021-08-27T06:36:42.000Z</time>
      </trkpt>
      <trkpt lat="49.82825" lon="4.79263">
        <ele>210</ele>
        <time>2021-08-27T06:36:43.000Z</time>
      </trkpt>
      <trkpt lat="49.82829" lon="4.79267">
        <ele>210</ele>
        <time>2021-08-27T06:36:44.000Z</time>
      </trkpt>
      <trkpt lat="49.82832" lon="4.79271">
        <ele>210</ele>
        <time>2021-08-27T06:36:45.000Z</time>
      </trkpt>
      <trkpt lat="49.82836" lon="4.79275">
        <ele>210</ele>
        <time>2021-08-27T06:36:46.000Z</time>
      </trkpt>
      <trkpt lat="49.8284" lon="4.79279">
        <ele>210</ele>
        <time>2021-08-27T06:36:47.000Z</time>
      </trkpt>
      <trkpt lat="49.82845" lon="4.79282">
        <ele>210</ele>
        <time>2021-08-27T06:36:48.000Z</time>
      </trkpt>
      <trkpt lat="49.82849" lon="4.79286">
        <ele>209</ele>
        <time>2021-08-27T06:36:49.000Z</time>
      </trkpt>
      <trkpt lat="49.82854" lon="4.7929">
        <ele>210</ele>
        <time>2021-08-27T06:36:50.000Z</time>
      </trkpt>
      <trkpt lat="49.82858" lon="4.79295">
        <ele>210</ele>
        <time>2021-08-27T06:36:51.000Z</time>
      </trkpt>
      <trkpt lat="49.82861" lon="4.793">
        <ele>210</ele>
        <time>2021-08-27T06:36:52.000Z</time>
      </trkpt>
      <trkpt lat="49.82865" lon="4.79306">
        <ele>210</ele>
        <time>2021-08-27T06:36:53.000Z</time>
      </trkpt>
      <trkpt lat="49.82868" lon="4.79311">
        <ele>210</ele>
        <time>2021-08-27T06:36:54.000Z</time>
      </trkpt>
      <trkpt lat="49.82871" lon="4.79316">
        <ele>210</ele>
        <time>2021-08-27T06:36:55.000Z</time>
      </trkpt>
      <trkpt lat="49.82873" lon="4.7932">
        <ele>210</ele>
        <time>2021-08-27T06:36:56.000Z</time>
      </trkpt>
      <trkpt lat="49.82875" lon="4.79324">
        <ele>210</ele>
        <time>2021-08-27T06:36:57.000Z</time>
      </trkpt>
      <trkpt lat="49.82877" lon="4.79328">
        <ele>210</ele>
        <time>2021-08-27T06:36:58.000Z</time>
      </trkpt>
      <trkpt lat="49.82879" lon="4.79332">
        <ele>210</ele>
        <time>2021-08-27T06:36:59.000Z</time>
      </trkpt>
      <trkpt lat="49.82881" lon="4.79336">
        <ele>210</ele>
        <time>2021-08-27T06:37:00.000Z</time>
      </trkpt>
      <trkpt lat="49.82883" lon="4.7934">
        <ele>210</ele>
        <time>2021-08-27T06:37:01.000Z</time>
      </trkpt>
      <trkpt lat="49.82884" lon="4.79344">
        <ele>210</ele>
        <time>2021-08-27T06:37:02.000Z</time>
      </trkpt>
      <trkpt lat="49.82886" lon="4.79349">
        <ele>210</ele>
        <time>2021-08-27T06:37:03.000Z</time>
      </trkpt>
      <trkpt lat="49.82889" lon="4.79353">
        <ele>210</ele>
        <time>2021-08-27T06:37:04.000Z</time>
      </trkpt>
      <trkpt lat="49.82891" lon="4.79357">
        <ele>210</ele>
        <time>2021-08-27T06:37:05.000Z</time>
      </trkpt>
      <trkpt lat="49.82893" lon="4.79361">
        <ele>210</ele>
        <time>2021-08-27T06:37:06.000Z</time>
      </trkpt>
      <trkpt lat="49.82895" lon="4.79366">
        <ele>210</ele>
        <time>2021-08-27T06:37:07.000Z</time>
      </trkpt>
      <trkpt lat="49.82897" lon="4.79371">
        <ele>210</ele>
        <time>2021-08-27T06:37:08.000Z</time>
      </trkpt>
      <trkpt lat="49.82899" lon="4.79376">
        <ele>210</ele>
        <time>2021-08-27T06:37:09.000Z</time>
      </trkpt>
      <trkpt lat="49.829" lon="4.79382">
        <ele>210</ele>
        <time>2021-08-27T06:37:10.000Z</time>
      </trkpt>
      <trkpt lat="49.82902" lon="4.79387">
        <ele>209</ele>
        <time>2021-08-27T06:37:11.000Z</time>
      </trkpt>
      <trkpt lat="49.82904" lon="4.79393">
        <ele>209</ele>
        <time>2021-08-27T06:37:12.000Z</time>
      </trkpt>
      <trkpt lat="49.82905" lon="4.79399">
        <ele>209</ele>
        <time>2021-08-27T06:37:13.000Z</time>
      </trkpt>
      <trkpt lat="49.82907" lon="4.79405">
        <ele>209</ele>
        <time>2021-08-27T06:37:14.000Z</time>
      </trkpt>
      <trkpt lat="49.82909" lon="4.7941">
        <ele>209</ele>
        <time>2021-08-27T06:37:15.000Z</time>
      </trkpt>
      <trkpt lat="49.8291" lon="4.79415">
        <ele>209</ele>
        <time>2021-08-27T06:37:16.000Z</time>
      </trkpt>
      <trkpt lat="49.82912" lon="4.79419">
        <ele>209</ele>
        <time>2021-08-27T06:37:17.000Z</time>
      </trkpt>
      <trkpt lat="49.82914" lon="4.79424">
        <ele>209</ele>
        <time>2021-08-27T06:37:18.000Z</time>
      </trkpt>
      <trkpt lat="49.82916" lon="4.79428">
        <ele>209</ele>
        <time>2021-08-27T06:37:19.000Z</time>
      </trkpt>
      <trkpt lat="49.82918" lon="4.79433">
        <ele>209</ele>
        <time>2021-08-27T06:37:20.000Z</time>
      </trkpt>
      <trkpt lat="49.8292" lon="4.79437">
        <ele>209</ele>
        <time>2021-08-27T06:37:21.000Z</time>
      </trkpt>
      <trkpt lat="49.82922" lon="4.79441">
        <ele>209</ele>
        <time>2021-08-27T06:37:22.000Z</time>
      </trkpt>
      <trkpt lat="49.82924" lon="4.79445">
        <ele>209</ele>
        <time>2021-08-27T06:37:23.000Z</time>
      </trkpt>
      <trkpt lat="49.82927" lon="4.79448">
        <ele>208</ele>
        <time>2021-08-27T06:37:24.000Z</time>
      </trkpt>
      <trkpt lat="49.82929" lon="4.79451">
        <ele>208</ele>
        <time>2021-08-27T06:37:25.000Z</time>
      </trkpt>
      <trkpt lat="49.82931" lon="4.79455">
        <ele>208</ele>
        <time>2021-08-27T06:37:26.000Z</time>
      </trkpt>
      <trkpt lat="49.82933" lon="4.79458">
        <ele>208</ele>
        <time>2021-08-27T06:37:27.000Z</time>
      </trkpt>
      <trkpt lat="49.82935" lon="4.7946">
        <ele>208</ele>
        <time>2021-08-27T06:37:28.000Z</time>
      </trkpt>
      <trkpt lat="49.82937" lon="4.79463">
        <ele>208</ele>
        <time>2021-08-27T06:37:29.000Z</time>
      </trkpt>
      <trkpt lat="49.82939" lon="4.79466">
        <ele>208</ele>
        <time>2021-08-27T06:37:30.000Z</time>
      </trkpt>
      <trkpt lat="49.82941" lon="4.79467">
        <ele>208</ele>
        <time>2021-08-27T06:37:31.000Z</time>
      </trkpt>
      <trkpt lat="49.82942" lon="4.79468">
        <ele>208</ele>
        <time>2021-08-27T06:37:32.000Z</time>
      </trkpt>
      <trkpt lat="49.82945" lon="4.79469">
        <ele>208</ele>
        <time>2021-08-27T06:37:33.000Z</time>
      </trkpt>
      <trkpt lat="49.82947" lon="4.7947">
        <ele>208</ele>
        <time>2021-08-27T06:37:34.000Z</time>
      </trkpt>
      <trkpt lat="49.8295" lon="4.7947">
        <ele>208</ele>
        <time>2021-08-27T06:37:35.000Z</time>
      </trkpt>
      <trkpt lat="49.82954" lon="4.79471">
        <ele>209</ele>
        <time>2021-08-27T06:37:36.000Z</time>
      </trkpt>
      <trkpt lat="49.82957" lon="4.79471">
        <ele>209</ele>
        <time>2021-08-27T06:37:37.000Z</time>
      </trkpt>
      <trkpt lat="49.8296" lon="4.79472">
        <ele>209</ele>
        <time>2021-08-27T06:37:38.000Z</time>
      </trkpt>
      <trkpt lat="49.82963" lon="4.79472">
        <ele>209</ele>
        <time>2021-08-27T06:37:39.000Z</time>
      </trkpt>
      <trkpt lat="49.82967" lon="4.79472">
        <ele>209</ele>
        <time>2021-08-27T06:37:40.000Z</time>
      </trkpt>
      <trkpt lat="49.8297" lon="4.79473">
        <ele>209</ele>
        <time>2021-08-27T06:37:41.000Z</time>
      </trkpt>
      <trkpt lat="49.82974" lon="4.79475">
        <ele>209</ele>
        <time>2021-08-27T06:37:42.000Z</time>
      </trkpt>
      <trkpt lat="49.82977" lon="4.79476">
        <ele>210</ele>
        <time>2021-08-27T06:37:43.000Z</time>
      </trkpt>
      <trkpt lat="49.82981" lon="4.79478">
        <ele>210</ele>
        <time>2021-08-27T06:37:44.000Z</time>
      </trkpt>
      <trkpt lat="49.82984" lon="4.79479">
        <ele>210</ele>
        <time>2021-08-27T06:37:45.000Z</time>
      </trkpt>
      <trkpt lat="49.82987" lon="4.79479">
        <ele>210</ele>
        <time>2021-08-27T06:37:46.000Z</time>
      </trkpt>
      <trkpt lat="49.8299" lon="4.79479">
        <ele>211</ele>
        <time>2021-08-27T06:37:47.000Z</time>
      </trkpt>
      <trkpt lat="49.82993" lon="4.7948">
        <ele>211</ele>
        <time>2021-08-27T06:37:48.000Z</time>
      </trkpt>
      <trkpt lat="49.82995" lon="4.7948">
        <ele>211</ele>
        <time>2021-08-27T06:37:49.000Z</time>
      </trkpt>
      <trkpt lat="49.82997" lon="4.7948">
        <ele>212</ele>
        <time>2021-08-27T06:37:50.000Z</time>
      </trkpt>
      <trkpt lat="49.82999" lon="4.7948">
        <ele>212</ele>
        <time>2021-08-27T06:37:51.000Z</time>
      </trkpt>
      <trkpt lat="49.83002" lon="4.7948">
        <ele>212</ele>
        <time>2021-08-27T06:37:52.000Z</time>
      </trkpt>
      <trkpt lat="49.83004" lon="4.7948">
        <ele>212</ele>
        <time>2021-08-27T06:37:53.000Z</time>
      </trkpt>
      <trkpt lat="49.83006" lon="4.79481">
        <ele>213</ele>
        <time>2021-08-27T06:37:54.000Z</time>
      </trkpt>
      <trkpt lat="49.83008" lon="4.79482">
        <ele>213</ele>
        <time>2021-08-27T06:37:55.000Z</time>
      </trkpt>
      <trkpt lat="49.8301" lon="4.79482">
        <ele>213</ele>
        <time>2021-08-27T06:37:56.000Z</time>
      </trkpt>
      <trkpt lat="49.83012" lon="4.79482">
        <ele>213</ele>
        <time>2021-08-27T06:37:57.000Z</time>
      </trkpt>
      <trkpt lat="49.83014" lon="4.79483">
        <ele>214</ele>
        <time>2021-08-27T06:37:58.000Z</time>
      </trkpt>
      <trkpt lat="49.83016" lon="4.79484">
        <ele>214</ele>
        <time>2021-08-27T06:37:59.000Z</time>
      </trkpt>
      <trkpt lat="49.83019" lon="4.79485">
        <ele>214</ele>
        <time>2021-08-27T06:38:00.000Z</time>
      </trkpt>
      <trkpt lat="49.83021" lon="4.79485">
        <ele>214</ele>
        <time>2021-08-27T06:38:01.000Z</time>
      </trkpt>
      <trkpt lat="49.83023" lon="4.79485">
        <ele>215</ele>
        <time>2021-08-27T06:38:02.000Z</time>
      </trkpt>
      <trkpt lat="49.83025" lon="4.79486">
        <ele>215</ele>
        <time>2021-08-27T06:38:03.000Z</time>
      </trkpt>
      <trkpt lat="49.83027" lon="4.79486">
        <ele>215</ele>
        <time>2021-08-27T06:38:04.000Z</time>
      </trkpt>
      <trkpt lat="49.83029" lon="4.79486">
        <ele>215</ele>
        <time>2021-08-27T06:38:05.000Z</time>
      </trkpt>
      <trkpt lat="49.83031" lon="4.79486">
        <ele>216</ele>
        <time>2021-08-27T06:38:06.000Z</time>
      </trkpt>
      <trkpt lat="49.83033" lon="4.79486">
        <ele>216</ele>
        <time>2021-08-27T06:38:07.000Z</time>
      </trkpt>
      <trkpt lat="49.83035" lon="4.79486">
        <ele>216</ele>
        <time>2021-08-27T06:38:08.000Z</time>
      </trkpt>
      <trkpt lat="49.83037" lon="4.79486">
        <ele>216</ele>
        <time>2021-08-27T06:38:09.000Z</time>
      </trkpt>
      <trkpt lat="49.83039" lon="4.79486">
        <ele>216</ele>
        <time>2021-08-27T06:38:10.000Z</time>
      </trkpt>
      <trkpt lat="49.8304" lon="4.79485">
        <ele>217</ele>
        <time>2021-08-27T06:38:11.000Z</time>
      </trkpt>
      <trkpt lat="49.83042" lon="4.79486">
        <ele>217</ele>
        <time>2021-08-27T06:38:12.000Z</time>
      </trkpt>
      <trkpt lat="49.83044" lon="4.79486">
        <ele>217</ele>
        <time>2021-08-27T06:38:13.000Z</time>
      </trkpt>
      <trkpt lat="49.83046" lon="4.79485">
        <ele>217</ele>
        <time>2021-08-27T06:38:14.000Z</time>
      </trkpt>
      <trkpt lat="49.83048" lon="4.79484">
        <ele>218</ele>
        <time>2021-08-27T06:38:15.000Z</time>
      </trkpt>
      <trkpt lat="49.8305" lon="4.79484">
        <ele>218</ele>
        <time>2021-08-27T06:38:16.000Z</time>
      </trkpt>
      <trkpt lat="49.83052" lon="4.79484">
        <ele>218</ele>
        <time>2021-08-27T06:38:17.000Z</time>
      </trkpt>
      <trkpt lat="49.83054" lon="4.79484">
        <ele>218</ele>
        <time>2021-08-27T06:38:18.000Z</time>
      </trkpt>
      <trkpt lat="49.83056" lon="4.79484">
        <ele>218</ele>
        <time>2021-08-27T06:38:19.000Z</time>
      </trkpt>
      <trkpt lat="49.83058" lon="4.79484">
        <ele>219</ele>
        <time>2021-08-27T06:38:20.000Z</time>
      </trkpt>
      <trkpt lat="49.8306" lon="4.79484">
        <ele>219</ele>
        <time>2021-08-27T06:38:21.000Z</time>
      </trkpt>
      <trkpt lat="49.83062" lon="4.79484">
        <ele>219</ele>
        <time>2021-08-27T06:38:22.000Z</time>
      </trkpt>
      <trkpt lat="49.83064" lon="4.79484">
        <ele>219</ele>
        <time>2021-08-27T06:38:23.000Z</time>
      </trkpt>
      <trkpt lat="49.83066" lon="4.79483">
        <ele>219</ele>
        <time>2021-08-27T06:38:24.000Z</time>
      </trkpt>
      <trkpt lat="49.83068" lon="4.79483">
        <ele>219</ele>
        <time>2021-08-27T06:38:25.000Z</time>
      </trkpt>
      <trkpt lat="49.8307" lon="4.79483">
        <ele>219</ele>
        <time>2021-08-27T06:38:26.000Z</time>
      </trkpt>
      <trkpt lat="49.83072" lon="4.79482">
        <ele>219</ele>
        <time>2021-08-27T06:38:27.000Z</time>
      </trkpt>
      <trkpt lat="49.83074" lon="4.79482">
        <ele>220</ele>
        <time>2021-08-27T06:38:28.000Z</time>
      </trkpt>
      <trkpt lat="49.83075" lon="4.7948">
        <ele>220</ele>
        <time>2021-08-27T06:38:29.000Z</time>
      </trkpt>
      <trkpt lat="49.83076" lon="4.79478">
        <ele>219</ele>
        <time>2021-08-27T06:38:30.000Z</time>
      </trkpt>
      <trkpt lat="49.83077" lon="4.79475">
        <ele>220</ele>
        <time>2021-08-27T06:38:31.000Z</time>
      </trkpt>
      <trkpt lat="49.83076" lon="4.79472">
        <ele>219</ele>
        <time>2021-08-27T06:38:32.000Z</time>
      </trkpt>
      <trkpt lat="49.83075" lon="4.7947">
        <ele>219</ele>
        <time>2021-08-27T06:38:33.000Z</time>
      </trkpt>
      <trkpt lat="49.83074" lon="4.79467">
        <ele>219</ele>
        <time>2021-08-27T06:38:34.000Z</time>
      </trkpt>
      <trkpt lat="49.83072" lon="4.79466">
        <ele>219</ele>
        <time>2021-08-27T06:38:35.000Z</time>
      </trkpt>
      <trkpt lat="49.8307" lon="4.79464">
        <ele>219</ele>
        <time>2021-08-27T06:38:36.000Z</time>
      </trkpt>
      <trkpt lat="49.83068" lon="4.79464">
        <ele>219</ele>
        <time>2021-08-27T06:38:37.000Z</time>
      </trkpt>
      <trkpt lat="49.83065" lon="4.79463">
        <ele>219</ele>
        <time>2021-08-27T06:38:38.000Z</time>
      </trkpt>
      <trkpt lat="49.83063" lon="4.79463">
        <ele>219</ele>
        <time>2021-08-27T06:38:39.000Z</time>
      </trkpt>
      <trkpt lat="49.8306" lon="4.79462">
        <ele>219</ele>
        <time>2021-08-27T06:38:40.000Z</time>
      </trkpt>
      <trkpt lat="49.83058" lon="4.79462">
        <ele>219</ele>
        <time>2021-08-27T06:38:41.000Z</time>
      </trkpt>
      <trkpt lat="49.83055" lon="4.79461">
        <ele>219</ele>
        <time>2021-08-27T06:38:42.000Z</time>
      </trkpt>
      <trkpt lat="49.83053" lon="4.7946">
        <ele>219</ele>
        <time>2021-08-27T06:38:43.000Z</time>
      </trkpt>
      <trkpt lat="49.8305" lon="4.7946">
        <ele>219</ele>
        <time>2021-08-27T06:38:44.000Z</time>
      </trkpt>
      <trkpt lat="49.83048" lon="4.79459">
        <ele>219</ele>
        <time>2021-08-27T06:38:45.000Z</time>
      </trkpt>
      <trkpt lat="49.83045" lon="4.79458">
        <ele>219</ele>
        <time>2021-08-27T06:38:46.000Z</time>
      </trkpt>
      <trkpt lat="49.83043" lon="4.79456">
        <ele>219</ele>
        <time>2021-08-27T06:38:47.000Z</time>
      </trkpt>
      <trkpt lat="49.8304" lon="4.79455">
        <ele>219</ele>
        <time>2021-08-27T06:38:48.000Z</time>
      </trkpt>
      <trkpt lat="49.83038" lon="4.79453">
        <ele>219</ele>
        <time>2021-08-27T06:38:49.000Z</time>
      </trkpt>
      <trkpt lat="49.83036" lon="4.79452">
        <ele>219</ele>
        <time>2021-08-27T06:38:50.000Z</time>
      </trkpt>
      <trkpt lat="49.83034" lon="4.7945">
        <ele>219</ele>
        <time>2021-08-27T06:38:51.000Z</time>
      </trkpt>
      <trkpt lat="49.83033" lon="4.79448">
        <ele>219</ele>
        <time>2021-08-27T06:38:52.000Z</time>
      </trkpt>
      <trkpt lat="49.83031" lon="4.79446">
        <ele>219</ele>
        <time>2021-08-27T06:38:53.000Z</time>
      </trkpt>
      <trkpt lat="49.8303" lon="4.79444">
        <ele>220</ele>
        <time>2021-08-27T06:38:54.000Z</time>
      </trkpt>
      <trkpt lat="49.83029" lon="4.79442">
        <ele>220</ele>
        <time>2021-08-27T06:38:55.000Z</time>
      </trkpt>
      <trkpt lat="49.83027" lon="4.79441">
        <ele>220</ele>
        <time>2021-08-27T06:38:56.000Z</time>
      </trkpt>
      <trkpt lat="49.83026" lon="4.79439">
        <ele>220</ele>
        <time>2021-08-27T06:38:57.000Z</time>
      </trkpt>
      <trkpt lat="49.83024" lon="4.79437">
        <ele>220</ele>
        <time>2021-08-27T06:38:58.000Z</time>
      </trkpt>
      <trkpt lat="49.83023" lon="4.79436">
        <ele>220</ele>
        <time>2021-08-27T06:38:59.000Z</time>
      </trkpt>
      <trkpt lat="49.83022" lon="4.79434">
        <ele>220</ele>
        <time>2021-08-27T06:39:00.000Z</time>
      </trkpt>
      <trkpt lat="49.8302" lon="4.79433">
        <ele>221</ele>
        <time>2021-08-27T06:39:01.000Z</time>
      </trkpt>
      <trkpt lat="49.83019" lon="4.79431">
        <ele>221</ele>
        <time>2021-08-27T06:39:02.000Z</time>
      </trkpt>
      <trkpt lat="49.83017" lon="4.7943">
        <ele>221</ele>
        <time>2021-08-27T06:39:03.000Z</time>
      </trkpt>
      <trkpt lat="49.83016" lon="4.79428">
        <ele>221</ele>
        <time>2021-08-27T06:39:04.000Z</time>
      </trkpt>
      <trkpt lat="49.83015" lon="4.79426">
        <ele>222</ele>
        <time>2021-08-27T06:39:05.000Z</time>
      </trkpt>
      <trkpt lat="49.83013" lon="4.79424">
        <ele>222</ele>
        <time>2021-08-27T06:39:06.000Z</time>
      </trkpt>
      <trkpt lat="49.83012" lon="4.79423">
        <ele>222</ele>
        <time>2021-08-27T06:39:07.000Z</time>
      </trkpt>
      <trkpt lat="49.8301" lon="4.79421">
        <ele>222</ele>
        <time>2021-08-27T06:39:08.000Z</time>
      </trkpt>
      <trkpt lat="49.83009" lon="4.79419">
        <ele>223</ele>
        <time>2021-08-27T06:39:09.000Z</time>
      </trkpt>
      <trkpt lat="49.83008" lon="4.79417">
        <ele>223</ele>
        <time>2021-08-27T06:39:10.000Z</time>
      </trkpt>
      <trkpt lat="49.83006" lon="4.79415">
        <ele>223</ele>
        <time>2021-08-27T06:39:11.000Z</time>
      </trkpt>
      <trkpt lat="49.83005" lon="4.79414">
        <ele>224</ele>
        <time>2021-08-27T06:39:12.000Z</time>
      </trkpt>
      <trkpt lat="49.83003" lon="4.79413">
        <ele>224</ele>
        <time>2021-08-27T06:39:13.000Z</time>
      </trkpt>
      <trkpt lat="49.83001" lon="4.79411">
        <ele>224</ele>
        <time>2021-08-27T06:39:14.000Z</time>
      </trkpt>
      <trkpt lat="49.83" lon="4.79409">
        <ele>225</ele>
        <time>2021-08-27T06:39:15.000Z</time>
      </trkpt>
      <trkpt lat="49.82998" lon="4.79407">
        <ele>225</ele>
        <time>2021-08-27T06:39:16.000Z</time>
      </trkpt>
      <trkpt lat="49.82997" lon="4.79406">
        <ele>225</ele>
        <time>2021-08-27T06:39:17.000Z</time>
      </trkpt>
      <trkpt lat="49.82995" lon="4.79403">
        <ele>226</ele>
        <time>2021-08-27T06:39:18.000Z</time>
      </trkpt>
      <trkpt lat="49.82994" lon="4.79401">
        <ele>226</ele>
        <time>2021-08-27T06:39:19.000Z</time>
      </trkpt>
      <trkpt lat="49.82992" lon="4.79399">
        <ele>226</ele>
        <time>2021-08-27T06:39:20.000Z</time>
      </trkpt>
      <trkpt lat="49.8299" lon="4.79397">
        <ele>227</ele>
        <time>2021-08-27T06:39:21.000Z</time>
      </trkpt>
      <trkpt lat="49.82988" lon="4.79395">
        <ele>227</ele>
        <time>2021-08-27T06:39:22.000Z</time>
      </trkpt>
      <trkpt lat="49.82986" lon="4.79394">
        <ele>227</ele>
        <time>2021-08-27T06:39:23.000Z</time>
      </trkpt>
      <trkpt lat="49.82984" lon="4.79392">
        <ele>228</ele>
        <time>2021-08-27T06:39:24.000Z</time>
      </trkpt>
      <trkpt lat="49.82982" lon="4.7939">
        <ele>228</ele>
        <time>2021-08-27T06:39:25.000Z</time>
      </trkpt>
      <trkpt lat="49.8298" lon="4.79388">
        <ele>228</ele>
        <time>2021-08-27T06:39:26.000Z</time>
      </trkpt>
      <trkpt lat="49.82978" lon="4.79386">
        <ele>229</ele>
        <time>2021-08-27T06:39:27.000Z</time>
      </trkpt>
      <trkpt lat="49.82976" lon="4.79384">
        <ele>229</ele>
        <time>2021-08-27T06:39:28.000Z</time>
      </trkpt>
      <trkpt lat="49.82974" lon="4.79382">
        <ele>230</ele>
        <time>2021-08-27T06:39:29.000Z</time>
      </trkpt>
      <trkpt lat="49.82972" lon="4.7938">
        <ele>230</ele>
        <time>2021-08-27T06:39:30.000Z</time>
      </trkpt>
      <trkpt lat="49.82971" lon="4.79378">
        <ele>230</ele>
        <time>2021-08-27T06:39:31.000Z</time>
      </trkpt>
      <trkpt lat="49.82969" lon="4.79376">
        <ele>231</ele>
        <time>2021-08-27T06:39:32.000Z</time>
      </trkpt>
      <trkpt lat="49.82967" lon="4.79373">
        <ele>231</ele>
        <time>2021-08-27T06:39:33.000Z</time>
      </trkpt>
      <trkpt lat="49.82965" lon="4.79372">
        <ele>232</ele>
        <time>2021-08-27T06:39:34.000Z</time>
      </trkpt>
      <trkpt lat="49.82963" lon="4.79369">
        <ele>232</ele>
        <time>2021-08-27T06:39:35.000Z</time>
      </trkpt>
      <trkpt lat="49.82962" lon="4.79368">
        <ele>232</ele>
        <time>2021-08-27T06:39:36.000Z</time>
      </trkpt>
      <trkpt lat="49.8296" lon="4.79365">
        <ele>233</ele>
        <time>2021-08-27T06:39:37.000Z</time>
      </trkpt>
      <trkpt lat="49.82959" lon="4.79363">
        <ele>233</ele>
        <time>2021-08-27T06:39:38.000Z</time>
      </trkpt>
      <trkpt lat="49.82957" lon="4.79361">
        <ele>233</ele>
        <time>2021-08-27T06:39:39.000Z</time>
      </trkpt>
      <trkpt lat="49.82955" lon="4.79359">
        <ele>234</ele>
        <time>2021-08-27T06:39:40.000Z</time>
      </trkpt>
      <trkpt lat="49.82954" lon="4.79356">
        <ele>234</ele>
        <time>2021-08-27T06:39:41.000Z</time>
      </trkpt>
      <trkpt lat="49.82953" lon="4.79353">
        <ele>234</ele>
        <time>2021-08-27T06:39:42.000Z</time>
      </trkpt>
      <trkpt lat="49.82951" lon="4.79351">
        <ele>235</ele>
        <time>2021-08-27T06:39:43.000Z</time>
      </trkpt>
      <trkpt lat="49.8295" lon="4.79348">
        <ele>235</ele>
        <time>2021-08-27T06:39:44.000Z</time>
      </trkpt>
      <trkpt lat="49.82949" lon="4.79346">
        <ele>235</ele>
        <time>2021-08-27T06:39:45.000Z</time>
      </trkpt>
      <trkpt lat="49.82948" lon="4.79343">
        <ele>235</ele>
        <time>2021-08-27T06:39:46.000Z</time>
      </trkpt>
      <trkpt lat="49.82947" lon="4.79341">
        <ele>235</ele>
        <time>2021-08-27T06:39:47.000Z</time>
      </trkpt>
      <trkpt lat="49.82947" lon="4.79339">
        <ele>235</ele>
        <time>2021-08-27T06:39:48.000Z</time>
      </trkpt>
      <trkpt lat="49.82946" lon="4.79337">
        <ele>236</ele>
        <time>2021-08-27T06:39:49.000Z</time>
      </trkpt>
      <trkpt lat="49.82945" lon="4.79334">
        <ele>236</ele>
        <time>2021-08-27T06:39:50.000Z</time>
      </trkpt>
      <trkpt lat="49.82945" lon="4.79332">
        <ele>236</ele>
        <time>2021-08-27T06:39:51.000Z</time>
      </trkpt>
      <trkpt lat="49.82944" lon="4.79329">
        <ele>236</ele>
        <time>2021-08-27T06:39:52.000Z</time>
      </trkpt>
      <trkpt lat="49.82944" lon="4.79327">
        <ele>236</ele>
        <time>2021-08-27T06:39:53.000Z</time>
      </trkpt>
      <trkpt lat="49.82943" lon="4.79324">
        <ele>236</ele>
        <time>2021-08-27T06:39:54.000Z</time>
      </trkpt>
      <trkpt lat="49.82942" lon="4.79321">
        <ele>236</ele>
        <time>2021-08-27T06:39:55.000Z</time>
      </trkpt>
      <trkpt lat="49.82941" lon="4.79318">
        <ele>236</ele>
        <time>2021-08-27T06:39:56.000Z</time>
      </trkpt>
      <trkpt lat="49.82941" lon="4.79316">
        <ele>236</ele>
        <time>2021-08-27T06:39:57.000Z</time>
      </trkpt>
      <trkpt lat="49.82941" lon="4.79313">
        <ele>236</ele>
        <time>2021-08-27T06:39:58.000Z</time>
      </trkpt>
      <trkpt lat="49.8294" lon="4.7931">
        <ele>236</ele>
        <time>2021-08-27T06:39:59.000Z</time>
      </trkpt>
      <trkpt lat="49.8294" lon="4.79307">
        <ele>236</ele>
        <time>2021-08-27T06:40:00.000Z</time>
      </trkpt>
      <trkpt lat="49.82939" lon="4.79304">
        <ele>236</ele>
        <time>2021-08-27T06:40:01.000Z</time>
      </trkpt>
      <trkpt lat="49.82939" lon="4.79301">
        <ele>236</ele>
        <time>2021-08-27T06:40:02.000Z</time>
      </trkpt>
      <trkpt lat="49.82938" lon="4.79297">
        <ele>236</ele>
        <time>2021-08-27T06:40:03.000Z</time>
      </trkpt>
      <trkpt lat="49.82938" lon="4.79294">
        <ele>237</ele>
        <time>2021-08-27T06:40:04.000Z</time>
      </trkpt>
      <trkpt lat="49.82938" lon="4.79291">
        <ele>237</ele>
        <time>2021-08-27T06:40:05.000Z</time>
      </trkpt>
      <trkpt lat="49.82938" lon="4.79288">
        <ele>237</ele>
        <time>2021-08-27T06:40:06.000Z</time>
      </trkpt>
      <trkpt lat="49.82938" lon="4.79285">
        <ele>237</ele>
        <time>2021-08-27T06:40:07.000Z</time>
      </trkpt>
      <trkpt lat="49.82937" lon="4.79282">
        <ele>237</ele>
        <time>2021-08-27T06:40:08.000Z</time>
      </trkpt>
      <trkpt lat="49.82938" lon="4.79279">
        <ele>237</ele>
        <time>2021-08-27T06:40:09.000Z</time>
      </trkpt>
      <trkpt lat="49.82938" lon="4.79276">
        <ele>237</ele>
        <time>2021-08-27T06:40:10.000Z</time>
      </trkpt>
      <trkpt lat="49.82939" lon="4.79273">
        <ele>237</ele>
        <time>2021-08-27T06:40:11.000Z</time>
      </trkpt>
      <trkpt lat="49.82939" lon="4.79269">
        <ele>237</ele>
        <time>2021-08-27T06:40:12.000Z</time>
      </trkpt>
      <trkpt lat="49.82939" lon="4.79265">
        <ele>237</ele>
        <time>2021-08-27T06:40:13.000Z</time>
      </trkpt>
      <trkpt lat="49.8294" lon="4.79262">
        <ele>237</ele>
        <time>2021-08-27T06:40:14.000Z</time>
      </trkpt>
      <trkpt lat="49.82941" lon="4.79258">
        <ele>237</ele>
        <time>2021-08-27T06:40:15.000Z</time>
      </trkpt>
      <trkpt lat="49.82941" lon="4.79254">
        <ele>238</ele>
        <time>2021-08-27T06:40:16.000Z</time>
      </trkpt>
      <trkpt lat="49.82942" lon="4.7925">
        <ele>238</ele>
        <time>2021-08-27T06:40:17.000Z</time>
      </trkpt>
      <trkpt lat="49.82943" lon="4.79247">
        <ele>238</ele>
        <time>2021-08-27T06:40:18.000Z</time>
      </trkpt>
      <trkpt lat="49.82943" lon="4.79243">
        <ele>238</ele>
        <time>2021-08-27T06:40:19.000Z</time>
      </trkpt>
      <trkpt lat="49.82943" lon="4.79239">
        <ele>238</ele>
        <time>2021-08-27T06:40:20.000Z</time>
      </trkpt>
      <trkpt lat="49.82944" lon="4.79235">
        <ele>238</ele>
        <time>2021-08-27T06:40:21.000Z</time>
      </trkpt>
      <trkpt lat="49.82945" lon="4.79231">
        <ele>238</ele>
        <time>2021-08-27T06:40:22.000Z</time>
      </trkpt>
      <trkpt lat="49.82945" lon="4.79228">
        <ele>238</ele>
        <time>2021-08-27T06:40:23.000Z</time>
      </trkpt>
      <trkpt lat="49.82946" lon="4.79224">
        <ele>239</ele>
        <time>2021-08-27T06:40:24.000Z</time>
      </trkpt>
      <trkpt lat="49.82946" lon="4.7922">
        <ele>239</ele>
        <time>2021-08-27T06:40:25.000Z</time>
      </trkpt>
      <trkpt lat="49.82946" lon="4.79217">
        <ele>239</ele>
        <time>2021-08-27T06:40:26.000Z</time>
      </trkpt>
      <trkpt lat="49.82947" lon="4.79214">
        <ele>239</ele>
        <time>2021-08-27T06:40:27.000Z</time>
      </trkpt>
      <trkpt lat="49.82948" lon="4.79211">
        <ele>239</ele>
        <time>2021-08-27T06:40:28.000Z</time>
      </trkpt>
      <trkpt lat="49.82948" lon="4.79208">
        <ele>239</ele>
        <time>2021-08-27T06:40:29.000Z</time>
      </trkpt>
      <trkpt lat="49.82949" lon="4.79205">
        <ele>239</ele>
        <time>2021-08-27T06:40:30.000Z</time>
      </trkpt>
      <trkpt lat="49.8295" lon="4.79201">
        <ele>240</ele>
        <time>2021-08-27T06:40:31.000Z</time>
      </trkpt>
      <trkpt lat="49.8295" lon="4.79198">
        <ele>240</ele>
        <time>2021-08-27T06:40:32.000Z</time>
      </trkpt>
      <trkpt lat="49.82951" lon="4.79195">
        <ele>240</ele>
        <time>2021-08-27T06:40:33.000Z</time>
      </trkpt>
      <trkpt lat="49.82952" lon="4.79191">
        <ele>240</ele>
        <time>2021-08-27T06:40:34.000Z</time>
      </trkpt>
      <trkpt lat="49.82952" lon="4.79188">
        <ele>240</ele>
        <time>2021-08-27T06:40:35.000Z</time>
      </trkpt>
      <trkpt lat="49.82953" lon="4.79185">
        <ele>240</ele>
        <time>2021-08-27T06:40:36.000Z</time>
      </trkpt>
      <trkpt lat="49.82953" lon="4.79181">
        <ele>240</ele>
        <time>2021-08-27T06:40:37.000Z</time>
      </trkpt>
      <trkpt lat="49.82953" lon="4.79178">
        <ele>241</ele>
        <time>2021-08-27T06:40:38.000Z</time>
      </trkpt>
      <trkpt lat="49.82953" lon="4.79174">
        <ele>241</ele>
        <time>2021-08-27T06:40:39.000Z</time>
      </trkpt>
      <trkpt lat="49.82953" lon="4.79171">
        <ele>241</ele>
        <time>2021-08-27T06:40:40.000Z</time>
      </trkpt>
      <trkpt lat="49.82952" lon="4.79168">
        <ele>241</ele>
        <time>2021-08-27T06:40:41.000Z</time>
      </trkpt>
      <trkpt lat="49.82952" lon="4.79164">
        <ele>242</ele>
        <time>2021-08-27T06:40:42.000Z</time>
      </trkpt>
      <trkpt lat="49.82952" lon="4.79161">
        <ele>242</ele>
        <time>2021-08-27T06:40:43.000Z</time>
      </trkpt>
      <trkpt lat="49.82952" lon="4.79158">
        <ele>242</ele>
        <time>2021-08-27T06:40:44.000Z</time>
      </trkpt>
      <trkpt lat="49.82951" lon="4.79154">
        <ele>243</ele>
        <time>2021-08-27T06:40:45.000Z</time>
      </trkpt>
      <trkpt lat="49.82951" lon="4.79151">
        <ele>243</ele>
        <time>2021-08-27T06:40:46.000Z</time>
      </trkpt>
      <trkpt lat="49.8295" lon="4.79148">
        <ele>243</ele>
        <time>2021-08-27T06:40:47.000Z</time>
      </trkpt>
      <trkpt lat="49.82949" lon="4.79145">
        <ele>243</ele>
        <time>2021-08-27T06:40:48.000Z</time>
      </trkpt>
      <trkpt lat="49.82949" lon="4.79142">
        <ele>244</ele>
        <time>2021-08-27T06:40:49.000Z</time>
      </trkpt>
      <trkpt lat="49.82948" lon="4.79139">
        <ele>244</ele>
        <time>2021-08-27T06:40:50.000Z</time>
      </trkpt>
      <trkpt lat="49.82947" lon="4.79136">
        <ele>244</ele>
        <time>2021-08-27T06:40:51.000Z</time>
      </trkpt>
      <trkpt lat="49.82946" lon="4.79134">
        <ele>245</ele>
        <time>2021-08-27T06:40:52.000Z</time>
      </trkpt>
      <trkpt lat="49.82945" lon="4.79131">
        <ele>245</ele>
        <time>2021-08-27T06:40:53.000Z</time>
      </trkpt>
      <trkpt lat="49.82944" lon="4.79128">
        <ele>245</ele>
        <time>2021-08-27T06:40:54.000Z</time>
      </trkpt>
      <trkpt lat="49.82943" lon="4.79125">
        <ele>246</ele>
        <time>2021-08-27T06:40:55.000Z</time>
      </trkpt>
      <trkpt lat="49.82942" lon="4.79123">
        <ele>246</ele>
        <time>2021-08-27T06:40:56.000Z</time>
      </trkpt>
      <trkpt lat="49.82941" lon="4.7912">
        <ele>246</ele>
        <time>2021-08-27T06:40:57.000Z</time>
      </trkpt>
      <trkpt lat="49.8294" lon="4.79117">
        <ele>247</ele>
        <time>2021-08-27T06:40:58.000Z</time>
      </trkpt>
      <trkpt lat="49.82938" lon="4.79114">
        <ele>247</ele>
        <time>2021-08-27T06:40:59.000Z</time>
      </trkpt>
      <trkpt lat="49.82937" lon="4.79111">
        <ele>247</ele>
        <time>2021-08-27T06:41:00.000Z</time>
      </trkpt>
      <trkpt lat="49.82936" lon="4.79108">
        <ele>247</ele>
        <time>2021-08-27T06:41:01.000Z</time>
      </trkpt>
      <trkpt lat="49.82935" lon="4.79105">
        <ele>248</ele>
        <time>2021-08-27T06:41:02.000Z</time>
      </trkpt>
      <trkpt lat="49.82933" lon="4.79102">
        <ele>248</ele>
        <time>2021-08-27T06:41:03.000Z</time>
      </trkpt>
      <trkpt lat="49.82932" lon="4.79099">
        <ele>248</ele>
        <time>2021-08-27T06:41:04.000Z</time>
      </trkpt>
      <trkpt lat="49.8293" lon="4.79096">
        <ele>249</ele>
        <time>2021-08-27T06:41:05.000Z</time>
      </trkpt>
      <trkpt lat="49.82928" lon="4.79094">
        <ele>249</ele>
        <time>2021-08-27T06:41:06.000Z</time>
      </trkpt>
      <trkpt lat="49.82926" lon="4.79091">
        <ele>249</ele>
        <time>2021-08-27T06:41:07.000Z</time>
      </trkpt>
      <trkpt lat="49.82925" lon="4.79089">
        <ele>250</ele>
        <time>2021-08-27T06:41:08.000Z</time>
      </trkpt>
      <trkpt lat="49.82923" lon="4.79086">
        <ele>250</ele>
        <time>2021-08-27T06:41:09.000Z</time>
      </trkpt>
      <trkpt lat="49.82921" lon="4.79083">
        <ele>250</ele>
        <time>2021-08-27T06:41:10.000Z</time>
      </trkpt>
      <trkpt lat="49.82919" lon="4.79081">
        <ele>251</ele>
        <time>2021-08-27T06:41:11.000Z</time>
      </trkpt>
      <trkpt lat="49.82917" lon="4.79078">
        <ele>251</ele>
        <time>2021-08-27T06:41:12.000Z</time>
      </trkpt>
      <trkpt lat="49.82914" lon="4.79076">
        <ele>251</ele>
        <time>2021-08-27T06:41:13.000Z</time>
      </trkpt>
      <trkpt lat="49.82912" lon="4.79073">
        <ele>251</ele>
        <time>2021-08-27T06:41:14.000Z</time>
      </trkpt>
      <trkpt lat="49.82909" lon="4.79071">
        <ele>252</ele>
        <time>2021-08-27T06:41:15.000Z</time>
      </trkpt>
      <trkpt lat="49.82906" lon="4.79069">
        <ele>252</ele>
        <time>2021-08-27T06:41:16.000Z</time>
      </trkpt>
      <trkpt lat="49.82903" lon="4.79067">
        <ele>252</ele>
        <time>2021-08-27T06:41:17.000Z</time>
      </trkpt>
      <trkpt lat="49.82899" lon="4.79064">
        <ele>253</ele>
        <time>2021-08-27T06:41:18.000Z</time>
      </trkpt>
      <trkpt lat="49.82897" lon="4.79062">
        <ele>253</ele>
        <time>2021-08-27T06:41:19.000Z</time>
      </trkpt>
      <trkpt lat="49.82893" lon="4.79059">
        <ele>253</ele>
        <time>2021-08-27T06:41:20.000Z</time>
      </trkpt>
      <trkpt lat="49.82891" lon="4.79057">
        <ele>254</ele>
        <time>2021-08-27T06:41:21.000Z</time>
      </trkpt>
      <trkpt lat="49.82888" lon="4.79055">
        <ele>254</ele>
        <time>2021-08-27T06:41:22.000Z</time>
      </trkpt>
      <trkpt lat="49.82885" lon="4.79053">
        <ele>254</ele>
        <time>2021-08-27T06:41:23.000Z</time>
      </trkpt>
      <trkpt lat="49.82883" lon="4.79051">
        <ele>254</ele>
        <time>2021-08-27T06:41:24.000Z</time>
      </trkpt>
      <trkpt lat="49.8288" lon="4.79049">
        <ele>255</ele>
        <time>2021-08-27T06:41:25.000Z</time>
      </trkpt>
      <trkpt lat="49.82878" lon="4.79047">
        <ele>255</ele>
        <time>2021-08-27T06:41:26.000Z</time>
      </trkpt>
      <trkpt lat="49.82876" lon="4.79044">
        <ele>255</ele>
        <time>2021-08-27T06:41:27.000Z</time>
      </trkpt>
      <trkpt lat="49.82874" lon="4.79042">
        <ele>255</ele>
        <time>2021-08-27T06:41:28.000Z</time>
      </trkpt>
      <trkpt lat="49.82872" lon="4.7904">
        <ele>255</ele>
        <time>2021-08-27T06:41:29.000Z</time>
      </trkpt>
      <trkpt lat="49.8287" lon="4.79038">
        <ele>255</ele>
        <time>2021-08-27T06:41:30.000Z</time>
      </trkpt>
      <trkpt lat="49.82868" lon="4.79035">
        <ele>255</ele>
        <time>2021-08-27T06:41:31.000Z</time>
      </trkpt>
      <trkpt lat="49.82866" lon="4.79033">
        <ele>255</ele>
        <time>2021-08-27T06:41:32.000Z</time>
      </trkpt>
      <trkpt lat="49.82865" lon="4.7903">
        <ele>256</ele>
        <time>2021-08-27T06:41:33.000Z</time>
      </trkpt>
      <trkpt lat="49.82863" lon="4.79028">
        <ele>256</ele>
        <time>2021-08-27T06:41:34.000Z</time>
      </trkpt>
      <trkpt lat="49.82862" lon="4.79025">
        <ele>256</ele>
        <time>2021-08-27T06:41:35.000Z</time>
      </trkpt>
      <trkpt lat="49.8286" lon="4.79022">
        <ele>256</ele>
        <time>2021-08-27T06:41:36.000Z</time>
      </trkpt>
      <trkpt lat="49.82859" lon="4.7902">
        <ele>256</ele>
        <time>2021-08-27T06:41:37.000Z</time>
      </trkpt>
      <trkpt lat="49.82857" lon="4.79017">
        <ele>256</ele>
        <time>2021-08-27T06:41:38.000Z</time>
      </trkpt>
      <trkpt lat="49.82856" lon="4.79014">
        <ele>256</ele>
        <time>2021-08-27T06:41:39.000Z</time>
      </trkpt>
      <trkpt lat="49.82855" lon="4.79011">
        <ele>256</ele>
        <time>2021-08-27T06:41:40.000Z</time>
      </trkpt>
      <trkpt lat="49.82853" lon="4.79008">
        <ele>257</ele>
        <time>2021-08-27T06:41:41.000Z</time>
      </trkpt>
      <trkpt lat="49.82853" lon="4.79005">
        <ele>257</ele>
        <time>2021-08-27T06:41:42.000Z</time>
      </trkpt>
      <trkpt lat="49.82852" lon="4.79001">
        <ele>257</ele>
        <time>2021-08-27T06:41:43.000Z</time>
      </trkpt>
      <trkpt lat="49.82851" lon="4.78998">
        <ele>257</ele>
        <time>2021-08-27T06:41:44.000Z</time>
      </trkpt>
      <trkpt lat="49.82852" lon="4.78995">
        <ele>257</ele>
        <time>2021-08-27T06:41:45.000Z</time>
      </trkpt>
      <trkpt lat="49.82852" lon="4.78992">
        <ele>257</ele>
        <time>2021-08-27T06:41:46.000Z</time>
      </trkpt>
      <trkpt lat="49.82852" lon="4.78989">
        <ele>258</ele>
        <time>2021-08-27T06:41:47.000Z</time>
      </trkpt>
      <trkpt lat="49.82852" lon="4.78986">
        <ele>258</ele>
        <time>2021-08-27T06:41:48.000Z</time>
      </trkpt>
      <trkpt lat="49.82852" lon="4.78983">
        <ele>258</ele>
        <time>2021-08-27T06:41:49.000Z</time>
      </trkpt>
      <trkpt lat="49.82853" lon="4.78981">
        <ele>258</ele>
        <time>2021-08-27T06:41:50.000Z</time>
      </trkpt>
      <trkpt lat="49.82854" lon="4.78979">
        <ele>258</ele>
        <time>2021-08-27T06:41:51.000Z</time>
      </trkpt>
      <trkpt lat="49.82855" lon="4.78976">
        <ele>258</ele>
        <time>2021-08-27T06:41:52.000Z</time>
      </trkpt>
      <trkpt lat="49.82855" lon="4.78974">
        <ele>258</ele>
        <time>2021-08-27T06:41:53.000Z</time>
      </trkpt>
      <trkpt lat="49.82857" lon="4.78973">
        <ele>259</ele>
        <time>2021-08-27T06:41:54.000Z</time>
      </trkpt>
      <trkpt lat="49.82858" lon="4.78971">
        <ele>259</ele>
        <time>2021-08-27T06:41:55.000Z</time>
      </trkpt>
      <trkpt lat="49.8286" lon="4.78971">
        <ele>259</ele>
        <time>2021-08-27T06:41:56.000Z</time>
      </trkpt>
      <trkpt lat="49.82862" lon="4.7897">
        <ele>259</ele>
        <time>2021-08-27T06:41:57.000Z</time>
      </trkpt>
      <trkpt lat="49.82864" lon="4.7897">
        <ele>259</ele>
        <time>2021-08-27T06:41:58.000Z</time>
      </trkpt>
      <trkpt lat="49.82866" lon="4.7897">
        <ele>259</ele>
        <time>2021-08-27T06:41:59.000Z</time>
      </trkpt>
      <trkpt lat="49.82868" lon="4.78971">
        <ele>259</ele>
        <time>2021-08-27T06:42:00.000Z</time>
      </trkpt>
      <trkpt lat="49.82871" lon="4.78972">
        <ele>260</ele>
        <time>2021-08-27T06:42:01.000Z</time>
      </trkpt>
      <trkpt lat="49.82872" lon="4.78973">
        <ele>260</ele>
        <time>2021-08-27T06:42:02.000Z</time>
      </trkpt>
      <trkpt lat="49.82874" lon="4.78975">
        <ele>260</ele>
        <time>2021-08-27T06:42:03.000Z</time>
      </trkpt>
      <trkpt lat="49.82875" lon="4.78977">
        <ele>260</ele>
        <time>2021-08-27T06:42:04.000Z</time>
      </trkpt>
      <trkpt lat="49.82877" lon="4.78979">
        <ele>260</ele>
        <time>2021-08-27T06:42:05.000Z</time>
      </trkpt>
      <trkpt lat="49.82878" lon="4.78981">
        <ele>260</ele>
        <time>2021-08-27T06:42:06.000Z</time>
      </trkpt>
      <trkpt lat="49.8288" lon="4.78983">
        <ele>261</ele>
        <time>2021-08-27T06:42:07.000Z</time>
      </trkpt>
      <trkpt lat="49.82882" lon="4.78985">
        <ele>261</ele>
        <time>2021-08-27T06:42:08.000Z</time>
      </trkpt>
      <trkpt lat="49.82884" lon="4.78987">
        <ele>261</ele>
        <time>2021-08-27T06:42:09.000Z</time>
      </trkpt>
      <trkpt lat="49.82886" lon="4.78989">
        <ele>261</ele>
        <time>2021-08-27T06:42:10.000Z</time>
      </trkpt>
      <trkpt lat="49.82887" lon="4.78991">
        <ele>261</ele>
        <time>2021-08-27T06:42:11.000Z</time>
      </trkpt>
      <trkpt lat="49.82889" lon="4.78994">
        <ele>261</ele>
        <time>2021-08-27T06:42:12.000Z</time>
      </trkpt>
      <trkpt lat="49.82891" lon="4.78996">
        <ele>262</ele>
        <time>2021-08-27T06:42:13.000Z</time>
      </trkpt>
      <trkpt lat="49.82894" lon="4.78997">
        <ele>262</ele>
        <time>2021-08-27T06:42:14.000Z</time>
      </trkpt>
      <trkpt lat="49.82895" lon="4.78999">
        <ele>262</ele>
        <time>2021-08-27T06:42:15.000Z</time>
      </trkpt>
      <trkpt lat="49.82897" lon="4.79001">
        <ele>262</ele>
        <time>2021-08-27T06:42:16.000Z</time>
      </trkpt>
      <trkpt lat="49.82899" lon="4.79004">
        <ele>263</ele>
        <time>2021-08-27T06:42:17.000Z</time>
      </trkpt>
      <trkpt lat="49.829" lon="4.79006">
        <ele>263</ele>
        <time>2021-08-27T06:42:18.000Z</time>
      </trkpt>
      <trkpt lat="49.82902" lon="4.79008">
        <ele>263</ele>
        <time>2021-08-27T06:42:19.000Z</time>
      </trkpt>
      <trkpt lat="49.82904" lon="4.7901">
        <ele>264</ele>
        <time>2021-08-27T06:42:20.000Z</time>
      </trkpt>
      <trkpt lat="49.82905" lon="4.79012">
        <ele>264</ele>
        <time>2021-08-27T06:42:21.000Z</time>
      </trkpt>
      <trkpt lat="49.82907" lon="4.79014">
        <ele>264</ele>
        <time>2021-08-27T06:42:22.000Z</time>
      </trkpt>
      <trkpt lat="49.82909" lon="4.79016">
        <ele>265</ele>
        <time>2021-08-27T06:42:23.000Z</time>
      </trkpt>
      <trkpt lat="49.82911" lon="4.79017">
        <ele>265</ele>
        <time>2021-08-27T06:42:24.000Z</time>
      </trkpt>
      <trkpt lat="49.82913" lon="4.79019">
        <ele>265</ele>
        <time>2021-08-27T06:42:25.000Z</time>
      </trkpt>
      <trkpt lat="49.82915" lon="4.79021">
        <ele>265</ele>
        <time>2021-08-27T06:42:26.000Z</time>
      </trkpt>
      <trkpt lat="49.82917" lon="4.79023">
        <ele>265</ele>
        <time>2021-08-27T06:42:27.000Z</time>
      </trkpt>
      <trkpt lat="49.82919" lon="4.79025">
        <ele>266</ele>
        <time>2021-08-27T06:42:28.000Z</time>
      </trkpt>
      <trkpt lat="49.82921" lon="4.79026">
        <ele>266</ele>
        <time>2021-08-27T06:42:29.000Z</time>
      </trkpt>
      <trkpt lat="49.82923" lon="4.79029">
        <ele>266</ele>
        <time>2021-08-27T06:42:30.000Z</time>
      </trkpt>
      <trkpt lat="49.82925" lon="4.79031">
        <ele>267</ele>
        <time>2021-08-27T06:42:31.000Z</time>
      </trkpt>
      <trkpt lat="49.82927" lon="4.79034">
        <ele>267</ele>
        <time>2021-08-27T06:42:32.000Z</time>
      </trkpt>
      <trkpt lat="49.8293" lon="4.79036">
        <ele>267</ele>
        <time>2021-08-27T06:42:33.000Z</time>
      </trkpt>
      <trkpt lat="49.82932" lon="4.79038">
        <ele>267</ele>
        <time>2021-08-27T06:42:34.000Z</time>
      </trkpt>
      <trkpt lat="49.82935" lon="4.7904">
        <ele>267</ele>
        <time>2021-08-27T06:42:35.000Z</time>
      </trkpt>
      <trkpt lat="49.82937" lon="4.79042">
        <ele>268</ele>
        <time>2021-08-27T06:42:36.000Z</time>
      </trkpt>
      <trkpt lat="49.8294" lon="4.79044">
        <ele>268</ele>
        <time>2021-08-27T06:42:37.000Z</time>
      </trkpt>
      <trkpt lat="49.82942" lon="4.79046">
        <ele>268</ele>
        <time>2021-08-27T06:42:38.000Z</time>
      </trkpt>
      <trkpt lat="49.82944" lon="4.79048">
        <ele>268</ele>
        <time>2021-08-27T06:42:39.000Z</time>
      </trkpt>
      <trkpt lat="49.82947" lon="4.7905">
        <ele>268</ele>
        <time>2021-08-27T06:42:40.000Z</time>
      </trkpt>
      <trkpt lat="49.82949" lon="4.79052">
        <ele>269</ele>
        <time>2021-08-27T06:42:41.000Z</time>
      </trkpt>
      <trkpt lat="49.82951" lon="4.79054">
        <ele>269</ele>
        <time>2021-08-27T06:42:42.000Z</time>
      </trkpt>
      <trkpt lat="49.82953" lon="4.79055">
        <ele>269</ele>
        <time>2021-08-27T06:42:43.000Z</time>
      </trkpt>
      <trkpt lat="49.82955" lon="4.79057">
        <ele>269</ele>
        <time>2021-08-27T06:42:44.000Z</time>
      </trkpt>
      <trkpt lat="49.82957" lon="4.79059">
        <ele>270</ele>
        <time>2021-08-27T06:42:45.000Z</time>
      </trkpt>
      <trkpt lat="49.82959" lon="4.79061">
        <ele>270</ele>
        <time>2021-08-27T06:42:46.000Z</time>
      </trkpt>
      <trkpt lat="49.82961" lon="4.79063">
        <ele>270</ele>
        <time>2021-08-27T06:42:47.000Z</time>
      </trkpt>
      <trkpt lat="49.82963" lon="4.79065">
        <ele>271</ele>
        <time>2021-08-27T06:42:48.000Z</time>
      </trkpt>
      <trkpt lat="49.82965" lon="4.79067">
        <ele>271</ele>
        <time>2021-08-27T06:42:49.000Z</time>
      </trkpt>
      <trkpt lat="49.82967" lon="4.79069">
        <ele>272</ele>
        <time>2021-08-27T06:42:50.000Z</time>
      </trkpt>
      <trkpt lat="49.82969" lon="4.79071">
        <ele>272</ele>
        <time>2021-08-27T06:42:51.000Z</time>
      </trkpt>
      <trkpt lat="49.82971" lon="4.79073">
        <ele>272</ele>
        <time>2021-08-27T06:42:52.000Z</time>
      </trkpt>
      <trkpt lat="49.82973" lon="4.79075">
        <ele>273</ele>
        <time>2021-08-27T06:42:53.000Z</time>
      </trkpt>
      <trkpt lat="49.82975" lon="4.79077">
        <ele>273</ele>
        <time>2021-08-27T06:42:54.000Z</time>
      </trkpt>
      <trkpt lat="49.82976" lon="4.79079">
        <ele>273</ele>
        <time>2021-08-27T06:42:55.000Z</time>
      </trkpt>
      <trkpt lat="49.82978" lon="4.7908">
        <ele>273</ele>
        <time>2021-08-27T06:42:56.000Z</time>
      </trkpt>
      <trkpt lat="49.8298" lon="4.79081">
        <ele>273</ele>
        <time>2021-08-27T06:42:57.000Z</time>
      </trkpt>
      <trkpt lat="49.82982" lon="4.79083">
        <ele>274</ele>
        <time>2021-08-27T06:42:58.000Z</time>
      </trkpt>
      <trkpt lat="49.82984" lon="4.79085">
        <ele>274</ele>
        <time>2021-08-27T06:42:59.000Z</time>
      </trkpt>
      <trkpt lat="49.82986" lon="4.79086">
        <ele>274</ele>
        <time>2021-08-27T06:43:00.000Z</time>
      </trkpt>
      <trkpt lat="49.82987" lon="4.79088">
        <ele>274</ele>
        <time>2021-08-27T06:43:01.000Z</time>
      </trkpt>
      <trkpt lat="49.82989" lon="4.7909">
        <ele>274</ele>
        <time>2021-08-27T06:43:02.000Z</time>
      </trkpt>
      <trkpt lat="49.82991" lon="4.79092">
        <ele>275</ele>
        <time>2021-08-27T06:43:03.000Z</time>
      </trkpt>
      <trkpt lat="49.82993" lon="4.79093">
        <ele>275</ele>
        <time>2021-08-27T06:43:04.000Z</time>
      </trkpt>
      <trkpt lat="49.82994" lon="4.79094">
        <ele>275</ele>
        <time>2021-08-27T06:43:05.000Z</time>
      </trkpt>
      <trkpt lat="49.82996" lon="4.79096">
        <ele>275</ele>
        <time>2021-08-27T06:43:06.000Z</time>
      </trkpt>
      <trkpt lat="49.82998" lon="4.79097">
        <ele>276</ele>
        <time>2021-08-27T06:43:07.000Z</time>
      </trkpt>
      <trkpt lat="49.83" lon="4.79099">
        <ele>276</ele>
        <time>2021-08-27T06:43:08.000Z</time>
      </trkpt>
      <trkpt lat="49.83002" lon="4.791">
        <ele>276</ele>
        <time>2021-08-27T06:43:09.000Z</time>
      </trkpt>
      <trkpt lat="49.83004" lon="4.79101">
        <ele>276</ele>
        <time>2021-08-27T06:43:10.000Z</time>
      </trkpt>
      <trkpt lat="49.83006" lon="4.79102">
        <ele>276</ele>
        <time>2021-08-27T06:43:11.000Z</time>
      </trkpt>
      <trkpt lat="49.83008" lon="4.79103">
        <ele>277</ele>
        <time>2021-08-27T06:43:12.000Z</time>
      </trkpt>
      <trkpt lat="49.8301" lon="4.79104">
        <ele>277</ele>
        <time>2021-08-27T06:43:13.000Z</time>
      </trkpt>
      <trkpt lat="49.83012" lon="4.79104">
        <ele>277</ele>
        <time>2021-08-27T06:43:14.000Z</time>
      </trkpt>
      <trkpt lat="49.83014" lon="4.79105">
        <ele>277</ele>
        <time>2021-08-27T06:43:15.000Z</time>
      </trkpt>
      <trkpt lat="49.83016" lon="4.79105">
        <ele>277</ele>
        <time>2021-08-27T06:43:16.000Z</time>
      </trkpt>
      <trkpt lat="49.83018" lon="4.79105">
        <ele>277</ele>
        <time>2021-08-27T06:43:17.000Z</time>
      </trkpt>
      <trkpt lat="49.8302" lon="4.79106">
        <ele>277</ele>
        <time>2021-08-27T06:43:18.000Z</time>
      </trkpt>
      <trkpt lat="49.83022" lon="4.79107">
        <ele>277</ele>
        <time>2021-08-27T06:43:19.000Z</time>
      </trkpt>
      <trkpt lat="49.83024" lon="4.79108">
        <ele>277</ele>
        <time>2021-08-27T06:43:20.000Z</time>
      </trkpt>
      <trkpt lat="49.83026" lon="4.79109">
        <ele>277</ele>
        <time>2021-08-27T06:43:21.000Z</time>
      </trkpt>
      <trkpt lat="49.83028" lon="4.7911">
        <ele>277</ele>
        <time>2021-08-27T06:43:22.000Z</time>
      </trkpt>
      <trkpt lat="49.83031" lon="4.7911">
        <ele>277</ele>
        <time>2021-08-27T06:43:23.000Z</time>
      </trkpt>
      <trkpt lat="49.83033" lon="4.79111">
        <ele>277</ele>
        <time>2021-08-27T06:43:24.000Z</time>
      </trkpt>
      <trkpt lat="49.83035" lon="4.79113">
        <ele>277</ele>
        <time>2021-08-27T06:43:25.000Z</time>
      </trkpt>
      <trkpt lat="49.83037" lon="4.79115">
        <ele>277</ele>
        <time>2021-08-27T06:43:26.000Z</time>
      </trkpt>
      <trkpt lat="49.83039" lon="4.79117">
        <ele>278</ele>
        <time>2021-08-27T06:43:27.000Z</time>
      </trkpt>
      <trkpt lat="49.83041" lon="4.79119">
        <ele>278</ele>
        <time>2021-08-27T06:43:28.000Z</time>
      </trkpt>
      <trkpt lat="49.83043" lon="4.79121">
        <ele>278</ele>
        <time>2021-08-27T06:43:29.000Z</time>
      </trkpt>
      <trkpt lat="49.83045" lon="4.79124">
        <ele>278</ele>
        <time>2021-08-27T06:43:30.000Z</time>
      </trkpt>
      <trkpt lat="49.83047" lon="4.79126">
        <ele>278</ele>
        <time>2021-08-27T06:43:31.000Z</time>
      </trkpt>
      <trkpt lat="49.83049" lon="4.79129">
        <ele>278</ele>
        <time>2021-08-27T06:43:32.000Z</time>
      </trkpt>
      <trkpt lat="49.8305" lon="4.79132">
        <ele>279</ele>
        <time>2021-08-27T06:43:33.000Z</time>
      </trkpt>
      <trkpt lat="49.83052" lon="4.79135">
        <ele>279</ele>
        <time>2021-08-27T06:43:34.000Z</time>
      </trkpt>
      <trkpt lat="49.83054" lon="4.79138">
        <ele>279</ele>
        <time>2021-08-27T06:43:35.000Z</time>
      </trkpt>
      <trkpt lat="49.83055" lon="4.79142">
        <ele>279</ele>
        <time>2021-08-27T06:43:36.000Z</time>
      </trkpt>
      <trkpt lat="49.83056" lon="4.79146">
        <ele>280</ele>
        <time>2021-08-27T06:43:37.000Z</time>
      </trkpt>
      <trkpt lat="49.83058" lon="4.79149">
        <ele>280</ele>
        <time>2021-08-27T06:43:38.000Z</time>
      </trkpt>
      <trkpt lat="49.83059" lon="4.79153">
        <ele>280</ele>
        <time>2021-08-27T06:43:39.000Z</time>
      </trkpt>
      <trkpt lat="49.8306" lon="4.79156">
        <ele>280</ele>
        <time>2021-08-27T06:43:40.000Z</time>
      </trkpt>
      <trkpt lat="49.83061" lon="4.79159">
        <ele>280</ele>
        <time>2021-08-27T06:43:41.000Z</time>
      </trkpt>
      <trkpt lat="49.83062" lon="4.79163">
        <ele>280</ele>
        <time>2021-08-27T06:43:42.000Z</time>
      </trkpt>
      <trkpt lat="49.83063" lon="4.79166">
        <ele>281</ele>
        <time>2021-08-27T06:43:43.000Z</time>
      </trkpt>
      <trkpt lat="49.83064" lon="4.7917">
        <ele>281</ele>
        <time>2021-08-27T06:43:44.000Z</time>
      </trkpt>
      <trkpt lat="49.83065" lon="4.79173">
        <ele>281</ele>
        <time>2021-08-27T06:43:45.000Z</time>
      </trkpt>
      <trkpt lat="49.83065" lon="4.79176">
        <ele>281</ele>
        <time>2021-08-27T06:43:46.000Z</time>
      </trkpt>
      <trkpt lat="49.83066" lon="4.79178">
        <ele>281</ele>
        <time>2021-08-27T06:43:47.000Z</time>
      </trkpt>
      <trkpt lat="49.83067" lon="4.79181">
        <ele>281</ele>
        <time>2021-08-27T06:43:48.000Z</time>
      </trkpt>
      <trkpt lat="49.83068" lon="4.79184">
        <ele>281</ele>
        <time>2021-08-27T06:43:49.000Z</time>
      </trkpt>
      <trkpt lat="49.83069" lon="4.79187">
        <ele>282</ele>
        <time>2021-08-27T06:43:50.000Z</time>
      </trkpt>
      <trkpt lat="49.8307" lon="4.7919">
        <ele>282</ele>
        <time>2021-08-27T06:43:51.000Z</time>
      </trkpt>
      <trkpt lat="49.83071" lon="4.79193">
        <ele>282</ele>
        <time>2021-08-27T06:43:52.000Z</time>
      </trkpt>
      <trkpt lat="49.83073" lon="4.79196">
        <ele>282</ele>
        <time>2021-08-27T06:43:53.000Z</time>
      </trkpt>
      <trkpt lat="49.83074" lon="4.79199">
        <ele>282</ele>
        <time>2021-08-27T06:43:54.000Z</time>
      </trkpt>
      <trkpt lat="49.83075" lon="4.79202">
        <ele>282</ele>
        <time>2021-08-27T06:43:55.000Z</time>
      </trkpt>
      <trkpt lat="49.83077" lon="4.79204">
        <ele>283</ele>
        <time>2021-08-27T06:43:56.000Z</time>
      </trkpt>
      <trkpt lat="49.83078" lon="4.79207">
        <ele>283</ele>
        <time>2021-08-27T06:43:57.000Z</time>
      </trkpt>
      <trkpt lat="49.8308" lon="4.7921">
        <ele>283</ele>
        <time>2021-08-27T06:43:58.000Z</time>
      </trkpt>
      <trkpt lat="49.83082" lon="4.79212">
        <ele>283</ele>
        <time>2021-08-27T06:43:59.000Z</time>
      </trkpt>
      <trkpt lat="49.83084" lon="4.79214">
        <ele>284</ele>
        <time>2021-08-27T06:44:00.000Z</time>
      </trkpt>
      <trkpt lat="49.83086" lon="4.79215">
        <ele>284</ele>
        <time>2021-08-27T06:44:01.000Z</time>
      </trkpt>
      <trkpt lat="49.83089" lon="4.79215">
        <ele>284</ele>
        <time>2021-08-27T06:44:02.000Z</time>
      </trkpt>
      <trkpt lat="49.83092" lon="4.79216">
        <ele>285</ele>
        <time>2021-08-27T06:44:03.000Z</time>
      </trkpt>
      <trkpt lat="49.83094" lon="4.79216">
        <ele>285</ele>
        <time>2021-08-27T06:44:04.000Z</time>
      </trkpt>
      <trkpt lat="49.83097" lon="4.79217">
        <ele>285</ele>
        <time>2021-08-27T06:44:05.000Z</time>
      </trkpt>
      <trkpt lat="49.831" lon="4.79216">
        <ele>285</ele>
        <time>2021-08-27T06:44:06.000Z</time>
      </trkpt>
      <trkpt lat="49.83103" lon="4.79215">
        <ele>286</ele>
        <time>2021-08-27T06:44:07.000Z</time>
      </trkpt>
      <trkpt lat="49.83105" lon="4.79214">
        <ele>286</ele>
        <time>2021-08-27T06:44:08.000Z</time>
      </trkpt>
      <trkpt lat="49.83109" lon="4.79213">
        <ele>286</ele>
        <time>2021-08-27T06:44:09.000Z</time>
      </trkpt>
      <trkpt lat="49.83111" lon="4.79212">
        <ele>286</ele>
        <time>2021-08-27T06:44:10.000Z</time>
      </trkpt>
      <trkpt lat="49.83114" lon="4.79212">
        <ele>286</ele>
        <time>2021-08-27T06:44:11.000Z</time>
      </trkpt>
      <trkpt lat="49.83117" lon="4.79212">
        <ele>286</ele>
        <time>2021-08-27T06:44:12.000Z</time>
      </trkpt>
      <trkpt lat="49.83119" lon="4.79213">
        <ele>287</ele>
        <time>2021-08-27T06:44:13.000Z</time>
      </trkpt>
      <trkpt lat="49.83121" lon="4.79214">
        <ele>287</ele>
        <time>2021-08-27T06:44:14.000Z</time>
      </trkpt>
      <trkpt lat="49.83123" lon="4.79215">
        <ele>287</ele>
        <time>2021-08-27T06:44:15.000Z</time>
      </trkpt>
      <trkpt lat="49.83125" lon="4.79215">
        <ele>287</ele>
        <time>2021-08-27T06:44:16.000Z</time>
      </trkpt>
      <trkpt lat="49.83127" lon="4.79216">
        <ele>288</ele>
        <time>2021-08-27T06:44:17.000Z</time>
      </trkpt>
      <trkpt lat="49.83129" lon="4.79216">
        <ele>288</ele>
        <time>2021-08-27T06:44:18.000Z</time>
      </trkpt>
      <trkpt lat="49.83131" lon="4.79217">
        <ele>288</ele>
        <time>2021-08-27T06:44:19.000Z</time>
      </trkpt>
      <trkpt lat="49.83133" lon="4.79218">
        <ele>288</ele>
        <time>2021-08-27T06:44:20.000Z</time>
      </trkpt>
      <trkpt lat="49.83134" lon="4.79219">
        <ele>288</ele>
        <time>2021-08-27T06:44:21.000Z</time>
      </trkpt>
      <trkpt lat="49.83136" lon="4.7922">
        <ele>289</ele>
        <time>2021-08-27T06:44:22.000Z</time>
      </trkpt>
      <trkpt lat="49.83137" lon="4.79221">
        <ele>289</ele>
        <time>2021-08-27T06:44:23.000Z</time>
      </trkpt>
      <trkpt lat="49.83138" lon="4.79221">
        <ele>289</ele>
        <time>2021-08-27T06:44:24.000Z</time>
      </trkpt>
      <trkpt lat="49.8314" lon="4.79221">
        <ele>289</ele>
        <time>2021-08-27T06:44:25.000Z</time>
      </trkpt>
      <trkpt lat="49.83142" lon="4.79221">
        <ele>289</ele>
        <time>2021-08-27T06:44:26.000Z</time>
      </trkpt>
      <trkpt lat="49.83145" lon="4.79221">
        <ele>289</ele>
        <time>2021-08-27T06:44:27.000Z</time>
      </trkpt>
      <trkpt lat="49.83147" lon="4.79221">
        <ele>289</ele>
        <time>2021-08-27T06:44:28.000Z</time>
      </trkpt>
      <trkpt lat="49.83149" lon="4.79222">
        <ele>289</ele>
        <time>2021-08-27T06:44:29.000Z</time>
      </trkpt>
      <trkpt lat="49.8315" lon="4.79223">
        <ele>290</ele>
        <time>2021-08-27T06:44:30.000Z</time>
      </trkpt>
      <trkpt lat="49.83153" lon="4.79223">
        <ele>290</ele>
        <time>2021-08-27T06:44:31.000Z</time>
      </trkpt>
      <trkpt lat="49.83155" lon="4.79223">
        <ele>290</ele>
        <time>2021-08-27T06:44:32.000Z</time>
      </trkpt>
      <trkpt lat="49.83156" lon="4.79223">
        <ele>290</ele>
        <time>2021-08-27T06:44:33.000Z</time>
      </trkpt>
      <trkpt lat="49.83158" lon="4.79223">
        <ele>290</ele>
        <time>2021-08-27T06:44:34.000Z</time>
      </trkpt>
      <trkpt lat="49.83159" lon="4.79223">
        <ele>291</ele>
        <time>2021-08-27T06:44:35.000Z</time>
      </trkpt>
      <trkpt lat="49.83161" lon="4.79222">
        <ele>291</ele>
        <time>2021-08-27T06:44:36.000Z</time>
      </trkpt>
      <trkpt lat="49.83163" lon="4.79222">
        <ele>291</ele>
        <time>2021-08-27T06:44:37.000Z</time>
      </trkpt>
      <trkpt lat="49.83165" lon="4.79221">
        <ele>291</ele>
        <time>2021-08-27T06:44:38.000Z</time>
      </trkpt>
      <trkpt lat="49.83167" lon="4.79221">
        <ele>292</ele>
        <time>2021-08-27T06:44:39.000Z</time>
      </trkpt>
      <trkpt lat="49.83169" lon="4.7922">
        <ele>292</ele>
        <time>2021-08-27T06:44:40.000Z</time>
      </trkpt>
      <trkpt lat="49.83171" lon="4.79219">
        <ele>292</ele>
        <time>2021-08-27T06:44:41.000Z</time>
      </trkpt>
      <trkpt lat="49.83173" lon="4.79218">
        <ele>292</ele>
        <time>2021-08-27T06:44:42.000Z</time>
      </trkpt>
      <trkpt lat="49.83175" lon="4.79218">
        <ele>293</ele>
        <time>2021-08-27T06:44:43.000Z</time>
      </trkpt>
      <trkpt lat="49.83177" lon="4.79217">
        <ele>293</ele>
        <time>2021-08-27T06:44:44.000Z</time>
      </trkpt>
      <trkpt lat="49.83178" lon="4.79216">
        <ele>293</ele>
        <time>2021-08-27T06:44:45.000Z</time>
      </trkpt>
      <trkpt lat="49.8318" lon="4.79214">
        <ele>293</ele>
        <time>2021-08-27T06:44:46.000Z</time>
      </trkpt>
      <trkpt lat="49.83181" lon="4.79212">
        <ele>293</ele>
        <time>2021-08-27T06:44:47.000Z</time>
      </trkpt>
      <trkpt lat="49.83182" lon="4.7921">
        <ele>293</ele>
        <time>2021-08-27T06:44:48.000Z</time>
      </trkpt>
      <trkpt lat="49.83184" lon="4.79208">
        <ele>293</ele>
        <time>2021-08-27T06:44:49.000Z</time>
      </trkpt>
      <trkpt lat="49.83186" lon="4.79206">
        <ele>293</ele>
        <time>2021-08-27T06:44:50.000Z</time>
      </trkpt>
      <trkpt lat="49.83188" lon="4.79204">
        <ele>293</ele>
        <time>2021-08-27T06:44:51.000Z</time>
      </trkpt>
      <trkpt lat="49.8319" lon="4.79202">
        <ele>293</ele>
        <time>2021-08-27T06:44:52.000Z</time>
      </trkpt>
      <trkpt lat="49.83192" lon="4.79199">
        <ele>293</ele>
        <time>2021-08-27T06:44:53.000Z</time>
      </trkpt>
      <trkpt lat="49.83193" lon="4.79197">
        <ele>293</ele>
        <time>2021-08-27T06:44:54.000Z</time>
      </trkpt>
      <trkpt lat="49.83195" lon="4.79194">
        <ele>293</ele>
        <time>2021-08-27T06:44:55.000Z</time>
      </trkpt>
      <trkpt lat="49.83196" lon="4.79192">
        <ele>293</ele>
        <time>2021-08-27T06:44:56.000Z</time>
      </trkpt>
      <trkpt lat="49.83197" lon="4.79189">
        <ele>293</ele>
        <time>2021-08-27T06:44:57.000Z</time>
      </trkpt>
      <trkpt lat="49.83198" lon="4.79186">
        <ele>293</ele>
        <time>2021-08-27T06:44:58.000Z</time>
      </trkpt>
      <trkpt lat="49.83199" lon="4.79183">
        <ele>293</ele>
        <time>2021-08-27T06:44:59.000Z</time>
      </trkpt>
      <trkpt lat="49.83199" lon="4.7918">
        <ele>293</ele>
        <time>2021-08-27T06:45:00.000Z</time>
      </trkpt>
      <trkpt lat="49.832" lon="4.79177">
        <ele>293</ele>
        <time>2021-08-27T06:45:01.000Z</time>
      </trkpt>
      <trkpt lat="49.832" lon="4.79174">
        <ele>293</ele>
        <time>2021-08-27T06:45:02.000Z</time>
      </trkpt>
      <trkpt lat="49.83201" lon="4.7917">
        <ele>294</ele>
        <time>2021-08-27T06:45:03.000Z</time>
      </trkpt>
      <trkpt lat="49.83201" lon="4.79167">
        <ele>294</ele>
        <time>2021-08-27T06:45:04.000Z</time>
      </trkpt>
      <trkpt lat="49.83202" lon="4.79165">
        <ele>294</ele>
        <time>2021-08-27T06:45:05.000Z</time>
      </trkpt>
      <trkpt lat="49.83202" lon="4.79162">
        <ele>294</ele>
        <time>2021-08-27T06:45:06.000Z</time>
      </trkpt>
      <trkpt lat="49.83203" lon="4.79159">
        <ele>294</ele>
        <time>2021-08-27T06:45:07.000Z</time>
      </trkpt>
      <trkpt lat="49.83204" lon="4.79156">
        <ele>294</ele>
        <time>2021-08-27T06:45:08.000Z</time>
      </trkpt>
      <trkpt lat="49.83205" lon="4.79153">
        <ele>294</ele>
        <time>2021-08-27T06:45:09.000Z</time>
      </trkpt>
      <trkpt lat="49.83206" lon="4.79151">
        <ele>294</ele>
        <time>2021-08-27T06:45:10.000Z</time>
      </trkpt>
      <trkpt lat="49.83206" lon="4.79148">
        <ele>294</ele>
        <time>2021-08-27T06:45:11.000Z</time>
      </trkpt>
      <trkpt lat="49.83207" lon="4.79145">
        <ele>294</ele>
        <time>2021-08-27T06:45:12.000Z</time>
      </trkpt>
      <trkpt lat="49.83208" lon="4.79142">
        <ele>294</ele>
        <time>2021-08-27T06:45:13.000Z</time>
      </trkpt>
      <trkpt lat="49.83208" lon="4.79138">
        <ele>294</ele>
        <time>2021-08-27T06:45:14.000Z</time>
      </trkpt>
      <trkpt lat="49.83208" lon="4.79136">
        <ele>294</ele>
        <time>2021-08-27T06:45:15.000Z</time>
      </trkpt>
      <trkpt lat="49.8321" lon="4.79133">
        <ele>295</ele>
        <time>2021-08-27T06:45:16.000Z</time>
      </trkpt>
      <trkpt lat="49.83211" lon="4.79131">
        <ele>295</ele>
        <time>2021-08-27T06:45:17.000Z</time>
      </trkpt>
      <trkpt lat="49.83213" lon="4.79128">
        <ele>295</ele>
        <time>2021-08-27T06:45:18.000Z</time>
      </trkpt>
      <trkpt lat="49.83214" lon="4.79126">
        <ele>295</ele>
        <time>2021-08-27T06:45:19.000Z</time>
      </trkpt>
      <trkpt lat="49.83215" lon="4.79123">
        <ele>295</ele>
        <time>2021-08-27T06:45:20.000Z</time>
      </trkpt>
      <trkpt lat="49.83216" lon="4.7912">
        <ele>295</ele>
        <time>2021-08-27T06:45:21.000Z</time>
      </trkpt>
      <trkpt lat="49.83218" lon="4.79117">
        <ele>296</ele>
        <time>2021-08-27T06:45:22.000Z</time>
      </trkpt>
      <trkpt lat="49.83219" lon="4.79114">
        <ele>296</ele>
        <time>2021-08-27T06:45:23.000Z</time>
      </trkpt>
      <trkpt lat="49.8322" lon="4.79111">
        <ele>296</ele>
        <time>2021-08-27T06:45:24.000Z</time>
      </trkpt>
      <trkpt lat="49.83222" lon="4.79108">
        <ele>296</ele>
        <time>2021-08-27T06:45:25.000Z</time>
      </trkpt>
      <trkpt lat="49.83224" lon="4.79105">
        <ele>296</ele>
        <time>2021-08-27T06:45:26.000Z</time>
      </trkpt>
      <trkpt lat="49.83225" lon="4.79102">
        <ele>297</ele>
        <time>2021-08-27T06:45:27.000Z</time>
      </trkpt>
      <trkpt lat="49.83227" lon="4.79099">
        <ele>297</ele>
        <time>2021-08-27T06:45:28.000Z</time>
      </trkpt>
      <trkpt lat="49.83229" lon="4.79097">
        <ele>297</ele>
        <time>2021-08-27T06:45:29.000Z</time>
      </trkpt>
      <trkpt lat="49.83231" lon="4.79095">
        <ele>297</ele>
        <time>2021-08-27T06:45:30.000Z</time>
      </trkpt>
      <trkpt lat="49.83234" lon="4.79093">
        <ele>297</ele>
        <time>2021-08-27T06:45:31.000Z</time>
      </trkpt>
      <trkpt lat="49.83236" lon="4.79091">
        <ele>298</ele>
        <time>2021-08-27T06:45:32.000Z</time>
      </trkpt>
      <trkpt lat="49.83239" lon="4.79089">
        <ele>298</ele>
        <time>2021-08-27T06:45:33.000Z</time>
      </trkpt>
      <trkpt lat="49.83242" lon="4.79088">
        <ele>298</ele>
        <time>2021-08-27T06:45:34.000Z</time>
      </trkpt>
      <trkpt lat="49.83246" lon="4.79087">
        <ele>298</ele>
        <time>2021-08-27T06:45:35.000Z</time>
      </trkpt>
      <trkpt lat="49.83249" lon="4.79086">
        <ele>298</ele>
        <time>2021-08-27T06:45:36.000Z</time>
      </trkpt>
      <trkpt lat="49.83253" lon="4.79087">
        <ele>298</ele>
        <time>2021-08-27T06:45:37.000Z</time>
      </trkpt>
      <trkpt lat="49.83256" lon="4.79087">
        <ele>299</ele>
        <time>2021-08-27T06:45:38.000Z</time>
      </trkpt>
      <trkpt lat="49.8326" lon="4.79088">
        <ele>299</ele>
        <time>2021-08-27T06:45:39.000Z</time>
      </trkpt>
      <trkpt lat="49.83264" lon="4.79089">
        <ele>299</ele>
        <time>2021-08-27T06:45:40.000Z</time>
      </trkpt>
      <trkpt lat="49.83268" lon="4.7909">
        <ele>299</ele>
        <time>2021-08-27T06:45:41.000Z</time>
      </trkpt>
      <trkpt lat="49.83273" lon="4.79091">
        <ele>299</ele>
        <time>2021-08-27T06:45:42.000Z</time>
      </trkpt>
      <trkpt lat="49.83277" lon="4.79091">
        <ele>300</ele>
        <time>2021-08-27T06:45:43.000Z</time>
      </trkpt>
      <trkpt lat="49.83282" lon="4.7909">
        <ele>300</ele>
        <time>2021-08-27T06:45:44.000Z</time>
      </trkpt>
      <trkpt lat="49.83288" lon="4.79089">
        <ele>300</ele>
        <time>2021-08-27T06:45:45.000Z</time>
      </trkpt>
      <trkpt lat="49.83293" lon="4.79087">
        <ele>300</ele>
        <time>2021-08-27T06:45:46.000Z</time>
      </trkpt>
      <trkpt lat="49.83299" lon="4.79085">
        <ele>300</ele>
        <time>2021-08-27T06:45:47.000Z</time>
      </trkpt>
      <trkpt lat="49.83305" lon="4.79081">
        <ele>300</ele>
        <time>2021-08-27T06:45:48.000Z</time>
      </trkpt>
      <trkpt lat="49.83311" lon="4.79076">
        <ele>300</ele>
        <time>2021-08-27T06:45:49.000Z</time>
      </trkpt>
      <trkpt lat="49.83317" lon="4.7907">
        <ele>300</ele>
        <time>2021-08-27T06:45:50.000Z</time>
      </trkpt>
      <trkpt lat="49.83323" lon="4.79063">
        <ele>300</ele>
        <time>2021-08-27T06:45:51.000Z</time>
      </trkpt>
      <trkpt lat="49.83329" lon="4.79057">
        <ele>299</ele>
        <time>2021-08-27T06:45:52.000Z</time>
      </trkpt>
      <trkpt lat="49.83334" lon="4.7905">
        <ele>299</ele>
        <time>2021-08-27T06:45:53.000Z</time>
      </trkpt>
      <trkpt lat="49.83339" lon="4.79041">
        <ele>299</ele>
        <time>2021-08-27T06:45:54.000Z</time>
      </trkpt>
      <trkpt lat="49.83344" lon="4.79032">
        <ele>298</ele>
        <time>2021-08-27T06:45:55.000Z</time>
      </trkpt>
      <trkpt lat="49.83348" lon="4.79023">
        <ele>298</ele>
        <time>2021-08-27T06:45:56.000Z</time>
      </trkpt>
      <trkpt lat="49.83351" lon="4.79014">
        <ele>298</ele>
        <time>2021-08-27T06:45:57.000Z</time>
      </trkpt>
      <trkpt lat="49.83354" lon="4.79005">
        <ele>298</ele>
        <time>2021-08-27T06:45:58.000Z</time>
      </trkpt>
      <trkpt lat="49.83357" lon="4.78997">
        <ele>297</ele>
        <time>2021-08-27T06:45:59.000Z</time>
      </trkpt>
      <trkpt lat="49.83361" lon="4.7899">
        <ele>297</ele>
        <time>2021-08-27T06:46:00.000Z</time>
      </trkpt>
      <trkpt lat="49.83364" lon="4.78982">
        <ele>297</ele>
        <time>2021-08-27T06:46:01.000Z</time>
      </trkpt>
      <trkpt lat="49.83367" lon="4.78974">
        <ele>297</ele>
        <time>2021-08-27T06:46:02.000Z</time>
      </trkpt>
      <trkpt lat="49.8337" lon="4.78966">
        <ele>297</ele>
        <time>2021-08-27T06:46:03.000Z</time>
      </trkpt>
      <trkpt lat="49.83373" lon="4.78959">
        <ele>297</ele>
        <time>2021-08-27T06:46:04.000Z</time>
      </trkpt>
      <trkpt lat="49.83376" lon="4.78951">
        <ele>297</ele>
        <time>2021-08-27T06:46:05.000Z</time>
      </trkpt>
      <trkpt lat="49.83379" lon="4.78944">
        <ele>296</ele>
        <time>2021-08-27T06:46:06.000Z</time>
      </trkpt>
      <trkpt lat="49.83383" lon="4.78937">
        <ele>296</ele>
        <time>2021-08-27T06:46:07.000Z</time>
      </trkpt>
      <trkpt lat="49.83387" lon="4.78931">
        <ele>296</ele>
        <time>2021-08-27T06:46:08.000Z</time>
      </trkpt>
      <trkpt lat="49.83391" lon="4.78925">
        <ele>296</ele>
        <time>2021-08-27T06:46:09.000Z</time>
      </trkpt>
      <trkpt lat="49.83395" lon="4.7892">
        <ele>296</ele>
        <time>2021-08-27T06:46:10.000Z</time>
      </trkpt>
      <trkpt lat="49.83399" lon="4.78916">
        <ele>296</ele>
        <time>2021-08-27T06:46:11.000Z</time>
      </trkpt>
      <trkpt lat="49.83403" lon="4.78913">
        <ele>296</ele>
        <time>2021-08-27T06:46:12.000Z</time>
      </trkpt>
      <trkpt lat="49.83406" lon="4.7891">
        <ele>296</ele>
        <time>2021-08-27T06:46:13.000Z</time>
      </trkpt>
      <trkpt lat="49.83409" lon="4.78908">
        <ele>296</ele>
        <time>2021-08-27T06:46:14.000Z</time>
      </trkpt>
      <trkpt lat="49.83412" lon="4.78906">
        <ele>296</ele>
        <time>2021-08-27T06:46:15.000Z</time>
      </trkpt>
      <trkpt lat="49.83415" lon="4.78903">
        <ele>296</ele>
        <time>2021-08-27T06:46:16.000Z</time>
      </trkpt>
      <trkpt lat="49.83418" lon="4.78901">
        <ele>296</ele>
        <time>2021-08-27T06:46:17.000Z</time>
      </trkpt>
      <trkpt lat="49.8342" lon="4.78899">
        <ele>296</ele>
        <time>2021-08-27T06:46:18.000Z</time>
      </trkpt>
      <trkpt lat="49.83423" lon="4.78897">
        <ele>296</ele>
        <time>2021-08-27T06:46:19.000Z</time>
      </trkpt>
      <trkpt lat="49.83425" lon="4.78896">
        <ele>296</ele>
        <time>2021-08-27T06:46:20.000Z</time>
      </trkpt>
      <trkpt lat="49.83428" lon="4.78894">
        <ele>296</ele>
        <time>2021-08-27T06:46:21.000Z</time>
      </trkpt>
      <trkpt lat="49.83432" lon="4.78893">
        <ele>296</ele>
        <time>2021-08-27T06:46:22.000Z</time>
      </trkpt>
      <trkpt lat="49.83436" lon="4.78891">
        <ele>296</ele>
        <time>2021-08-27T06:46:23.000Z</time>
      </trkpt>
      <trkpt lat="49.83439" lon="4.7889">
        <ele>297</ele>
        <time>2021-08-27T06:46:24.000Z</time>
      </trkpt>
      <trkpt lat="49.83442" lon="4.78888">
        <ele>297</ele>
        <time>2021-08-27T06:46:25.000Z</time>
      </trkpt>
      <trkpt lat="49.83446" lon="4.78887">
        <ele>297</ele>
        <time>2021-08-27T06:46:26.000Z</time>
      </trkpt>
      <trkpt lat="49.8345" lon="4.78885">
        <ele>297</ele>
        <time>2021-08-27T06:46:27.000Z</time>
      </trkpt>
      <trkpt lat="49.83453" lon="4.78884">
        <ele>297</ele>
        <time>2021-08-27T06:46:28.000Z</time>
      </trkpt>
      <trkpt lat="49.83456" lon="4.78882">
        <ele>297</ele>
        <time>2021-08-27T06:46:29.000Z</time>
      </trkpt>
      <trkpt lat="49.83459" lon="4.78879">
        <ele>297</ele>
        <time>2021-08-27T06:46:30.000Z</time>
      </trkpt>
      <trkpt lat="49.83463" lon="4.78875">
        <ele>297</ele>
        <time>2021-08-27T06:46:31.000Z</time>
      </trkpt>
      <trkpt lat="49.83466" lon="4.78871">
        <ele>297</ele>
        <time>2021-08-27T06:46:32.000Z</time>
      </trkpt>
      <trkpt lat="49.83469" lon="4.78867">
        <ele>297</ele>
        <time>2021-08-27T06:46:33.000Z</time>
      </trkpt>
      <trkpt lat="49.83471" lon="4.78862">
        <ele>297</ele>
        <time>2021-08-27T06:46:34.000Z</time>
      </trkpt>
      <trkpt lat="49.83473" lon="4.78856">
        <ele>297</ele>
        <time>2021-08-27T06:46:35.000Z</time>
      </trkpt>
      <trkpt lat="49.83473" lon="4.7885">
        <ele>297</ele>
        <time>2021-08-27T06:46:36.000Z</time>
      </trkpt>
      <trkpt lat="49.83473" lon="4.78844">
        <ele>297</ele>
        <time>2021-08-27T06:46:37.000Z</time>
      </trkpt>
      <trkpt lat="49.83473" lon="4.78838">
        <ele>297</ele>
        <time>2021-08-27T06:46:38.000Z</time>
      </trkpt>
      <trkpt lat="49.83473" lon="4.78833">
        <ele>297</ele>
        <time>2021-08-27T06:46:39.000Z</time>
      </trkpt>
      <trkpt lat="49.83474" lon="4.78826">
        <ele>297</ele>
        <time>2021-08-27T06:46:40.000Z</time>
      </trkpt>
      <trkpt lat="49.83476" lon="4.78821">
        <ele>297</ele>
        <time>2021-08-27T06:46:41.000Z</time>
      </trkpt>
      <trkpt lat="49.83479" lon="4.78816">
        <ele>297</ele>
        <time>2021-08-27T06:46:42.000Z</time>
      </trkpt>
      <trkpt lat="49.83482" lon="4.78813">
        <ele>297</ele>
        <time>2021-08-27T06:46:43.000Z</time>
      </trkpt>
      <trkpt lat="49.83487" lon="4.78809">
        <ele>297</ele>
        <time>2021-08-27T06:46:44.000Z</time>
      </trkpt>
      <trkpt lat="49.83491" lon="4.78807">
        <ele>297</ele>
        <time>2021-08-27T06:46:45.000Z</time>
      </trkpt>
      <trkpt lat="49.83496" lon="4.78804">
        <ele>297</ele>
        <time>2021-08-27T06:46:46.000Z</time>
      </trkpt>
      <trkpt lat="49.835" lon="4.788">
        <ele>297</ele>
        <time>2021-08-27T06:46:47.000Z</time>
      </trkpt>
      <trkpt lat="49.83502" lon="4.78795">
        <ele>297</ele>
        <time>2021-08-27T06:46:48.000Z</time>
      </trkpt>
      <trkpt lat="49.83504" lon="4.78789">
        <ele>297</ele>
        <time>2021-08-27T06:46:49.000Z</time>
      </trkpt>
      <trkpt lat="49.83505" lon="4.78782">
        <ele>297</ele>
        <time>2021-08-27T06:46:50.000Z</time>
      </trkpt>
      <trkpt lat="49.83505" lon="4.78776">
        <ele>297</ele>
        <time>2021-08-27T06:46:51.000Z</time>
      </trkpt>
      <trkpt lat="49.83505" lon="4.7877">
        <ele>297</ele>
        <time>2021-08-27T06:46:52.000Z</time>
      </trkpt>
      <trkpt lat="49.83504" lon="4.78764">
        <ele>297</ele>
        <time>2021-08-27T06:46:53.000Z</time>
      </trkpt>
      <trkpt lat="49.83504" lon="4.78758">
        <ele>297</ele>
        <time>2021-08-27T06:46:54.000Z</time>
      </trkpt>
      <trkpt lat="49.83503" lon="4.78753">
        <ele>297</ele>
        <time>2021-08-27T06:46:55.000Z</time>
      </trkpt>
      <trkpt lat="49.83503" lon="4.78747">
        <ele>296</ele>
        <time>2021-08-27T06:46:56.000Z</time>
      </trkpt>
      <trkpt lat="49.83502" lon="4.78742">
        <ele>296</ele>
        <time>2021-08-27T06:46:57.000Z</time>
      </trkpt>
      <trkpt lat="49.83501" lon="4.78736">
        <ele>296</ele>
        <time>2021-08-27T06:46:58.000Z</time>
      </trkpt>
      <trkpt lat="49.83499" lon="4.78731">
        <ele>296</ele>
        <time>2021-08-27T06:46:59.000Z</time>
      </trkpt>
      <trkpt lat="49.83498" lon="4.78725">
        <ele>296</ele>
        <time>2021-08-27T06:47:00.000Z</time>
      </trkpt>
      <trkpt lat="49.83497" lon="4.78718">
        <ele>296</ele>
        <time>2021-08-27T06:47:01.000Z</time>
      </trkpt>
      <trkpt lat="49.83497" lon="4.78712">
        <ele>295</ele>
        <time>2021-08-27T06:47:02.000Z</time>
      </trkpt>
      <trkpt lat="49.83497" lon="4.78705">
        <ele>295</ele>
        <time>2021-08-27T06:47:03.000Z</time>
      </trkpt>
      <trkpt lat="49.83498" lon="4.78699">
        <ele>295</ele>
        <time>2021-08-27T06:47:04.000Z</time>
      </trkpt>
      <trkpt lat="49.83498" lon="4.78693">
        <ele>295</ele>
        <time>2021-08-27T06:47:05.000Z</time>
      </trkpt>
      <trkpt lat="49.83498" lon="4.78687">
        <ele>295</ele>
        <time>2021-08-27T06:47:06.000Z</time>
      </trkpt>
      <trkpt lat="49.83498" lon="4.7868">
        <ele>294</ele>
        <time>2021-08-27T06:47:07.000Z</time>
      </trkpt>
      <trkpt lat="49.83498" lon="4.78674">
        <ele>294</ele>
        <time>2021-08-27T06:47:08.000Z</time>
      </trkpt>
      <trkpt lat="49.83497" lon="4.78667">
        <ele>294</ele>
        <time>2021-08-27T06:47:09.000Z</time>
      </trkpt>
      <trkpt lat="49.83497" lon="4.7866">
        <ele>294</ele>
        <time>2021-08-27T06:47:10.000Z</time>
      </trkpt>
      <trkpt lat="49.83496" lon="4.78654">
        <ele>294</ele>
        <time>2021-08-27T06:47:11.000Z</time>
      </trkpt>
      <trkpt lat="49.83495" lon="4.78647">
        <ele>294</ele>
        <time>2021-08-27T06:47:12.000Z</time>
      </trkpt>
      <trkpt lat="49.83495" lon="4.7864">
        <ele>293</ele>
        <time>2021-08-27T06:47:13.000Z</time>
      </trkpt>
      <trkpt lat="49.83495" lon="4.78633">
        <ele>293</ele>
        <time>2021-08-27T06:47:14.000Z</time>
      </trkpt>
      <trkpt lat="49.83494" lon="4.78626">
        <ele>293</ele>
        <time>2021-08-27T06:47:15.000Z</time>
      </trkpt>
      <trkpt lat="49.83494" lon="4.78619">
        <ele>293</ele>
        <time>2021-08-27T06:47:16.000Z</time>
      </trkpt>
      <trkpt lat="49.83493" lon="4.78612">
        <ele>293</ele>
        <time>2021-08-27T06:47:17.000Z</time>
      </trkpt>
      <trkpt lat="49.83493" lon="4.78606">
        <ele>293</ele>
        <time>2021-08-27T06:47:18.000Z</time>
      </trkpt>
      <trkpt lat="49.83492" lon="4.78599">
        <ele>293</ele>
        <time>2021-08-27T06:47:19.000Z</time>
      </trkpt>
      <trkpt lat="49.8349" lon="4.78592">
        <ele>293</ele>
        <time>2021-08-27T06:47:20.000Z</time>
      </trkpt>
      <trkpt lat="49.83489" lon="4.78585">
        <ele>293</ele>
        <time>2021-08-27T06:47:21.000Z</time>
      </trkpt>
      <trkpt lat="49.83487" lon="4.78579">
        <ele>293</ele>
        <time>2021-08-27T06:47:22.000Z</time>
      </trkpt>
      <trkpt lat="49.83486" lon="4.78575">
        <ele>293</ele>
        <time>2021-08-27T06:47:23.000Z</time>
      </trkpt>
      <trkpt lat="49.83486" lon="4.78572">
        <ele>293</ele>
        <time>2021-08-27T06:47:24.000Z</time>
      </trkpt>
      <trkpt lat="49.83486" lon="4.78569">
        <ele>293</ele>
        <time>2021-08-27T06:47:25.000Z</time>
      </trkpt>
      <trkpt lat="49.83488" lon="4.78568">
        <ele>292</ele>
        <time>2021-08-27T06:47:26.000Z</time>
      </trkpt>
      <trkpt lat="49.83489" lon="4.78567">
        <ele>292</ele>
        <time>2021-08-27T06:47:27.000Z</time>
      </trkpt>
      <trkpt lat="49.83491" lon="4.78566">
        <ele>292</ele>
        <time>2021-08-27T06:47:28.000Z</time>
      </trkpt>
      <trkpt lat="49.83492" lon="4.78566">
        <ele>292</ele>
        <time>2021-08-27T06:47:29.000Z</time>
      </trkpt>
      <trkpt lat="49.83494" lon="4.78565">
        <ele>292</ele>
        <time>2021-08-27T06:47:30.000Z</time>
      </trkpt>
      <trkpt lat="49.83496" lon="4.78564">
        <ele>292</ele>
        <time>2021-08-27T06:47:31.000Z</time>
      </trkpt>
      <trkpt lat="49.83498" lon="4.78563">
        <ele>292</ele>
        <time>2021-08-27T06:47:32.000Z</time>
      </trkpt>
      <trkpt lat="49.835" lon="4.78563">
        <ele>292</ele>
        <time>2021-08-27T06:47:33.000Z</time>
      </trkpt>
      <trkpt lat="49.83502" lon="4.78563">
        <ele>292</ele>
        <time>2021-08-27T06:47:34.000Z</time>
      </trkpt>
      <trkpt lat="49.83504" lon="4.78562">
        <ele>292</ele>
        <time>2021-08-27T06:47:35.000Z</time>
      </trkpt>
      <trkpt lat="49.83506" lon="4.78561">
        <ele>292</ele>
        <time>2021-08-27T06:47:36.000Z</time>
      </trkpt>
      <trkpt lat="49.83509" lon="4.78561">
        <ele>292</ele>
        <time>2021-08-27T06:47:37.000Z</time>
      </trkpt>
      <trkpt lat="49.8351" lon="4.78559">
        <ele>292</ele>
        <time>2021-08-27T06:47:38.000Z</time>
      </trkpt>
      <trkpt lat="49.83512" lon="4.78558">
        <ele>293</ele>
        <time>2021-08-27T06:47:39.000Z</time>
      </trkpt>
      <trkpt lat="49.83514" lon="4.78556">
        <ele>293</ele>
        <time>2021-08-27T06:47:40.000Z</time>
      </trkpt>
      <trkpt lat="49.83516" lon="4.78554">
        <ele>293</ele>
        <time>2021-08-27T06:47:41.000Z</time>
      </trkpt>
      <trkpt lat="49.83518" lon="4.78552">
        <ele>293</ele>
        <time>2021-08-27T06:47:42.000Z</time>
      </trkpt>
      <trkpt lat="49.8352" lon="4.7855">
        <ele>293</ele>
        <time>2021-08-27T06:47:43.000Z</time>
      </trkpt>
      <trkpt lat="49.83522" lon="4.78548">
        <ele>293</ele>
        <time>2021-08-27T06:47:44.000Z</time>
      </trkpt>
      <trkpt lat="49.83525" lon="4.78546">
        <ele>293</ele>
        <time>2021-08-27T06:47:45.000Z</time>
      </trkpt>
      <trkpt lat="49.83529" lon="4.78544">
        <ele>293</ele>
        <time>2021-08-27T06:47:46.000Z</time>
      </trkpt>
      <trkpt lat="49.83533" lon="4.78541">
        <ele>293</ele>
        <time>2021-08-27T06:47:47.000Z</time>
      </trkpt>
      <trkpt lat="49.83538" lon="4.78539">
        <ele>293</ele>
        <time>2021-08-27T06:47:48.000Z</time>
      </trkpt>
      <trkpt lat="49.83542" lon="4.78536">
        <ele>294</ele>
        <time>2021-08-27T06:47:49.000Z</time>
      </trkpt>
      <trkpt lat="49.83547" lon="4.78534">
        <ele>294</ele>
        <time>2021-08-27T06:47:50.000Z</time>
      </trkpt>
      <trkpt lat="49.83551" lon="4.78533">
        <ele>294</ele>
        <time>2021-08-27T06:47:51.000Z</time>
      </trkpt>
      <trkpt lat="49.83554" lon="4.78532">
        <ele>294</ele>
        <time>2021-08-27T06:47:52.000Z</time>
      </trkpt>
      <trkpt lat="49.83558" lon="4.78532">
        <ele>294</ele>
        <time>2021-08-27T06:47:53.000Z</time>
      </trkpt>
      <trkpt lat="49.8356" lon="4.78531">
        <ele>294</ele>
        <time>2021-08-27T06:47:54.000Z</time>
      </trkpt>
      <trkpt lat="49.83563" lon="4.7853">
        <ele>295</ele>
        <time>2021-08-27T06:47:55.000Z</time>
      </trkpt>
      <trkpt lat="49.83566" lon="4.7853">
        <ele>295</ele>
        <time>2021-08-27T06:47:56.000Z</time>
      </trkpt>
      <trkpt lat="49.83569" lon="4.78529">
        <ele>295</ele>
        <time>2021-08-27T06:47:57.000Z</time>
      </trkpt>
      <trkpt lat="49.83573" lon="4.78529">
        <ele>295</ele>
        <time>2021-08-27T06:47:58.000Z</time>
      </trkpt>
      <trkpt lat="49.83576" lon="4.78529">
        <ele>295</ele>
        <time>2021-08-27T06:47:59.000Z</time>
      </trkpt>
      <trkpt lat="49.8358" lon="4.78529">
        <ele>295</ele>
        <time>2021-08-27T06:48:00.000Z</time>
      </trkpt>
      <trkpt lat="49.83584" lon="4.78528">
        <ele>295</ele>
        <time>2021-08-27T06:48:01.000Z</time>
      </trkpt>
      <trkpt lat="49.83587" lon="4.78528">
        <ele>295</ele>
        <time>2021-08-27T06:48:02.000Z</time>
      </trkpt>
      <trkpt lat="49.8359" lon="4.78529">
        <ele>295</ele>
        <time>2021-08-27T06:48:03.000Z</time>
      </trkpt>
      <trkpt lat="49.83593" lon="4.78529">
        <ele>295</ele>
        <time>2021-08-27T06:48:04.000Z</time>
      </trkpt>
      <trkpt lat="49.83596" lon="4.78529">
        <ele>295</ele>
        <time>2021-08-27T06:48:05.000Z</time>
      </trkpt>
      <trkpt lat="49.83599" lon="4.78529">
        <ele>295</ele>
        <time>2021-08-27T06:48:06.000Z</time>
      </trkpt>
      <trkpt lat="49.83602" lon="4.7853">
        <ele>295</ele>
        <time>2021-08-27T06:48:07.000Z</time>
      </trkpt>
      <trkpt lat="49.83605" lon="4.7853">
        <ele>295</ele>
        <time>2021-08-27T06:48:08.000Z</time>
      </trkpt>
      <trkpt lat="49.83609" lon="4.7853">
        <ele>295</ele>
        <time>2021-08-27T06:48:09.000Z</time>
      </trkpt>
      <trkpt lat="49.83612" lon="4.7853">
        <ele>295</ele>
        <time>2021-08-27T06:48:10.000Z</time>
      </trkpt>
      <trkpt lat="49.83616" lon="4.78529">
        <ele>295</ele>
        <time>2021-08-27T06:48:11.000Z</time>
      </trkpt>
      <trkpt lat="49.83619" lon="4.78528">
        <ele>295</ele>
        <time>2021-08-27T06:48:12.000Z</time>
      </trkpt>
      <trkpt lat="49.83623" lon="4.78527">
        <ele>295</ele>
        <time>2021-08-27T06:48:13.000Z</time>
      </trkpt>
      <trkpt lat="49.83626" lon="4.78526">
        <ele>295</ele>
        <time>2021-08-27T06:48:14.000Z</time>
      </trkpt>
      <trkpt lat="49.83629" lon="4.78524">
        <ele>295</ele>
        <time>2021-08-27T06:48:15.000Z</time>
      </trkpt>
      <trkpt lat="49.83631" lon="4.78522">
        <ele>295</ele>
        <time>2021-08-27T06:48:16.000Z</time>
      </trkpt>
      <trkpt lat="49.83633" lon="4.78521">
        <ele>294</ele>
        <time>2021-08-27T06:48:17.000Z</time>
      </trkpt>
      <trkpt lat="49.83636" lon="4.7852">
        <ele>294</ele>
        <time>2021-08-27T06:48:18.000Z</time>
      </trkpt>
      <trkpt lat="49.8364" lon="4.7852">
        <ele>294</ele>
        <time>2021-08-27T06:48:19.000Z</time>
      </trkpt>
      <trkpt lat="49.83644" lon="4.78519">
        <ele>294</ele>
        <time>2021-08-27T06:48:20.000Z</time>
      </trkpt>
      <trkpt lat="49.83648" lon="4.78517">
        <ele>294</ele>
        <time>2021-08-27T06:48:21.000Z</time>
      </trkpt>
      <trkpt lat="49.83652" lon="4.78517">
        <ele>294</ele>
        <time>2021-08-27T06:48:22.000Z</time>
      </trkpt>
      <trkpt lat="49.83656" lon="4.78517">
        <ele>294</ele>
        <time>2021-08-27T06:48:23.000Z</time>
      </trkpt>
      <trkpt lat="49.8366" lon="4.78516">
        <ele>294</ele>
        <time>2021-08-27T06:48:24.000Z</time>
      </trkpt>
      <trkpt lat="49.83664" lon="4.78515">
        <ele>294</ele>
        <time>2021-08-27T06:48:25.000Z</time>
      </trkpt>
      <trkpt lat="49.83668" lon="4.78513">
        <ele>293</ele>
        <time>2021-08-27T06:48:26.000Z</time>
      </trkpt>
      <trkpt lat="49.83672" lon="4.78512">
        <ele>293</ele>
        <time>2021-08-27T06:48:27.000Z</time>
      </trkpt>
      <trkpt lat="49.83676" lon="4.78511">
        <ele>293</ele>
        <time>2021-08-27T06:48:28.000Z</time>
      </trkpt>
      <trkpt lat="49.8368" lon="4.7851">
        <ele>292</ele>
        <time>2021-08-27T06:48:29.000Z</time>
      </trkpt>
      <trkpt lat="49.83685" lon="4.7851">
        <ele>292</ele>
        <time>2021-08-27T06:48:30.000Z</time>
      </trkpt>
      <trkpt lat="49.8369" lon="4.7851">
        <ele>292</ele>
        <time>2021-08-27T06:48:31.000Z</time>
      </trkpt>
      <trkpt lat="49.83695" lon="4.7851">
        <ele>292</ele>
        <time>2021-08-27T06:48:32.000Z</time>
      </trkpt>
      <trkpt lat="49.837" lon="4.7851">
        <ele>291</ele>
        <time>2021-08-27T06:48:33.000Z</time>
      </trkpt>
      <trkpt lat="49.83704" lon="4.78509">
        <ele>291</ele>
        <time>2021-08-27T06:48:34.000Z</time>
      </trkpt>
      <trkpt lat="49.83708" lon="4.78509">
        <ele>291</ele>
        <time>2021-08-27T06:48:35.000Z</time>
      </trkpt>
      <trkpt lat="49.83712" lon="4.78508">
        <ele>290</ele>
        <time>2021-08-27T06:48:36.000Z</time>
      </trkpt>
      <trkpt lat="49.83717" lon="4.78508">
        <ele>290</ele>
        <time>2021-08-27T06:48:37.000Z</time>
      </trkpt>
      <trkpt lat="49.83721" lon="4.78507">
        <ele>290</ele>
        <time>2021-08-27T06:48:38.000Z</time>
      </trkpt>
      <trkpt lat="49.83727" lon="4.78507">
        <ele>290</ele>
        <time>2021-08-27T06:48:39.000Z</time>
      </trkpt>
      <trkpt lat="49.83733" lon="4.78505">
        <ele>289</ele>
        <time>2021-08-27T06:48:40.000Z</time>
      </trkpt>
      <trkpt lat="49.83739" lon="4.78504">
        <ele>289</ele>
        <time>2021-08-27T06:48:41.000Z</time>
      </trkpt>
      <trkpt lat="49.83745" lon="4.78501">
        <ele>289</ele>
        <time>2021-08-27T06:48:42.000Z</time>
      </trkpt>
      <trkpt lat="49.8375" lon="4.78498">
        <ele>289</ele>
        <time>2021-08-27T06:48:43.000Z</time>
      </trkpt>
      <trkpt lat="49.83754" lon="4.78495">
        <ele>288</ele>
        <time>2021-08-27T06:48:44.000Z</time>
      </trkpt>
      <trkpt lat="49.83758" lon="4.78492">
        <ele>288</ele>
        <time>2021-08-27T06:48:45.000Z</time>
      </trkpt>
      <trkpt lat="49.83762" lon="4.78491">
        <ele>288</ele>
        <time>2021-08-27T06:48:46.000Z</time>
      </trkpt>
      <trkpt lat="49.83767" lon="4.78489">
        <ele>288</ele>
        <time>2021-08-27T06:48:47.000Z</time>
      </trkpt>
      <trkpt lat="49.8377" lon="4.78487">
        <ele>287</ele>
        <time>2021-08-27T06:48:48.000Z</time>
      </trkpt>
      <trkpt lat="49.83774" lon="4.78485">
        <ele>287</ele>
        <time>2021-08-27T06:48:49.000Z</time>
      </trkpt>
      <trkpt lat="49.83776" lon="4.78483">
        <ele>287</ele>
        <time>2021-08-27T06:48:50.000Z</time>
      </trkpt>
      <trkpt lat="49.83778" lon="4.78482">
        <ele>287</ele>
        <time>2021-08-27T06:48:51.000Z</time>
      </trkpt>
      <trkpt lat="49.8378" lon="4.7848">
        <ele>286</ele>
        <time>2021-08-27T06:48:52.000Z</time>
      </trkpt>
      <trkpt lat="49.83782" lon="4.78479">
        <ele>286</ele>
        <time>2021-08-27T06:48:53.000Z</time>
      </trkpt>
      <trkpt lat="49.83785" lon="4.78477">
        <ele>285</ele>
        <time>2021-08-27T06:48:54.000Z</time>
      </trkpt>
      <trkpt lat="49.83787" lon="4.78476">
        <ele>285</ele>
        <time>2021-08-27T06:48:55.000Z</time>
      </trkpt>
      <trkpt lat="49.83789" lon="4.78476">
        <ele>284</ele>
        <time>2021-08-27T06:48:56.000Z</time>
      </trkpt>
      <trkpt lat="49.83791" lon="4.78475">
        <ele>283</ele>
        <time>2021-08-27T06:48:57.000Z</time>
      </trkpt>
      <trkpt lat="49.83794" lon="4.78473">
        <ele>283</ele>
        <time>2021-08-27T06:48:58.000Z</time>
      </trkpt>
      <trkpt lat="49.83799" lon="4.78473">
        <ele>282</ele>
        <time>2021-08-27T06:48:59.000Z</time>
      </trkpt>
      <trkpt lat="49.83803" lon="4.78472">
        <ele>282</ele>
        <time>2021-08-27T06:49:00.000Z</time>
      </trkpt>
      <trkpt lat="49.83809" lon="4.78471">
        <ele>282</ele>
        <time>2021-08-27T06:49:01.000Z</time>
      </trkpt>
      <trkpt lat="49.83814" lon="4.78471">
        <ele>281</ele>
        <time>2021-08-27T06:49:02.000Z</time>
      </trkpt>
      <trkpt lat="49.83821" lon="4.78471">
        <ele>281</ele>
        <time>2021-08-27T06:49:03.000Z</time>
      </trkpt>
      <trkpt lat="49.83828" lon="4.78472">
        <ele>280</ele>
        <time>2021-08-27T06:49:04.000Z</time>
      </trkpt>
      <trkpt lat="49.83834" lon="4.78472">
        <ele>280</ele>
        <time>2021-08-27T06:49:05.000Z</time>
      </trkpt>
      <trkpt lat="49.8384" lon="4.78472">
        <ele>280</ele>
        <time>2021-08-27T06:49:06.000Z</time>
      </trkpt>
      <trkpt lat="49.83845" lon="4.78474">
        <ele>279</ele>
        <time>2021-08-27T06:49:07.000Z</time>
      </trkpt>
      <trkpt lat="49.8385" lon="4.78475">
        <ele>279</ele>
        <time>2021-08-27T06:49:08.000Z</time>
      </trkpt>
      <trkpt lat="49.83854" lon="4.78476">
        <ele>279</ele>
        <time>2021-08-27T06:49:09.000Z</time>
      </trkpt>
      <trkpt lat="49.83859" lon="4.78476">
        <ele>278</ele>
        <time>2021-08-27T06:49:10.000Z</time>
      </trkpt>
      <trkpt lat="49.83862" lon="4.78477">
        <ele>278</ele>
        <time>2021-08-27T06:49:11.000Z</time>
      </trkpt>
      <trkpt lat="49.83865" lon="4.78477">
        <ele>278</ele>
        <time>2021-08-27T06:49:12.000Z</time>
      </trkpt>
      <trkpt lat="49.83868" lon="4.78478">
        <ele>277</ele>
        <time>2021-08-27T06:49:13.000Z</time>
      </trkpt>
      <trkpt lat="49.83871" lon="4.78479">
        <ele>277</ele>
        <time>2021-08-27T06:49:14.000Z</time>
      </trkpt>
      <trkpt lat="49.83875" lon="4.7848">
        <ele>277</ele>
        <time>2021-08-27T06:49:15.000Z</time>
      </trkpt>
      <trkpt lat="49.83878" lon="4.7848">
        <ele>277</ele>
        <time>2021-08-27T06:49:16.000Z</time>
      </trkpt>
      <trkpt lat="49.83883" lon="4.7848">
        <ele>277</ele>
        <time>2021-08-27T06:49:17.000Z</time>
      </trkpt>
      <trkpt lat="49.83887" lon="4.7848">
        <ele>276</ele>
        <time>2021-08-27T06:49:18.000Z</time>
      </trkpt>
      <trkpt lat="49.83892" lon="4.7848">
        <ele>276</ele>
        <time>2021-08-27T06:49:19.000Z</time>
      </trkpt>
      <trkpt lat="49.83896" lon="4.78481">
        <ele>276</ele>
        <time>2021-08-27T06:49:20.000Z</time>
      </trkpt>
      <trkpt lat="49.83901" lon="4.7848">
        <ele>276</ele>
        <time>2021-08-27T06:49:21.000Z</time>
      </trkpt>
      <trkpt lat="49.83906" lon="4.7848">
        <ele>276</ele>
        <time>2021-08-27T06:49:22.000Z</time>
      </trkpt>
      <trkpt lat="49.83911" lon="4.7848">
        <ele>276</ele>
        <time>2021-08-27T06:49:23.000Z</time>
      </trkpt>
      <trkpt lat="49.83916" lon="4.7848">
        <ele>276</ele>
        <time>2021-08-27T06:49:24.000Z</time>
      </trkpt>
      <trkpt lat="49.8392" lon="4.78478">
        <ele>275</ele>
        <time>2021-08-27T06:49:25.000Z</time>
      </trkpt>
      <trkpt lat="49.83925" lon="4.78477">
        <ele>275</ele>
        <time>2021-08-27T06:49:26.000Z</time>
      </trkpt>
      <trkpt lat="49.83929" lon="4.78475">
        <ele>275</ele>
        <time>2021-08-27T06:49:27.000Z</time>
      </trkpt>
      <trkpt lat="49.83933" lon="4.78475">
        <ele>275</ele>
        <time>2021-08-27T06:49:28.000Z</time>
      </trkpt>
      <trkpt lat="49.83938" lon="4.78475">
        <ele>275</ele>
        <time>2021-08-27T06:49:29.000Z</time>
      </trkpt>
      <trkpt lat="49.83942" lon="4.78474">
        <ele>274</ele>
        <time>2021-08-27T06:49:30.000Z</time>
      </trkpt>
      <trkpt lat="49.83947" lon="4.78474">
        <ele>274</ele>
        <time>2021-08-27T06:49:31.000Z</time>
      </trkpt>
      <trkpt lat="49.83951" lon="4.78473">
        <ele>274</ele>
        <time>2021-08-27T06:49:32.000Z</time>
      </trkpt>
      <trkpt lat="49.83956" lon="4.78473">
        <ele>274</ele>
        <time>2021-08-27T06:49:33.000Z</time>
      </trkpt>
      <trkpt lat="49.8396" lon="4.78474">
        <ele>274</ele>
        <time>2021-08-27T06:49:34.000Z</time>
      </trkpt>
      <trkpt lat="49.83964" lon="4.78475">
        <ele>274</ele>
        <time>2021-08-27T06:49:35.000Z</time>
      </trkpt>
      <trkpt lat="49.83969" lon="4.78475">
        <ele>273</ele>
        <time>2021-08-27T06:49:36.000Z</time>
      </trkpt>
      <trkpt lat="49.83973" lon="4.78475">
        <ele>273</ele>
        <time>2021-08-27T06:49:37.000Z</time>
      </trkpt>
      <trkpt lat="49.83978" lon="4.78476">
        <ele>273</ele>
        <time>2021-08-27T06:49:38.000Z</time>
      </trkpt>
      <trkpt lat="49.83982" lon="4.78476">
        <ele>273</ele>
        <time>2021-08-27T06:49:39.000Z</time>
      </trkpt>
      <trkpt lat="49.83986" lon="4.78477">
        <ele>273</ele>
        <time>2021-08-27T06:49:40.000Z</time>
      </trkpt>
      <trkpt lat="49.83991" lon="4.78478">
        <ele>272</ele>
        <time>2021-08-27T06:49:41.000Z</time>
      </trkpt>
      <trkpt lat="49.83995" lon="4.78478">
        <ele>272</ele>
        <time>2021-08-27T06:49:42.000Z</time>
      </trkpt>
      <trkpt lat="49.84" lon="4.78479">
        <ele>272</ele>
        <time>2021-08-27T06:49:43.000Z</time>
      </trkpt>
      <trkpt lat="49.84005" lon="4.7848">
        <ele>272</ele>
        <time>2021-08-27T06:49:44.000Z</time>
      </trkpt>
      <trkpt lat="49.84009" lon="4.78481">
        <ele>272</ele>
        <time>2021-08-27T06:49:45.000Z</time>
      </trkpt>
      <trkpt lat="49.84013" lon="4.78483">
        <ele>271</ele>
        <time>2021-08-27T06:49:46.000Z</time>
      </trkpt>
      <trkpt lat="49.84018" lon="4.78484">
        <ele>271</ele>
        <time>2021-08-27T06:49:47.000Z</time>
      </trkpt>
      <trkpt lat="49.84022" lon="4.78487">
        <ele>271</ele>
        <time>2021-08-27T06:49:48.000Z</time>
      </trkpt>
      <trkpt lat="49.84026" lon="4.78488">
        <ele>271</ele>
        <time>2021-08-27T06:49:49.000Z</time>
      </trkpt>
      <trkpt lat="49.8403" lon="4.7849">
        <ele>270</ele>
        <time>2021-08-27T06:49:50.000Z</time>
      </trkpt>
      <trkpt lat="49.84033" lon="4.78492">
        <ele>270</ele>
        <time>2021-08-27T06:49:51.000Z</time>
      </trkpt>
      <trkpt lat="49.84035" lon="4.78495">
        <ele>270</ele>
        <time>2021-08-27T06:49:52.000Z</time>
      </trkpt>
      <trkpt lat="49.84039" lon="4.78496">
        <ele>270</ele>
        <time>2021-08-27T06:49:53.000Z</time>
      </trkpt>
      <trkpt lat="49.84042" lon="4.78498">
        <ele>270</ele>
        <time>2021-08-27T06:49:54.000Z</time>
      </trkpt>
      <trkpt lat="49.84045" lon="4.785">
        <ele>270</ele>
        <time>2021-08-27T06:49:55.000Z</time>
      </trkpt>
      <trkpt lat="49.84047" lon="4.78502">
        <ele>270</ele>
        <time>2021-08-27T06:49:56.000Z</time>
      </trkpt>
      <trkpt lat="49.8405" lon="4.78504">
        <ele>269</ele>
        <time>2021-08-27T06:49:57.000Z</time>
      </trkpt>
      <trkpt lat="49.84053" lon="4.78506">
        <ele>269</ele>
        <time>2021-08-27T06:49:58.000Z</time>
      </trkpt>
      <trkpt lat="49.84055" lon="4.78506">
        <ele>269</ele>
        <time>2021-08-27T06:49:59.000Z</time>
      </trkpt>
      <trkpt lat="49.84057" lon="4.78507">
        <ele>269</ele>
        <time>2021-08-27T06:50:00.000Z</time>
      </trkpt>
      <trkpt lat="49.84059" lon="4.78508">
        <ele>269</ele>
        <time>2021-08-27T06:50:01.000Z</time>
      </trkpt>
      <trkpt lat="49.84062" lon="4.78509">
        <ele>270</ele>
        <time>2021-08-27T06:50:02.000Z</time>
      </trkpt>
      <trkpt lat="49.84065" lon="4.78509">
        <ele>270</ele>
        <time>2021-08-27T06:50:03.000Z</time>
      </trkpt>
      <trkpt lat="49.84067" lon="4.78508">
        <ele>270</ele>
        <time>2021-08-27T06:50:04.000Z</time>
      </trkpt>
      <trkpt lat="49.84069" lon="4.78508">
        <ele>270</ele>
        <time>2021-08-27T06:50:05.000Z</time>
      </trkpt>
      <trkpt lat="49.84071" lon="4.78508">
        <ele>270</ele>
        <time>2021-08-27T06:50:06.000Z</time>
      </trkpt>
      <trkpt lat="49.84073" lon="4.78508">
        <ele>270</ele>
        <time>2021-08-27T06:50:07.000Z</time>
      </trkpt>
      <trkpt lat="49.84075" lon="4.78508">
        <ele>270</ele>
        <time>2021-08-27T06:50:08.000Z</time>
      </trkpt>
      <trkpt lat="49.84077" lon="4.78508">
        <ele>270</ele>
        <time>2021-08-27T06:50:09.000Z</time>
      </trkpt>
      <trkpt lat="49.84079" lon="4.78508">
        <ele>270</ele>
        <time>2021-08-27T06:50:10.000Z</time>
      </trkpt>
      <trkpt lat="49.84081" lon="4.78507">
        <ele>270</ele>
        <time>2021-08-27T06:50:11.000Z</time>
      </trkpt>
      <trkpt lat="49.84083" lon="4.78507">
        <ele>270</ele>
        <time>2021-08-27T06:50:12.000Z</time>
      </trkpt>
      <trkpt lat="49.84086" lon="4.78506">
        <ele>271</ele>
        <time>2021-08-27T06:50:13.000Z</time>
      </trkpt>
      <trkpt lat="49.84088" lon="4.78506">
        <ele>271</ele>
        <time>2021-08-27T06:50:14.000Z</time>
      </trkpt>
      <trkpt lat="49.8409" lon="4.78505">
        <ele>271</ele>
        <time>2021-08-27T06:50:15.000Z</time>
      </trkpt>
      <trkpt lat="49.84092" lon="4.78504">
        <ele>271</ele>
        <time>2021-08-27T06:50:16.000Z</time>
      </trkpt>
      <trkpt lat="49.84094" lon="4.78504">
        <ele>271</ele>
        <time>2021-08-27T06:50:17.000Z</time>
      </trkpt>
      <trkpt lat="49.84096" lon="4.78503">
        <ele>271</ele>
        <time>2021-08-27T06:50:18.000Z</time>
      </trkpt>
      <trkpt lat="49.84099" lon="4.78503">
        <ele>271</ele>
        <time>2021-08-27T06:50:19.000Z</time>
      </trkpt>
      <trkpt lat="49.84101" lon="4.78503">
        <ele>271</ele>
        <time>2021-08-27T06:50:20.000Z</time>
      </trkpt>
      <trkpt lat="49.84103" lon="4.78503">
        <ele>271</ele>
        <time>2021-08-27T06:50:21.000Z</time>
      </trkpt>
      <trkpt lat="49.84106" lon="4.78503">
        <ele>271</ele>
        <time>2021-08-27T06:50:22.000Z</time>
      </trkpt>
      <trkpt lat="49.84108" lon="4.78503">
        <ele>271</ele>
        <time>2021-08-27T06:50:23.000Z</time>
      </trkpt>
      <trkpt lat="49.84111" lon="4.78504">
        <ele>271</ele>
        <time>2021-08-27T06:50:24.000Z</time>
      </trkpt>
      <trkpt lat="49.84113" lon="4.78503">
        <ele>271</ele>
        <time>2021-08-27T06:50:25.000Z</time>
      </trkpt>
      <trkpt lat="49.84116" lon="4.78504">
        <ele>271</ele>
        <time>2021-08-27T06:50:26.000Z</time>
      </trkpt>
      <trkpt lat="49.84118" lon="4.78505">
        <ele>271</ele>
        <time>2021-08-27T06:50:27.000Z</time>
      </trkpt>
      <trkpt lat="49.8412" lon="4.78505">
        <ele>271</ele>
        <time>2021-08-27T06:50:28.000Z</time>
      </trkpt>
      <trkpt lat="49.84123" lon="4.78505">
        <ele>271</ele>
        <time>2021-08-27T06:50:29.000Z</time>
      </trkpt>
      <trkpt lat="49.84126" lon="4.78506">
        <ele>271</ele>
        <time>2021-08-27T06:50:30.000Z</time>
      </trkpt>
      <trkpt lat="49.84128" lon="4.78506">
        <ele>271</ele>
        <time>2021-08-27T06:50:31.000Z</time>
      </trkpt>
      <trkpt lat="49.8413" lon="4.78506">
        <ele>271</ele>
        <time>2021-08-27T06:50:32.000Z</time>
      </trkpt>
      <trkpt lat="49.84132" lon="4.78507">
        <ele>271</ele>
        <time>2021-08-27T06:50:33.000Z</time>
      </trkpt>
      <trkpt lat="49.84134" lon="4.78509">
        <ele>271</ele>
        <time>2021-08-27T06:50:34.000Z</time>
      </trkpt>
      <trkpt lat="49.84136" lon="4.78509">
        <ele>271</ele>
        <time>2021-08-27T06:50:35.000Z</time>
      </trkpt>
      <trkpt lat="49.84139" lon="4.7851">
        <ele>271</ele>
        <time>2021-08-27T06:50:36.000Z</time>
      </trkpt>
      <trkpt lat="49.84142" lon="4.78512">
        <ele>271</ele>
        <time>2021-08-27T06:50:37.000Z</time>
      </trkpt>
      <trkpt lat="49.84145" lon="4.78513">
        <ele>270</ele>
        <time>2021-08-27T06:50:38.000Z</time>
      </trkpt>
      <trkpt lat="49.84148" lon="4.78515">
        <ele>271</ele>
        <time>2021-08-27T06:50:39.000Z</time>
      </trkpt>
      <trkpt lat="49.8415" lon="4.78518">
        <ele>271</ele>
        <time>2021-08-27T06:50:40.000Z</time>
      </trkpt>
      <trkpt lat="49.84153" lon="4.78519">
        <ele>271</ele>
        <time>2021-08-27T06:50:41.000Z</time>
      </trkpt>
      <trkpt lat="49.84156" lon="4.78521">
        <ele>271</ele>
        <time>2021-08-27T06:50:42.000Z</time>
      </trkpt>
      <trkpt lat="49.84158" lon="4.78523">
        <ele>271</ele>
        <time>2021-08-27T06:50:43.000Z</time>
      </trkpt>
      <trkpt lat="49.84161" lon="4.78525">
        <ele>271</ele>
        <time>2021-08-27T06:50:44.000Z</time>
      </trkpt>
      <trkpt lat="49.84163" lon="4.78527">
        <ele>271</ele>
        <time>2021-08-27T06:50:45.000Z</time>
      </trkpt>
      <trkpt lat="49.84165" lon="4.7853">
        <ele>271</ele>
        <time>2021-08-27T06:50:46.000Z</time>
      </trkpt>
      <trkpt lat="49.84167" lon="4.78532">
        <ele>272</ele>
        <time>2021-08-27T06:50:47.000Z</time>
      </trkpt>
      <trkpt lat="49.84169" lon="4.78534">
        <ele>272</ele>
        <time>2021-08-27T06:50:48.000Z</time>
      </trkpt>
      <trkpt lat="49.84171" lon="4.78535">
        <ele>272</ele>
        <time>2021-08-27T06:50:49.000Z</time>
      </trkpt>
      <trkpt lat="49.84174" lon="4.78536">
        <ele>272</ele>
        <time>2021-08-27T06:50:50.000Z</time>
      </trkpt>
      <trkpt lat="49.84176" lon="4.78537">
        <ele>272</ele>
        <time>2021-08-27T06:50:51.000Z</time>
      </trkpt>
      <trkpt lat="49.84178" lon="4.78538">
        <ele>272</ele>
        <time>2021-08-27T06:50:52.000Z</time>
      </trkpt>
      <trkpt lat="49.8418" lon="4.78539">
        <ele>272</ele>
        <time>2021-08-27T06:50:53.000Z</time>
      </trkpt>
      <trkpt lat="49.84182" lon="4.7854">
        <ele>273</ele>
        <time>2021-08-27T06:50:54.000Z</time>
      </trkpt>
      <trkpt lat="49.84184" lon="4.78541">
        <ele>273</ele>
        <time>2021-08-27T06:50:55.000Z</time>
      </trkpt>
      <trkpt lat="49.84186" lon="4.78541">
        <ele>273</ele>
        <time>2021-08-27T06:50:56.000Z</time>
      </trkpt>
      <trkpt lat="49.84188" lon="4.7854">
        <ele>273</ele>
        <time>2021-08-27T06:50:57.000Z</time>
      </trkpt>
      <trkpt lat="49.8419" lon="4.7854">
        <ele>273</ele>
        <time>2021-08-27T06:50:58.000Z</time>
      </trkpt>
      <trkpt lat="49.84192" lon="4.78541">
        <ele>274</ele>
        <time>2021-08-27T06:50:59.000Z</time>
      </trkpt>
      <trkpt lat="49.84194" lon="4.78541">
        <ele>274</ele>
        <time>2021-08-27T06:51:00.000Z</time>
      </trkpt>
      <trkpt lat="49.84197" lon="4.78542">
        <ele>274</ele>
        <time>2021-08-27T06:51:01.000Z</time>
      </trkpt>
      <trkpt lat="49.84199" lon="4.78542">
        <ele>274</ele>
        <time>2021-08-27T06:51:02.000Z</time>
      </trkpt>
      <trkpt lat="49.84201" lon="4.78543">
        <ele>274</ele>
        <time>2021-08-27T06:51:03.000Z</time>
      </trkpt>
      <trkpt lat="49.84204" lon="4.78543">
        <ele>275</ele>
        <time>2021-08-27T06:51:04.000Z</time>
      </trkpt>
      <trkpt lat="49.84206" lon="4.78543">
        <ele>275</ele>
        <time>2021-08-27T06:51:05.000Z</time>
      </trkpt>
      <trkpt lat="49.84208" lon="4.78543">
        <ele>275</ele>
        <time>2021-08-27T06:51:06.000Z</time>
      </trkpt>
      <trkpt lat="49.84211" lon="4.78544">
        <ele>275</ele>
        <time>2021-08-27T06:51:07.000Z</time>
      </trkpt>
      <trkpt lat="49.84213" lon="4.78545">
        <ele>275</ele>
        <time>2021-08-27T06:51:08.000Z</time>
      </trkpt>
      <trkpt lat="49.84215" lon="4.78545">
        <ele>276</ele>
        <time>2021-08-27T06:51:09.000Z</time>
      </trkpt>
      <trkpt lat="49.84217" lon="4.78546">
        <ele>276</ele>
        <time>2021-08-27T06:51:10.000Z</time>
      </trkpt>
      <trkpt lat="49.84219" lon="4.78547">
        <ele>276</ele>
        <time>2021-08-27T06:51:11.000Z</time>
      </trkpt>
      <trkpt lat="49.84222" lon="4.78547">
        <ele>276</ele>
        <time>2021-08-27T06:51:12.000Z</time>
      </trkpt>
      <trkpt lat="49.84224" lon="4.78547">
        <ele>276</ele>
        <time>2021-08-27T06:51:13.000Z</time>
      </trkpt>
      <trkpt lat="49.84226" lon="4.78548">
        <ele>277</ele>
        <time>2021-08-27T06:51:14.000Z</time>
      </trkpt>
      <trkpt lat="49.84228" lon="4.78549">
        <ele>277</ele>
        <time>2021-08-27T06:51:15.000Z</time>
      </trkpt>
      <trkpt lat="49.8423" lon="4.78549">
        <ele>277</ele>
        <time>2021-08-27T06:51:16.000Z</time>
      </trkpt>
      <trkpt lat="49.84232" lon="4.7855">
        <ele>277</ele>
        <time>2021-08-27T06:51:17.000Z</time>
      </trkpt>
      <trkpt lat="49.84235" lon="4.78551">
        <ele>277</ele>
        <time>2021-08-27T06:51:18.000Z</time>
      </trkpt>
      <trkpt lat="49.84237" lon="4.78551">
        <ele>278</ele>
        <time>2021-08-27T06:51:19.000Z</time>
      </trkpt>
      <trkpt lat="49.84239" lon="4.78552">
        <ele>278</ele>
        <time>2021-08-27T06:51:20.000Z</time>
      </trkpt>
      <trkpt lat="49.84241" lon="4.78552">
        <ele>278</ele>
        <time>2021-08-27T06:51:21.000Z</time>
      </trkpt>
      <trkpt lat="49.84244" lon="4.78553">
        <ele>278</ele>
        <time>2021-08-27T06:51:22.000Z</time>
      </trkpt>
      <trkpt lat="49.84246" lon="4.78554">
        <ele>278</ele>
        <time>2021-08-27T06:51:23.000Z</time>
      </trkpt>
      <trkpt lat="49.84249" lon="4.78556">
        <ele>279</ele>
        <time>2021-08-27T06:51:24.000Z</time>
      </trkpt>
      <trkpt lat="49.84251" lon="4.78557">
        <ele>279</ele>
        <time>2021-08-27T06:51:25.000Z</time>
      </trkpt>
      <trkpt lat="49.84254" lon="4.78559">
        <ele>279</ele>
        <time>2021-08-27T06:51:26.000Z</time>
      </trkpt>
      <trkpt lat="49.84256" lon="4.78561">
        <ele>279</ele>
        <time>2021-08-27T06:51:27.000Z</time>
      </trkpt>
      <trkpt lat="49.84259" lon="4.78563">
        <ele>279</ele>
        <time>2021-08-27T06:51:28.000Z</time>
      </trkpt>
      <trkpt lat="49.84261" lon="4.78565">
        <ele>279</ele>
        <time>2021-08-27T06:51:29.000Z</time>
      </trkpt>
      <trkpt lat="49.84263" lon="4.78568">
        <ele>280</ele>
        <time>2021-08-27T06:51:30.000Z</time>
      </trkpt>
      <trkpt lat="49.84265" lon="4.78569">
        <ele>280</ele>
        <time>2021-08-27T06:51:31.000Z</time>
      </trkpt>
      <trkpt lat="49.84266" lon="4.78571">
        <ele>280</ele>
        <time>2021-08-27T06:51:32.000Z</time>
      </trkpt>
      <trkpt lat="49.84268" lon="4.78573">
        <ele>280</ele>
        <time>2021-08-27T06:51:33.000Z</time>
      </trkpt>
      <trkpt lat="49.84271" lon="4.78575">
        <ele>280</ele>
        <time>2021-08-27T06:51:34.000Z</time>
      </trkpt>
      <trkpt lat="49.84272" lon="4.78576">
        <ele>280</ele>
        <time>2021-08-27T06:51:35.000Z</time>
      </trkpt>
      <trkpt lat="49.84275" lon="4.78578">
        <ele>281</ele>
        <time>2021-08-27T06:51:36.000Z</time>
      </trkpt>
      <trkpt lat="49.84277" lon="4.78581">
        <ele>281</ele>
        <time>2021-08-27T06:51:37.000Z</time>
      </trkpt>
      <trkpt lat="49.8428" lon="4.78583">
        <ele>281</ele>
        <time>2021-08-27T06:51:38.000Z</time>
      </trkpt>
      <trkpt lat="49.84283" lon="4.78585">
        <ele>281</ele>
        <time>2021-08-27T06:51:39.000Z</time>
      </trkpt>
      <trkpt lat="49.84285" lon="4.78588">
        <ele>281</ele>
        <time>2021-08-27T06:51:40.000Z</time>
      </trkpt>
      <trkpt lat="49.84287" lon="4.7859">
        <ele>282</ele>
        <time>2021-08-27T06:51:41.000Z</time>
      </trkpt>
      <trkpt lat="49.8429" lon="4.78592">
        <ele>282</ele>
        <time>2021-08-27T06:51:42.000Z</time>
      </trkpt>
      <trkpt lat="49.84292" lon="4.78593">
        <ele>282</ele>
        <time>2021-08-27T06:51:43.000Z</time>
      </trkpt>
      <trkpt lat="49.84295" lon="4.78595">
        <ele>283</ele>
        <time>2021-08-27T06:51:44.000Z</time>
      </trkpt>
      <trkpt lat="49.84297" lon="4.78596">
        <ele>283</ele>
        <time>2021-08-27T06:51:45.000Z</time>
      </trkpt>
      <trkpt lat="49.843" lon="4.78596">
        <ele>283</ele>
        <time>2021-08-27T06:51:46.000Z</time>
      </trkpt>
      <trkpt lat="49.84302" lon="4.78596">
        <ele>283</ele>
        <time>2021-08-27T06:51:47.000Z</time>
      </trkpt>
      <trkpt lat="49.84304" lon="4.78596">
        <ele>284</ele>
        <time>2021-08-27T06:51:48.000Z</time>
      </trkpt>
      <trkpt lat="49.84306" lon="4.78596">
        <ele>284</ele>
        <time>2021-08-27T06:51:49.000Z</time>
      </trkpt>
      <trkpt lat="49.84309" lon="4.78596">
        <ele>284</ele>
        <time>2021-08-27T06:51:50.000Z</time>
      </trkpt>
      <trkpt lat="49.84311" lon="4.78597">
        <ele>285</ele>
        <time>2021-08-27T06:51:51.000Z</time>
      </trkpt>
      <trkpt lat="49.84313" lon="4.78597">
        <ele>285</ele>
        <time>2021-08-27T06:51:52.000Z</time>
      </trkpt>
      <trkpt lat="49.84316" lon="4.78597">
        <ele>285</ele>
        <time>2021-08-27T06:51:53.000Z</time>
      </trkpt>
      <trkpt lat="49.84318" lon="4.78596">
        <ele>285</ele>
        <time>2021-08-27T06:51:54.000Z</time>
      </trkpt>
      <trkpt lat="49.84321" lon="4.78595">
        <ele>285</ele>
        <time>2021-08-27T06:51:55.000Z</time>
      </trkpt>
      <trkpt lat="49.84323" lon="4.78594">
        <ele>286</ele>
        <time>2021-08-27T06:51:56.000Z</time>
      </trkpt>
      <trkpt lat="49.84326" lon="4.78594">
        <ele>286</ele>
        <time>2021-08-27T06:51:57.000Z</time>
      </trkpt>
      <trkpt lat="49.84328" lon="4.78593">
        <ele>286</ele>
        <time>2021-08-27T06:51:58.000Z</time>
      </trkpt>
      <trkpt lat="49.84331" lon="4.78593">
        <ele>286</ele>
        <time>2021-08-27T06:51:59.000Z</time>
      </trkpt>
      <trkpt lat="49.84333" lon="4.78591">
        <ele>286</ele>
        <time>2021-08-27T06:52:00.000Z</time>
      </trkpt>
      <trkpt lat="49.84336" lon="4.78591">
        <ele>286</ele>
        <time>2021-08-27T06:52:01.000Z</time>
      </trkpt>
      <trkpt lat="49.84338" lon="4.7859">
        <ele>287</ele>
        <time>2021-08-27T06:52:02.000Z</time>
      </trkpt>
      <trkpt lat="49.84341" lon="4.78589">
        <ele>287</ele>
        <time>2021-08-27T06:52:03.000Z</time>
      </trkpt>
      <trkpt lat="49.84344" lon="4.78589">
        <ele>287</ele>
        <time>2021-08-27T06:52:04.000Z</time>
      </trkpt>
      <trkpt lat="49.84347" lon="4.78588">
        <ele>287</ele>
        <time>2021-08-27T06:52:05.000Z</time>
      </trkpt>
      <trkpt lat="49.84351" lon="4.78587">
        <ele>287</ele>
        <time>2021-08-27T06:52:06.000Z</time>
      </trkpt>
      <trkpt lat="49.84354" lon="4.78587">
        <ele>287</ele>
        <time>2021-08-27T06:52:07.000Z</time>
      </trkpt>
      <trkpt lat="49.84357" lon="4.78587">
        <ele>288</ele>
        <time>2021-08-27T06:52:08.000Z</time>
      </trkpt>
      <trkpt lat="49.84361" lon="4.78587">
        <ele>288</ele>
        <time>2021-08-27T06:52:09.000Z</time>
      </trkpt>
      <trkpt lat="49.84364" lon="4.78587">
        <ele>288</ele>
        <time>2021-08-27T06:52:10.000Z</time>
      </trkpt>
      <trkpt lat="49.84367" lon="4.78586">
        <ele>288</ele>
        <time>2021-08-27T06:52:11.000Z</time>
      </trkpt>
      <trkpt lat="49.8437" lon="4.78586">
        <ele>288</ele>
        <time>2021-08-27T06:52:12.000Z</time>
      </trkpt>
      <trkpt lat="49.84374" lon="4.78586">
        <ele>288</ele>
        <time>2021-08-27T06:52:13.000Z</time>
      </trkpt>
      <trkpt lat="49.84377" lon="4.78586">
        <ele>289</ele>
        <time>2021-08-27T06:52:14.000Z</time>
      </trkpt>
      <trkpt lat="49.8438" lon="4.78585">
        <ele>289</ele>
        <time>2021-08-27T06:52:15.000Z</time>
      </trkpt>
      <trkpt lat="49.84383" lon="4.78583">
        <ele>289</ele>
        <time>2021-08-27T06:52:16.000Z</time>
      </trkpt>
      <trkpt lat="49.84387" lon="4.78581">
        <ele>289</ele>
        <time>2021-08-27T06:52:17.000Z</time>
      </trkpt>
      <trkpt lat="49.8439" lon="4.78579">
        <ele>289</ele>
        <time>2021-08-27T06:52:18.000Z</time>
      </trkpt>
      <trkpt lat="49.84394" lon="4.78576">
        <ele>289</ele>
        <time>2021-08-27T06:52:19.000Z</time>
      </trkpt>
      <trkpt lat="49.84397" lon="4.78571">
        <ele>289</ele>
        <time>2021-08-27T06:52:20.000Z</time>
      </trkpt>
      <trkpt lat="49.844" lon="4.78567">
        <ele>289</ele>
        <time>2021-08-27T06:52:21.000Z</time>
      </trkpt>
      <trkpt lat="49.84402" lon="4.78564">
        <ele>289</ele>
        <time>2021-08-27T06:52:22.000Z</time>
      </trkpt>
      <trkpt lat="49.84404" lon="4.78561">
        <ele>289</ele>
        <time>2021-08-27T06:52:23.000Z</time>
      </trkpt>
      <trkpt lat="49.84406" lon="4.78558">
        <ele>289</ele>
        <time>2021-08-27T06:52:24.000Z</time>
      </trkpt>
      <trkpt lat="49.84408" lon="4.78554">
        <ele>290</ele>
        <time>2021-08-27T06:52:25.000Z</time>
      </trkpt>
      <trkpt lat="49.84409" lon="4.7855">
        <ele>290</ele>
        <time>2021-08-27T06:52:26.000Z</time>
      </trkpt>
      <trkpt lat="49.84411" lon="4.78546">
        <ele>290</ele>
        <time>2021-08-27T06:52:27.000Z</time>
      </trkpt>
      <trkpt lat="49.84412" lon="4.78542">
        <ele>290</ele>
        <time>2021-08-27T06:52:28.000Z</time>
      </trkpt>
      <trkpt lat="49.84415" lon="4.78538">
        <ele>290</ele>
        <time>2021-08-27T06:52:29.000Z</time>
      </trkpt>
      <trkpt lat="49.84418" lon="4.78535">
        <ele>290</ele>
        <time>2021-08-27T06:52:30.000Z</time>
      </trkpt>
      <trkpt lat="49.84421" lon="4.78533">
        <ele>290</ele>
        <time>2021-08-27T06:52:31.000Z</time>
      </trkpt>
      <trkpt lat="49.84424" lon="4.78531">
        <ele>290</ele>
        <time>2021-08-27T06:52:32.000Z</time>
      </trkpt>
      <trkpt lat="49.84427" lon="4.7853">
        <ele>290</ele>
        <time>2021-08-27T06:52:33.000Z</time>
      </trkpt>
      <trkpt lat="49.84431" lon="4.78528">
        <ele>290</ele>
        <time>2021-08-27T06:52:34.000Z</time>
      </trkpt>
      <trkpt lat="49.84434" lon="4.78527">
        <ele>290</ele>
        <time>2021-08-27T06:52:35.000Z</time>
      </trkpt>
      <trkpt lat="49.84437" lon="4.78525">
        <ele>290</ele>
        <time>2021-08-27T06:52:36.000Z</time>
      </trkpt>
      <trkpt lat="49.8444" lon="4.78524">
        <ele>290</ele>
        <time>2021-08-27T06:52:37.000Z</time>
      </trkpt>
      <trkpt lat="49.84443" lon="4.78522">
        <ele>290</ele>
        <time>2021-08-27T06:52:38.000Z</time>
      </trkpt>
      <trkpt lat="49.84446" lon="4.7852">
        <ele>290</ele>
        <time>2021-08-27T06:52:39.000Z</time>
      </trkpt>
      <trkpt lat="49.8445" lon="4.78518">
        <ele>290</ele>
        <time>2021-08-27T06:52:40.000Z</time>
      </trkpt>
      <trkpt lat="49.84452" lon="4.78516">
        <ele>290</ele>
        <time>2021-08-27T06:52:41.000Z</time>
      </trkpt>
      <trkpt lat="49.84455" lon="4.78513">
        <ele>290</ele>
        <time>2021-08-27T06:52:42.000Z</time>
      </trkpt>
      <trkpt lat="49.84458" lon="4.78509">
        <ele>290</ele>
        <time>2021-08-27T06:52:43.000Z</time>
      </trkpt>
      <trkpt lat="49.84462" lon="4.78506">
        <ele>290</ele>
        <time>2021-08-27T06:52:44.000Z</time>
      </trkpt>
      <trkpt lat="49.84465" lon="4.78503">
        <ele>290</ele>
        <time>2021-08-27T06:52:45.000Z</time>
      </trkpt>
      <trkpt lat="49.84467" lon="4.78499">
        <ele>290</ele>
        <time>2021-08-27T06:52:46.000Z</time>
      </trkpt>
      <trkpt lat="49.8447" lon="4.78496">
        <ele>290</ele>
        <time>2021-08-27T06:52:47.000Z</time>
      </trkpt>
      <trkpt lat="49.84473" lon="4.78493">
        <ele>290</ele>
        <time>2021-08-27T06:52:48.000Z</time>
      </trkpt>
      <trkpt lat="49.84476" lon="4.78491">
        <ele>290</ele>
        <time>2021-08-27T06:52:49.000Z</time>
      </trkpt>
      <trkpt lat="49.84479" lon="4.78488">
        <ele>290</ele>
        <time>2021-08-27T06:52:50.000Z</time>
      </trkpt>
      <trkpt lat="49.84482" lon="4.78484">
        <ele>290</ele>
        <time>2021-08-27T06:52:51.000Z</time>
      </trkpt>
      <trkpt lat="49.84486" lon="4.78481">
        <ele>289</ele>
        <time>2021-08-27T06:52:52.000Z</time>
      </trkpt>
      <trkpt lat="49.84489" lon="4.78477">
        <ele>289</ele>
        <time>2021-08-27T06:52:53.000Z</time>
      </trkpt>
      <trkpt lat="49.84492" lon="4.78475">
        <ele>289</ele>
        <time>2021-08-27T06:52:54.000Z</time>
      </trkpt>
      <trkpt lat="49.84495" lon="4.78472">
        <ele>289</ele>
        <time>2021-08-27T06:52:55.000Z</time>
      </trkpt>
      <trkpt lat="49.84498" lon="4.78468">
        <ele>289</ele>
        <time>2021-08-27T06:52:56.000Z</time>
      </trkpt>
      <trkpt lat="49.845" lon="4.78465">
        <ele>289</ele>
        <time>2021-08-27T06:52:57.000Z</time>
      </trkpt>
      <trkpt lat="49.84503" lon="4.78462">
        <ele>289</ele>
        <time>2021-08-27T06:52:58.000Z</time>
      </trkpt>
      <trkpt lat="49.84505" lon="4.78459">
        <ele>289</ele>
        <time>2021-08-27T06:52:59.000Z</time>
      </trkpt>
      <trkpt lat="49.84508" lon="4.78456">
        <ele>289</ele>
        <time>2021-08-27T06:53:00.000Z</time>
      </trkpt>
      <trkpt lat="49.8451" lon="4.78452">
        <ele>289</ele>
        <time>2021-08-27T06:53:01.000Z</time>
      </trkpt>
      <trkpt lat="49.84513" lon="4.78449">
        <ele>289</ele>
        <time>2021-08-27T06:53:02.000Z</time>
      </trkpt>
      <trkpt lat="49.84515" lon="4.78445">
        <ele>289</ele>
        <time>2021-08-27T06:53:03.000Z</time>
      </trkpt>
      <trkpt lat="49.84518" lon="4.78442">
        <ele>289</ele>
        <time>2021-08-27T06:53:04.000Z</time>
      </trkpt>
      <trkpt lat="49.84521" lon="4.78438">
        <ele>289</ele>
        <time>2021-08-27T06:53:05.000Z</time>
      </trkpt>
      <trkpt lat="49.84524" lon="4.78435">
        <ele>289</ele>
        <time>2021-08-27T06:53:06.000Z</time>
      </trkpt>
      <trkpt lat="49.84527" lon="4.78432">
        <ele>288</ele>
        <time>2021-08-27T06:53:07.000Z</time>
      </trkpt>
      <trkpt lat="49.8453" lon="4.78429">
        <ele>288</ele>
        <time>2021-08-27T06:53:08.000Z</time>
      </trkpt>
      <trkpt lat="49.84532" lon="4.78428">
        <ele>288</ele>
        <time>2021-08-27T06:53:09.000Z</time>
      </trkpt>
      <trkpt lat="49.84536" lon="4.78426">
        <ele>288</ele>
        <time>2021-08-27T06:53:10.000Z</time>
      </trkpt>
      <trkpt lat="49.84539" lon="4.78425">
        <ele>288</ele>
        <time>2021-08-27T06:53:11.000Z</time>
      </trkpt>
      <trkpt lat="49.84543" lon="4.78425">
        <ele>288</ele>
        <time>2021-08-27T06:53:12.000Z</time>
      </trkpt>
      <trkpt lat="49.84546" lon="4.78425">
        <ele>289</ele>
        <time>2021-08-27T06:53:13.000Z</time>
      </trkpt>
      <trkpt lat="49.84549" lon="4.78425">
        <ele>289</ele>
        <time>2021-08-27T06:53:14.000Z</time>
      </trkpt>
      <trkpt lat="49.84552" lon="4.78426">
        <ele>289</ele>
        <time>2021-08-27T06:53:15.000Z</time>
      </trkpt>
      <trkpt lat="49.84555" lon="4.78426">
        <ele>289</ele>
        <time>2021-08-27T06:53:16.000Z</time>
      </trkpt>
      <trkpt lat="49.84557" lon="4.78426">
        <ele>289</ele>
        <time>2021-08-27T06:53:17.000Z</time>
      </trkpt>
      <trkpt lat="49.84559" lon="4.78426">
        <ele>289</ele>
        <time>2021-08-27T06:53:18.000Z</time>
      </trkpt>
      <trkpt lat="49.84561" lon="4.78426">
        <ele>289</ele>
        <time>2021-08-27T06:53:19.000Z</time>
      </trkpt>
      <trkpt lat="49.84563" lon="4.78426">
        <ele>289</ele>
        <time>2021-08-27T06:53:20.000Z</time>
      </trkpt>
      <trkpt lat="49.84566" lon="4.78425">
        <ele>290</ele>
        <time>2021-08-27T06:53:21.000Z</time>
      </trkpt>
      <trkpt lat="49.84568" lon="4.78424">
        <ele>290</ele>
        <time>2021-08-27T06:53:22.000Z</time>
      </trkpt>
      <trkpt lat="49.84569" lon="4.78423">
        <ele>290</ele>
        <time>2021-08-27T06:53:23.000Z</time>
      </trkpt>
      <trkpt lat="49.84572" lon="4.78422">
        <ele>290</ele>
        <time>2021-08-27T06:53:24.000Z</time>
      </trkpt>
      <trkpt lat="49.84574" lon="4.78421">
        <ele>290</ele>
        <time>2021-08-27T06:53:25.000Z</time>
      </trkpt>
      <trkpt lat="49.84576" lon="4.78419">
        <ele>291</ele>
        <time>2021-08-27T06:53:26.000Z</time>
      </trkpt>
      <trkpt lat="49.84578" lon="4.78418">
        <ele>291</ele>
        <time>2021-08-27T06:53:27.000Z</time>
      </trkpt>
      <trkpt lat="49.84579" lon="4.78416">
        <ele>291</ele>
        <time>2021-08-27T06:53:28.000Z</time>
      </trkpt>
      <trkpt lat="49.84581" lon="4.78414">
        <ele>291</ele>
        <time>2021-08-27T06:53:29.000Z</time>
      </trkpt>
      <trkpt lat="49.84583" lon="4.78413">
        <ele>292</ele>
        <time>2021-08-27T06:53:30.000Z</time>
      </trkpt>
      <trkpt lat="49.84584" lon="4.78411">
        <ele>292</ele>
        <time>2021-08-27T06:53:31.000Z</time>
      </trkpt>
      <trkpt lat="49.84586" lon="4.78409">
        <ele>292</ele>
        <time>2021-08-27T06:53:32.000Z</time>
      </trkpt>
      <trkpt lat="49.84587" lon="4.78408">
        <ele>292</ele>
        <time>2021-08-27T06:53:33.000Z</time>
      </trkpt>
      <trkpt lat="49.84588" lon="4.78406">
        <ele>292</ele>
        <time>2021-08-27T06:53:34.000Z</time>
      </trkpt>
      <trkpt lat="49.8459" lon="4.78405">
        <ele>292</ele>
        <time>2021-08-27T06:53:35.000Z</time>
      </trkpt>
      <trkpt lat="49.84591" lon="4.78403">
        <ele>293</ele>
        <time>2021-08-27T06:53:36.000Z</time>
      </trkpt>
      <trkpt lat="49.84593" lon="4.78402">
        <ele>293</ele>
        <time>2021-08-27T06:53:37.000Z</time>
      </trkpt>
      <trkpt lat="49.84594" lon="4.784">
        <ele>293</ele>
        <time>2021-08-27T06:53:38.000Z</time>
      </trkpt>
      <trkpt lat="49.84596" lon="4.78398">
        <ele>293</ele>
        <time>2021-08-27T06:53:39.000Z</time>
      </trkpt>
      <trkpt lat="49.84598" lon="4.78397">
        <ele>293</ele>
        <time>2021-08-27T06:53:40.000Z</time>
      </trkpt>
      <trkpt lat="49.84599" lon="4.78396">
        <ele>293</ele>
        <time>2021-08-27T06:53:41.000Z</time>
      </trkpt>
      <trkpt lat="49.846" lon="4.78394">
        <ele>293</ele>
        <time>2021-08-27T06:53:42.000Z</time>
      </trkpt>
      <trkpt lat="49.84601" lon="4.78393">
        <ele>293</ele>
        <time>2021-08-27T06:53:43.000Z</time>
      </trkpt>
      <trkpt lat="49.84602" lon="4.78392">
        <ele>293</ele>
        <time>2021-08-27T06:53:44.000Z</time>
      </trkpt>
      <trkpt lat="49.84604" lon="4.78392">
        <ele>293</ele>
        <time>2021-08-27T06:53:45.000Z</time>
      </trkpt>
      <trkpt lat="49.84605" lon="4.78391">
        <ele>293</ele>
        <time>2021-08-27T06:53:46.000Z</time>
      </trkpt>
      <trkpt lat="49.84606" lon="4.78391">
        <ele>293</ele>
        <time>2021-08-27T06:53:47.000Z</time>
      </trkpt>
      <trkpt lat="49.84608" lon="4.78391">
        <ele>293</ele>
        <time>2021-08-27T06:53:48.000Z</time>
      </trkpt>
      <trkpt lat="49.84609" lon="4.78392">
        <ele>294</ele>
        <time>2021-08-27T06:53:49.000Z</time>
      </trkpt>
      <trkpt lat="49.84611" lon="4.78392">
        <ele>294</ele>
        <time>2021-08-27T06:53:50.000Z</time>
      </trkpt>
      <trkpt lat="49.84612" lon="4.78391">
        <ele>294</ele>
        <time>2021-08-27T06:53:51.000Z</time>
      </trkpt>
      <trkpt lat="49.84614" lon="4.78391">
        <ele>294</ele>
        <time>2021-08-27T06:53:52.000Z</time>
      </trkpt>
      <trkpt lat="49.84616" lon="4.78391">
        <ele>294</ele>
        <time>2021-08-27T06:53:53.000Z</time>
      </trkpt>
      <trkpt lat="49.84617" lon="4.78391">
        <ele>295</ele>
        <time>2021-08-27T06:53:54.000Z</time>
      </trkpt>
      <trkpt lat="49.84619" lon="4.78391">
        <ele>295</ele>
        <time>2021-08-27T06:53:55.000Z</time>
      </trkpt>
      <trkpt lat="49.8462" lon="4.78391">
        <ele>295</ele>
        <time>2021-08-27T06:53:56.000Z</time>
      </trkpt>
      <trkpt lat="49.84621" lon="4.78391">
        <ele>296</ele>
        <time>2021-08-27T06:53:57.000Z</time>
      </trkpt>
      <trkpt lat="49.84622" lon="4.78391">
        <ele>296</ele>
        <time>2021-08-27T06:53:58.000Z</time>
      </trkpt>
      <trkpt lat="49.84624" lon="4.78391">
        <ele>296</ele>
        <time>2021-08-27T06:53:59.000Z</time>
      </trkpt>
      <trkpt lat="49.84625" lon="4.7839">
        <ele>297</ele>
        <time>2021-08-27T06:54:00.000Z</time>
      </trkpt>
      <trkpt lat="49.84626" lon="4.78389">
        <ele>297</ele>
        <time>2021-08-27T06:54:01.000Z</time>
      </trkpt>
      <trkpt lat="49.84628" lon="4.78389">
        <ele>297</ele>
        <time>2021-08-27T06:54:02.000Z</time>
      </trkpt>
      <trkpt lat="49.84629" lon="4.78388">
        <ele>297</ele>
        <time>2021-08-27T06:54:03.000Z</time>
      </trkpt>
      <trkpt lat="49.84631" lon="4.78388">
        <ele>298</ele>
        <time>2021-08-27T06:54:04.000Z</time>
      </trkpt>
      <trkpt lat="49.84633" lon="4.78387">
        <ele>298</ele>
        <time>2021-08-27T06:54:05.000Z</time>
      </trkpt>
      <trkpt lat="49.84635" lon="4.78387">
        <ele>298</ele>
        <time>2021-08-27T06:54:06.000Z</time>
      </trkpt>
      <trkpt lat="49.84636" lon="4.78387">
        <ele>298</ele>
        <time>2021-08-27T06:54:07.000Z</time>
      </trkpt>
      <trkpt lat="49.84638" lon="4.78386">
        <ele>299</ele>
        <time>2021-08-27T06:54:08.000Z</time>
      </trkpt>
      <trkpt lat="49.84639" lon="4.78385">
        <ele>299</ele>
        <time>2021-08-27T06:54:09.000Z</time>
      </trkpt>
      <trkpt lat="49.84641" lon="4.78383">
        <ele>299</ele>
        <time>2021-08-27T06:54:10.000Z</time>
      </trkpt>
      <trkpt lat="49.84642" lon="4.78382">
        <ele>299</ele>
        <time>2021-08-27T06:54:11.000Z</time>
      </trkpt>
      <trkpt lat="49.84644" lon="4.78381">
        <ele>300</ele>
        <time>2021-08-27T06:54:12.000Z</time>
      </trkpt>
      <trkpt lat="49.84645" lon="4.7838">
        <ele>300</ele>
        <time>2021-08-27T06:54:13.000Z</time>
      </trkpt>
      <trkpt lat="49.84648" lon="4.78379">
        <ele>300</ele>
        <time>2021-08-27T06:54:14.000Z</time>
      </trkpt>
      <trkpt lat="49.8465" lon="4.78379">
        <ele>300</ele>
        <time>2021-08-27T06:54:15.000Z</time>
      </trkpt>
      <trkpt lat="49.84652" lon="4.78378">
        <ele>301</ele>
        <time>2021-08-27T06:54:16.000Z</time>
      </trkpt>
      <trkpt lat="49.84654" lon="4.78377">
        <ele>301</ele>
        <time>2021-08-27T06:54:17.000Z</time>
      </trkpt>
      <trkpt lat="49.84657" lon="4.78376">
        <ele>301</ele>
        <time>2021-08-27T06:54:18.000Z</time>
      </trkpt>
      <trkpt lat="49.8466" lon="4.78376">
        <ele>301</ele>
        <time>2021-08-27T06:54:19.000Z</time>
      </trkpt>
      <trkpt lat="49.84663" lon="4.78375">
        <ele>301</ele>
        <time>2021-08-27T06:54:20.000Z</time>
      </trkpt>
      <trkpt lat="49.84666" lon="4.78375">
        <ele>302</ele>
        <time>2021-08-27T06:54:21.000Z</time>
      </trkpt>
      <trkpt lat="49.84668" lon="4.78375">
        <ele>302</ele>
        <time>2021-08-27T06:54:22.000Z</time>
      </trkpt>
      <trkpt lat="49.84671" lon="4.78375">
        <ele>302</ele>
        <time>2021-08-27T06:54:23.000Z</time>
      </trkpt>
      <trkpt lat="49.84673" lon="4.78374">
        <ele>302</ele>
        <time>2021-08-27T06:54:24.000Z</time>
      </trkpt>
      <trkpt lat="49.84676" lon="4.78373">
        <ele>302</ele>
        <time>2021-08-27T06:54:25.000Z</time>
      </trkpt>
      <trkpt lat="49.84678" lon="4.78372">
        <ele>302</ele>
        <time>2021-08-27T06:54:26.000Z</time>
      </trkpt>
      <trkpt lat="49.84681" lon="4.78371">
        <ele>302</ele>
        <time>2021-08-27T06:54:27.000Z</time>
      </trkpt>
      <trkpt lat="49.84683" lon="4.7837">
        <ele>303</ele>
        <time>2021-08-27T06:54:28.000Z</time>
      </trkpt>
      <trkpt lat="49.84685" lon="4.7837">
        <ele>303</ele>
        <time>2021-08-27T06:54:29.000Z</time>
      </trkpt>
      <trkpt lat="49.84687" lon="4.7837">
        <ele>303</ele>
        <time>2021-08-27T06:54:30.000Z</time>
      </trkpt>
      <trkpt lat="49.84688" lon="4.78369">
        <ele>303</ele>
        <time>2021-08-27T06:54:31.000Z</time>
      </trkpt>
      <trkpt lat="49.8469" lon="4.78368">
        <ele>303</ele>
        <time>2021-08-27T06:54:32.000Z</time>
      </trkpt>
      <trkpt lat="49.84692" lon="4.78368">
        <ele>303</ele>
        <time>2021-08-27T06:54:33.000Z</time>
      </trkpt>
      <trkpt lat="49.84695" lon="4.78368">
        <ele>303</ele>
        <time>2021-08-27T06:54:34.000Z</time>
      </trkpt>
      <trkpt lat="49.84698" lon="4.78369">
        <ele>303</ele>
        <time>2021-08-27T06:54:35.000Z</time>
      </trkpt>
      <trkpt lat="49.84701" lon="4.78369">
        <ele>303</ele>
        <time>2021-08-27T06:54:36.000Z</time>
      </trkpt>
      <trkpt lat="49.84706" lon="4.78368">
        <ele>303</ele>
        <time>2021-08-27T06:54:37.000Z</time>
      </trkpt>
      <trkpt lat="49.84711" lon="4.78368">
        <ele>303</ele>
        <time>2021-08-27T06:54:38.000Z</time>
      </trkpt>
      <trkpt lat="49.84715" lon="4.78368">
        <ele>303</ele>
        <time>2021-08-27T06:54:39.000Z</time>
      </trkpt>
      <trkpt lat="49.84719" lon="4.78369">
        <ele>303</ele>
        <time>2021-08-27T06:54:40.000Z</time>
      </trkpt>
      <trkpt lat="49.84722" lon="4.78372">
        <ele>304</ele>
        <time>2021-08-27T06:54:41.000Z</time>
      </trkpt>
      <trkpt lat="49.84725" lon="4.78376">
        <ele>304</ele>
        <time>2021-08-27T06:54:42.000Z</time>
      </trkpt>
      <trkpt lat="49.84727" lon="4.78379">
        <ele>304</ele>
        <time>2021-08-27T06:54:43.000Z</time>
      </trkpt>
      <trkpt lat="49.84728" lon="4.78382">
        <ele>304</ele>
        <time>2021-08-27T06:54:44.000Z</time>
      </trkpt>
      <trkpt lat="49.84729" lon="4.78385">
        <ele>304</ele>
        <time>2021-08-27T06:54:45.000Z</time>
      </trkpt>
      <trkpt lat="49.84729" lon="4.78387">
        <ele>304</ele>
        <time>2021-08-27T06:54:46.000Z</time>
      </trkpt>
      <trkpt lat="49.8473" lon="4.78389">
        <ele>304</ele>
        <time>2021-08-27T06:54:47.000Z</time>
      </trkpt>
      <trkpt lat="49.84731" lon="4.78392">
        <ele>304</ele>
        <time>2021-08-27T06:54:48.000Z</time>
      </trkpt>
      <trkpt lat="49.84731" lon="4.78395">
        <ele>305</ele>
        <time>2021-08-27T06:54:49.000Z</time>
      </trkpt>
      <trkpt lat="49.84731" lon="4.78397">
        <ele>305</ele>
        <time>2021-08-27T06:54:50.000Z</time>
      </trkpt>
      <trkpt lat="49.84732" lon="4.784">
        <ele>305</ele>
        <time>2021-08-27T06:54:51.000Z</time>
      </trkpt>
      <trkpt lat="49.84732" lon="4.78403">
        <ele>305</ele>
        <time>2021-08-27T06:54:52.000Z</time>
      </trkpt>
      <trkpt lat="49.84732" lon="4.78406">
        <ele>306</ele>
        <time>2021-08-27T06:54:53.000Z</time>
      </trkpt>
      <trkpt lat="49.84732" lon="4.7841">
        <ele>306</ele>
        <time>2021-08-27T06:54:54.000Z</time>
      </trkpt>
      <trkpt lat="49.84732" lon="4.78413">
        <ele>306</ele>
        <time>2021-08-27T06:54:55.000Z</time>
      </trkpt>
      <trkpt lat="49.84732" lon="4.78417">
        <ele>306</ele>
        <time>2021-08-27T06:54:56.000Z</time>
      </trkpt>
      <trkpt lat="49.84732" lon="4.78421">
        <ele>306</ele>
        <time>2021-08-27T06:54:57.000Z</time>
      </trkpt>
      <trkpt lat="49.84731" lon="4.78424">
        <ele>306</ele>
        <time>2021-08-27T06:54:58.000Z</time>
      </trkpt>
      <trkpt lat="49.84731" lon="4.78428">
        <ele>307</ele>
        <time>2021-08-27T06:54:59.000Z</time>
      </trkpt>
      <trkpt lat="49.8473" lon="4.78431">
        <ele>307</ele>
        <time>2021-08-27T06:55:00.000Z</time>
      </trkpt>
      <trkpt lat="49.8473" lon="4.78434">
        <ele>307</ele>
        <time>2021-08-27T06:55:01.000Z</time>
      </trkpt>
      <trkpt lat="49.84729" lon="4.78436">
        <ele>307</ele>
        <time>2021-08-27T06:55:02.000Z</time>
      </trkpt>
      <trkpt lat="49.84729" lon="4.78439">
        <ele>307</ele>
        <time>2021-08-27T06:55:03.000Z</time>
      </trkpt>
      <trkpt lat="49.84728" lon="4.78442">
        <ele>308</ele>
        <time>2021-08-27T06:55:04.000Z</time>
      </trkpt>
      <trkpt lat="49.84728" lon="4.78445">
        <ele>308</ele>
        <time>2021-08-27T06:55:05.000Z</time>
      </trkpt>
      <trkpt lat="49.84728" lon="4.78447">
        <ele>308</ele>
        <time>2021-08-27T06:55:06.000Z</time>
      </trkpt>
      <trkpt lat="49.84729" lon="4.7845">
        <ele>308</ele>
        <time>2021-08-27T06:55:07.000Z</time>
      </trkpt>
      <trkpt lat="49.84729" lon="4.78452">
        <ele>308</ele>
        <time>2021-08-27T06:55:08.000Z</time>
      </trkpt>
      <trkpt lat="49.84728" lon="4.78454">
        <ele>308</ele>
        <time>2021-08-27T06:55:09.000Z</time>
      </trkpt>
      <trkpt lat="49.84728" lon="4.78457">
        <ele>309</ele>
        <time>2021-08-27T06:55:10.000Z</time>
      </trkpt>
      <trkpt lat="49.84728" lon="4.78459">
        <ele>309</ele>
        <time>2021-08-27T06:55:11.000Z</time>
      </trkpt>
      <trkpt lat="49.84728" lon="4.78462">
        <ele>309</ele>
        <time>2021-08-27T06:55:12.000Z</time>
      </trkpt>
      <trkpt lat="49.84728" lon="4.78464">
        <ele>309</ele>
        <time>2021-08-27T06:55:13.000Z</time>
      </trkpt>
      <trkpt lat="49.84728" lon="4.78467">
        <ele>309</ele>
        <time>2021-08-27T06:55:14.000Z</time>
      </trkpt>
      <trkpt lat="49.84728" lon="4.78469">
        <ele>309</ele>
        <time>2021-08-27T06:55:15.000Z</time>
      </trkpt>
      <trkpt lat="49.84728" lon="4.78472">
        <ele>310</ele>
        <time>2021-08-27T06:55:16.000Z</time>
      </trkpt>
      <trkpt lat="49.84727" lon="4.78475">
        <ele>310</ele>
        <time>2021-08-27T06:55:17.000Z</time>
      </trkpt>
      <trkpt lat="49.84727" lon="4.78478">
        <ele>310</ele>
        <time>2021-08-27T06:55:18.000Z</time>
      </trkpt>
      <trkpt lat="49.84726" lon="4.78481">
        <ele>310</ele>
        <time>2021-08-27T06:55:19.000Z</time>
      </trkpt>
      <trkpt lat="49.84726" lon="4.78484">
        <ele>310</ele>
        <time>2021-08-27T06:55:20.000Z</time>
      </trkpt>
      <trkpt lat="49.84725" lon="4.78488">
        <ele>311</ele>
        <time>2021-08-27T06:55:21.000Z</time>
      </trkpt>
      <trkpt lat="49.84724" lon="4.78491">
        <ele>311</ele>
        <time>2021-08-27T06:55:22.000Z</time>
      </trkpt>
      <trkpt lat="49.84723" lon="4.78495">
        <ele>311</ele>
        <time>2021-08-27T06:55:23.000Z</time>
      </trkpt>
      <trkpt lat="49.84722" lon="4.78498">
        <ele>311</ele>
        <time>2021-08-27T06:55:24.000Z</time>
      </trkpt>
      <trkpt lat="49.84721" lon="4.78501">
        <ele>311</ele>
        <time>2021-08-27T06:55:25.000Z</time>
      </trkpt>
      <trkpt lat="49.8472" lon="4.78505">
        <ele>311</ele>
        <time>2021-08-27T06:55:26.000Z</time>
      </trkpt>
      <trkpt lat="49.84719" lon="4.78509">
        <ele>311</ele>
        <time>2021-08-27T06:55:27.000Z</time>
      </trkpt>
      <trkpt lat="49.84719" lon="4.78513">
        <ele>312</ele>
        <time>2021-08-27T06:55:28.000Z</time>
      </trkpt>
      <trkpt lat="49.84718" lon="4.78516">
        <ele>312</ele>
        <time>2021-08-27T06:55:29.000Z</time>
      </trkpt>
      <trkpt lat="49.84717" lon="4.7852">
        <ele>312</ele>
        <time>2021-08-27T06:55:30.000Z</time>
      </trkpt>
      <trkpt lat="49.84716" lon="4.78524">
        <ele>312</ele>
        <time>2021-08-27T06:55:31.000Z</time>
      </trkpt>
      <trkpt lat="49.84716" lon="4.78527">
        <ele>312</ele>
        <time>2021-08-27T06:55:32.000Z</time>
      </trkpt>
      <trkpt lat="49.84715" lon="4.78531">
        <ele>313</ele>
        <time>2021-08-27T06:55:33.000Z</time>
      </trkpt>
      <trkpt lat="49.84715" lon="4.78535">
        <ele>313</ele>
        <time>2021-08-27T06:55:34.000Z</time>
      </trkpt>
      <trkpt lat="49.84714" lon="4.78539">
        <ele>313</ele>
        <time>2021-08-27T06:55:35.000Z</time>
      </trkpt>
      <trkpt lat="49.84714" lon="4.78542">
        <ele>313</ele>
        <time>2021-08-27T06:55:36.000Z</time>
      </trkpt>
      <trkpt lat="49.84714" lon="4.78545">
        <ele>314</ele>
        <time>2021-08-27T06:55:37.000Z</time>
      </trkpt>
      <trkpt lat="49.84713" lon="4.78549">
        <ele>314</ele>
        <time>2021-08-27T06:55:38.000Z</time>
      </trkpt>
      <trkpt lat="49.84713" lon="4.78552">
        <ele>314</ele>
        <time>2021-08-27T06:55:39.000Z</time>
      </trkpt>
      <trkpt lat="49.84713" lon="4.78556">
        <ele>315</ele>
        <time>2021-08-27T06:55:40.000Z</time>
      </trkpt>
      <trkpt lat="49.84712" lon="4.78559">
        <ele>315</ele>
        <time>2021-08-27T06:55:41.000Z</time>
      </trkpt>
      <trkpt lat="49.84712" lon="4.78563">
        <ele>315</ele>
        <time>2021-08-27T06:55:42.000Z</time>
      </trkpt>
      <trkpt lat="49.84712" lon="4.78567">
        <ele>316</ele>
        <time>2021-08-27T06:55:43.000Z</time>
      </trkpt>
      <trkpt lat="49.84713" lon="4.7857">
        <ele>316</ele>
        <time>2021-08-27T06:55:44.000Z</time>
      </trkpt>
      <trkpt lat="49.84713" lon="4.78574">
        <ele>316</ele>
        <time>2021-08-27T06:55:45.000Z</time>
      </trkpt>
      <trkpt lat="49.84713" lon="4.78578">
        <ele>316</ele>
        <time>2021-08-27T06:55:46.000Z</time>
      </trkpt>
      <trkpt lat="49.84713" lon="4.78581">
        <ele>317</ele>
        <time>2021-08-27T06:55:47.000Z</time>
      </trkpt>
      <trkpt lat="49.84713" lon="4.78585">
        <ele>317</ele>
        <time>2021-08-27T06:55:48.000Z</time>
      </trkpt>
      <trkpt lat="49.84713" lon="4.78589">
        <ele>317</ele>
        <time>2021-08-27T06:55:49.000Z</time>
      </trkpt>
      <trkpt lat="49.84713" lon="4.78592">
        <ele>318</ele>
        <time>2021-08-27T06:55:50.000Z</time>
      </trkpt>
      <trkpt lat="49.84713" lon="4.78595">
        <ele>318</ele>
        <time>2021-08-27T06:55:51.000Z</time>
      </trkpt>
      <trkpt lat="49.84714" lon="4.78599">
        <ele>318</ele>
        <time>2021-08-27T06:55:52.000Z</time>
      </trkpt>
      <trkpt lat="49.84714" lon="4.78602">
        <ele>318</ele>
        <time>2021-08-27T06:55:53.000Z</time>
      </trkpt>
      <trkpt lat="49.84714" lon="4.78606">
        <ele>319</ele>
        <time>2021-08-27T06:55:54.000Z</time>
      </trkpt>
      <trkpt lat="49.84714" lon="4.78608">
        <ele>319</ele>
        <time>2021-08-27T06:55:55.000Z</time>
      </trkpt>
      <trkpt lat="49.84714" lon="4.78611">
        <ele>319</ele>
        <time>2021-08-27T06:55:56.000Z</time>
      </trkpt>
      <trkpt lat="49.84714" lon="4.78614">
        <ele>319</ele>
        <time>2021-08-27T06:55:57.000Z</time>
      </trkpt>
      <trkpt lat="49.84713" lon="4.78618">
        <ele>320</ele>
        <time>2021-08-27T06:55:58.000Z</time>
      </trkpt>
      <trkpt lat="49.84713" lon="4.78621">
        <ele>320</ele>
        <time>2021-08-27T06:55:59.000Z</time>
      </trkpt>
      <trkpt lat="49.84713" lon="4.78624">
        <ele>320</ele>
        <time>2021-08-27T06:56:00.000Z</time>
      </trkpt>
      <trkpt lat="49.84712" lon="4.78627">
        <ele>320</ele>
        <time>2021-08-27T06:56:01.000Z</time>
      </trkpt>
      <trkpt lat="49.84712" lon="4.78631">
        <ele>321</ele>
        <time>2021-08-27T06:56:02.000Z</time>
      </trkpt>
      <trkpt lat="49.84711" lon="4.78634">
        <ele>321</ele>
        <time>2021-08-27T06:56:03.000Z</time>
      </trkpt>
      <trkpt lat="49.84711" lon="4.78637">
        <ele>321</ele>
        <time>2021-08-27T06:56:04.000Z</time>
      </trkpt>
      <trkpt lat="49.84711" lon="4.7864">
        <ele>322</ele>
        <time>2021-08-27T06:56:05.000Z</time>
      </trkpt>
      <trkpt lat="49.8471" lon="4.78643">
        <ele>322</ele>
        <time>2021-08-27T06:56:06.000Z</time>
      </trkpt>
      <trkpt lat="49.8471" lon="4.78646">
        <ele>323</ele>
        <time>2021-08-27T06:56:07.000Z</time>
      </trkpt>
      <trkpt lat="49.84709" lon="4.78649">
        <ele>323</ele>
        <time>2021-08-27T06:56:08.000Z</time>
      </trkpt>
      <trkpt lat="49.84709" lon="4.78653">
        <ele>324</ele>
        <time>2021-08-27T06:56:09.000Z</time>
      </trkpt>
      <trkpt lat="49.84708" lon="4.78656">
        <ele>324</ele>
        <time>2021-08-27T06:56:10.000Z</time>
      </trkpt>
      <trkpt lat="49.84708" lon="4.78659">
        <ele>324</ele>
        <time>2021-08-27T06:56:11.000Z</time>
      </trkpt>
      <trkpt lat="49.84708" lon="4.78662">
        <ele>325</ele>
        <time>2021-08-27T06:56:12.000Z</time>
      </trkpt>
      <trkpt lat="49.84707" lon="4.78664">
        <ele>325</ele>
        <time>2021-08-27T06:56:13.000Z</time>
      </trkpt>
      <trkpt lat="49.84707" lon="4.78667">
        <ele>325</ele>
        <time>2021-08-27T06:56:14.000Z</time>
      </trkpt>
      <trkpt lat="49.84707" lon="4.7867">
        <ele>326</ele>
        <time>2021-08-27T06:56:15.000Z</time>
      </trkpt>
      <trkpt lat="49.84707" lon="4.78673">
        <ele>326</ele>
        <time>2021-08-27T06:56:16.000Z</time>
      </trkpt>
      <trkpt lat="49.84707" lon="4.78676">
        <ele>326</ele>
        <time>2021-08-27T06:56:17.000Z</time>
      </trkpt>
      <trkpt lat="49.84707" lon="4.78679">
        <ele>326</ele>
        <time>2021-08-27T06:56:18.000Z</time>
      </trkpt>
      <trkpt lat="49.84707" lon="4.78682">
        <ele>327</ele>
        <time>2021-08-27T06:56:19.000Z</time>
      </trkpt>
      <trkpt lat="49.84707" lon="4.78685">
        <ele>327</ele>
        <time>2021-08-27T06:56:20.000Z</time>
      </trkpt>
      <trkpt lat="49.84708" lon="4.78688">
        <ele>327</ele>
        <time>2021-08-27T06:56:21.000Z</time>
      </trkpt>
      <trkpt lat="49.84708" lon="4.78691">
        <ele>328</ele>
        <time>2021-08-27T06:56:22.000Z</time>
      </trkpt>
      <trkpt lat="49.84708" lon="4.78694">
        <ele>328</ele>
        <time>2021-08-27T06:56:23.000Z</time>
      </trkpt>
      <trkpt lat="49.84708" lon="4.78697">
        <ele>328</ele>
        <time>2021-08-27T06:56:24.000Z</time>
      </trkpt>
      <trkpt lat="49.84709" lon="4.787">
        <ele>329</ele>
        <time>2021-08-27T06:56:25.000Z</time>
      </trkpt>
      <trkpt lat="49.84709" lon="4.78704">
        <ele>329</ele>
        <time>2021-08-27T06:56:26.000Z</time>
      </trkpt>
      <trkpt lat="49.84709" lon="4.78707">
        <ele>329</ele>
        <time>2021-08-27T06:56:27.000Z</time>
      </trkpt>
      <trkpt lat="49.8471" lon="4.7871">
        <ele>330</ele>
        <time>2021-08-27T06:56:28.000Z</time>
      </trkpt>
      <trkpt lat="49.8471" lon="4.78714">
        <ele>330</ele>
        <time>2021-08-27T06:56:29.000Z</time>
      </trkpt>
      <trkpt lat="49.8471" lon="4.78717">
        <ele>331</ele>
        <time>2021-08-27T06:56:30.000Z</time>
      </trkpt>
      <trkpt lat="49.84711" lon="4.7872">
        <ele>331</ele>
        <time>2021-08-27T06:56:31.000Z</time>
      </trkpt>
      <trkpt lat="49.84711" lon="4.78723">
        <ele>331</ele>
        <time>2021-08-27T06:56:32.000Z</time>
      </trkpt>
      <trkpt lat="49.84712" lon="4.78726">
        <ele>332</ele>
        <time>2021-08-27T06:56:33.000Z</time>
      </trkpt>
      <trkpt lat="49.84712" lon="4.78728">
        <ele>332</ele>
        <time>2021-08-27T06:56:34.000Z</time>
      </trkpt>
      <trkpt lat="49.84713" lon="4.78732">
        <ele>332</ele>
        <time>2021-08-27T06:56:35.000Z</time>
      </trkpt>
      <trkpt lat="49.84713" lon="4.78735">
        <ele>333</ele>
        <time>2021-08-27T06:56:36.000Z</time>
      </trkpt>
      <trkpt lat="49.84714" lon="4.78738">
        <ele>333</ele>
        <time>2021-08-27T06:56:37.000Z</time>
      </trkpt>
      <trkpt lat="49.84714" lon="4.78741">
        <ele>333</ele>
        <time>2021-08-27T06:56:38.000Z</time>
      </trkpt>
      <trkpt lat="49.84714" lon="4.78744">
        <ele>334</ele>
        <time>2021-08-27T06:56:39.000Z</time>
      </trkpt>
      <trkpt lat="49.84715" lon="4.78747">
        <ele>334</ele>
        <time>2021-08-27T06:56:40.000Z</time>
      </trkpt>
      <trkpt lat="49.84715" lon="4.7875">
        <ele>334</ele>
        <time>2021-08-27T06:56:41.000Z</time>
      </trkpt>
      <trkpt lat="49.84715" lon="4.78753">
        <ele>335</ele>
        <time>2021-08-27T06:56:42.000Z</time>
      </trkpt>
      <trkpt lat="49.84716" lon="4.78756">
        <ele>335</ele>
        <time>2021-08-27T06:56:43.000Z</time>
      </trkpt>
      <trkpt lat="49.84716" lon="4.78759">
        <ele>335</ele>
        <time>2021-08-27T06:56:44.000Z</time>
      </trkpt>
      <trkpt lat="49.84716" lon="4.78763">
        <ele>335</ele>
        <time>2021-08-27T06:56:45.000Z</time>
      </trkpt>
      <trkpt lat="49.84716" lon="4.78766">
        <ele>336</ele>
        <time>2021-08-27T06:56:46.000Z</time>
      </trkpt>
      <trkpt lat="49.84716" lon="4.7877">
        <ele>336</ele>
        <time>2021-08-27T06:56:47.000Z</time>
      </trkpt>
      <trkpt lat="49.84717" lon="4.78774">
        <ele>336</ele>
        <time>2021-08-27T06:56:48.000Z</time>
      </trkpt>
      <trkpt lat="49.84717" lon="4.78778">
        <ele>336</ele>
        <time>2021-08-27T06:56:49.000Z</time>
      </trkpt>
      <trkpt lat="49.84717" lon="4.78782">
        <ele>336</ele>
        <time>2021-08-27T06:56:50.000Z</time>
      </trkpt>
      <trkpt lat="49.84718" lon="4.78786">
        <ele>337</ele>
        <time>2021-08-27T06:56:51.000Z</time>
      </trkpt>
      <trkpt lat="49.84718" lon="4.7879">
        <ele>337</ele>
        <time>2021-08-27T06:56:52.000Z</time>
      </trkpt>
      <trkpt lat="49.84718" lon="4.78795">
        <ele>337</ele>
        <time>2021-08-27T06:56:53.000Z</time>
      </trkpt>
      <trkpt lat="49.84719" lon="4.78799">
        <ele>337</ele>
        <time>2021-08-27T06:56:54.000Z</time>
      </trkpt>
      <trkpt lat="49.84719" lon="4.78803">
        <ele>337</ele>
        <time>2021-08-27T06:56:55.000Z</time>
      </trkpt>
      <trkpt lat="49.84719" lon="4.78807">
        <ele>337</ele>
        <time>2021-08-27T06:56:56.000Z</time>
      </trkpt>
      <trkpt lat="49.84719" lon="4.78812">
        <ele>338</ele>
        <time>2021-08-27T06:56:57.000Z</time>
      </trkpt>
      <trkpt lat="49.8472" lon="4.78817">
        <ele>338</ele>
        <time>2021-08-27T06:56:58.000Z</time>
      </trkpt>
      <trkpt lat="49.8472" lon="4.78822">
        <ele>338</ele>
        <time>2021-08-27T06:56:59.000Z</time>
      </trkpt>
      <trkpt lat="49.8472" lon="4.78828">
        <ele>338</ele>
        <time>2021-08-27T06:57:00.000Z</time>
      </trkpt>
      <trkpt lat="49.8472" lon="4.78834">
        <ele>338</ele>
        <time>2021-08-27T06:57:01.000Z</time>
      </trkpt>
      <trkpt lat="49.8472" lon="4.7884">
        <ele>338</ele>
        <time>2021-08-27T06:57:02.000Z</time>
      </trkpt>
      <trkpt lat="49.8472" lon="4.78845">
        <ele>339</ele>
        <time>2021-08-27T06:57:03.000Z</time>
      </trkpt>
      <trkpt lat="49.84721" lon="4.7885">
        <ele>339</ele>
        <time>2021-08-27T06:57:04.000Z</time>
      </trkpt>
      <trkpt lat="49.84721" lon="4.78856">
        <ele>339</ele>
        <time>2021-08-27T06:57:05.000Z</time>
      </trkpt>
      <trkpt lat="49.84721" lon="4.78861">
        <ele>339</ele>
        <time>2021-08-27T06:57:06.000Z</time>
      </trkpt>
      <trkpt lat="49.84722" lon="4.78867">
        <ele>339</ele>
        <time>2021-08-27T06:57:07.000Z</time>
      </trkpt>
      <trkpt lat="49.84722" lon="4.78873">
        <ele>339</ele>
        <time>2021-08-27T06:57:08.000Z</time>
      </trkpt>
      <trkpt lat="49.84722" lon="4.78879">
        <ele>339</ele>
        <time>2021-08-27T06:57:09.000Z</time>
      </trkpt>
      <trkpt lat="49.84723" lon="4.78884">
        <ele>339</ele>
        <time>2021-08-27T06:57:10.000Z</time>
      </trkpt>
      <trkpt lat="49.84723" lon="4.7889">
        <ele>339</ele>
        <time>2021-08-27T06:57:11.000Z</time>
      </trkpt>
      <trkpt lat="49.84724" lon="4.78895">
        <ele>340</ele>
        <time>2021-08-27T06:57:12.000Z</time>
      </trkpt>
      <trkpt lat="49.84724" lon="4.78901">
        <ele>340</ele>
        <time>2021-08-27T06:57:13.000Z</time>
      </trkpt>
      <trkpt lat="49.84724" lon="4.78907">
        <ele>340</ele>
        <time>2021-08-27T06:57:14.000Z</time>
      </trkpt>
      <trkpt lat="49.84724" lon="4.78912">
        <ele>340</ele>
        <time>2021-08-27T06:57:15.000Z</time>
      </trkpt>
      <trkpt lat="49.84724" lon="4.78918">
        <ele>340</ele>
        <time>2021-08-27T06:57:16.000Z</time>
      </trkpt>
      <trkpt lat="49.84725" lon="4.78924">
        <ele>340</ele>
        <time>2021-08-27T06:57:17.000Z</time>
      </trkpt>
      <trkpt lat="49.84725" lon="4.7893">
        <ele>340</ele>
        <time>2021-08-27T06:57:18.000Z</time>
      </trkpt>
      <trkpt lat="49.84726" lon="4.78936">
        <ele>340</ele>
        <time>2021-08-27T06:57:19.000Z</time>
      </trkpt>
      <trkpt lat="49.84727" lon="4.78942">
        <ele>340</ele>
        <time>2021-08-27T06:57:20.000Z</time>
      </trkpt>
      <trkpt lat="49.84728" lon="4.78948">
        <ele>340</ele>
        <time>2021-08-27T06:57:21.000Z</time>
      </trkpt>
      <trkpt lat="49.84729" lon="4.78954">
        <ele>340</ele>
        <time>2021-08-27T06:57:22.000Z</time>
      </trkpt>
      <trkpt lat="49.8473" lon="4.7896">
        <ele>340</ele>
        <time>2021-08-27T06:57:23.000Z</time>
      </trkpt>
      <trkpt lat="49.8473" lon="4.78965">
        <ele>340</ele>
        <time>2021-08-27T06:57:24.000Z</time>
      </trkpt>
      <trkpt lat="49.84731" lon="4.7897">
        <ele>340</ele>
        <time>2021-08-27T06:57:25.000Z</time>
      </trkpt>
      <trkpt lat="49.84732" lon="4.78974">
        <ele>340</ele>
        <time>2021-08-27T06:57:26.000Z</time>
      </trkpt>
      <trkpt lat="49.84733" lon="4.78978">
        <ele>340</ele>
        <time>2021-08-27T06:57:27.000Z</time>
      </trkpt>
      <trkpt lat="49.84733" lon="4.78981">
        <ele>340</ele>
        <time>2021-08-27T06:57:28.000Z</time>
      </trkpt>
      <trkpt lat="49.84734" lon="4.78983">
        <ele>340</ele>
        <time>2021-08-27T06:57:29.000Z</time>
      </trkpt>
      <trkpt lat="49.84734" lon="4.78986">
        <ele>340</ele>
        <time>2021-08-27T06:57:30.000Z</time>
      </trkpt>
      <trkpt lat="49.84733" lon="4.7899">
        <ele>340</ele>
        <time>2021-08-27T06:57:31.000Z</time>
      </trkpt>
      <trkpt lat="49.84733" lon="4.78993">
        <ele>340</ele>
        <time>2021-08-27T06:57:32.000Z</time>
      </trkpt>
      <trkpt lat="49.84733" lon="4.78997">
        <ele>341</ele>
        <time>2021-08-27T06:57:33.000Z</time>
      </trkpt>
      <trkpt lat="49.84732" lon="4.79001">
        <ele>341</ele>
        <time>2021-08-27T06:57:34.000Z</time>
      </trkpt>
      <trkpt lat="49.84731" lon="4.79005">
        <ele>341</ele>
        <time>2021-08-27T06:57:35.000Z</time>
      </trkpt>
      <trkpt lat="49.8473" lon="4.79009">
        <ele>341</ele>
        <time>2021-08-27T06:57:36.000Z</time>
      </trkpt>
      <trkpt lat="49.8473" lon="4.79013">
        <ele>341</ele>
        <time>2021-08-27T06:57:37.000Z</time>
      </trkpt>
      <trkpt lat="49.84729" lon="4.79017">
        <ele>341</ele>
        <time>2021-08-27T06:57:38.000Z</time>
      </trkpt>
      <trkpt lat="49.84728" lon="4.7902">
        <ele>341</ele>
        <time>2021-08-27T06:57:39.000Z</time>
      </trkpt>
      <trkpt lat="49.84727" lon="4.79024">
        <ele>341</ele>
        <time>2021-08-27T06:57:40.000Z</time>
      </trkpt>
      <trkpt lat="49.84727" lon="4.79027">
        <ele>342</ele>
        <time>2021-08-27T06:57:41.000Z</time>
      </trkpt>
      <trkpt lat="49.84726" lon="4.7903">
        <ele>342</ele>
        <time>2021-08-27T06:57:42.000Z</time>
      </trkpt>
      <trkpt lat="49.84726" lon="4.79034">
        <ele>342</ele>
        <time>2021-08-27T06:57:43.000Z</time>
      </trkpt>
      <trkpt lat="49.84725" lon="4.79037">
        <ele>342</ele>
        <time>2021-08-27T06:57:44.000Z</time>
      </trkpt>
      <trkpt lat="49.84724" lon="4.7904">
        <ele>342</ele>
        <time>2021-08-27T06:57:45.000Z</time>
      </trkpt>
      <trkpt lat="49.84723" lon="4.79043">
        <ele>342</ele>
        <time>2021-08-27T06:57:46.000Z</time>
      </trkpt>
      <trkpt lat="49.84723" lon="4.79047">
        <ele>342</ele>
        <time>2021-08-27T06:57:47.000Z</time>
      </trkpt>
      <trkpt lat="49.84722" lon="4.7905">
        <ele>342</ele>
        <time>2021-08-27T06:57:48.000Z</time>
      </trkpt>
      <trkpt lat="49.84722" lon="4.79054">
        <ele>342</ele>
        <time>2021-08-27T06:57:49.000Z</time>
      </trkpt>
      <trkpt lat="49.84721" lon="4.79058">
        <ele>342</ele>
        <time>2021-08-27T06:57:50.000Z</time>
      </trkpt>
      <trkpt lat="49.8472" lon="4.79061">
        <ele>342</ele>
        <time>2021-08-27T06:57:51.000Z</time>
      </trkpt>
      <trkpt lat="49.84719" lon="4.79065">
        <ele>342</ele>
        <time>2021-08-27T06:57:52.000Z</time>
      </trkpt>
      <trkpt lat="49.84718" lon="4.79068">
        <ele>342</ele>
        <time>2021-08-27T06:57:53.000Z</time>
      </trkpt>
      <trkpt lat="49.84717" lon="4.79071">
        <ele>342</ele>
        <time>2021-08-27T06:57:54.000Z</time>
      </trkpt>
      <trkpt lat="49.84717" lon="4.79074">
        <ele>342</ele>
        <time>2021-08-27T06:57:55.000Z</time>
      </trkpt>
      <trkpt lat="49.84716" lon="4.79078">
        <ele>342</ele>
        <time>2021-08-27T06:57:56.000Z</time>
      </trkpt>
      <trkpt lat="49.84716" lon="4.79082">
        <ele>342</ele>
        <time>2021-08-27T06:57:57.000Z</time>
      </trkpt>
      <trkpt lat="49.84716" lon="4.79085">
        <ele>342</ele>
        <time>2021-08-27T06:57:58.000Z</time>
      </trkpt>
      <trkpt lat="49.84717" lon="4.79088">
        <ele>342</ele>
        <time>2021-08-27T06:57:59.000Z</time>
      </trkpt>
      <trkpt lat="49.84717" lon="4.79091">
        <ele>342</ele>
        <time>2021-08-27T06:58:00.000Z</time>
      </trkpt>
      <trkpt lat="49.84717" lon="4.79095">
        <ele>342</ele>
        <time>2021-08-27T06:58:01.000Z</time>
      </trkpt>
      <trkpt lat="49.84717" lon="4.79099">
        <ele>342</ele>
        <time>2021-08-27T06:58:02.000Z</time>
      </trkpt>
      <trkpt lat="49.84717" lon="4.79104">
        <ele>342</ele>
        <time>2021-08-27T06:58:03.000Z</time>
      </trkpt>
      <trkpt lat="49.84718" lon="4.79108">
        <ele>342</ele>
        <time>2021-08-27T06:58:04.000Z</time>
      </trkpt>
      <trkpt lat="49.84719" lon="4.79113">
        <ele>342</ele>
        <time>2021-08-27T06:58:05.000Z</time>
      </trkpt>
      <trkpt lat="49.8472" lon="4.79117">
        <ele>342</ele>
        <time>2021-08-27T06:58:06.000Z</time>
      </trkpt>
      <trkpt lat="49.84721" lon="4.79121">
        <ele>342</ele>
        <time>2021-08-27T06:58:07.000Z</time>
      </trkpt>
      <trkpt lat="49.84722" lon="4.79124">
        <ele>342</ele>
        <time>2021-08-27T06:58:08.000Z</time>
      </trkpt>
      <trkpt lat="49.84724" lon="4.79127">
        <ele>342</ele>
        <time>2021-08-27T06:58:09.000Z</time>
      </trkpt>
      <trkpt lat="49.84727" lon="4.79131">
        <ele>342</ele>
        <time>2021-08-27T06:58:10.000Z</time>
      </trkpt>
      <trkpt lat="49.8473" lon="4.79134">
        <ele>342</ele>
        <time>2021-08-27T06:58:11.000Z</time>
      </trkpt>
      <trkpt lat="49.84734" lon="4.79136">
        <ele>342</ele>
        <time>2021-08-27T06:58:12.000Z</time>
      </trkpt>
      <trkpt lat="49.84737" lon="4.79139">
        <ele>342</ele>
        <time>2021-08-27T06:58:13.000Z</time>
      </trkpt>
      <trkpt lat="49.84741" lon="4.79141">
        <ele>342</ele>
        <time>2021-08-27T06:58:14.000Z</time>
      </trkpt>
      <trkpt lat="49.84745" lon="4.79143">
        <ele>342</ele>
        <time>2021-08-27T06:58:15.000Z</time>
      </trkpt>
      <trkpt lat="49.84749" lon="4.79145">
        <ele>342</ele>
        <time>2021-08-27T06:58:16.000Z</time>
      </trkpt>
      <trkpt lat="49.84753" lon="4.79147">
        <ele>342</ele>
        <time>2021-08-27T06:58:17.000Z</time>
      </trkpt>
      <trkpt lat="49.84758" lon="4.7915">
        <ele>342</ele>
        <time>2021-08-27T06:58:18.000Z</time>
      </trkpt>
      <trkpt lat="49.84763" lon="4.79151">
        <ele>343</ele>
        <time>2021-08-27T06:58:19.000Z</time>
      </trkpt>
      <trkpt lat="49.84768" lon="4.79153">
        <ele>343</ele>
        <time>2021-08-27T06:58:20.000Z</time>
      </trkpt>
      <trkpt lat="49.84772" lon="4.79154">
        <ele>343</ele>
        <time>2021-08-27T06:58:21.000Z</time>
      </trkpt>
      <trkpt lat="49.84776" lon="4.79155">
        <ele>343</ele>
        <time>2021-08-27T06:58:22.000Z</time>
      </trkpt>
      <trkpt lat="49.8478" lon="4.79157">
        <ele>343</ele>
        <time>2021-08-27T06:58:23.000Z</time>
      </trkpt>
      <trkpt lat="49.84785" lon="4.79158">
        <ele>343</ele>
        <time>2021-08-27T06:58:24.000Z</time>
      </trkpt>
      <trkpt lat="49.8479" lon="4.79158">
        <ele>343</ele>
        <time>2021-08-27T06:58:25.000Z</time>
      </trkpt>
      <trkpt lat="49.84795" lon="4.79157">
        <ele>343</ele>
        <time>2021-08-27T06:58:26.000Z</time>
      </trkpt>
      <trkpt lat="49.848" lon="4.79154">
        <ele>343</ele>
        <time>2021-08-27T06:58:27.000Z</time>
      </trkpt>
      <trkpt lat="49.84804" lon="4.79151">
        <ele>343</ele>
        <time>2021-08-27T06:58:28.000Z</time>
      </trkpt>
      <trkpt lat="49.84808" lon="4.79147">
        <ele>343</ele>
        <time>2021-08-27T06:58:29.000Z</time>
      </trkpt>
      <trkpt lat="49.84812" lon="4.79143">
        <ele>343</ele>
        <time>2021-08-27T06:58:30.000Z</time>
      </trkpt>
      <trkpt lat="49.84816" lon="4.79139">
        <ele>343</ele>
        <time>2021-08-27T06:58:31.000Z</time>
      </trkpt>
      <trkpt lat="49.84819" lon="4.79134">
        <ele>343</ele>
        <time>2021-08-27T06:58:32.000Z</time>
      </trkpt>
      <trkpt lat="49.84823" lon="4.7913">
        <ele>343</ele>
        <time>2021-08-27T06:58:33.000Z</time>
      </trkpt>
      <trkpt lat="49.84827" lon="4.79127">
        <ele>343</ele>
        <time>2021-08-27T06:58:34.000Z</time>
      </trkpt>
      <trkpt lat="49.8483" lon="4.79124">
        <ele>343</ele>
        <time>2021-08-27T06:58:35.000Z</time>
      </trkpt>
      <trkpt lat="49.84833" lon="4.7912">
        <ele>343</ele>
        <time>2021-08-27T06:58:36.000Z</time>
      </trkpt>
      <trkpt lat="49.84835" lon="4.79117">
        <ele>343</ele>
        <time>2021-08-27T06:58:37.000Z</time>
      </trkpt>
      <trkpt lat="49.84837" lon="4.79114">
        <ele>343</ele>
        <time>2021-08-27T06:58:38.000Z</time>
      </trkpt>
      <trkpt lat="49.84838" lon="4.79111">
        <ele>343</ele>
        <time>2021-08-27T06:58:39.000Z</time>
      </trkpt>
      <trkpt lat="49.8484" lon="4.79109">
        <ele>343</ele>
        <time>2021-08-27T06:58:40.000Z</time>
      </trkpt>
      <trkpt lat="49.84842" lon="4.79106">
        <ele>343</ele>
        <time>2021-08-27T06:58:41.000Z</time>
      </trkpt>
      <trkpt lat="49.84844" lon="4.79103">
        <ele>343</ele>
        <time>2021-08-27T06:58:42.000Z</time>
      </trkpt>
      <trkpt lat="49.84845" lon="4.79101">
        <ele>343</ele>
        <time>2021-08-27T06:58:43.000Z</time>
      </trkpt>
      <trkpt lat="49.84847" lon="4.79098">
        <ele>343</ele>
        <time>2021-08-27T06:58:44.000Z</time>
      </trkpt>
      <trkpt lat="49.84849" lon="4.79095">
        <ele>343</ele>
        <time>2021-08-27T06:58:45.000Z</time>
      </trkpt>
      <trkpt lat="49.84851" lon="4.79092">
        <ele>343</ele>
        <time>2021-08-27T06:58:46.000Z</time>
      </trkpt>
      <trkpt lat="49.84852" lon="4.7909">
        <ele>344</ele>
        <time>2021-08-27T06:58:47.000Z</time>
      </trkpt>
      <trkpt lat="49.84853" lon="4.79087">
        <ele>344</ele>
        <time>2021-08-27T06:58:48.000Z</time>
      </trkpt>
      <trkpt lat="49.84855" lon="4.79084">
        <ele>344</ele>
        <time>2021-08-27T06:58:49.000Z</time>
      </trkpt>
      <trkpt lat="49.84857" lon="4.79081">
        <ele>344</ele>
        <time>2021-08-27T06:58:50.000Z</time>
      </trkpt>
      <trkpt lat="49.84858" lon="4.79078">
        <ele>344</ele>
        <time>2021-08-27T06:58:51.000Z</time>
      </trkpt>
      <trkpt lat="49.8486" lon="4.79076">
        <ele>344</ele>
        <time>2021-08-27T06:58:52.000Z</time>
      </trkpt>
      <trkpt lat="49.84861" lon="4.79073">
        <ele>344</ele>
        <time>2021-08-27T06:58:53.000Z</time>
      </trkpt>
      <trkpt lat="49.84863" lon="4.7907">
        <ele>344</ele>
        <time>2021-08-27T06:58:54.000Z</time>
      </trkpt>
      <trkpt lat="49.84864" lon="4.79068">
        <ele>344</ele>
        <time>2021-08-27T06:58:55.000Z</time>
      </trkpt>
      <trkpt lat="49.84866" lon="4.79065">
        <ele>344</ele>
        <time>2021-08-27T06:58:56.000Z</time>
      </trkpt>
      <trkpt lat="49.84868" lon="4.79063">
        <ele>344</ele>
        <time>2021-08-27T06:58:57.000Z</time>
      </trkpt>
      <trkpt lat="49.8487" lon="4.7906">
        <ele>344</ele>
        <time>2021-08-27T06:58:58.000Z</time>
      </trkpt>
      <trkpt lat="49.84872" lon="4.79057">
        <ele>344</ele>
        <time>2021-08-27T06:58:59.000Z</time>
      </trkpt>
      <trkpt lat="49.84874" lon="4.79054">
        <ele>344</ele>
        <time>2021-08-27T06:59:00.000Z</time>
      </trkpt>
      <trkpt lat="49.84877" lon="4.79052">
        <ele>344</ele>
        <time>2021-08-27T06:59:01.000Z</time>
      </trkpt>
      <trkpt lat="49.8488" lon="4.7905">
        <ele>344</ele>
        <time>2021-08-27T06:59:02.000Z</time>
      </trkpt>
      <trkpt lat="49.84882" lon="4.79048">
        <ele>345</ele>
        <time>2021-08-27T06:59:03.000Z</time>
      </trkpt>
      <trkpt lat="49.84885" lon="4.79046">
        <ele>345</ele>
        <time>2021-08-27T06:59:04.000Z</time>
      </trkpt>
      <trkpt lat="49.84887" lon="4.79043">
        <ele>345</ele>
        <time>2021-08-27T06:59:05.000Z</time>
      </trkpt>
      <trkpt lat="49.84889" lon="4.7904">
        <ele>345</ele>
        <time>2021-08-27T06:59:06.000Z</time>
      </trkpt>
      <trkpt lat="49.84892" lon="4.79038">
        <ele>345</ele>
        <time>2021-08-27T06:59:07.000Z</time>
      </trkpt>
      <trkpt lat="49.84894" lon="4.79037">
        <ele>345</ele>
        <time>2021-08-27T06:59:08.000Z</time>
      </trkpt>
      <trkpt lat="49.84896" lon="4.79036">
        <ele>345</ele>
        <time>2021-08-27T06:59:09.000Z</time>
      </trkpt>
      <trkpt lat="49.84899" lon="4.79036">
        <ele>345</ele>
        <time>2021-08-27T06:59:10.000Z</time>
      </trkpt>
      <trkpt lat="49.84901" lon="4.79036">
        <ele>345</ele>
        <time>2021-08-27T06:59:11.000Z</time>
      </trkpt>
      <trkpt lat="49.84903" lon="4.79037">
        <ele>345</ele>
        <time>2021-08-27T06:59:12.000Z</time>
      </trkpt>
      <trkpt lat="49.84905" lon="4.79039">
        <ele>345</ele>
        <time>2021-08-27T06:59:13.000Z</time>
      </trkpt>
      <trkpt lat="49.84906" lon="4.7904">
        <ele>345</ele>
        <time>2021-08-27T06:59:14.000Z</time>
      </trkpt>
      <trkpt lat="49.84906" lon="4.79043">
        <ele>345</ele>
        <time>2021-08-27T06:59:15.000Z</time>
      </trkpt>
      <trkpt lat="49.84906" lon="4.79045">
        <ele>345</ele>
        <time>2021-08-27T06:59:16.000Z</time>
      </trkpt>
      <trkpt lat="49.84906" lon="4.79047">
        <ele>345</ele>
        <time>2021-08-27T06:59:17.000Z</time>
      </trkpt>
      <trkpt lat="49.84906" lon="4.79049">
        <ele>345</ele>
        <time>2021-08-27T06:59:18.000Z</time>
      </trkpt>
      <trkpt lat="49.84906" lon="4.79052">
        <ele>345</ele>
        <time>2021-08-27T06:59:19.000Z</time>
      </trkpt>
      <trkpt lat="49.84906" lon="4.79055">
        <ele>345</ele>
        <time>2021-08-27T06:59:20.000Z</time>
      </trkpt>
      <trkpt lat="49.84905" lon="4.79058">
        <ele>345</ele>
        <time>2021-08-27T06:59:21.000Z</time>
      </trkpt>
      <trkpt lat="49.84904" lon="4.7906">
        <ele>345</ele>
        <time>2021-08-27T06:59:22.000Z</time>
      </trkpt>
      <trkpt lat="49.84903" lon="4.79063">
        <ele>345</ele>
        <time>2021-08-27T06:59:23.000Z</time>
      </trkpt>
      <trkpt lat="49.84902" lon="4.79065">
        <ele>345</ele>
        <time>2021-08-27T06:59:24.000Z</time>
      </trkpt>
      <trkpt lat="49.84901" lon="4.79066">
        <ele>345</ele>
        <time>2021-08-27T06:59:25.000Z</time>
      </trkpt>
      <trkpt lat="49.849" lon="4.79067">
        <ele>345</ele>
        <time>2021-08-27T06:59:26.000Z</time>
      </trkpt>
      <trkpt lat="49.84899" lon="4.79069">
        <ele>345</ele>
        <time>2021-08-27T06:59:27.000Z</time>
      </trkpt>
      <trkpt lat="49.84899" lon="4.79072">
        <ele>345</ele>
        <time>2021-08-27T06:59:28.000Z</time>
      </trkpt>
      <trkpt lat="49.84898" lon="4.79075">
        <ele>345</ele>
        <time>2021-08-27T06:59:29.000Z</time>
      </trkpt>
      <trkpt lat="49.84899" lon="4.79078">
        <ele>345</ele>
        <time>2021-08-27T06:59:30.000Z</time>
      </trkpt>
      <trkpt lat="49.84899" lon="4.79081">
        <ele>345</ele>
        <time>2021-08-27T06:59:31.000Z</time>
      </trkpt>
      <trkpt lat="49.849" lon="4.79085">
        <ele>345</ele>
        <time>2021-08-27T06:59:32.000Z</time>
      </trkpt>
      <trkpt lat="49.849" lon="4.79088">
        <ele>345</ele>
        <time>2021-08-27T06:59:33.000Z</time>
      </trkpt>
      <trkpt lat="49.84899" lon="4.79092">
        <ele>345</ele>
        <time>2021-08-27T06:59:34.000Z</time>
      </trkpt>
      <trkpt lat="49.84898" lon="4.79096">
        <ele>345</ele>
        <time>2021-08-27T06:59:35.000Z</time>
      </trkpt>
      <trkpt lat="49.84898" lon="4.791">
        <ele>345</ele>
        <time>2021-08-27T06:59:36.000Z</time>
      </trkpt>
      <trkpt lat="49.84897" lon="4.79104">
        <ele>345</ele>
        <time>2021-08-27T06:59:37.000Z</time>
      </trkpt>
      <trkpt lat="49.84897" lon="4.79108">
        <ele>345</ele>
        <time>2021-08-27T06:59:38.000Z</time>
      </trkpt>
      <trkpt lat="49.84896" lon="4.79112">
        <ele>346</ele>
        <time>2021-08-27T06:59:39.000Z</time>
      </trkpt>
      <trkpt lat="49.84896" lon="4.79117">
        <ele>346</ele>
        <time>2021-08-27T06:59:40.000Z</time>
      </trkpt>
      <trkpt lat="49.84895" lon="4.79122">
        <ele>346</ele>
        <time>2021-08-27T06:59:41.000Z</time>
      </trkpt>
      <trkpt lat="49.84895" lon="4.79127">
        <ele>346</ele>
        <time>2021-08-27T06:59:42.000Z</time>
      </trkpt>
      <trkpt lat="49.84894" lon="4.79133">
        <ele>346</ele>
        <time>2021-08-27T06:59:43.000Z</time>
      </trkpt>
      <trkpt lat="49.84893" lon="4.79138">
        <ele>346</ele>
        <time>2021-08-27T06:59:44.000Z</time>
      </trkpt>
      <trkpt lat="49.84893" lon="4.79144">
        <ele>346</ele>
        <time>2021-08-27T06:59:45.000Z</time>
      </trkpt>
      <trkpt lat="49.84892" lon="4.79149">
        <ele>346</ele>
        <time>2021-08-27T06:59:46.000Z</time>
      </trkpt>
      <trkpt lat="49.84891" lon="4.79154">
        <ele>346</ele>
        <time>2021-08-27T06:59:47.000Z</time>
      </trkpt>
      <trkpt lat="49.8489" lon="4.79159">
        <ele>346</ele>
        <time>2021-08-27T06:59:48.000Z</time>
      </trkpt>
      <trkpt lat="49.84889" lon="4.79165">
        <ele>346</ele>
        <time>2021-08-27T06:59:49.000Z</time>
      </trkpt>
      <trkpt lat="49.84888" lon="4.7917">
        <ele>347</ele>
        <time>2021-08-27T06:59:50.000Z</time>
      </trkpt>
      <trkpt lat="49.84887" lon="4.79175">
        <ele>347</ele>
        <time>2021-08-27T06:59:51.000Z</time>
      </trkpt>
      <trkpt lat="49.84886" lon="4.7918">
        <ele>347</ele>
        <time>2021-08-27T06:59:52.000Z</time>
      </trkpt>
      <trkpt lat="49.84885" lon="4.79185">
        <ele>347</ele>
        <time>2021-08-27T06:59:53.000Z</time>
      </trkpt>
      <trkpt lat="49.84884" lon="4.79189">
        <ele>347</ele>
        <time>2021-08-27T06:59:54.000Z</time>
      </trkpt>
      <trkpt lat="49.84884" lon="4.79194">
        <ele>347</ele>
        <time>2021-08-27T06:59:55.000Z</time>
      </trkpt>
      <trkpt lat="49.84884" lon="4.79199">
        <ele>347</ele>
        <time>2021-08-27T06:59:56.000Z</time>
      </trkpt>
      <trkpt lat="49.84883" lon="4.79203">
        <ele>347</ele>
        <time>2021-08-27T06:59:57.000Z</time>
      </trkpt>
      <trkpt lat="49.84883" lon="4.79207">
        <ele>347</ele>
        <time>2021-08-27T06:59:58.000Z</time>
      </trkpt>
      <trkpt lat="49.84882" lon="4.7921">
        <ele>347</ele>
        <time>2021-08-27T06:59:59.000Z</time>
      </trkpt>
      <trkpt lat="49.84881" lon="4.79215">
        <ele>347</ele>
        <time>2021-08-27T07:00:00.000Z</time>
      </trkpt>
      <trkpt lat="49.8488" lon="4.7922">
        <ele>347</ele>
        <time>2021-08-27T07:00:01.000Z</time>
      </trkpt>
      <trkpt lat="49.84879" lon="4.79224">
        <ele>347</ele>
        <time>2021-08-27T07:00:02.000Z</time>
      </trkpt>
      <trkpt lat="49.84878" lon="4.7923">
        <ele>347</ele>
        <time>2021-08-27T07:00:03.000Z</time>
      </trkpt>
      <trkpt lat="49.84877" lon="4.79236">
        <ele>347</ele>
        <time>2021-08-27T07:00:04.000Z</time>
      </trkpt>
      <trkpt lat="49.84876" lon="4.79242">
        <ele>348</ele>
        <time>2021-08-27T07:00:05.000Z</time>
      </trkpt>
      <trkpt lat="49.84875" lon="4.79249">
        <ele>348</ele>
        <time>2021-08-27T07:00:06.000Z</time>
      </trkpt>
      <trkpt lat="49.84875" lon="4.79254">
        <ele>348</ele>
        <time>2021-08-27T07:00:07.000Z</time>
      </trkpt>
      <trkpt lat="49.84875" lon="4.7926">
        <ele>348</ele>
        <time>2021-08-27T07:00:08.000Z</time>
      </trkpt>
      <trkpt lat="49.84874" lon="4.79265">
        <ele>348</ele>
        <time>2021-08-27T07:00:09.000Z</time>
      </trkpt>
      <trkpt lat="49.84874" lon="4.7927">
        <ele>348</ele>
        <time>2021-08-27T07:00:10.000Z</time>
      </trkpt>
      <trkpt lat="49.84874" lon="4.79275">
        <ele>348</ele>
        <time>2021-08-27T07:00:11.000Z</time>
      </trkpt>
      <trkpt lat="49.84874" lon="4.7928">
        <ele>348</ele>
        <time>2021-08-27T07:00:12.000Z</time>
      </trkpt>
      <trkpt lat="49.84874" lon="4.79285">
        <ele>347</ele>
        <time>2021-08-27T07:00:13.000Z</time>
      </trkpt>
      <trkpt lat="49.84873" lon="4.7929">
        <ele>347</ele>
        <time>2021-08-27T07:00:14.000Z</time>
      </trkpt>
      <trkpt lat="49.84873" lon="4.79295">
        <ele>347</ele>
        <time>2021-08-27T07:00:15.000Z</time>
      </trkpt>
      <trkpt lat="49.84872" lon="4.79301">
        <ele>347</ele>
        <time>2021-08-27T07:00:16.000Z</time>
      </trkpt>
      <trkpt lat="49.84872" lon="4.79306">
        <ele>347</ele>
        <time>2021-08-27T07:00:17.000Z</time>
      </trkpt>
      <trkpt lat="49.84871" lon="4.79312">
        <ele>347</ele>
        <time>2021-08-27T07:00:18.000Z</time>
      </trkpt>
      <trkpt lat="49.84871" lon="4.79318">
        <ele>347</ele>
        <time>2021-08-27T07:00:19.000Z</time>
      </trkpt>
      <trkpt lat="49.8487" lon="4.79323">
        <ele>347</ele>
        <time>2021-08-27T07:00:20.000Z</time>
      </trkpt>
      <trkpt lat="49.84869" lon="4.79327">
        <ele>347</ele>
        <time>2021-08-27T07:00:21.000Z</time>
      </trkpt>
      <trkpt lat="49.84869" lon="4.79332">
        <ele>347</ele>
        <time>2021-08-27T07:00:22.000Z</time>
      </trkpt>
      <trkpt lat="49.84868" lon="4.79337">
        <ele>347</ele>
        <time>2021-08-27T07:00:23.000Z</time>
      </trkpt>
      <trkpt lat="49.84867" lon="4.79342">
        <ele>347</ele>
        <time>2021-08-27T07:00:24.000Z</time>
      </trkpt>
      <trkpt lat="49.84866" lon="4.79348">
        <ele>347</ele>
        <time>2021-08-27T07:00:25.000Z</time>
      </trkpt>
      <trkpt lat="49.84865" lon="4.79353">
        <ele>347</ele>
        <time>2021-08-27T07:00:26.000Z</time>
      </trkpt>
      <trkpt lat="49.84864" lon="4.79358">
        <ele>347</ele>
        <time>2021-08-27T07:00:27.000Z</time>
      </trkpt>
      <trkpt lat="49.84862" lon="4.79364">
        <ele>347</ele>
        <time>2021-08-27T07:00:28.000Z</time>
      </trkpt>
      <trkpt lat="49.84861" lon="4.79369">
        <ele>347</ele>
        <time>2021-08-27T07:00:29.000Z</time>
      </trkpt>
      <trkpt lat="49.8486" lon="4.79374">
        <ele>347</ele>
        <time>2021-08-27T07:00:30.000Z</time>
      </trkpt>
      <trkpt lat="49.84859" lon="4.79379">
        <ele>346</ele>
        <time>2021-08-27T07:00:31.000Z</time>
      </trkpt>
      <trkpt lat="49.84858" lon="4.79383">
        <ele>346</ele>
        <time>2021-08-27T07:00:32.000Z</time>
      </trkpt>
      <trkpt lat="49.84857" lon="4.79388">
        <ele>346</ele>
        <time>2021-08-27T07:00:33.000Z</time>
      </trkpt>
      <trkpt lat="49.84856" lon="4.79392">
        <ele>346</ele>
        <time>2021-08-27T07:00:34.000Z</time>
      </trkpt>
      <trkpt lat="49.84855" lon="4.79396">
        <ele>346</ele>
        <time>2021-08-27T07:00:35.000Z</time>
      </trkpt>
      <trkpt lat="49.84854" lon="4.79401">
        <ele>346</ele>
        <time>2021-08-27T07:00:36.000Z</time>
      </trkpt>
      <trkpt lat="49.84853" lon="4.79405">
        <ele>346</ele>
        <time>2021-08-27T07:00:37.000Z</time>
      </trkpt>
      <trkpt lat="49.84851" lon="4.7941">
        <ele>346</ele>
        <time>2021-08-27T07:00:38.000Z</time>
      </trkpt>
      <trkpt lat="49.8485" lon="4.79414">
        <ele>346</ele>
        <time>2021-08-27T07:00:39.000Z</time>
      </trkpt>
      <trkpt lat="49.84849" lon="4.79419">
        <ele>346</ele>
        <time>2021-08-27T07:00:40.000Z</time>
      </trkpt>
      <trkpt lat="49.84848" lon="4.79423">
        <ele>346</ele>
        <time>2021-08-27T07:00:41.000Z</time>
      </trkpt>
      <trkpt lat="49.84846" lon="4.79427">
        <ele>346</ele>
        <time>2021-08-27T07:00:42.000Z</time>
      </trkpt>
      <trkpt lat="49.84844" lon="4.7943">
        <ele>346</ele>
        <time>2021-08-27T07:00:43.000Z</time>
      </trkpt>
      <trkpt lat="49.84842" lon="4.79433">
        <ele>346</ele>
        <time>2021-08-27T07:00:44.000Z</time>
      </trkpt>
      <trkpt lat="49.84841" lon="4.79436">
        <ele>346</ele>
        <time>2021-08-27T07:00:45.000Z</time>
      </trkpt>
      <trkpt lat="49.84839" lon="4.79439">
        <ele>346</ele>
        <time>2021-08-27T07:00:46.000Z</time>
      </trkpt>
      <trkpt lat="49.84838" lon="4.79442">
        <ele>345</ele>
        <time>2021-08-27T07:00:47.000Z</time>
      </trkpt>
      <trkpt lat="49.84837" lon="4.79445">
        <ele>345</ele>
        <time>2021-08-27T07:00:48.000Z</time>
      </trkpt>
      <trkpt lat="49.84836" lon="4.79447">
        <ele>345</ele>
        <time>2021-08-27T07:00:49.000Z</time>
      </trkpt>
      <trkpt lat="49.84834" lon="4.7945">
        <ele>345</ele>
        <time>2021-08-27T07:00:50.000Z</time>
      </trkpt>
      <trkpt lat="49.84833" lon="4.79454">
        <ele>345</ele>
        <time>2021-08-27T07:00:51.000Z</time>
      </trkpt>
      <trkpt lat="49.84832" lon="4.79458">
        <ele>345</ele>
        <time>2021-08-27T07:00:52.000Z</time>
      </trkpt>
      <trkpt lat="49.8483" lon="4.79462">
        <ele>345</ele>
        <time>2021-08-27T07:00:53.000Z</time>
      </trkpt>
      <trkpt lat="49.84829" lon="4.79465">
        <ele>345</ele>
        <time>2021-08-27T07:00:54.000Z</time>
      </trkpt>
      <trkpt lat="49.84828" lon="4.79468">
        <ele>345</ele>
        <time>2021-08-27T07:00:55.000Z</time>
      </trkpt>
      <trkpt lat="49.84828" lon="4.79472">
        <ele>346</ele>
        <time>2021-08-27T07:00:56.000Z</time>
      </trkpt>
      <trkpt lat="49.84826" lon="4.79475">
        <ele>346</ele>
        <time>2021-08-27T07:00:57.000Z</time>
      </trkpt>
      <trkpt lat="49.84825" lon="4.79478">
        <ele>346</ele>
        <time>2021-08-27T07:00:58.000Z</time>
      </trkpt>
      <trkpt lat="49.84824" lon="4.79482">
        <ele>346</ele>
        <time>2021-08-27T07:00:59.000Z</time>
      </trkpt>
      <trkpt lat="49.84823" lon="4.79485">
        <ele>346</ele>
        <time>2021-08-27T07:01:00.000Z</time>
      </trkpt>
      <trkpt lat="49.84822" lon="4.79489">
        <ele>346</ele>
        <time>2021-08-27T07:01:01.000Z</time>
      </trkpt>
      <trkpt lat="49.84821" lon="4.79492">
        <ele>346</ele>
        <time>2021-08-27T07:01:02.000Z</time>
      </trkpt>
      <trkpt lat="49.8482" lon="4.79496">
        <ele>346</ele>
        <time>2021-08-27T07:01:03.000Z</time>
      </trkpt>
      <trkpt lat="49.84818" lon="4.795">
        <ele>347</ele>
        <time>2021-08-27T07:01:04.000Z</time>
      </trkpt>
      <trkpt lat="49.84816" lon="4.79504">
        <ele>347</ele>
        <time>2021-08-27T07:01:05.000Z</time>
      </trkpt>
      <trkpt lat="49.84814" lon="4.79507">
        <ele>347</ele>
        <time>2021-08-27T07:01:06.000Z</time>
      </trkpt>
      <trkpt lat="49.84813" lon="4.79511">
        <ele>347</ele>
        <time>2021-08-27T07:01:07.000Z</time>
      </trkpt>
      <trkpt lat="49.84812" lon="4.79515">
        <ele>347</ele>
        <time>2021-08-27T07:01:08.000Z</time>
      </trkpt>
      <trkpt lat="49.84811" lon="4.79519">
        <ele>348</ele>
        <time>2021-08-27T07:01:09.000Z</time>
      </trkpt>
      <trkpt lat="49.84811" lon="4.79522">
        <ele>348</ele>
        <time>2021-08-27T07:01:10.000Z</time>
      </trkpt>
      <trkpt lat="49.8481" lon="4.79525">
        <ele>348</ele>
        <time>2021-08-27T07:01:11.000Z</time>
      </trkpt>
      <trkpt lat="49.84809" lon="4.79528">
        <ele>348</ele>
        <time>2021-08-27T07:01:12.000Z</time>
      </trkpt>
      <trkpt lat="49.84808" lon="4.79531">
        <ele>348</ele>
        <time>2021-08-27T07:01:13.000Z</time>
      </trkpt>
      <trkpt lat="49.84807" lon="4.79535">
        <ele>349</ele>
        <time>2021-08-27T07:01:14.000Z</time>
      </trkpt>
      <trkpt lat="49.84806" lon="4.79537">
        <ele>349</ele>
        <time>2021-08-27T07:01:15.000Z</time>
      </trkpt>
      <trkpt lat="49.84805" lon="4.79541">
        <ele>349</ele>
        <time>2021-08-27T07:01:16.000Z</time>
      </trkpt>
      <trkpt lat="49.84804" lon="4.79544">
        <ele>349</ele>
        <time>2021-08-27T07:01:17.000Z</time>
      </trkpt>
      <trkpt lat="49.84803" lon="4.79547">
        <ele>349</ele>
        <time>2021-08-27T07:01:18.000Z</time>
      </trkpt>
      <trkpt lat="49.84802" lon="4.7955">
        <ele>350</ele>
        <time>2021-08-27T07:01:19.000Z</time>
      </trkpt>
      <trkpt lat="49.84801" lon="4.79554">
        <ele>350</ele>
        <time>2021-08-27T07:01:20.000Z</time>
      </trkpt>
      <trkpt lat="49.84801" lon="4.79556">
        <ele>350</ele>
        <time>2021-08-27T07:01:21.000Z</time>
      </trkpt>
      <trkpt lat="49.848" lon="4.7956">
        <ele>350</ele>
        <time>2021-08-27T07:01:22.000Z</time>
      </trkpt>
      <trkpt lat="49.84799" lon="4.79563">
        <ele>350</ele>
        <time>2021-08-27T07:01:23.000Z</time>
      </trkpt>
      <trkpt lat="49.84799" lon="4.79566">
        <ele>351</ele>
        <time>2021-08-27T07:01:24.000Z</time>
      </trkpt>
      <trkpt lat="49.84798" lon="4.7957">
        <ele>351</ele>
        <time>2021-08-27T07:01:25.000Z</time>
      </trkpt>
      <trkpt lat="49.84797" lon="4.79573">
        <ele>351</ele>
        <time>2021-08-27T07:01:26.000Z</time>
      </trkpt>
      <trkpt lat="49.84796" lon="4.79576">
        <ele>352</ele>
        <time>2021-08-27T07:01:27.000Z</time>
      </trkpt>
      <trkpt lat="49.84796" lon="4.79579">
        <ele>352</ele>
        <time>2021-08-27T07:01:28.000Z</time>
      </trkpt>
      <trkpt lat="49.84795" lon="4.79582">
        <ele>352</ele>
        <time>2021-08-27T07:01:29.000Z</time>
      </trkpt>
      <trkpt lat="49.84795" lon="4.79585">
        <ele>353</ele>
        <time>2021-08-27T07:01:30.000Z</time>
      </trkpt>
      <trkpt lat="49.84795" lon="4.79587">
        <ele>353</ele>
        <time>2021-08-27T07:01:31.000Z</time>
      </trkpt>
      <trkpt lat="49.84795" lon="4.7959">
        <ele>353</ele>
        <time>2021-08-27T07:01:32.000Z</time>
      </trkpt>
      <trkpt lat="49.84796" lon="4.79594">
        <ele>353</ele>
        <time>2021-08-27T07:01:33.000Z</time>
      </trkpt>
      <trkpt lat="49.84796" lon="4.79596">
        <ele>354</ele>
        <time>2021-08-27T07:01:34.000Z</time>
      </trkpt>
      <trkpt lat="49.84796" lon="4.79599">
        <ele>354</ele>
        <time>2021-08-27T07:01:35.000Z</time>
      </trkpt>
      <trkpt lat="49.84795" lon="4.79602">
        <ele>354</ele>
        <time>2021-08-27T07:01:36.000Z</time>
      </trkpt>
      <trkpt lat="49.84796" lon="4.79605">
        <ele>354</ele>
        <time>2021-08-27T07:01:37.000Z</time>
      </trkpt>
      <trkpt lat="49.84796" lon="4.79607">
        <ele>354</ele>
        <time>2021-08-27T07:01:38.000Z</time>
      </trkpt>
      <trkpt lat="49.84797" lon="4.7961">
        <ele>354</ele>
        <time>2021-08-27T07:01:39.000Z</time>
      </trkpt>
      <trkpt lat="49.84798" lon="4.79613">
        <ele>355</ele>
        <time>2021-08-27T07:01:40.000Z</time>
      </trkpt>
      <trkpt lat="49.84798" lon="4.79616">
        <ele>355</ele>
        <time>2021-08-27T07:01:41.000Z</time>
      </trkpt>
      <trkpt lat="49.84799" lon="4.79619">
        <ele>355</ele>
        <time>2021-08-27T07:01:42.000Z</time>
      </trkpt>
      <trkpt lat="49.84799" lon="4.79621">
        <ele>355</ele>
        <time>2021-08-27T07:01:43.000Z</time>
      </trkpt>
      <trkpt lat="49.848" lon="4.79622">
        <ele>355</ele>
        <time>2021-08-27T07:01:44.000Z</time>
      </trkpt>
      <trkpt lat="49.84802" lon="4.79622">
        <ele>355</ele>
        <time>2021-08-27T07:01:45.000Z</time>
      </trkpt>
      <trkpt lat="49.84803" lon="4.79624">
        <ele>355</ele>
        <time>2021-08-27T07:01:46.000Z</time>
      </trkpt>
      <trkpt lat="49.84805" lon="4.79626">
        <ele>356</ele>
        <time>2021-08-27T07:01:47.000Z</time>
      </trkpt>
      <trkpt lat="49.84806" lon="4.79628">
        <ele>356</ele>
        <time>2021-08-27T07:01:48.000Z</time>
      </trkpt>
      <trkpt lat="49.84807" lon="4.79631">
        <ele>356</ele>
        <time>2021-08-27T07:01:49.000Z</time>
      </trkpt>
      <trkpt lat="49.84808" lon="4.79635">
        <ele>356</ele>
        <time>2021-08-27T07:01:50.000Z</time>
      </trkpt>
      <trkpt lat="49.84808" lon="4.79638">
        <ele>356</ele>
        <time>2021-08-27T07:01:51.000Z</time>
      </trkpt>
      <trkpt lat="49.84809" lon="4.79643">
        <ele>356</ele>
        <time>2021-08-27T07:01:52.000Z</time>
      </trkpt>
      <trkpt lat="49.84809" lon="4.79646">
        <ele>357</ele>
        <time>2021-08-27T07:01:53.000Z</time>
      </trkpt>
      <trkpt lat="49.84809" lon="4.7965">
        <ele>357</ele>
        <time>2021-08-27T07:01:54.000Z</time>
      </trkpt>
      <trkpt lat="49.84809" lon="4.79654">
        <ele>357</ele>
        <time>2021-08-27T07:01:55.000Z</time>
      </trkpt>
      <trkpt lat="49.84809" lon="4.79658">
        <ele>357</ele>
        <time>2021-08-27T07:01:56.000Z</time>
      </trkpt>
      <trkpt lat="49.84809" lon="4.79661">
        <ele>357</ele>
        <time>2021-08-27T07:01:57.000Z</time>
      </trkpt>
      <trkpt lat="49.84809" lon="4.79665">
        <ele>357</ele>
        <time>2021-08-27T07:01:58.000Z</time>
      </trkpt>
      <trkpt lat="49.84809" lon="4.79669">
        <ele>358</ele>
        <time>2021-08-27T07:01:59.000Z</time>
      </trkpt>
      <trkpt lat="49.8481" lon="4.79673">
        <ele>358</ele>
        <time>2021-08-27T07:02:00.000Z</time>
      </trkpt>
      <trkpt lat="49.8481" lon="4.79676">
        <ele>358</ele>
        <time>2021-08-27T07:02:01.000Z</time>
      </trkpt>
      <trkpt lat="49.8481" lon="4.7968">
        <ele>358</ele>
        <time>2021-08-27T07:02:02.000Z</time>
      </trkpt>
      <trkpt lat="49.8481" lon="4.79684">
        <ele>358</ele>
        <time>2021-08-27T07:02:03.000Z</time>
      </trkpt>
      <trkpt lat="49.8481" lon="4.79688">
        <ele>358</ele>
        <time>2021-08-27T07:02:04.000Z</time>
      </trkpt>
      <trkpt lat="49.8481" lon="4.79691">
        <ele>359</ele>
        <time>2021-08-27T07:02:05.000Z</time>
      </trkpt>
      <trkpt lat="49.8481" lon="4.79695">
        <ele>359</ele>
        <time>2021-08-27T07:02:06.000Z</time>
      </trkpt>
      <trkpt lat="49.8481" lon="4.79698">
        <ele>359</ele>
        <time>2021-08-27T07:02:07.000Z</time>
      </trkpt>
      <trkpt lat="49.8481" lon="4.79702">
        <ele>359</ele>
        <time>2021-08-27T07:02:08.000Z</time>
      </trkpt>
      <trkpt lat="49.8481" lon="4.79706">
        <ele>359</ele>
        <time>2021-08-27T07:02:09.000Z</time>
      </trkpt>
      <trkpt lat="49.8481" lon="4.79709">
        <ele>360</ele>
        <time>2021-08-27T07:02:10.000Z</time>
      </trkpt>
      <trkpt lat="49.8481" lon="4.79713">
        <ele>360</ele>
        <time>2021-08-27T07:02:11.000Z</time>
      </trkpt>
      <trkpt lat="49.8481" lon="4.79717">
        <ele>360</ele>
        <time>2021-08-27T07:02:12.000Z</time>
      </trkpt>
      <trkpt lat="49.8481" lon="4.79721">
        <ele>360</ele>
        <time>2021-08-27T07:02:13.000Z</time>
      </trkpt>
      <trkpt lat="49.84811" lon="4.79725">
        <ele>360</ele>
        <time>2021-08-27T07:02:14.000Z</time>
      </trkpt>
      <trkpt lat="49.84811" lon="4.79728">
        <ele>360</ele>
        <time>2021-08-27T07:02:15.000Z</time>
      </trkpt>
      <trkpt lat="49.84811" lon="4.79732">
        <ele>360</ele>
        <time>2021-08-27T07:02:16.000Z</time>
      </trkpt>
      <trkpt lat="49.84812" lon="4.79736">
        <ele>361</ele>
        <time>2021-08-27T07:02:17.000Z</time>
      </trkpt>
      <trkpt lat="49.84812" lon="4.7974">
        <ele>361</ele>
        <time>2021-08-27T07:02:18.000Z</time>
      </trkpt>
      <trkpt lat="49.84812" lon="4.79743">
        <ele>361</ele>
        <time>2021-08-27T07:02:19.000Z</time>
      </trkpt>
      <trkpt lat="49.84812" lon="4.79747">
        <ele>361</ele>
        <time>2021-08-27T07:02:20.000Z</time>
      </trkpt>
      <trkpt lat="49.84812" lon="4.79751">
        <ele>361</ele>
        <time>2021-08-27T07:02:21.000Z</time>
      </trkpt>
      <trkpt lat="49.84812" lon="4.79754">
        <ele>361</ele>
        <time>2021-08-27T07:02:22.000Z</time>
      </trkpt>
      <trkpt lat="49.84812" lon="4.79758">
        <ele>362</ele>
        <time>2021-08-27T07:02:23.000Z</time>
      </trkpt>
      <trkpt lat="49.84812" lon="4.79761">
        <ele>362</ele>
        <time>2021-08-27T07:02:24.000Z</time>
      </trkpt>
      <trkpt lat="49.84812" lon="4.79764">
        <ele>362</ele>
        <time>2021-08-27T07:02:25.000Z</time>
      </trkpt>
      <trkpt lat="49.84813" lon="4.79767">
        <ele>362</ele>
        <time>2021-08-27T07:02:26.000Z</time>
      </trkpt>
      <trkpt lat="49.84813" lon="4.7977">
        <ele>362</ele>
        <time>2021-08-27T07:02:27.000Z</time>
      </trkpt>
      <trkpt lat="49.84813" lon="4.79773">
        <ele>363</ele>
        <time>2021-08-27T07:02:28.000Z</time>
      </trkpt>
      <trkpt lat="49.84813" lon="4.79776">
        <ele>363</ele>
        <time>2021-08-27T07:02:29.000Z</time>
      </trkpt>
      <trkpt lat="49.84814" lon="4.7978">
        <ele>363</ele>
        <time>2021-08-27T07:02:30.000Z</time>
      </trkpt>
      <trkpt lat="49.84814" lon="4.79783">
        <ele>363</ele>
        <time>2021-08-27T07:02:31.000Z</time>
      </trkpt>
      <trkpt lat="49.84814" lon="4.79786">
        <ele>363</ele>
        <time>2021-08-27T07:02:32.000Z</time>
      </trkpt>
      <trkpt lat="49.84815" lon="4.79789">
        <ele>363</ele>
        <time>2021-08-27T07:02:33.000Z</time>
      </trkpt>
      <trkpt lat="49.84817" lon="4.79792">
        <ele>363</ele>
        <time>2021-08-27T07:02:34.000Z</time>
      </trkpt>
      <trkpt lat="49.84818" lon="4.79795">
        <ele>364</ele>
        <time>2021-08-27T07:02:35.000Z</time>
      </trkpt>
      <trkpt lat="49.84818" lon="4.79797">
        <ele>364</ele>
        <time>2021-08-27T07:02:36.000Z</time>
      </trkpt>
      <trkpt lat="49.84819" lon="4.798">
        <ele>364</ele>
        <time>2021-08-27T07:02:37.000Z</time>
      </trkpt>
      <trkpt lat="49.84819" lon="4.79803">
        <ele>364</ele>
        <time>2021-08-27T07:02:38.000Z</time>
      </trkpt>
      <trkpt lat="49.84819" lon="4.79805">
        <ele>364</ele>
        <time>2021-08-27T07:02:39.000Z</time>
      </trkpt>
      <trkpt lat="49.84819" lon="4.79808">
        <ele>364</ele>
        <time>2021-08-27T07:02:40.000Z</time>
      </trkpt>
      <trkpt lat="49.8482" lon="4.79811">
        <ele>364</ele>
        <time>2021-08-27T07:02:41.000Z</time>
      </trkpt>
      <trkpt lat="49.84819" lon="4.79814">
        <ele>364</ele>
        <time>2021-08-27T07:02:42.000Z</time>
      </trkpt>
      <trkpt lat="49.84819" lon="4.79817">
        <ele>364</ele>
        <time>2021-08-27T07:02:43.000Z</time>
      </trkpt>
      <trkpt lat="49.84819" lon="4.79819">
        <ele>364</ele>
        <time>2021-08-27T07:02:44.000Z</time>
      </trkpt>
      <trkpt lat="49.84819" lon="4.79822">
        <ele>364</ele>
        <time>2021-08-27T07:02:45.000Z</time>
      </trkpt>
      <trkpt lat="49.8482" lon="4.79824">
        <ele>365</ele>
        <time>2021-08-27T07:02:46.000Z</time>
      </trkpt>
      <trkpt lat="49.8482" lon="4.79828">
        <ele>365</ele>
        <time>2021-08-27T07:02:47.000Z</time>
      </trkpt>
      <trkpt lat="49.8482" lon="4.79831">
        <ele>365</ele>
        <time>2021-08-27T07:02:48.000Z</time>
      </trkpt>
      <trkpt lat="49.84821" lon="4.79834">
        <ele>365</ele>
        <time>2021-08-27T07:02:49.000Z</time>
      </trkpt>
      <trkpt lat="49.84821" lon="4.79837">
        <ele>365</ele>
        <time>2021-08-27T07:02:50.000Z</time>
      </trkpt>
      <trkpt lat="49.84822" lon="4.79842">
        <ele>365</ele>
        <time>2021-08-27T07:02:51.000Z</time>
      </trkpt>
      <trkpt lat="49.84824" lon="4.79846">
        <ele>366</ele>
        <time>2021-08-27T07:02:52.000Z</time>
      </trkpt>
      <trkpt lat="49.84825" lon="4.7985">
        <ele>366</ele>
        <time>2021-08-27T07:02:53.000Z</time>
      </trkpt>
      <trkpt lat="49.84825" lon="4.79852">
        <ele>366</ele>
        <time>2021-08-27T07:02:54.000Z</time>
      </trkpt>
      <trkpt lat="49.84826" lon="4.79855">
        <ele>366</ele>
        <time>2021-08-27T07:02:55.000Z</time>
      </trkpt>
      <trkpt lat="49.84826" lon="4.79859">
        <ele>366</ele>
        <time>2021-08-27T07:02:56.000Z</time>
      </trkpt>
      <trkpt lat="49.84827" lon="4.79862">
        <ele>366</ele>
        <time>2021-08-27T07:02:57.000Z</time>
      </trkpt>
      <trkpt lat="49.84828" lon="4.79866">
        <ele>366</ele>
        <time>2021-08-27T07:02:58.000Z</time>
      </trkpt>
      <trkpt lat="49.84828" lon="4.7987">
        <ele>367</ele>
        <time>2021-08-27T07:02:59.000Z</time>
      </trkpt>
      <trkpt lat="49.84829" lon="4.79873">
        <ele>367</ele>
        <time>2021-08-27T07:03:00.000Z</time>
      </trkpt>
      <trkpt lat="49.84829" lon="4.79875">
        <ele>367</ele>
        <time>2021-08-27T07:03:01.000Z</time>
      </trkpt>
      <trkpt lat="49.84829" lon="4.79878">
        <ele>367</ele>
        <time>2021-08-27T07:03:02.000Z</time>
      </trkpt>
      <trkpt lat="49.84829" lon="4.79881">
        <ele>367</ele>
        <time>2021-08-27T07:03:03.000Z</time>
      </trkpt>
      <trkpt lat="49.84829" lon="4.79884">
        <ele>367</ele>
        <time>2021-08-27T07:03:04.000Z</time>
      </trkpt>
      <trkpt lat="49.84829" lon="4.79888">
        <ele>367</ele>
        <time>2021-08-27T07:03:05.000Z</time>
      </trkpt>
      <trkpt lat="49.84829" lon="4.79892">
        <ele>367</ele>
        <time>2021-08-27T07:03:06.000Z</time>
      </trkpt>
      <trkpt lat="49.84828" lon="4.79896">
        <ele>367</ele>
        <time>2021-08-27T07:03:07.000Z</time>
      </trkpt>
      <trkpt lat="49.84828" lon="4.799">
        <ele>367</ele>
        <time>2021-08-27T07:03:08.000Z</time>
      </trkpt>
      <trkpt lat="49.84828" lon="4.79904">
        <ele>367</ele>
        <time>2021-08-27T07:03:09.000Z</time>
      </trkpt>
      <trkpt lat="49.84827" lon="4.79907">
        <ele>368</ele>
        <time>2021-08-27T07:03:10.000Z</time>
      </trkpt>
      <trkpt lat="49.84827" lon="4.79911">
        <ele>368</ele>
        <time>2021-08-27T07:03:11.000Z</time>
      </trkpt>
      <trkpt lat="49.84827" lon="4.79914">
        <ele>368</ele>
        <time>2021-08-27T07:03:12.000Z</time>
      </trkpt>
      <trkpt lat="49.84826" lon="4.79918">
        <ele>368</ele>
        <time>2021-08-27T07:03:13.000Z</time>
      </trkpt>
      <trkpt lat="49.84826" lon="4.79922">
        <ele>368</ele>
        <time>2021-08-27T07:03:14.000Z</time>
      </trkpt>
      <trkpt lat="49.84825" lon="4.79926">
        <ele>368</ele>
        <time>2021-08-27T07:03:15.000Z</time>
      </trkpt>
      <trkpt lat="49.84824" lon="4.7993">
        <ele>368</ele>
        <time>2021-08-27T07:03:16.000Z</time>
      </trkpt>
      <trkpt lat="49.84824" lon="4.79935">
        <ele>368</ele>
        <time>2021-08-27T07:03:17.000Z</time>
      </trkpt>
      <trkpt lat="49.84824" lon="4.79939">
        <ele>368</ele>
        <time>2021-08-27T07:03:18.000Z</time>
      </trkpt>
      <trkpt lat="49.84823" lon="4.79943">
        <ele>368</ele>
        <time>2021-08-27T07:03:19.000Z</time>
      </trkpt>
      <trkpt lat="49.84822" lon="4.79947">
        <ele>368</ele>
        <time>2021-08-27T07:03:20.000Z</time>
      </trkpt>
      <trkpt lat="49.84822" lon="4.7995">
        <ele>368</ele>
        <time>2021-08-27T07:03:21.000Z</time>
      </trkpt>
      <trkpt lat="49.84822" lon="4.79954">
        <ele>368</ele>
        <time>2021-08-27T07:03:22.000Z</time>
      </trkpt>
      <trkpt lat="49.84822" lon="4.79958">
        <ele>368</ele>
        <time>2021-08-27T07:03:23.000Z</time>
      </trkpt>
      <trkpt lat="49.84822" lon="4.79961">
        <ele>368</ele>
        <time>2021-08-27T07:03:24.000Z</time>
      </trkpt>
      <trkpt lat="49.84822" lon="4.79964">
        <ele>368</ele>
        <time>2021-08-27T07:03:25.000Z</time>
      </trkpt>
      <trkpt lat="49.84821" lon="4.79967">
        <ele>368</ele>
        <time>2021-08-27T07:03:26.000Z</time>
      </trkpt>
      <trkpt lat="49.84821" lon="4.79971">
        <ele>368</ele>
        <time>2021-08-27T07:03:27.000Z</time>
      </trkpt>
      <trkpt lat="49.8482" lon="4.79975">
        <ele>369</ele>
        <time>2021-08-27T07:03:28.000Z</time>
      </trkpt>
      <trkpt lat="49.8482" lon="4.7998">
        <ele>369</ele>
        <time>2021-08-27T07:03:29.000Z</time>
      </trkpt>
      <trkpt lat="49.8482" lon="4.79984">
        <ele>369</ele>
        <time>2021-08-27T07:03:30.000Z</time>
      </trkpt>
      <trkpt lat="49.84819" lon="4.79988">
        <ele>369</ele>
        <time>2021-08-27T07:03:31.000Z</time>
      </trkpt>
      <trkpt lat="49.84819" lon="4.79992">
        <ele>369</ele>
        <time>2021-08-27T07:03:32.000Z</time>
      </trkpt>
      <trkpt lat="49.84818" lon="4.79997">
        <ele>369</ele>
        <time>2021-08-27T07:03:33.000Z</time>
      </trkpt>
      <trkpt lat="49.84817" lon="4.8">
        <ele>370</ele>
        <time>2021-08-27T07:03:34.000Z</time>
      </trkpt>
      <trkpt lat="49.84816" lon="4.80004">
        <ele>370</ele>
        <time>2021-08-27T07:03:35.000Z</time>
      </trkpt>
      <trkpt lat="49.84815" lon="4.80008">
        <ele>370</ele>
        <time>2021-08-27T07:03:36.000Z</time>
      </trkpt>
      <trkpt lat="49.84814" lon="4.80011">
        <ele>371</ele>
        <time>2021-08-27T07:03:37.000Z</time>
      </trkpt>
      <trkpt lat="49.84813" lon="4.80015">
        <ele>371</ele>
        <time>2021-08-27T07:03:38.000Z</time>
      </trkpt>
      <trkpt lat="49.84812" lon="4.80018">
        <ele>371</ele>
        <time>2021-08-27T07:03:39.000Z</time>
      </trkpt>
      <trkpt lat="49.84811" lon="4.80021">
        <ele>371</ele>
        <time>2021-08-27T07:03:40.000Z</time>
      </trkpt>
      <trkpt lat="49.8481" lon="4.80024">
        <ele>371</ele>
        <time>2021-08-27T07:03:41.000Z</time>
      </trkpt>
      <trkpt lat="49.84809" lon="4.80027">
        <ele>372</ele>
        <time>2021-08-27T07:03:42.000Z</time>
      </trkpt>
      <trkpt lat="49.84808" lon="4.8003">
        <ele>372</ele>
        <time>2021-08-27T07:03:43.000Z</time>
      </trkpt>
      <trkpt lat="49.84807" lon="4.80033">
        <ele>372</ele>
        <time>2021-08-27T07:03:44.000Z</time>
      </trkpt>
      <trkpt lat="49.84805" lon="4.80036">
        <ele>373</ele>
        <time>2021-08-27T07:03:45.000Z</time>
      </trkpt>
      <trkpt lat="49.84804" lon="4.80039">
        <ele>373</ele>
        <time>2021-08-27T07:03:46.000Z</time>
      </trkpt>
      <trkpt lat="49.84802" lon="4.80042">
        <ele>373</ele>
        <time>2021-08-27T07:03:47.000Z</time>
      </trkpt>
      <trkpt lat="49.84801" lon="4.80046">
        <ele>374</ele>
        <time>2021-08-27T07:03:48.000Z</time>
      </trkpt>
      <trkpt lat="49.84799" lon="4.80049">
        <ele>374</ele>
        <time>2021-08-27T07:03:49.000Z</time>
      </trkpt>
      <trkpt lat="49.84798" lon="4.80053">
        <ele>374</ele>
        <time>2021-08-27T07:03:50.000Z</time>
      </trkpt>
      <trkpt lat="49.84797" lon="4.80057">
        <ele>375</ele>
        <time>2021-08-27T07:03:51.000Z</time>
      </trkpt>
      <trkpt lat="49.84796" lon="4.80061">
        <ele>375</ele>
        <time>2021-08-27T07:03:52.000Z</time>
      </trkpt>
      <trkpt lat="49.84796" lon="4.80065">
        <ele>375</ele>
        <time>2021-08-27T07:03:53.000Z</time>
      </trkpt>
      <trkpt lat="49.84796" lon="4.80069">
        <ele>376</ele>
        <time>2021-08-27T07:03:54.000Z</time>
      </trkpt>
      <trkpt lat="49.84796" lon="4.80073">
        <ele>376</ele>
        <time>2021-08-27T07:03:55.000Z</time>
      </trkpt>
      <trkpt lat="49.84795" lon="4.80077">
        <ele>376</ele>
        <time>2021-08-27T07:03:56.000Z</time>
      </trkpt>
      <trkpt lat="49.84795" lon="4.80082">
        <ele>377</ele>
        <time>2021-08-27T07:03:57.000Z</time>
      </trkpt>
      <trkpt lat="49.84794" lon="4.80085">
        <ele>377</ele>
        <time>2021-08-27T07:03:58.000Z</time>
      </trkpt>
      <trkpt lat="49.84793" lon="4.80089">
        <ele>377</ele>
        <time>2021-08-27T07:03:59.000Z</time>
      </trkpt>
      <trkpt lat="49.84792" lon="4.80092">
        <ele>377</ele>
        <time>2021-08-27T07:04:00.000Z</time>
      </trkpt>
      <trkpt lat="49.84791" lon="4.80096">
        <ele>377</ele>
        <time>2021-08-27T07:04:01.000Z</time>
      </trkpt>
      <trkpt lat="49.8479" lon="4.801">
        <ele>377</ele>
        <time>2021-08-27T07:04:02.000Z</time>
      </trkpt>
      <trkpt lat="49.84789" lon="4.80103">
        <ele>377</ele>
        <time>2021-08-27T07:04:03.000Z</time>
      </trkpt>
      <trkpt lat="49.84788" lon="4.80107">
        <ele>378</ele>
        <time>2021-08-27T07:04:04.000Z</time>
      </trkpt>
      <trkpt lat="49.84787" lon="4.8011">
        <ele>378</ele>
        <time>2021-08-27T07:04:05.000Z</time>
      </trkpt>
      <trkpt lat="49.84787" lon="4.80114">
        <ele>378</ele>
        <time>2021-08-27T07:04:06.000Z</time>
      </trkpt>
      <trkpt lat="49.84786" lon="4.80117">
        <ele>378</ele>
        <time>2021-08-27T07:04:07.000Z</time>
      </trkpt>
      <trkpt lat="49.84785" lon="4.80121">
        <ele>378</ele>
        <time>2021-08-27T07:04:08.000Z</time>
      </trkpt>
      <trkpt lat="49.84784" lon="4.80125">
        <ele>378</ele>
        <time>2021-08-27T07:04:09.000Z</time>
      </trkpt>
      <trkpt lat="49.84783" lon="4.80128">
        <ele>378</ele>
        <time>2021-08-27T07:04:10.000Z</time>
      </trkpt>
      <trkpt lat="49.84782" lon="4.80132">
        <ele>378</ele>
        <time>2021-08-27T07:04:11.000Z</time>
      </trkpt>
      <trkpt lat="49.84782" lon="4.80135">
        <ele>378</ele>
        <time>2021-08-27T07:04:12.000Z</time>
      </trkpt>
      <trkpt lat="49.84781" lon="4.80139">
        <ele>379</ele>
        <time>2021-08-27T07:04:13.000Z</time>
      </trkpt>
      <trkpt lat="49.8478" lon="4.80143">
        <ele>379</ele>
        <time>2021-08-27T07:04:14.000Z</time>
      </trkpt>
      <trkpt lat="49.8478" lon="4.80147">
        <ele>379</ele>
        <time>2021-08-27T07:04:15.000Z</time>
      </trkpt>
      <trkpt lat="49.84779" lon="4.8015">
        <ele>379</ele>
        <time>2021-08-27T07:04:16.000Z</time>
      </trkpt>
      <trkpt lat="49.84778" lon="4.80153">
        <ele>379</ele>
        <time>2021-08-27T07:04:17.000Z</time>
      </trkpt>
      <trkpt lat="49.84777" lon="4.80156">
        <ele>379</ele>
        <time>2021-08-27T07:04:18.000Z</time>
      </trkpt>
      <trkpt lat="49.84777" lon="4.8016">
        <ele>379</ele>
        <time>2021-08-27T07:04:19.000Z</time>
      </trkpt>
      <trkpt lat="49.84777" lon="4.80164">
        <ele>379</ele>
        <time>2021-08-27T07:04:20.000Z</time>
      </trkpt>
      <trkpt lat="49.84776" lon="4.80168">
        <ele>379</ele>
        <time>2021-08-27T07:04:21.000Z</time>
      </trkpt>
      <trkpt lat="49.84776" lon="4.80171">
        <ele>379</ele>
        <time>2021-08-27T07:04:22.000Z</time>
      </trkpt>
      <trkpt lat="49.84776" lon="4.80175">
        <ele>379</ele>
        <time>2021-08-27T07:04:23.000Z</time>
      </trkpt>
      <trkpt lat="49.84775" lon="4.80178">
        <ele>379</ele>
        <time>2021-08-27T07:04:24.000Z</time>
      </trkpt>
      <trkpt lat="49.84775" lon="4.80182">
        <ele>380</ele>
        <time>2021-08-27T07:04:25.000Z</time>
      </trkpt>
      <trkpt lat="49.84774" lon="4.80186">
        <ele>380</ele>
        <time>2021-08-27T07:04:26.000Z</time>
      </trkpt>
      <trkpt lat="49.84774" lon="4.80189">
        <ele>380</ele>
        <time>2021-08-27T07:04:27.000Z</time>
      </trkpt>
      <trkpt lat="49.84773" lon="4.80192">
        <ele>380</ele>
        <time>2021-08-27T07:04:28.000Z</time>
      </trkpt>
      <trkpt lat="49.84773" lon="4.80196">
        <ele>380</ele>
        <time>2021-08-27T07:04:29.000Z</time>
      </trkpt>
      <trkpt lat="49.84773" lon="4.802">
        <ele>380</ele>
        <time>2021-08-27T07:04:30.000Z</time>
      </trkpt>
      <trkpt lat="49.84772" lon="4.80205">
        <ele>380</ele>
        <time>2021-08-27T07:04:31.000Z</time>
      </trkpt>
      <trkpt lat="49.84772" lon="4.80209">
        <ele>380</ele>
        <time>2021-08-27T07:04:32.000Z</time>
      </trkpt>
      <trkpt lat="49.84772" lon="4.80213">
        <ele>381</ele>
        <time>2021-08-27T07:04:33.000Z</time>
      </trkpt>
      <trkpt lat="49.84771" lon="4.80217">
        <ele>381</ele>
        <time>2021-08-27T07:04:34.000Z</time>
      </trkpt>
      <trkpt lat="49.84771" lon="4.80221">
        <ele>381</ele>
        <time>2021-08-27T07:04:35.000Z</time>
      </trkpt>
      <trkpt lat="49.84769" lon="4.80225">
        <ele>381</ele>
        <time>2021-08-27T07:04:36.000Z</time>
      </trkpt>
      <trkpt lat="49.84769" lon="4.80229">
        <ele>381</ele>
        <time>2021-08-27T07:04:37.000Z</time>
      </trkpt>
      <trkpt lat="49.84768" lon="4.80234">
        <ele>381</ele>
        <time>2021-08-27T07:04:38.000Z</time>
      </trkpt>
      <trkpt lat="49.84768" lon="4.80237">
        <ele>382</ele>
        <time>2021-08-27T07:04:39.000Z</time>
      </trkpt>
      <trkpt lat="49.84767" lon="4.80241">
        <ele>382</ele>
        <time>2021-08-27T07:04:40.000Z</time>
      </trkpt>
      <trkpt lat="49.84767" lon="4.80244">
        <ele>382</ele>
        <time>2021-08-27T07:04:41.000Z</time>
      </trkpt>
      <trkpt lat="49.84766" lon="4.80248">
        <ele>382</ele>
        <time>2021-08-27T07:04:42.000Z</time>
      </trkpt>
      <trkpt lat="49.84766" lon="4.80252">
        <ele>382</ele>
        <time>2021-08-27T07:04:43.000Z</time>
      </trkpt>
      <trkpt lat="49.84765" lon="4.80256">
        <ele>382</ele>
        <time>2021-08-27T07:04:44.000Z</time>
      </trkpt>
      <trkpt lat="49.84765" lon="4.80259">
        <ele>383</ele>
        <time>2021-08-27T07:04:45.000Z</time>
      </trkpt>
      <trkpt lat="49.84764" lon="4.80264">
        <ele>383</ele>
        <time>2021-08-27T07:04:46.000Z</time>
      </trkpt>
      <trkpt lat="49.84764" lon="4.80267">
        <ele>383</ele>
        <time>2021-08-27T07:04:47.000Z</time>
      </trkpt>
      <trkpt lat="49.84763" lon="4.8027">
        <ele>383</ele>
        <time>2021-08-27T07:04:48.000Z</time>
      </trkpt>
      <trkpt lat="49.84763" lon="4.80274">
        <ele>383</ele>
        <time>2021-08-27T07:04:49.000Z</time>
      </trkpt>
      <trkpt lat="49.84763" lon="4.80277">
        <ele>384</ele>
        <time>2021-08-27T07:04:50.000Z</time>
      </trkpt>
      <trkpt lat="49.84762" lon="4.8028">
        <ele>384</ele>
        <time>2021-08-27T07:04:51.000Z</time>
      </trkpt>
      <trkpt lat="49.84762" lon="4.80284">
        <ele>384</ele>
        <time>2021-08-27T07:04:52.000Z</time>
      </trkpt>
      <trkpt lat="49.84762" lon="4.80288">
        <ele>384</ele>
        <time>2021-08-27T07:04:53.000Z</time>
      </trkpt>
      <trkpt lat="49.84762" lon="4.80291">
        <ele>384</ele>
        <time>2021-08-27T07:04:54.000Z</time>
      </trkpt>
      <trkpt lat="49.84762" lon="4.80295">
        <ele>384</ele>
        <time>2021-08-27T07:04:55.000Z</time>
      </trkpt>
      <trkpt lat="49.84762" lon="4.80298">
        <ele>384</ele>
        <time>2021-08-27T07:04:56.000Z</time>
      </trkpt>
      <trkpt lat="49.84761" lon="4.80303">
        <ele>384</ele>
        <time>2021-08-27T07:04:57.000Z</time>
      </trkpt>
      <trkpt lat="49.84761" lon="4.80307">
        <ele>384</ele>
        <time>2021-08-27T07:04:58.000Z</time>
      </trkpt>
      <trkpt lat="49.8476" lon="4.80311">
        <ele>385</ele>
        <time>2021-08-27T07:04:59.000Z</time>
      </trkpt>
      <trkpt lat="49.84759" lon="4.80315">
        <ele>385</ele>
        <time>2021-08-27T07:05:00.000Z</time>
      </trkpt>
      <trkpt lat="49.84759" lon="4.80319">
        <ele>385</ele>
        <time>2021-08-27T07:05:01.000Z</time>
      </trkpt>
      <trkpt lat="49.84759" lon="4.80322">
        <ele>385</ele>
        <time>2021-08-27T07:05:02.000Z</time>
      </trkpt>
      <trkpt lat="49.84759" lon="4.80323">
        <ele>385</ele>
        <time>2021-08-27T07:05:03.000Z</time>
      </trkpt>
      <trkpt lat="49.84759" lon="4.80324">
        <ele>385</ele>
        <time>2021-08-27T07:05:04.000Z</time>
      </trkpt>
      <trkpt lat="49.8476" lon="4.80324">
        <ele>386</ele>
        <time>2021-08-27T07:05:05.000Z</time>
      </trkpt>
      <trkpt lat="49.8476" lon="4.80325">
        <ele>386</ele>
        <time>2021-08-27T07:05:06.000Z</time>
      </trkpt>
      <trkpt lat="49.8476" lon="4.80325">
        <ele>386</ele>
        <time>2021-08-27T07:05:07.000Z</time>
      </trkpt>
      <trkpt lat="49.8476" lon="4.80326">
        <ele>386</ele>
        <time>2021-08-27T07:05:08.000Z</time>
      </trkpt>
      <trkpt lat="49.8476" lon="4.80326">
        <ele>386</ele>
        <time>2021-08-27T07:05:09.000Z</time>
      </trkpt>
      <trkpt lat="49.8476" lon="4.80326">
        <ele>386</ele>
        <time>2021-08-27T07:05:10.000Z</time>
      </trkpt>
      <trkpt lat="49.8476" lon="4.80327">
        <ele>386</ele>
        <time>2021-08-27T07:05:11.000Z</time>
      </trkpt>
      <trkpt lat="49.8476" lon="4.80327">
        <ele>386</ele>
        <time>2021-08-27T07:05:12.000Z</time>
      </trkpt>
      <trkpt lat="49.8476" lon="4.80327">
        <ele>386</ele>
        <time>2021-08-27T07:05:13.000Z</time>
      </trkpt>
      <trkpt lat="49.8476" lon="4.80327">
        <ele>386</ele>
        <time>2021-08-27T07:05:14.000Z</time>
      </trkpt>
      <trkpt lat="49.8476" lon="4.80328">
        <ele>386</ele>
        <time>2021-08-27T07:05:15.000Z</time>
      </trkpt>
      <trkpt lat="49.8476" lon="4.80328">
        <ele>386</ele>
        <time>2021-08-27T07:05:16.000Z</time>
      </trkpt>
      <trkpt lat="49.8476" lon="4.80328">
        <ele>386</ele>
        <time>2021-08-27T07:05:17.000Z</time>
      </trkpt>
      <trkpt lat="49.8476" lon="4.80328">
        <ele>386</ele>
        <time>2021-08-27T07:05:18.000Z</time>
      </trkpt>
      <trkpt lat="49.8476" lon="4.80328">
        <ele>386</ele>
        <time>2021-08-27T07:05:19.000Z</time>
      </trkpt>
      <trkpt lat="49.8476" lon="4.80328">
        <ele>386</ele>
        <time>2021-08-27T07:05:20.000Z</time>
      </trkpt>
      <trkpt lat="49.8476" lon="4.80329">
        <ele>387</ele>
        <time>2021-08-27T07:05:21.000Z</time>
      </trkpt>
      <trkpt lat="49.8476" lon="4.80329">
        <ele>387</ele>
        <time>2021-08-27T07:05:22.000Z</time>
      </trkpt>
      <trkpt lat="49.8476" lon="4.80329">
        <ele>387</ele>
        <time>2021-08-27T07:05:23.000Z</time>
      </trkpt>
      <trkpt lat="49.8476" lon="4.80329">
        <ele>387</ele>
        <time>2021-08-27T07:05:24.000Z</time>
      </trkpt>
      <trkpt lat="49.8476" lon="4.80329">
        <ele>387</ele>
        <time>2021-08-27T07:05:25.000Z</time>
      </trkpt>
      <trkpt lat="49.8476" lon="4.80329">
        <ele>387</ele>
        <time>2021-08-27T07:05:26.000Z</time>
      </trkpt>
      <trkpt lat="49.8476" lon="4.80329">
        <ele>387</ele>
        <time>2021-08-27T07:05:27.000Z</time>
      </trkpt>
      <trkpt lat="49.8476" lon="4.80329">
        <ele>387</ele>
        <time>2021-08-27T07:05:28.000Z</time>
      </trkpt>
      <trkpt lat="49.8476" lon="4.80329">
        <ele>387</ele>
        <time>2021-08-27T07:05:29.000Z</time>
      </trkpt>
      <trkpt lat="49.8476" lon="4.80329">
        <ele>387</ele>
        <time>2021-08-27T07:05:30.000Z</time>
      </trkpt>
      <trkpt lat="49.8476" lon="4.80329">
        <ele>387</ele>
        <time>2021-08-27T07:05:31.000Z</time>
      </trkpt>
      <trkpt lat="49.8476" lon="4.80329">
        <ele>387</ele>
        <time>2021-08-27T07:05:32.000Z</time>
      </trkpt>
      <trkpt lat="49.8476" lon="4.80329">
        <ele>387</ele>
        <time>2021-08-27T07:05:33.000Z</time>
      </trkpt>
      <trkpt lat="49.8476" lon="4.8033">
        <ele>387</ele>
        <time>2021-08-27T07:05:34.000Z</time>
      </trkpt>
      <trkpt lat="49.8476" lon="4.8033">
        <ele>387</ele>
        <time>2021-08-27T07:05:35.000Z</time>
      </trkpt>
      <trkpt lat="49.8476" lon="4.8033">
        <ele>387</ele>
        <time>2021-08-27T07:05:36.000Z</time>
      </trkpt>
      <trkpt lat="49.8476" lon="4.8033">
        <ele>387</ele>
        <time>2021-08-27T07:05:37.000Z</time>
      </trkpt>
      <trkpt lat="49.84759" lon="4.80332">
        <ele>387</ele>
        <time>2021-08-27T07:05:38.000Z</time>
      </trkpt>
      <trkpt lat="49.84759" lon="4.80334">
        <ele>387</ele>
        <time>2021-08-27T07:05:39.000Z</time>
      </trkpt>
      <trkpt lat="49.84759" lon="4.80337">
        <ele>387</ele>
        <time>2021-08-27T07:05:40.000Z</time>
      </trkpt>
      <trkpt lat="49.84759" lon="4.8034">
        <ele>387</ele>
        <time>2021-08-27T07:05:41.000Z</time>
      </trkpt>
      <trkpt lat="49.84759" lon="4.80344">
        <ele>387</ele>
        <time>2021-08-27T07:05:42.000Z</time>
      </trkpt>
      <trkpt lat="49.84759" lon="4.80347">
        <ele>387</ele>
        <time>2021-08-27T07:05:43.000Z</time>
      </trkpt>
      <trkpt lat="49.84759" lon="4.8035">
        <ele>387</ele>
        <time>2021-08-27T07:05:44.000Z</time>
      </trkpt>
      <trkpt lat="49.84759" lon="4.80352">
        <ele>387</ele>
        <time>2021-08-27T07:05:45.000Z</time>
      </trkpt>
      <trkpt lat="49.84758" lon="4.80355">
        <ele>387</ele>
        <time>2021-08-27T07:05:46.000Z</time>
      </trkpt>
      <trkpt lat="49.84757" lon="4.80358">
        <ele>387</ele>
        <time>2021-08-27T07:05:47.000Z</time>
      </trkpt>
      <trkpt lat="49.84755" lon="4.8036">
        <ele>387</ele>
        <time>2021-08-27T07:05:48.000Z</time>
      </trkpt>
      <trkpt lat="49.84755" lon="4.80364">
        <ele>387</ele>
        <time>2021-08-27T07:05:49.000Z</time>
      </trkpt>
      <trkpt lat="49.84755" lon="4.80368">
        <ele>387</ele>
        <time>2021-08-27T07:05:50.000Z</time>
      </trkpt>
      <trkpt lat="49.84754" lon="4.80373">
        <ele>387</ele>
        <time>2021-08-27T07:05:51.000Z</time>
      </trkpt>
      <trkpt lat="49.84754" lon="4.80377">
        <ele>387</ele>
        <time>2021-08-27T07:05:52.000Z</time>
      </trkpt>
      <trkpt lat="49.84754" lon="4.80383">
        <ele>387</ele>
        <time>2021-08-27T07:05:53.000Z</time>
      </trkpt>
      <trkpt lat="49.84754" lon="4.80389">
        <ele>387</ele>
        <time>2021-08-27T07:05:54.000Z</time>
      </trkpt>
      <trkpt lat="49.84754" lon="4.80394">
        <ele>387</ele>
        <time>2021-08-27T07:05:55.000Z</time>
      </trkpt>
      <trkpt lat="49.84754" lon="4.80398">
        <ele>387</ele>
        <time>2021-08-27T07:05:56.000Z</time>
      </trkpt>
      <trkpt lat="49.84754" lon="4.80403">
        <ele>387</ele>
        <time>2021-08-27T07:05:57.000Z</time>
      </trkpt>
      <trkpt lat="49.84754" lon="4.80407">
        <ele>387</ele>
        <time>2021-08-27T07:05:58.000Z</time>
      </trkpt>
      <trkpt lat="49.84755" lon="4.80411">
        <ele>387</ele>
        <time>2021-08-27T07:05:59.000Z</time>
      </trkpt>
      <trkpt lat="49.84755" lon="4.80417">
        <ele>387</ele>
        <time>2021-08-27T07:06:00.000Z</time>
      </trkpt>
      <trkpt lat="49.84755" lon="4.80422">
        <ele>387</ele>
        <time>2021-08-27T07:06:01.000Z</time>
      </trkpt>
      <trkpt lat="49.84755" lon="4.80426">
        <ele>387</ele>
        <time>2021-08-27T07:06:02.000Z</time>
      </trkpt>
      <trkpt lat="49.84755" lon="4.8043">
        <ele>387</ele>
        <time>2021-08-27T07:06:03.000Z</time>
      </trkpt>
      <trkpt lat="49.84755" lon="4.80434">
        <ele>387</ele>
        <time>2021-08-27T07:06:04.000Z</time>
      </trkpt>
      <trkpt lat="49.84755" lon="4.80438">
        <ele>387</ele>
        <time>2021-08-27T07:06:05.000Z</time>
      </trkpt>
      <trkpt lat="49.84755" lon="4.80443">
        <ele>387</ele>
        <time>2021-08-27T07:06:06.000Z</time>
      </trkpt>
      <trkpt lat="49.84756" lon="4.80449">
        <ele>387</ele>
        <time>2021-08-27T07:06:07.000Z</time>
      </trkpt>
      <trkpt lat="49.84756" lon="4.80455">
        <ele>387</ele>
        <time>2021-08-27T07:06:08.000Z</time>
      </trkpt>
      <trkpt lat="49.84757" lon="4.80461">
        <ele>387</ele>
        <time>2021-08-27T07:06:09.000Z</time>
      </trkpt>
      <trkpt lat="49.84757" lon="4.80465">
        <ele>387</ele>
        <time>2021-08-27T07:06:10.000Z</time>
      </trkpt>
      <trkpt lat="49.84758" lon="4.8047">
        <ele>387</ele>
        <time>2021-08-27T07:06:11.000Z</time>
      </trkpt>
      <trkpt lat="49.84758" lon="4.80476">
        <ele>387</ele>
        <time>2021-08-27T07:06:12.000Z</time>
      </trkpt>
      <trkpt lat="49.84759" lon="4.80481">
        <ele>387</ele>
        <time>2021-08-27T07:06:13.000Z</time>
      </trkpt>
      <trkpt lat="49.8476" lon="4.80486">
        <ele>387</ele>
        <time>2021-08-27T07:06:14.000Z</time>
      </trkpt>
      <trkpt lat="49.84761" lon="4.80492">
        <ele>387</ele>
        <time>2021-08-27T07:06:15.000Z</time>
      </trkpt>
      <trkpt lat="49.84761" lon="4.80497">
        <ele>387</ele>
        <time>2021-08-27T07:06:16.000Z</time>
      </trkpt>
      <trkpt lat="49.84761" lon="4.80502">
        <ele>387</ele>
        <time>2021-08-27T07:06:17.000Z</time>
      </trkpt>
      <trkpt lat="49.84761" lon="4.80506">
        <ele>387</ele>
        <time>2021-08-27T07:06:18.000Z</time>
      </trkpt>
      <trkpt lat="49.84761" lon="4.80511">
        <ele>387</ele>
        <time>2021-08-27T07:06:19.000Z</time>
      </trkpt>
      <trkpt lat="49.84762" lon="4.80515">
        <ele>387</ele>
        <time>2021-08-27T07:06:20.000Z</time>
      </trkpt>
      <trkpt lat="49.84763" lon="4.8052">
        <ele>387</ele>
        <time>2021-08-27T07:06:21.000Z</time>
      </trkpt>
      <trkpt lat="49.84763" lon="4.80524">
        <ele>387</ele>
        <time>2021-08-27T07:06:22.000Z</time>
      </trkpt>
      <trkpt lat="49.84762" lon="4.80529">
        <ele>387</ele>
        <time>2021-08-27T07:06:23.000Z</time>
      </trkpt>
      <trkpt lat="49.84761" lon="4.80531">
        <ele>387</ele>
        <time>2021-08-27T07:06:24.000Z</time>
      </trkpt>
      <trkpt lat="49.8476" lon="4.80533">
        <ele>387</ele>
        <time>2021-08-27T07:06:25.000Z</time>
      </trkpt>
      <trkpt lat="49.84758" lon="4.80536">
        <ele>387</ele>
        <time>2021-08-27T07:06:26.000Z</time>
      </trkpt>
      <trkpt lat="49.84757" lon="4.80539">
        <ele>387</ele>
        <time>2021-08-27T07:06:27.000Z</time>
      </trkpt>
      <trkpt lat="49.84756" lon="4.80543">
        <ele>387</ele>
        <time>2021-08-27T07:06:28.000Z</time>
      </trkpt>
      <trkpt lat="49.84756" lon="4.80547">
        <ele>387</ele>
        <time>2021-08-27T07:06:29.000Z</time>
      </trkpt>
      <trkpt lat="49.84756" lon="4.80552">
        <ele>387</ele>
        <time>2021-08-27T07:06:30.000Z</time>
      </trkpt>
      <trkpt lat="49.84756" lon="4.80557">
        <ele>387</ele>
        <time>2021-08-27T07:06:31.000Z</time>
      </trkpt>
      <trkpt lat="49.84756" lon="4.80562">
        <ele>387</ele>
        <time>2021-08-27T07:06:32.000Z</time>
      </trkpt>
      <trkpt lat="49.84756" lon="4.80567">
        <ele>387</ele>
        <time>2021-08-27T07:06:33.000Z</time>
      </trkpt>
      <trkpt lat="49.84756" lon="4.8057">
        <ele>387</ele>
        <time>2021-08-27T07:06:34.000Z</time>
      </trkpt>
      <trkpt lat="49.84755" lon="4.80573">
        <ele>387</ele>
        <time>2021-08-27T07:06:35.000Z</time>
      </trkpt>
      <trkpt lat="49.84756" lon="4.80576">
        <ele>386</ele>
        <time>2021-08-27T07:06:36.000Z</time>
      </trkpt>
      <trkpt lat="49.84757" lon="4.8058">
        <ele>386</ele>
        <time>2021-08-27T07:06:37.000Z</time>
      </trkpt>
      <trkpt lat="49.84758" lon="4.80585">
        <ele>386</ele>
        <time>2021-08-27T07:06:38.000Z</time>
      </trkpt>
      <trkpt lat="49.8476" lon="4.8059">
        <ele>386</ele>
        <time>2021-08-27T07:06:39.000Z</time>
      </trkpt>
      <trkpt lat="49.84762" lon="4.80595">
        <ele>386</ele>
        <time>2021-08-27T07:06:40.000Z</time>
      </trkpt>
      <trkpt lat="49.84765" lon="4.80601">
        <ele>386</ele>
        <time>2021-08-27T07:06:41.000Z</time>
      </trkpt>
      <trkpt lat="49.84767" lon="4.80607">
        <ele>387</ele>
        <time>2021-08-27T07:06:42.000Z</time>
      </trkpt>
      <trkpt lat="49.8477" lon="4.80613">
        <ele>387</ele>
        <time>2021-08-27T07:06:43.000Z</time>
      </trkpt>
      <trkpt lat="49.84773" lon="4.80619">
        <ele>387</ele>
        <time>2021-08-27T07:06:44.000Z</time>
      </trkpt>
      <trkpt lat="49.84775" lon="4.80626">
        <ele>387</ele>
        <time>2021-08-27T07:06:45.000Z</time>
      </trkpt>
      <trkpt lat="49.84778" lon="4.80633">
        <ele>387</ele>
        <time>2021-08-27T07:06:46.000Z</time>
      </trkpt>
      <trkpt lat="49.84781" lon="4.80639">
        <ele>387</ele>
        <time>2021-08-27T07:06:47.000Z</time>
      </trkpt>
      <trkpt lat="49.84784" lon="4.80645">
        <ele>387</ele>
        <time>2021-08-27T07:06:48.000Z</time>
      </trkpt>
      <trkpt lat="49.84787" lon="4.80651">
        <ele>387</ele>
        <time>2021-08-27T07:06:49.000Z</time>
      </trkpt>
      <trkpt lat="49.84789" lon="4.80657">
        <ele>387</ele>
        <time>2021-08-27T07:06:50.000Z</time>
      </trkpt>
      <trkpt lat="49.84792" lon="4.80663">
        <ele>387</ele>
        <time>2021-08-27T07:06:51.000Z</time>
      </trkpt>
      <trkpt lat="49.84794" lon="4.80669">
        <ele>387</ele>
        <time>2021-08-27T07:06:52.000Z</time>
      </trkpt>
      <trkpt lat="49.84797" lon="4.80674">
        <ele>387</ele>
        <time>2021-08-27T07:06:53.000Z</time>
      </trkpt>
      <trkpt lat="49.84799" lon="4.80679">
        <ele>387</ele>
        <time>2021-08-27T07:06:54.000Z</time>
      </trkpt>
      <trkpt lat="49.84801" lon="4.80684">
        <ele>387</ele>
        <time>2021-08-27T07:06:55.000Z</time>
      </trkpt>
      <trkpt lat="49.84804" lon="4.80688">
        <ele>387</ele>
        <time>2021-08-27T07:06:56.000Z</time>
      </trkpt>
      <trkpt lat="49.84807" lon="4.80693">
        <ele>387</ele>
        <time>2021-08-27T07:06:57.000Z</time>
      </trkpt>
      <trkpt lat="49.84809" lon="4.80697">
        <ele>387</ele>
        <time>2021-08-27T07:06:58.000Z</time>
      </trkpt>
      <trkpt lat="49.84813" lon="4.80701">
        <ele>387</ele>
        <time>2021-08-27T07:06:59.000Z</time>
      </trkpt>
      <trkpt lat="49.84816" lon="4.80705">
        <ele>387</ele>
        <time>2021-08-27T07:07:00.000Z</time>
      </trkpt>
      <trkpt lat="49.84818" lon="4.8071">
        <ele>387</ele>
        <time>2021-08-27T07:07:01.000Z</time>
      </trkpt>
      <trkpt lat="49.8482" lon="4.80716">
        <ele>387</ele>
        <time>2021-08-27T07:07:02.000Z</time>
      </trkpt>
      <trkpt lat="49.84821" lon="4.80721">
        <ele>387</ele>
        <time>2021-08-27T07:07:03.000Z</time>
      </trkpt>
      <trkpt lat="49.84822" lon="4.80727">
        <ele>387</ele>
        <time>2021-08-27T07:07:04.000Z</time>
      </trkpt>
      <trkpt lat="49.84825" lon="4.80732">
        <ele>387</ele>
        <time>2021-08-27T07:07:05.000Z</time>
      </trkpt>
      <trkpt lat="49.84827" lon="4.80738">
        <ele>387</ele>
        <time>2021-08-27T07:07:06.000Z</time>
      </trkpt>
      <trkpt lat="49.8483" lon="4.80743">
        <ele>387</ele>
        <time>2021-08-27T07:07:07.000Z</time>
      </trkpt>
      <trkpt lat="49.84833" lon="4.80749">
        <ele>387</ele>
        <time>2021-08-27T07:07:08.000Z</time>
      </trkpt>
      <trkpt lat="49.84836" lon="4.80755">
        <ele>387</ele>
        <time>2021-08-27T07:07:09.000Z</time>
      </trkpt>
      <trkpt lat="49.84839" lon="4.8076">
        <ele>387</ele>
        <time>2021-08-27T07:07:10.000Z</time>
      </trkpt>
      <trkpt lat="49.84841" lon="4.80765">
        <ele>387</ele>
        <time>2021-08-27T07:07:11.000Z</time>
      </trkpt>
      <trkpt lat="49.84844" lon="4.80769">
        <ele>387</ele>
        <time>2021-08-27T07:07:12.000Z</time>
      </trkpt>
      <trkpt lat="49.84847" lon="4.80774">
        <ele>387</ele>
        <time>2021-08-27T07:07:13.000Z</time>
      </trkpt>
      <trkpt lat="49.8485" lon="4.80777">
        <ele>387</ele>
        <time>2021-08-27T07:07:14.000Z</time>
      </trkpt>
      <trkpt lat="49.84852" lon="4.8078">
        <ele>387</ele>
        <time>2021-08-27T07:07:15.000Z</time>
      </trkpt>
      <trkpt lat="49.84855" lon="4.80783">
        <ele>387</ele>
        <time>2021-08-27T07:07:16.000Z</time>
      </trkpt>
      <trkpt lat="49.84858" lon="4.80786">
        <ele>387</ele>
        <time>2021-08-27T07:07:17.000Z</time>
      </trkpt>
      <trkpt lat="49.8486" lon="4.80789">
        <ele>387</ele>
        <time>2021-08-27T07:07:18.000Z</time>
      </trkpt>
      <trkpt lat="49.84864" lon="4.80793">
        <ele>387</ele>
        <time>2021-08-27T07:07:19.000Z</time>
      </trkpt>
      <trkpt lat="49.84868" lon="4.80796">
        <ele>388</ele>
        <time>2021-08-27T07:07:20.000Z</time>
      </trkpt>
      <trkpt lat="49.84872" lon="4.80799">
        <ele>388</ele>
        <time>2021-08-27T07:07:21.000Z</time>
      </trkpt>
      <trkpt lat="49.84877" lon="4.80802">
        <ele>388</ele>
        <time>2021-08-27T07:07:22.000Z</time>
      </trkpt>
      <trkpt lat="49.84882" lon="4.80805">
        <ele>388</ele>
        <time>2021-08-27T07:07:23.000Z</time>
      </trkpt>
      <trkpt lat="49.84887" lon="4.8081">
        <ele>388</ele>
        <time>2021-08-27T07:07:24.000Z</time>
      </trkpt>
      <trkpt lat="49.84892" lon="4.80815">
        <ele>388</ele>
        <time>2021-08-27T07:07:25.000Z</time>
      </trkpt>
      <trkpt lat="49.84896" lon="4.8082">
        <ele>389</ele>
        <time>2021-08-27T07:07:26.000Z</time>
      </trkpt>
      <trkpt lat="49.84899" lon="4.80826">
        <ele>389</ele>
        <time>2021-08-27T07:07:27.000Z</time>
      </trkpt>
      <trkpt lat="49.84902" lon="4.80833">
        <ele>389</ele>
        <time>2021-08-27T07:07:28.000Z</time>
      </trkpt>
      <trkpt lat="49.84905" lon="4.8084">
        <ele>389</ele>
        <time>2021-08-27T07:07:29.000Z</time>
      </trkpt>
      <trkpt lat="49.84908" lon="4.80846">
        <ele>389</ele>
        <time>2021-08-27T07:07:30.000Z</time>
      </trkpt>
      <trkpt lat="49.84913" lon="4.80852">
        <ele>389</ele>
        <time>2021-08-27T07:07:31.000Z</time>
      </trkpt>
      <trkpt lat="49.84916" lon="4.80859">
        <ele>389</ele>
        <time>2021-08-27T07:07:32.000Z</time>
      </trkpt>
      <trkpt lat="49.84919" lon="4.80866">
        <ele>389</ele>
        <time>2021-08-27T07:07:33.000Z</time>
      </trkpt>
      <trkpt lat="49.84922" lon="4.80873">
        <ele>389</ele>
        <time>2021-08-27T07:07:34.000Z</time>
      </trkpt>
      <trkpt lat="49.84925" lon="4.80879">
        <ele>389</ele>
        <time>2021-08-27T07:07:35.000Z</time>
      </trkpt>
      <trkpt lat="49.84927" lon="4.80885">
        <ele>389</ele>
        <time>2021-08-27T07:07:36.000Z</time>
      </trkpt>
      <trkpt lat="49.84928" lon="4.80892">
        <ele>388</ele>
        <time>2021-08-27T07:07:37.000Z</time>
      </trkpt>
      <trkpt lat="49.84929" lon="4.80899">
        <ele>388</ele>
        <time>2021-08-27T07:07:38.000Z</time>
      </trkpt>
      <trkpt lat="49.84928" lon="4.80905">
        <ele>388</ele>
        <time>2021-08-27T07:07:39.000Z</time>
      </trkpt>
      <trkpt lat="49.84928" lon="4.80912">
        <ele>388</ele>
        <time>2021-08-27T07:07:40.000Z</time>
      </trkpt>
      <trkpt lat="49.84929" lon="4.80919">
        <ele>388</ele>
        <time>2021-08-27T07:07:41.000Z</time>
      </trkpt>
      <trkpt lat="49.8493" lon="4.80926">
        <ele>388</ele>
        <time>2021-08-27T07:07:42.000Z</time>
      </trkpt>
      <trkpt lat="49.84932" lon="4.80931">
        <ele>388</ele>
        <time>2021-08-27T07:07:43.000Z</time>
      </trkpt>
      <trkpt lat="49.84934" lon="4.80936">
        <ele>388</ele>
        <time>2021-08-27T07:07:44.000Z</time>
      </trkpt>
      <trkpt lat="49.84935" lon="4.8094">
        <ele>388</ele>
        <time>2021-08-27T07:07:45.000Z</time>
      </trkpt>
      <trkpt lat="49.84936" lon="4.80944">
        <ele>388</ele>
        <time>2021-08-27T07:07:46.000Z</time>
      </trkpt>
      <trkpt lat="49.84938" lon="4.80949">
        <ele>388</ele>
        <time>2021-08-27T07:07:47.000Z</time>
      </trkpt>
      <trkpt lat="49.84939" lon="4.80954">
        <ele>387</ele>
        <time>2021-08-27T07:07:48.000Z</time>
      </trkpt>
      <trkpt lat="49.84941" lon="4.80959">
        <ele>387</ele>
        <time>2021-08-27T07:07:49.000Z</time>
      </trkpt>
      <trkpt lat="49.84943" lon="4.80965">
        <ele>387</ele>
        <time>2021-08-27T07:07:50.000Z</time>
      </trkpt>
      <trkpt lat="49.84945" lon="4.80972">
        <ele>387</ele>
        <time>2021-08-27T07:07:51.000Z</time>
      </trkpt>
      <trkpt lat="49.84947" lon="4.80978">
        <ele>387</ele>
        <time>2021-08-27T07:07:52.000Z</time>
      </trkpt>
      <trkpt lat="49.84949" lon="4.80985">
        <ele>387</ele>
        <time>2021-08-27T07:07:53.000Z</time>
      </trkpt>
      <trkpt lat="49.84952" lon="4.80992">
        <ele>387</ele>
        <time>2021-08-27T07:07:54.000Z</time>
      </trkpt>
      <trkpt lat="49.84954" lon="4.80999">
        <ele>387</ele>
        <time>2021-08-27T07:07:55.000Z</time>
      </trkpt>
      <trkpt lat="49.84956" lon="4.81006">
        <ele>387</ele>
        <time>2021-08-27T07:07:56.000Z</time>
      </trkpt>
      <trkpt lat="49.84959" lon="4.81012">
        <ele>387</ele>
        <time>2021-08-27T07:07:57.000Z</time>
      </trkpt>
      <trkpt lat="49.84961" lon="4.81019">
        <ele>387</ele>
        <time>2021-08-27T07:07:58.000Z</time>
      </trkpt>
      <trkpt lat="49.84963" lon="4.81025">
        <ele>387</ele>
        <time>2021-08-27T07:07:59.000Z</time>
      </trkpt>
      <trkpt lat="49.84965" lon="4.81031">
        <ele>387</ele>
        <time>2021-08-27T07:08:00.000Z</time>
      </trkpt>
      <trkpt lat="49.84968" lon="4.81036">
        <ele>387</ele>
        <time>2021-08-27T07:08:01.000Z</time>
      </trkpt>
      <trkpt lat="49.8497" lon="4.81042">
        <ele>387</ele>
        <time>2021-08-27T07:08:02.000Z</time>
      </trkpt>
      <trkpt lat="49.84972" lon="4.81047">
        <ele>387</ele>
        <time>2021-08-27T07:08:03.000Z</time>
      </trkpt>
      <trkpt lat="49.84974" lon="4.81052">
        <ele>387</ele>
        <time>2021-08-27T07:08:04.000Z</time>
      </trkpt>
      <trkpt lat="49.84976" lon="4.81058">
        <ele>387</ele>
        <time>2021-08-27T07:08:05.000Z</time>
      </trkpt>
      <trkpt lat="49.84978" lon="4.81064">
        <ele>387</ele>
        <time>2021-08-27T07:08:06.000Z</time>
      </trkpt>
      <trkpt lat="49.8498" lon="4.8107">
        <ele>387</ele>
        <time>2021-08-27T07:08:07.000Z</time>
      </trkpt>
      <trkpt lat="49.84982" lon="4.81076">
        <ele>387</ele>
        <time>2021-08-27T07:08:08.000Z</time>
      </trkpt>
      <trkpt lat="49.84985" lon="4.81082">
        <ele>387</ele>
        <time>2021-08-27T07:08:09.000Z</time>
      </trkpt>
      <trkpt lat="49.84987" lon="4.81088">
        <ele>387</ele>
        <time>2021-08-27T07:08:10.000Z</time>
      </trkpt>
      <trkpt lat="49.84989" lon="4.81093">
        <ele>387</ele>
        <time>2021-08-27T07:08:11.000Z</time>
      </trkpt>
      <trkpt lat="49.84991" lon="4.81099">
        <ele>387</ele>
        <time>2021-08-27T07:08:12.000Z</time>
      </trkpt>
      <trkpt lat="49.84993" lon="4.81105">
        <ele>387</ele>
        <time>2021-08-27T07:08:13.000Z</time>
      </trkpt>
      <trkpt lat="49.84996" lon="4.8111">
        <ele>387</ele>
        <time>2021-08-27T07:08:14.000Z</time>
      </trkpt>
      <trkpt lat="49.84998" lon="4.81115">
        <ele>388</ele>
        <time>2021-08-27T07:08:15.000Z</time>
      </trkpt>
      <trkpt lat="49.85001" lon="4.81121">
        <ele>388</ele>
        <time>2021-08-27T07:08:16.000Z</time>
      </trkpt>
      <trkpt lat="49.85003" lon="4.81126">
        <ele>388</ele>
        <time>2021-08-27T07:08:17.000Z</time>
      </trkpt>
      <trkpt lat="49.85006" lon="4.81131">
        <ele>388</ele>
        <time>2021-08-27T07:08:18.000Z</time>
      </trkpt>
      <trkpt lat="49.85009" lon="4.81136">
        <ele>388</ele>
        <time>2021-08-27T07:08:19.000Z</time>
      </trkpt>
      <trkpt lat="49.85011" lon="4.81142">
        <ele>388</ele>
        <time>2021-08-27T07:08:20.000Z</time>
      </trkpt>
      <trkpt lat="49.85014" lon="4.81148">
        <ele>388</ele>
        <time>2021-08-27T07:08:21.000Z</time>
      </trkpt>
      <trkpt lat="49.85017" lon="4.81153">
        <ele>388</ele>
        <time>2021-08-27T07:08:22.000Z</time>
      </trkpt>
      <trkpt lat="49.8502" lon="4.81158">
        <ele>388</ele>
        <time>2021-08-27T07:08:23.000Z</time>
      </trkpt>
      <trkpt lat="49.85023" lon="4.81163">
        <ele>388</ele>
        <time>2021-08-27T07:08:24.000Z</time>
      </trkpt>
      <trkpt lat="49.85026" lon="4.81168">
        <ele>388</ele>
        <time>2021-08-27T07:08:25.000Z</time>
      </trkpt>
      <trkpt lat="49.85029" lon="4.81174">
        <ele>388</ele>
        <time>2021-08-27T07:08:26.000Z</time>
      </trkpt>
      <trkpt lat="49.85032" lon="4.8118">
        <ele>388</ele>
        <time>2021-08-27T07:08:27.000Z</time>
      </trkpt>
      <trkpt lat="49.85036" lon="4.81186">
        <ele>388</ele>
        <time>2021-08-27T07:08:28.000Z</time>
      </trkpt>
      <trkpt lat="49.85039" lon="4.81191">
        <ele>388</ele>
        <time>2021-08-27T07:08:29.000Z</time>
      </trkpt>
      <trkpt lat="49.85043" lon="4.81197">
        <ele>389</ele>
        <time>2021-08-27T07:08:30.000Z</time>
      </trkpt>
      <trkpt lat="49.85047" lon="4.81203">
        <ele>389</ele>
        <time>2021-08-27T07:08:31.000Z</time>
      </trkpt>
      <trkpt lat="49.8505" lon="4.81208">
        <ele>389</ele>
        <time>2021-08-27T07:08:32.000Z</time>
      </trkpt>
      <trkpt lat="49.85054" lon="4.81214">
        <ele>389</ele>
        <time>2021-08-27T07:08:33.000Z</time>
      </trkpt>
      <trkpt lat="49.85057" lon="4.81219">
        <ele>389</ele>
        <time>2021-08-27T07:08:34.000Z</time>
      </trkpt>
      <trkpt lat="49.8506" lon="4.81225">
        <ele>389</ele>
        <time>2021-08-27T07:08:35.000Z</time>
      </trkpt>
      <trkpt lat="49.85063" lon="4.8123">
        <ele>389</ele>
        <time>2021-08-27T07:08:36.000Z</time>
      </trkpt>
      <trkpt lat="49.85067" lon="4.81234">
        <ele>389</ele>
        <time>2021-08-27T07:08:37.000Z</time>
      </trkpt>
      <trkpt lat="49.8507" lon="4.81239">
        <ele>389</ele>
        <time>2021-08-27T07:08:38.000Z</time>
      </trkpt>
      <trkpt lat="49.85073" lon="4.81244">
        <ele>389</ele>
        <time>2021-08-27T07:08:39.000Z</time>
      </trkpt>
      <trkpt lat="49.85076" lon="4.81249">
        <ele>389</ele>
        <time>2021-08-27T07:08:40.000Z</time>
      </trkpt>
      <trkpt lat="49.8508" lon="4.81254">
        <ele>389</ele>
        <time>2021-08-27T07:08:41.000Z</time>
      </trkpt>
      <trkpt lat="49.85083" lon="4.8126">
        <ele>389</ele>
        <time>2021-08-27T07:08:42.000Z</time>
      </trkpt>
      <trkpt lat="49.85086" lon="4.81265">
        <ele>389</ele>
        <time>2021-08-27T07:08:43.000Z</time>
      </trkpt>
      <trkpt lat="49.8509" lon="4.8127">
        <ele>389</ele>
        <time>2021-08-27T07:08:44.000Z</time>
      </trkpt>
      <trkpt lat="49.85093" lon="4.81275">
        <ele>389</ele>
        <time>2021-08-27T07:08:45.000Z</time>
      </trkpt>
      <trkpt lat="49.85096" lon="4.8128">
        <ele>389</ele>
        <time>2021-08-27T07:08:46.000Z</time>
      </trkpt>
      <trkpt lat="49.851" lon="4.81285">
        <ele>389</ele>
        <time>2021-08-27T07:08:47.000Z</time>
      </trkpt>
      <trkpt lat="49.85103" lon="4.8129">
        <ele>389</ele>
        <time>2021-08-27T07:08:48.000Z</time>
      </trkpt>
      <trkpt lat="49.85107" lon="4.81295">
        <ele>389</ele>
        <time>2021-08-27T07:08:49.000Z</time>
      </trkpt>
      <trkpt lat="49.8511" lon="4.813">
        <ele>389</ele>
        <time>2021-08-27T07:08:50.000Z</time>
      </trkpt>
      <trkpt lat="49.85112" lon="4.81303">
        <ele>389</ele>
        <time>2021-08-27T07:08:51.000Z</time>
      </trkpt>
      <trkpt lat="49.85116" lon="4.81306">
        <ele>389</ele>
        <time>2021-08-27T07:08:52.000Z</time>
      </trkpt>
      <trkpt lat="49.85119" lon="4.81308">
        <ele>389</ele>
        <time>2021-08-27T07:08:53.000Z</time>
      </trkpt>
      <trkpt lat="49.85122" lon="4.81311">
        <ele>389</ele>
        <time>2021-08-27T07:08:54.000Z</time>
      </trkpt>
      <trkpt lat="49.85124" lon="4.81313">
        <ele>389</ele>
        <time>2021-08-27T07:08:55.000Z</time>
      </trkpt>
      <trkpt lat="49.85126" lon="4.81315">
        <ele>389</ele>
        <time>2021-08-27T07:08:56.000Z</time>
      </trkpt>
      <trkpt lat="49.85128" lon="4.81316">
        <ele>389</ele>
        <time>2021-08-27T07:08:57.000Z</time>
      </trkpt>
      <trkpt lat="49.8513" lon="4.81317">
        <ele>389</ele>
        <time>2021-08-27T07:08:58.000Z</time>
      </trkpt>
      <trkpt lat="49.85132" lon="4.81318">
        <ele>389</ele>
        <time>2021-08-27T07:08:59.000Z</time>
      </trkpt>
      <trkpt lat="49.85135" lon="4.81321">
        <ele>389</ele>
        <time>2021-08-27T07:09:00.000Z</time>
      </trkpt>
      <trkpt lat="49.85137" lon="4.81324">
        <ele>389</ele>
        <time>2021-08-27T07:09:01.000Z</time>
      </trkpt>
      <trkpt lat="49.85139" lon="4.81326">
        <ele>389</ele>
        <time>2021-08-27T07:09:02.000Z</time>
      </trkpt>
      <trkpt lat="49.85141" lon="4.81329">
        <ele>389</ele>
        <time>2021-08-27T07:09:03.000Z</time>
      </trkpt>
      <trkpt lat="49.85143" lon="4.81332">
        <ele>389</ele>
        <time>2021-08-27T07:09:04.000Z</time>
      </trkpt>
      <trkpt lat="49.85145" lon="4.81334">
        <ele>389</ele>
        <time>2021-08-27T07:09:05.000Z</time>
      </trkpt>
      <trkpt lat="49.85147" lon="4.81337">
        <ele>389</ele>
        <time>2021-08-27T07:09:06.000Z</time>
      </trkpt>
      <trkpt lat="49.85149" lon="4.8134">
        <ele>389</ele>
        <time>2021-08-27T07:09:07.000Z</time>
      </trkpt>
      <trkpt lat="49.8515" lon="4.81343">
        <ele>389</ele>
        <time>2021-08-27T07:09:08.000Z</time>
      </trkpt>
      <trkpt lat="49.85152" lon="4.81345">
        <ele>389</ele>
        <time>2021-08-27T07:09:09.000Z</time>
      </trkpt>
      <trkpt lat="49.85155" lon="4.81349">
        <ele>389</ele>
        <time>2021-08-27T07:09:10.000Z</time>
      </trkpt>
      <trkpt lat="49.85157" lon="4.81353">
        <ele>389</ele>
        <time>2021-08-27T07:09:11.000Z</time>
      </trkpt>
      <trkpt lat="49.85159" lon="4.81356">
        <ele>389</ele>
        <time>2021-08-27T07:09:12.000Z</time>
      </trkpt>
      <trkpt lat="49.8516" lon="4.8136">
        <ele>389</ele>
        <time>2021-08-27T07:09:13.000Z</time>
      </trkpt>
      <trkpt lat="49.85162" lon="4.81364">
        <ele>389</ele>
        <time>2021-08-27T07:09:14.000Z</time>
      </trkpt>
      <trkpt lat="49.85165" lon="4.81368">
        <ele>389</ele>
        <time>2021-08-27T07:09:15.000Z</time>
      </trkpt>
      <trkpt lat="49.85168" lon="4.81373">
        <ele>389</ele>
        <time>2021-08-27T07:09:16.000Z</time>
      </trkpt>
      <trkpt lat="49.85171" lon="4.81377">
        <ele>389</ele>
        <time>2021-08-27T07:09:17.000Z</time>
      </trkpt>
      <trkpt lat="49.85174" lon="4.81382">
        <ele>389</ele>
        <time>2021-08-27T07:09:18.000Z</time>
      </trkpt>
      <trkpt lat="49.85177" lon="4.81387">
        <ele>389</ele>
        <time>2021-08-27T07:09:19.000Z</time>
      </trkpt>
      <trkpt lat="49.85181" lon="4.81392">
        <ele>389</ele>
        <time>2021-08-27T07:09:20.000Z</time>
      </trkpt>
      <trkpt lat="49.85184" lon="4.81398">
        <ele>389</ele>
        <time>2021-08-27T07:09:21.000Z</time>
      </trkpt>
      <trkpt lat="49.85188" lon="4.81403">
        <ele>389</ele>
        <time>2021-08-27T07:09:22.000Z</time>
      </trkpt>
      <trkpt lat="49.85191" lon="4.81409">
        <ele>389</ele>
        <time>2021-08-27T07:09:23.000Z</time>
      </trkpt>
      <trkpt lat="49.85194" lon="4.81414">
        <ele>389</ele>
        <time>2021-08-27T07:09:24.000Z</time>
      </trkpt>
      <trkpt lat="49.85196" lon="4.81419">
        <ele>389</ele>
        <time>2021-08-27T07:09:25.000Z</time>
      </trkpt>
      <trkpt lat="49.85198" lon="4.81424">
        <ele>389</ele>
        <time>2021-08-27T07:09:26.000Z</time>
      </trkpt>
      <trkpt lat="49.85201" lon="4.81429">
        <ele>389</ele>
        <time>2021-08-27T07:09:27.000Z</time>
      </trkpt>
      <trkpt lat="49.85203" lon="4.81433">
        <ele>389</ele>
        <time>2021-08-27T07:09:28.000Z</time>
      </trkpt>
      <trkpt lat="49.85206" lon="4.81438">
        <ele>389</ele>
        <time>2021-08-27T07:09:29.000Z</time>
      </trkpt>
      <trkpt lat="49.85209" lon="4.81443">
        <ele>389</ele>
        <time>2021-08-27T07:09:30.000Z</time>
      </trkpt>
      <trkpt lat="49.85212" lon="4.81447">
        <ele>389</ele>
        <time>2021-08-27T07:09:31.000Z</time>
      </trkpt>
      <trkpt lat="49.85215" lon="4.81451">
        <ele>389</ele>
        <time>2021-08-27T07:09:32.000Z</time>
      </trkpt>
      <trkpt lat="49.85219" lon="4.81456">
        <ele>389</ele>
        <time>2021-08-27T07:09:33.000Z</time>
      </trkpt>
      <trkpt lat="49.85223" lon="4.8146">
        <ele>389</ele>
        <time>2021-08-27T07:09:34.000Z</time>
      </trkpt>
      <trkpt lat="49.85226" lon="4.81465">
        <ele>389</ele>
        <time>2021-08-27T07:09:35.000Z</time>
      </trkpt>
      <trkpt lat="49.8523" lon="4.8147">
        <ele>389</ele>
        <time>2021-08-27T07:09:36.000Z</time>
      </trkpt>
      <trkpt lat="49.85234" lon="4.81476">
        <ele>389</ele>
        <time>2021-08-27T07:09:37.000Z</time>
      </trkpt>
      <trkpt lat="49.85237" lon="4.81481">
        <ele>389</ele>
        <time>2021-08-27T07:09:38.000Z</time>
      </trkpt>
      <trkpt lat="49.85241" lon="4.81487">
        <ele>389</ele>
        <time>2021-08-27T07:09:39.000Z</time>
      </trkpt>
      <trkpt lat="49.85244" lon="4.81492">
        <ele>388</ele>
        <time>2021-08-27T07:09:40.000Z</time>
      </trkpt>
      <trkpt lat="49.85247" lon="4.81497">
        <ele>388</ele>
        <time>2021-08-27T07:09:41.000Z</time>
      </trkpt>
      <trkpt lat="49.85251" lon="4.81502">
        <ele>388</ele>
        <time>2021-08-27T07:09:42.000Z</time>
      </trkpt>
      <trkpt lat="49.85254" lon="4.81507">
        <ele>388</ele>
        <time>2021-08-27T07:09:43.000Z</time>
      </trkpt>
      <trkpt lat="49.85258" lon="4.81513">
        <ele>388</ele>
        <time>2021-08-27T07:09:44.000Z</time>
      </trkpt>
      <trkpt lat="49.85261" lon="4.81518">
        <ele>388</ele>
        <time>2021-08-27T07:09:45.000Z</time>
      </trkpt>
      <trkpt lat="49.85265" lon="4.81523">
        <ele>388</ele>
        <time>2021-08-27T07:09:46.000Z</time>
      </trkpt>
      <trkpt lat="49.85269" lon="4.81528">
        <ele>388</ele>
        <time>2021-08-27T07:09:47.000Z</time>
      </trkpt>
      <trkpt lat="49.85273" lon="4.81534">
        <ele>388</ele>
        <time>2021-08-27T07:09:48.000Z</time>
      </trkpt>
      <trkpt lat="49.85277" lon="4.8154">
        <ele>388</ele>
        <time>2021-08-27T07:09:49.000Z</time>
      </trkpt>
      <trkpt lat="49.85281" lon="4.81545">
        <ele>388</ele>
        <time>2021-08-27T07:09:50.000Z</time>
      </trkpt>
      <trkpt lat="49.85284" lon="4.81549">
        <ele>388</ele>
        <time>2021-08-27T07:09:51.000Z</time>
      </trkpt>
      <trkpt lat="49.85287" lon="4.81553">
        <ele>388</ele>
        <time>2021-08-27T07:09:52.000Z</time>
      </trkpt>
      <trkpt lat="49.8529" lon="4.81558">
        <ele>388</ele>
        <time>2021-08-27T07:09:53.000Z</time>
      </trkpt>
      <trkpt lat="49.85292" lon="4.81561">
        <ele>387</ele>
        <time>2021-08-27T07:09:54.000Z</time>
      </trkpt>
      <trkpt lat="49.85294" lon="4.81563">
        <ele>387</ele>
        <time>2021-08-27T07:09:55.000Z</time>
      </trkpt>
      <trkpt lat="49.85295" lon="4.81566">
        <ele>387</ele>
        <time>2021-08-27T07:09:56.000Z</time>
      </trkpt>
      <trkpt lat="49.85296" lon="4.81569">
        <ele>387</ele>
        <time>2021-08-27T07:09:57.000Z</time>
      </trkpt>
      <trkpt lat="49.85297" lon="4.81572">
        <ele>387</ele>
        <time>2021-08-27T07:09:58.000Z</time>
      </trkpt>
      <trkpt lat="49.85297" lon="4.81575">
        <ele>387</ele>
        <time>2021-08-27T07:09:59.000Z</time>
      </trkpt>
      <trkpt lat="49.85297" lon="4.81577">
        <ele>387</ele>
        <time>2021-08-27T07:10:00.000Z</time>
      </trkpt>
      <trkpt lat="49.85298" lon="4.81579">
        <ele>386</ele>
        <time>2021-08-27T07:10:01.000Z</time>
      </trkpt>
      <trkpt lat="49.85298" lon="4.81581">
        <ele>386</ele>
        <time>2021-08-27T07:10:02.000Z</time>
      </trkpt>
      <trkpt lat="49.85299" lon="4.81582">
        <ele>386</ele>
        <time>2021-08-27T07:10:03.000Z</time>
      </trkpt>
      <trkpt lat="49.853" lon="4.81583">
        <ele>386</ele>
        <time>2021-08-27T07:10:04.000Z</time>
      </trkpt>
      <trkpt lat="49.85301" lon="4.81584">
        <ele>386</ele>
        <time>2021-08-27T07:10:05.000Z</time>
      </trkpt>
      <trkpt lat="49.85303" lon="4.81584">
        <ele>386</ele>
        <time>2021-08-27T07:10:06.000Z</time>
      </trkpt>
      <trkpt lat="49.85305" lon="4.81584">
        <ele>386</ele>
        <time>2021-08-27T07:10:07.000Z</time>
      </trkpt>
      <trkpt lat="49.85307" lon="4.81585">
        <ele>386</ele>
        <time>2021-08-27T07:10:08.000Z</time>
      </trkpt>
      <trkpt lat="49.8531" lon="4.81586">
        <ele>386</ele>
        <time>2021-08-27T07:10:09.000Z</time>
      </trkpt>
      <trkpt lat="49.85312" lon="4.81588">
        <ele>385</ele>
        <time>2021-08-27T07:10:10.000Z</time>
      </trkpt>
      <trkpt lat="49.85314" lon="4.81591">
        <ele>385</ele>
        <time>2021-08-27T07:10:11.000Z</time>
      </trkpt>
      <trkpt lat="49.85316" lon="4.81594">
        <ele>385</ele>
        <time>2021-08-27T07:10:12.000Z</time>
      </trkpt>
      <trkpt lat="49.85318" lon="4.81597">
        <ele>385</ele>
        <time>2021-08-27T07:10:13.000Z</time>
      </trkpt>
      <trkpt lat="49.8532" lon="4.816">
        <ele>385</ele>
        <time>2021-08-27T07:10:14.000Z</time>
      </trkpt>
      <trkpt lat="49.85322" lon="4.81603">
        <ele>385</ele>
        <time>2021-08-27T07:10:15.000Z</time>
      </trkpt>
      <trkpt lat="49.85325" lon="4.81607">
        <ele>385</ele>
        <time>2021-08-27T07:10:16.000Z</time>
      </trkpt>
      <trkpt lat="49.85328" lon="4.81611">
        <ele>385</ele>
        <time>2021-08-27T07:10:17.000Z</time>
      </trkpt>
      <trkpt lat="49.85332" lon="4.81615">
        <ele>385</ele>
        <time>2021-08-27T07:10:18.000Z</time>
      </trkpt>
      <trkpt lat="49.85335" lon="4.81618">
        <ele>385</ele>
        <time>2021-08-27T07:10:19.000Z</time>
      </trkpt>
      <trkpt lat="49.85338" lon="4.81622">
        <ele>385</ele>
        <time>2021-08-27T07:10:20.000Z</time>
      </trkpt>
      <trkpt lat="49.85341" lon="4.81626">
        <ele>385</ele>
        <time>2021-08-27T07:10:21.000Z</time>
      </trkpt>
      <trkpt lat="49.85344" lon="4.81629">
        <ele>384</ele>
        <time>2021-08-27T07:10:22.000Z</time>
      </trkpt>
      <trkpt lat="49.85347" lon="4.81633">
        <ele>384</ele>
        <time>2021-08-27T07:10:23.000Z</time>
      </trkpt>
      <trkpt lat="49.85349" lon="4.81636">
        <ele>384</ele>
        <time>2021-08-27T07:10:24.000Z</time>
      </trkpt>
      <trkpt lat="49.85352" lon="4.81639">
        <ele>384</ele>
        <time>2021-08-27T07:10:25.000Z</time>
      </trkpt>
      <trkpt lat="49.85355" lon="4.81641">
        <ele>384</ele>
        <time>2021-08-27T07:10:26.000Z</time>
      </trkpt>
      <trkpt lat="49.85357" lon="4.81643">
        <ele>384</ele>
        <time>2021-08-27T07:10:27.000Z</time>
      </trkpt>
      <trkpt lat="49.8536" lon="4.81645">
        <ele>383</ele>
        <time>2021-08-27T07:10:28.000Z</time>
      </trkpt>
      <trkpt lat="49.85364" lon="4.81648">
        <ele>383</ele>
        <time>2021-08-27T07:10:29.000Z</time>
      </trkpt>
      <trkpt lat="49.85367" lon="4.8165">
        <ele>383</ele>
        <time>2021-08-27T07:10:30.000Z</time>
      </trkpt>
      <trkpt lat="49.85371" lon="4.81653">
        <ele>383</ele>
        <time>2021-08-27T07:10:31.000Z</time>
      </trkpt>
      <trkpt lat="49.85375" lon="4.81655">
        <ele>383</ele>
        <time>2021-08-27T07:10:32.000Z</time>
      </trkpt>
      <trkpt lat="49.85379" lon="4.81657">
        <ele>382</ele>
        <time>2021-08-27T07:10:33.000Z</time>
      </trkpt>
      <trkpt lat="49.85382" lon="4.81658">
        <ele>382</ele>
        <time>2021-08-27T07:10:34.000Z</time>
      </trkpt>
      <trkpt lat="49.85386" lon="4.81659">
        <ele>382</ele>
        <time>2021-08-27T07:10:35.000Z</time>
      </trkpt>
      <trkpt lat="49.8539" lon="4.81661">
        <ele>382</ele>
        <time>2021-08-27T07:10:36.000Z</time>
      </trkpt>
      <trkpt lat="49.85394" lon="4.81662">
        <ele>382</ele>
        <time>2021-08-27T07:10:37.000Z</time>
      </trkpt>
      <trkpt lat="49.85398" lon="4.81663">
        <ele>382</ele>
        <time>2021-08-27T07:10:38.000Z</time>
      </trkpt>
      <trkpt lat="49.85402" lon="4.81664">
        <ele>382</ele>
        <time>2021-08-27T07:10:39.000Z</time>
      </trkpt>
      <trkpt lat="49.85406" lon="4.81664">
        <ele>382</ele>
        <time>2021-08-27T07:10:40.000Z</time>
      </trkpt>
      <trkpt lat="49.8541" lon="4.81664">
        <ele>381</ele>
        <time>2021-08-27T07:10:41.000Z</time>
      </trkpt>
      <trkpt lat="49.85414" lon="4.81664">
        <ele>381</ele>
        <time>2021-08-27T07:10:42.000Z</time>
      </trkpt>
      <trkpt lat="49.85418" lon="4.81665">
        <ele>381</ele>
        <time>2021-08-27T07:10:43.000Z</time>
      </trkpt>
      <trkpt lat="49.85422" lon="4.81665">
        <ele>381</ele>
        <time>2021-08-27T07:10:44.000Z</time>
      </trkpt>
      <trkpt lat="49.85426" lon="4.81666">
        <ele>381</ele>
        <time>2021-08-27T07:10:45.000Z</time>
      </trkpt>
      <trkpt lat="49.8543" lon="4.81665">
        <ele>380</ele>
        <time>2021-08-27T07:10:46.000Z</time>
      </trkpt>
      <trkpt lat="49.85434" lon="4.81665">
        <ele>380</ele>
        <time>2021-08-27T07:10:47.000Z</time>
      </trkpt>
      <trkpt lat="49.85438" lon="4.81664">
        <ele>380</ele>
        <time>2021-08-27T07:10:48.000Z</time>
      </trkpt>
      <trkpt lat="49.85442" lon="4.81663">
        <ele>380</ele>
        <time>2021-08-27T07:10:49.000Z</time>
      </trkpt>
      <trkpt lat="49.85446" lon="4.81662">
        <ele>379</ele>
        <time>2021-08-27T07:10:50.000Z</time>
      </trkpt>
      <trkpt lat="49.85449" lon="4.81661">
        <ele>379</ele>
        <time>2021-08-27T07:10:51.000Z</time>
      </trkpt>
      <trkpt lat="49.85451" lon="4.81661">
        <ele>379</ele>
        <time>2021-08-27T07:10:52.000Z</time>
      </trkpt>
      <trkpt lat="49.85454" lon="4.81661">
        <ele>379</ele>
        <time>2021-08-27T07:10:53.000Z</time>
      </trkpt>
      <trkpt lat="49.85458" lon="4.81661">
        <ele>378</ele>
        <time>2021-08-27T07:10:54.000Z</time>
      </trkpt>
      <trkpt lat="49.85462" lon="4.81661">
        <ele>378</ele>
        <time>2021-08-27T07:10:55.000Z</time>
      </trkpt>
      <trkpt lat="49.85466" lon="4.8166">
        <ele>378</ele>
        <time>2021-08-27T07:10:56.000Z</time>
      </trkpt>
      <trkpt lat="49.85471" lon="4.81659">
        <ele>378</ele>
        <time>2021-08-27T07:10:57.000Z</time>
      </trkpt>
      <trkpt lat="49.85476" lon="4.81658">
        <ele>377</ele>
        <time>2021-08-27T07:10:58.000Z</time>
      </trkpt>
      <trkpt lat="49.85481" lon="4.81657">
        <ele>377</ele>
        <time>2021-08-27T07:10:59.000Z</time>
      </trkpt>
      <trkpt lat="49.85486" lon="4.81655">
        <ele>377</ele>
        <time>2021-08-27T07:11:00.000Z</time>
      </trkpt>
      <trkpt lat="49.8549" lon="4.81654">
        <ele>377</ele>
        <time>2021-08-27T07:11:01.000Z</time>
      </trkpt>
      <trkpt lat="49.85494" lon="4.81652">
        <ele>376</ele>
        <time>2021-08-27T07:11:02.000Z</time>
      </trkpt>
      <trkpt lat="49.85497" lon="4.8165">
        <ele>376</ele>
        <time>2021-08-27T07:11:03.000Z</time>
      </trkpt>
      <trkpt lat="49.85501" lon="4.81649">
        <ele>376</ele>
        <time>2021-08-27T07:11:04.000Z</time>
      </trkpt>
      <trkpt lat="49.85505" lon="4.81647">
        <ele>375</ele>
        <time>2021-08-27T07:11:05.000Z</time>
      </trkpt>
      <trkpt lat="49.85509" lon="4.81645">
        <ele>375</ele>
        <time>2021-08-27T07:11:06.000Z</time>
      </trkpt>
      <trkpt lat="49.85513" lon="4.81643">
        <ele>375</ele>
        <time>2021-08-27T07:11:07.000Z</time>
      </trkpt>
      <trkpt lat="49.85517" lon="4.81642">
        <ele>374</ele>
        <time>2021-08-27T07:11:08.000Z</time>
      </trkpt>
      <trkpt lat="49.8552" lon="4.8164">
        <ele>374</ele>
        <time>2021-08-27T07:11:09.000Z</time>
      </trkpt>
      <trkpt lat="49.85524" lon="4.81639">
        <ele>373</ele>
        <time>2021-08-27T07:11:10.000Z</time>
      </trkpt>
      <trkpt lat="49.85528" lon="4.81638">
        <ele>372</ele>
        <time>2021-08-27T07:11:11.000Z</time>
      </trkpt>
      <trkpt lat="49.85531" lon="4.81636">
        <ele>372</ele>
        <time>2021-08-27T07:11:12.000Z</time>
      </trkpt>
      <trkpt lat="49.85535" lon="4.81635">
        <ele>371</ele>
        <time>2021-08-27T07:11:13.000Z</time>
      </trkpt>
      <trkpt lat="49.85539" lon="4.81633">
        <ele>371</ele>
        <time>2021-08-27T07:11:14.000Z</time>
      </trkpt>
      <trkpt lat="49.85543" lon="4.81632">
        <ele>370</ele>
        <time>2021-08-27T07:11:15.000Z</time>
      </trkpt>
      <trkpt lat="49.85548" lon="4.81631">
        <ele>370</ele>
        <time>2021-08-27T07:11:16.000Z</time>
      </trkpt>
      <trkpt lat="49.85553" lon="4.81631">
        <ele>369</ele>
        <time>2021-08-27T07:11:17.000Z</time>
      </trkpt>
      <trkpt lat="49.85558" lon="4.8163">
        <ele>369</ele>
        <time>2021-08-27T07:11:18.000Z</time>
      </trkpt>
      <trkpt lat="49.85563" lon="4.81629">
        <ele>368</ele>
        <time>2021-08-27T07:11:19.000Z</time>
      </trkpt>
      <trkpt lat="49.85569" lon="4.81628">
        <ele>368</ele>
        <time>2021-08-27T07:11:20.000Z</time>
      </trkpt>
      <trkpt lat="49.85574" lon="4.81627">
        <ele>367</ele>
        <time>2021-08-27T07:11:21.000Z</time>
      </trkpt>
      <trkpt lat="49.8558" lon="4.81626">
        <ele>367</ele>
        <time>2021-08-27T07:11:22.000Z</time>
      </trkpt>
      <trkpt lat="49.85585" lon="4.81625">
        <ele>367</ele>
        <time>2021-08-27T07:11:23.000Z</time>
      </trkpt>
      <trkpt lat="49.85591" lon="4.81623">
        <ele>366</ele>
        <time>2021-08-27T07:11:24.000Z</time>
      </trkpt>
      <trkpt lat="49.85596" lon="4.81623">
        <ele>366</ele>
        <time>2021-08-27T07:11:25.000Z</time>
      </trkpt>
      <trkpt lat="49.85601" lon="4.81622">
        <ele>365</ele>
        <time>2021-08-27T07:11:26.000Z</time>
      </trkpt>
      <trkpt lat="49.85607" lon="4.81621">
        <ele>365</ele>
        <time>2021-08-27T07:11:27.000Z</time>
      </trkpt>
      <trkpt lat="49.85612" lon="4.8162">
        <ele>365</ele>
        <time>2021-08-27T07:11:28.000Z</time>
      </trkpt>
      <trkpt lat="49.85617" lon="4.81619">
        <ele>364</ele>
        <time>2021-08-27T07:11:29.000Z</time>
      </trkpt>
      <trkpt lat="49.85622" lon="4.81619">
        <ele>364</ele>
        <time>2021-08-27T07:11:30.000Z</time>
      </trkpt>
      <trkpt lat="49.85626" lon="4.81618">
        <ele>364</ele>
        <time>2021-08-27T07:11:31.000Z</time>
      </trkpt>
      <trkpt lat="49.85631" lon="4.81617">
        <ele>363</ele>
        <time>2021-08-27T07:11:32.000Z</time>
      </trkpt>
      <trkpt lat="49.85635" lon="4.81616">
        <ele>363</ele>
        <time>2021-08-27T07:11:33.000Z</time>
      </trkpt>
      <trkpt lat="49.85638" lon="4.81616">
        <ele>363</ele>
        <time>2021-08-27T07:11:34.000Z</time>
      </trkpt>
      <trkpt lat="49.85641" lon="4.81615">
        <ele>362</ele>
        <time>2021-08-27T07:11:35.000Z</time>
      </trkpt>
      <trkpt lat="49.85645" lon="4.81616">
        <ele>362</ele>
        <time>2021-08-27T07:11:36.000Z</time>
      </trkpt>
      <trkpt lat="49.85648" lon="4.81616">
        <ele>362</ele>
        <time>2021-08-27T07:11:37.000Z</time>
      </trkpt>
      <trkpt lat="49.85651" lon="4.81616">
        <ele>361</ele>
        <time>2021-08-27T07:11:38.000Z</time>
      </trkpt>
      <trkpt lat="49.85655" lon="4.81615">
        <ele>361</ele>
        <time>2021-08-27T07:11:39.000Z</time>
      </trkpt>
      <trkpt lat="49.85658" lon="4.81615">
        <ele>361</ele>
        <time>2021-08-27T07:11:40.000Z</time>
      </trkpt>
      <trkpt lat="49.85661" lon="4.81615">
        <ele>360</ele>
        <time>2021-08-27T07:11:41.000Z</time>
      </trkpt>
      <trkpt lat="49.85665" lon="4.81615">
        <ele>360</ele>
        <time>2021-08-27T07:11:42.000Z</time>
      </trkpt>
      <trkpt lat="49.85668" lon="4.81615">
        <ele>360</ele>
        <time>2021-08-27T07:11:43.000Z</time>
      </trkpt>
      <trkpt lat="49.85671" lon="4.81615">
        <ele>360</ele>
        <time>2021-08-27T07:11:44.000Z</time>
      </trkpt>
      <trkpt lat="49.85675" lon="4.81614">
        <ele>359</ele>
        <time>2021-08-27T07:11:45.000Z</time>
      </trkpt>
      <trkpt lat="49.85678" lon="4.81613">
        <ele>359</ele>
        <time>2021-08-27T07:11:46.000Z</time>
      </trkpt>
      <trkpt lat="49.85682" lon="4.81613">
        <ele>359</ele>
        <time>2021-08-27T07:11:47.000Z</time>
      </trkpt>
      <trkpt lat="49.85685" lon="4.81612">
        <ele>358</ele>
        <time>2021-08-27T07:11:48.000Z</time>
      </trkpt>
      <trkpt lat="49.85689" lon="4.81612">
        <ele>358</ele>
        <time>2021-08-27T07:11:49.000Z</time>
      </trkpt>
      <trkpt lat="49.85693" lon="4.81612">
        <ele>358</ele>
        <time>2021-08-27T07:11:50.000Z</time>
      </trkpt>
      <trkpt lat="49.85697" lon="4.81611">
        <ele>357</ele>
        <time>2021-08-27T07:11:51.000Z</time>
      </trkpt>
      <trkpt lat="49.85701" lon="4.8161">
        <ele>357</ele>
        <time>2021-08-27T07:11:52.000Z</time>
      </trkpt>
      <trkpt lat="49.85705" lon="4.81609">
        <ele>357</ele>
        <time>2021-08-27T07:11:53.000Z</time>
      </trkpt>
      <trkpt lat="49.85708" lon="4.81608">
        <ele>356</ele>
        <time>2021-08-27T07:11:54.000Z</time>
      </trkpt>
      <trkpt lat="49.85711" lon="4.81608">
        <ele>356</ele>
        <time>2021-08-27T07:11:55.000Z</time>
      </trkpt>
      <trkpt lat="49.85715" lon="4.81607">
        <ele>356</ele>
        <time>2021-08-27T07:11:56.000Z</time>
      </trkpt>
      <trkpt lat="49.85718" lon="4.81606">
        <ele>356</ele>
        <time>2021-08-27T07:11:57.000Z</time>
      </trkpt>
      <trkpt lat="49.85722" lon="4.81605">
        <ele>356</ele>
        <time>2021-08-27T07:11:58.000Z</time>
      </trkpt>
      <trkpt lat="49.85727" lon="4.81604">
        <ele>355</ele>
        <time>2021-08-27T07:11:59.000Z</time>
      </trkpt>
      <trkpt lat="49.85731" lon="4.81603">
        <ele>355</ele>
        <time>2021-08-27T07:12:00.000Z</time>
      </trkpt>
      <trkpt lat="49.85734" lon="4.81603">
        <ele>355</ele>
        <time>2021-08-27T07:12:01.000Z</time>
      </trkpt>
      <trkpt lat="49.85737" lon="4.81603">
        <ele>355</ele>
        <time>2021-08-27T07:12:02.000Z</time>
      </trkpt>
      <trkpt lat="49.8574" lon="4.81602">
        <ele>355</ele>
        <time>2021-08-27T07:12:03.000Z</time>
      </trkpt>
      <trkpt lat="49.85742" lon="4.81602">
        <ele>354</ele>
        <time>2021-08-27T07:12:04.000Z</time>
      </trkpt>
      <trkpt lat="49.85745" lon="4.81602">
        <ele>354</ele>
        <time>2021-08-27T07:12:05.000Z</time>
      </trkpt>
      <trkpt lat="49.85748" lon="4.81602">
        <ele>354</ele>
        <time>2021-08-27T07:12:06.000Z</time>
      </trkpt>
      <trkpt lat="49.85751" lon="4.81603">
        <ele>354</ele>
        <time>2021-08-27T07:12:07.000Z</time>
      </trkpt>
      <trkpt lat="49.85754" lon="4.81603">
        <ele>354</ele>
        <time>2021-08-27T07:12:08.000Z</time>
      </trkpt>
      <trkpt lat="49.85758" lon="4.81603">
        <ele>353</ele>
        <time>2021-08-27T07:12:09.000Z</time>
      </trkpt>
      <trkpt lat="49.85761" lon="4.81604">
        <ele>353</ele>
        <time>2021-08-27T07:12:10.000Z</time>
      </trkpt>
      <trkpt lat="49.85765" lon="4.81605">
        <ele>353</ele>
        <time>2021-08-27T07:12:11.000Z</time>
      </trkpt>
      <trkpt lat="49.85769" lon="4.81605">
        <ele>353</ele>
        <time>2021-08-27T07:12:12.000Z</time>
      </trkpt>
      <trkpt lat="49.85772" lon="4.81605">
        <ele>353</ele>
        <time>2021-08-27T07:12:13.000Z</time>
      </trkpt>
      <trkpt lat="49.85774" lon="4.81605">
        <ele>352</ele>
        <time>2021-08-27T07:12:14.000Z</time>
      </trkpt>
      <trkpt lat="49.85777" lon="4.81606">
        <ele>352</ele>
        <time>2021-08-27T07:12:15.000Z</time>
      </trkpt>
      <trkpt lat="49.8578" lon="4.81607">
        <ele>352</ele>
        <time>2021-08-27T07:12:16.000Z</time>
      </trkpt>
      <trkpt lat="49.85783" lon="4.81608">
        <ele>352</ele>
        <time>2021-08-27T07:12:17.000Z</time>
      </trkpt>
      <trkpt lat="49.85787" lon="4.8161">
        <ele>352</ele>
        <time>2021-08-27T07:12:18.000Z</time>
      </trkpt>
      <trkpt lat="49.8579" lon="4.81612">
        <ele>352</ele>
        <time>2021-08-27T07:12:19.000Z</time>
      </trkpt>
      <trkpt lat="49.85794" lon="4.81614">
        <ele>352</ele>
        <time>2021-08-27T07:12:20.000Z</time>
      </trkpt>
      <trkpt lat="49.85797" lon="4.81616">
        <ele>352</ele>
        <time>2021-08-27T07:12:21.000Z</time>
      </trkpt>
      <trkpt lat="49.858" lon="4.81616">
        <ele>351</ele>
        <time>2021-08-27T07:12:22.000Z</time>
      </trkpt>
      <trkpt lat="49.85802" lon="4.81617">
        <ele>351</ele>
        <time>2021-08-27T07:12:23.000Z</time>
      </trkpt>
      <trkpt lat="49.85805" lon="4.81617">
        <ele>351</ele>
        <time>2021-08-27T07:12:24.000Z</time>
      </trkpt>
      <trkpt lat="49.85807" lon="4.81618">
        <ele>351</ele>
        <time>2021-08-27T07:12:25.000Z</time>
      </trkpt>
      <trkpt lat="49.8581" lon="4.81618">
        <ele>351</ele>
        <time>2021-08-27T07:12:26.000Z</time>
      </trkpt>
      <trkpt lat="49.85812" lon="4.81618">
        <ele>351</ele>
        <time>2021-08-27T07:12:27.000Z</time>
      </trkpt>
      <trkpt lat="49.85815" lon="4.81618">
        <ele>351</ele>
        <time>2021-08-27T07:12:28.000Z</time>
      </trkpt>
      <trkpt lat="49.85818" lon="4.81617">
        <ele>351</ele>
        <time>2021-08-27T07:12:29.000Z</time>
      </trkpt>
      <trkpt lat="49.8582" lon="4.81617">
        <ele>351</ele>
        <time>2021-08-27T07:12:30.000Z</time>
      </trkpt>
      <trkpt lat="49.85823" lon="4.81617">
        <ele>351</ele>
        <time>2021-08-27T07:12:31.000Z</time>
      </trkpt>
      <trkpt lat="49.85826" lon="4.81617">
        <ele>351</ele>
        <time>2021-08-27T07:12:32.000Z</time>
      </trkpt>
      <trkpt lat="49.85829" lon="4.81617">
        <ele>351</ele>
        <time>2021-08-27T07:12:33.000Z</time>
      </trkpt>
      <trkpt lat="49.85832" lon="4.81616">
        <ele>350</ele>
        <time>2021-08-27T07:12:34.000Z</time>
      </trkpt>
      <trkpt lat="49.85835" lon="4.81616">
        <ele>350</ele>
        <time>2021-08-27T07:12:35.000Z</time>
      </trkpt>
      <trkpt lat="49.85839" lon="4.81616">
        <ele>350</ele>
        <time>2021-08-27T07:12:36.000Z</time>
      </trkpt>
      <trkpt lat="49.85842" lon="4.81615">
        <ele>350</ele>
        <time>2021-08-27T07:12:37.000Z</time>
      </trkpt>
      <trkpt lat="49.85846" lon="4.81614">
        <ele>350</ele>
        <time>2021-08-27T07:12:38.000Z</time>
      </trkpt>
      <trkpt lat="49.8585" lon="4.81613">
        <ele>350</ele>
        <time>2021-08-27T07:12:39.000Z</time>
      </trkpt>
      <trkpt lat="49.85853" lon="4.81612">
        <ele>350</ele>
        <time>2021-08-27T07:12:40.000Z</time>
      </trkpt>
      <trkpt lat="49.85857" lon="4.81611">
        <ele>350</ele>
        <time>2021-08-27T07:12:41.000Z</time>
      </trkpt>
      <trkpt lat="49.8586" lon="4.81609">
        <ele>350</ele>
        <time>2021-08-27T07:12:42.000Z</time>
      </trkpt>
      <trkpt lat="49.85864" lon="4.81609">
        <ele>350</ele>
        <time>2021-08-27T07:12:43.000Z</time>
      </trkpt>
      <trkpt lat="49.85868" lon="4.81608">
        <ele>350</ele>
        <time>2021-08-27T07:12:44.000Z</time>
      </trkpt>
      <trkpt lat="49.85872" lon="4.81607">
        <ele>350</ele>
        <time>2021-08-27T07:12:45.000Z</time>
      </trkpt>
      <trkpt lat="49.85875" lon="4.81607">
        <ele>350</ele>
        <time>2021-08-27T07:12:46.000Z</time>
      </trkpt>
      <trkpt lat="49.85879" lon="4.81605">
        <ele>350</ele>
        <time>2021-08-27T07:12:47.000Z</time>
      </trkpt>
      <trkpt lat="49.85882" lon="4.81605">
        <ele>350</ele>
        <time>2021-08-27T07:12:48.000Z</time>
      </trkpt>
      <trkpt lat="49.85885" lon="4.81604">
        <ele>350</ele>
        <time>2021-08-27T07:12:49.000Z</time>
      </trkpt>
      <trkpt lat="49.85887" lon="4.81605">
        <ele>350</ele>
        <time>2021-08-27T07:12:50.000Z</time>
      </trkpt>
      <trkpt lat="49.8589" lon="4.81605">
        <ele>350</ele>
        <time>2021-08-27T07:12:51.000Z</time>
      </trkpt>
      <trkpt lat="49.85893" lon="4.81605">
        <ele>350</ele>
        <time>2021-08-27T07:12:52.000Z</time>
      </trkpt>
      <trkpt lat="49.85896" lon="4.81605">
        <ele>350</ele>
        <time>2021-08-27T07:12:53.000Z</time>
      </trkpt>
      <trkpt lat="49.85898" lon="4.81605">
        <ele>350</ele>
        <time>2021-08-27T07:12:54.000Z</time>
      </trkpt>
      <trkpt lat="49.85901" lon="4.81606">
        <ele>350</ele>
        <time>2021-08-27T07:12:55.000Z</time>
      </trkpt>
      <trkpt lat="49.85904" lon="4.81605">
        <ele>350</ele>
        <time>2021-08-27T07:12:56.000Z</time>
      </trkpt>
      <trkpt lat="49.85907" lon="4.81605">
        <ele>350</ele>
        <time>2021-08-27T07:12:57.000Z</time>
      </trkpt>
      <trkpt lat="49.8591" lon="4.81606">
        <ele>350</ele>
        <time>2021-08-27T07:12:58.000Z</time>
      </trkpt>
      <trkpt lat="49.85913" lon="4.81606">
        <ele>350</ele>
        <time>2021-08-27T07:12:59.000Z</time>
      </trkpt>
      <trkpt lat="49.85916" lon="4.81607">
        <ele>349</ele>
        <time>2021-08-27T07:13:00.000Z</time>
      </trkpt>
      <trkpt lat="49.85918" lon="4.81607">
        <ele>349</ele>
        <time>2021-08-27T07:13:01.000Z</time>
      </trkpt>
      <trkpt lat="49.85922" lon="4.81608">
        <ele>349</ele>
        <time>2021-08-27T07:13:02.000Z</time>
      </trkpt>
      <trkpt lat="49.85925" lon="4.81608">
        <ele>349</ele>
        <time>2021-08-27T07:13:03.000Z</time>
      </trkpt>
      <trkpt lat="49.85928" lon="4.81609">
        <ele>349</ele>
        <time>2021-08-27T07:13:04.000Z</time>
      </trkpt>
      <trkpt lat="49.85931" lon="4.8161">
        <ele>349</ele>
        <time>2021-08-27T07:13:05.000Z</time>
      </trkpt>
      <trkpt lat="49.85934" lon="4.81611">
        <ele>349</ele>
        <time>2021-08-27T07:13:06.000Z</time>
      </trkpt>
      <trkpt lat="49.85938" lon="4.81612">
        <ele>349</ele>
        <time>2021-08-27T07:13:07.000Z</time>
      </trkpt>
      <trkpt lat="49.85942" lon="4.81614">
        <ele>349</ele>
        <time>2021-08-27T07:13:08.000Z</time>
      </trkpt>
      <trkpt lat="49.85946" lon="4.81615">
        <ele>349</ele>
        <time>2021-08-27T07:13:09.000Z</time>
      </trkpt>
      <trkpt lat="49.8595" lon="4.81616">
        <ele>349</ele>
        <time>2021-08-27T07:13:10.000Z</time>
      </trkpt>
      <trkpt lat="49.85953" lon="4.81617">
        <ele>349</ele>
        <time>2021-08-27T07:13:11.000Z</time>
      </trkpt>
      <trkpt lat="49.85956" lon="4.81618">
        <ele>349</ele>
        <time>2021-08-27T07:13:12.000Z</time>
      </trkpt>
      <trkpt lat="49.85959" lon="4.8162">
        <ele>349</ele>
        <time>2021-08-27T07:13:13.000Z</time>
      </trkpt>
      <trkpt lat="49.85962" lon="4.81621">
        <ele>349</ele>
        <time>2021-08-27T07:13:14.000Z</time>
      </trkpt>
      <trkpt lat="49.85966" lon="4.81623">
        <ele>349</ele>
        <time>2021-08-27T07:13:15.000Z</time>
      </trkpt>
      <trkpt lat="49.8597" lon="4.81624">
        <ele>349</ele>
        <time>2021-08-27T07:13:16.000Z</time>
      </trkpt>
      <trkpt lat="49.85973" lon="4.81626">
        <ele>349</ele>
        <time>2021-08-27T07:13:17.000Z</time>
      </trkpt>
      <trkpt lat="49.85977" lon="4.81627">
        <ele>349</ele>
        <time>2021-08-27T07:13:18.000Z</time>
      </trkpt>
      <trkpt lat="49.8598" lon="4.81628">
        <ele>349</ele>
        <time>2021-08-27T07:13:19.000Z</time>
      </trkpt>
      <trkpt lat="49.85984" lon="4.8163">
        <ele>349</ele>
        <time>2021-08-27T07:13:20.000Z</time>
      </trkpt>
      <trkpt lat="49.85988" lon="4.81631">
        <ele>348</ele>
        <time>2021-08-27T07:13:21.000Z</time>
      </trkpt>
      <trkpt lat="49.85991" lon="4.81633">
        <ele>348</ele>
        <time>2021-08-27T07:13:22.000Z</time>
      </trkpt>
      <trkpt lat="49.85995" lon="4.81634">
        <ele>348</ele>
        <time>2021-08-27T07:13:23.000Z</time>
      </trkpt>
      <trkpt lat="49.85999" lon="4.81636">
        <ele>348</ele>
        <time>2021-08-27T07:13:24.000Z</time>
      </trkpt>
      <trkpt lat="49.86003" lon="4.81638">
        <ele>348</ele>
        <time>2021-08-27T07:13:25.000Z</time>
      </trkpt>
      <trkpt lat="49.86007" lon="4.8164">
        <ele>348</ele>
        <time>2021-08-27T07:13:26.000Z</time>
      </trkpt>
      <trkpt lat="49.8601" lon="4.81642">
        <ele>348</ele>
        <time>2021-08-27T07:13:27.000Z</time>
      </trkpt>
      <trkpt lat="49.86014" lon="4.81645">
        <ele>348</ele>
        <time>2021-08-27T07:13:28.000Z</time>
      </trkpt>
      <trkpt lat="49.86018" lon="4.81647">
        <ele>348</ele>
        <time>2021-08-27T07:13:29.000Z</time>
      </trkpt>
      <trkpt lat="49.86021" lon="4.81649">
        <ele>348</ele>
        <time>2021-08-27T07:13:30.000Z</time>
      </trkpt>
      <trkpt lat="49.86025" lon="4.8165">
        <ele>348</ele>
        <time>2021-08-27T07:13:31.000Z</time>
      </trkpt>
      <trkpt lat="49.86029" lon="4.81652">
        <ele>348</ele>
        <time>2021-08-27T07:13:32.000Z</time>
      </trkpt>
      <trkpt lat="49.86032" lon="4.81654">
        <ele>348</ele>
        <time>2021-08-27T07:13:33.000Z</time>
      </trkpt>
      <trkpt lat="49.86036" lon="4.81656">
        <ele>348</ele>
        <time>2021-08-27T07:13:34.000Z</time>
      </trkpt>
      <trkpt lat="49.86039" lon="4.81659">
        <ele>348</ele>
        <time>2021-08-27T07:13:35.000Z</time>
      </trkpt>
      <trkpt lat="49.86042" lon="4.81661">
        <ele>348</ele>
        <time>2021-08-27T07:13:36.000Z</time>
      </trkpt>
      <trkpt lat="49.86046" lon="4.81662">
        <ele>348</ele>
        <time>2021-08-27T07:13:37.000Z</time>
      </trkpt>
      <trkpt lat="49.86048" lon="4.81665">
        <ele>348</ele>
        <time>2021-08-27T07:13:38.000Z</time>
      </trkpt>
      <trkpt lat="49.86051" lon="4.81667">
        <ele>348</ele>
        <time>2021-08-27T07:13:39.000Z</time>
      </trkpt>
      <trkpt lat="49.86054" lon="4.81669">
        <ele>348</ele>
        <time>2021-08-27T07:13:40.000Z</time>
      </trkpt>
      <trkpt lat="49.86057" lon="4.81672">
        <ele>348</ele>
        <time>2021-08-27T07:13:41.000Z</time>
      </trkpt>
      <trkpt lat="49.8606" lon="4.81674">
        <ele>348</ele>
        <time>2021-08-27T07:13:42.000Z</time>
      </trkpt>
      <trkpt lat="49.86062" lon="4.81677">
        <ele>348</ele>
        <time>2021-08-27T07:13:43.000Z</time>
      </trkpt>
      <trkpt lat="49.86065" lon="4.81679">
        <ele>348</ele>
        <time>2021-08-27T07:13:44.000Z</time>
      </trkpt>
      <trkpt lat="49.86068" lon="4.81681">
        <ele>349</ele>
        <time>2021-08-27T07:13:45.000Z</time>
      </trkpt>
      <trkpt lat="49.86071" lon="4.81684">
        <ele>349</ele>
        <time>2021-08-27T07:13:46.000Z</time>
      </trkpt>
      <trkpt lat="49.86074" lon="4.81686">
        <ele>349</ele>
        <time>2021-08-27T07:13:47.000Z</time>
      </trkpt>
      <trkpt lat="49.86077" lon="4.81689">
        <ele>349</ele>
        <time>2021-08-27T07:13:48.000Z</time>
      </trkpt>
      <trkpt lat="49.8608" lon="4.81692">
        <ele>349</ele>
        <time>2021-08-27T07:13:49.000Z</time>
      </trkpt>
      <trkpt lat="49.86083" lon="4.81694">
        <ele>349</ele>
        <time>2021-08-27T07:13:50.000Z</time>
      </trkpt>
      <trkpt lat="49.86086" lon="4.81698">
        <ele>349</ele>
        <time>2021-08-27T07:13:51.000Z</time>
      </trkpt>
      <trkpt lat="49.86088" lon="4.817">
        <ele>349</ele>
        <time>2021-08-27T07:13:52.000Z</time>
      </trkpt>
      <trkpt lat="49.86092" lon="4.81703">
        <ele>349</ele>
        <time>2021-08-27T07:13:53.000Z</time>
      </trkpt>
      <trkpt lat="49.86095" lon="4.81706">
        <ele>350</ele>
        <time>2021-08-27T07:13:54.000Z</time>
      </trkpt>
      <trkpt lat="49.86098" lon="4.81709">
        <ele>350</ele>
        <time>2021-08-27T07:13:55.000Z</time>
      </trkpt>
      <trkpt lat="49.861" lon="4.81713">
        <ele>350</ele>
        <time>2021-08-27T07:13:56.000Z</time>
      </trkpt>
      <trkpt lat="49.86103" lon="4.81716">
        <ele>350</ele>
        <time>2021-08-27T07:13:57.000Z</time>
      </trkpt>
      <trkpt lat="49.86105" lon="4.81718">
        <ele>350</ele>
        <time>2021-08-27T07:13:58.000Z</time>
      </trkpt>
      <trkpt lat="49.86107" lon="4.81721">
        <ele>350</ele>
        <time>2021-08-27T07:13:59.000Z</time>
      </trkpt>
      <trkpt lat="49.86108" lon="4.81723">
        <ele>350</ele>
        <time>2021-08-27T07:14:00.000Z</time>
      </trkpt>
      <trkpt lat="49.86111" lon="4.81725">
        <ele>350</ele>
        <time>2021-08-27T07:14:01.000Z</time>
      </trkpt>
      <trkpt lat="49.86113" lon="4.81728">
        <ele>350</ele>
        <time>2021-08-27T07:14:02.000Z</time>
      </trkpt>
      <trkpt lat="49.86115" lon="4.8173">
        <ele>350</ele>
        <time>2021-08-27T07:14:03.000Z</time>
      </trkpt>
      <trkpt lat="49.86118" lon="4.81732">
        <ele>351</ele>
        <time>2021-08-27T07:14:04.000Z</time>
      </trkpt>
      <trkpt lat="49.8612" lon="4.81733">
        <ele>351</ele>
        <time>2021-08-27T07:14:05.000Z</time>
      </trkpt>
      <trkpt lat="49.86122" lon="4.81735">
        <ele>351</ele>
        <time>2021-08-27T07:14:06.000Z</time>
      </trkpt>
      <trkpt lat="49.86124" lon="4.81735">
        <ele>351</ele>
        <time>2021-08-27T07:14:07.000Z</time>
      </trkpt>
      <trkpt lat="49.86127" lon="4.81736">
        <ele>352</ele>
        <time>2021-08-27T07:14:08.000Z</time>
      </trkpt>
      <trkpt lat="49.86129" lon="4.81738">
        <ele>352</ele>
        <time>2021-08-27T07:14:09.000Z</time>
      </trkpt>
      <trkpt lat="49.86132" lon="4.8174">
        <ele>352</ele>
        <time>2021-08-27T07:14:10.000Z</time>
      </trkpt>
      <trkpt lat="49.86135" lon="4.81743">
        <ele>352</ele>
        <time>2021-08-27T07:14:11.000Z</time>
      </trkpt>
      <trkpt lat="49.86138" lon="4.81745">
        <ele>352</ele>
        <time>2021-08-27T07:14:12.000Z</time>
      </trkpt>
      <trkpt lat="49.86141" lon="4.81748">
        <ele>352</ele>
        <time>2021-08-27T07:14:13.000Z</time>
      </trkpt>
      <trkpt lat="49.86145" lon="4.8175">
        <ele>353</ele>
        <time>2021-08-27T07:14:14.000Z</time>
      </trkpt>
      <trkpt lat="49.86148" lon="4.81753">
        <ele>353</ele>
        <time>2021-08-27T07:14:15.000Z</time>
      </trkpt>
      <trkpt lat="49.86151" lon="4.81756">
        <ele>353</ele>
        <time>2021-08-27T07:14:16.000Z</time>
      </trkpt>
      <trkpt lat="49.86153" lon="4.81758">
        <ele>353</ele>
        <time>2021-08-27T07:14:17.000Z</time>
      </trkpt>
      <trkpt lat="49.86155" lon="4.81761">
        <ele>353</ele>
        <time>2021-08-27T07:14:18.000Z</time>
      </trkpt>
      <trkpt lat="49.86158" lon="4.81763">
        <ele>353</ele>
        <time>2021-08-27T07:14:19.000Z</time>
      </trkpt>
      <trkpt lat="49.86161" lon="4.81765">
        <ele>354</ele>
        <time>2021-08-27T07:14:20.000Z</time>
      </trkpt>
      <trkpt lat="49.86164" lon="4.81768">
        <ele>354</ele>
        <time>2021-08-27T07:14:21.000Z</time>
      </trkpt>
      <trkpt lat="49.86166" lon="4.81771">
        <ele>354</ele>
        <time>2021-08-27T07:14:22.000Z</time>
      </trkpt>
      <trkpt lat="49.86169" lon="4.81774">
        <ele>354</ele>
        <time>2021-08-27T07:14:23.000Z</time>
      </trkpt>
      <trkpt lat="49.86172" lon="4.81777">
        <ele>354</ele>
        <time>2021-08-27T07:14:24.000Z</time>
      </trkpt>
      <trkpt lat="49.86175" lon="4.81779">
        <ele>354</ele>
        <time>2021-08-27T07:14:25.000Z</time>
      </trkpt>
      <trkpt lat="49.86179" lon="4.81782">
        <ele>354</ele>
        <time>2021-08-27T07:14:26.000Z</time>
      </trkpt>
      <trkpt lat="49.86182" lon="4.81784">
        <ele>354</ele>
        <time>2021-08-27T07:14:27.000Z</time>
      </trkpt>
      <trkpt lat="49.86186" lon="4.81787">
        <ele>354</ele>
        <time>2021-08-27T07:14:28.000Z</time>
      </trkpt>
      <trkpt lat="49.86189" lon="4.81789">
        <ele>354</ele>
        <time>2021-08-27T07:14:29.000Z</time>
      </trkpt>
      <trkpt lat="49.86192" lon="4.81791">
        <ele>354</ele>
        <time>2021-08-27T07:14:30.000Z</time>
      </trkpt>
      <trkpt lat="49.86196" lon="4.81793">
        <ele>354</ele>
        <time>2021-08-27T07:14:31.000Z</time>
      </trkpt>
      <trkpt lat="49.86199" lon="4.81795">
        <ele>354</ele>
        <time>2021-08-27T07:14:32.000Z</time>
      </trkpt>
      <trkpt lat="49.86202" lon="4.81797">
        <ele>354</ele>
        <time>2021-08-27T07:14:33.000Z</time>
      </trkpt>
      <trkpt lat="49.86206" lon="4.81799">
        <ele>354</ele>
        <time>2021-08-27T07:14:34.000Z</time>
      </trkpt>
      <trkpt lat="49.8621" lon="4.81801">
        <ele>354</ele>
        <time>2021-08-27T07:14:35.000Z</time>
      </trkpt>
      <trkpt lat="49.86214" lon="4.81803">
        <ele>354</ele>
        <time>2021-08-27T07:14:36.000Z</time>
      </trkpt>
      <trkpt lat="49.86219" lon="4.81805">
        <ele>354</ele>
        <time>2021-08-27T07:14:37.000Z</time>
      </trkpt>
      <trkpt lat="49.86223" lon="4.81807">
        <ele>354</ele>
        <time>2021-08-27T07:14:38.000Z</time>
      </trkpt>
      <trkpt lat="49.86227" lon="4.81809">
        <ele>354</ele>
        <time>2021-08-27T07:14:39.000Z</time>
      </trkpt>
      <trkpt lat="49.8623" lon="4.8181">
        <ele>354</ele>
        <time>2021-08-27T07:14:40.000Z</time>
      </trkpt>
      <trkpt lat="49.86233" lon="4.81811">
        <ele>354</ele>
        <time>2021-08-27T07:14:41.000Z</time>
      </trkpt>
      <trkpt lat="49.86234" lon="4.81811">
        <ele>354</ele>
        <time>2021-08-27T07:14:42.000Z</time>
      </trkpt>
      <trkpt lat="49.86235" lon="4.81811">
        <ele>354</ele>
        <time>2021-08-27T07:14:43.000Z</time>
      </trkpt>
      <trkpt lat="49.86237" lon="4.81811">
        <ele>354</ele>
        <time>2021-08-27T07:14:44.000Z</time>
      </trkpt>
      <trkpt lat="49.86239" lon="4.81811">
        <ele>354</ele>
        <time>2021-08-27T07:14:45.000Z</time>
      </trkpt>
      <trkpt lat="49.8624" lon="4.81811">
        <ele>354</ele>
        <time>2021-08-27T07:14:46.000Z</time>
      </trkpt>
      <trkpt lat="49.86242" lon="4.81812">
        <ele>354</ele>
        <time>2021-08-27T07:14:47.000Z</time>
      </trkpt>
      <trkpt lat="49.86245" lon="4.81812">
        <ele>353</ele>
        <time>2021-08-27T07:14:48.000Z</time>
      </trkpt>
      <trkpt lat="49.86247" lon="4.81813">
        <ele>353</ele>
        <time>2021-08-27T07:14:49.000Z</time>
      </trkpt>
      <trkpt lat="49.8625" lon="4.81814">
        <ele>353</ele>
        <time>2021-08-27T07:14:50.000Z</time>
      </trkpt>
      <trkpt lat="49.86252" lon="4.81816">
        <ele>353</ele>
        <time>2021-08-27T07:14:51.000Z</time>
      </trkpt>
      <trkpt lat="49.86255" lon="4.81818">
        <ele>353</ele>
        <time>2021-08-27T07:14:52.000Z</time>
      </trkpt>
      <trkpt lat="49.86258" lon="4.81819">
        <ele>353</ele>
        <time>2021-08-27T07:14:53.000Z</time>
      </trkpt>
      <trkpt lat="49.8626" lon="4.8182">
        <ele>353</ele>
        <time>2021-08-27T07:14:54.000Z</time>
      </trkpt>
      <trkpt lat="49.86263" lon="4.81821">
        <ele>354</ele>
        <time>2021-08-27T07:14:55.000Z</time>
      </trkpt>
      <trkpt lat="49.86266" lon="4.81822">
        <ele>354</ele>
        <time>2021-08-27T07:14:56.000Z</time>
      </trkpt>
      <trkpt lat="49.86269" lon="4.81823">
        <ele>354</ele>
        <time>2021-08-27T07:14:57.000Z</time>
      </trkpt>
      <trkpt lat="49.86271" lon="4.81824">
        <ele>354</ele>
        <time>2021-08-27T07:14:58.000Z</time>
      </trkpt>
      <trkpt lat="49.86274" lon="4.81825">
        <ele>354</ele>
        <time>2021-08-27T07:14:59.000Z</time>
      </trkpt>
      <trkpt lat="49.86277" lon="4.81826">
        <ele>354</ele>
        <time>2021-08-27T07:15:00.000Z</time>
      </trkpt>
      <trkpt lat="49.8628" lon="4.81827">
        <ele>354</ele>
        <time>2021-08-27T07:15:01.000Z</time>
      </trkpt>
      <trkpt lat="49.86283" lon="4.81828">
        <ele>354</ele>
        <time>2021-08-27T07:15:02.000Z</time>
      </trkpt>
      <trkpt lat="49.86287" lon="4.8183">
        <ele>354</ele>
        <time>2021-08-27T07:15:03.000Z</time>
      </trkpt>
      <trkpt lat="49.8629" lon="4.81831">
        <ele>354</ele>
        <time>2021-08-27T07:15:04.000Z</time>
      </trkpt>
      <trkpt lat="49.86294" lon="4.81833">
        <ele>354</ele>
        <time>2021-08-27T07:15:05.000Z</time>
      </trkpt>
      <trkpt lat="49.86297" lon="4.81834">
        <ele>354</ele>
        <time>2021-08-27T07:15:06.000Z</time>
      </trkpt>
      <trkpt lat="49.863" lon="4.81836">
        <ele>354</ele>
        <time>2021-08-27T07:15:07.000Z</time>
      </trkpt>
      <trkpt lat="49.86303" lon="4.81837">
        <ele>354</ele>
        <time>2021-08-27T07:15:08.000Z</time>
      </trkpt>
      <trkpt lat="49.86307" lon="4.81838">
        <ele>354</ele>
        <time>2021-08-27T07:15:09.000Z</time>
      </trkpt>
      <trkpt lat="49.8631" lon="4.81839">
        <ele>354</ele>
        <time>2021-08-27T07:15:10.000Z</time>
      </trkpt>
      <trkpt lat="49.86312" lon="4.8184">
        <ele>355</ele>
        <time>2021-08-27T07:15:11.000Z</time>
      </trkpt>
      <trkpt lat="49.86315" lon="4.81841">
        <ele>355</ele>
        <time>2021-08-27T07:15:12.000Z</time>
      </trkpt>
      <trkpt lat="49.86318" lon="4.81843">
        <ele>355</ele>
        <time>2021-08-27T07:15:13.000Z</time>
      </trkpt>
      <trkpt lat="49.86321" lon="4.81845">
        <ele>355</ele>
        <time>2021-08-27T07:15:14.000Z</time>
      </trkpt>
      <trkpt lat="49.86323" lon="4.81846">
        <ele>355</ele>
        <time>2021-08-27T07:15:15.000Z</time>
      </trkpt>
      <trkpt lat="49.86326" lon="4.81848">
        <ele>355</ele>
        <time>2021-08-27T07:15:16.000Z</time>
      </trkpt>
      <trkpt lat="49.86328" lon="4.81849">
        <ele>355</ele>
        <time>2021-08-27T07:15:17.000Z</time>
      </trkpt>
      <trkpt lat="49.8633" lon="4.8185">
        <ele>355</ele>
        <time>2021-08-27T07:15:18.000Z</time>
      </trkpt>
      <trkpt lat="49.86333" lon="4.81851">
        <ele>355</ele>
        <time>2021-08-27T07:15:19.000Z</time>
      </trkpt>
      <trkpt lat="49.86335" lon="4.81852">
        <ele>355</ele>
        <time>2021-08-27T07:15:20.000Z</time>
      </trkpt>
      <trkpt lat="49.86338" lon="4.81852">
        <ele>355</ele>
        <time>2021-08-27T07:15:21.000Z</time>
      </trkpt>
      <trkpt lat="49.8634" lon="4.81854">
        <ele>355</ele>
        <time>2021-08-27T07:15:22.000Z</time>
      </trkpt>
      <trkpt lat="49.86342" lon="4.81855">
        <ele>355</ele>
        <time>2021-08-27T07:15:23.000Z</time>
      </trkpt>
      <trkpt lat="49.86345" lon="4.81857">
        <ele>355</ele>
        <time>2021-08-27T07:15:24.000Z</time>
      </trkpt>
      <trkpt lat="49.86348" lon="4.81858">
        <ele>355</ele>
        <time>2021-08-27T07:15:25.000Z</time>
      </trkpt>
      <trkpt lat="49.8635" lon="4.81859">
        <ele>355</ele>
        <time>2021-08-27T07:15:26.000Z</time>
      </trkpt>
      <trkpt lat="49.86352" lon="4.8186">
        <ele>355</ele>
        <time>2021-08-27T07:15:27.000Z</time>
      </trkpt>
      <trkpt lat="49.86355" lon="4.8186">
        <ele>355</ele>
        <time>2021-08-27T07:15:28.000Z</time>
      </trkpt>
      <trkpt lat="49.86357" lon="4.8186">
        <ele>355</ele>
        <time>2021-08-27T07:15:29.000Z</time>
      </trkpt>
      <trkpt lat="49.8636" lon="4.81861">
        <ele>355</ele>
        <time>2021-08-27T07:15:30.000Z</time>
      </trkpt>
      <trkpt lat="49.86362" lon="4.81861">
        <ele>355</ele>
        <time>2021-08-27T07:15:31.000Z</time>
      </trkpt>
      <trkpt lat="49.86365" lon="4.81862">
        <ele>355</ele>
        <time>2021-08-27T07:15:32.000Z</time>
      </trkpt>
      <trkpt lat="49.86367" lon="4.81862">
        <ele>355</ele>
        <time>2021-08-27T07:15:33.000Z</time>
      </trkpt>
      <trkpt lat="49.8637" lon="4.81863">
        <ele>356</ele>
        <time>2021-08-27T07:15:34.000Z</time>
      </trkpt>
      <trkpt lat="49.86373" lon="4.81863">
        <ele>356</ele>
        <time>2021-08-27T07:15:35.000Z</time>
      </trkpt>
      <trkpt lat="49.86375" lon="4.81863">
        <ele>356</ele>
        <time>2021-08-27T07:15:36.000Z</time>
      </trkpt>
      <trkpt lat="49.86378" lon="4.81863">
        <ele>356</ele>
        <time>2021-08-27T07:15:37.000Z</time>
      </trkpt>
      <trkpt lat="49.86381" lon="4.81864">
        <ele>356</ele>
        <time>2021-08-27T07:15:38.000Z</time>
      </trkpt>
      <trkpt lat="49.86384" lon="4.81866">
        <ele>356</ele>
        <time>2021-08-27T07:15:39.000Z</time>
      </trkpt>
      <trkpt lat="49.86386" lon="4.81867">
        <ele>356</ele>
        <time>2021-08-27T07:15:40.000Z</time>
      </trkpt>
      <trkpt lat="49.86389" lon="4.81869">
        <ele>356</ele>
        <time>2021-08-27T07:15:41.000Z</time>
      </trkpt>
      <trkpt lat="49.86392" lon="4.8187">
        <ele>355</ele>
        <time>2021-08-27T07:15:42.000Z</time>
      </trkpt>
      <trkpt lat="49.86395" lon="4.81871">
        <ele>355</ele>
        <time>2021-08-27T07:15:43.000Z</time>
      </trkpt>
      <trkpt lat="49.86398" lon="4.81872">
        <ele>355</ele>
        <time>2021-08-27T07:15:44.000Z</time>
      </trkpt>
      <trkpt lat="49.86401" lon="4.81873">
        <ele>355</ele>
        <time>2021-08-27T07:15:45.000Z</time>
      </trkpt>
      <trkpt lat="49.86404" lon="4.81874">
        <ele>355</ele>
        <time>2021-08-27T07:15:46.000Z</time>
      </trkpt>
      <trkpt lat="49.86407" lon="4.81874">
        <ele>355</ele>
        <time>2021-08-27T07:15:47.000Z</time>
      </trkpt>
      <trkpt lat="49.8641" lon="4.81875">
        <ele>355</ele>
        <time>2021-08-27T07:15:48.000Z</time>
      </trkpt>
      <trkpt lat="49.86414" lon="4.81875">
        <ele>355</ele>
        <time>2021-08-27T07:15:49.000Z</time>
      </trkpt>
      <trkpt lat="49.86418" lon="4.81876">
        <ele>354</ele>
        <time>2021-08-27T07:15:50.000Z</time>
      </trkpt>
      <trkpt lat="49.86422" lon="4.81877">
        <ele>354</ele>
        <time>2021-08-27T07:15:51.000Z</time>
      </trkpt>
      <trkpt lat="49.86426" lon="4.81877">
        <ele>354</ele>
        <time>2021-08-27T07:15:52.000Z</time>
      </trkpt>
      <trkpt lat="49.8643" lon="4.81878">
        <ele>354</ele>
        <time>2021-08-27T07:15:53.000Z</time>
      </trkpt>
      <trkpt lat="49.86433" lon="4.8188">
        <ele>354</ele>
        <time>2021-08-27T07:15:54.000Z</time>
      </trkpt>
      <trkpt lat="49.86437" lon="4.8188">
        <ele>354</ele>
        <time>2021-08-27T07:15:55.000Z</time>
      </trkpt>
      <trkpt lat="49.8644" lon="4.81881">
        <ele>354</ele>
        <time>2021-08-27T07:15:56.000Z</time>
      </trkpt>
      <trkpt lat="49.86443" lon="4.81882">
        <ele>354</ele>
        <time>2021-08-27T07:15:57.000Z</time>
      </trkpt>
      <trkpt lat="49.86446" lon="4.81884">
        <ele>354</ele>
        <time>2021-08-27T07:15:58.000Z</time>
      </trkpt>
      <trkpt lat="49.8645" lon="4.81885">
        <ele>354</ele>
        <time>2021-08-27T07:15:59.000Z</time>
      </trkpt>
      <trkpt lat="49.86453" lon="4.81886">
        <ele>354</ele>
        <time>2021-08-27T07:16:00.000Z</time>
      </trkpt>
      <trkpt lat="49.86456" lon="4.81888">
        <ele>354</ele>
        <time>2021-08-27T07:16:01.000Z</time>
      </trkpt>
      <trkpt lat="49.86459" lon="4.81889">
        <ele>353</ele>
        <time>2021-08-27T07:16:02.000Z</time>
      </trkpt>
      <trkpt lat="49.86463" lon="4.8189">
        <ele>353</ele>
        <time>2021-08-27T07:16:03.000Z</time>
      </trkpt>
      <trkpt lat="49.86466" lon="4.81891">
        <ele>353</ele>
        <time>2021-08-27T07:16:04.000Z</time>
      </trkpt>
      <trkpt lat="49.8647" lon="4.81893">
        <ele>353</ele>
        <time>2021-08-27T07:16:05.000Z</time>
      </trkpt>
      <trkpt lat="49.86473" lon="4.81894">
        <ele>353</ele>
        <time>2021-08-27T07:16:06.000Z</time>
      </trkpt>
      <trkpt lat="49.86476" lon="4.81895">
        <ele>353</ele>
        <time>2021-08-27T07:16:07.000Z</time>
      </trkpt>
      <trkpt lat="49.8648" lon="4.81897">
        <ele>353</ele>
        <time>2021-08-27T07:16:08.000Z</time>
      </trkpt>
      <trkpt lat="49.86483" lon="4.81899">
        <ele>352</ele>
        <time>2021-08-27T07:16:09.000Z</time>
      </trkpt>
      <trkpt lat="49.86487" lon="4.819">
        <ele>352</ele>
        <time>2021-08-27T07:16:10.000Z</time>
      </trkpt>
      <trkpt lat="49.8649" lon="4.81902">
        <ele>352</ele>
        <time>2021-08-27T07:16:11.000Z</time>
      </trkpt>
      <trkpt lat="49.86494" lon="4.81903">
        <ele>352</ele>
        <time>2021-08-27T07:16:12.000Z</time>
      </trkpt>
      <trkpt lat="49.86497" lon="4.81905">
        <ele>352</ele>
        <time>2021-08-27T07:16:13.000Z</time>
      </trkpt>
      <trkpt lat="49.86501" lon="4.81906">
        <ele>352</ele>
        <time>2021-08-27T07:16:14.000Z</time>
      </trkpt>
      <trkpt lat="49.86504" lon="4.81907">
        <ele>352</ele>
        <time>2021-08-27T07:16:15.000Z</time>
      </trkpt>
      <trkpt lat="49.86507" lon="4.81909">
        <ele>352</ele>
        <time>2021-08-27T07:16:16.000Z</time>
      </trkpt>
      <trkpt lat="49.86511" lon="4.8191">
        <ele>352</ele>
        <time>2021-08-27T07:16:17.000Z</time>
      </trkpt>
      <trkpt lat="49.86514" lon="4.81912">
        <ele>352</ele>
        <time>2021-08-27T07:16:18.000Z</time>
      </trkpt>
      <trkpt lat="49.86518" lon="4.81913">
        <ele>352</ele>
        <time>2021-08-27T07:16:19.000Z</time>
      </trkpt>
      <trkpt lat="49.86522" lon="4.81915">
        <ele>352</ele>
        <time>2021-08-27T07:16:20.000Z</time>
      </trkpt>
      <trkpt lat="49.86526" lon="4.81917">
        <ele>352</ele>
        <time>2021-08-27T07:16:21.000Z</time>
      </trkpt>
      <trkpt lat="49.8653" lon="4.81918">
        <ele>352</ele>
        <time>2021-08-27T07:16:22.000Z</time>
      </trkpt>
      <trkpt lat="49.86534" lon="4.81919">
        <ele>352</ele>
        <time>2021-08-27T07:16:23.000Z</time>
      </trkpt>
      <trkpt lat="49.86539" lon="4.8192">
        <ele>352</ele>
        <time>2021-08-27T07:16:24.000Z</time>
      </trkpt>
      <trkpt lat="49.86543" lon="4.8192">
        <ele>352</ele>
        <time>2021-08-27T07:16:25.000Z</time>
      </trkpt>
      <trkpt lat="49.86547" lon="4.81921">
        <ele>352</ele>
        <time>2021-08-27T07:16:26.000Z</time>
      </trkpt>
      <trkpt lat="49.8655" lon="4.81921">
        <ele>352</ele>
        <time>2021-08-27T07:16:27.000Z</time>
      </trkpt>
      <trkpt lat="49.86554" lon="4.8192">
        <ele>352</ele>
        <time>2021-08-27T07:16:28.000Z</time>
      </trkpt>
      <trkpt lat="49.86557" lon="4.81919">
        <ele>351</ele>
        <time>2021-08-27T07:16:29.000Z</time>
      </trkpt>
      <trkpt lat="49.86561" lon="4.81918">
        <ele>351</ele>
        <time>2021-08-27T07:16:30.000Z</time>
      </trkpt>
      <trkpt lat="49.86565" lon="4.81917">
        <ele>351</ele>
        <time>2021-08-27T07:16:31.000Z</time>
      </trkpt>
      <trkpt lat="49.86569" lon="4.81916">
        <ele>351</ele>
        <time>2021-08-27T07:16:32.000Z</time>
      </trkpt>
      <trkpt lat="49.86573" lon="4.81915">
        <ele>351</ele>
        <time>2021-08-27T07:16:33.000Z</time>
      </trkpt>
      <trkpt lat="49.86577" lon="4.81914">
        <ele>351</ele>
        <time>2021-08-27T07:16:34.000Z</time>
      </trkpt>
      <trkpt lat="49.86581" lon="4.81913">
        <ele>351</ele>
        <time>2021-08-27T07:16:35.000Z</time>
      </trkpt>
      <trkpt lat="49.86585" lon="4.81913">
        <ele>350</ele>
        <time>2021-08-27T07:16:36.000Z</time>
      </trkpt>
      <trkpt lat="49.86588" lon="4.81912">
        <ele>350</ele>
        <time>2021-08-27T07:16:37.000Z</time>
      </trkpt>
      <trkpt lat="49.86592" lon="4.81911">
        <ele>350</ele>
        <time>2021-08-27T07:16:38.000Z</time>
      </trkpt>
      <trkpt lat="49.86595" lon="4.8191">
        <ele>350</ele>
        <time>2021-08-27T07:16:39.000Z</time>
      </trkpt>
      <trkpt lat="49.86599" lon="4.81909">
        <ele>350</ele>
        <time>2021-08-27T07:16:40.000Z</time>
      </trkpt>
      <trkpt lat="49.86602" lon="4.81908">
        <ele>350</ele>
        <time>2021-08-27T07:16:41.000Z</time>
      </trkpt>
      <trkpt lat="49.86605" lon="4.81906">
        <ele>350</ele>
        <time>2021-08-27T07:16:42.000Z</time>
      </trkpt>
      <trkpt lat="49.86608" lon="4.81905">
        <ele>350</ele>
        <time>2021-08-27T07:16:43.000Z</time>
      </trkpt>
      <trkpt lat="49.86611" lon="4.81903">
        <ele>349</ele>
        <time>2021-08-27T07:16:44.000Z</time>
      </trkpt>
      <trkpt lat="49.86614" lon="4.819">
        <ele>349</ele>
        <time>2021-08-27T07:16:45.000Z</time>
      </trkpt>
      <trkpt lat="49.86618" lon="4.81898">
        <ele>349</ele>
        <time>2021-08-27T07:16:46.000Z</time>
      </trkpt>
      <trkpt lat="49.86621" lon="4.81894">
        <ele>349</ele>
        <time>2021-08-27T07:16:47.000Z</time>
      </trkpt>
      <trkpt lat="49.86625" lon="4.81891">
        <ele>349</ele>
        <time>2021-08-27T07:16:48.000Z</time>
      </trkpt>
      <trkpt lat="49.86629" lon="4.81889">
        <ele>349</ele>
        <time>2021-08-27T07:16:49.000Z</time>
      </trkpt>
      <trkpt lat="49.86633" lon="4.81886">
        <ele>348</ele>
        <time>2021-08-27T07:16:50.000Z</time>
      </trkpt>
      <trkpt lat="49.86636" lon="4.81883">
        <ele>348</ele>
        <time>2021-08-27T07:16:51.000Z</time>
      </trkpt>
      <trkpt lat="49.8664" lon="4.8188">
        <ele>348</ele>
        <time>2021-08-27T07:16:52.000Z</time>
      </trkpt>
      <trkpt lat="49.86644" lon="4.81877">
        <ele>348</ele>
        <time>2021-08-27T07:16:53.000Z</time>
      </trkpt>
      <trkpt lat="49.86647" lon="4.81874">
        <ele>348</ele>
        <time>2021-08-27T07:16:54.000Z</time>
      </trkpt>
      <trkpt lat="49.8665" lon="4.81871">
        <ele>347</ele>
        <time>2021-08-27T07:16:55.000Z</time>
      </trkpt>
      <trkpt lat="49.86653" lon="4.81868">
        <ele>347</ele>
        <time>2021-08-27T07:16:56.000Z</time>
      </trkpt>
      <trkpt lat="49.86657" lon="4.81865">
        <ele>347</ele>
        <time>2021-08-27T07:16:57.000Z</time>
      </trkpt>
      <trkpt lat="49.8666" lon="4.81862">
        <ele>346</ele>
        <time>2021-08-27T07:16:58.000Z</time>
      </trkpt>
      <trkpt lat="49.86663" lon="4.81861">
        <ele>346</ele>
        <time>2021-08-27T07:16:59.000Z</time>
      </trkpt>
      <trkpt lat="49.86667" lon="4.81859">
        <ele>346</ele>
        <time>2021-08-27T07:17:00.000Z</time>
      </trkpt>
      <trkpt lat="49.86671" lon="4.81857">
        <ele>345</ele>
        <time>2021-08-27T07:17:01.000Z</time>
      </trkpt>
      <trkpt lat="49.86674" lon="4.81855">
        <ele>345</ele>
        <time>2021-08-27T07:17:02.000Z</time>
      </trkpt>
      <trkpt lat="49.86678" lon="4.81853">
        <ele>344</ele>
        <time>2021-08-27T07:17:03.000Z</time>
      </trkpt>
      <trkpt lat="49.86681" lon="4.8185">
        <ele>344</ele>
        <time>2021-08-27T07:17:04.000Z</time>
      </trkpt>
      <trkpt lat="49.86684" lon="4.81848">
        <ele>343</ele>
        <time>2021-08-27T07:17:05.000Z</time>
      </trkpt>
      <trkpt lat="49.86687" lon="4.81844">
        <ele>343</ele>
        <time>2021-08-27T07:17:06.000Z</time>
      </trkpt>
      <trkpt lat="49.86691" lon="4.81842">
        <ele>343</ele>
        <time>2021-08-27T07:17:07.000Z</time>
      </trkpt>
      <trkpt lat="49.86694" lon="4.8184">
        <ele>342</ele>
        <time>2021-08-27T07:17:08.000Z</time>
      </trkpt>
      <trkpt lat="49.86697" lon="4.81838">
        <ele>342</ele>
        <time>2021-08-27T07:17:09.000Z</time>
      </trkpt>
      <trkpt lat="49.86701" lon="4.81837">
        <ele>342</ele>
        <time>2021-08-27T07:17:10.000Z</time>
      </trkpt>
      <trkpt lat="49.86704" lon="4.81836">
        <ele>342</ele>
        <time>2021-08-27T07:17:11.000Z</time>
      </trkpt>
      <trkpt lat="49.86707" lon="4.81835">
        <ele>342</ele>
        <time>2021-08-27T07:17:12.000Z</time>
      </trkpt>
      <trkpt lat="49.86711" lon="4.81834">
        <ele>341</ele>
        <time>2021-08-27T07:17:13.000Z</time>
      </trkpt>
      <trkpt lat="49.86714" lon="4.81833">
        <ele>341</ele>
        <time>2021-08-27T07:17:14.000Z</time>
      </trkpt>
      <trkpt lat="49.86717" lon="4.81832">
        <ele>341</ele>
        <time>2021-08-27T07:17:15.000Z</time>
      </trkpt>
      <trkpt lat="49.8672" lon="4.81832">
        <ele>341</ele>
        <time>2021-08-27T07:17:16.000Z</time>
      </trkpt>
      <trkpt lat="49.86723" lon="4.8183">
        <ele>341</ele>
        <time>2021-08-27T07:17:17.000Z</time>
      </trkpt>
      <trkpt lat="49.86727" lon="4.81829">
        <ele>341</ele>
        <time>2021-08-27T07:17:18.000Z</time>
      </trkpt>
      <trkpt lat="49.8673" lon="4.81829">
        <ele>340</ele>
        <time>2021-08-27T07:17:19.000Z</time>
      </trkpt>
      <trkpt lat="49.86734" lon="4.81829">
        <ele>340</ele>
        <time>2021-08-27T07:17:20.000Z</time>
      </trkpt>
      <trkpt lat="49.86738" lon="4.81829">
        <ele>340</ele>
        <time>2021-08-27T07:17:21.000Z</time>
      </trkpt>
      <trkpt lat="49.86741" lon="4.8183">
        <ele>340</ele>
        <time>2021-08-27T07:17:22.000Z</time>
      </trkpt>
      <trkpt lat="49.86745" lon="4.8183">
        <ele>340</ele>
        <time>2021-08-27T07:17:23.000Z</time>
      </trkpt>
      <trkpt lat="49.86749" lon="4.8183">
        <ele>340</ele>
        <time>2021-08-27T07:17:24.000Z</time>
      </trkpt>
      <trkpt lat="49.86753" lon="4.8183">
        <ele>339</ele>
        <time>2021-08-27T07:17:25.000Z</time>
      </trkpt>
      <trkpt lat="49.86757" lon="4.8183">
        <ele>339</ele>
        <time>2021-08-27T07:17:26.000Z</time>
      </trkpt>
      <trkpt lat="49.8676" lon="4.8183">
        <ele>339</ele>
        <time>2021-08-27T07:17:27.000Z</time>
      </trkpt>
      <trkpt lat="49.86764" lon="4.81829">
        <ele>339</ele>
        <time>2021-08-27T07:17:28.000Z</time>
      </trkpt>
      <trkpt lat="49.86768" lon="4.81829">
        <ele>339</ele>
        <time>2021-08-27T07:17:29.000Z</time>
      </trkpt>
      <trkpt lat="49.86771" lon="4.81829">
        <ele>339</ele>
        <time>2021-08-27T07:17:30.000Z</time>
      </trkpt>
      <trkpt lat="49.86774" lon="4.81829">
        <ele>339</ele>
        <time>2021-08-27T07:17:31.000Z</time>
      </trkpt>
      <trkpt lat="49.86776" lon="4.81829">
        <ele>339</ele>
        <time>2021-08-27T07:17:32.000Z</time>
      </trkpt>
      <trkpt lat="49.8678" lon="4.81829">
        <ele>339</ele>
        <time>2021-08-27T07:17:33.000Z</time>
      </trkpt>
      <trkpt lat="49.86783" lon="4.81829">
        <ele>339</ele>
        <time>2021-08-27T07:17:34.000Z</time>
      </trkpt>
      <trkpt lat="49.86788" lon="4.81829">
        <ele>339</ele>
        <time>2021-08-27T07:17:35.000Z</time>
      </trkpt>
      <trkpt lat="49.86792" lon="4.81828">
        <ele>339</ele>
        <time>2021-08-27T07:17:36.000Z</time>
      </trkpt>
      <trkpt lat="49.86797" lon="4.81826">
        <ele>339</ele>
        <time>2021-08-27T07:17:37.000Z</time>
      </trkpt>
      <trkpt lat="49.86802" lon="4.81824">
        <ele>339</ele>
        <time>2021-08-27T07:17:38.000Z</time>
      </trkpt>
      <trkpt lat="49.86807" lon="4.81822">
        <ele>339</ele>
        <time>2021-08-27T07:17:39.000Z</time>
      </trkpt>
      <trkpt lat="49.86812" lon="4.81819">
        <ele>339</ele>
        <time>2021-08-27T07:17:40.000Z</time>
      </trkpt>
      <trkpt lat="49.86816" lon="4.81817">
        <ele>339</ele>
        <time>2021-08-27T07:17:41.000Z</time>
      </trkpt>
      <trkpt lat="49.86821" lon="4.81814">
        <ele>338</ele>
        <time>2021-08-27T07:17:42.000Z</time>
      </trkpt>
      <trkpt lat="49.86825" lon="4.81811">
        <ele>338</ele>
        <time>2021-08-27T07:17:43.000Z</time>
      </trkpt>
      <trkpt lat="49.8683" lon="4.81808">
        <ele>338</ele>
        <time>2021-08-27T07:17:44.000Z</time>
      </trkpt>
      <trkpt lat="49.86834" lon="4.81805">
        <ele>338</ele>
        <time>2021-08-27T07:17:45.000Z</time>
      </trkpt>
      <trkpt lat="49.86838" lon="4.81802">
        <ele>338</ele>
        <time>2021-08-27T07:17:46.000Z</time>
      </trkpt>
      <trkpt lat="49.86842" lon="4.818">
        <ele>338</ele>
        <time>2021-08-27T07:17:47.000Z</time>
      </trkpt>
      <trkpt lat="49.86846" lon="4.81798">
        <ele>337</ele>
        <time>2021-08-27T07:17:48.000Z</time>
      </trkpt>
      <trkpt lat="49.86849" lon="4.81795">
        <ele>337</ele>
        <time>2021-08-27T07:17:49.000Z</time>
      </trkpt>
      <trkpt lat="49.86852" lon="4.81794">
        <ele>336</ele>
        <time>2021-08-27T07:17:50.000Z</time>
      </trkpt>
      <trkpt lat="49.86856" lon="4.81792">
        <ele>336</ele>
        <time>2021-08-27T07:17:51.000Z</time>
      </trkpt>
      <trkpt lat="49.86859" lon="4.8179">
        <ele>336</ele>
        <time>2021-08-27T07:17:52.000Z</time>
      </trkpt>
      <trkpt lat="49.86862" lon="4.81788">
        <ele>336</ele>
        <time>2021-08-27T07:17:53.000Z</time>
      </trkpt>
      <trkpt lat="49.86866" lon="4.81786">
        <ele>335</ele>
        <time>2021-08-27T07:17:54.000Z</time>
      </trkpt>
      <trkpt lat="49.8687" lon="4.81784">
        <ele>335</ele>
        <time>2021-08-27T07:17:55.000Z</time>
      </trkpt>
      <trkpt lat="49.86874" lon="4.81782">
        <ele>335</ele>
        <time>2021-08-27T07:17:56.000Z</time>
      </trkpt>
      <trkpt lat="49.86878" lon="4.81779">
        <ele>335</ele>
        <time>2021-08-27T07:17:57.000Z</time>
      </trkpt>
      <trkpt lat="49.86882" lon="4.81776">
        <ele>335</ele>
        <time>2021-08-27T07:17:58.000Z</time>
      </trkpt>
      <trkpt lat="49.86887" lon="4.81772">
        <ele>334</ele>
        <time>2021-08-27T07:17:59.000Z</time>
      </trkpt>
      <trkpt lat="49.86892" lon="4.81768">
        <ele>334</ele>
        <time>2021-08-27T07:18:00.000Z</time>
      </trkpt>
      <trkpt lat="49.86898" lon="4.81764">
        <ele>334</ele>
        <time>2021-08-27T07:18:01.000Z</time>
      </trkpt>
      <trkpt lat="49.86903" lon="4.81761">
        <ele>334</ele>
        <time>2021-08-27T07:18:02.000Z</time>
      </trkpt>
      <trkpt lat="49.86908" lon="4.81758">
        <ele>333</ele>
        <time>2021-08-27T07:18:03.000Z</time>
      </trkpt>
      <trkpt lat="49.86914" lon="4.81755">
        <ele>333</ele>
        <time>2021-08-27T07:18:04.000Z</time>
      </trkpt>
      <trkpt lat="49.86918" lon="4.81753">
        <ele>333</ele>
        <time>2021-08-27T07:18:05.000Z</time>
      </trkpt>
      <trkpt lat="49.86921" lon="4.81751">
        <ele>332</ele>
        <time>2021-08-27T07:18:06.000Z</time>
      </trkpt>
      <trkpt lat="49.86924" lon="4.81749">
        <ele>332</ele>
        <time>2021-08-27T07:18:07.000Z</time>
      </trkpt>
      <trkpt lat="49.86926" lon="4.81747">
        <ele>332</ele>
        <time>2021-08-27T07:18:08.000Z</time>
      </trkpt>
      <trkpt lat="49.86929" lon="4.81746">
        <ele>331</ele>
        <time>2021-08-27T07:18:09.000Z</time>
      </trkpt>
      <trkpt lat="49.8693" lon="4.81744">
        <ele>331</ele>
        <time>2021-08-27T07:18:10.000Z</time>
      </trkpt>
      <trkpt lat="49.86931" lon="4.81742">
        <ele>331</ele>
        <time>2021-08-27T07:18:11.000Z</time>
      </trkpt>
      <trkpt lat="49.86933" lon="4.81739">
        <ele>330</ele>
        <time>2021-08-27T07:18:12.000Z</time>
      </trkpt>
      <trkpt lat="49.86933" lon="4.81738">
        <ele>330</ele>
        <time>2021-08-27T07:18:13.000Z</time>
      </trkpt>
      <trkpt lat="49.86935" lon="4.81736">
        <ele>330</ele>
        <time>2021-08-27T07:18:14.000Z</time>
      </trkpt>
      <trkpt lat="49.86937" lon="4.81735">
        <ele>329</ele>
        <time>2021-08-27T07:18:15.000Z</time>
      </trkpt>
      <trkpt lat="49.8694" lon="4.81735">
        <ele>329</ele>
        <time>2021-08-27T07:18:16.000Z</time>
      </trkpt>
      <trkpt lat="49.86942" lon="4.81734">
        <ele>328</ele>
        <time>2021-08-27T07:18:17.000Z</time>
      </trkpt>
      <trkpt lat="49.86944" lon="4.81734">
        <ele>328</ele>
        <time>2021-08-27T07:18:18.000Z</time>
      </trkpt>
      <trkpt lat="49.86946" lon="4.81733">
        <ele>328</ele>
        <time>2021-08-27T07:18:19.000Z</time>
      </trkpt>
      <trkpt lat="49.86948" lon="4.81731">
        <ele>328</ele>
        <time>2021-08-27T07:18:20.000Z</time>
      </trkpt>
      <trkpt lat="49.8695" lon="4.8173">
        <ele>327</ele>
        <time>2021-08-27T07:18:21.000Z</time>
      </trkpt>
      <trkpt lat="49.86953" lon="4.81728">
        <ele>327</ele>
        <time>2021-08-27T07:18:22.000Z</time>
      </trkpt>
      <trkpt lat="49.86956" lon="4.81726">
        <ele>327</ele>
        <time>2021-08-27T07:18:23.000Z</time>
      </trkpt>
      <trkpt lat="49.8696" lon="4.81724">
        <ele>327</ele>
        <time>2021-08-27T07:18:24.000Z</time>
      </trkpt>
      <trkpt lat="49.86963" lon="4.81722">
        <ele>327</ele>
        <time>2021-08-27T07:18:25.000Z</time>
      </trkpt>
      <trkpt lat="49.86966" lon="4.8172">
        <ele>327</ele>
        <time>2021-08-27T07:18:26.000Z</time>
      </trkpt>
      <trkpt lat="49.8697" lon="4.81719">
        <ele>327</ele>
        <time>2021-08-27T07:18:27.000Z</time>
      </trkpt>
      <trkpt lat="49.86973" lon="4.81718">
        <ele>327</ele>
        <time>2021-08-27T07:18:28.000Z</time>
      </trkpt>
      <trkpt lat="49.86977" lon="4.81716">
        <ele>326</ele>
        <time>2021-08-27T07:18:29.000Z</time>
      </trkpt>
      <trkpt lat="49.86982" lon="4.81715">
        <ele>326</ele>
        <time>2021-08-27T07:18:30.000Z</time>
      </trkpt>
      <trkpt lat="49.86986" lon="4.81713">
        <ele>326</ele>
        <time>2021-08-27T07:18:31.000Z</time>
      </trkpt>
      <trkpt lat="49.86992" lon="4.81712">
        <ele>326</ele>
        <time>2021-08-27T07:18:32.000Z</time>
      </trkpt>
      <trkpt lat="49.86997" lon="4.8171">
        <ele>326</ele>
        <time>2021-08-27T07:18:33.000Z</time>
      </trkpt>
      <trkpt lat="49.87003" lon="4.81709">
        <ele>326</ele>
        <time>2021-08-27T07:18:34.000Z</time>
      </trkpt>
      <trkpt lat="49.87008" lon="4.81707">
        <ele>326</ele>
        <time>2021-08-27T07:18:35.000Z</time>
      </trkpt>
      <trkpt lat="49.87014" lon="4.81706">
        <ele>326</ele>
        <time>2021-08-27T07:18:36.000Z</time>
      </trkpt>
      <trkpt lat="49.87019" lon="4.81704">
        <ele>326</ele>
        <time>2021-08-27T07:18:37.000Z</time>
      </trkpt>
      <trkpt lat="49.87024" lon="4.81702">
        <ele>326</ele>
        <time>2021-08-27T07:18:38.000Z</time>
      </trkpt>
      <trkpt lat="49.87029" lon="4.817">
        <ele>326</ele>
        <time>2021-08-27T07:18:39.000Z</time>
      </trkpt>
      <trkpt lat="49.87033" lon="4.81699">
        <ele>325</ele>
        <time>2021-08-27T07:18:40.000Z</time>
      </trkpt>
      <trkpt lat="49.87036" lon="4.81697">
        <ele>325</ele>
        <time>2021-08-27T07:18:41.000Z</time>
      </trkpt>
      <trkpt lat="49.87039" lon="4.81696">
        <ele>325</ele>
        <time>2021-08-27T07:18:42.000Z</time>
      </trkpt>
      <trkpt lat="49.87041" lon="4.81695">
        <ele>325</ele>
        <time>2021-08-27T07:18:43.000Z</time>
      </trkpt>
      <trkpt lat="49.87044" lon="4.81694">
        <ele>325</ele>
        <time>2021-08-27T07:18:44.000Z</time>
      </trkpt>
      <trkpt lat="49.87046" lon="4.81693">
        <ele>324</ele>
        <time>2021-08-27T07:18:45.000Z</time>
      </trkpt>
      <trkpt lat="49.87049" lon="4.81692">
        <ele>324</ele>
        <time>2021-08-27T07:18:46.000Z</time>
      </trkpt>
      <trkpt lat="49.87052" lon="4.81691">
        <ele>324</ele>
        <time>2021-08-27T07:18:47.000Z</time>
      </trkpt>
      <trkpt lat="49.87056" lon="4.81691">
        <ele>323</ele>
        <time>2021-08-27T07:18:48.000Z</time>
      </trkpt>
      <trkpt lat="49.87059" lon="4.81692">
        <ele>323</ele>
        <time>2021-08-27T07:18:49.000Z</time>
      </trkpt>
      <trkpt lat="49.87063" lon="4.81693">
        <ele>323</ele>
        <time>2021-08-27T07:18:50.000Z</time>
      </trkpt>
      <trkpt lat="49.87066" lon="4.81695">
        <ele>323</ele>
        <time>2021-08-27T07:18:51.000Z</time>
      </trkpt>
      <trkpt lat="49.8707" lon="4.81697">
        <ele>322</ele>
        <time>2021-08-27T07:18:52.000Z</time>
      </trkpt>
      <trkpt lat="49.87073" lon="4.81701">
        <ele>322</ele>
        <time>2021-08-27T07:18:53.000Z</time>
      </trkpt>
      <trkpt lat="49.87077" lon="4.81706">
        <ele>321</ele>
        <time>2021-08-27T07:18:54.000Z</time>
      </trkpt>
      <trkpt lat="49.8708" lon="4.8171">
        <ele>321</ele>
        <time>2021-08-27T07:18:55.000Z</time>
      </trkpt>
      <trkpt lat="49.87084" lon="4.81716">
        <ele>321</ele>
        <time>2021-08-27T07:18:56.000Z</time>
      </trkpt>
      <trkpt lat="49.87087" lon="4.81722">
        <ele>320</ele>
        <time>2021-08-27T07:18:57.000Z</time>
      </trkpt>
      <trkpt lat="49.8709" lon="4.81729">
        <ele>320</ele>
        <time>2021-08-27T07:18:58.000Z</time>
      </trkpt>
      <trkpt lat="49.87093" lon="4.81736">
        <ele>320</ele>
        <time>2021-08-27T07:18:59.000Z</time>
      </trkpt>
      <trkpt lat="49.87096" lon="4.81743">
        <ele>319</ele>
        <time>2021-08-27T07:19:00.000Z</time>
      </trkpt>
      <trkpt lat="49.87099" lon="4.81748">
        <ele>319</ele>
        <time>2021-08-27T07:19:01.000Z</time>
      </trkpt>
      <trkpt lat="49.87101" lon="4.81754">
        <ele>319</ele>
        <time>2021-08-27T07:19:02.000Z</time>
      </trkpt>
      <trkpt lat="49.87104" lon="4.81759">
        <ele>318</ele>
        <time>2021-08-27T07:19:03.000Z</time>
      </trkpt>
      <trkpt lat="49.87107" lon="4.81763">
        <ele>318</ele>
        <time>2021-08-27T07:19:04.000Z</time>
      </trkpt>
      <trkpt lat="49.87109" lon="4.81767">
        <ele>317</ele>
        <time>2021-08-27T07:19:05.000Z</time>
      </trkpt>
      <trkpt lat="49.87111" lon="4.81769">
        <ele>317</ele>
        <time>2021-08-27T07:19:06.000Z</time>
      </trkpt>
      <trkpt lat="49.87113" lon="4.81772">
        <ele>317</ele>
        <time>2021-08-27T07:19:07.000Z</time>
      </trkpt>
      <trkpt lat="49.87117" lon="4.81774">
        <ele>316</ele>
        <time>2021-08-27T07:19:08.000Z</time>
      </trkpt>
      <trkpt lat="49.87121" lon="4.81776">
        <ele>316</ele>
        <time>2021-08-27T07:19:09.000Z</time>
      </trkpt>
      <trkpt lat="49.87125" lon="4.81778">
        <ele>315</ele>
        <time>2021-08-27T07:19:10.000Z</time>
      </trkpt>
      <trkpt lat="49.87129" lon="4.81779">
        <ele>315</ele>
        <time>2021-08-27T07:19:11.000Z</time>
      </trkpt>
      <trkpt lat="49.87133" lon="4.81781">
        <ele>315</ele>
        <time>2021-08-27T07:19:12.000Z</time>
      </trkpt>
      <trkpt lat="49.87137" lon="4.81783">
        <ele>314</ele>
        <time>2021-08-27T07:19:13.000Z</time>
      </trkpt>
      <trkpt lat="49.87141" lon="4.81786">
        <ele>314</ele>
        <time>2021-08-27T07:19:14.000Z</time>
      </trkpt>
      <trkpt lat="49.87146" lon="4.81788">
        <ele>313</ele>
        <time>2021-08-27T07:19:15.000Z</time>
      </trkpt>
      <trkpt lat="49.8715" lon="4.81791">
        <ele>313</ele>
        <time>2021-08-27T07:19:16.000Z</time>
      </trkpt>
      <trkpt lat="49.87154" lon="4.81793">
        <ele>313</ele>
        <time>2021-08-27T07:19:17.000Z</time>
      </trkpt>
      <trkpt lat="49.87158" lon="4.81796">
        <ele>312</ele>
        <time>2021-08-27T07:19:18.000Z</time>
      </trkpt>
      <trkpt lat="49.87163" lon="4.81799">
        <ele>312</ele>
        <time>2021-08-27T07:19:19.000Z</time>
      </trkpt>
      <trkpt lat="49.87166" lon="4.81802">
        <ele>311</ele>
        <time>2021-08-27T07:19:20.000Z</time>
      </trkpt>
      <trkpt lat="49.87171" lon="4.81805">
        <ele>311</ele>
        <time>2021-08-27T07:19:21.000Z</time>
      </trkpt>
      <trkpt lat="49.87175" lon="4.81809">
        <ele>310</ele>
        <time>2021-08-27T07:19:22.000Z</time>
      </trkpt>
      <trkpt lat="49.87179" lon="4.81813">
        <ele>310</ele>
        <time>2021-08-27T07:19:23.000Z</time>
      </trkpt>
      <trkpt lat="49.87183" lon="4.81816">
        <ele>309</ele>
        <time>2021-08-27T07:19:24.000Z</time>
      </trkpt>
      <trkpt lat="49.87187" lon="4.81818">
        <ele>309</ele>
        <time>2021-08-27T07:19:25.000Z</time>
      </trkpt>
      <trkpt lat="49.87191" lon="4.8182">
        <ele>309</ele>
        <time>2021-08-27T07:19:26.000Z</time>
      </trkpt>
      <trkpt lat="49.87194" lon="4.81823">
        <ele>308</ele>
        <time>2021-08-27T07:19:27.000Z</time>
      </trkpt>
      <trkpt lat="49.87196" lon="4.81826">
        <ele>308</ele>
        <time>2021-08-27T07:19:28.000Z</time>
      </trkpt>
      <trkpt lat="49.87198" lon="4.81828">
        <ele>307</ele>
        <time>2021-08-27T07:19:29.000Z</time>
      </trkpt>
      <trkpt lat="49.87199" lon="4.8183">
        <ele>307</ele>
        <time>2021-08-27T07:19:30.000Z</time>
      </trkpt>
      <trkpt lat="49.87202" lon="4.81833">
        <ele>306</ele>
        <time>2021-08-27T07:19:31.000Z</time>
      </trkpt>
      <trkpt lat="49.87204" lon="4.81835">
        <ele>305</ele>
        <time>2021-08-27T07:19:32.000Z</time>
      </trkpt>
      <trkpt lat="49.87206" lon="4.81838">
        <ele>305</ele>
        <time>2021-08-27T07:19:33.000Z</time>
      </trkpt>
      <trkpt lat="49.87208" lon="4.81841">
        <ele>304</ele>
        <time>2021-08-27T07:19:34.000Z</time>
      </trkpt>
      <trkpt lat="49.87211" lon="4.81844">
        <ele>304</ele>
        <time>2021-08-27T07:19:35.000Z</time>
      </trkpt>
      <trkpt lat="49.87214" lon="4.81845">
        <ele>303</ele>
        <time>2021-08-27T07:19:36.000Z</time>
      </trkpt>
      <trkpt lat="49.87216" lon="4.81846">
        <ele>303</ele>
        <time>2021-08-27T07:19:37.000Z</time>
      </trkpt>
      <trkpt lat="49.87218" lon="4.81846">
        <ele>302</ele>
        <time>2021-08-27T07:19:38.000Z</time>
      </trkpt>
      <trkpt lat="49.87221" lon="4.81844">
        <ele>301</ele>
        <time>2021-08-27T07:19:39.000Z</time>
      </trkpt>
      <trkpt lat="49.87223" lon="4.81841">
        <ele>301</ele>
        <time>2021-08-27T07:19:40.000Z</time>
      </trkpt>
      <trkpt lat="49.87225" lon="4.81837">
        <ele>300</ele>
        <time>2021-08-27T07:19:41.000Z</time>
      </trkpt>
      <trkpt lat="49.87227" lon="4.81833">
        <ele>299</ele>
        <time>2021-08-27T07:19:42.000Z</time>
      </trkpt>
      <trkpt lat="49.87227" lon="4.81828">
        <ele>298</ele>
        <time>2021-08-27T07:19:43.000Z</time>
      </trkpt>
      <trkpt lat="49.87227" lon="4.81822">
        <ele>297</ele>
        <time>2021-08-27T07:19:44.000Z</time>
      </trkpt>
      <trkpt lat="49.87226" lon="4.81817">
        <ele>296</ele>
        <time>2021-08-27T07:19:45.000Z</time>
      </trkpt>
      <trkpt lat="49.87225" lon="4.81812">
        <ele>295</ele>
        <time>2021-08-27T07:19:46.000Z</time>
      </trkpt>
      <trkpt lat="49.87224" lon="4.81808">
        <ele>294</ele>
        <time>2021-08-27T07:19:47.000Z</time>
      </trkpt>
      <trkpt lat="49.87224" lon="4.81804">
        <ele>293</ele>
        <time>2021-08-27T07:19:48.000Z</time>
      </trkpt>
      <trkpt lat="49.87223" lon="4.81799">
        <ele>293</ele>
        <time>2021-08-27T07:19:49.000Z</time>
      </trkpt>
      <trkpt lat="49.87222" lon="4.81794">
        <ele>292</ele>
        <time>2021-08-27T07:19:50.000Z</time>
      </trkpt>
      <trkpt lat="49.87221" lon="4.81789">
        <ele>291</ele>
        <time>2021-08-27T07:19:51.000Z</time>
      </trkpt>
      <trkpt lat="49.87219" lon="4.81785">
        <ele>291</ele>
        <time>2021-08-27T07:19:52.000Z</time>
      </trkpt>
      <trkpt lat="49.87218" lon="4.8178">
        <ele>290</ele>
        <time>2021-08-27T07:19:53.000Z</time>
      </trkpt>
      <trkpt lat="49.87216" lon="4.81774">
        <ele>290</ele>
        <time>2021-08-27T07:19:54.000Z</time>
      </trkpt>
      <trkpt lat="49.87215" lon="4.81768">
        <ele>289</ele>
        <time>2021-08-27T07:19:55.000Z</time>
      </trkpt>
      <trkpt lat="49.87213" lon="4.81762">
        <ele>289</ele>
        <time>2021-08-27T07:19:56.000Z</time>
      </trkpt>
      <trkpt lat="49.87212" lon="4.81756">
        <ele>288</ele>
        <time>2021-08-27T07:19:57.000Z</time>
      </trkpt>
      <trkpt lat="49.8721" lon="4.81751">
        <ele>287</ele>
        <time>2021-08-27T07:19:58.000Z</time>
      </trkpt>
      <trkpt lat="49.87209" lon="4.81746">
        <ele>287</ele>
        <time>2021-08-27T07:19:59.000Z</time>
      </trkpt>
      <trkpt lat="49.87208" lon="4.8174">
        <ele>287</ele>
        <time>2021-08-27T07:20:00.000Z</time>
      </trkpt>
      <trkpt lat="49.87206" lon="4.81734">
        <ele>286</ele>
        <time>2021-08-27T07:20:01.000Z</time>
      </trkpt>
      <trkpt lat="49.87205" lon="4.81728">
        <ele>286</ele>
        <time>2021-08-27T07:20:02.000Z</time>
      </trkpt>
      <trkpt lat="49.87204" lon="4.81721">
        <ele>285</ele>
        <time>2021-08-27T07:20:03.000Z</time>
      </trkpt>
      <trkpt lat="49.87203" lon="4.81714">
        <ele>285</ele>
        <time>2021-08-27T07:20:04.000Z</time>
      </trkpt>
      <trkpt lat="49.87202" lon="4.81707">
        <ele>285</ele>
        <time>2021-08-27T07:20:05.000Z</time>
      </trkpt>
      <trkpt lat="49.87202" lon="4.817">
        <ele>284</ele>
        <time>2021-08-27T07:20:06.000Z</time>
      </trkpt>
      <trkpt lat="49.87202" lon="4.81693">
        <ele>284</ele>
        <time>2021-08-27T07:20:07.000Z</time>
      </trkpt>
      <trkpt lat="49.87202" lon="4.81685">
        <ele>284</ele>
        <time>2021-08-27T07:20:08.000Z</time>
      </trkpt>
      <trkpt lat="49.87202" lon="4.81679">
        <ele>284</ele>
        <time>2021-08-27T07:20:09.000Z</time>
      </trkpt>
      <trkpt lat="49.87202" lon="4.81672">
        <ele>283</ele>
        <time>2021-08-27T07:20:10.000Z</time>
      </trkpt>
      <trkpt lat="49.87203" lon="4.81665">
        <ele>283</ele>
        <time>2021-08-27T07:20:11.000Z</time>
      </trkpt>
      <trkpt lat="49.87204" lon="4.81659">
        <ele>283</ele>
        <time>2021-08-27T07:20:12.000Z</time>
      </trkpt>
      <trkpt lat="49.87204" lon="4.81653">
        <ele>283</ele>
        <time>2021-08-27T07:20:13.000Z</time>
      </trkpt>
      <trkpt lat="49.87206" lon="4.81647">
        <ele>282</ele>
        <time>2021-08-27T07:20:14.000Z</time>
      </trkpt>
      <trkpt lat="49.87208" lon="4.81642">
        <ele>282</ele>
        <time>2021-08-27T07:20:15.000Z</time>
      </trkpt>
      <trkpt lat="49.8721" lon="4.81637">
        <ele>282</ele>
        <time>2021-08-27T07:20:16.000Z</time>
      </trkpt>
      <trkpt lat="49.87211" lon="4.81632">
        <ele>281</ele>
        <time>2021-08-27T07:20:17.000Z</time>
      </trkpt>
      <trkpt lat="49.87213" lon="4.81628">
        <ele>281</ele>
        <time>2021-08-27T07:20:18.000Z</time>
      </trkpt>
      <trkpt lat="49.87215" lon="4.81623">
        <ele>281</ele>
        <time>2021-08-27T07:20:19.000Z</time>
      </trkpt>
      <trkpt lat="49.87218" lon="4.81617">
        <ele>280</ele>
        <time>2021-08-27T07:20:20.000Z</time>
      </trkpt>
      <trkpt lat="49.87222" lon="4.81612">
        <ele>280</ele>
        <time>2021-08-27T07:20:21.000Z</time>
      </trkpt>
      <trkpt lat="49.87226" lon="4.81607">
        <ele>279</ele>
        <time>2021-08-27T07:20:22.000Z</time>
      </trkpt>
      <trkpt lat="49.87231" lon="4.81602">
        <ele>279</ele>
        <time>2021-08-27T07:20:23.000Z</time>
      </trkpt>
      <trkpt lat="49.87235" lon="4.81598">
        <ele>278</ele>
        <time>2021-08-27T07:20:24.000Z</time>
      </trkpt>
      <trkpt lat="49.87237" lon="4.81595">
        <ele>278</ele>
        <time>2021-08-27T07:20:25.000Z</time>
      </trkpt>
      <trkpt lat="49.8724" lon="4.81593">
        <ele>278</ele>
        <time>2021-08-27T07:20:26.000Z</time>
      </trkpt>
      <trkpt lat="49.87242" lon="4.81591">
        <ele>277</ele>
        <time>2021-08-27T07:20:27.000Z</time>
      </trkpt>
      <trkpt lat="49.87243" lon="4.81591">
        <ele>277</ele>
        <time>2021-08-27T07:20:28.000Z</time>
      </trkpt>
      <trkpt lat="49.87243" lon="4.81591">
        <ele>277</ele>
        <time>2021-08-27T07:20:29.000Z</time>
      </trkpt>
      <trkpt lat="49.87243" lon="4.8159">
        <ele>276</ele>
        <time>2021-08-27T07:20:30.000Z</time>
      </trkpt>
      <trkpt lat="49.87243" lon="4.8159">
        <ele>276</ele>
        <time>2021-08-27T07:20:31.000Z</time>
      </trkpt>
      <trkpt lat="49.87243" lon="4.81589">
        <ele>276</ele>
        <time>2021-08-27T07:20:32.000Z</time>
      </trkpt>
      <trkpt lat="49.87243" lon="4.81589">
        <ele>276</ele>
        <time>2021-08-27T07:20:33.000Z</time>
      </trkpt>
      <trkpt lat="49.87243" lon="4.81589">
        <ele>276</ele>
        <time>2021-08-27T07:20:34.000Z</time>
      </trkpt>
      <trkpt lat="49.87243" lon="4.81588">
        <ele>275</ele>
        <time>2021-08-27T07:20:35.000Z</time>
      </trkpt>
      <trkpt lat="49.87243" lon="4.81588">
        <ele>275</ele>
        <time>2021-08-27T07:20:36.000Z</time>
      </trkpt>
      <trkpt lat="49.87244" lon="4.81587">
        <ele>275</ele>
        <time>2021-08-27T07:20:37.000Z</time>
      </trkpt>
      <trkpt lat="49.87245" lon="4.81587">
        <ele>275</ele>
        <time>2021-08-27T07:20:38.000Z</time>
      </trkpt>
      <trkpt lat="49.87248" lon="4.81586">
        <ele>275</ele>
        <time>2021-08-27T07:20:39.000Z</time>
      </trkpt>
      <trkpt lat="49.87251" lon="4.81586">
        <ele>275</ele>
        <time>2021-08-27T07:20:40.000Z</time>
      </trkpt>
      <trkpt lat="49.87255" lon="4.81586">
        <ele>275</ele>
        <time>2021-08-27T07:20:41.000Z</time>
      </trkpt>
      <trkpt lat="49.87259" lon="4.81587">
        <ele>274</ele>
        <time>2021-08-27T07:20:42.000Z</time>
      </trkpt>
      <trkpt lat="49.87263" lon="4.81587">
        <ele>274</ele>
        <time>2021-08-27T07:20:43.000Z</time>
      </trkpt>
      <trkpt lat="49.87268" lon="4.81587">
        <ele>274</ele>
        <time>2021-08-27T07:20:44.000Z</time>
      </trkpt>
      <trkpt lat="49.87274" lon="4.81587">
        <ele>274</ele>
        <time>2021-08-27T07:20:45.000Z</time>
      </trkpt>
      <trkpt lat="49.87279" lon="4.81586">
        <ele>274</ele>
        <time>2021-08-27T07:20:46.000Z</time>
      </trkpt>
      <trkpt lat="49.87284" lon="4.81587">
        <ele>273</ele>
        <time>2021-08-27T07:20:47.000Z</time>
      </trkpt>
      <trkpt lat="49.87288" lon="4.81586">
        <ele>273</ele>
        <time>2021-08-27T07:20:48.000Z</time>
      </trkpt>
      <trkpt lat="49.87293" lon="4.81586">
        <ele>273</ele>
        <time>2021-08-27T07:20:49.000Z</time>
      </trkpt>
      <trkpt lat="49.87297" lon="4.81586">
        <ele>273</ele>
        <time>2021-08-27T07:20:50.000Z</time>
      </trkpt>
      <trkpt lat="49.87301" lon="4.81586">
        <ele>273</ele>
        <time>2021-08-27T07:20:51.000Z</time>
      </trkpt>
      <trkpt lat="49.87306" lon="4.81586">
        <ele>272</ele>
        <time>2021-08-27T07:20:52.000Z</time>
      </trkpt>
      <trkpt lat="49.87311" lon="4.81586">
        <ele>272</ele>
        <time>2021-08-27T07:20:53.000Z</time>
      </trkpt>
      <trkpt lat="49.87316" lon="4.81586">
        <ele>272</ele>
        <time>2021-08-27T07:20:54.000Z</time>
      </trkpt>
      <trkpt lat="49.8732" lon="4.81586">
        <ele>271</ele>
        <time>2021-08-27T07:20:55.000Z</time>
      </trkpt>
      <trkpt lat="49.87325" lon="4.81587">
        <ele>271</ele>
        <time>2021-08-27T07:20:56.000Z</time>
      </trkpt>
      <trkpt lat="49.87329" lon="4.81587">
        <ele>270</ele>
        <time>2021-08-27T07:20:57.000Z</time>
      </trkpt>
      <trkpt lat="49.87333" lon="4.81587">
        <ele>270</ele>
        <time>2021-08-27T07:20:58.000Z</time>
      </trkpt>
      <trkpt lat="49.87336" lon="4.81586">
        <ele>269</ele>
        <time>2021-08-27T07:20:59.000Z</time>
      </trkpt>
      <trkpt lat="49.87338" lon="4.81584">
        <ele>268</ele>
        <time>2021-08-27T07:21:00.000Z</time>
      </trkpt>
      <trkpt lat="49.87339" lon="4.81582">
        <ele>267</ele>
        <time>2021-08-27T07:21:01.000Z</time>
      </trkpt>
      <trkpt lat="49.8734" lon="4.81579">
        <ele>266</ele>
        <time>2021-08-27T07:21:02.000Z</time>
      </trkpt>
      <trkpt lat="49.87341" lon="4.81577">
        <ele>265</ele>
        <time>2021-08-27T07:21:03.000Z</time>
      </trkpt>
      <trkpt lat="49.87342" lon="4.81577">
        <ele>265</ele>
        <time>2021-08-27T07:21:04.000Z</time>
      </trkpt>
      <trkpt lat="49.87342" lon="4.81577">
        <ele>264</ele>
        <time>2021-08-27T07:21:05.000Z</time>
      </trkpt>
      <trkpt lat="49.87342" lon="4.81576">
        <ele>263</ele>
        <time>2021-08-27T07:21:06.000Z</time>
      </trkpt>
      <trkpt lat="49.87342" lon="4.81576">
        <ele>263</ele>
        <time>2021-08-27T07:21:07.000Z</time>
      </trkpt>
      <trkpt lat="49.87342" lon="4.81576">
        <ele>262</ele>
        <time>2021-08-27T07:21:08.000Z</time>
      </trkpt>
      <trkpt lat="49.87341" lon="4.81574">
        <ele>262</ele>
        <time>2021-08-27T07:21:09.000Z</time>
      </trkpt>
      <trkpt lat="49.8734" lon="4.81571">
        <ele>261</ele>
        <time>2021-08-27T07:21:10.000Z</time>
      </trkpt>
      <trkpt lat="49.87339" lon="4.81567">
        <ele>261</ele>
        <time>2021-08-27T07:21:11.000Z</time>
      </trkpt>
      <trkpt lat="49.87339" lon="4.81563">
        <ele>260</ele>
        <time>2021-08-27T07:21:12.000Z</time>
      </trkpt>
      <trkpt lat="49.87338" lon="4.81559">
        <ele>260</ele>
        <time>2021-08-27T07:21:13.000Z</time>
      </trkpt>
      <trkpt lat="49.87336" lon="4.81553">
        <ele>259</ele>
        <time>2021-08-27T07:21:14.000Z</time>
      </trkpt>
      <trkpt lat="49.87335" lon="4.81548">
        <ele>259</ele>
        <time>2021-08-27T07:21:15.000Z</time>
      </trkpt>
      <trkpt lat="49.87333" lon="4.81543">
        <ele>258</ele>
        <time>2021-08-27T07:21:16.000Z</time>
      </trkpt>
      <trkpt lat="49.8733" lon="4.81539">
        <ele>258</ele>
        <time>2021-08-27T07:21:17.000Z</time>
      </trkpt>
      <trkpt lat="49.87329" lon="4.81534">
        <ele>258</ele>
        <time>2021-08-27T07:21:18.000Z</time>
      </trkpt>
      <trkpt lat="49.87327" lon="4.81531">
        <ele>257</ele>
        <time>2021-08-27T07:21:19.000Z</time>
      </trkpt>
      <trkpt lat="49.87326" lon="4.81527">
        <ele>257</ele>
        <time>2021-08-27T07:21:20.000Z</time>
      </trkpt>
      <trkpt lat="49.87326" lon="4.81523">
        <ele>256</ele>
        <time>2021-08-27T07:21:21.000Z</time>
      </trkpt>
      <trkpt lat="49.87326" lon="4.8152">
        <ele>255</ele>
        <time>2021-08-27T07:21:22.000Z</time>
      </trkpt>
      <trkpt lat="49.87327" lon="4.81516">
        <ele>255</ele>
        <time>2021-08-27T07:21:23.000Z</time>
      </trkpt>
      <trkpt lat="49.87328" lon="4.81513">
        <ele>254</ele>
        <time>2021-08-27T07:21:24.000Z</time>
      </trkpt>
      <trkpt lat="49.87329" lon="4.81511">
        <ele>254</ele>
        <time>2021-08-27T07:21:25.000Z</time>
      </trkpt>
      <trkpt lat="49.87331" lon="4.81509">
        <ele>253</ele>
        <time>2021-08-27T07:21:26.000Z</time>
      </trkpt>
      <trkpt lat="49.87334" lon="4.81508">
        <ele>253</ele>
        <time>2021-08-27T07:21:27.000Z</time>
      </trkpt>
      <trkpt lat="49.87336" lon="4.81506">
        <ele>252</ele>
        <time>2021-08-27T07:21:28.000Z</time>
      </trkpt>
      <trkpt lat="49.87339" lon="4.81505">
        <ele>251</ele>
        <time>2021-08-27T07:21:29.000Z</time>
      </trkpt>
      <trkpt lat="49.87341" lon="4.81504">
        <ele>251</ele>
        <time>2021-08-27T07:21:30.000Z</time>
      </trkpt>
      <trkpt lat="49.87344" lon="4.81503">
        <ele>250</ele>
        <time>2021-08-27T07:21:31.000Z</time>
      </trkpt>
      <trkpt lat="49.87346" lon="4.81501">
        <ele>249</ele>
        <time>2021-08-27T07:21:32.000Z</time>
      </trkpt>
      <trkpt lat="49.8735" lon="4.815">
        <ele>249</ele>
        <time>2021-08-27T07:21:33.000Z</time>
      </trkpt>
      <trkpt lat="49.87354" lon="4.81498">
        <ele>248</ele>
        <time>2021-08-27T07:21:34.000Z</time>
      </trkpt>
      <trkpt lat="49.87357" lon="4.81496">
        <ele>248</ele>
        <time>2021-08-27T07:21:35.000Z</time>
      </trkpt>
      <trkpt lat="49.87361" lon="4.81493">
        <ele>247</ele>
        <time>2021-08-27T07:21:36.000Z</time>
      </trkpt>
      <trkpt lat="49.87364" lon="4.81491">
        <ele>247</ele>
        <time>2021-08-27T07:21:37.000Z</time>
      </trkpt>
      <trkpt lat="49.87368" lon="4.81488">
        <ele>246</ele>
        <time>2021-08-27T07:21:38.000Z</time>
      </trkpt>
      <trkpt lat="49.87372" lon="4.81486">
        <ele>246</ele>
        <time>2021-08-27T07:21:39.000Z</time>
      </trkpt>
      <trkpt lat="49.87376" lon="4.81484">
        <ele>245</ele>
        <time>2021-08-27T07:21:40.000Z</time>
      </trkpt>
      <trkpt lat="49.8738" lon="4.81482">
        <ele>245</ele>
        <time>2021-08-27T07:21:41.000Z</time>
      </trkpt>
      <trkpt lat="49.87383" lon="4.81481">
        <ele>244</ele>
        <time>2021-08-27T07:21:42.000Z</time>
      </trkpt>
      <trkpt lat="49.87386" lon="4.8148">
        <ele>243</ele>
        <time>2021-08-27T07:21:43.000Z</time>
      </trkpt>
      <trkpt lat="49.8739" lon="4.81479">
        <ele>243</ele>
        <time>2021-08-27T07:21:44.000Z</time>
      </trkpt>
      <trkpt lat="49.87393" lon="4.81479">
        <ele>242</ele>
        <time>2021-08-27T07:21:45.000Z</time>
      </trkpt>
      <trkpt lat="49.87395" lon="4.8148">
        <ele>241</ele>
        <time>2021-08-27T07:21:46.000Z</time>
      </trkpt>
      <trkpt lat="49.87397" lon="4.8148">
        <ele>241</ele>
        <time>2021-08-27T07:21:47.000Z</time>
      </trkpt>
      <trkpt lat="49.87398" lon="4.8148">
        <ele>240</ele>
        <time>2021-08-27T07:21:48.000Z</time>
      </trkpt>
      <trkpt lat="49.87399" lon="4.8148">
        <ele>240</ele>
        <time>2021-08-27T07:21:49.000Z</time>
      </trkpt>
      <trkpt lat="49.87399" lon="4.8148">
        <ele>239</ele>
        <time>2021-08-27T07:21:50.000Z</time>
      </trkpt>
      <trkpt lat="49.87399" lon="4.8148">
        <ele>239</ele>
        <time>2021-08-27T07:21:51.000Z</time>
      </trkpt>
      <trkpt lat="49.874" lon="4.81479">
        <ele>239</ele>
        <time>2021-08-27T07:21:52.000Z</time>
      </trkpt>
      <trkpt lat="49.874" lon="4.81479">
        <ele>238</ele>
        <time>2021-08-27T07:21:53.000Z</time>
      </trkpt>
      <trkpt lat="49.874" lon="4.81479">
        <ele>238</ele>
        <time>2021-08-27T07:21:54.000Z</time>
      </trkpt>
      <trkpt lat="49.874" lon="4.81479">
        <ele>238</ele>
        <time>2021-08-27T07:21:55.000Z</time>
      </trkpt>
      <trkpt lat="49.874" lon="4.81479">
        <ele>238</ele>
        <time>2021-08-27T07:21:56.000Z</time>
      </trkpt>
      <trkpt lat="49.87401" lon="4.81479">
        <ele>237</ele>
        <time>2021-08-27T07:21:57.000Z</time>
      </trkpt>
      <trkpt lat="49.87402" lon="4.81478">
        <ele>237</ele>
        <time>2021-08-27T07:21:58.000Z</time>
      </trkpt>
      <trkpt lat="49.87403" lon="4.81477">
        <ele>237</ele>
        <time>2021-08-27T07:21:59.000Z</time>
      </trkpt>
      <trkpt lat="49.87404" lon="4.81476">
        <ele>236</ele>
        <time>2021-08-27T07:22:00.000Z</time>
      </trkpt>
      <trkpt lat="49.87405" lon="4.81474">
        <ele>236</ele>
        <time>2021-08-27T07:22:01.000Z</time>
      </trkpt>
      <trkpt lat="49.87406" lon="4.8147">
        <ele>235</ele>
        <time>2021-08-27T07:22:02.000Z</time>
      </trkpt>
      <trkpt lat="49.87407" lon="4.81465">
        <ele>234</ele>
        <time>2021-08-27T07:22:03.000Z</time>
      </trkpt>
      <trkpt lat="49.87407" lon="4.8146">
        <ele>234</ele>
        <time>2021-08-27T07:22:04.000Z</time>
      </trkpt>
      <trkpt lat="49.87407" lon="4.81456">
        <ele>233</ele>
        <time>2021-08-27T07:22:05.000Z</time>
      </trkpt>
      <trkpt lat="49.87406" lon="4.81451">
        <ele>232</ele>
        <time>2021-08-27T07:22:06.000Z</time>
      </trkpt>
      <trkpt lat="49.87405" lon="4.81447">
        <ele>232</ele>
        <time>2021-08-27T07:22:07.000Z</time>
      </trkpt>
      <trkpt lat="49.87403" lon="4.81443">
        <ele>231</ele>
        <time>2021-08-27T07:22:08.000Z</time>
      </trkpt>
      <trkpt lat="49.87401" lon="4.81438">
        <ele>230</ele>
        <time>2021-08-27T07:22:09.000Z</time>
      </trkpt>
      <trkpt lat="49.87399" lon="4.81434">
        <ele>230</ele>
        <time>2021-08-27T07:22:10.000Z</time>
      </trkpt>
      <trkpt lat="49.87397" lon="4.81429">
        <ele>229</ele>
        <time>2021-08-27T07:22:11.000Z</time>
      </trkpt>
      <trkpt lat="49.87395" lon="4.81426">
        <ele>228</ele>
        <time>2021-08-27T07:22:12.000Z</time>
      </trkpt>
      <trkpt lat="49.87393" lon="4.81424">
        <ele>228</ele>
        <time>2021-08-27T07:22:13.000Z</time>
      </trkpt>
      <trkpt lat="49.8739" lon="4.81422">
        <ele>227</ele>
        <time>2021-08-27T07:22:14.000Z</time>
      </trkpt>
      <trkpt lat="49.87387" lon="4.8142">
        <ele>226</ele>
        <time>2021-08-27T07:22:15.000Z</time>
      </trkpt>
      <trkpt lat="49.87384" lon="4.81418">
        <ele>226</ele>
        <time>2021-08-27T07:22:16.000Z</time>
      </trkpt>
      <trkpt lat="49.87381" lon="4.81416">
        <ele>225</ele>
        <time>2021-08-27T07:22:17.000Z</time>
      </trkpt>
      <trkpt lat="49.87378" lon="4.81415">
        <ele>225</ele>
        <time>2021-08-27T07:22:18.000Z</time>
      </trkpt>
      <trkpt lat="49.87375" lon="4.81413">
        <ele>224</ele>
        <time>2021-08-27T07:22:19.000Z</time>
      </trkpt>
      <trkpt lat="49.8737" lon="4.8141">
        <ele>223</ele>
        <time>2021-08-27T07:22:20.000Z</time>
      </trkpt>
      <trkpt lat="49.87365" lon="4.81407">
        <ele>223</ele>
        <time>2021-08-27T07:22:21.000Z</time>
      </trkpt>
      <trkpt lat="49.87362" lon="4.81404">
        <ele>222</ele>
        <time>2021-08-27T07:22:22.000Z</time>
      </trkpt>
      <trkpt lat="49.87359" lon="4.814">
        <ele>222</ele>
        <time>2021-08-27T07:22:23.000Z</time>
      </trkpt>
      <trkpt lat="49.87358" lon="4.81395">
        <ele>221</ele>
        <time>2021-08-27T07:22:24.000Z</time>
      </trkpt>
      <trkpt lat="49.87358" lon="4.81391">
        <ele>221</ele>
        <time>2021-08-27T07:22:25.000Z</time>
      </trkpt>
      <trkpt lat="49.87359" lon="4.81387">
        <ele>220</ele>
        <time>2021-08-27T07:22:26.000Z</time>
      </trkpt>
      <trkpt lat="49.87361" lon="4.81384">
        <ele>220</ele>
        <time>2021-08-27T07:22:27.000Z</time>
      </trkpt>
      <trkpt lat="49.87363" lon="4.81383">
        <ele>219</ele>
        <time>2021-08-27T07:22:28.000Z</time>
      </trkpt>
      <trkpt lat="49.87365" lon="4.81382">
        <ele>218</ele>
        <time>2021-08-27T07:22:29.000Z</time>
      </trkpt>
      <trkpt lat="49.87367" lon="4.81381">
        <ele>218</ele>
        <time>2021-08-27T07:22:30.000Z</time>
      </trkpt>
      <trkpt lat="49.8737" lon="4.8138">
        <ele>217</ele>
        <time>2021-08-27T07:22:31.000Z</time>
      </trkpt>
      <trkpt lat="49.87373" lon="4.81379">
        <ele>217</ele>
        <time>2021-08-27T07:22:32.000Z</time>
      </trkpt>
      <trkpt lat="49.87377" lon="4.81378">
        <ele>216</ele>
        <time>2021-08-27T07:22:33.000Z</time>
      </trkpt>
      <trkpt lat="49.87381" lon="4.81376">
        <ele>216</ele>
        <time>2021-08-27T07:22:34.000Z</time>
      </trkpt>
      <trkpt lat="49.87385" lon="4.81374">
        <ele>215</ele>
        <time>2021-08-27T07:22:35.000Z</time>
      </trkpt>
      <trkpt lat="49.87388" lon="4.81372">
        <ele>215</ele>
        <time>2021-08-27T07:22:36.000Z</time>
      </trkpt>
      <trkpt lat="49.8739" lon="4.81371">
        <ele>214</ele>
        <time>2021-08-27T07:22:37.000Z</time>
      </trkpt>
      <trkpt lat="49.87391" lon="4.81369">
        <ele>214</ele>
        <time>2021-08-27T07:22:38.000Z</time>
      </trkpt>
      <trkpt lat="49.87391" lon="4.81366">
        <ele>213</ele>
        <time>2021-08-27T07:22:39.000Z</time>
      </trkpt>
      <trkpt lat="49.87389" lon="4.81362">
        <ele>213</ele>
        <time>2021-08-27T07:22:40.000Z</time>
      </trkpt>
      <trkpt lat="49.87387" lon="4.81358">
        <ele>212</ele>
        <time>2021-08-27T07:22:41.000Z</time>
      </trkpt>
      <trkpt lat="49.87383" lon="4.81353">
        <ele>211</ele>
        <time>2021-08-27T07:22:42.000Z</time>
      </trkpt>
      <trkpt lat="49.8738" lon="4.81349">
        <ele>211</ele>
        <time>2021-08-27T07:22:43.000Z</time>
      </trkpt>
      <trkpt lat="49.87376" lon="4.81346">
        <ele>210</ele>
        <time>2021-08-27T07:22:44.000Z</time>
      </trkpt>
      <trkpt lat="49.87372" lon="4.81345">
        <ele>210</ele>
        <time>2021-08-27T07:22:45.000Z</time>
      </trkpt>
      <trkpt lat="49.87369" lon="4.81342">
        <ele>209</ele>
        <time>2021-08-27T07:22:46.000Z</time>
      </trkpt>
      <trkpt lat="49.87366" lon="4.8134">
        <ele>209</ele>
        <time>2021-08-27T07:22:47.000Z</time>
      </trkpt>
      <trkpt lat="49.87364" lon="4.81339">
        <ele>208</ele>
        <time>2021-08-27T07:22:48.000Z</time>
      </trkpt>
      <trkpt lat="49.87363" lon="4.81338">
        <ele>208</ele>
        <time>2021-08-27T07:22:49.000Z</time>
      </trkpt>
      <trkpt lat="49.87362" lon="4.81337">
        <ele>207</ele>
        <time>2021-08-27T07:22:50.000Z</time>
      </trkpt>
      <trkpt lat="49.87362" lon="4.81337">
        <ele>206</ele>
        <time>2021-08-27T07:22:51.000Z</time>
      </trkpt>
      <trkpt lat="49.87361" lon="4.81336">
        <ele>206</ele>
        <time>2021-08-27T07:22:52.000Z</time>
      </trkpt>
      <trkpt lat="49.8736" lon="4.81336">
        <ele>205</ele>
        <time>2021-08-27T07:22:53.000Z</time>
      </trkpt>
      <trkpt lat="49.8736" lon="4.81335">
        <ele>205</ele>
        <time>2021-08-27T07:22:54.000Z</time>
      </trkpt>
      <trkpt lat="49.87359" lon="4.81335">
        <ele>204</ele>
        <time>2021-08-27T07:22:55.000Z</time>
      </trkpt>
      <trkpt lat="49.87359" lon="4.81335">
        <ele>203</ele>
        <time>2021-08-27T07:22:56.000Z</time>
      </trkpt>
      <trkpt lat="49.87359" lon="4.81335">
        <ele>203</ele>
        <time>2021-08-27T07:22:57.000Z</time>
      </trkpt>
      <trkpt lat="49.87358" lon="4.81335">
        <ele>203</ele>
        <time>2021-08-27T07:22:58.000Z</time>
      </trkpt>
      <trkpt lat="49.87358" lon="4.81334">
        <ele>202</ele>
        <time>2021-08-27T07:22:59.000Z</time>
      </trkpt>
      <trkpt lat="49.87358" lon="4.81334">
        <ele>202</ele>
        <time>2021-08-27T07:23:00.000Z</time>
      </trkpt>
      <trkpt lat="49.87357" lon="4.81334">
        <ele>202</ele>
        <time>2021-08-27T07:23:01.000Z</time>
      </trkpt>
      <trkpt lat="49.87357" lon="4.81334">
        <ele>201</ele>
        <time>2021-08-27T07:23:02.000Z</time>
      </trkpt>
      <trkpt lat="49.87357" lon="4.81334">
        <ele>201</ele>
        <time>2021-08-27T07:23:03.000Z</time>
      </trkpt>
      <trkpt lat="49.87357" lon="4.81334">
        <ele>201</ele>
        <time>2021-08-27T07:23:04.000Z</time>
      </trkpt>
      <trkpt lat="49.87357" lon="4.81334">
        <ele>200</ele>
        <time>2021-08-27T07:23:05.000Z</time>
      </trkpt>
      <trkpt lat="49.87356" lon="4.81334">
        <ele>200</ele>
        <time>2021-08-27T07:23:06.000Z</time>
      </trkpt>
      <trkpt lat="49.87356" lon="4.81333">
        <ele>200</ele>
        <time>2021-08-27T07:23:07.000Z</time>
      </trkpt>
      <trkpt lat="49.87356" lon="4.81333">
        <ele>200</ele>
        <time>2021-08-27T07:23:08.000Z</time>
      </trkpt>
      <trkpt lat="49.87356" lon="4.81333">
        <ele>200</ele>
        <time>2021-08-27T07:23:09.000Z</time>
      </trkpt>
      <trkpt lat="49.87356" lon="4.81333">
        <ele>200</ele>
        <time>2021-08-27T07:23:10.000Z</time>
      </trkpt>
      <trkpt lat="49.87356" lon="4.81333">
        <ele>199</ele>
        <time>2021-08-27T07:23:11.000Z</time>
      </trkpt>
      <trkpt lat="49.87355" lon="4.81333">
        <ele>199</ele>
        <time>2021-08-27T07:23:12.000Z</time>
      </trkpt>
      <trkpt lat="49.87355" lon="4.81333">
        <ele>199</ele>
        <time>2021-08-27T07:23:13.000Z</time>
      </trkpt>
      <trkpt lat="49.87355" lon="4.81333">
        <ele>199</ele>
        <time>2021-08-27T07:23:14.000Z</time>
      </trkpt>
      <trkpt lat="49.87355" lon="4.81333">
        <ele>199</ele>
        <time>2021-08-27T07:23:15.000Z</time>
      </trkpt>
      <trkpt lat="49.87355" lon="4.81333">
        <ele>199</ele>
        <time>2021-08-27T07:23:16.000Z</time>
      </trkpt>
      <trkpt lat="49.87354" lon="4.81332">
        <ele>199</ele>
        <time>2021-08-27T07:23:17.000Z</time>
      </trkpt>
      <trkpt lat="49.87353" lon="4.81331">
        <ele>199</ele>
        <time>2021-08-27T07:23:18.000Z</time>
      </trkpt>
      <trkpt lat="49.87351" lon="4.8133">
        <ele>198</ele>
        <time>2021-08-27T07:23:19.000Z</time>
      </trkpt>
      <trkpt lat="49.87349" lon="4.81329">
        <ele>198</ele>
        <time>2021-08-27T07:23:20.000Z</time>
      </trkpt>
      <trkpt lat="49.87347" lon="4.81327">
        <ele>198</ele>
        <time>2021-08-27T07:23:21.000Z</time>
      </trkpt>
      <trkpt lat="49.87344" lon="4.81325">
        <ele>198</ele>
        <time>2021-08-27T07:23:22.000Z</time>
      </trkpt>
      <trkpt lat="49.87342" lon="4.81323">
        <ele>197</ele>
        <time>2021-08-27T07:23:23.000Z</time>
      </trkpt>
      <trkpt lat="49.8734" lon="4.81321">
        <ele>197</ele>
        <time>2021-08-27T07:23:24.000Z</time>
      </trkpt>
      <trkpt lat="49.87338" lon="4.81318">
        <ele>197</ele>
        <time>2021-08-27T07:23:25.000Z</time>
      </trkpt>
      <trkpt lat="49.87336" lon="4.81315">
        <ele>196</ele>
        <time>2021-08-27T07:23:26.000Z</time>
      </trkpt>
      <trkpt lat="49.87333" lon="4.81312">
        <ele>196</ele>
        <time>2021-08-27T07:23:27.000Z</time>
      </trkpt>
      <trkpt lat="49.8733" lon="4.81308">
        <ele>195</ele>
        <time>2021-08-27T07:23:28.000Z</time>
      </trkpt>
      <trkpt lat="49.87328" lon="4.81304">
        <ele>195</ele>
        <time>2021-08-27T07:23:29.000Z</time>
      </trkpt>
      <trkpt lat="49.87328" lon="4.81299">
        <ele>194</ele>
        <time>2021-08-27T07:23:30.000Z</time>
      </trkpt>
      <trkpt lat="49.87328" lon="4.81293">
        <ele>194</ele>
        <time>2021-08-27T07:23:31.000Z</time>
      </trkpt>
      <trkpt lat="49.8733" lon="4.81287">
        <ele>193</ele>
        <time>2021-08-27T07:23:32.000Z</time>
      </trkpt>
      <trkpt lat="49.87334" lon="4.81282">
        <ele>193</ele>
        <time>2021-08-27T07:23:33.000Z</time>
      </trkpt>
      <trkpt lat="49.87338" lon="4.81279">
        <ele>192</ele>
        <time>2021-08-27T07:23:34.000Z</time>
      </trkpt>
      <trkpt lat="49.87342" lon="4.81277">
        <ele>191</ele>
        <time>2021-08-27T07:23:35.000Z</time>
      </trkpt>
      <trkpt lat="49.87347" lon="4.81274">
        <ele>191</ele>
        <time>2021-08-27T07:23:36.000Z</time>
      </trkpt>
      <trkpt lat="49.87352" lon="4.81271">
        <ele>190</ele>
        <time>2021-08-27T07:23:37.000Z</time>
      </trkpt>
      <trkpt lat="49.87358" lon="4.81269">
        <ele>189</ele>
        <time>2021-08-27T07:23:38.000Z</time>
      </trkpt>
      <trkpt lat="49.87363" lon="4.81267">
        <ele>189</ele>
        <time>2021-08-27T07:23:39.000Z</time>
      </trkpt>
      <trkpt lat="49.87369" lon="4.81264">
        <ele>188</ele>
        <time>2021-08-27T07:23:40.000Z</time>
      </trkpt>
      <trkpt lat="49.87376" lon="4.81262">
        <ele>187</ele>
        <time>2021-08-27T07:23:41.000Z</time>
      </trkpt>
      <trkpt lat="49.87382" lon="4.81259">
        <ele>187</ele>
        <time>2021-08-27T07:23:42.000Z</time>
      </trkpt>
      <trkpt lat="49.87389" lon="4.81257">
        <ele>186</ele>
        <time>2021-08-27T07:23:43.000Z</time>
      </trkpt>
      <trkpt lat="49.87396" lon="4.81254">
        <ele>185</ele>
        <time>2021-08-27T07:23:44.000Z</time>
      </trkpt>
      <trkpt lat="49.87404" lon="4.81252">
        <ele>185</ele>
        <time>2021-08-27T07:23:45.000Z</time>
      </trkpt>
      <trkpt lat="49.87411" lon="4.8125">
        <ele>184</ele>
        <time>2021-08-27T07:23:46.000Z</time>
      </trkpt>
      <trkpt lat="49.87419" lon="4.81248">
        <ele>183</ele>
        <time>2021-08-27T07:23:47.000Z</time>
      </trkpt>
      <trkpt lat="49.87427" lon="4.81246">
        <ele>183</ele>
        <time>2021-08-27T07:23:48.000Z</time>
      </trkpt>
      <trkpt lat="49.87435" lon="4.81245">
        <ele>182</ele>
        <time>2021-08-27T07:23:49.000Z</time>
      </trkpt>
      <trkpt lat="49.87443" lon="4.81243">
        <ele>181</ele>
        <time>2021-08-27T07:23:50.000Z</time>
      </trkpt>
      <trkpt lat="49.8745" lon="4.8124">
        <ele>181</ele>
        <time>2021-08-27T07:23:51.000Z</time>
      </trkpt>
      <trkpt lat="49.87457" lon="4.81238">
        <ele>180</ele>
        <time>2021-08-27T07:23:52.000Z</time>
      </trkpt>
      <trkpt lat="49.87462" lon="4.81236">
        <ele>180</ele>
        <time>2021-08-27T07:23:53.000Z</time>
      </trkpt>
      <trkpt lat="49.87466" lon="4.81233">
        <ele>179</ele>
        <time>2021-08-27T07:23:54.000Z</time>
      </trkpt>
      <trkpt lat="49.87469" lon="4.81229">
        <ele>179</ele>
        <time>2021-08-27T07:23:55.000Z</time>
      </trkpt>
      <trkpt lat="49.87472" lon="4.81224">
        <ele>178</ele>
        <time>2021-08-27T07:23:56.000Z</time>
      </trkpt>
      <trkpt lat="49.87474" lon="4.81217">
        <ele>178</ele>
        <time>2021-08-27T07:23:57.000Z</time>
      </trkpt>
      <trkpt lat="49.87475" lon="4.8121">
        <ele>177</ele>
        <time>2021-08-27T07:23:58.000Z</time>
      </trkpt>
      <trkpt lat="49.87476" lon="4.81201">
        <ele>177</ele>
        <time>2021-08-27T07:23:59.000Z</time>
      </trkpt>
      <trkpt lat="49.87479" lon="4.81193">
        <ele>177</ele>
        <time>2021-08-27T07:24:00.000Z</time>
      </trkpt>
      <trkpt lat="49.87483" lon="4.81187">
        <ele>176</ele>
        <time>2021-08-27T07:24:01.000Z</time>
      </trkpt>
      <trkpt lat="49.87489" lon="4.81184">
        <ele>176</ele>
        <time>2021-08-27T07:24:02.000Z</time>
      </trkpt>
      <trkpt lat="49.87494" lon="4.81184">
        <ele>175</ele>
        <time>2021-08-27T07:24:03.000Z</time>
      </trkpt>
      <trkpt lat="49.875" lon="4.81185">
        <ele>175</ele>
        <time>2021-08-27T07:24:04.000Z</time>
      </trkpt>
      <trkpt lat="49.87505" lon="4.81186">
        <ele>175</ele>
        <time>2021-08-27T07:24:05.000Z</time>
      </trkpt>
      <trkpt lat="49.87511" lon="4.81187">
        <ele>175</ele>
        <time>2021-08-27T07:24:06.000Z</time>
      </trkpt>
      <trkpt lat="49.87516" lon="4.81188">
        <ele>175</ele>
        <time>2021-08-27T07:24:07.000Z</time>
      </trkpt>
      <trkpt lat="49.87522" lon="4.81189">
        <ele>174</ele>
        <time>2021-08-27T07:24:08.000Z</time>
      </trkpt>
      <trkpt lat="49.87528" lon="4.8119">
        <ele>174</ele>
        <time>2021-08-27T07:24:09.000Z</time>
      </trkpt>
      <trkpt lat="49.87533" lon="4.81191">
        <ele>174</ele>
        <time>2021-08-27T07:24:10.000Z</time>
      </trkpt>
      <trkpt lat="49.87539" lon="4.81193">
        <ele>174</ele>
        <time>2021-08-27T07:24:11.000Z</time>
      </trkpt>
      <trkpt lat="49.87544" lon="4.81195">
        <ele>174</ele>
        <time>2021-08-27T07:24:12.000Z</time>
      </trkpt>
      <trkpt lat="49.8755" lon="4.81196">
        <ele>174</ele>
        <time>2021-08-27T07:24:13.000Z</time>
      </trkpt>
      <trkpt lat="49.87555" lon="4.81198">
        <ele>174</ele>
        <time>2021-08-27T07:24:14.000Z</time>
      </trkpt>
      <trkpt lat="49.8756" lon="4.812">
        <ele>174</ele>
        <time>2021-08-27T07:24:15.000Z</time>
      </trkpt>
      <trkpt lat="49.87565" lon="4.81203">
        <ele>174</ele>
        <time>2021-08-27T07:24:16.000Z</time>
      </trkpt>
      <trkpt lat="49.87571" lon="4.81206">
        <ele>173</ele>
        <time>2021-08-27T07:24:17.000Z</time>
      </trkpt>
      <trkpt lat="49.87576" lon="4.81208">
        <ele>173</ele>
        <time>2021-08-27T07:24:18.000Z</time>
      </trkpt>
      <trkpt lat="49.87581" lon="4.81212">
        <ele>173</ele>
        <time>2021-08-27T07:24:19.000Z</time>
      </trkpt>
      <trkpt lat="49.87586" lon="4.81216">
        <ele>173</ele>
        <time>2021-08-27T07:24:20.000Z</time>
      </trkpt>
      <trkpt lat="49.87591" lon="4.81221">
        <ele>173</ele>
        <time>2021-08-27T07:24:21.000Z</time>
      </trkpt>
      <trkpt lat="49.87596" lon="4.81225">
        <ele>173</ele>
        <time>2021-08-27T07:24:22.000Z</time>
      </trkpt>
      <trkpt lat="49.87601" lon="4.81231">
        <ele>172</ele>
        <time>2021-08-27T07:24:23.000Z</time>
      </trkpt>
      <trkpt lat="49.87606" lon="4.81237">
        <ele>172</ele>
        <time>2021-08-27T07:24:24.000Z</time>
      </trkpt>
      <trkpt lat="49.87611" lon="4.81245">
        <ele>172</ele>
        <time>2021-08-27T07:24:25.000Z</time>
      </trkpt>
      <trkpt lat="49.87614" lon="4.81254">
        <ele>172</ele>
        <time>2021-08-27T07:24:26.000Z</time>
      </trkpt>
      <trkpt lat="49.87618" lon="4.81263">
        <ele>172</ele>
        <time>2021-08-27T07:24:27.000Z</time>
      </trkpt>
      <trkpt lat="49.87623" lon="4.81273">
        <ele>171</ele>
        <time>2021-08-27T07:24:28.000Z</time>
      </trkpt>
      <trkpt lat="49.87627" lon="4.81282">
        <ele>171</ele>
        <time>2021-08-27T07:24:29.000Z</time>
      </trkpt>
      <trkpt lat="49.8763" lon="4.81291">
        <ele>171</ele>
        <time>2021-08-27T07:24:30.000Z</time>
      </trkpt>
      <trkpt lat="49.87633" lon="4.813">
        <ele>171</ele>
        <time>2021-08-27T07:24:31.000Z</time>
      </trkpt>
      <trkpt lat="49.87636" lon="4.81307">
        <ele>171</ele>
        <time>2021-08-27T07:24:32.000Z</time>
      </trkpt>
      <trkpt lat="49.8764" lon="4.81314">
        <ele>171</ele>
        <time>2021-08-27T07:24:33.000Z</time>
      </trkpt>
      <trkpt lat="49.87644" lon="4.81319">
        <ele>171</ele>
        <time>2021-08-27T07:24:34.000Z</time>
      </trkpt>
      <trkpt lat="49.87649" lon="4.81322">
        <ele>170</ele>
        <time>2021-08-27T07:24:35.000Z</time>
      </trkpt>
      <trkpt lat="49.87655" lon="4.81325">
        <ele>170</ele>
        <time>2021-08-27T07:24:36.000Z</time>
      </trkpt>
      <trkpt lat="49.8766" lon="4.81326">
        <ele>170</ele>
        <time>2021-08-27T07:24:37.000Z</time>
      </trkpt>
      <trkpt lat="49.87665" lon="4.81326">
        <ele>170</ele>
        <time>2021-08-27T07:24:38.000Z</time>
      </trkpt>
      <trkpt lat="49.8767" lon="4.81326">
        <ele>170</ele>
        <time>2021-08-27T07:24:39.000Z</time>
      </trkpt>
      <trkpt lat="49.87674" lon="4.81326">
        <ele>170</ele>
        <time>2021-08-27T07:24:40.000Z</time>
      </trkpt>
      <trkpt lat="49.87678" lon="4.81324">
        <ele>170</ele>
        <time>2021-08-27T07:24:41.000Z</time>
      </trkpt>
      <trkpt lat="49.87682" lon="4.81324">
        <ele>171</ele>
        <time>2021-08-27T07:24:42.000Z</time>
      </trkpt>
      <trkpt lat="49.87685" lon="4.81323">
        <ele>171</ele>
        <time>2021-08-27T07:24:43.000Z</time>
      </trkpt>
      <trkpt lat="49.87688" lon="4.81321">
        <ele>171</ele>
        <time>2021-08-27T07:24:44.000Z</time>
      </trkpt>
      <trkpt lat="49.87691" lon="4.81319">
        <ele>171</ele>
        <time>2021-08-27T07:24:45.000Z</time>
      </trkpt>
      <trkpt lat="49.87694" lon="4.81317">
        <ele>171</ele>
        <time>2021-08-27T07:24:46.000Z</time>
      </trkpt>
      <trkpt lat="49.87697" lon="4.81315">
        <ele>171</ele>
        <time>2021-08-27T07:24:47.000Z</time>
      </trkpt>
      <trkpt lat="49.87699" lon="4.81314">
        <ele>171</ele>
        <time>2021-08-27T07:24:48.000Z</time>
      </trkpt>
      <trkpt lat="49.87702" lon="4.81313">
        <ele>171</ele>
        <time>2021-08-27T07:24:49.000Z</time>
      </trkpt>
      <trkpt lat="49.87705" lon="4.81312">
        <ele>171</ele>
        <time>2021-08-27T07:24:50.000Z</time>
      </trkpt>
      <trkpt lat="49.87708" lon="4.8131">
        <ele>171</ele>
        <time>2021-08-27T07:24:51.000Z</time>
      </trkpt>
      <trkpt lat="49.87711" lon="4.81309">
        <ele>171</ele>
        <time>2021-08-27T07:24:52.000Z</time>
      </trkpt>
      <trkpt lat="49.87713" lon="4.81309">
        <ele>171</ele>
        <time>2021-08-27T07:24:53.000Z</time>
      </trkpt>
      <trkpt lat="49.87716" lon="4.81308">
        <ele>171</ele>
        <time>2021-08-27T07:24:54.000Z</time>
      </trkpt>
      <trkpt lat="49.87718" lon="4.81308">
        <ele>171</ele>
        <time>2021-08-27T07:24:55.000Z</time>
      </trkpt>
      <trkpt lat="49.8772" lon="4.81308">
        <ele>171</ele>
        <time>2021-08-27T07:24:56.000Z</time>
      </trkpt>
      <trkpt lat="49.87723" lon="4.81307">
        <ele>172</ele>
        <time>2021-08-27T07:24:57.000Z</time>
      </trkpt>
      <trkpt lat="49.87725" lon="4.81307">
        <ele>172</ele>
        <time>2021-08-27T07:24:58.000Z</time>
      </trkpt>
      <trkpt lat="49.87727" lon="4.81307">
        <ele>172</ele>
        <time>2021-08-27T07:24:59.000Z</time>
      </trkpt>
      <trkpt lat="49.8773" lon="4.81306">
        <ele>172</ele>
        <time>2021-08-27T07:25:00.000Z</time>
      </trkpt>
      <trkpt lat="49.87733" lon="4.81305">
        <ele>172</ele>
        <time>2021-08-27T07:25:01.000Z</time>
      </trkpt>
      <trkpt lat="49.87735" lon="4.81305">
        <ele>172</ele>
        <time>2021-08-27T07:25:02.000Z</time>
      </trkpt>
      <trkpt lat="49.87738" lon="4.81305">
        <ele>172</ele>
        <time>2021-08-27T07:25:03.000Z</time>
      </trkpt>
      <trkpt lat="49.8774" lon="4.81305">
        <ele>173</ele>
        <time>2021-08-27T07:25:04.000Z</time>
      </trkpt>
      <trkpt lat="49.87743" lon="4.81305">
        <ele>173</ele>
        <time>2021-08-27T07:25:05.000Z</time>
      </trkpt>
      <trkpt lat="49.87746" lon="4.81304">
        <ele>173</ele>
        <time>2021-08-27T07:25:06.000Z</time>
      </trkpt>
      <trkpt lat="49.87749" lon="4.81305">
        <ele>173</ele>
        <time>2021-08-27T07:25:07.000Z</time>
      </trkpt>
      <trkpt lat="49.87751" lon="4.81305">
        <ele>173</ele>
        <time>2021-08-27T07:25:08.000Z</time>
      </trkpt>
      <trkpt lat="49.87753" lon="4.81305">
        <ele>173</ele>
        <time>2021-08-27T07:25:09.000Z</time>
      </trkpt>
      <trkpt lat="49.87755" lon="4.81306">
        <ele>173</ele>
        <time>2021-08-27T07:25:10.000Z</time>
      </trkpt>
      <trkpt lat="49.87758" lon="4.81306">
        <ele>173</ele>
        <time>2021-08-27T07:25:11.000Z</time>
      </trkpt>
      <trkpt lat="49.8776" lon="4.81306">
        <ele>173</ele>
        <time>2021-08-27T07:25:12.000Z</time>
      </trkpt>
      <trkpt lat="49.87762" lon="4.81306">
        <ele>173</ele>
        <time>2021-08-27T07:25:13.000Z</time>
      </trkpt>
      <trkpt lat="49.87765" lon="4.81306">
        <ele>174</ele>
        <time>2021-08-27T07:25:14.000Z</time>
      </trkpt>
      <trkpt lat="49.87767" lon="4.81306">
        <ele>174</ele>
        <time>2021-08-27T07:25:15.000Z</time>
      </trkpt>
      <trkpt lat="49.8777" lon="4.81306">
        <ele>174</ele>
        <time>2021-08-27T07:25:16.000Z</time>
      </trkpt>
      <trkpt lat="49.87772" lon="4.81305">
        <ele>175</ele>
        <time>2021-08-27T07:25:17.000Z</time>
      </trkpt>
      <trkpt lat="49.87775" lon="4.81305">
        <ele>175</ele>
        <time>2021-08-27T07:25:18.000Z</time>
      </trkpt>
      <trkpt lat="49.87777" lon="4.81305">
        <ele>175</ele>
        <time>2021-08-27T07:25:19.000Z</time>
      </trkpt>
      <trkpt lat="49.8778" lon="4.81306">
        <ele>175</ele>
        <time>2021-08-27T07:25:20.000Z</time>
      </trkpt>
      <trkpt lat="49.87783" lon="4.81306">
        <ele>175</ele>
        <time>2021-08-27T07:25:21.000Z</time>
      </trkpt>
      <trkpt lat="49.87785" lon="4.81305">
        <ele>176</ele>
        <time>2021-08-27T07:25:22.000Z</time>
      </trkpt>
      <trkpt lat="49.87788" lon="4.81306">
        <ele>176</ele>
        <time>2021-08-27T07:25:23.000Z</time>
      </trkpt>
      <trkpt lat="49.8779" lon="4.81306">
        <ele>176</ele>
        <time>2021-08-27T07:25:24.000Z</time>
      </trkpt>
      <trkpt lat="49.87793" lon="4.81306">
        <ele>176</ele>
        <time>2021-08-27T07:25:25.000Z</time>
      </trkpt>
      <trkpt lat="49.87795" lon="4.81306">
        <ele>177</ele>
        <time>2021-08-27T07:25:26.000Z</time>
      </trkpt>
      <trkpt lat="49.87797" lon="4.81306">
        <ele>177</ele>
        <time>2021-08-27T07:25:27.000Z</time>
      </trkpt>
      <trkpt lat="49.878" lon="4.81307">
        <ele>177</ele>
        <time>2021-08-27T07:25:28.000Z</time>
      </trkpt>
      <trkpt lat="49.87802" lon="4.81308">
        <ele>177</ele>
        <time>2021-08-27T07:25:29.000Z</time>
      </trkpt>
      <trkpt lat="49.87805" lon="4.81308">
        <ele>177</ele>
        <time>2021-08-27T07:25:30.000Z</time>
      </trkpt>
      <trkpt lat="49.87808" lon="4.81309">
        <ele>178</ele>
        <time>2021-08-27T07:25:31.000Z</time>
      </trkpt>
      <trkpt lat="49.87811" lon="4.8131">
        <ele>178</ele>
        <time>2021-08-27T07:25:32.000Z</time>
      </trkpt>
      <trkpt lat="49.87814" lon="4.8131">
        <ele>178</ele>
        <time>2021-08-27T07:25:33.000Z</time>
      </trkpt>
      <trkpt lat="49.87817" lon="4.81312">
        <ele>178</ele>
        <time>2021-08-27T07:25:34.000Z</time>
      </trkpt>
      <trkpt lat="49.8782" lon="4.81313">
        <ele>179</ele>
        <time>2021-08-27T07:25:35.000Z</time>
      </trkpt>
      <trkpt lat="49.87823" lon="4.81313">
        <ele>179</ele>
        <time>2021-08-27T07:25:36.000Z</time>
      </trkpt>
      <trkpt lat="49.87826" lon="4.81314">
        <ele>179</ele>
        <time>2021-08-27T07:25:37.000Z</time>
      </trkpt>
      <trkpt lat="49.87829" lon="4.81315">
        <ele>179</ele>
        <time>2021-08-27T07:25:38.000Z</time>
      </trkpt>
      <trkpt lat="49.87832" lon="4.81315">
        <ele>180</ele>
        <time>2021-08-27T07:25:39.000Z</time>
      </trkpt>
      <trkpt lat="49.87835" lon="4.81315">
        <ele>180</ele>
        <time>2021-08-27T07:25:40.000Z</time>
      </trkpt>
      <trkpt lat="49.87838" lon="4.81315">
        <ele>180</ele>
        <time>2021-08-27T07:25:41.000Z</time>
      </trkpt>
      <trkpt lat="49.87841" lon="4.81315">
        <ele>181</ele>
        <time>2021-08-27T07:25:42.000Z</time>
      </trkpt>
      <trkpt lat="49.87844" lon="4.81316">
        <ele>181</ele>
        <time>2021-08-27T07:25:43.000Z</time>
      </trkpt>
      <trkpt lat="49.87847" lon="4.81316">
        <ele>181</ele>
        <time>2021-08-27T07:25:44.000Z</time>
      </trkpt>
      <trkpt lat="49.8785" lon="4.81317">
        <ele>181</ele>
        <time>2021-08-27T07:25:45.000Z</time>
      </trkpt>
      <trkpt lat="49.87853" lon="4.81317">
        <ele>181</ele>
        <time>2021-08-27T07:25:46.000Z</time>
      </trkpt>
      <trkpt lat="49.87855" lon="4.81318">
        <ele>182</ele>
        <time>2021-08-27T07:25:47.000Z</time>
      </trkpt>
      <trkpt lat="49.87858" lon="4.81318">
        <ele>182</ele>
        <time>2021-08-27T07:25:48.000Z</time>
      </trkpt>
      <trkpt lat="49.87861" lon="4.81319">
        <ele>182</ele>
        <time>2021-08-27T07:25:49.000Z</time>
      </trkpt>
      <trkpt lat="49.87863" lon="4.8132">
        <ele>182</ele>
        <time>2021-08-27T07:25:50.000Z</time>
      </trkpt>
      <trkpt lat="49.87866" lon="4.81322">
        <ele>182</ele>
        <time>2021-08-27T07:25:51.000Z</time>
      </trkpt>
      <trkpt lat="49.87868" lon="4.81323">
        <ele>183</ele>
        <time>2021-08-27T07:25:52.000Z</time>
      </trkpt>
      <trkpt lat="49.87871" lon="4.81324">
        <ele>183</ele>
        <time>2021-08-27T07:25:53.000Z</time>
      </trkpt>
      <trkpt lat="49.87874" lon="4.81324">
        <ele>183</ele>
        <time>2021-08-27T07:25:54.000Z</time>
      </trkpt>
      <trkpt lat="49.87876" lon="4.81325">
        <ele>183</ele>
        <time>2021-08-27T07:25:55.000Z</time>
      </trkpt>
      <trkpt lat="49.87879" lon="4.81326">
        <ele>183</ele>
        <time>2021-08-27T07:25:56.000Z</time>
      </trkpt>
      <trkpt lat="49.87881" lon="4.81327">
        <ele>183</ele>
        <time>2021-08-27T07:25:57.000Z</time>
      </trkpt>
      <trkpt lat="49.87884" lon="4.81327">
        <ele>183</ele>
        <time>2021-08-27T07:25:58.000Z</time>
      </trkpt>
      <trkpt lat="49.87887" lon="4.81328">
        <ele>183</ele>
        <time>2021-08-27T07:25:59.000Z</time>
      </trkpt>
      <trkpt lat="49.8789" lon="4.81329">
        <ele>183</ele>
        <time>2021-08-27T07:26:00.000Z</time>
      </trkpt>
      <trkpt lat="49.87893" lon="4.8133">
        <ele>183</ele>
        <time>2021-08-27T07:26:01.000Z</time>
      </trkpt>
      <trkpt lat="49.87895" lon="4.8133">
        <ele>184</ele>
        <time>2021-08-27T07:26:02.000Z</time>
      </trkpt>
      <trkpt lat="49.87898" lon="4.8133">
        <ele>184</ele>
        <time>2021-08-27T07:26:03.000Z</time>
      </trkpt>
      <trkpt lat="49.87901" lon="4.8133">
        <ele>184</ele>
        <time>2021-08-27T07:26:04.000Z</time>
      </trkpt>
      <trkpt lat="49.87903" lon="4.81331">
        <ele>184</ele>
        <time>2021-08-27T07:26:05.000Z</time>
      </trkpt>
      <trkpt lat="49.87905" lon="4.81332">
        <ele>184</ele>
        <time>2021-08-27T07:26:06.000Z</time>
      </trkpt>
      <trkpt lat="49.87907" lon="4.81332">
        <ele>184</ele>
        <time>2021-08-27T07:26:07.000Z</time>
      </trkpt>
      <trkpt lat="49.87909" lon="4.81332">
        <ele>185</ele>
        <time>2021-08-27T07:26:08.000Z</time>
      </trkpt>
      <trkpt lat="49.87912" lon="4.81332">
        <ele>185</ele>
        <time>2021-08-27T07:26:09.000Z</time>
      </trkpt>
      <trkpt lat="49.87914" lon="4.81333">
        <ele>185</ele>
        <time>2021-08-27T07:26:10.000Z</time>
      </trkpt>
      <trkpt lat="49.87916" lon="4.81334">
        <ele>185</ele>
        <time>2021-08-27T07:26:11.000Z</time>
      </trkpt>
      <trkpt lat="49.87919" lon="4.81334">
        <ele>186</ele>
        <time>2021-08-27T07:26:12.000Z</time>
      </trkpt>
      <trkpt lat="49.87921" lon="4.81335">
        <ele>186</ele>
        <time>2021-08-27T07:26:13.000Z</time>
      </trkpt>
      <trkpt lat="49.87924" lon="4.81335">
        <ele>186</ele>
        <time>2021-08-27T07:26:14.000Z</time>
      </trkpt>
      <trkpt lat="49.87926" lon="4.81336">
        <ele>186</ele>
        <time>2021-08-27T07:26:15.000Z</time>
      </trkpt>
      <trkpt lat="49.87929" lon="4.81336">
        <ele>187</ele>
        <time>2021-08-27T07:26:16.000Z</time>
      </trkpt>
      <trkpt lat="49.87931" lon="4.81336">
        <ele>187</ele>
        <time>2021-08-27T07:26:17.000Z</time>
      </trkpt>
      <trkpt lat="49.87933" lon="4.81336">
        <ele>187</ele>
        <time>2021-08-27T07:26:18.000Z</time>
      </trkpt>
      <trkpt lat="49.87936" lon="4.81337">
        <ele>187</ele>
        <time>2021-08-27T07:26:19.000Z</time>
      </trkpt>
      <trkpt lat="49.87939" lon="4.81337">
        <ele>187</ele>
        <time>2021-08-27T07:26:20.000Z</time>
      </trkpt>
      <trkpt lat="49.87942" lon="4.81338">
        <ele>187</ele>
        <time>2021-08-27T07:26:21.000Z</time>
      </trkpt>
      <trkpt lat="49.87944" lon="4.81338">
        <ele>187</ele>
        <time>2021-08-27T07:26:22.000Z</time>
      </trkpt>
      <trkpt lat="49.87946" lon="4.81338">
        <ele>188</ele>
        <time>2021-08-27T07:26:23.000Z</time>
      </trkpt>
      <trkpt lat="49.87949" lon="4.81339">
        <ele>188</ele>
        <time>2021-08-27T07:26:24.000Z</time>
      </trkpt>
      <trkpt lat="49.87952" lon="4.81339">
        <ele>188</ele>
        <time>2021-08-27T07:26:25.000Z</time>
      </trkpt>
      <trkpt lat="49.87955" lon="4.81339">
        <ele>188</ele>
        <time>2021-08-27T07:26:26.000Z</time>
      </trkpt>
      <trkpt lat="49.87957" lon="4.81339">
        <ele>188</ele>
        <time>2021-08-27T07:26:27.000Z</time>
      </trkpt>
      <trkpt lat="49.8796" lon="4.81339">
        <ele>189</ele>
        <time>2021-08-27T07:26:28.000Z</time>
      </trkpt>
      <trkpt lat="49.87962" lon="4.81339">
        <ele>189</ele>
        <time>2021-08-27T07:26:29.000Z</time>
      </trkpt>
      <trkpt lat="49.87965" lon="4.8134">
        <ele>189</ele>
        <time>2021-08-27T07:26:30.000Z</time>
      </trkpt>
      <trkpt lat="49.87968" lon="4.8134">
        <ele>190</ele>
        <time>2021-08-27T07:26:31.000Z</time>
      </trkpt>
      <trkpt lat="49.87971" lon="4.81341">
        <ele>190</ele>
        <time>2021-08-27T07:26:32.000Z</time>
      </trkpt>
      <trkpt lat="49.87974" lon="4.81342">
        <ele>190</ele>
        <time>2021-08-27T07:26:33.000Z</time>
      </trkpt>
      <trkpt lat="49.87977" lon="4.81343">
        <ele>190</ele>
        <time>2021-08-27T07:26:34.000Z</time>
      </trkpt>
      <trkpt lat="49.8798" lon="4.81343">
        <ele>191</ele>
        <time>2021-08-27T07:26:35.000Z</time>
      </trkpt>
      <trkpt lat="49.87983" lon="4.81343">
        <ele>191</ele>
        <time>2021-08-27T07:26:36.000Z</time>
      </trkpt>
      <trkpt lat="49.87986" lon="4.81344">
        <ele>191</ele>
        <time>2021-08-27T07:26:37.000Z</time>
      </trkpt>
      <trkpt lat="49.87989" lon="4.81344">
        <ele>192</ele>
        <time>2021-08-27T07:26:38.000Z</time>
      </trkpt>
      <trkpt lat="49.87992" lon="4.81344">
        <ele>192</ele>
        <time>2021-08-27T07:26:39.000Z</time>
      </trkpt>
      <trkpt lat="49.87995" lon="4.81345">
        <ele>192</ele>
        <time>2021-08-27T07:26:40.000Z</time>
      </trkpt>
      <trkpt lat="49.87998" lon="4.81345">
        <ele>193</ele>
        <time>2021-08-27T07:26:41.000Z</time>
      </trkpt>
      <trkpt lat="49.88001" lon="4.81346">
        <ele>193</ele>
        <time>2021-08-27T07:26:42.000Z</time>
      </trkpt>
      <trkpt lat="49.88005" lon="4.81346">
        <ele>193</ele>
        <time>2021-08-27T07:26:43.000Z</time>
      </trkpt>
      <trkpt lat="49.88008" lon="4.81347">
        <ele>194</ele>
        <time>2021-08-27T07:26:44.000Z</time>
      </trkpt>
      <trkpt lat="49.88011" lon="4.81347">
        <ele>194</ele>
        <time>2021-08-27T07:26:45.000Z</time>
      </trkpt>
      <trkpt lat="49.88015" lon="4.81347">
        <ele>194</ele>
        <time>2021-08-27T07:26:46.000Z</time>
      </trkpt>
      <trkpt lat="49.88018" lon="4.81347">
        <ele>195</ele>
        <time>2021-08-27T07:26:47.000Z</time>
      </trkpt>
      <trkpt lat="49.88021" lon="4.81347">
        <ele>195</ele>
        <time>2021-08-27T07:26:48.000Z</time>
      </trkpt>
      <trkpt lat="49.88024" lon="4.81346">
        <ele>195</ele>
        <time>2021-08-27T07:26:49.000Z</time>
      </trkpt>
      <trkpt lat="49.88027" lon="4.81346">
        <ele>196</ele>
        <time>2021-08-27T07:26:50.000Z</time>
      </trkpt>
      <trkpt lat="49.8803" lon="4.81346">
        <ele>196</ele>
        <time>2021-08-27T07:26:51.000Z</time>
      </trkpt>
      <trkpt lat="49.88034" lon="4.81345">
        <ele>196</ele>
        <time>2021-08-27T07:26:52.000Z</time>
      </trkpt>
      <trkpt lat="49.88037" lon="4.81344">
        <ele>196</ele>
        <time>2021-08-27T07:26:53.000Z</time>
      </trkpt>
      <trkpt lat="49.8804" lon="4.81343">
        <ele>197</ele>
        <time>2021-08-27T07:26:54.000Z</time>
      </trkpt>
      <trkpt lat="49.88043" lon="4.81342">
        <ele>197</ele>
        <time>2021-08-27T07:26:55.000Z</time>
      </trkpt>
      <trkpt lat="49.88046" lon="4.81341">
        <ele>197</ele>
        <time>2021-08-27T07:26:56.000Z</time>
      </trkpt>
      <trkpt lat="49.88049" lon="4.8134">
        <ele>198</ele>
        <time>2021-08-27T07:26:57.000Z</time>
      </trkpt>
      <trkpt lat="49.88052" lon="4.81339">
        <ele>198</ele>
        <time>2021-08-27T07:26:58.000Z</time>
      </trkpt>
      <trkpt lat="49.88055" lon="4.81338">
        <ele>198</ele>
        <time>2021-08-27T07:26:59.000Z</time>
      </trkpt>
      <trkpt lat="49.88058" lon="4.81337">
        <ele>198</ele>
        <time>2021-08-27T07:27:00.000Z</time>
      </trkpt>
      <trkpt lat="49.88061" lon="4.81336">
        <ele>199</ele>
        <time>2021-08-27T07:27:01.000Z</time>
      </trkpt>
      <trkpt lat="49.88064" lon="4.81335">
        <ele>199</ele>
        <time>2021-08-27T07:27:02.000Z</time>
      </trkpt>
      <trkpt lat="49.88067" lon="4.81334">
        <ele>199</ele>
        <time>2021-08-27T07:27:03.000Z</time>
      </trkpt>
      <trkpt lat="49.88069" lon="4.81333">
        <ele>199</ele>
        <time>2021-08-27T07:27:04.000Z</time>
      </trkpt>
      <trkpt lat="49.88072" lon="4.81332">
        <ele>200</ele>
        <time>2021-08-27T07:27:05.000Z</time>
      </trkpt>
      <trkpt lat="49.88074" lon="4.81331">
        <ele>200</ele>
        <time>2021-08-27T07:27:06.000Z</time>
      </trkpt>
      <trkpt lat="49.88077" lon="4.8133">
        <ele>200</ele>
        <time>2021-08-27T07:27:07.000Z</time>
      </trkpt>
      <trkpt lat="49.88079" lon="4.8133">
        <ele>200</ele>
        <time>2021-08-27T07:27:08.000Z</time>
      </trkpt>
      <trkpt lat="49.88082" lon="4.81328">
        <ele>201</ele>
        <time>2021-08-27T07:27:09.000Z</time>
      </trkpt>
      <trkpt lat="49.88084" lon="4.81327">
        <ele>201</ele>
        <time>2021-08-27T07:27:10.000Z</time>
      </trkpt>
      <trkpt lat="49.88086" lon="4.81326">
        <ele>201</ele>
        <time>2021-08-27T07:27:11.000Z</time>
      </trkpt>
      <trkpt lat="49.88088" lon="4.81324">
        <ele>201</ele>
        <time>2021-08-27T07:27:12.000Z</time>
      </trkpt>
      <trkpt lat="49.88091" lon="4.81323">
        <ele>202</ele>
        <time>2021-08-27T07:27:13.000Z</time>
      </trkpt>
      <trkpt lat="49.88093" lon="4.81322">
        <ele>202</ele>
        <time>2021-08-27T07:27:14.000Z</time>
      </trkpt>
      <trkpt lat="49.88096" lon="4.81321">
        <ele>202</ele>
        <time>2021-08-27T07:27:15.000Z</time>
      </trkpt>
      <trkpt lat="49.88099" lon="4.8132">
        <ele>202</ele>
        <time>2021-08-27T07:27:16.000Z</time>
      </trkpt>
      <trkpt lat="49.88102" lon="4.81319">
        <ele>202</ele>
        <time>2021-08-27T07:27:17.000Z</time>
      </trkpt>
      <trkpt lat="49.88105" lon="4.81318">
        <ele>203</ele>
        <time>2021-08-27T07:27:18.000Z</time>
      </trkpt>
      <trkpt lat="49.88108" lon="4.81317">
        <ele>203</ele>
        <time>2021-08-27T07:27:19.000Z</time>
      </trkpt>
      <trkpt lat="49.8811" lon="4.81316">
        <ele>203</ele>
        <time>2021-08-27T07:27:20.000Z</time>
      </trkpt>
      <trkpt lat="49.88113" lon="4.81316">
        <ele>203</ele>
        <time>2021-08-27T07:27:21.000Z</time>
      </trkpt>
      <trkpt lat="49.88116" lon="4.81315">
        <ele>203</ele>
        <time>2021-08-27T07:27:22.000Z</time>
      </trkpt>
      <trkpt lat="49.88118" lon="4.81314">
        <ele>203</ele>
        <time>2021-08-27T07:27:23.000Z</time>
      </trkpt>
      <trkpt lat="49.8812" lon="4.81313">
        <ele>203</ele>
        <time>2021-08-27T07:27:24.000Z</time>
      </trkpt>
      <trkpt lat="49.88123" lon="4.81313">
        <ele>204</ele>
        <time>2021-08-27T07:27:25.000Z</time>
      </trkpt>
      <trkpt lat="49.88126" lon="4.81312">
        <ele>204</ele>
        <time>2021-08-27T07:27:26.000Z</time>
      </trkpt>
      <trkpt lat="49.88129" lon="4.81311">
        <ele>204</ele>
        <time>2021-08-27T07:27:27.000Z</time>
      </trkpt>
      <trkpt lat="49.88131" lon="4.8131">
        <ele>204</ele>
        <time>2021-08-27T07:27:28.000Z</time>
      </trkpt>
      <trkpt lat="49.88134" lon="4.81309">
        <ele>204</ele>
        <time>2021-08-27T07:27:29.000Z</time>
      </trkpt>
      <trkpt lat="49.88136" lon="4.81307">
        <ele>205</ele>
        <time>2021-08-27T07:27:30.000Z</time>
      </trkpt>
      <trkpt lat="49.88138" lon="4.81306">
        <ele>205</ele>
        <time>2021-08-27T07:27:31.000Z</time>
      </trkpt>
      <trkpt lat="49.88141" lon="4.81304">
        <ele>205</ele>
        <time>2021-08-27T07:27:32.000Z</time>
      </trkpt>
      <trkpt lat="49.88143" lon="4.81303">
        <ele>205</ele>
        <time>2021-08-27T07:27:33.000Z</time>
      </trkpt>
      <trkpt lat="49.88146" lon="4.81302">
        <ele>205</ele>
        <time>2021-08-27T07:27:34.000Z</time>
      </trkpt>
      <trkpt lat="49.88149" lon="4.81301">
        <ele>206</ele>
        <time>2021-08-27T07:27:35.000Z</time>
      </trkpt>
      <trkpt lat="49.88152" lon="4.813">
        <ele>206</ele>
        <time>2021-08-27T07:27:36.000Z</time>
      </trkpt>
      <trkpt lat="49.88155" lon="4.81299">
        <ele>206</ele>
        <time>2021-08-27T07:27:37.000Z</time>
      </trkpt>
      <trkpt lat="49.88158" lon="4.81299">
        <ele>206</ele>
        <time>2021-08-27T07:27:38.000Z</time>
      </trkpt>
      <trkpt lat="49.88161" lon="4.81298">
        <ele>206</ele>
        <time>2021-08-27T07:27:39.000Z</time>
      </trkpt>
      <trkpt lat="49.88163" lon="4.81296">
        <ele>206</ele>
        <time>2021-08-27T07:27:40.000Z</time>
      </trkpt>
      <trkpt lat="49.88166" lon="4.81295">
        <ele>207</ele>
        <time>2021-08-27T07:27:41.000Z</time>
      </trkpt>
      <trkpt lat="49.88169" lon="4.81293">
        <ele>207</ele>
        <time>2021-08-27T07:27:42.000Z</time>
      </trkpt>
      <trkpt lat="49.88172" lon="4.81292">
        <ele>207</ele>
        <time>2021-08-27T07:27:43.000Z</time>
      </trkpt>
      <trkpt lat="49.88174" lon="4.81291">
        <ele>207</ele>
        <time>2021-08-27T07:27:44.000Z</time>
      </trkpt>
      <trkpt lat="49.88177" lon="4.81291">
        <ele>207</ele>
        <time>2021-08-27T07:27:45.000Z</time>
      </trkpt>
      <trkpt lat="49.88179" lon="4.8129">
        <ele>207</ele>
        <time>2021-08-27T07:27:46.000Z</time>
      </trkpt>
      <trkpt lat="49.88181" lon="4.8129">
        <ele>207</ele>
        <time>2021-08-27T07:27:47.000Z</time>
      </trkpt>
      <trkpt lat="49.88184" lon="4.81289">
        <ele>207</ele>
        <time>2021-08-27T07:27:48.000Z</time>
      </trkpt>
      <trkpt lat="49.88186" lon="4.81289">
        <ele>207</ele>
        <time>2021-08-27T07:27:49.000Z</time>
      </trkpt>
      <trkpt lat="49.88188" lon="4.81288">
        <ele>207</ele>
        <time>2021-08-27T07:27:50.000Z</time>
      </trkpt>
      <trkpt lat="49.88191" lon="4.81287">
        <ele>207</ele>
        <time>2021-08-27T07:27:51.000Z</time>
      </trkpt>
      <trkpt lat="49.88194" lon="4.81287">
        <ele>207</ele>
        <time>2021-08-27T07:27:52.000Z</time>
      </trkpt>
      <trkpt lat="49.88196" lon="4.81287">
        <ele>207</ele>
        <time>2021-08-27T07:27:53.000Z</time>
      </trkpt>
      <trkpt lat="49.88199" lon="4.81286">
        <ele>207</ele>
        <time>2021-08-27T07:27:54.000Z</time>
      </trkpt>
      <trkpt lat="49.88202" lon="4.81287">
        <ele>207</ele>
        <time>2021-08-27T07:27:55.000Z</time>
      </trkpt>
      <trkpt lat="49.88205" lon="4.81287">
        <ele>207</ele>
        <time>2021-08-27T07:27:56.000Z</time>
      </trkpt>
      <trkpt lat="49.88207" lon="4.81286">
        <ele>207</ele>
        <time>2021-08-27T07:27:57.000Z</time>
      </trkpt>
      <trkpt lat="49.8821" lon="4.81286">
        <ele>207</ele>
        <time>2021-08-27T07:27:58.000Z</time>
      </trkpt>
      <trkpt lat="49.88213" lon="4.81286">
        <ele>207</ele>
        <time>2021-08-27T07:27:59.000Z</time>
      </trkpt>
      <trkpt lat="49.88216" lon="4.81286">
        <ele>208</ele>
        <time>2021-08-27T07:28:00.000Z</time>
      </trkpt>
      <trkpt lat="49.88219" lon="4.81285">
        <ele>208</ele>
        <time>2021-08-27T07:28:01.000Z</time>
      </trkpt>
      <trkpt lat="49.88223" lon="4.81285">
        <ele>208</ele>
        <time>2021-08-27T07:28:02.000Z</time>
      </trkpt>
      <trkpt lat="49.88226" lon="4.81285">
        <ele>208</ele>
        <time>2021-08-27T07:28:03.000Z</time>
      </trkpt>
      <trkpt lat="49.88229" lon="4.81285">
        <ele>208</ele>
        <time>2021-08-27T07:28:04.000Z</time>
      </trkpt>
      <trkpt lat="49.88232" lon="4.81284">
        <ele>209</ele>
        <time>2021-08-27T07:28:05.000Z</time>
      </trkpt>
      <trkpt lat="49.88235" lon="4.81284">
        <ele>209</ele>
        <time>2021-08-27T07:28:06.000Z</time>
      </trkpt>
      <trkpt lat="49.88238" lon="4.81284">
        <ele>209</ele>
        <time>2021-08-27T07:28:07.000Z</time>
      </trkpt>
      <trkpt lat="49.88241" lon="4.81283">
        <ele>209</ele>
        <time>2021-08-27T07:28:08.000Z</time>
      </trkpt>
      <trkpt lat="49.88244" lon="4.81283">
        <ele>209</ele>
        <time>2021-08-27T07:28:09.000Z</time>
      </trkpt>
      <trkpt lat="49.88247" lon="4.81284">
        <ele>209</ele>
        <time>2021-08-27T07:28:10.000Z</time>
      </trkpt>
      <trkpt lat="49.88251" lon="4.81285">
        <ele>209</ele>
        <time>2021-08-27T07:28:11.000Z</time>
      </trkpt>
      <trkpt lat="49.88254" lon="4.81285">
        <ele>210</ele>
        <time>2021-08-27T07:28:12.000Z</time>
      </trkpt>
      <trkpt lat="49.88257" lon="4.81286">
        <ele>210</ele>
        <time>2021-08-27T07:28:13.000Z</time>
      </trkpt>
      <trkpt lat="49.8826" lon="4.81287">
        <ele>210</ele>
        <time>2021-08-27T07:28:14.000Z</time>
      </trkpt>
      <trkpt lat="49.88263" lon="4.81288">
        <ele>210</ele>
        <time>2021-08-27T07:28:15.000Z</time>
      </trkpt>
      <trkpt lat="49.88266" lon="4.81288">
        <ele>210</ele>
        <time>2021-08-27T07:28:16.000Z</time>
      </trkpt>
      <trkpt lat="49.8827" lon="4.81288">
        <ele>210</ele>
        <time>2021-08-27T07:28:17.000Z</time>
      </trkpt>
      <trkpt lat="49.88273" lon="4.81288">
        <ele>210</ele>
        <time>2021-08-27T07:28:18.000Z</time>
      </trkpt>
      <trkpt lat="49.88276" lon="4.81288">
        <ele>211</ele>
        <time>2021-08-27T07:28:19.000Z</time>
      </trkpt>
      <trkpt lat="49.88279" lon="4.81287">
        <ele>211</ele>
        <time>2021-08-27T07:28:20.000Z</time>
      </trkpt>
      <trkpt lat="49.88281" lon="4.81287">
        <ele>211</ele>
        <time>2021-08-27T07:28:21.000Z</time>
      </trkpt>
      <trkpt lat="49.88284" lon="4.81286">
        <ele>211</ele>
        <time>2021-08-27T07:28:22.000Z</time>
      </trkpt>
      <trkpt lat="49.88287" lon="4.81286">
        <ele>211</ele>
        <time>2021-08-27T07:28:23.000Z</time>
      </trkpt>
      <trkpt lat="49.8829" lon="4.81286">
        <ele>211</ele>
        <time>2021-08-27T07:28:24.000Z</time>
      </trkpt>
      <trkpt lat="49.88293" lon="4.81285">
        <ele>212</ele>
        <time>2021-08-27T07:28:25.000Z</time>
      </trkpt>
      <trkpt lat="49.88296" lon="4.81285">
        <ele>212</ele>
        <time>2021-08-27T07:28:26.000Z</time>
      </trkpt>
      <trkpt lat="49.88299" lon="4.81286">
        <ele>212</ele>
        <time>2021-08-27T07:28:27.000Z</time>
      </trkpt>
      <trkpt lat="49.88302" lon="4.81287">
        <ele>212</ele>
        <time>2021-08-27T07:28:28.000Z</time>
      </trkpt>
      <trkpt lat="49.88305" lon="4.81287">
        <ele>212</ele>
        <time>2021-08-27T07:28:29.000Z</time>
      </trkpt>
      <trkpt lat="49.88308" lon="4.81287">
        <ele>212</ele>
        <time>2021-08-27T07:28:30.000Z</time>
      </trkpt>
      <trkpt lat="49.88311" lon="4.81287">
        <ele>213</ele>
        <time>2021-08-27T07:28:31.000Z</time>
      </trkpt>
      <trkpt lat="49.88314" lon="4.81288">
        <ele>213</ele>
        <time>2021-08-27T07:28:32.000Z</time>
      </trkpt>
      <trkpt lat="49.88317" lon="4.81289">
        <ele>213</ele>
        <time>2021-08-27T07:28:33.000Z</time>
      </trkpt>
      <trkpt lat="49.8832" lon="4.81289">
        <ele>213</ele>
        <time>2021-08-27T07:28:34.000Z</time>
      </trkpt>
      <trkpt lat="49.88323" lon="4.8129">
        <ele>213</ele>
        <time>2021-08-27T07:28:35.000Z</time>
      </trkpt>
      <trkpt lat="49.88326" lon="4.81291">
        <ele>214</ele>
        <time>2021-08-27T07:28:36.000Z</time>
      </trkpt>
      <trkpt lat="49.88329" lon="4.81292">
        <ele>214</ele>
        <time>2021-08-27T07:28:37.000Z</time>
      </trkpt>
      <trkpt lat="49.88332" lon="4.81293">
        <ele>214</ele>
        <time>2021-08-27T07:28:38.000Z</time>
      </trkpt>
      <trkpt lat="49.88335" lon="4.81294">
        <ele>214</ele>
        <time>2021-08-27T07:28:39.000Z</time>
      </trkpt>
      <trkpt lat="49.88338" lon="4.81295">
        <ele>214</ele>
        <time>2021-08-27T07:28:40.000Z</time>
      </trkpt>
      <trkpt lat="49.88341" lon="4.81296">
        <ele>214</ele>
        <time>2021-08-27T07:28:41.000Z</time>
      </trkpt>
      <trkpt lat="49.88344" lon="4.81298">
        <ele>214</ele>
        <time>2021-08-27T07:28:42.000Z</time>
      </trkpt>
      <trkpt lat="49.88347" lon="4.813">
        <ele>215</ele>
        <time>2021-08-27T07:28:43.000Z</time>
      </trkpt>
      <trkpt lat="49.8835" lon="4.81301">
        <ele>215</ele>
        <time>2021-08-27T07:28:44.000Z</time>
      </trkpt>
      <trkpt lat="49.88354" lon="4.81303">
        <ele>215</ele>
        <time>2021-08-27T07:28:45.000Z</time>
      </trkpt>
      <trkpt lat="49.88357" lon="4.81304">
        <ele>215</ele>
        <time>2021-08-27T07:28:46.000Z</time>
      </trkpt>
      <trkpt lat="49.8836" lon="4.81305">
        <ele>215</ele>
        <time>2021-08-27T07:28:47.000Z</time>
      </trkpt>
      <trkpt lat="49.88364" lon="4.81307">
        <ele>216</ele>
        <time>2021-08-27T07:28:48.000Z</time>
      </trkpt>
      <trkpt lat="49.88367" lon="4.81308">
        <ele>216</ele>
        <time>2021-08-27T07:28:49.000Z</time>
      </trkpt>
      <trkpt lat="49.8837" lon="4.81309">
        <ele>216</ele>
        <time>2021-08-27T07:28:50.000Z</time>
      </trkpt>
      <trkpt lat="49.88373" lon="4.8131">
        <ele>216</ele>
        <time>2021-08-27T07:28:51.000Z</time>
      </trkpt>
      <trkpt lat="49.88376" lon="4.81311">
        <ele>216</ele>
        <time>2021-08-27T07:28:52.000Z</time>
      </trkpt>
      <trkpt lat="49.88379" lon="4.81312">
        <ele>217</ele>
        <time>2021-08-27T07:28:53.000Z</time>
      </trkpt>
      <trkpt lat="49.88381" lon="4.81313">
        <ele>217</ele>
        <time>2021-08-27T07:28:54.000Z</time>
      </trkpt>
      <trkpt lat="49.88384" lon="4.81314">
        <ele>217</ele>
        <time>2021-08-27T07:28:55.000Z</time>
      </trkpt>
      <trkpt lat="49.88386" lon="4.81314">
        <ele>217</ele>
        <time>2021-08-27T07:28:56.000Z</time>
      </trkpt>
      <trkpt lat="49.88388" lon="4.81315">
        <ele>218</ele>
        <time>2021-08-27T07:28:57.000Z</time>
      </trkpt>
      <trkpt lat="49.8839" lon="4.81315">
        <ele>218</ele>
        <time>2021-08-27T07:28:58.000Z</time>
      </trkpt>
      <trkpt lat="49.88392" lon="4.81316">
        <ele>218</ele>
        <time>2021-08-27T07:28:59.000Z</time>
      </trkpt>
      <trkpt lat="49.88394" lon="4.81317">
        <ele>218</ele>
        <time>2021-08-27T07:29:00.000Z</time>
      </trkpt>
      <trkpt lat="49.88396" lon="4.81318">
        <ele>218</ele>
        <time>2021-08-27T07:29:01.000Z</time>
      </trkpt>
      <trkpt lat="49.88398" lon="4.81319">
        <ele>219</ele>
        <time>2021-08-27T07:29:02.000Z</time>
      </trkpt>
      <trkpt lat="49.88399" lon="4.8132">
        <ele>219</ele>
        <time>2021-08-27T07:29:03.000Z</time>
      </trkpt>
      <trkpt lat="49.884" lon="4.81321">
        <ele>219</ele>
        <time>2021-08-27T07:29:04.000Z</time>
      </trkpt>
      <trkpt lat="49.88402" lon="4.81321">
        <ele>219</ele>
        <time>2021-08-27T07:29:05.000Z</time>
      </trkpt>
      <trkpt lat="49.88403" lon="4.81323">
        <ele>219</ele>
        <time>2021-08-27T07:29:06.000Z</time>
      </trkpt>
      <trkpt lat="49.88405" lon="4.81324">
        <ele>220</ele>
        <time>2021-08-27T07:29:07.000Z</time>
      </trkpt>
      <trkpt lat="49.88407" lon="4.81324">
        <ele>220</ele>
        <time>2021-08-27T07:29:08.000Z</time>
      </trkpt>
      <trkpt lat="49.88409" lon="4.81325">
        <ele>220</ele>
        <time>2021-08-27T07:29:09.000Z</time>
      </trkpt>
      <trkpt lat="49.8841" lon="4.81326">
        <ele>220</ele>
        <time>2021-08-27T07:29:10.000Z</time>
      </trkpt>
      <trkpt lat="49.88412" lon="4.81327">
        <ele>220</ele>
        <time>2021-08-27T07:29:11.000Z</time>
      </trkpt>
      <trkpt lat="49.88414" lon="4.81328">
        <ele>221</ele>
        <time>2021-08-27T07:29:12.000Z</time>
      </trkpt>
      <trkpt lat="49.88416" lon="4.81329">
        <ele>221</ele>
        <time>2021-08-27T07:29:13.000Z</time>
      </trkpt>
      <trkpt lat="49.88418" lon="4.8133">
        <ele>221</ele>
        <time>2021-08-27T07:29:14.000Z</time>
      </trkpt>
      <trkpt lat="49.88421" lon="4.81332">
        <ele>221</ele>
        <time>2021-08-27T07:29:15.000Z</time>
      </trkpt>
      <trkpt lat="49.88423" lon="4.81333">
        <ele>222</ele>
        <time>2021-08-27T07:29:16.000Z</time>
      </trkpt>
      <trkpt lat="49.88426" lon="4.81335">
        <ele>222</ele>
        <time>2021-08-27T07:29:17.000Z</time>
      </trkpt>
      <trkpt lat="49.88428" lon="4.81337">
        <ele>222</ele>
        <time>2021-08-27T07:29:18.000Z</time>
      </trkpt>
      <trkpt lat="49.8843" lon="4.81338">
        <ele>222</ele>
        <time>2021-08-27T07:29:19.000Z</time>
      </trkpt>
      <trkpt lat="49.88432" lon="4.81339">
        <ele>222</ele>
        <time>2021-08-27T07:29:20.000Z</time>
      </trkpt>
      <trkpt lat="49.88434" lon="4.8134">
        <ele>223</ele>
        <time>2021-08-27T07:29:21.000Z</time>
      </trkpt>
      <trkpt lat="49.88436" lon="4.81342">
        <ele>223</ele>
        <time>2021-08-27T07:29:22.000Z</time>
      </trkpt>
      <trkpt lat="49.88437" lon="4.81344">
        <ele>223</ele>
        <time>2021-08-27T07:29:23.000Z</time>
      </trkpt>
      <trkpt lat="49.88437" lon="4.81346">
        <ele>223</ele>
        <time>2021-08-27T07:29:24.000Z</time>
      </trkpt>
      <trkpt lat="49.88439" lon="4.81348">
        <ele>223</ele>
        <time>2021-08-27T07:29:25.000Z</time>
      </trkpt>
      <trkpt lat="49.8844" lon="4.8135">
        <ele>223</ele>
        <time>2021-08-27T07:29:26.000Z</time>
      </trkpt>
      <trkpt lat="49.88442" lon="4.81352">
        <ele>223</ele>
        <time>2021-08-27T07:29:27.000Z</time>
      </trkpt>
      <trkpt lat="49.88444" lon="4.81355">
        <ele>223</ele>
        <time>2021-08-27T07:29:28.000Z</time>
      </trkpt>
      <trkpt lat="49.88445" lon="4.81358">
        <ele>224</ele>
        <time>2021-08-27T07:29:29.000Z</time>
      </trkpt>
      <trkpt lat="49.88445" lon="4.81361">
        <ele>224</ele>
        <time>2021-08-27T07:29:30.000Z</time>
      </trkpt>
      <trkpt lat="49.88444" lon="4.81365">
        <ele>224</ele>
        <time>2021-08-27T07:29:31.000Z</time>
      </trkpt>
      <trkpt lat="49.88444" lon="4.81368">
        <ele>224</ele>
        <time>2021-08-27T07:29:32.000Z</time>
      </trkpt>
      <trkpt lat="49.88443" lon="4.8137">
        <ele>224</ele>
        <time>2021-08-27T07:29:33.000Z</time>
      </trkpt>
      <trkpt lat="49.88441" lon="4.81372">
        <ele>224</ele>
        <time>2021-08-27T07:29:34.000Z</time>
      </trkpt>
      <trkpt lat="49.8844" lon="4.81375">
        <ele>224</ele>
        <time>2021-08-27T07:29:35.000Z</time>
      </trkpt>
      <trkpt lat="49.88439" lon="4.81377">
        <ele>225</ele>
        <time>2021-08-27T07:29:36.000Z</time>
      </trkpt>
      <trkpt lat="49.88438" lon="4.81379">
        <ele>225</ele>
        <time>2021-08-27T07:29:37.000Z</time>
      </trkpt>
      <trkpt lat="49.88437" lon="4.81381">
        <ele>225</ele>
        <time>2021-08-27T07:29:38.000Z</time>
      </trkpt>
      <trkpt lat="49.88436" lon="4.81383">
        <ele>225</ele>
        <time>2021-08-27T07:29:39.000Z</time>
      </trkpt>
      <trkpt lat="49.88436" lon="4.81385">
        <ele>226</ele>
        <time>2021-08-27T07:29:40.000Z</time>
      </trkpt>
      <trkpt lat="49.88435" lon="4.81387">
        <ele>226</ele>
        <time>2021-08-27T07:29:41.000Z</time>
      </trkpt>
      <trkpt lat="49.88434" lon="4.81389">
        <ele>226</ele>
        <time>2021-08-27T07:29:42.000Z</time>
      </trkpt>
      <trkpt lat="49.88433" lon="4.81391">
        <ele>226</ele>
        <time>2021-08-27T07:29:43.000Z</time>
      </trkpt>
      <trkpt lat="49.88432" lon="4.81393">
        <ele>227</ele>
        <time>2021-08-27T07:29:44.000Z</time>
      </trkpt>
      <trkpt lat="49.88431" lon="4.81394">
        <ele>227</ele>
        <time>2021-08-27T07:29:45.000Z</time>
      </trkpt>
      <trkpt lat="49.8843" lon="4.81396">
        <ele>227</ele>
        <time>2021-08-27T07:29:46.000Z</time>
      </trkpt>
      <trkpt lat="49.88429" lon="4.81398">
        <ele>227</ele>
        <time>2021-08-27T07:29:47.000Z</time>
      </trkpt>
      <trkpt lat="49.88428" lon="4.814">
        <ele>228</ele>
        <time>2021-08-27T07:29:48.000Z</time>
      </trkpt>
      <trkpt lat="49.88426" lon="4.81403">
        <ele>228</ele>
        <time>2021-08-27T07:29:49.000Z</time>
      </trkpt>
      <trkpt lat="49.88425" lon="4.81405">
        <ele>228</ele>
        <time>2021-08-27T07:29:50.000Z</time>
      </trkpt>
      <trkpt lat="49.88425" lon="4.81406">
        <ele>229</ele>
        <time>2021-08-27T07:29:51.000Z</time>
      </trkpt>
      <trkpt lat="49.88424" lon="4.81408">
        <ele>229</ele>
        <time>2021-08-27T07:29:52.000Z</time>
      </trkpt>
      <trkpt lat="49.88423" lon="4.8141">
        <ele>229</ele>
        <time>2021-08-27T07:29:53.000Z</time>
      </trkpt>
      <trkpt lat="49.88422" lon="4.81412">
        <ele>230</ele>
        <time>2021-08-27T07:29:54.000Z</time>
      </trkpt>
      <trkpt lat="49.88421" lon="4.81415">
        <ele>230</ele>
        <time>2021-08-27T07:29:55.000Z</time>
      </trkpt>
      <trkpt lat="49.88419" lon="4.81417">
        <ele>230</ele>
        <time>2021-08-27T07:29:56.000Z</time>
      </trkpt>
      <trkpt lat="49.88418" lon="4.81418">
        <ele>231</ele>
        <time>2021-08-27T07:29:57.000Z</time>
      </trkpt>
      <trkpt lat="49.88417" lon="4.8142">
        <ele>231</ele>
        <time>2021-08-27T07:29:58.000Z</time>
      </trkpt>
      <trkpt lat="49.88416" lon="4.81422">
        <ele>231</ele>
        <time>2021-08-27T07:29:59.000Z</time>
      </trkpt>
      <trkpt lat="49.88416" lon="4.81424">
        <ele>231</ele>
        <time>2021-08-27T07:30:00.000Z</time>
      </trkpt>
      <trkpt lat="49.88415" lon="4.81426">
        <ele>232</ele>
        <time>2021-08-27T07:30:01.000Z</time>
      </trkpt>
      <trkpt lat="49.88414" lon="4.81429">
        <ele>232</ele>
        <time>2021-08-27T07:30:02.000Z</time>
      </trkpt>
      <trkpt lat="49.88413" lon="4.81432">
        <ele>232</ele>
        <time>2021-08-27T07:30:03.000Z</time>
      </trkpt>
      <trkpt lat="49.88411" lon="4.81434">
        <ele>233</ele>
        <time>2021-08-27T07:30:04.000Z</time>
      </trkpt>
      <trkpt lat="49.8841" lon="4.81437">
        <ele>233</ele>
        <time>2021-08-27T07:30:05.000Z</time>
      </trkpt>
      <trkpt lat="49.88408" lon="4.81439">
        <ele>233</ele>
        <time>2021-08-27T07:30:06.000Z</time>
      </trkpt>
      <trkpt lat="49.88407" lon="4.81442">
        <ele>234</ele>
        <time>2021-08-27T07:30:07.000Z</time>
      </trkpt>
      <trkpt lat="49.88405" lon="4.81444">
        <ele>234</ele>
        <time>2021-08-27T07:30:08.000Z</time>
      </trkpt>
      <trkpt lat="49.88404" lon="4.81446">
        <ele>234</ele>
        <time>2021-08-27T07:30:09.000Z</time>
      </trkpt>
      <trkpt lat="49.88402" lon="4.81448">
        <ele>235</ele>
        <time>2021-08-27T07:30:10.000Z</time>
      </trkpt>
      <trkpt lat="49.88401" lon="4.8145">
        <ele>235</ele>
        <time>2021-08-27T07:30:11.000Z</time>
      </trkpt>
      <trkpt lat="49.88399" lon="4.81452">
        <ele>235</ele>
        <time>2021-08-27T07:30:12.000Z</time>
      </trkpt>
      <trkpt lat="49.88398" lon="4.81454">
        <ele>235</ele>
        <time>2021-08-27T07:30:13.000Z</time>
      </trkpt>
      <trkpt lat="49.88396" lon="4.81456">
        <ele>236</ele>
        <time>2021-08-27T07:30:14.000Z</time>
      </trkpt>
      <trkpt lat="49.88395" lon="4.81458">
        <ele>236</ele>
        <time>2021-08-27T07:30:15.000Z</time>
      </trkpt>
      <trkpt lat="49.88394" lon="4.8146">
        <ele>236</ele>
        <time>2021-08-27T07:30:16.000Z</time>
      </trkpt>
      <trkpt lat="49.88392" lon="4.81463">
        <ele>237</ele>
        <time>2021-08-27T07:30:17.000Z</time>
      </trkpt>
      <trkpt lat="49.8839" lon="4.81465">
        <ele>237</ele>
        <time>2021-08-27T07:30:18.000Z</time>
      </trkpt>
      <trkpt lat="49.88388" lon="4.81467">
        <ele>237</ele>
        <time>2021-08-27T07:30:19.000Z</time>
      </trkpt>
      <trkpt lat="49.88386" lon="4.81469">
        <ele>237</ele>
        <time>2021-08-27T07:30:20.000Z</time>
      </trkpt>
      <trkpt lat="49.88384" lon="4.81471">
        <ele>237</ele>
        <time>2021-08-27T07:30:21.000Z</time>
      </trkpt>
      <trkpt lat="49.88381" lon="4.81474">
        <ele>238</ele>
        <time>2021-08-27T07:30:22.000Z</time>
      </trkpt>
      <trkpt lat="49.88379" lon="4.81477">
        <ele>238</ele>
        <time>2021-08-27T07:30:23.000Z</time>
      </trkpt>
      <trkpt lat="49.88377" lon="4.81479">
        <ele>238</ele>
        <time>2021-08-27T07:30:24.000Z</time>
      </trkpt>
      <trkpt lat="49.88375" lon="4.81482">
        <ele>238</ele>
        <time>2021-08-27T07:30:25.000Z</time>
      </trkpt>
      <trkpt lat="49.88373" lon="4.81485">
        <ele>239</ele>
        <time>2021-08-27T07:30:26.000Z</time>
      </trkpt>
      <trkpt lat="49.8837" lon="4.81488">
        <ele>239</ele>
        <time>2021-08-27T07:30:27.000Z</time>
      </trkpt>
      <trkpt lat="49.88369" lon="4.81491">
        <ele>239</ele>
        <time>2021-08-27T07:30:28.000Z</time>
      </trkpt>
      <trkpt lat="49.88367" lon="4.81494">
        <ele>239</ele>
        <time>2021-08-27T07:30:29.000Z</time>
      </trkpt>
      <trkpt lat="49.88365" lon="4.81496">
        <ele>240</ele>
        <time>2021-08-27T07:30:30.000Z</time>
      </trkpt>
      <trkpt lat="49.88363" lon="4.81499">
        <ele>240</ele>
        <time>2021-08-27T07:30:31.000Z</time>
      </trkpt>
      <trkpt lat="49.88361" lon="4.81502">
        <ele>240</ele>
        <time>2021-08-27T07:30:32.000Z</time>
      </trkpt>
      <trkpt lat="49.88359" lon="4.81505">
        <ele>240</ele>
        <time>2021-08-27T07:30:33.000Z</time>
      </trkpt>
      <trkpt lat="49.88357" lon="4.81508">
        <ele>240</ele>
        <time>2021-08-27T07:30:34.000Z</time>
      </trkpt>
      <trkpt lat="49.88354" lon="4.81511">
        <ele>241</ele>
        <time>2021-08-27T07:30:35.000Z</time>
      </trkpt>
      <trkpt lat="49.88352" lon="4.81514">
        <ele>241</ele>
        <time>2021-08-27T07:30:36.000Z</time>
      </trkpt>
      <trkpt lat="49.8835" lon="4.81517">
        <ele>241</ele>
        <time>2021-08-27T07:30:37.000Z</time>
      </trkpt>
      <trkpt lat="49.88348" lon="4.81519">
        <ele>241</ele>
        <time>2021-08-27T07:30:38.000Z</time>
      </trkpt>
      <trkpt lat="49.88346" lon="4.81522">
        <ele>241</ele>
        <time>2021-08-27T07:30:39.000Z</time>
      </trkpt>
      <trkpt lat="49.88343" lon="4.81524">
        <ele>241</ele>
        <time>2021-08-27T07:30:40.000Z</time>
      </trkpt>
      <trkpt lat="49.88341" lon="4.81527">
        <ele>241</ele>
        <time>2021-08-27T07:30:41.000Z</time>
      </trkpt>
      <trkpt lat="49.88338" lon="4.8153">
        <ele>241</ele>
        <time>2021-08-27T07:30:42.000Z</time>
      </trkpt>
      <trkpt lat="49.88336" lon="4.81533">
        <ele>241</ele>
        <time>2021-08-27T07:30:43.000Z</time>
      </trkpt>
      <trkpt lat="49.88334" lon="4.81536">
        <ele>241</ele>
        <time>2021-08-27T07:30:44.000Z</time>
      </trkpt>
      <trkpt lat="49.88331" lon="4.81538">
        <ele>241</ele>
        <time>2021-08-27T07:30:45.000Z</time>
      </trkpt>
      <trkpt lat="49.88329" lon="4.81541">
        <ele>241</ele>
        <time>2021-08-27T07:30:46.000Z</time>
      </trkpt>
      <trkpt lat="49.88327" lon="4.81543">
        <ele>241</ele>
        <time>2021-08-27T07:30:47.000Z</time>
      </trkpt>
      <trkpt lat="49.88325" lon="4.81546">
        <ele>242</ele>
        <time>2021-08-27T07:30:48.000Z</time>
      </trkpt>
      <trkpt lat="49.88322" lon="4.81549">
        <ele>242</ele>
        <time>2021-08-27T07:30:49.000Z</time>
      </trkpt>
      <trkpt lat="49.8832" lon="4.81552">
        <ele>242</ele>
        <time>2021-08-27T07:30:50.000Z</time>
      </trkpt>
      <trkpt lat="49.88318" lon="4.81555">
        <ele>242</ele>
        <time>2021-08-27T07:30:51.000Z</time>
      </trkpt>
      <trkpt lat="49.88316" lon="4.81558">
        <ele>242</ele>
        <time>2021-08-27T07:30:52.000Z</time>
      </trkpt>
      <trkpt lat="49.88314" lon="4.8156">
        <ele>242</ele>
        <time>2021-08-27T07:30:53.000Z</time>
      </trkpt>
      <trkpt lat="49.88312" lon="4.81563">
        <ele>242</ele>
        <time>2021-08-27T07:30:54.000Z</time>
      </trkpt>
      <trkpt lat="49.88309" lon="4.81566">
        <ele>242</ele>
        <time>2021-08-27T07:30:55.000Z</time>
      </trkpt>
      <trkpt lat="49.88307" lon="4.81568">
        <ele>242</ele>
        <time>2021-08-27T07:30:56.000Z</time>
      </trkpt>
      <trkpt lat="49.88305" lon="4.81571">
        <ele>242</ele>
        <time>2021-08-27T07:30:57.000Z</time>
      </trkpt>
      <trkpt lat="49.88303" lon="4.81572">
        <ele>242</ele>
        <time>2021-08-27T07:30:58.000Z</time>
      </trkpt>
      <trkpt lat="49.88301" lon="4.81575">
        <ele>242</ele>
        <time>2021-08-27T07:30:59.000Z</time>
      </trkpt>
      <trkpt lat="49.88299" lon="4.81577">
        <ele>242</ele>
        <time>2021-08-27T07:31:00.000Z</time>
      </trkpt>
      <trkpt lat="49.88297" lon="4.8158">
        <ele>242</ele>
        <time>2021-08-27T07:31:01.000Z</time>
      </trkpt>
      <trkpt lat="49.88295" lon="4.81582">
        <ele>242</ele>
        <time>2021-08-27T07:31:02.000Z</time>
      </trkpt>
      <trkpt lat="49.88292" lon="4.81584">
        <ele>242</ele>
        <time>2021-08-27T07:31:03.000Z</time>
      </trkpt>
      <trkpt lat="49.8829" lon="4.81585">
        <ele>241</ele>
        <time>2021-08-27T07:31:04.000Z</time>
      </trkpt>
      <trkpt lat="49.88287" lon="4.81587">
        <ele>241</ele>
        <time>2021-08-27T07:31:05.000Z</time>
      </trkpt>
      <trkpt lat="49.88285" lon="4.81588">
        <ele>241</ele>
        <time>2021-08-27T07:31:06.000Z</time>
      </trkpt>
      <trkpt lat="49.88282" lon="4.81589">
        <ele>241</ele>
        <time>2021-08-27T07:31:07.000Z</time>
      </trkpt>
      <trkpt lat="49.88279" lon="4.81591">
        <ele>241</ele>
        <time>2021-08-27T07:31:08.000Z</time>
      </trkpt>
      <trkpt lat="49.88277" lon="4.81593">
        <ele>241</ele>
        <time>2021-08-27T07:31:09.000Z</time>
      </trkpt>
      <trkpt lat="49.88274" lon="4.81595">
        <ele>241</ele>
        <time>2021-08-27T07:31:10.000Z</time>
      </trkpt>
      <trkpt lat="49.88271" lon="4.81596">
        <ele>241</ele>
        <time>2021-08-27T07:31:11.000Z</time>
      </trkpt>
      <trkpt lat="49.88269" lon="4.81598">
        <ele>241</ele>
        <time>2021-08-27T07:31:12.000Z</time>
      </trkpt>
      <trkpt lat="49.88266" lon="4.816">
        <ele>241</ele>
        <time>2021-08-27T07:31:13.000Z</time>
      </trkpt>
      <trkpt lat="49.88263" lon="4.81602">
        <ele>241</ele>
        <time>2021-08-27T07:31:14.000Z</time>
      </trkpt>
      <trkpt lat="49.88261" lon="4.81603">
        <ele>241</ele>
        <time>2021-08-27T07:31:15.000Z</time>
      </trkpt>
      <trkpt lat="49.88258" lon="4.81605">
        <ele>241</ele>
        <time>2021-08-27T07:31:16.000Z</time>
      </trkpt>
      <trkpt lat="49.88255" lon="4.81607">
        <ele>241</ele>
        <time>2021-08-27T07:31:17.000Z</time>
      </trkpt>
      <trkpt lat="49.88253" lon="4.81608">
        <ele>241</ele>
        <time>2021-08-27T07:31:18.000Z</time>
      </trkpt>
      <trkpt lat="49.88251" lon="4.81611">
        <ele>241</ele>
        <time>2021-08-27T07:31:19.000Z</time>
      </trkpt>
      <trkpt lat="49.88248" lon="4.81613">
        <ele>241</ele>
        <time>2021-08-27T07:31:20.000Z</time>
      </trkpt>
      <trkpt lat="49.88246" lon="4.81614">
        <ele>241</ele>
        <time>2021-08-27T07:31:21.000Z</time>
      </trkpt>
      <trkpt lat="49.88244" lon="4.81616">
        <ele>241</ele>
        <time>2021-08-27T07:31:22.000Z</time>
      </trkpt>
      <trkpt lat="49.88241" lon="4.81617">
        <ele>241</ele>
        <time>2021-08-27T07:31:23.000Z</time>
      </trkpt>
      <trkpt lat="49.88239" lon="4.81619">
        <ele>241</ele>
        <time>2021-08-27T07:31:24.000Z</time>
      </trkpt>
      <trkpt lat="49.88237" lon="4.8162">
        <ele>241</ele>
        <time>2021-08-27T07:31:25.000Z</time>
      </trkpt>
      <trkpt lat="49.88235" lon="4.81622">
        <ele>241</ele>
        <time>2021-08-27T07:31:26.000Z</time>
      </trkpt>
      <trkpt lat="49.88232" lon="4.81623">
        <ele>241</ele>
        <time>2021-08-27T07:31:27.000Z</time>
      </trkpt>
      <trkpt lat="49.8823" lon="4.81625">
        <ele>242</ele>
        <time>2021-08-27T07:31:28.000Z</time>
      </trkpt>
      <trkpt lat="49.88227" lon="4.81627">
        <ele>242</ele>
        <time>2021-08-27T07:31:29.000Z</time>
      </trkpt>
      <trkpt lat="49.88225" lon="4.81628">
        <ele>242</ele>
        <time>2021-08-27T07:31:30.000Z</time>
      </trkpt>
      <trkpt lat="49.88222" lon="4.8163">
        <ele>242</ele>
        <time>2021-08-27T07:31:31.000Z</time>
      </trkpt>
      <trkpt lat="49.8822" lon="4.81631">
        <ele>242</ele>
        <time>2021-08-27T07:31:32.000Z</time>
      </trkpt>
      <trkpt lat="49.88218" lon="4.81633">
        <ele>242</ele>
        <time>2021-08-27T07:31:33.000Z</time>
      </trkpt>
      <trkpt lat="49.88216" lon="4.81634">
        <ele>243</ele>
        <time>2021-08-27T07:31:34.000Z</time>
      </trkpt>
      <trkpt lat="49.88213" lon="4.81635">
        <ele>243</ele>
        <time>2021-08-27T07:31:35.000Z</time>
      </trkpt>
      <trkpt lat="49.88211" lon="4.81636">
        <ele>243</ele>
        <time>2021-08-27T07:31:36.000Z</time>
      </trkpt>
      <trkpt lat="49.88209" lon="4.81638">
        <ele>243</ele>
        <time>2021-08-27T07:31:37.000Z</time>
      </trkpt>
      <trkpt lat="49.88206" lon="4.81639">
        <ele>243</ele>
        <time>2021-08-27T07:31:38.000Z</time>
      </trkpt>
      <trkpt lat="49.88204" lon="4.8164">
        <ele>243</ele>
        <time>2021-08-27T07:31:39.000Z</time>
      </trkpt>
      <trkpt lat="49.88202" lon="4.81642">
        <ele>244</ele>
        <time>2021-08-27T07:31:40.000Z</time>
      </trkpt>
      <trkpt lat="49.88201" lon="4.81643">
        <ele>244</ele>
        <time>2021-08-27T07:31:41.000Z</time>
      </trkpt>
      <trkpt lat="49.88199" lon="4.81644">
        <ele>244</ele>
        <time>2021-08-27T07:31:42.000Z</time>
      </trkpt>
      <trkpt lat="49.88197" lon="4.81645">
        <ele>244</ele>
        <time>2021-08-27T07:31:43.000Z</time>
      </trkpt>
      <trkpt lat="49.88195" lon="4.81646">
        <ele>244</ele>
        <time>2021-08-27T07:31:44.000Z</time>
      </trkpt>
      <trkpt lat="49.88193" lon="4.81647">
        <ele>244</ele>
        <time>2021-08-27T07:31:45.000Z</time>
      </trkpt>
      <trkpt lat="49.88191" lon="4.81647">
        <ele>244</ele>
        <time>2021-08-27T07:31:46.000Z</time>
      </trkpt>
      <trkpt lat="49.88189" lon="4.81648">
        <ele>244</ele>
        <time>2021-08-27T07:31:47.000Z</time>
      </trkpt>
      <trkpt lat="49.88187" lon="4.8165">
        <ele>244</ele>
        <time>2021-08-27T07:31:48.000Z</time>
      </trkpt>
      <trkpt lat="49.88185" lon="4.81651">
        <ele>244</ele>
        <time>2021-08-27T07:31:49.000Z</time>
      </trkpt>
      <trkpt lat="49.88183" lon="4.81653">
        <ele>244</ele>
        <time>2021-08-27T07:31:50.000Z</time>
      </trkpt>
      <trkpt lat="49.88181" lon="4.81654">
        <ele>244</ele>
        <time>2021-08-27T07:31:51.000Z</time>
      </trkpt>
      <trkpt lat="49.88179" lon="4.81655">
        <ele>244</ele>
        <time>2021-08-27T07:31:52.000Z</time>
      </trkpt>
      <trkpt lat="49.88177" lon="4.81656">
        <ele>244</ele>
        <time>2021-08-27T07:31:53.000Z</time>
      </trkpt>
      <trkpt lat="49.88176" lon="4.81658">
        <ele>244</ele>
        <time>2021-08-27T07:31:54.000Z</time>
      </trkpt>
      <trkpt lat="49.88174" lon="4.81659">
        <ele>244</ele>
        <time>2021-08-27T07:31:55.000Z</time>
      </trkpt>
      <trkpt lat="49.88172" lon="4.81661">
        <ele>245</ele>
        <time>2021-08-27T07:31:56.000Z</time>
      </trkpt>
      <trkpt lat="49.8817" lon="4.81662">
        <ele>245</ele>
        <time>2021-08-27T07:31:57.000Z</time>
      </trkpt>
      <trkpt lat="49.88168" lon="4.81664">
        <ele>245</ele>
        <time>2021-08-27T07:31:58.000Z</time>
      </trkpt>
      <trkpt lat="49.88167" lon="4.81665">
        <ele>245</ele>
        <time>2021-08-27T07:31:59.000Z</time>
      </trkpt>
      <trkpt lat="49.88165" lon="4.81667">
        <ele>245</ele>
        <time>2021-08-27T07:32:00.000Z</time>
      </trkpt>
      <trkpt lat="49.88164" lon="4.81669">
        <ele>245</ele>
        <time>2021-08-27T07:32:01.000Z</time>
      </trkpt>
      <trkpt lat="49.88162" lon="4.8167">
        <ele>246</ele>
        <time>2021-08-27T07:32:02.000Z</time>
      </trkpt>
      <trkpt lat="49.8816" lon="4.81672">
        <ele>246</ele>
        <time>2021-08-27T07:32:03.000Z</time>
      </trkpt>
      <trkpt lat="49.88158" lon="4.81674">
        <ele>246</ele>
        <time>2021-08-27T07:32:04.000Z</time>
      </trkpt>
      <trkpt lat="49.88156" lon="4.81676">
        <ele>246</ele>
        <time>2021-08-27T07:32:05.000Z</time>
      </trkpt>
      <trkpt lat="49.88154" lon="4.81677">
        <ele>246</ele>
        <time>2021-08-27T07:32:06.000Z</time>
      </trkpt>
      <trkpt lat="49.88152" lon="4.81679">
        <ele>246</ele>
        <time>2021-08-27T07:32:07.000Z</time>
      </trkpt>
      <trkpt lat="49.88151" lon="4.81681">
        <ele>246</ele>
        <time>2021-08-27T07:32:08.000Z</time>
      </trkpt>
      <trkpt lat="49.88148" lon="4.81682">
        <ele>246</ele>
        <time>2021-08-27T07:32:09.000Z</time>
      </trkpt>
      <trkpt lat="49.88146" lon="4.81682">
        <ele>247</ele>
        <time>2021-08-27T07:32:10.000Z</time>
      </trkpt>
      <trkpt lat="49.88144" lon="4.81683">
        <ele>247</ele>
        <time>2021-08-27T07:32:11.000Z</time>
      </trkpt>
      <trkpt lat="49.88142" lon="4.81684">
        <ele>247</ele>
        <time>2021-08-27T07:32:12.000Z</time>
      </trkpt>
      <trkpt lat="49.88139" lon="4.81685">
        <ele>247</ele>
        <time>2021-08-27T07:32:13.000Z</time>
      </trkpt>
      <trkpt lat="49.88137" lon="4.81685">
        <ele>247</ele>
        <time>2021-08-27T07:32:14.000Z</time>
      </trkpt>
      <trkpt lat="49.88134" lon="4.81685">
        <ele>247</ele>
        <time>2021-08-27T07:32:15.000Z</time>
      </trkpt>
      <trkpt lat="49.88132" lon="4.81686">
        <ele>248</ele>
        <time>2021-08-27T07:32:16.000Z</time>
      </trkpt>
      <trkpt lat="49.88129" lon="4.81687">
        <ele>248</ele>
        <time>2021-08-27T07:32:17.000Z</time>
      </trkpt>
      <trkpt lat="49.88127" lon="4.81688">
        <ele>248</ele>
        <time>2021-08-27T07:32:18.000Z</time>
      </trkpt>
      <trkpt lat="49.88124" lon="4.81691">
        <ele>248</ele>
        <time>2021-08-27T07:32:19.000Z</time>
      </trkpt>
      <trkpt lat="49.88121" lon="4.81692">
        <ele>248</ele>
        <time>2021-08-27T07:32:20.000Z</time>
      </trkpt>
      <trkpt lat="49.88119" lon="4.81694">
        <ele>248</ele>
        <time>2021-08-27T07:32:21.000Z</time>
      </trkpt>
      <trkpt lat="49.88117" lon="4.81696">
        <ele>248</ele>
        <time>2021-08-27T07:32:22.000Z</time>
      </trkpt>
      <trkpt lat="49.88114" lon="4.81697">
        <ele>248</ele>
        <time>2021-08-27T07:32:23.000Z</time>
      </trkpt>
      <trkpt lat="49.88112" lon="4.81698">
        <ele>249</ele>
        <time>2021-08-27T07:32:24.000Z</time>
      </trkpt>
      <trkpt lat="49.88111" lon="4.81699">
        <ele>249</ele>
        <time>2021-08-27T07:32:25.000Z</time>
      </trkpt>
      <trkpt lat="49.88108" lon="4.81701">
        <ele>249</ele>
        <time>2021-08-27T07:32:26.000Z</time>
      </trkpt>
      <trkpt lat="49.88106" lon="4.81703">
        <ele>249</ele>
        <time>2021-08-27T07:32:27.000Z</time>
      </trkpt>
      <trkpt lat="49.88103" lon="4.81706">
        <ele>249</ele>
        <time>2021-08-27T07:32:28.000Z</time>
      </trkpt>
      <trkpt lat="49.881" lon="4.81708">
        <ele>249</ele>
        <time>2021-08-27T07:32:29.000Z</time>
      </trkpt>
      <trkpt lat="49.88097" lon="4.8171">
        <ele>249</ele>
        <time>2021-08-27T07:32:30.000Z</time>
      </trkpt>
      <trkpt lat="49.88093" lon="4.81713">
        <ele>249</ele>
        <time>2021-08-27T07:32:31.000Z</time>
      </trkpt>
      <trkpt lat="49.88089" lon="4.81716">
        <ele>249</ele>
        <time>2021-08-27T07:32:32.000Z</time>
      </trkpt>
      <trkpt lat="49.88085" lon="4.81719">
        <ele>249</ele>
        <time>2021-08-27T07:32:33.000Z</time>
      </trkpt>
      <trkpt lat="49.88081" lon="4.81722">
        <ele>249</ele>
        <time>2021-08-27T07:32:34.000Z</time>
      </trkpt>
      <trkpt lat="49.88077" lon="4.81725">
        <ele>249</ele>
        <time>2021-08-27T07:32:35.000Z</time>
      </trkpt>
      <trkpt lat="49.88073" lon="4.81728">
        <ele>249</ele>
        <time>2021-08-27T07:32:36.000Z</time>
      </trkpt>
      <trkpt lat="49.88069" lon="4.81731">
        <ele>249</ele>
        <time>2021-08-27T07:32:37.000Z</time>
      </trkpt>
      <trkpt lat="49.88065" lon="4.81733">
        <ele>249</ele>
        <time>2021-08-27T07:32:38.000Z</time>
      </trkpt>
      <trkpt lat="49.88062" lon="4.81735">
        <ele>249</ele>
        <time>2021-08-27T07:32:39.000Z</time>
      </trkpt>
      <trkpt lat="49.88059" lon="4.81737">
        <ele>249</ele>
        <time>2021-08-27T07:32:40.000Z</time>
      </trkpt>
      <trkpt lat="49.88057" lon="4.81738">
        <ele>249</ele>
        <time>2021-08-27T07:32:41.000Z</time>
      </trkpt>
      <trkpt lat="49.88054" lon="4.8174">
        <ele>249</ele>
        <time>2021-08-27T07:32:42.000Z</time>
      </trkpt>
      <trkpt lat="49.88051" lon="4.81742">
        <ele>250</ele>
        <time>2021-08-27T07:32:43.000Z</time>
      </trkpt>
      <trkpt lat="49.88048" lon="4.81744">
        <ele>250</ele>
        <time>2021-08-27T07:32:44.000Z</time>
      </trkpt>
      <trkpt lat="49.88045" lon="4.81746">
        <ele>250</ele>
        <time>2021-08-27T07:32:45.000Z</time>
      </trkpt>
      <trkpt lat="49.88042" lon="4.81748">
        <ele>250</ele>
        <time>2021-08-27T07:32:46.000Z</time>
      </trkpt>
      <trkpt lat="49.8804" lon="4.81749">
        <ele>250</ele>
        <time>2021-08-27T07:32:47.000Z</time>
      </trkpt>
      <trkpt lat="49.88037" lon="4.81752">
        <ele>250</ele>
        <time>2021-08-27T07:32:48.000Z</time>
      </trkpt>
      <trkpt lat="49.88035" lon="4.81754">
        <ele>250</ele>
        <time>2021-08-27T07:32:49.000Z</time>
      </trkpt>
      <trkpt lat="49.88032" lon="4.81756">
        <ele>250</ele>
        <time>2021-08-27T07:32:50.000Z</time>
      </trkpt>
      <trkpt lat="49.8803" lon="4.81758">
        <ele>250</ele>
        <time>2021-08-27T07:32:51.000Z</time>
      </trkpt>
      <trkpt lat="49.88027" lon="4.81761">
        <ele>250</ele>
        <time>2021-08-27T07:32:52.000Z</time>
      </trkpt>
      <trkpt lat="49.88025" lon="4.81763">
        <ele>250</ele>
        <time>2021-08-27T07:32:53.000Z</time>
      </trkpt>
      <trkpt lat="49.88022" lon="4.81765">
        <ele>250</ele>
        <time>2021-08-27T07:32:54.000Z</time>
      </trkpt>
      <trkpt lat="49.8802" lon="4.81767">
        <ele>251</ele>
        <time>2021-08-27T07:32:55.000Z</time>
      </trkpt>
      <trkpt lat="49.88018" lon="4.81769">
        <ele>251</ele>
        <time>2021-08-27T07:32:56.000Z</time>
      </trkpt>
      <trkpt lat="49.88016" lon="4.81771">
        <ele>251</ele>
        <time>2021-08-27T07:32:57.000Z</time>
      </trkpt>
      <trkpt lat="49.88014" lon="4.81773">
        <ele>251</ele>
        <time>2021-08-27T07:32:58.000Z</time>
      </trkpt>
      <trkpt lat="49.88012" lon="4.81776">
        <ele>251</ele>
        <time>2021-08-27T07:32:59.000Z</time>
      </trkpt>
      <trkpt lat="49.8801" lon="4.81777">
        <ele>251</ele>
        <time>2021-08-27T07:33:00.000Z</time>
      </trkpt>
      <trkpt lat="49.88008" lon="4.81779">
        <ele>252</ele>
        <time>2021-08-27T07:33:01.000Z</time>
      </trkpt>
      <trkpt lat="49.88006" lon="4.81781">
        <ele>252</ele>
        <time>2021-08-27T07:33:02.000Z</time>
      </trkpt>
      <trkpt lat="49.88004" lon="4.81783">
        <ele>252</ele>
        <time>2021-08-27T07:33:03.000Z</time>
      </trkpt>
      <trkpt lat="49.88002" lon="4.81784">
        <ele>252</ele>
        <time>2021-08-27T07:33:04.000Z</time>
      </trkpt>
      <trkpt lat="49.88" lon="4.81786">
        <ele>252</ele>
        <time>2021-08-27T07:33:05.000Z</time>
      </trkpt>
      <trkpt lat="49.87998" lon="4.81787">
        <ele>252</ele>
        <time>2021-08-27T07:33:06.000Z</time>
      </trkpt>
      <trkpt lat="49.87996" lon="4.81789">
        <ele>252</ele>
        <time>2021-08-27T07:33:07.000Z</time>
      </trkpt>
      <trkpt lat="49.87994" lon="4.8179">
        <ele>253</ele>
        <time>2021-08-27T07:33:08.000Z</time>
      </trkpt>
      <trkpt lat="49.87993" lon="4.81792">
        <ele>253</ele>
        <time>2021-08-27T07:33:09.000Z</time>
      </trkpt>
      <trkpt lat="49.87991" lon="4.81793">
        <ele>253</ele>
        <time>2021-08-27T07:33:10.000Z</time>
      </trkpt>
      <trkpt lat="49.87989" lon="4.81794">
        <ele>253</ele>
        <time>2021-08-27T07:33:11.000Z</time>
      </trkpt>
      <trkpt lat="49.87987" lon="4.81796">
        <ele>253</ele>
        <time>2021-08-27T07:33:12.000Z</time>
      </trkpt>
      <trkpt lat="49.87985" lon="4.81797">
        <ele>253</ele>
        <time>2021-08-27T07:33:13.000Z</time>
      </trkpt>
      <trkpt lat="49.87983" lon="4.81798">
        <ele>253</ele>
        <time>2021-08-27T07:33:14.000Z</time>
      </trkpt>
      <trkpt lat="49.87981" lon="4.818">
        <ele>253</ele>
        <time>2021-08-27T07:33:15.000Z</time>
      </trkpt>
      <trkpt lat="49.87979" lon="4.81802">
        <ele>253</ele>
        <time>2021-08-27T07:33:16.000Z</time>
      </trkpt>
      <trkpt lat="49.87978" lon="4.81804">
        <ele>254</ele>
        <time>2021-08-27T07:33:17.000Z</time>
      </trkpt>
      <trkpt lat="49.87976" lon="4.81806">
        <ele>254</ele>
        <time>2021-08-27T07:33:18.000Z</time>
      </trkpt>
      <trkpt lat="49.87974" lon="4.81807">
        <ele>254</ele>
        <time>2021-08-27T07:33:19.000Z</time>
      </trkpt>
      <trkpt lat="49.87972" lon="4.81809">
        <ele>254</ele>
        <time>2021-08-27T07:33:20.000Z</time>
      </trkpt>
      <trkpt lat="49.8797" lon="4.8181">
        <ele>254</ele>
        <time>2021-08-27T07:33:21.000Z</time>
      </trkpt>
      <trkpt lat="49.87968" lon="4.81812">
        <ele>255</ele>
        <time>2021-08-27T07:33:22.000Z</time>
      </trkpt>
      <trkpt lat="49.87966" lon="4.81814">
        <ele>255</ele>
        <time>2021-08-27T07:33:23.000Z</time>
      </trkpt>
      <trkpt lat="49.87964" lon="4.81816">
        <ele>255</ele>
        <time>2021-08-27T07:33:24.000Z</time>
      </trkpt>
      <trkpt lat="49.87962" lon="4.81818">
        <ele>255</ele>
        <time>2021-08-27T07:33:25.000Z</time>
      </trkpt>
      <trkpt lat="49.8796" lon="4.8182">
        <ele>255</ele>
        <time>2021-08-27T07:33:26.000Z</time>
      </trkpt>
      <trkpt lat="49.87958" lon="4.81822">
        <ele>256</ele>
        <time>2021-08-27T07:33:27.000Z</time>
      </trkpt>
      <trkpt lat="49.87956" lon="4.81825">
        <ele>256</ele>
        <time>2021-08-27T07:33:28.000Z</time>
      </trkpt>
      <trkpt lat="49.87954" lon="4.81827">
        <ele>256</ele>
        <time>2021-08-27T07:33:29.000Z</time>
      </trkpt>
      <trkpt lat="49.87952" lon="4.81828">
        <ele>256</ele>
        <time>2021-08-27T07:33:30.000Z</time>
      </trkpt>
      <trkpt lat="49.8795" lon="4.8183">
        <ele>256</ele>
        <time>2021-08-27T07:33:31.000Z</time>
      </trkpt>
      <trkpt lat="49.87948" lon="4.81833">
        <ele>257</ele>
        <time>2021-08-27T07:33:32.000Z</time>
      </trkpt>
      <trkpt lat="49.87946" lon="4.81835">
        <ele>257</ele>
        <time>2021-08-27T07:33:33.000Z</time>
      </trkpt>
      <trkpt lat="49.87944" lon="4.81837">
        <ele>257</ele>
        <time>2021-08-27T07:33:34.000Z</time>
      </trkpt>
      <trkpt lat="49.87942" lon="4.81839">
        <ele>257</ele>
        <time>2021-08-27T07:33:35.000Z</time>
      </trkpt>
      <trkpt lat="49.8794" lon="4.81841">
        <ele>258</ele>
        <time>2021-08-27T07:33:36.000Z</time>
      </trkpt>
      <trkpt lat="49.87938" lon="4.81843">
        <ele>258</ele>
        <time>2021-08-27T07:33:37.000Z</time>
      </trkpt>
      <trkpt lat="49.87937" lon="4.81845">
        <ele>258</ele>
        <time>2021-08-27T07:33:38.000Z</time>
      </trkpt>
      <trkpt lat="49.87935" lon="4.81847">
        <ele>258</ele>
        <time>2021-08-27T07:33:39.000Z</time>
      </trkpt>
      <trkpt lat="49.87933" lon="4.81849">
        <ele>258</ele>
        <time>2021-08-27T07:33:40.000Z</time>
      </trkpt>
      <trkpt lat="49.87932" lon="4.81851">
        <ele>258</ele>
        <time>2021-08-27T07:33:41.000Z</time>
      </trkpt>
      <trkpt lat="49.8793" lon="4.81853">
        <ele>259</ele>
        <time>2021-08-27T07:33:42.000Z</time>
      </trkpt>
      <trkpt lat="49.87928" lon="4.81855">
        <ele>259</ele>
        <time>2021-08-27T07:33:43.000Z</time>
      </trkpt>
      <trkpt lat="49.87927" lon="4.81857">
        <ele>259</ele>
        <time>2021-08-27T07:33:44.000Z</time>
      </trkpt>
      <trkpt lat="49.87925" lon="4.81859">
        <ele>259</ele>
        <time>2021-08-27T07:33:45.000Z</time>
      </trkpt>
      <trkpt lat="49.87923" lon="4.81862">
        <ele>260</ele>
        <time>2021-08-27T07:33:46.000Z</time>
      </trkpt>
      <trkpt lat="49.87921" lon="4.81864">
        <ele>260</ele>
        <time>2021-08-27T07:33:47.000Z</time>
      </trkpt>
      <trkpt lat="49.8792" lon="4.81866">
        <ele>260</ele>
        <time>2021-08-27T07:33:48.000Z</time>
      </trkpt>
      <trkpt lat="49.87918" lon="4.81869">
        <ele>261</ele>
        <time>2021-08-27T07:33:49.000Z</time>
      </trkpt>
      <trkpt lat="49.87916" lon="4.81871">
        <ele>261</ele>
        <time>2021-08-27T07:33:50.000Z</time>
      </trkpt>
      <trkpt lat="49.87914" lon="4.81873">
        <ele>261</ele>
        <time>2021-08-27T07:33:51.000Z</time>
      </trkpt>
      <trkpt lat="49.87913" lon="4.81876">
        <ele>262</ele>
        <time>2021-08-27T07:33:52.000Z</time>
      </trkpt>
      <trkpt lat="49.87911" lon="4.81879">
        <ele>262</ele>
        <time>2021-08-27T07:33:53.000Z</time>
      </trkpt>
      <trkpt lat="49.87909" lon="4.81881">
        <ele>262</ele>
        <time>2021-08-27T07:33:54.000Z</time>
      </trkpt>
      <trkpt lat="49.87907" lon="4.81883">
        <ele>262</ele>
        <time>2021-08-27T07:33:55.000Z</time>
      </trkpt>
      <trkpt lat="49.87905" lon="4.81885">
        <ele>263</ele>
        <time>2021-08-27T07:33:56.000Z</time>
      </trkpt>
      <trkpt lat="49.87904" lon="4.81887">
        <ele>263</ele>
        <time>2021-08-27T07:33:57.000Z</time>
      </trkpt>
      <trkpt lat="49.87902" lon="4.81889">
        <ele>263</ele>
        <time>2021-08-27T07:33:58.000Z</time>
      </trkpt>
      <trkpt lat="49.879" lon="4.81892">
        <ele>263</ele>
        <time>2021-08-27T07:33:59.000Z</time>
      </trkpt>
      <trkpt lat="49.87898" lon="4.81894">
        <ele>264</ele>
        <time>2021-08-27T07:34:00.000Z</time>
      </trkpt>
      <trkpt lat="49.87896" lon="4.81896">
        <ele>264</ele>
        <time>2021-08-27T07:34:01.000Z</time>
      </trkpt>
      <trkpt lat="49.87895" lon="4.81898">
        <ele>264</ele>
        <time>2021-08-27T07:34:02.000Z</time>
      </trkpt>
      <trkpt lat="49.87893" lon="4.819">
        <ele>264</ele>
        <time>2021-08-27T07:34:03.000Z</time>
      </trkpt>
      <trkpt lat="49.87891" lon="4.81902">
        <ele>265</ele>
        <time>2021-08-27T07:34:04.000Z</time>
      </trkpt>
      <trkpt lat="49.87889" lon="4.81905">
        <ele>265</ele>
        <time>2021-08-27T07:34:05.000Z</time>
      </trkpt>
      <trkpt lat="49.87887" lon="4.81906">
        <ele>265</ele>
        <time>2021-08-27T07:34:06.000Z</time>
      </trkpt>
      <trkpt lat="49.87886" lon="4.81908">
        <ele>266</ele>
        <time>2021-08-27T07:34:07.000Z</time>
      </trkpt>
      <trkpt lat="49.87884" lon="4.81911">
        <ele>266</ele>
        <time>2021-08-27T07:34:08.000Z</time>
      </trkpt>
      <trkpt lat="49.87882" lon="4.81913">
        <ele>266</ele>
        <time>2021-08-27T07:34:09.000Z</time>
      </trkpt>
      <trkpt lat="49.87881" lon="4.81915">
        <ele>267</ele>
        <time>2021-08-27T07:34:10.000Z</time>
      </trkpt>
      <trkpt lat="49.87879" lon="4.81918">
        <ele>267</ele>
        <time>2021-08-27T07:34:11.000Z</time>
      </trkpt>
      <trkpt lat="49.87877" lon="4.8192">
        <ele>267</ele>
        <time>2021-08-27T07:34:12.000Z</time>
      </trkpt>
      <trkpt lat="49.87876" lon="4.81922">
        <ele>268</ele>
        <time>2021-08-27T07:34:13.000Z</time>
      </trkpt>
      <trkpt lat="49.87874" lon="4.81923">
        <ele>268</ele>
        <time>2021-08-27T07:34:14.000Z</time>
      </trkpt>
      <trkpt lat="49.87873" lon="4.81925">
        <ele>268</ele>
        <time>2021-08-27T07:34:15.000Z</time>
      </trkpt>
      <trkpt lat="49.87871" lon="4.81927">
        <ele>268</ele>
        <time>2021-08-27T07:34:16.000Z</time>
      </trkpt>
      <trkpt lat="49.87869" lon="4.81928">
        <ele>268</ele>
        <time>2021-08-27T07:34:17.000Z</time>
      </trkpt>
      <trkpt lat="49.87868" lon="4.8193">
        <ele>269</ele>
        <time>2021-08-27T07:34:18.000Z</time>
      </trkpt>
      <trkpt lat="49.87866" lon="4.81932">
        <ele>269</ele>
        <time>2021-08-27T07:34:19.000Z</time>
      </trkpt>
      <trkpt lat="49.87864" lon="4.81934">
        <ele>269</ele>
        <time>2021-08-27T07:34:20.000Z</time>
      </trkpt>
      <trkpt lat="49.87862" lon="4.81935">
        <ele>269</ele>
        <time>2021-08-27T07:34:21.000Z</time>
      </trkpt>
      <trkpt lat="49.87861" lon="4.81937">
        <ele>270</ele>
        <time>2021-08-27T07:34:22.000Z</time>
      </trkpt>
      <trkpt lat="49.87859" lon="4.8194">
        <ele>270</ele>
        <time>2021-08-27T07:34:23.000Z</time>
      </trkpt>
      <trkpt lat="49.87857" lon="4.81942">
        <ele>270</ele>
        <time>2021-08-27T07:34:24.000Z</time>
      </trkpt>
      <trkpt lat="49.87856" lon="4.81944">
        <ele>270</ele>
        <time>2021-08-27T07:34:25.000Z</time>
      </trkpt>
      <trkpt lat="49.87854" lon="4.81946">
        <ele>270</ele>
        <time>2021-08-27T07:34:26.000Z</time>
      </trkpt>
      <trkpt lat="49.87853" lon="4.81948">
        <ele>270</ele>
        <time>2021-08-27T07:34:27.000Z</time>
      </trkpt>
      <trkpt lat="49.87851" lon="4.8195">
        <ele>270</ele>
        <time>2021-08-27T07:34:28.000Z</time>
      </trkpt>
      <trkpt lat="49.8785" lon="4.81952">
        <ele>270</ele>
        <time>2021-08-27T07:34:29.000Z</time>
      </trkpt>
      <trkpt lat="49.87848" lon="4.81954">
        <ele>271</ele>
        <time>2021-08-27T07:34:30.000Z</time>
      </trkpt>
      <trkpt lat="49.87847" lon="4.81956">
        <ele>271</ele>
        <time>2021-08-27T07:34:31.000Z</time>
      </trkpt>
      <trkpt lat="49.87845" lon="4.81958">
        <ele>271</ele>
        <time>2021-08-27T07:34:32.000Z</time>
      </trkpt>
      <trkpt lat="49.87844" lon="4.81961">
        <ele>271</ele>
        <time>2021-08-27T07:34:33.000Z</time>
      </trkpt>
      <trkpt lat="49.87842" lon="4.81963">
        <ele>271</ele>
        <time>2021-08-27T07:34:34.000Z</time>
      </trkpt>
      <trkpt lat="49.8784" lon="4.81966">
        <ele>272</ele>
        <time>2021-08-27T07:34:35.000Z</time>
      </trkpt>
      <trkpt lat="49.87838" lon="4.81968">
        <ele>272</ele>
        <time>2021-08-27T07:34:36.000Z</time>
      </trkpt>
      <trkpt lat="49.87837" lon="4.81971">
        <ele>272</ele>
        <time>2021-08-27T07:34:37.000Z</time>
      </trkpt>
      <trkpt lat="49.87835" lon="4.81974">
        <ele>272</ele>
        <time>2021-08-27T07:34:38.000Z</time>
      </trkpt>
      <trkpt lat="49.87833" lon="4.81976">
        <ele>272</ele>
        <time>2021-08-27T07:34:39.000Z</time>
      </trkpt>
      <trkpt lat="49.87831" lon="4.81979">
        <ele>273</ele>
        <time>2021-08-27T07:34:40.000Z</time>
      </trkpt>
      <trkpt lat="49.87829" lon="4.81982">
        <ele>273</ele>
        <time>2021-08-27T07:34:41.000Z</time>
      </trkpt>
      <trkpt lat="49.87828" lon="4.81985">
        <ele>273</ele>
        <time>2021-08-27T07:34:42.000Z</time>
      </trkpt>
      <trkpt lat="49.87826" lon="4.81987">
        <ele>273</ele>
        <time>2021-08-27T07:34:43.000Z</time>
      </trkpt>
      <trkpt lat="49.87824" lon="4.8199">
        <ele>274</ele>
        <time>2021-08-27T07:34:44.000Z</time>
      </trkpt>
      <trkpt lat="49.87823" lon="4.81992">
        <ele>274</ele>
        <time>2021-08-27T07:34:45.000Z</time>
      </trkpt>
      <trkpt lat="49.87821" lon="4.81995">
        <ele>274</ele>
        <time>2021-08-27T07:34:46.000Z</time>
      </trkpt>
      <trkpt lat="49.87819" lon="4.81997">
        <ele>274</ele>
        <time>2021-08-27T07:34:47.000Z</time>
      </trkpt>
      <trkpt lat="49.87817" lon="4.81999">
        <ele>275</ele>
        <time>2021-08-27T07:34:48.000Z</time>
      </trkpt>
      <trkpt lat="49.87815" lon="4.82001">
        <ele>275</ele>
        <time>2021-08-27T07:34:49.000Z</time>
      </trkpt>
      <trkpt lat="49.87813" lon="4.82004">
        <ele>275</ele>
        <time>2021-08-27T07:34:50.000Z</time>
      </trkpt>
      <trkpt lat="49.87811" lon="4.82006">
        <ele>276</ele>
        <time>2021-08-27T07:34:51.000Z</time>
      </trkpt>
      <trkpt lat="49.8781" lon="4.82008">
        <ele>276</ele>
        <time>2021-08-27T07:34:52.000Z</time>
      </trkpt>
      <trkpt lat="49.87808" lon="4.8201">
        <ele>276</ele>
        <time>2021-08-27T07:34:53.000Z</time>
      </trkpt>
      <trkpt lat="49.87806" lon="4.82013">
        <ele>276</ele>
        <time>2021-08-27T07:34:54.000Z</time>
      </trkpt>
      <trkpt lat="49.87805" lon="4.82015">
        <ele>277</ele>
        <time>2021-08-27T07:34:55.000Z</time>
      </trkpt>
      <trkpt lat="49.87803" lon="4.82018">
        <ele>277</ele>
        <time>2021-08-27T07:34:56.000Z</time>
      </trkpt>
      <trkpt lat="49.87801" lon="4.8202">
        <ele>277</ele>
        <time>2021-08-27T07:34:57.000Z</time>
      </trkpt>
      <trkpt lat="49.87799" lon="4.82023">
        <ele>277</ele>
        <time>2021-08-27T07:34:58.000Z</time>
      </trkpt>
      <trkpt lat="49.87798" lon="4.82026">
        <ele>277</ele>
        <time>2021-08-27T07:34:59.000Z</time>
      </trkpt>
      <trkpt lat="49.87796" lon="4.82028">
        <ele>277</ele>
        <time>2021-08-27T07:35:00.000Z</time>
      </trkpt>
      <trkpt lat="49.87794" lon="4.82031">
        <ele>277</ele>
        <time>2021-08-27T07:35:01.000Z</time>
      </trkpt>
      <trkpt lat="49.87793" lon="4.82033">
        <ele>278</ele>
        <time>2021-08-27T07:35:02.000Z</time>
      </trkpt>
      <trkpt lat="49.87791" lon="4.82036">
        <ele>278</ele>
        <time>2021-08-27T07:35:03.000Z</time>
      </trkpt>
      <trkpt lat="49.87789" lon="4.82038">
        <ele>278</ele>
        <time>2021-08-27T07:35:04.000Z</time>
      </trkpt>
      <trkpt lat="49.87787" lon="4.82041">
        <ele>278</ele>
        <time>2021-08-27T07:35:05.000Z</time>
      </trkpt>
      <trkpt lat="49.87785" lon="4.82043">
        <ele>278</ele>
        <time>2021-08-27T07:35:06.000Z</time>
      </trkpt>
      <trkpt lat="49.87784" lon="4.82046">
        <ele>279</ele>
        <time>2021-08-27T07:35:07.000Z</time>
      </trkpt>
      <trkpt lat="49.87782" lon="4.82049">
        <ele>279</ele>
        <time>2021-08-27T07:35:08.000Z</time>
      </trkpt>
      <trkpt lat="49.8778" lon="4.82051">
        <ele>279</ele>
        <time>2021-08-27T07:35:09.000Z</time>
      </trkpt>
      <trkpt lat="49.87778" lon="4.82054">
        <ele>279</ele>
        <time>2021-08-27T07:35:10.000Z</time>
      </trkpt>
      <trkpt lat="49.87777" lon="4.82056">
        <ele>280</ele>
        <time>2021-08-27T07:35:11.000Z</time>
      </trkpt>
      <trkpt lat="49.87775" lon="4.82059">
        <ele>280</ele>
        <time>2021-08-27T07:35:12.000Z</time>
      </trkpt>
      <trkpt lat="49.87773" lon="4.82062">
        <ele>280</ele>
        <time>2021-08-27T07:35:13.000Z</time>
      </trkpt>
      <trkpt lat="49.87771" lon="4.82065">
        <ele>280</ele>
        <time>2021-08-27T07:35:14.000Z</time>
      </trkpt>
      <trkpt lat="49.87769" lon="4.82068">
        <ele>281</ele>
        <time>2021-08-27T07:35:15.000Z</time>
      </trkpt>
      <trkpt lat="49.87767" lon="4.8207">
        <ele>281</ele>
        <time>2021-08-27T07:35:16.000Z</time>
      </trkpt>
      <trkpt lat="49.87765" lon="4.82073">
        <ele>281</ele>
        <time>2021-08-27T07:35:17.000Z</time>
      </trkpt>
      <trkpt lat="49.87763" lon="4.82076">
        <ele>281</ele>
        <time>2021-08-27T07:35:18.000Z</time>
      </trkpt>
      <trkpt lat="49.87761" lon="4.82079">
        <ele>281</ele>
        <time>2021-08-27T07:35:19.000Z</time>
      </trkpt>
      <trkpt lat="49.87759" lon="4.82082">
        <ele>282</ele>
        <time>2021-08-27T07:35:20.000Z</time>
      </trkpt>
      <trkpt lat="49.87757" lon="4.82085">
        <ele>282</ele>
        <time>2021-08-27T07:35:21.000Z</time>
      </trkpt>
      <trkpt lat="49.87755" lon="4.82088">
        <ele>282</ele>
        <time>2021-08-27T07:35:22.000Z</time>
      </trkpt>
      <trkpt lat="49.87752" lon="4.82091">
        <ele>283</ele>
        <time>2021-08-27T07:35:23.000Z</time>
      </trkpt>
      <trkpt lat="49.8775" lon="4.82093">
        <ele>283</ele>
        <time>2021-08-27T07:35:24.000Z</time>
      </trkpt>
      <trkpt lat="49.87748" lon="4.82096">
        <ele>283</ele>
        <time>2021-08-27T07:35:25.000Z</time>
      </trkpt>
      <trkpt lat="49.87746" lon="4.82098">
        <ele>283</ele>
        <time>2021-08-27T07:35:26.000Z</time>
      </trkpt>
      <trkpt lat="49.87744" lon="4.82101">
        <ele>284</ele>
        <time>2021-08-27T07:35:27.000Z</time>
      </trkpt>
      <trkpt lat="49.87742" lon="4.82103">
        <ele>284</ele>
        <time>2021-08-27T07:35:28.000Z</time>
      </trkpt>
      <trkpt lat="49.87739" lon="4.82106">
        <ele>284</ele>
        <time>2021-08-27T07:35:29.000Z</time>
      </trkpt>
      <trkpt lat="49.87737" lon="4.82108">
        <ele>284</ele>
        <time>2021-08-27T07:35:30.000Z</time>
      </trkpt>
      <trkpt lat="49.87735" lon="4.82111">
        <ele>284</ele>
        <time>2021-08-27T07:35:31.000Z</time>
      </trkpt>
      <trkpt lat="49.87733" lon="4.82114">
        <ele>285</ele>
        <time>2021-08-27T07:35:32.000Z</time>
      </trkpt>
      <trkpt lat="49.87731" lon="4.82116">
        <ele>285</ele>
        <time>2021-08-27T07:35:33.000Z</time>
      </trkpt>
      <trkpt lat="49.87729" lon="4.82119">
        <ele>285</ele>
        <time>2021-08-27T07:35:34.000Z</time>
      </trkpt>
      <trkpt lat="49.87727" lon="4.82121">
        <ele>285</ele>
        <time>2021-08-27T07:35:35.000Z</time>
      </trkpt>
      <trkpt lat="49.87725" lon="4.82124">
        <ele>285</ele>
        <time>2021-08-27T07:35:36.000Z</time>
      </trkpt>
      <trkpt lat="49.87723" lon="4.82127">
        <ele>285</ele>
        <time>2021-08-27T07:35:37.000Z</time>
      </trkpt>
      <trkpt lat="49.8772" lon="4.82131">
        <ele>285</ele>
        <time>2021-08-27T07:35:38.000Z</time>
      </trkpt>
      <trkpt lat="49.87717" lon="4.82134">
        <ele>285</ele>
        <time>2021-08-27T07:35:39.000Z</time>
      </trkpt>
      <trkpt lat="49.87715" lon="4.82138">
        <ele>285</ele>
        <time>2021-08-27T07:35:40.000Z</time>
      </trkpt>
      <trkpt lat="49.87712" lon="4.82142">
        <ele>285</ele>
        <time>2021-08-27T07:35:41.000Z</time>
      </trkpt>
      <trkpt lat="49.87709" lon="4.82147">
        <ele>285</ele>
        <time>2021-08-27T07:35:42.000Z</time>
      </trkpt>
      <trkpt lat="49.87706" lon="4.82152">
        <ele>285</ele>
        <time>2021-08-27T07:35:43.000Z</time>
      </trkpt>
      <trkpt lat="49.87703" lon="4.82157">
        <ele>285</ele>
        <time>2021-08-27T07:35:44.000Z</time>
      </trkpt>
      <trkpt lat="49.87699" lon="4.82163">
        <ele>285</ele>
        <time>2021-08-27T07:35:45.000Z</time>
      </trkpt>
      <trkpt lat="49.87696" lon="4.82169">
        <ele>285</ele>
        <time>2021-08-27T07:35:46.000Z</time>
      </trkpt>
      <trkpt lat="49.87692" lon="4.82174">
        <ele>285</ele>
        <time>2021-08-27T07:35:47.000Z</time>
      </trkpt>
      <trkpt lat="49.87689" lon="4.82179">
        <ele>285</ele>
        <time>2021-08-27T07:35:48.000Z</time>
      </trkpt>
      <trkpt lat="49.87685" lon="4.82185">
        <ele>285</ele>
        <time>2021-08-27T07:35:49.000Z</time>
      </trkpt>
      <trkpt lat="49.87682" lon="4.82191">
        <ele>285</ele>
        <time>2021-08-27T07:35:50.000Z</time>
      </trkpt>
      <trkpt lat="49.87678" lon="4.82196">
        <ele>285</ele>
        <time>2021-08-27T07:35:51.000Z</time>
      </trkpt>
      <trkpt lat="49.87675" lon="4.82202">
        <ele>285</ele>
        <time>2021-08-27T07:35:52.000Z</time>
      </trkpt>
      <trkpt lat="49.87672" lon="4.82207">
        <ele>285</ele>
        <time>2021-08-27T07:35:53.000Z</time>
      </trkpt>
      <trkpt lat="49.87668" lon="4.82212">
        <ele>285</ele>
        <time>2021-08-27T07:35:54.000Z</time>
      </trkpt>
      <trkpt lat="49.87664" lon="4.82217">
        <ele>285</ele>
        <time>2021-08-27T07:35:55.000Z</time>
      </trkpt>
      <trkpt lat="49.8766" lon="4.82223">
        <ele>285</ele>
        <time>2021-08-27T07:35:56.000Z</time>
      </trkpt>
      <trkpt lat="49.87655" lon="4.82229">
        <ele>284</ele>
        <time>2021-08-27T07:35:57.000Z</time>
      </trkpt>
      <trkpt lat="49.87651" lon="4.82235">
        <ele>284</ele>
        <time>2021-08-27T07:35:58.000Z</time>
      </trkpt>
      <trkpt lat="49.87647" lon="4.82242">
        <ele>284</ele>
        <time>2021-08-27T07:35:59.000Z</time>
      </trkpt>
      <trkpt lat="49.87643" lon="4.82249">
        <ele>284</ele>
        <time>2021-08-27T07:36:00.000Z</time>
      </trkpt>
      <trkpt lat="49.87639" lon="4.82255">
        <ele>283</ele>
        <time>2021-08-27T07:36:01.000Z</time>
      </trkpt>
      <trkpt lat="49.87635" lon="4.82262">
        <ele>283</ele>
        <time>2021-08-27T07:36:02.000Z</time>
      </trkpt>
      <trkpt lat="49.87631" lon="4.82269">
        <ele>283</ele>
        <time>2021-08-27T07:36:03.000Z</time>
      </trkpt>
      <trkpt lat="49.87627" lon="4.82275">
        <ele>283</ele>
        <time>2021-08-27T07:36:04.000Z</time>
      </trkpt>
      <trkpt lat="49.87624" lon="4.82282">
        <ele>283</ele>
        <time>2021-08-27T07:36:05.000Z</time>
      </trkpt>
      <trkpt lat="49.8762" lon="4.82289">
        <ele>283</ele>
        <time>2021-08-27T07:36:06.000Z</time>
      </trkpt>
      <trkpt lat="49.87616" lon="4.82296">
        <ele>283</ele>
        <time>2021-08-27T07:36:07.000Z</time>
      </trkpt>
      <trkpt lat="49.87613" lon="4.82303">
        <ele>282</ele>
        <time>2021-08-27T07:36:08.000Z</time>
      </trkpt>
      <trkpt lat="49.87609" lon="4.82309">
        <ele>282</ele>
        <time>2021-08-27T07:36:09.000Z</time>
      </trkpt>
      <trkpt lat="49.87606" lon="4.82316">
        <ele>282</ele>
        <time>2021-08-27T07:36:10.000Z</time>
      </trkpt>
      <trkpt lat="49.87602" lon="4.82322">
        <ele>282</ele>
        <time>2021-08-27T07:36:11.000Z</time>
      </trkpt>
      <trkpt lat="49.87599" lon="4.82328">
        <ele>282</ele>
        <time>2021-08-27T07:36:12.000Z</time>
      </trkpt>
      <trkpt lat="49.87595" lon="4.82334">
        <ele>282</ele>
        <time>2021-08-27T07:36:13.000Z</time>
      </trkpt>
      <trkpt lat="49.87591" lon="4.8234">
        <ele>282</ele>
        <time>2021-08-27T07:36:14.000Z</time>
      </trkpt>
      <trkpt lat="49.87587" lon="4.82346">
        <ele>281</ele>
        <time>2021-08-27T07:36:15.000Z</time>
      </trkpt>
      <trkpt lat="49.87583" lon="4.82353">
        <ele>281</ele>
        <time>2021-08-27T07:36:16.000Z</time>
      </trkpt>
      <trkpt lat="49.8758" lon="4.82359">
        <ele>281</ele>
        <time>2021-08-27T07:36:17.000Z</time>
      </trkpt>
      <trkpt lat="49.87576" lon="4.82365">
        <ele>281</ele>
        <time>2021-08-27T07:36:18.000Z</time>
      </trkpt>
      <trkpt lat="49.87572" lon="4.82371">
        <ele>281</ele>
        <time>2021-08-27T07:36:19.000Z</time>
      </trkpt>
      <trkpt lat="49.87568" lon="4.82377">
        <ele>281</ele>
        <time>2021-08-27T07:36:20.000Z</time>
      </trkpt>
      <trkpt lat="49.87565" lon="4.82382">
        <ele>281</ele>
        <time>2021-08-27T07:36:21.000Z</time>
      </trkpt>
      <trkpt lat="49.87562" lon="4.82387">
        <ele>281</ele>
        <time>2021-08-27T07:36:22.000Z</time>
      </trkpt>
      <trkpt lat="49.87559" lon="4.82391">
        <ele>280</ele>
        <time>2021-08-27T07:36:23.000Z</time>
      </trkpt>
      <trkpt lat="49.87556" lon="4.82395">
        <ele>280</ele>
        <time>2021-08-27T07:36:24.000Z</time>
      </trkpt>
      <trkpt lat="49.87553" lon="4.82399">
        <ele>280</ele>
        <time>2021-08-27T07:36:25.000Z</time>
      </trkpt>
      <trkpt lat="49.8755" lon="4.82403">
        <ele>280</ele>
        <time>2021-08-27T07:36:26.000Z</time>
      </trkpt>
      <trkpt lat="49.87548" lon="4.82406">
        <ele>280</ele>
        <time>2021-08-27T07:36:27.000Z</time>
      </trkpt>
      <trkpt lat="49.87545" lon="4.82408">
        <ele>280</ele>
        <time>2021-08-27T07:36:28.000Z</time>
      </trkpt>
      <trkpt lat="49.87543" lon="4.82411">
        <ele>280</ele>
        <time>2021-08-27T07:36:29.000Z</time>
      </trkpt>
      <trkpt lat="49.87541" lon="4.82414">
        <ele>280</ele>
        <time>2021-08-27T07:36:30.000Z</time>
      </trkpt>
      <trkpt lat="49.87538" lon="4.82417">
        <ele>280</ele>
        <time>2021-08-27T07:36:31.000Z</time>
      </trkpt>
      <trkpt lat="49.87536" lon="4.8242">
        <ele>280</ele>
        <time>2021-08-27T07:36:32.000Z</time>
      </trkpt>
      <trkpt lat="49.87533" lon="4.82423">
        <ele>280</ele>
        <time>2021-08-27T07:36:33.000Z</time>
      </trkpt>
      <trkpt lat="49.87531" lon="4.82426">
        <ele>280</ele>
        <time>2021-08-27T07:36:34.000Z</time>
      </trkpt>
      <trkpt lat="49.87528" lon="4.82429">
        <ele>280</ele>
        <time>2021-08-27T07:36:35.000Z</time>
      </trkpt>
      <trkpt lat="49.87526" lon="4.82432">
        <ele>280</ele>
        <time>2021-08-27T07:36:36.000Z</time>
      </trkpt>
      <trkpt lat="49.87524" lon="4.82435">
        <ele>280</ele>
        <time>2021-08-27T07:36:37.000Z</time>
      </trkpt>
      <trkpt lat="49.87522" lon="4.82437">
        <ele>280</ele>
        <time>2021-08-27T07:36:38.000Z</time>
      </trkpt>
      <trkpt lat="49.8752" lon="4.8244">
        <ele>281</ele>
        <time>2021-08-27T07:36:39.000Z</time>
      </trkpt>
      <trkpt lat="49.87518" lon="4.82442">
        <ele>281</ele>
        <time>2021-08-27T07:36:40.000Z</time>
      </trkpt>
      <trkpt lat="49.87516" lon="4.82444">
        <ele>281</ele>
        <time>2021-08-27T07:36:41.000Z</time>
      </trkpt>
      <trkpt lat="49.87515" lon="4.82447">
        <ele>281</ele>
        <time>2021-08-27T07:36:42.000Z</time>
      </trkpt>
      <trkpt lat="49.87513" lon="4.82449">
        <ele>281</ele>
        <time>2021-08-27T07:36:43.000Z</time>
      </trkpt>
      <trkpt lat="49.87511" lon="4.82452">
        <ele>281</ele>
        <time>2021-08-27T07:36:44.000Z</time>
      </trkpt>
      <trkpt lat="49.8751" lon="4.82454">
        <ele>281</ele>
        <time>2021-08-27T07:36:45.000Z</time>
      </trkpt>
      <trkpt lat="49.87508" lon="4.82456">
        <ele>281</ele>
        <time>2021-08-27T07:36:46.000Z</time>
      </trkpt>
      <trkpt lat="49.87507" lon="4.82458">
        <ele>281</ele>
        <time>2021-08-27T07:36:47.000Z</time>
      </trkpt>
      <trkpt lat="49.87506" lon="4.8246">
        <ele>281</ele>
        <time>2021-08-27T07:36:48.000Z</time>
      </trkpt>
      <trkpt lat="49.87504" lon="4.82462">
        <ele>281</ele>
        <time>2021-08-27T07:36:49.000Z</time>
      </trkpt>
      <trkpt lat="49.87503" lon="4.82465">
        <ele>281</ele>
        <time>2021-08-27T07:36:50.000Z</time>
      </trkpt>
      <trkpt lat="49.87502" lon="4.82467">
        <ele>281</ele>
        <time>2021-08-27T07:36:51.000Z</time>
      </trkpt>
      <trkpt lat="49.875" lon="4.82469">
        <ele>282</ele>
        <time>2021-08-27T07:36:52.000Z</time>
      </trkpt>
      <trkpt lat="49.87499" lon="4.82471">
        <ele>282</ele>
        <time>2021-08-27T07:36:53.000Z</time>
      </trkpt>
      <trkpt lat="49.87498" lon="4.82472">
        <ele>282</ele>
        <time>2021-08-27T07:36:54.000Z</time>
      </trkpt>
      <trkpt lat="49.87496" lon="4.82474">
        <ele>282</ele>
        <time>2021-08-27T07:36:55.000Z</time>
      </trkpt>
      <trkpt lat="49.87495" lon="4.82476">
        <ele>282</ele>
        <time>2021-08-27T07:36:56.000Z</time>
      </trkpt>
      <trkpt lat="49.87494" lon="4.82478">
        <ele>282</ele>
        <time>2021-08-27T07:36:57.000Z</time>
      </trkpt>
      <trkpt lat="49.87492" lon="4.8248">
        <ele>282</ele>
        <time>2021-08-27T07:36:58.000Z</time>
      </trkpt>
      <trkpt lat="49.87491" lon="4.82482">
        <ele>282</ele>
        <time>2021-08-27T07:36:59.000Z</time>
      </trkpt>
      <trkpt lat="49.8749" lon="4.82484">
        <ele>282</ele>
        <time>2021-08-27T07:37:00.000Z</time>
      </trkpt>
      <trkpt lat="49.87489" lon="4.82486">
        <ele>283</ele>
        <time>2021-08-27T07:37:01.000Z</time>
      </trkpt>
      <trkpt lat="49.87487" lon="4.82488">
        <ele>283</ele>
        <time>2021-08-27T07:37:02.000Z</time>
      </trkpt>
      <trkpt lat="49.87486" lon="4.8249">
        <ele>283</ele>
        <time>2021-08-27T07:37:03.000Z</time>
      </trkpt>
      <trkpt lat="49.87484" lon="4.82492">
        <ele>283</ele>
        <time>2021-08-27T07:37:04.000Z</time>
      </trkpt>
      <trkpt lat="49.87483" lon="4.82494">
        <ele>283</ele>
        <time>2021-08-27T07:37:05.000Z</time>
      </trkpt>
      <trkpt lat="49.87482" lon="4.82496">
        <ele>283</ele>
        <time>2021-08-27T07:37:06.000Z</time>
      </trkpt>
      <trkpt lat="49.8748" lon="4.82498">
        <ele>284</ele>
        <time>2021-08-27T07:37:07.000Z</time>
      </trkpt>
      <trkpt lat="49.87479" lon="4.825">
        <ele>284</ele>
        <time>2021-08-27T07:37:08.000Z</time>
      </trkpt>
      <trkpt lat="49.87477" lon="4.82502">
        <ele>284</ele>
        <time>2021-08-27T07:37:09.000Z</time>
      </trkpt>
      <trkpt lat="49.87476" lon="4.82504">
        <ele>284</ele>
        <time>2021-08-27T07:37:10.000Z</time>
      </trkpt>
      <trkpt lat="49.87475" lon="4.82506">
        <ele>284</ele>
        <time>2021-08-27T07:37:11.000Z</time>
      </trkpt>
      <trkpt lat="49.87473" lon="4.82508">
        <ele>284</ele>
        <time>2021-08-27T07:37:12.000Z</time>
      </trkpt>
      <trkpt lat="49.87472" lon="4.82509">
        <ele>284</ele>
        <time>2021-08-27T07:37:13.000Z</time>
      </trkpt>
      <trkpt lat="49.87471" lon="4.82511">
        <ele>285</ele>
        <time>2021-08-27T07:37:14.000Z</time>
      </trkpt>
      <trkpt lat="49.87469" lon="4.82512">
        <ele>285</ele>
        <time>2021-08-27T07:37:15.000Z</time>
      </trkpt>
      <trkpt lat="49.87468" lon="4.82514">
        <ele>285</ele>
        <time>2021-08-27T07:37:16.000Z</time>
      </trkpt>
      <trkpt lat="49.87466" lon="4.82515">
        <ele>285</ele>
        <time>2021-08-27T07:37:17.000Z</time>
      </trkpt>
      <trkpt lat="49.87465" lon="4.82517">
        <ele>285</ele>
        <time>2021-08-27T07:37:18.000Z</time>
      </trkpt>
      <trkpt lat="49.87464" lon="4.82518">
        <ele>285</ele>
        <time>2021-08-27T07:37:19.000Z</time>
      </trkpt>
      <trkpt lat="49.87462" lon="4.8252">
        <ele>285</ele>
        <time>2021-08-27T07:37:20.000Z</time>
      </trkpt>
      <trkpt lat="49.87461" lon="4.82521">
        <ele>285</ele>
        <time>2021-08-27T07:37:21.000Z</time>
      </trkpt>
      <trkpt lat="49.8746" lon="4.82523">
        <ele>286</ele>
        <time>2021-08-27T07:37:22.000Z</time>
      </trkpt>
      <trkpt lat="49.87459" lon="4.82525">
        <ele>286</ele>
        <time>2021-08-27T07:37:23.000Z</time>
      </trkpt>
      <trkpt lat="49.87457" lon="4.82527">
        <ele>286</ele>
        <time>2021-08-27T07:37:24.000Z</time>
      </trkpt>
      <trkpt lat="49.87456" lon="4.82528">
        <ele>286</ele>
        <time>2021-08-27T07:37:25.000Z</time>
      </trkpt>
      <trkpt lat="49.87455" lon="4.8253">
        <ele>286</ele>
        <time>2021-08-27T07:37:26.000Z</time>
      </trkpt>
      <trkpt lat="49.87454" lon="4.82532">
        <ele>286</ele>
        <time>2021-08-27T07:37:27.000Z</time>
      </trkpt>
      <trkpt lat="49.87453" lon="4.82534">
        <ele>286</ele>
        <time>2021-08-27T07:37:28.000Z</time>
      </trkpt>
      <trkpt lat="49.87452" lon="4.82536">
        <ele>286</ele>
        <time>2021-08-27T07:37:29.000Z</time>
      </trkpt>
      <trkpt lat="49.87451" lon="4.82537">
        <ele>287</ele>
        <time>2021-08-27T07:37:30.000Z</time>
      </trkpt>
      <trkpt lat="49.87449" lon="4.82539">
        <ele>287</ele>
        <time>2021-08-27T07:37:31.000Z</time>
      </trkpt>
      <trkpt lat="49.87448" lon="4.82541">
        <ele>287</ele>
        <time>2021-08-27T07:37:32.000Z</time>
      </trkpt>
      <trkpt lat="49.87447" lon="4.82543">
        <ele>287</ele>
        <time>2021-08-27T07:37:33.000Z</time>
      </trkpt>
      <trkpt lat="49.87446" lon="4.82544">
        <ele>287</ele>
        <time>2021-08-27T07:37:34.000Z</time>
      </trkpt>
      <trkpt lat="49.87445" lon="4.82546">
        <ele>288</ele>
        <time>2021-08-27T07:37:35.000Z</time>
      </trkpt>
      <trkpt lat="49.87444" lon="4.82548">
        <ele>288</ele>
        <time>2021-08-27T07:37:36.000Z</time>
      </trkpt>
      <trkpt lat="49.87443" lon="4.82549">
        <ele>288</ele>
        <time>2021-08-27T07:37:37.000Z</time>
      </trkpt>
      <trkpt lat="49.87442" lon="4.82551">
        <ele>288</ele>
        <time>2021-08-27T07:37:38.000Z</time>
      </trkpt>
      <trkpt lat="49.87441" lon="4.82553">
        <ele>288</ele>
        <time>2021-08-27T07:37:39.000Z</time>
      </trkpt>
      <trkpt lat="49.8744" lon="4.82555">
        <ele>288</ele>
        <time>2021-08-27T07:37:40.000Z</time>
      </trkpt>
      <trkpt lat="49.87438" lon="4.82556">
        <ele>289</ele>
        <time>2021-08-27T07:37:41.000Z</time>
      </trkpt>
      <trkpt lat="49.87437" lon="4.82558">
        <ele>289</ele>
        <time>2021-08-27T07:37:42.000Z</time>
      </trkpt>
      <trkpt lat="49.87436" lon="4.8256">
        <ele>289</ele>
        <time>2021-08-27T07:37:43.000Z</time>
      </trkpt>
      <trkpt lat="49.87435" lon="4.82561">
        <ele>289</ele>
        <time>2021-08-27T07:37:44.000Z</time>
      </trkpt>
      <trkpt lat="49.87434" lon="4.82563">
        <ele>289</ele>
        <time>2021-08-27T07:37:45.000Z</time>
      </trkpt>
      <trkpt lat="49.87432" lon="4.82565">
        <ele>290</ele>
        <time>2021-08-27T07:37:46.000Z</time>
      </trkpt>
      <trkpt lat="49.87431" lon="4.82565">
        <ele>290</ele>
        <time>2021-08-27T07:37:47.000Z</time>
      </trkpt>
      <trkpt lat="49.8743" lon="4.82567">
        <ele>290</ele>
        <time>2021-08-27T07:37:48.000Z</time>
      </trkpt>
      <trkpt lat="49.87429" lon="4.82568">
        <ele>290</ele>
        <time>2021-08-27T07:37:49.000Z</time>
      </trkpt>
      <trkpt lat="49.87427" lon="4.82569">
        <ele>290</ele>
        <time>2021-08-27T07:37:50.000Z</time>
      </trkpt>
      <trkpt lat="49.87426" lon="4.8257">
        <ele>290</ele>
        <time>2021-08-27T07:37:51.000Z</time>
      </trkpt>
      <trkpt lat="49.87425" lon="4.82571">
        <ele>290</ele>
        <time>2021-08-27T07:37:52.000Z</time>
      </trkpt>
      <trkpt lat="49.87423" lon="4.82573">
        <ele>290</ele>
        <time>2021-08-27T07:37:53.000Z</time>
      </trkpt>
      <trkpt lat="49.87422" lon="4.82575">
        <ele>291</ele>
        <time>2021-08-27T07:37:54.000Z</time>
      </trkpt>
      <trkpt lat="49.87421" lon="4.82576">
        <ele>291</ele>
        <time>2021-08-27T07:37:55.000Z</time>
      </trkpt>
      <trkpt lat="49.8742" lon="4.82578">
        <ele>291</ele>
        <time>2021-08-27T07:37:56.000Z</time>
      </trkpt>
      <trkpt lat="49.87418" lon="4.8258">
        <ele>291</ele>
        <time>2021-08-27T07:37:57.000Z</time>
      </trkpt>
      <trkpt lat="49.87417" lon="4.82581">
        <ele>291</ele>
        <time>2021-08-27T07:37:58.000Z</time>
      </trkpt>
      <trkpt lat="49.87416" lon="4.82583">
        <ele>291</ele>
        <time>2021-08-27T07:37:59.000Z</time>
      </trkpt>
      <trkpt lat="49.87414" lon="4.82584">
        <ele>292</ele>
        <time>2021-08-27T07:38:00.000Z</time>
      </trkpt>
      <trkpt lat="49.87413" lon="4.82586">
        <ele>292</ele>
        <time>2021-08-27T07:38:01.000Z</time>
      </trkpt>
      <trkpt lat="49.87412" lon="4.82587">
        <ele>292</ele>
        <time>2021-08-27T07:38:02.000Z</time>
      </trkpt>
      <trkpt lat="49.87411" lon="4.82588">
        <ele>292</ele>
        <time>2021-08-27T07:38:03.000Z</time>
      </trkpt>
      <trkpt lat="49.87409" lon="4.8259">
        <ele>292</ele>
        <time>2021-08-27T07:38:04.000Z</time>
      </trkpt>
      <trkpt lat="49.87409" lon="4.82591">
        <ele>293</ele>
        <time>2021-08-27T07:38:05.000Z</time>
      </trkpt>
      <trkpt lat="49.87407" lon="4.82593">
        <ele>293</ele>
        <time>2021-08-27T07:38:06.000Z</time>
      </trkpt>
      <trkpt lat="49.87406" lon="4.82594">
        <ele>293</ele>
        <time>2021-08-27T07:38:07.000Z</time>
      </trkpt>
      <trkpt lat="49.87405" lon="4.82595">
        <ele>293</ele>
        <time>2021-08-27T07:38:08.000Z</time>
      </trkpt>
      <trkpt lat="49.87404" lon="4.82597">
        <ele>293</ele>
        <time>2021-08-27T07:38:09.000Z</time>
      </trkpt>
      <trkpt lat="49.87402" lon="4.82598">
        <ele>293</ele>
        <time>2021-08-27T07:38:10.000Z</time>
      </trkpt>
      <trkpt lat="49.87401" lon="4.826">
        <ele>294</ele>
        <time>2021-08-27T07:38:11.000Z</time>
      </trkpt>
      <trkpt lat="49.874" lon="4.82601">
        <ele>294</ele>
        <time>2021-08-27T07:38:12.000Z</time>
      </trkpt>
      <trkpt lat="49.87399" lon="4.82603">
        <ele>294</ele>
        <time>2021-08-27T07:38:13.000Z</time>
      </trkpt>
      <trkpt lat="49.87398" lon="4.82604">
        <ele>294</ele>
        <time>2021-08-27T07:38:14.000Z</time>
      </trkpt>
      <trkpt lat="49.87397" lon="4.82606">
        <ele>294</ele>
        <time>2021-08-27T07:38:15.000Z</time>
      </trkpt>
      <trkpt lat="49.87397" lon="4.82607">
        <ele>294</ele>
        <time>2021-08-27T07:38:16.000Z</time>
      </trkpt>
      <trkpt lat="49.87396" lon="4.82609">
        <ele>295</ele>
        <time>2021-08-27T07:38:17.000Z</time>
      </trkpt>
      <trkpt lat="49.87395" lon="4.8261">
        <ele>295</ele>
        <time>2021-08-27T07:38:18.000Z</time>
      </trkpt>
      <trkpt lat="49.87394" lon="4.82612">
        <ele>295</ele>
        <time>2021-08-27T07:38:19.000Z</time>
      </trkpt>
      <trkpt lat="49.87393" lon="4.82613">
        <ele>295</ele>
        <time>2021-08-27T07:38:20.000Z</time>
      </trkpt>
      <trkpt lat="49.87392" lon="4.82615">
        <ele>295</ele>
        <time>2021-08-27T07:38:21.000Z</time>
      </trkpt>
      <trkpt lat="49.87391" lon="4.82616">
        <ele>295</ele>
        <time>2021-08-27T07:38:22.000Z</time>
      </trkpt>
      <trkpt lat="49.8739" lon="4.82617">
        <ele>295</ele>
        <time>2021-08-27T07:38:23.000Z</time>
      </trkpt>
      <trkpt lat="49.87389" lon="4.82618">
        <ele>296</ele>
        <time>2021-08-27T07:38:24.000Z</time>
      </trkpt>
      <trkpt lat="49.87389" lon="4.8262">
        <ele>296</ele>
        <time>2021-08-27T07:38:25.000Z</time>
      </trkpt>
      <trkpt lat="49.87388" lon="4.82621">
        <ele>296</ele>
        <time>2021-08-27T07:38:26.000Z</time>
      </trkpt>
      <trkpt lat="49.87387" lon="4.82623">
        <ele>296</ele>
        <time>2021-08-27T07:38:27.000Z</time>
      </trkpt>
      <trkpt lat="49.87386" lon="4.82624">
        <ele>296</ele>
        <time>2021-08-27T07:38:28.000Z</time>
      </trkpt>
      <trkpt lat="49.87384" lon="4.82625">
        <ele>297</ele>
        <time>2021-08-27T07:38:29.000Z</time>
      </trkpt>
      <trkpt lat="49.87383" lon="4.82626">
        <ele>297</ele>
        <time>2021-08-27T07:38:30.000Z</time>
      </trkpt>
      <trkpt lat="49.87382" lon="4.82627">
        <ele>297</ele>
        <time>2021-08-27T07:38:31.000Z</time>
      </trkpt>
      <trkpt lat="49.8738" lon="4.82629">
        <ele>298</ele>
        <time>2021-08-27T07:38:32.000Z</time>
      </trkpt>
      <trkpt lat="49.87379" lon="4.82629">
        <ele>298</ele>
        <time>2021-08-27T07:38:33.000Z</time>
      </trkpt>
      <trkpt lat="49.87378" lon="4.8263">
        <ele>298</ele>
        <time>2021-08-27T07:38:34.000Z</time>
      </trkpt>
      <trkpt lat="49.87377" lon="4.82631">
        <ele>299</ele>
        <time>2021-08-27T07:38:35.000Z</time>
      </trkpt>
      <trkpt lat="49.87376" lon="4.82632">
        <ele>299</ele>
        <time>2021-08-27T07:38:36.000Z</time>
      </trkpt>
      <trkpt lat="49.87374" lon="4.82633">
        <ele>299</ele>
        <time>2021-08-27T07:38:37.000Z</time>
      </trkpt>
      <trkpt lat="49.87373" lon="4.82634">
        <ele>300</ele>
        <time>2021-08-27T07:38:38.000Z</time>
      </trkpt>
      <trkpt lat="49.87372" lon="4.82635">
        <ele>300</ele>
        <time>2021-08-27T07:38:39.000Z</time>
      </trkpt>
      <trkpt lat="49.87371" lon="4.82636">
        <ele>300</ele>
        <time>2021-08-27T07:38:40.000Z</time>
      </trkpt>
      <trkpt lat="49.8737" lon="4.82637">
        <ele>301</ele>
        <time>2021-08-27T07:38:41.000Z</time>
      </trkpt>
      <trkpt lat="49.87369" lon="4.82639">
        <ele>301</ele>
        <time>2021-08-27T07:38:42.000Z</time>
      </trkpt>
      <trkpt lat="49.87368" lon="4.82641">
        <ele>301</ele>
        <time>2021-08-27T07:38:43.000Z</time>
      </trkpt>
      <trkpt lat="49.87367" lon="4.82642">
        <ele>302</ele>
        <time>2021-08-27T07:38:44.000Z</time>
      </trkpt>
      <trkpt lat="49.87366" lon="4.82643">
        <ele>302</ele>
        <time>2021-08-27T07:38:45.000Z</time>
      </trkpt>
      <trkpt lat="49.87366" lon="4.82645">
        <ele>303</ele>
        <time>2021-08-27T07:38:46.000Z</time>
      </trkpt>
      <trkpt lat="49.87366" lon="4.82647">
        <ele>303</ele>
        <time>2021-08-27T07:38:47.000Z</time>
      </trkpt>
      <trkpt lat="49.87365" lon="4.82649">
        <ele>303</ele>
        <time>2021-08-27T07:38:48.000Z</time>
      </trkpt>
      <trkpt lat="49.87365" lon="4.82651">
        <ele>303</ele>
        <time>2021-08-27T07:38:49.000Z</time>
      </trkpt>
      <trkpt lat="49.87364" lon="4.82653">
        <ele>304</ele>
        <time>2021-08-27T07:38:50.000Z</time>
      </trkpt>
      <trkpt lat="49.87363" lon="4.82655">
        <ele>304</ele>
        <time>2021-08-27T07:38:51.000Z</time>
      </trkpt>
      <trkpt lat="49.87363" lon="4.82657">
        <ele>304</ele>
        <time>2021-08-27T07:38:52.000Z</time>
      </trkpt>
      <trkpt lat="49.87362" lon="4.82659">
        <ele>305</ele>
        <time>2021-08-27T07:38:53.000Z</time>
      </trkpt>
      <trkpt lat="49.87361" lon="4.8266">
        <ele>305</ele>
        <time>2021-08-27T07:38:54.000Z</time>
      </trkpt>
      <trkpt lat="49.87359" lon="4.82662">
        <ele>305</ele>
        <time>2021-08-27T07:38:55.000Z</time>
      </trkpt>
      <trkpt lat="49.87358" lon="4.82663">
        <ele>306</ele>
        <time>2021-08-27T07:38:56.000Z</time>
      </trkpt>
      <trkpt lat="49.87357" lon="4.82663">
        <ele>306</ele>
        <time>2021-08-27T07:38:57.000Z</time>
      </trkpt>
      <trkpt lat="49.87355" lon="4.82663">
        <ele>306</ele>
        <time>2021-08-27T07:38:58.000Z</time>
      </trkpt>
      <trkpt lat="49.87354" lon="4.82664">
        <ele>307</ele>
        <time>2021-08-27T07:38:59.000Z</time>
      </trkpt>
      <trkpt lat="49.87354" lon="4.82665">
        <ele>307</ele>
        <time>2021-08-27T07:39:00.000Z</time>
      </trkpt>
      <trkpt lat="49.87353" lon="4.82667">
        <ele>307</ele>
        <time>2021-08-27T07:39:01.000Z</time>
      </trkpt>
      <trkpt lat="49.87353" lon="4.82668">
        <ele>308</ele>
        <time>2021-08-27T07:39:02.000Z</time>
      </trkpt>
      <trkpt lat="49.87352" lon="4.8267">
        <ele>308</ele>
        <time>2021-08-27T07:39:03.000Z</time>
      </trkpt>
      <trkpt lat="49.87351" lon="4.82671">
        <ele>308</ele>
        <time>2021-08-27T07:39:04.000Z</time>
      </trkpt>
      <trkpt lat="49.8735" lon="4.82672">
        <ele>308</ele>
        <time>2021-08-27T07:39:05.000Z</time>
      </trkpt>
      <trkpt lat="49.87349" lon="4.82673">
        <ele>309</ele>
        <time>2021-08-27T07:39:06.000Z</time>
      </trkpt>
      <trkpt lat="49.87348" lon="4.82674">
        <ele>309</ele>
        <time>2021-08-27T07:39:07.000Z</time>
      </trkpt>
      <trkpt lat="49.87347" lon="4.82674">
        <ele>309</ele>
        <time>2021-08-27T07:39:08.000Z</time>
      </trkpt>
      <trkpt lat="49.87346" lon="4.82675">
        <ele>310</ele>
        <time>2021-08-27T07:39:09.000Z</time>
      </trkpt>
      <trkpt lat="49.87344" lon="4.82675">
        <ele>310</ele>
        <time>2021-08-27T07:39:10.000Z</time>
      </trkpt>
      <trkpt lat="49.87344" lon="4.82676">
        <ele>310</ele>
        <time>2021-08-27T07:39:11.000Z</time>
      </trkpt>
      <trkpt lat="49.87343" lon="4.82677">
        <ele>311</ele>
        <time>2021-08-27T07:39:12.000Z</time>
      </trkpt>
      <trkpt lat="49.87342" lon="4.82677">
        <ele>311</ele>
        <time>2021-08-27T07:39:13.000Z</time>
      </trkpt>
      <trkpt lat="49.87342" lon="4.82679">
        <ele>311</ele>
        <time>2021-08-27T07:39:14.000Z</time>
      </trkpt>
      <trkpt lat="49.87343" lon="4.82679">
        <ele>311</ele>
        <time>2021-08-27T07:39:15.000Z</time>
      </trkpt>
      <trkpt lat="49.87343" lon="4.82679">
        <ele>312</ele>
        <time>2021-08-27T07:39:16.000Z</time>
      </trkpt>
      <trkpt lat="49.87344" lon="4.82678">
        <ele>312</ele>
        <time>2021-08-27T07:39:17.000Z</time>
      </trkpt>
      <trkpt lat="49.87345" lon="4.82677">
        <ele>312</ele>
        <time>2021-08-27T07:39:18.000Z</time>
      </trkpt>
      <trkpt lat="49.87346" lon="4.82677">
        <ele>312</ele>
        <time>2021-08-27T07:39:19.000Z</time>
      </trkpt>
      <trkpt lat="49.87347" lon="4.82676">
        <ele>312</ele>
        <time>2021-08-27T07:39:20.000Z</time>
      </trkpt>
      <trkpt lat="49.87347" lon="4.82677">
        <ele>312</ele>
        <time>2021-08-27T07:39:21.000Z</time>
      </trkpt>
      <trkpt lat="49.87347" lon="4.82676">
        <ele>312</ele>
        <time>2021-08-27T07:39:22.000Z</time>
      </trkpt>
      <trkpt lat="49.87347" lon="4.82677">
        <ele>313</ele>
        <time>2021-08-27T07:39:23.000Z</time>
      </trkpt>
      <trkpt lat="49.87347" lon="4.82677">
        <ele>313</ele>
        <time>2021-08-27T07:39:24.000Z</time>
      </trkpt>
      <trkpt lat="49.87347" lon="4.82677">
        <ele>313</ele>
        <time>2021-08-27T07:39:25.000Z</time>
      </trkpt>
      <trkpt lat="49.87347" lon="4.82677">
        <ele>313</ele>
        <time>2021-08-27T07:39:26.000Z</time>
      </trkpt>
      <trkpt lat="49.87347" lon="4.82676">
        <ele>313</ele>
        <time>2021-08-27T07:39:27.000Z</time>
      </trkpt>
      <trkpt lat="49.87347" lon="4.82676">
        <ele>313</ele>
        <time>2021-08-27T07:39:28.000Z</time>
      </trkpt>
      <trkpt lat="49.87347" lon="4.82676">
        <ele>313</ele>
        <time>2021-08-27T07:39:29.000Z</time>
      </trkpt>
      <trkpt lat="49.87347" lon="4.82676">
        <ele>313</ele>
        <time>2021-08-27T07:39:30.000Z</time>
      </trkpt>
      <trkpt lat="49.87347" lon="4.82675">
        <ele>313</ele>
        <time>2021-08-27T07:39:31.000Z</time>
      </trkpt>
      <trkpt lat="49.87347" lon="4.82675">
        <ele>314</ele>
        <time>2021-08-27T07:39:32.000Z</time>
      </trkpt>
      <trkpt lat="49.87347" lon="4.82675">
        <ele>314</ele>
        <time>2021-08-27T07:39:33.000Z</time>
      </trkpt>
      <trkpt lat="49.87347" lon="4.82675">
        <ele>314</ele>
        <time>2021-08-27T07:39:34.000Z</time>
      </trkpt>
      <trkpt lat="49.87347" lon="4.82675">
        <ele>314</ele>
        <time>2021-08-27T07:39:35.000Z</time>
      </trkpt>
      <trkpt lat="49.87347" lon="4.82675">
        <ele>314</ele>
        <time>2021-08-27T07:39:36.000Z</time>
      </trkpt>
      <trkpt lat="49.87347" lon="4.82675">
        <ele>314</ele>
        <time>2021-08-27T07:39:37.000Z</time>
      </trkpt>
      <trkpt lat="49.87347" lon="4.82675">
        <ele>314</ele>
        <time>2021-08-27T07:39:38.000Z</time>
      </trkpt>
      <trkpt lat="49.87347" lon="4.82675">
        <ele>314</ele>
        <time>2021-08-27T07:39:39.000Z</time>
      </trkpt>
      <trkpt lat="49.87347" lon="4.82675">
        <ele>314</ele>
        <time>2021-08-27T07:39:40.000Z</time>
      </trkpt>
      <trkpt lat="49.87347" lon="4.82675">
        <ele>314</ele>
        <time>2021-08-27T07:39:41.000Z</time>
      </trkpt>
      <trkpt lat="49.87347" lon="4.82675">
        <ele>314</ele>
        <time>2021-08-27T07:39:42.000Z</time>
      </trkpt>
      <trkpt lat="49.87347" lon="4.82675">
        <ele>314</ele>
        <time>2021-08-27T07:39:43.000Z</time>
      </trkpt>
      <trkpt lat="49.87347" lon="4.82675">
        <ele>314</ele>
        <time>2021-08-27T07:39:44.000Z</time>
      </trkpt>
      <trkpt lat="49.87347" lon="4.82675">
        <ele>314</ele>
        <time>2021-08-27T07:39:45.000Z</time>
      </trkpt>
      <trkpt lat="49.87347" lon="4.82675">
        <ele>314</ele>
        <time>2021-08-27T07:39:46.000Z</time>
      </trkpt>
      <trkpt lat="49.87347" lon="4.82675">
        <ele>314</ele>
        <time>2021-08-27T07:39:47.000Z</time>
      </trkpt>
      <trkpt lat="49.87347" lon="4.82675">
        <ele>314</ele>
        <time>2021-08-27T07:39:48.000Z</time>
      </trkpt>
      <trkpt lat="49.87346" lon="4.82674">
        <ele>314</ele>
        <time>2021-08-27T07:39:49.000Z</time>
      </trkpt>
      <trkpt lat="49.87346" lon="4.82674">
        <ele>314</ele>
        <time>2021-08-27T07:39:50.000Z</time>
      </trkpt>
      <trkpt lat="49.87346" lon="4.82674">
        <ele>314</ele>
        <time>2021-08-27T07:39:51.000Z</time>
      </trkpt>
      <trkpt lat="49.87346" lon="4.82674">
        <ele>314</ele>
        <time>2021-08-27T07:39:52.000Z</time>
      </trkpt>
      <trkpt lat="49.87346" lon="4.82674">
        <ele>314</ele>
        <time>2021-08-27T07:39:53.000Z</time>
      </trkpt>
      <trkpt lat="49.87346" lon="4.82674">
        <ele>314</ele>
        <time>2021-08-27T07:39:54.000Z</time>
      </trkpt>
      <trkpt lat="49.87346" lon="4.82674">
        <ele>314</ele>
        <time>2021-08-27T07:39:55.000Z</time>
      </trkpt>
      <trkpt lat="49.87347" lon="4.82675">
        <ele>315</ele>
        <time>2021-08-27T07:39:56.000Z</time>
      </trkpt>
      <trkpt lat="49.87347" lon="4.82675">
        <ele>315</ele>
        <time>2021-08-27T07:39:57.000Z</time>
      </trkpt>
      <trkpt lat="49.87347" lon="4.82675">
        <ele>315</ele>
        <time>2021-08-27T07:39:58.000Z</time>
      </trkpt>
      <trkpt lat="49.87348" lon="4.82674">
        <ele>315</ele>
        <time>2021-08-27T07:39:59.000Z</time>
      </trkpt>
      <trkpt lat="49.87349" lon="4.82674">
        <ele>315</ele>
        <time>2021-08-27T07:40:00.000Z</time>
      </trkpt>
      <trkpt lat="49.8735" lon="4.82674">
        <ele>315</ele>
        <time>2021-08-27T07:40:01.000Z</time>
      </trkpt>
      <trkpt lat="49.87351" lon="4.82675">
        <ele>315</ele>
        <time>2021-08-27T07:40:02.000Z</time>
      </trkpt>
      <trkpt lat="49.87352" lon="4.82675">
        <ele>315</ele>
        <time>2021-08-27T07:40:03.000Z</time>
      </trkpt>
      <trkpt lat="49.87352" lon="4.82677">
        <ele>315</ele>
        <time>2021-08-27T07:40:04.000Z</time>
      </trkpt>
      <trkpt lat="49.87353" lon="4.82678">
        <ele>315</ele>
        <time>2021-08-27T07:40:05.000Z</time>
      </trkpt>
      <trkpt lat="49.87353" lon="4.8268">
        <ele>315</ele>
        <time>2021-08-27T07:40:06.000Z</time>
      </trkpt>
      <trkpt lat="49.87354" lon="4.82681">
        <ele>315</ele>
        <time>2021-08-27T07:40:07.000Z</time>
      </trkpt>
      <trkpt lat="49.87355" lon="4.82683">
        <ele>315</ele>
        <time>2021-08-27T07:40:08.000Z</time>
      </trkpt>
      <trkpt lat="49.87356" lon="4.82685">
        <ele>315</ele>
        <time>2021-08-27T07:40:09.000Z</time>
      </trkpt>
      <trkpt lat="49.87357" lon="4.82686">
        <ele>315</ele>
        <time>2021-08-27T07:40:10.000Z</time>
      </trkpt>
      <trkpt lat="49.87358" lon="4.82687">
        <ele>315</ele>
        <time>2021-08-27T07:40:11.000Z</time>
      </trkpt>
      <trkpt lat="49.87359" lon="4.82688">
        <ele>315</ele>
        <time>2021-08-27T07:40:12.000Z</time>
      </trkpt>
      <trkpt lat="49.87361" lon="4.82688">
        <ele>315</ele>
        <time>2021-08-27T07:40:13.000Z</time>
      </trkpt>
      <trkpt lat="49.87363" lon="4.82688">
        <ele>315</ele>
        <time>2021-08-27T07:40:14.000Z</time>
      </trkpt>
      <trkpt lat="49.87365" lon="4.82688">
        <ele>315</ele>
        <time>2021-08-27T07:40:15.000Z</time>
      </trkpt>
      <trkpt lat="49.87366" lon="4.82688">
        <ele>315</ele>
        <time>2021-08-27T07:40:16.000Z</time>
      </trkpt>
      <trkpt lat="49.87368" lon="4.82688">
        <ele>315</ele>
        <time>2021-08-27T07:40:17.000Z</time>
      </trkpt>
      <trkpt lat="49.87371" lon="4.82689">
        <ele>315</ele>
        <time>2021-08-27T07:40:18.000Z</time>
      </trkpt>
      <trkpt lat="49.87374" lon="4.8269">
        <ele>315</ele>
        <time>2021-08-27T07:40:19.000Z</time>
      </trkpt>
      <trkpt lat="49.87378" lon="4.82689">
        <ele>315</ele>
        <time>2021-08-27T07:40:20.000Z</time>
      </trkpt>
      <trkpt lat="49.87381" lon="4.82689">
        <ele>315</ele>
        <time>2021-08-27T07:40:21.000Z</time>
      </trkpt>
      <trkpt lat="49.87385" lon="4.82688">
        <ele>315</ele>
        <time>2021-08-27T07:40:22.000Z</time>
      </trkpt>
      <trkpt lat="49.87388" lon="4.82687">
        <ele>315</ele>
        <time>2021-08-27T07:40:23.000Z</time>
      </trkpt>
      <trkpt lat="49.87392" lon="4.82687">
        <ele>315</ele>
        <time>2021-08-27T07:40:24.000Z</time>
      </trkpt>
      <trkpt lat="49.87395" lon="4.82687">
        <ele>315</ele>
        <time>2021-08-27T07:40:25.000Z</time>
      </trkpt>
      <trkpt lat="49.87397" lon="4.82685">
        <ele>315</ele>
        <time>2021-08-27T07:40:26.000Z</time>
      </trkpt>
      <trkpt lat="49.874" lon="4.82684">
        <ele>315</ele>
        <time>2021-08-27T07:40:27.000Z</time>
      </trkpt>
      <trkpt lat="49.87403" lon="4.82684">
        <ele>315</ele>
        <time>2021-08-27T07:40:28.000Z</time>
      </trkpt>
      <trkpt lat="49.87406" lon="4.82683">
        <ele>315</ele>
        <time>2021-08-27T07:40:29.000Z</time>
      </trkpt>
      <trkpt lat="49.87409" lon="4.82682">
        <ele>315</ele>
        <time>2021-08-27T07:40:30.000Z</time>
      </trkpt>
      <trkpt lat="49.87412" lon="4.82682">
        <ele>314</ele>
        <time>2021-08-27T07:40:31.000Z</time>
      </trkpt>
      <trkpt lat="49.87415" lon="4.82681">
        <ele>314</ele>
        <time>2021-08-27T07:40:32.000Z</time>
      </trkpt>
      <trkpt lat="49.87418" lon="4.8268">
        <ele>314</ele>
        <time>2021-08-27T07:40:33.000Z</time>
      </trkpt>
      <trkpt lat="49.87421" lon="4.82679">
        <ele>314</ele>
        <time>2021-08-27T07:40:34.000Z</time>
      </trkpt>
      <trkpt lat="49.87425" lon="4.82678">
        <ele>314</ele>
        <time>2021-08-27T07:40:35.000Z</time>
      </trkpt>
      <trkpt lat="49.87428" lon="4.82677">
        <ele>314</ele>
        <time>2021-08-27T07:40:36.000Z</time>
      </trkpt>
      <trkpt lat="49.87431" lon="4.82675">
        <ele>313</ele>
        <time>2021-08-27T07:40:37.000Z</time>
      </trkpt>
      <trkpt lat="49.87434" lon="4.82674">
        <ele>313</ele>
        <time>2021-08-27T07:40:38.000Z</time>
      </trkpt>
      <trkpt lat="49.87436" lon="4.82672">
        <ele>313</ele>
        <time>2021-08-27T07:40:39.000Z</time>
      </trkpt>
      <trkpt lat="49.87437" lon="4.82669">
        <ele>313</ele>
        <time>2021-08-27T07:40:40.000Z</time>
      </trkpt>
      <trkpt lat="49.87439" lon="4.82665">
        <ele>313</ele>
        <time>2021-08-27T07:40:41.000Z</time>
      </trkpt>
      <trkpt lat="49.8744" lon="4.8266">
        <ele>313</ele>
        <time>2021-08-27T07:40:42.000Z</time>
      </trkpt>
      <trkpt lat="49.87441" lon="4.82654">
        <ele>312</ele>
        <time>2021-08-27T07:40:43.000Z</time>
      </trkpt>
      <trkpt lat="49.87443" lon="4.82648">
        <ele>312</ele>
        <time>2021-08-27T07:40:44.000Z</time>
      </trkpt>
      <trkpt lat="49.87445" lon="4.82643">
        <ele>312</ele>
        <time>2021-08-27T07:40:45.000Z</time>
      </trkpt>
      <trkpt lat="49.87448" lon="4.82639">
        <ele>312</ele>
        <time>2021-08-27T07:40:46.000Z</time>
      </trkpt>
      <trkpt lat="49.87451" lon="4.82637">
        <ele>312</ele>
        <time>2021-08-27T07:40:47.000Z</time>
      </trkpt>
      <trkpt lat="49.87452" lon="4.82635">
        <ele>311</ele>
        <time>2021-08-27T07:40:48.000Z</time>
      </trkpt>
      <trkpt lat="49.87454" lon="4.82634">
        <ele>311</ele>
        <time>2021-08-27T07:40:49.000Z</time>
      </trkpt>
      <trkpt lat="49.87455" lon="4.82635">
        <ele>311</ele>
        <time>2021-08-27T07:40:50.000Z</time>
      </trkpt>
      <trkpt lat="49.87456" lon="4.82637">
        <ele>310</ele>
        <time>2021-08-27T07:40:51.000Z</time>
      </trkpt>
      <trkpt lat="49.87457" lon="4.8264">
        <ele>310</ele>
        <time>2021-08-27T07:40:52.000Z</time>
      </trkpt>
      <trkpt lat="49.87457" lon="4.82644">
        <ele>309</ele>
        <time>2021-08-27T07:40:53.000Z</time>
      </trkpt>
      <trkpt lat="49.87457" lon="4.8265">
        <ele>309</ele>
        <time>2021-08-27T07:40:54.000Z</time>
      </trkpt>
      <trkpt lat="49.87456" lon="4.82655">
        <ele>309</ele>
        <time>2021-08-27T07:40:55.000Z</time>
      </trkpt>
      <trkpt lat="49.87455" lon="4.82661">
        <ele>308</ele>
        <time>2021-08-27T07:40:56.000Z</time>
      </trkpt>
      <trkpt lat="49.87454" lon="4.82666">
        <ele>308</ele>
        <time>2021-08-27T07:40:57.000Z</time>
      </trkpt>
      <trkpt lat="49.87454" lon="4.82672">
        <ele>308</ele>
        <time>2021-08-27T07:40:58.000Z</time>
      </trkpt>
      <trkpt lat="49.87454" lon="4.82676">
        <ele>307</ele>
        <time>2021-08-27T07:40:59.000Z</time>
      </trkpt>
      <trkpt lat="49.87454" lon="4.82679">
        <ele>307</ele>
        <time>2021-08-27T07:41:00.000Z</time>
      </trkpt>
      <trkpt lat="49.87455" lon="4.82681">
        <ele>306</ele>
        <time>2021-08-27T07:41:01.000Z</time>
      </trkpt>
      <trkpt lat="49.87455" lon="4.82683">
        <ele>306</ele>
        <time>2021-08-27T07:41:02.000Z</time>
      </trkpt>
      <trkpt lat="49.87456" lon="4.82686">
        <ele>305</ele>
        <time>2021-08-27T07:41:03.000Z</time>
      </trkpt>
      <trkpt lat="49.87457" lon="4.8269">
        <ele>305</ele>
        <time>2021-08-27T07:41:04.000Z</time>
      </trkpt>
      <trkpt lat="49.87457" lon="4.82693">
        <ele>305</ele>
        <time>2021-08-27T07:41:05.000Z</time>
      </trkpt>
      <trkpt lat="49.87458" lon="4.82697">
        <ele>304</ele>
        <time>2021-08-27T07:41:06.000Z</time>
      </trkpt>
      <trkpt lat="49.87457" lon="4.827">
        <ele>304</ele>
        <time>2021-08-27T07:41:07.000Z</time>
      </trkpt>
      <trkpt lat="49.87457" lon="4.82705">
        <ele>304</ele>
        <time>2021-08-27T07:41:08.000Z</time>
      </trkpt>
      <trkpt lat="49.87456" lon="4.82709">
        <ele>303</ele>
        <time>2021-08-27T07:41:09.000Z</time>
      </trkpt>
      <trkpt lat="49.87455" lon="4.82714">
        <ele>303</ele>
        <time>2021-08-27T07:41:10.000Z</time>
      </trkpt>
      <trkpt lat="49.87453" lon="4.8272">
        <ele>302</ele>
        <time>2021-08-27T07:41:11.000Z</time>
      </trkpt>
      <trkpt lat="49.87452" lon="4.82726">
        <ele>302</ele>
        <time>2021-08-27T07:41:12.000Z</time>
      </trkpt>
      <trkpt lat="49.87451" lon="4.8273">
        <ele>302</ele>
        <time>2021-08-27T07:41:13.000Z</time>
      </trkpt>
      <trkpt lat="49.8745" lon="4.82735">
        <ele>301</ele>
        <time>2021-08-27T07:41:14.000Z</time>
      </trkpt>
      <trkpt lat="49.87449" lon="4.82738">
        <ele>301</ele>
        <time>2021-08-27T07:41:15.000Z</time>
      </trkpt>
      <trkpt lat="49.87449" lon="4.82743">
        <ele>301</ele>
        <time>2021-08-27T07:41:16.000Z</time>
      </trkpt>
      <trkpt lat="49.87449" lon="4.82748">
        <ele>300</ele>
        <time>2021-08-27T07:41:17.000Z</time>
      </trkpt>
      <trkpt lat="49.8745" lon="4.82752">
        <ele>300</ele>
        <time>2021-08-27T07:41:18.000Z</time>
      </trkpt>
      <trkpt lat="49.8745" lon="4.82756">
        <ele>299</ele>
        <time>2021-08-27T07:41:19.000Z</time>
      </trkpt>
      <trkpt lat="49.8745" lon="4.8276">
        <ele>299</ele>
        <time>2021-08-27T07:41:20.000Z</time>
      </trkpt>
      <trkpt lat="49.8745" lon="4.82763">
        <ele>299</ele>
        <time>2021-08-27T07:41:21.000Z</time>
      </trkpt>
      <trkpt lat="49.8745" lon="4.82767">
        <ele>298</ele>
        <time>2021-08-27T07:41:22.000Z</time>
      </trkpt>
      <trkpt lat="49.87449" lon="4.82772">
        <ele>298</ele>
        <time>2021-08-27T07:41:23.000Z</time>
      </trkpt>
      <trkpt lat="49.87448" lon="4.82776">
        <ele>297</ele>
        <time>2021-08-27T07:41:24.000Z</time>
      </trkpt>
      <trkpt lat="49.87448" lon="4.82781">
        <ele>297</ele>
        <time>2021-08-27T07:41:25.000Z</time>
      </trkpt>
      <trkpt lat="49.87447" lon="4.82786">
        <ele>296</ele>
        <time>2021-08-27T07:41:26.000Z</time>
      </trkpt>
      <trkpt lat="49.87447" lon="4.82791">
        <ele>295</ele>
        <time>2021-08-27T07:41:27.000Z</time>
      </trkpt>
      <trkpt lat="49.87446" lon="4.82794">
        <ele>295</ele>
        <time>2021-08-27T07:41:28.000Z</time>
      </trkpt>
      <trkpt lat="49.87446" lon="4.82796">
        <ele>294</ele>
        <time>2021-08-27T07:41:29.000Z</time>
      </trkpt>
      <trkpt lat="49.87446" lon="4.82798">
        <ele>294</ele>
        <time>2021-08-27T07:41:30.000Z</time>
      </trkpt>
      <trkpt lat="49.87445" lon="4.82798">
        <ele>293</ele>
        <time>2021-08-27T07:41:31.000Z</time>
      </trkpt>
      <trkpt lat="49.87445" lon="4.82799">
        <ele>293</ele>
        <time>2021-08-27T07:41:32.000Z</time>
      </trkpt>
      <trkpt lat="49.87445" lon="4.82799">
        <ele>293</ele>
        <time>2021-08-27T07:41:33.000Z</time>
      </trkpt>
      <trkpt lat="49.87445" lon="4.828">
        <ele>293</ele>
        <time>2021-08-27T07:41:34.000Z</time>
      </trkpt>
      <trkpt lat="49.87445" lon="4.828">
        <ele>292</ele>
        <time>2021-08-27T07:41:35.000Z</time>
      </trkpt>
      <trkpt lat="49.87444" lon="4.82801">
        <ele>292</ele>
        <time>2021-08-27T07:41:36.000Z</time>
      </trkpt>
      <trkpt lat="49.87444" lon="4.82802">
        <ele>291</ele>
        <time>2021-08-27T07:41:37.000Z</time>
      </trkpt>
      <trkpt lat="49.87444" lon="4.82803">
        <ele>291</ele>
        <time>2021-08-27T07:41:38.000Z</time>
      </trkpt>
      <trkpt lat="49.87444" lon="4.82804">
        <ele>291</ele>
        <time>2021-08-27T07:41:39.000Z</time>
      </trkpt>
      <trkpt lat="49.87444" lon="4.82805">
        <ele>290</ele>
        <time>2021-08-27T07:41:40.000Z</time>
      </trkpt>
      <trkpt lat="49.87443" lon="4.82806">
        <ele>290</ele>
        <time>2021-08-27T07:41:41.000Z</time>
      </trkpt>
      <trkpt lat="49.87443" lon="4.82806">
        <ele>290</ele>
        <time>2021-08-27T07:41:42.000Z</time>
      </trkpt>
      <trkpt lat="49.87443" lon="4.82807">
        <ele>289</ele>
        <time>2021-08-27T07:41:43.000Z</time>
      </trkpt>
      <trkpt lat="49.87443" lon="4.82807">
        <ele>289</ele>
        <time>2021-08-27T07:41:44.000Z</time>
      </trkpt>
      <trkpt lat="49.87443" lon="4.82808">
        <ele>289</ele>
        <time>2021-08-27T07:41:45.000Z</time>
      </trkpt>
      <trkpt lat="49.87443" lon="4.82809">
        <ele>288</ele>
        <time>2021-08-27T07:41:46.000Z</time>
      </trkpt>
      <trkpt lat="49.87442" lon="4.8281">
        <ele>288</ele>
        <time>2021-08-27T07:41:47.000Z</time>
      </trkpt>
      <trkpt lat="49.87442" lon="4.82811">
        <ele>287</ele>
        <time>2021-08-27T07:41:48.000Z</time>
      </trkpt>
      <trkpt lat="49.87442" lon="4.82812">
        <ele>287</ele>
        <time>2021-08-27T07:41:49.000Z</time>
      </trkpt>
      <trkpt lat="49.87442" lon="4.82813">
        <ele>287</ele>
        <time>2021-08-27T07:41:50.000Z</time>
      </trkpt>
      <trkpt lat="49.87442" lon="4.82816">
        <ele>287</ele>
        <time>2021-08-27T07:41:51.000Z</time>
      </trkpt>
      <trkpt lat="49.87441" lon="4.8282">
        <ele>286</ele>
        <time>2021-08-27T07:41:52.000Z</time>
      </trkpt>
      <trkpt lat="49.8744" lon="4.82823">
        <ele>286</ele>
        <time>2021-08-27T07:41:53.000Z</time>
      </trkpt>
      <trkpt lat="49.8744" lon="4.82826">
        <ele>286</ele>
        <time>2021-08-27T07:41:54.000Z</time>
      </trkpt>
      <trkpt lat="49.8744" lon="4.8283">
        <ele>285</ele>
        <time>2021-08-27T07:41:55.000Z</time>
      </trkpt>
      <trkpt lat="49.8744" lon="4.82834">
        <ele>285</ele>
        <time>2021-08-27T07:41:56.000Z</time>
      </trkpt>
      <trkpt lat="49.8744" lon="4.82838">
        <ele>285</ele>
        <time>2021-08-27T07:41:57.000Z</time>
      </trkpt>
      <trkpt lat="49.87439" lon="4.82842">
        <ele>284</ele>
        <time>2021-08-27T07:41:58.000Z</time>
      </trkpt>
      <trkpt lat="49.87439" lon="4.82847">
        <ele>284</ele>
        <time>2021-08-27T07:41:59.000Z</time>
      </trkpt>
      <trkpt lat="49.87437" lon="4.82852">
        <ele>283</ele>
        <time>2021-08-27T07:42:00.000Z</time>
      </trkpt>
      <trkpt lat="49.87436" lon="4.82858">
        <ele>283</ele>
        <time>2021-08-27T07:42:01.000Z</time>
      </trkpt>
      <trkpt lat="49.87435" lon="4.82864">
        <ele>283</ele>
        <time>2021-08-27T07:42:02.000Z</time>
      </trkpt>
      <trkpt lat="49.87434" lon="4.8287">
        <ele>282</ele>
        <time>2021-08-27T07:42:03.000Z</time>
      </trkpt>
      <trkpt lat="49.87433" lon="4.82875">
        <ele>282</ele>
        <time>2021-08-27T07:42:04.000Z</time>
      </trkpt>
      <trkpt lat="49.87432" lon="4.8288">
        <ele>281</ele>
        <time>2021-08-27T07:42:05.000Z</time>
      </trkpt>
      <trkpt lat="49.87432" lon="4.82883">
        <ele>281</ele>
        <time>2021-08-27T07:42:06.000Z</time>
      </trkpt>
      <trkpt lat="49.87431" lon="4.82885">
        <ele>281</ele>
        <time>2021-08-27T07:42:07.000Z</time>
      </trkpt>
      <trkpt lat="49.87431" lon="4.82889">
        <ele>280</ele>
        <time>2021-08-27T07:42:08.000Z</time>
      </trkpt>
      <trkpt lat="49.8743" lon="4.82893">
        <ele>280</ele>
        <time>2021-08-27T07:42:09.000Z</time>
      </trkpt>
      <trkpt lat="49.87429" lon="4.82896">
        <ele>279</ele>
        <time>2021-08-27T07:42:10.000Z</time>
      </trkpt>
      <trkpt lat="49.87429" lon="4.82898">
        <ele>279</ele>
        <time>2021-08-27T07:42:11.000Z</time>
      </trkpt>
      <trkpt lat="49.87428" lon="4.82899">
        <ele>279</ele>
        <time>2021-08-27T07:42:12.000Z</time>
      </trkpt>
      <trkpt lat="49.87428" lon="4.82899">
        <ele>278</ele>
        <time>2021-08-27T07:42:13.000Z</time>
      </trkpt>
      <trkpt lat="49.87428" lon="4.82899">
        <ele>278</ele>
        <time>2021-08-27T07:42:14.000Z</time>
      </trkpt>
      <trkpt lat="49.87427" lon="4.829">
        <ele>277</ele>
        <time>2021-08-27T07:42:15.000Z</time>
      </trkpt>
      <trkpt lat="49.87427" lon="4.829">
        <ele>277</ele>
        <time>2021-08-27T07:42:16.000Z</time>
      </trkpt>
      <trkpt lat="49.87427" lon="4.829">
        <ele>277</ele>
        <time>2021-08-27T07:42:17.000Z</time>
      </trkpt>
      <trkpt lat="49.87426" lon="4.82901">
        <ele>276</ele>
        <time>2021-08-27T07:42:18.000Z</time>
      </trkpt>
      <trkpt lat="49.87426" lon="4.82902">
        <ele>276</ele>
        <time>2021-08-27T07:42:19.000Z</time>
      </trkpt>
      <trkpt lat="49.87426" lon="4.82902">
        <ele>276</ele>
        <time>2021-08-27T07:42:20.000Z</time>
      </trkpt>
      <trkpt lat="49.87426" lon="4.82902">
        <ele>275</ele>
        <time>2021-08-27T07:42:21.000Z</time>
      </trkpt>
      <trkpt lat="49.87426" lon="4.82902">
        <ele>275</ele>
        <time>2021-08-27T07:42:22.000Z</time>
      </trkpt>
      <trkpt lat="49.87426" lon="4.82903">
        <ele>275</ele>
        <time>2021-08-27T07:42:23.000Z</time>
      </trkpt>
      <trkpt lat="49.87426" lon="4.82903">
        <ele>274</ele>
        <time>2021-08-27T07:42:24.000Z</time>
      </trkpt>
      <trkpt lat="49.87425" lon="4.82904">
        <ele>274</ele>
        <time>2021-08-27T07:42:25.000Z</time>
      </trkpt>
      <trkpt lat="49.87425" lon="4.82906">
        <ele>274</ele>
        <time>2021-08-27T07:42:26.000Z</time>
      </trkpt>
      <trkpt lat="49.87425" lon="4.82909">
        <ele>273</ele>
        <time>2021-08-27T07:42:27.000Z</time>
      </trkpt>
      <trkpt lat="49.87425" lon="4.82913">
        <ele>273</ele>
        <time>2021-08-27T07:42:28.000Z</time>
      </trkpt>
      <trkpt lat="49.87425" lon="4.82916">
        <ele>273</ele>
        <time>2021-08-27T07:42:29.000Z</time>
      </trkpt>
      <trkpt lat="49.87424" lon="4.82919">
        <ele>272</ele>
        <time>2021-08-27T07:42:30.000Z</time>
      </trkpt>
      <trkpt lat="49.87425" lon="4.82922">
        <ele>272</ele>
        <time>2021-08-27T07:42:31.000Z</time>
      </trkpt>
      <trkpt lat="49.87425" lon="4.82924">
        <ele>272</ele>
        <time>2021-08-27T07:42:32.000Z</time>
      </trkpt>
      <trkpt lat="49.87425" lon="4.82927">
        <ele>271</ele>
        <time>2021-08-27T07:42:33.000Z</time>
      </trkpt>
      <trkpt lat="49.87424" lon="4.82929">
        <ele>271</ele>
        <time>2021-08-27T07:42:34.000Z</time>
      </trkpt>
      <trkpt lat="49.87423" lon="4.82931">
        <ele>271</ele>
        <time>2021-08-27T07:42:35.000Z</time>
      </trkpt>
      <trkpt lat="49.87422" lon="4.82934">
        <ele>270</ele>
        <time>2021-08-27T07:42:36.000Z</time>
      </trkpt>
      <trkpt lat="49.87422" lon="4.82937">
        <ele>270</ele>
        <time>2021-08-27T07:42:37.000Z</time>
      </trkpt>
      <trkpt lat="49.87421" lon="4.82942">
        <ele>269</ele>
        <time>2021-08-27T07:42:38.000Z</time>
      </trkpt>
      <trkpt lat="49.87421" lon="4.82947">
        <ele>269</ele>
        <time>2021-08-27T07:42:39.000Z</time>
      </trkpt>
      <trkpt lat="49.87422" lon="4.82951">
        <ele>269</ele>
        <time>2021-08-27T07:42:40.000Z</time>
      </trkpt>
      <trkpt lat="49.87424" lon="4.82956">
        <ele>268</ele>
        <time>2021-08-27T07:42:41.000Z</time>
      </trkpt>
      <trkpt lat="49.87426" lon="4.82962">
        <ele>268</ele>
        <time>2021-08-27T07:42:42.000Z</time>
      </trkpt>
      <trkpt lat="49.87429" lon="4.82967">
        <ele>268</ele>
        <time>2021-08-27T07:42:43.000Z</time>
      </trkpt>
      <trkpt lat="49.87431" lon="4.82972">
        <ele>268</ele>
        <time>2021-08-27T07:42:44.000Z</time>
      </trkpt>
      <trkpt lat="49.87431" lon="4.82977">
        <ele>267</ele>
        <time>2021-08-27T07:42:45.000Z</time>
      </trkpt>
      <trkpt lat="49.87432" lon="4.82982">
        <ele>267</ele>
        <time>2021-08-27T07:42:46.000Z</time>
      </trkpt>
      <trkpt lat="49.87432" lon="4.82986">
        <ele>266</ele>
        <time>2021-08-27T07:42:47.000Z</time>
      </trkpt>
      <trkpt lat="49.87433" lon="4.82991">
        <ele>266</ele>
        <time>2021-08-27T07:42:48.000Z</time>
      </trkpt>
      <trkpt lat="49.87434" lon="4.82997">
        <ele>266</ele>
        <time>2021-08-27T07:42:49.000Z</time>
      </trkpt>
      <trkpt lat="49.87435" lon="4.83003">
        <ele>265</ele>
        <time>2021-08-27T07:42:50.000Z</time>
      </trkpt>
      <trkpt lat="49.87437" lon="4.83008">
        <ele>265</ele>
        <time>2021-08-27T07:42:51.000Z</time>
      </trkpt>
      <trkpt lat="49.87439" lon="4.83014">
        <ele>264</ele>
        <time>2021-08-27T07:42:52.000Z</time>
      </trkpt>
      <trkpt lat="49.8744" lon="4.8302">
        <ele>264</ele>
        <time>2021-08-27T07:42:53.000Z</time>
      </trkpt>
      <trkpt lat="49.87442" lon="4.83025">
        <ele>263</ele>
        <time>2021-08-27T07:42:54.000Z</time>
      </trkpt>
      <trkpt lat="49.87444" lon="4.83031">
        <ele>263</ele>
        <time>2021-08-27T07:42:55.000Z</time>
      </trkpt>
      <trkpt lat="49.87446" lon="4.83036">
        <ele>262</ele>
        <time>2021-08-27T07:42:56.000Z</time>
      </trkpt>
      <trkpt lat="49.87448" lon="4.83041">
        <ele>261</ele>
        <time>2021-08-27T07:42:57.000Z</time>
      </trkpt>
      <trkpt lat="49.8745" lon="4.83046">
        <ele>261</ele>
        <time>2021-08-27T07:42:58.000Z</time>
      </trkpt>
      <trkpt lat="49.87452" lon="4.8305">
        <ele>260</ele>
        <time>2021-08-27T07:42:59.000Z</time>
      </trkpt>
      <trkpt lat="49.87453" lon="4.83054">
        <ele>260</ele>
        <time>2021-08-27T07:43:00.000Z</time>
      </trkpt>
      <trkpt lat="49.87454" lon="4.83059">
        <ele>259</ele>
        <time>2021-08-27T07:43:01.000Z</time>
      </trkpt>
      <trkpt lat="49.87455" lon="4.83061">
        <ele>259</ele>
        <time>2021-08-27T07:43:02.000Z</time>
      </trkpt>
      <trkpt lat="49.87456" lon="4.83063">
        <ele>258</ele>
        <time>2021-08-27T07:43:03.000Z</time>
      </trkpt>
      <trkpt lat="49.87456" lon="4.83064">
        <ele>257</ele>
        <time>2021-08-27T07:43:04.000Z</time>
      </trkpt>
      <trkpt lat="49.87456" lon="4.83067">
        <ele>257</ele>
        <time>2021-08-27T07:43:05.000Z</time>
      </trkpt>
      <trkpt lat="49.87457" lon="4.8307">
        <ele>256</ele>
        <time>2021-08-27T07:43:06.000Z</time>
      </trkpt>
      <trkpt lat="49.87458" lon="4.83074">
        <ele>256</ele>
        <time>2021-08-27T07:43:07.000Z</time>
      </trkpt>
      <trkpt lat="49.87458" lon="4.83078">
        <ele>255</ele>
        <time>2021-08-27T07:43:08.000Z</time>
      </trkpt>
      <trkpt lat="49.87459" lon="4.83081">
        <ele>254</ele>
        <time>2021-08-27T07:43:09.000Z</time>
      </trkpt>
      <trkpt lat="49.87461" lon="4.83085">
        <ele>254</ele>
        <time>2021-08-27T07:43:10.000Z</time>
      </trkpt>
      <trkpt lat="49.87462" lon="4.83086">
        <ele>253</ele>
        <time>2021-08-27T07:43:11.000Z</time>
      </trkpt>
      <trkpt lat="49.87463" lon="4.83088">
        <ele>253</ele>
        <time>2021-08-27T07:43:12.000Z</time>
      </trkpt>
      <trkpt lat="49.87464" lon="4.8309">
        <ele>252</ele>
        <time>2021-08-27T07:43:13.000Z</time>
      </trkpt>
      <trkpt lat="49.87466" lon="4.83092">
        <ele>251</ele>
        <time>2021-08-27T07:43:14.000Z</time>
      </trkpt>
      <trkpt lat="49.87469" lon="4.83096">
        <ele>251</ele>
        <time>2021-08-27T07:43:15.000Z</time>
      </trkpt>
      <trkpt lat="49.87471" lon="4.831">
        <ele>250</ele>
        <time>2021-08-27T07:43:16.000Z</time>
      </trkpt>
      <trkpt lat="49.87474" lon="4.83105">
        <ele>249</ele>
        <time>2021-08-27T07:43:17.000Z</time>
      </trkpt>
      <trkpt lat="49.87476" lon="4.83109">
        <ele>248</ele>
        <time>2021-08-27T07:43:18.000Z</time>
      </trkpt>
      <trkpt lat="49.87477" lon="4.83113">
        <ele>248</ele>
        <time>2021-08-27T07:43:19.000Z</time>
      </trkpt>
      <trkpt lat="49.87478" lon="4.83118">
        <ele>247</ele>
        <time>2021-08-27T07:43:20.000Z</time>
      </trkpt>
      <trkpt lat="49.87479" lon="4.83122">
        <ele>247</ele>
        <time>2021-08-27T07:43:21.000Z</time>
      </trkpt>
      <trkpt lat="49.8748" lon="4.83126">
        <ele>246</ele>
        <time>2021-08-27T07:43:22.000Z</time>
      </trkpt>
      <trkpt lat="49.87481" lon="4.83132">
        <ele>245</ele>
        <time>2021-08-27T07:43:23.000Z</time>
      </trkpt>
      <trkpt lat="49.87482" lon="4.83138">
        <ele>244</ele>
        <time>2021-08-27T07:43:24.000Z</time>
      </trkpt>
      <trkpt lat="49.87484" lon="4.83145">
        <ele>244</ele>
        <time>2021-08-27T07:43:25.000Z</time>
      </trkpt>
      <trkpt lat="49.87485" lon="4.83151">
        <ele>243</ele>
        <time>2021-08-27T07:43:26.000Z</time>
      </trkpt>
      <trkpt lat="49.87487" lon="4.83158">
        <ele>242</ele>
        <time>2021-08-27T07:43:27.000Z</time>
      </trkpt>
      <trkpt lat="49.87488" lon="4.83164">
        <ele>242</ele>
        <time>2021-08-27T07:43:28.000Z</time>
      </trkpt>
      <trkpt lat="49.8749" lon="4.83168">
        <ele>241</ele>
        <time>2021-08-27T07:43:29.000Z</time>
      </trkpt>
      <trkpt lat="49.87492" lon="4.83172">
        <ele>240</ele>
        <time>2021-08-27T07:43:30.000Z</time>
      </trkpt>
      <trkpt lat="49.87495" lon="4.83178">
        <ele>239</ele>
        <time>2021-08-27T07:43:31.000Z</time>
      </trkpt>
      <trkpt lat="49.87497" lon="4.83184">
        <ele>238</ele>
        <time>2021-08-27T07:43:32.000Z</time>
      </trkpt>
      <trkpt lat="49.87499" lon="4.83192">
        <ele>237</ele>
        <time>2021-08-27T07:43:33.000Z</time>
      </trkpt>
      <trkpt lat="49.87501" lon="4.83199">
        <ele>237</ele>
        <time>2021-08-27T07:43:34.000Z</time>
      </trkpt>
      <trkpt lat="49.87503" lon="4.83207">
        <ele>236</ele>
        <time>2021-08-27T07:43:35.000Z</time>
      </trkpt>
      <trkpt lat="49.87505" lon="4.83214">
        <ele>235</ele>
        <time>2021-08-27T07:43:36.000Z</time>
      </trkpt>
      <trkpt lat="49.87506" lon="4.83221">
        <ele>234</ele>
        <time>2021-08-27T07:43:37.000Z</time>
      </trkpt>
      <trkpt lat="49.87507" lon="4.83227">
        <ele>233</ele>
        <time>2021-08-27T07:43:38.000Z</time>
      </trkpt>
      <trkpt lat="49.87509" lon="4.83232">
        <ele>232</ele>
        <time>2021-08-27T07:43:39.000Z</time>
      </trkpt>
      <trkpt lat="49.8751" lon="4.83236">
        <ele>231</ele>
        <time>2021-08-27T07:43:40.000Z</time>
      </trkpt>
      <trkpt lat="49.87512" lon="4.83242">
        <ele>230</ele>
        <time>2021-08-27T07:43:41.000Z</time>
      </trkpt>
      <trkpt lat="49.87515" lon="4.83248">
        <ele>229</ele>
        <time>2021-08-27T07:43:42.000Z</time>
      </trkpt>
      <trkpt lat="49.87517" lon="4.83254">
        <ele>229</ele>
        <time>2021-08-27T07:43:43.000Z</time>
      </trkpt>
      <trkpt lat="49.87519" lon="4.83259">
        <ele>228</ele>
        <time>2021-08-27T07:43:44.000Z</time>
      </trkpt>
      <trkpt lat="49.87522" lon="4.83264">
        <ele>227</ele>
        <time>2021-08-27T07:43:45.000Z</time>
      </trkpt>
      <trkpt lat="49.87524" lon="4.83268">
        <ele>226</ele>
        <time>2021-08-27T07:43:46.000Z</time>
      </trkpt>
      <trkpt lat="49.87525" lon="4.83273">
        <ele>225</ele>
        <time>2021-08-27T07:43:47.000Z</time>
      </trkpt>
      <trkpt lat="49.87526" lon="4.83277">
        <ele>225</ele>
        <time>2021-08-27T07:43:48.000Z</time>
      </trkpt>
      <trkpt lat="49.87527" lon="4.83282">
        <ele>224</ele>
        <time>2021-08-27T07:43:49.000Z</time>
      </trkpt>
      <trkpt lat="49.87529" lon="4.83286">
        <ele>223</ele>
        <time>2021-08-27T07:43:50.000Z</time>
      </trkpt>
      <trkpt lat="49.87529" lon="4.8329">
        <ele>222</ele>
        <time>2021-08-27T07:43:51.000Z</time>
      </trkpt>
      <trkpt lat="49.8753" lon="4.83293">
        <ele>222</ele>
        <time>2021-08-27T07:43:52.000Z</time>
      </trkpt>
      <trkpt lat="49.87531" lon="4.83297">
        <ele>221</ele>
        <time>2021-08-27T07:43:53.000Z</time>
      </trkpt>
      <trkpt lat="49.87532" lon="4.83301">
        <ele>220</ele>
        <time>2021-08-27T07:43:54.000Z</time>
      </trkpt>
      <trkpt lat="49.87533" lon="4.83304">
        <ele>220</ele>
        <time>2021-08-27T07:43:55.000Z</time>
      </trkpt>
      <trkpt lat="49.87534" lon="4.83309">
        <ele>219</ele>
        <time>2021-08-27T07:43:56.000Z</time>
      </trkpt>
      <trkpt lat="49.87535" lon="4.83313">
        <ele>219</ele>
        <time>2021-08-27T07:43:57.000Z</time>
      </trkpt>
      <trkpt lat="49.87535" lon="4.83317">
        <ele>218</ele>
        <time>2021-08-27T07:43:58.000Z</time>
      </trkpt>
      <trkpt lat="49.87536" lon="4.83322">
        <ele>218</ele>
        <time>2021-08-27T07:43:59.000Z</time>
      </trkpt>
      <trkpt lat="49.87537" lon="4.83327">
        <ele>217</ele>
        <time>2021-08-27T07:44:00.000Z</time>
      </trkpt>
      <trkpt lat="49.87538" lon="4.83332">
        <ele>216</ele>
        <time>2021-08-27T07:44:01.000Z</time>
      </trkpt>
      <trkpt lat="49.87539" lon="4.83337">
        <ele>216</ele>
        <time>2021-08-27T07:44:02.000Z</time>
      </trkpt>
      <trkpt lat="49.8754" lon="4.83342">
        <ele>215</ele>
        <time>2021-08-27T07:44:03.000Z</time>
      </trkpt>
      <trkpt lat="49.87541" lon="4.83347">
        <ele>215</ele>
        <time>2021-08-27T07:44:04.000Z</time>
      </trkpt>
      <trkpt lat="49.87542" lon="4.83352">
        <ele>214</ele>
        <time>2021-08-27T07:44:05.000Z</time>
      </trkpt>
      <trkpt lat="49.87543" lon="4.83356">
        <ele>214</ele>
        <time>2021-08-27T07:44:06.000Z</time>
      </trkpt>
      <trkpt lat="49.87544" lon="4.83362">
        <ele>213</ele>
        <time>2021-08-27T07:44:07.000Z</time>
      </trkpt>
      <trkpt lat="49.87545" lon="4.83367">
        <ele>213</ele>
        <time>2021-08-27T07:44:08.000Z</time>
      </trkpt>
      <trkpt lat="49.87546" lon="4.83372">
        <ele>213</ele>
        <time>2021-08-27T07:44:09.000Z</time>
      </trkpt>
      <trkpt lat="49.87548" lon="4.83378">
        <ele>212</ele>
        <time>2021-08-27T07:44:10.000Z</time>
      </trkpt>
      <trkpt lat="49.8755" lon="4.83382">
        <ele>212</ele>
        <time>2021-08-27T07:44:11.000Z</time>
      </trkpt>
      <trkpt lat="49.87551" lon="4.83387">
        <ele>212</ele>
        <time>2021-08-27T07:44:12.000Z</time>
      </trkpt>
      <trkpt lat="49.87553" lon="4.83393">
        <ele>211</ele>
        <time>2021-08-27T07:44:13.000Z</time>
      </trkpt>
      <trkpt lat="49.87555" lon="4.83398">
        <ele>211</ele>
        <time>2021-08-27T07:44:14.000Z</time>
      </trkpt>
      <trkpt lat="49.87556" lon="4.83403">
        <ele>211</ele>
        <time>2021-08-27T07:44:15.000Z</time>
      </trkpt>
      <trkpt lat="49.87557" lon="4.83407">
        <ele>210</ele>
        <time>2021-08-27T07:44:16.000Z</time>
      </trkpt>
      <trkpt lat="49.87558" lon="4.83411">
        <ele>210</ele>
        <time>2021-08-27T07:44:17.000Z</time>
      </trkpt>
      <trkpt lat="49.87559" lon="4.83415">
        <ele>209</ele>
        <time>2021-08-27T07:44:18.000Z</time>
      </trkpt>
      <trkpt lat="49.8756" lon="4.83419">
        <ele>209</ele>
        <time>2021-08-27T07:44:19.000Z</time>
      </trkpt>
      <trkpt lat="49.87561" lon="4.83424">
        <ele>209</ele>
        <time>2021-08-27T07:44:20.000Z</time>
      </trkpt>
      <trkpt lat="49.87563" lon="4.83428">
        <ele>208</ele>
        <time>2021-08-27T07:44:21.000Z</time>
      </trkpt>
      <trkpt lat="49.87564" lon="4.83432">
        <ele>208</ele>
        <time>2021-08-27T07:44:22.000Z</time>
      </trkpt>
      <trkpt lat="49.87565" lon="4.83436">
        <ele>208</ele>
        <time>2021-08-27T07:44:23.000Z</time>
      </trkpt>
      <trkpt lat="49.87566" lon="4.8344">
        <ele>207</ele>
        <time>2021-08-27T07:44:24.000Z</time>
      </trkpt>
      <trkpt lat="49.87568" lon="4.83443">
        <ele>207</ele>
        <time>2021-08-27T07:44:25.000Z</time>
      </trkpt>
      <trkpt lat="49.8757" lon="4.83446">
        <ele>207</ele>
        <time>2021-08-27T07:44:26.000Z</time>
      </trkpt>
      <trkpt lat="49.87571" lon="4.83448">
        <ele>207</ele>
        <time>2021-08-27T07:44:27.000Z</time>
      </trkpt>
      <trkpt lat="49.87573" lon="4.83451">
        <ele>206</ele>
        <time>2021-08-27T07:44:28.000Z</time>
      </trkpt>
      <trkpt lat="49.87576" lon="4.83454">
        <ele>206</ele>
        <time>2021-08-27T07:44:29.000Z</time>
      </trkpt>
      <trkpt lat="49.87579" lon="4.83458">
        <ele>206</ele>
        <time>2021-08-27T07:44:30.000Z</time>
      </trkpt>
      <trkpt lat="49.87582" lon="4.83461">
        <ele>205</ele>
        <time>2021-08-27T07:44:31.000Z</time>
      </trkpt>
      <trkpt lat="49.87586" lon="4.83465">
        <ele>205</ele>
        <time>2021-08-27T07:44:32.000Z</time>
      </trkpt>
      <trkpt lat="49.87589" lon="4.83468">
        <ele>205</ele>
        <time>2021-08-27T07:44:33.000Z</time>
      </trkpt>
      <trkpt lat="49.87593" lon="4.83472">
        <ele>204</ele>
        <time>2021-08-27T07:44:34.000Z</time>
      </trkpt>
      <trkpt lat="49.87596" lon="4.83476">
        <ele>204</ele>
        <time>2021-08-27T07:44:35.000Z</time>
      </trkpt>
      <trkpt lat="49.876" lon="4.8348">
        <ele>204</ele>
        <time>2021-08-27T07:44:36.000Z</time>
      </trkpt>
      <trkpt lat="49.87603" lon="4.83484">
        <ele>203</ele>
        <time>2021-08-27T07:44:37.000Z</time>
      </trkpt>
      <trkpt lat="49.87607" lon="4.83486">
        <ele>203</ele>
        <time>2021-08-27T07:44:38.000Z</time>
      </trkpt>
      <trkpt lat="49.87612" lon="4.8349">
        <ele>203</ele>
        <time>2021-08-27T07:44:39.000Z</time>
      </trkpt>
      <trkpt lat="49.87618" lon="4.83494">
        <ele>203</ele>
        <time>2021-08-27T07:44:40.000Z</time>
      </trkpt>
      <trkpt lat="49.87623" lon="4.83499">
        <ele>203</ele>
        <time>2021-08-27T07:44:41.000Z</time>
      </trkpt>
      <trkpt lat="49.87629" lon="4.83502">
        <ele>202</ele>
        <time>2021-08-27T07:44:42.000Z</time>
      </trkpt>
      <trkpt lat="49.87634" lon="4.83505">
        <ele>202</ele>
        <time>2021-08-27T07:44:43.000Z</time>
      </trkpt>
      <trkpt lat="49.87637" lon="4.83507">
        <ele>202</ele>
        <time>2021-08-27T07:44:44.000Z</time>
      </trkpt>
      <trkpt lat="49.87639" lon="4.83508">
        <ele>202</ele>
        <time>2021-08-27T07:44:45.000Z</time>
      </trkpt>
      <trkpt lat="49.87641" lon="4.83509">
        <ele>202</ele>
        <time>2021-08-27T07:44:46.000Z</time>
      </trkpt>
      <trkpt lat="49.87642" lon="4.83509">
        <ele>201</ele>
        <time>2021-08-27T07:44:47.000Z</time>
      </trkpt>
      <trkpt lat="49.87642" lon="4.8351">
        <ele>201</ele>
        <time>2021-08-27T07:44:48.000Z</time>
      </trkpt>
      <trkpt lat="49.87642" lon="4.83512">
        <ele>201</ele>
        <time>2021-08-27T07:44:49.000Z</time>
      </trkpt>
      <trkpt lat="49.87642" lon="4.83513">
        <ele>201</ele>
        <time>2021-08-27T07:44:50.000Z</time>
      </trkpt>
      <trkpt lat="49.87641" lon="4.83515">
        <ele>201</ele>
        <time>2021-08-27T07:44:51.000Z</time>
      </trkpt>
      <trkpt lat="49.8764" lon="4.83516">
        <ele>201</ele>
        <time>2021-08-27T07:44:52.000Z</time>
      </trkpt>
      <trkpt lat="49.8764" lon="4.83518">
        <ele>201</ele>
        <time>2021-08-27T07:44:53.000Z</time>
      </trkpt>
      <trkpt lat="49.87639" lon="4.83519">
        <ele>201</ele>
        <time>2021-08-27T07:44:54.000Z</time>
      </trkpt>
      <trkpt lat="49.87638" lon="4.8352">
        <ele>201</ele>
        <time>2021-08-27T07:44:55.000Z</time>
      </trkpt>
      <trkpt lat="49.87637" lon="4.83521">
        <ele>201</ele>
        <time>2021-08-27T07:44:56.000Z</time>
      </trkpt>
      <trkpt lat="49.87636" lon="4.83522">
        <ele>201</ele>
        <time>2021-08-27T07:44:57.000Z</time>
      </trkpt>
      <trkpt lat="49.87635" lon="4.83524">
        <ele>201</ele>
        <time>2021-08-27T07:44:58.000Z</time>
      </trkpt>
      <trkpt lat="49.87635" lon="4.83525">
        <ele>201</ele>
        <time>2021-08-27T07:44:59.000Z</time>
      </trkpt>
      <trkpt lat="49.87635" lon="4.83527">
        <ele>201</ele>
        <time>2021-08-27T07:45:00.000Z</time>
      </trkpt>
      <trkpt lat="49.87635" lon="4.8353">
        <ele>202</ele>
        <time>2021-08-27T07:45:01.000Z</time>
      </trkpt>
      <trkpt lat="49.87635" lon="4.83532">
        <ele>202</ele>
        <time>2021-08-27T07:45:02.000Z</time>
      </trkpt>
      <trkpt lat="49.87636" lon="4.83534">
        <ele>202</ele>
        <time>2021-08-27T07:45:03.000Z</time>
      </trkpt>
      <trkpt lat="49.87637" lon="4.83536">
        <ele>202</ele>
        <time>2021-08-27T07:45:04.000Z</time>
      </trkpt>
      <trkpt lat="49.87638" lon="4.83538">
        <ele>202</ele>
        <time>2021-08-27T07:45:05.000Z</time>
      </trkpt>
      <trkpt lat="49.87639" lon="4.8354">
        <ele>202</ele>
        <time>2021-08-27T07:45:06.000Z</time>
      </trkpt>
      <trkpt lat="49.8764" lon="4.83542">
        <ele>202</ele>
        <time>2021-08-27T07:45:07.000Z</time>
      </trkpt>
      <trkpt lat="49.87641" lon="4.83544">
        <ele>202</ele>
        <time>2021-08-27T07:45:08.000Z</time>
      </trkpt>
      <trkpt lat="49.87642" lon="4.83547">
        <ele>202</ele>
        <time>2021-08-27T07:45:09.000Z</time>
      </trkpt>
      <trkpt lat="49.87644" lon="4.8355">
        <ele>202</ele>
        <time>2021-08-27T07:45:10.000Z</time>
      </trkpt>
      <trkpt lat="49.87645" lon="4.83553">
        <ele>202</ele>
        <time>2021-08-27T07:45:11.000Z</time>
      </trkpt>
      <trkpt lat="49.87646" lon="4.83556">
        <ele>202</ele>
        <time>2021-08-27T07:45:12.000Z</time>
      </trkpt>
      <trkpt lat="49.87648" lon="4.83559">
        <ele>202</ele>
        <time>2021-08-27T07:45:13.000Z</time>
      </trkpt>
      <trkpt lat="49.87649" lon="4.83561">
        <ele>202</ele>
        <time>2021-08-27T07:45:14.000Z</time>
      </trkpt>
      <trkpt lat="49.87651" lon="4.83563">
        <ele>202</ele>
        <time>2021-08-27T07:45:15.000Z</time>
      </trkpt>
      <trkpt lat="49.87653" lon="4.83566">
        <ele>202</ele>
        <time>2021-08-27T07:45:16.000Z</time>
      </trkpt>
      <trkpt lat="49.87655" lon="4.83569">
        <ele>202</ele>
        <time>2021-08-27T07:45:17.000Z</time>
      </trkpt>
      <trkpt lat="49.87657" lon="4.83572">
        <ele>202</ele>
        <time>2021-08-27T07:45:18.000Z</time>
      </trkpt>
      <trkpt lat="49.8766" lon="4.83574">
        <ele>202</ele>
        <time>2021-08-27T07:45:19.000Z</time>
      </trkpt>
      <trkpt lat="49.87662" lon="4.83577">
        <ele>202</ele>
        <time>2021-08-27T07:45:20.000Z</time>
      </trkpt>
      <trkpt lat="49.87663" lon="4.83579">
        <ele>202</ele>
        <time>2021-08-27T07:45:21.000Z</time>
      </trkpt>
      <trkpt lat="49.87665" lon="4.83581">
        <ele>202</ele>
        <time>2021-08-27T07:45:22.000Z</time>
      </trkpt>
      <trkpt lat="49.87667" lon="4.83583">
        <ele>202</ele>
        <time>2021-08-27T07:45:23.000Z</time>
      </trkpt>
      <trkpt lat="49.87669" lon="4.83587">
        <ele>202</ele>
        <time>2021-08-27T07:45:24.000Z</time>
      </trkpt>
      <trkpt lat="49.87671" lon="4.8359">
        <ele>202</ele>
        <time>2021-08-27T07:45:25.000Z</time>
      </trkpt>
      <trkpt lat="49.87673" lon="4.83593">
        <ele>202</ele>
        <time>2021-08-27T07:45:26.000Z</time>
      </trkpt>
      <trkpt lat="49.87676" lon="4.83596">
        <ele>203</ele>
        <time>2021-08-27T07:45:27.000Z</time>
      </trkpt>
      <trkpt lat="49.87678" lon="4.836">
        <ele>203</ele>
        <time>2021-08-27T07:45:28.000Z</time>
      </trkpt>
      <trkpt lat="49.8768" lon="4.83603">
        <ele>203</ele>
        <time>2021-08-27T07:45:29.000Z</time>
      </trkpt>
      <trkpt lat="49.87683" lon="4.83605">
        <ele>203</ele>
        <time>2021-08-27T07:45:30.000Z</time>
      </trkpt>
      <trkpt lat="49.87685" lon="4.83608">
        <ele>203</ele>
        <time>2021-08-27T07:45:31.000Z</time>
      </trkpt>
      <trkpt lat="49.87687" lon="4.8361">
        <ele>203</ele>
        <time>2021-08-27T07:45:32.000Z</time>
      </trkpt>
      <trkpt lat="49.87689" lon="4.83613">
        <ele>203</ele>
        <time>2021-08-27T07:45:33.000Z</time>
      </trkpt>
      <trkpt lat="49.87691" lon="4.83615">
        <ele>203</ele>
        <time>2021-08-27T07:45:34.000Z</time>
      </trkpt>
      <trkpt lat="49.87694" lon="4.83618">
        <ele>203</ele>
        <time>2021-08-27T07:45:35.000Z</time>
      </trkpt>
      <trkpt lat="49.87696" lon="4.83621">
        <ele>204</ele>
        <time>2021-08-27T07:45:36.000Z</time>
      </trkpt>
      <trkpt lat="49.87699" lon="4.83624">
        <ele>204</ele>
        <time>2021-08-27T07:45:37.000Z</time>
      </trkpt>
      <trkpt lat="49.87701" lon="4.83626">
        <ele>204</ele>
        <time>2021-08-27T07:45:38.000Z</time>
      </trkpt>
      <trkpt lat="49.87702" lon="4.83627">
        <ele>204</ele>
        <time>2021-08-27T07:45:39.000Z</time>
      </trkpt>
      <trkpt lat="49.87703" lon="4.83629">
        <ele>204</ele>
        <time>2021-08-27T07:45:40.000Z</time>
      </trkpt>
      <trkpt lat="49.87705" lon="4.8363">
        <ele>204</ele>
        <time>2021-08-27T07:45:41.000Z</time>
      </trkpt>
      <trkpt lat="49.87706" lon="4.83631">
        <ele>204</ele>
        <time>2021-08-27T07:45:42.000Z</time>
      </trkpt>
      <trkpt lat="49.87709" lon="4.83632">
        <ele>204</ele>
        <time>2021-08-27T07:45:43.000Z</time>
      </trkpt>
      <trkpt lat="49.87712" lon="4.83634">
        <ele>204</ele>
        <time>2021-08-27T07:45:44.000Z</time>
      </trkpt>
      <trkpt lat="49.87716" lon="4.83634">
        <ele>204</ele>
        <time>2021-08-27T07:45:45.000Z</time>
      </trkpt>
      <trkpt lat="49.87719" lon="4.83635">
        <ele>204</ele>
        <time>2021-08-27T07:45:46.000Z</time>
      </trkpt>
      <trkpt lat="49.87721" lon="4.83636">
        <ele>204</ele>
        <time>2021-08-27T07:45:47.000Z</time>
      </trkpt>
      <trkpt lat="49.87724" lon="4.83637">
        <ele>204</ele>
        <time>2021-08-27T07:45:48.000Z</time>
      </trkpt>
      <trkpt lat="49.87728" lon="4.83638">
        <ele>204</ele>
        <time>2021-08-27T07:45:49.000Z</time>
      </trkpt>
      <trkpt lat="49.87732" lon="4.83639">
        <ele>204</ele>
        <time>2021-08-27T07:45:50.000Z</time>
      </trkpt>
      <trkpt lat="49.87735" lon="4.8364">
        <ele>204</ele>
        <time>2021-08-27T07:45:51.000Z</time>
      </trkpt>
      <trkpt lat="49.87738" lon="4.83641">
        <ele>204</ele>
        <time>2021-08-27T07:45:52.000Z</time>
      </trkpt>
      <trkpt lat="49.87741" lon="4.83642">
        <ele>204</ele>
        <time>2021-08-27T07:45:53.000Z</time>
      </trkpt>
      <trkpt lat="49.87744" lon="4.83644">
        <ele>204</ele>
        <time>2021-08-27T07:45:54.000Z</time>
      </trkpt>
      <trkpt lat="49.87748" lon="4.83645">
        <ele>204</ele>
        <time>2021-08-27T07:45:55.000Z</time>
      </trkpt>
      <trkpt lat="49.87752" lon="4.83646">
        <ele>204</ele>
        <time>2021-08-27T07:45:56.000Z</time>
      </trkpt>
      <trkpt lat="49.87755" lon="4.83648">
        <ele>204</ele>
        <time>2021-08-27T07:45:57.000Z</time>
      </trkpt>
      <trkpt lat="49.87759" lon="4.83651">
        <ele>204</ele>
        <time>2021-08-27T07:45:58.000Z</time>
      </trkpt>
      <trkpt lat="49.87762" lon="4.83653">
        <ele>204</ele>
        <time>2021-08-27T07:45:59.000Z</time>
      </trkpt>
      <trkpt lat="49.87766" lon="4.83656">
        <ele>204</ele>
        <time>2021-08-27T07:46:00.000Z</time>
      </trkpt>
      <trkpt lat="49.87769" lon="4.83658">
        <ele>204</ele>
        <time>2021-08-27T07:46:01.000Z</time>
      </trkpt>
      <trkpt lat="49.87772" lon="4.83661">
        <ele>204</ele>
        <time>2021-08-27T07:46:02.000Z</time>
      </trkpt>
      <trkpt lat="49.87776" lon="4.83663">
        <ele>204</ele>
        <time>2021-08-27T07:46:03.000Z</time>
      </trkpt>
      <trkpt lat="49.8778" lon="4.83666">
        <ele>204</ele>
        <time>2021-08-27T07:46:04.000Z</time>
      </trkpt>
      <trkpt lat="49.87783" lon="4.83668">
        <ele>203</ele>
        <time>2021-08-27T07:46:05.000Z</time>
      </trkpt>
      <trkpt lat="49.87786" lon="4.8367">
        <ele>203</ele>
        <time>2021-08-27T07:46:06.000Z</time>
      </trkpt>
      <trkpt lat="49.8779" lon="4.83672">
        <ele>203</ele>
        <time>2021-08-27T07:46:07.000Z</time>
      </trkpt>
      <trkpt lat="49.87793" lon="4.83674">
        <ele>203</ele>
        <time>2021-08-27T07:46:08.000Z</time>
      </trkpt>
      <trkpt lat="49.87797" lon="4.83676">
        <ele>202</ele>
        <time>2021-08-27T07:46:09.000Z</time>
      </trkpt>
      <trkpt lat="49.878" lon="4.83678">
        <ele>202</ele>
        <time>2021-08-27T07:46:10.000Z</time>
      </trkpt>
      <trkpt lat="49.87803" lon="4.83681">
        <ele>202</ele>
        <time>2021-08-27T07:46:11.000Z</time>
      </trkpt>
      <trkpt lat="49.87806" lon="4.83684">
        <ele>201</ele>
        <time>2021-08-27T07:46:12.000Z</time>
      </trkpt>
      <trkpt lat="49.87809" lon="4.83687">
        <ele>201</ele>
        <time>2021-08-27T07:46:13.000Z</time>
      </trkpt>
      <trkpt lat="49.87811" lon="4.8369">
        <ele>201</ele>
        <time>2021-08-27T07:46:14.000Z</time>
      </trkpt>
      <trkpt lat="49.87814" lon="4.83693">
        <ele>201</ele>
        <time>2021-08-27T07:46:15.000Z</time>
      </trkpt>
      <trkpt lat="49.87815" lon="4.83696">
        <ele>201</ele>
        <time>2021-08-27T07:46:16.000Z</time>
      </trkpt>
      <trkpt lat="49.87817" lon="4.83698">
        <ele>200</ele>
        <time>2021-08-27T07:46:17.000Z</time>
      </trkpt>
      <trkpt lat="49.87818" lon="4.83699">
        <ele>200</ele>
        <time>2021-08-27T07:46:18.000Z</time>
      </trkpt>
      <trkpt lat="49.8782" lon="4.83702">
        <ele>200</ele>
        <time>2021-08-27T07:46:19.000Z</time>
      </trkpt>
      <trkpt lat="49.87821" lon="4.83705">
        <ele>200</ele>
        <time>2021-08-27T07:46:20.000Z</time>
      </trkpt>
      <trkpt lat="49.87822" lon="4.83708">
        <ele>200</ele>
        <time>2021-08-27T07:46:21.000Z</time>
      </trkpt>
      <trkpt lat="49.87824" lon="4.83711">
        <ele>200</ele>
        <time>2021-08-27T07:46:22.000Z</time>
      </trkpt>
      <trkpt lat="49.87825" lon="4.83714">
        <ele>200</ele>
        <time>2021-08-27T07:46:23.000Z</time>
      </trkpt>
      <trkpt lat="49.87826" lon="4.83716">
        <ele>200</ele>
        <time>2021-08-27T07:46:24.000Z</time>
      </trkpt>
      <trkpt lat="49.87827" lon="4.83719">
        <ele>200</ele>
        <time>2021-08-27T07:46:25.000Z</time>
      </trkpt>
      <trkpt lat="49.87829" lon="4.83721">
        <ele>200</ele>
        <time>2021-08-27T07:46:26.000Z</time>
      </trkpt>
      <trkpt lat="49.87831" lon="4.83723">
        <ele>200</ele>
        <time>2021-08-27T07:46:27.000Z</time>
      </trkpt>
      <trkpt lat="49.87833" lon="4.83725">
        <ele>200</ele>
        <time>2021-08-27T07:46:28.000Z</time>
      </trkpt>
      <trkpt lat="49.87835" lon="4.83727">
        <ele>200</ele>
        <time>2021-08-27T07:46:29.000Z</time>
      </trkpt>
      <trkpt lat="49.87837" lon="4.83729">
        <ele>200</ele>
        <time>2021-08-27T07:46:30.000Z</time>
      </trkpt>
      <trkpt lat="49.87839" lon="4.83731">
        <ele>200</ele>
        <time>2021-08-27T07:46:31.000Z</time>
      </trkpt>
      <trkpt lat="49.87841" lon="4.83733">
        <ele>200</ele>
        <time>2021-08-27T07:46:32.000Z</time>
      </trkpt>
      <trkpt lat="49.87843" lon="4.83734">
        <ele>200</ele>
        <time>2021-08-27T07:46:33.000Z</time>
      </trkpt>
      <trkpt lat="49.87845" lon="4.83736">
        <ele>200</ele>
        <time>2021-08-27T07:46:34.000Z</time>
      </trkpt>
      <trkpt lat="49.87847" lon="4.83738">
        <ele>200</ele>
        <time>2021-08-27T07:46:35.000Z</time>
      </trkpt>
      <trkpt lat="49.87849" lon="4.8374">
        <ele>200</ele>
        <time>2021-08-27T07:46:36.000Z</time>
      </trkpt>
      <trkpt lat="49.87851" lon="4.83742">
        <ele>200</ele>
        <time>2021-08-27T07:46:37.000Z</time>
      </trkpt>
      <trkpt lat="49.87853" lon="4.83744">
        <ele>200</ele>
        <time>2021-08-27T07:46:38.000Z</time>
      </trkpt>
      <trkpt lat="49.87855" lon="4.83746">
        <ele>200</ele>
        <time>2021-08-27T07:46:39.000Z</time>
      </trkpt>
      <trkpt lat="49.87856" lon="4.83748">
        <ele>200</ele>
        <time>2021-08-27T07:46:40.000Z</time>
      </trkpt>
      <trkpt lat="49.87858" lon="4.8375">
        <ele>200</ele>
        <time>2021-08-27T07:46:41.000Z</time>
      </trkpt>
      <trkpt lat="49.87859" lon="4.83752">
        <ele>200</ele>
        <time>2021-08-27T07:46:42.000Z</time>
      </trkpt>
      <trkpt lat="49.8786" lon="4.83754">
        <ele>200</ele>
        <time>2021-08-27T07:46:43.000Z</time>
      </trkpt>
      <trkpt lat="49.87862" lon="4.83756">
        <ele>200</ele>
        <time>2021-08-27T07:46:44.000Z</time>
      </trkpt>
      <trkpt lat="49.87863" lon="4.83758">
        <ele>200</ele>
        <time>2021-08-27T07:46:45.000Z</time>
      </trkpt>
      <trkpt lat="49.87865" lon="4.83759">
        <ele>200</ele>
        <time>2021-08-27T07:46:46.000Z</time>
      </trkpt>
      <trkpt lat="49.87866" lon="4.83761">
        <ele>201</ele>
        <time>2021-08-27T07:46:47.000Z</time>
      </trkpt>
      <trkpt lat="49.87868" lon="4.83763">
        <ele>201</ele>
        <time>2021-08-27T07:46:48.000Z</time>
      </trkpt>
      <trkpt lat="49.87869" lon="4.83765">
        <ele>201</ele>
        <time>2021-08-27T07:46:49.000Z</time>
      </trkpt>
      <trkpt lat="49.8787" lon="4.83767">
        <ele>201</ele>
        <time>2021-08-27T07:46:50.000Z</time>
      </trkpt>
      <trkpt lat="49.87871" lon="4.83768">
        <ele>201</ele>
        <time>2021-08-27T07:46:51.000Z</time>
      </trkpt>
      <trkpt lat="49.87872" lon="4.83769">
        <ele>201</ele>
        <time>2021-08-27T07:46:52.000Z</time>
      </trkpt>
      <trkpt lat="49.87874" lon="4.83771">
        <ele>201</ele>
        <time>2021-08-27T07:46:53.000Z</time>
      </trkpt>
      <trkpt lat="49.87875" lon="4.83772">
        <ele>201</ele>
        <time>2021-08-27T07:46:54.000Z</time>
      </trkpt>
      <trkpt lat="49.87876" lon="4.83774">
        <ele>201</ele>
        <time>2021-08-27T07:46:55.000Z</time>
      </trkpt>
      <trkpt lat="49.87877" lon="4.83776">
        <ele>201</ele>
        <time>2021-08-27T07:46:56.000Z</time>
      </trkpt>
      <trkpt lat="49.87878" lon="4.83777">
        <ele>202</ele>
        <time>2021-08-27T07:46:57.000Z</time>
      </trkpt>
      <trkpt lat="49.87879" lon="4.83778">
        <ele>202</ele>
        <time>2021-08-27T07:46:58.000Z</time>
      </trkpt>
      <trkpt lat="49.8788" lon="4.8378">
        <ele>202</ele>
        <time>2021-08-27T07:46:59.000Z</time>
      </trkpt>
      <trkpt lat="49.87881" lon="4.83781">
        <ele>202</ele>
        <time>2021-08-27T07:47:00.000Z</time>
      </trkpt>
      <trkpt lat="49.87882" lon="4.83783">
        <ele>202</ele>
        <time>2021-08-27T07:47:01.000Z</time>
      </trkpt>
      <trkpt lat="49.87884" lon="4.83784">
        <ele>202</ele>
        <time>2021-08-27T07:47:02.000Z</time>
      </trkpt>
      <trkpt lat="49.87885" lon="4.83785">
        <ele>202</ele>
        <time>2021-08-27T07:47:03.000Z</time>
      </trkpt>
      <trkpt lat="49.87886" lon="4.83786">
        <ele>202</ele>
        <time>2021-08-27T07:47:04.000Z</time>
      </trkpt>
      <trkpt lat="49.87887" lon="4.83787">
        <ele>202</ele>
        <time>2021-08-27T07:47:05.000Z</time>
      </trkpt>
      <trkpt lat="49.87888" lon="4.83788">
        <ele>202</ele>
        <time>2021-08-27T07:47:06.000Z</time>
      </trkpt>
      <trkpt lat="49.8789" lon="4.8379">
        <ele>202</ele>
        <time>2021-08-27T07:47:07.000Z</time>
      </trkpt>
      <trkpt lat="49.87891" lon="4.83791">
        <ele>202</ele>
        <time>2021-08-27T07:47:08.000Z</time>
      </trkpt>
      <trkpt lat="49.87892" lon="4.83792">
        <ele>202</ele>
        <time>2021-08-27T07:47:09.000Z</time>
      </trkpt>
      <trkpt lat="49.87893" lon="4.83793">
        <ele>203</ele>
        <time>2021-08-27T07:47:10.000Z</time>
      </trkpt>
      <trkpt lat="49.87894" lon="4.83794">
        <ele>203</ele>
        <time>2021-08-27T07:47:11.000Z</time>
      </trkpt>
      <trkpt lat="49.87895" lon="4.83796">
        <ele>203</ele>
        <time>2021-08-27T07:47:12.000Z</time>
      </trkpt>
      <trkpt lat="49.87896" lon="4.83797">
        <ele>203</ele>
        <time>2021-08-27T07:47:13.000Z</time>
      </trkpt>
      <trkpt lat="49.87897" lon="4.83798">
        <ele>203</ele>
        <time>2021-08-27T07:47:14.000Z</time>
      </trkpt>
      <trkpt lat="49.87898" lon="4.838">
        <ele>203</ele>
        <time>2021-08-27T07:47:15.000Z</time>
      </trkpt>
      <trkpt lat="49.87899" lon="4.838">
        <ele>203</ele>
        <time>2021-08-27T07:47:16.000Z</time>
      </trkpt>
      <trkpt lat="49.87899" lon="4.83801">
        <ele>204</ele>
        <time>2021-08-27T07:47:17.000Z</time>
      </trkpt>
      <trkpt lat="49.879" lon="4.83803">
        <ele>204</ele>
        <time>2021-08-27T07:47:18.000Z</time>
      </trkpt>
      <trkpt lat="49.87901" lon="4.83804">
        <ele>204</ele>
        <time>2021-08-27T07:47:19.000Z</time>
      </trkpt>
      <trkpt lat="49.87902" lon="4.83806">
        <ele>205</ele>
        <time>2021-08-27T07:47:20.000Z</time>
      </trkpt>
      <trkpt lat="49.87903" lon="4.83807">
        <ele>205</ele>
        <time>2021-08-27T07:47:21.000Z</time>
      </trkpt>
      <trkpt lat="49.87904" lon="4.83808">
        <ele>205</ele>
        <time>2021-08-27T07:47:22.000Z</time>
      </trkpt>
      <trkpt lat="49.87905" lon="4.8381">
        <ele>205</ele>
        <time>2021-08-27T07:47:23.000Z</time>
      </trkpt>
      <trkpt lat="49.87906" lon="4.83811">
        <ele>206</ele>
        <time>2021-08-27T07:47:24.000Z</time>
      </trkpt>
      <trkpt lat="49.87907" lon="4.83812">
        <ele>206</ele>
        <time>2021-08-27T07:47:25.000Z</time>
      </trkpt>
      <trkpt lat="49.87908" lon="4.83814">
        <ele>206</ele>
        <time>2021-08-27T07:47:26.000Z</time>
      </trkpt>
      <trkpt lat="49.87908" lon="4.83815">
        <ele>207</ele>
        <time>2021-08-27T07:47:27.000Z</time>
      </trkpt>
      <trkpt lat="49.87909" lon="4.83816">
        <ele>207</ele>
        <time>2021-08-27T07:47:28.000Z</time>
      </trkpt>
      <trkpt lat="49.8791" lon="4.83817">
        <ele>207</ele>
        <time>2021-08-27T07:47:29.000Z</time>
      </trkpt>
      <trkpt lat="49.87911" lon="4.83819">
        <ele>208</ele>
        <time>2021-08-27T07:47:30.000Z</time>
      </trkpt>
      <trkpt lat="49.87912" lon="4.8382">
        <ele>208</ele>
        <time>2021-08-27T07:47:31.000Z</time>
      </trkpt>
      <trkpt lat="49.87913" lon="4.83821">
        <ele>208</ele>
        <time>2021-08-27T07:47:32.000Z</time>
      </trkpt>
      <trkpt lat="49.87915" lon="4.83822">
        <ele>208</ele>
        <time>2021-08-27T07:47:33.000Z</time>
      </trkpt>
      <trkpt lat="49.87915" lon="4.83822">
        <ele>209</ele>
        <time>2021-08-27T07:47:34.000Z</time>
      </trkpt>
      <trkpt lat="49.87917" lon="4.83823">
        <ele>209</ele>
        <time>2021-08-27T07:47:35.000Z</time>
      </trkpt>
      <trkpt lat="49.87918" lon="4.83824">
        <ele>209</ele>
        <time>2021-08-27T07:47:36.000Z</time>
      </trkpt>
      <trkpt lat="49.87919" lon="4.83825">
        <ele>209</ele>
        <time>2021-08-27T07:47:37.000Z</time>
      </trkpt>
      <trkpt lat="49.87919" lon="4.83826">
        <ele>210</ele>
        <time>2021-08-27T07:47:38.000Z</time>
      </trkpt>
      <trkpt lat="49.8792" lon="4.83827">
        <ele>210</ele>
        <time>2021-08-27T07:47:39.000Z</time>
      </trkpt>
      <trkpt lat="49.87921" lon="4.83828">
        <ele>210</ele>
        <time>2021-08-27T07:47:40.000Z</time>
      </trkpt>
      <trkpt lat="49.87923" lon="4.83829">
        <ele>211</ele>
        <time>2021-08-27T07:47:41.000Z</time>
      </trkpt>
      <trkpt lat="49.87924" lon="4.8383">
        <ele>211</ele>
        <time>2021-08-27T07:47:42.000Z</time>
      </trkpt>
      <trkpt lat="49.87925" lon="4.83832">
        <ele>211</ele>
        <time>2021-08-27T07:47:43.000Z</time>
      </trkpt>
      <trkpt lat="49.87926" lon="4.83833">
        <ele>212</ele>
        <time>2021-08-27T07:47:44.000Z</time>
      </trkpt>
      <trkpt lat="49.87927" lon="4.83834">
        <ele>212</ele>
        <time>2021-08-27T07:47:45.000Z</time>
      </trkpt>
      <trkpt lat="49.87928" lon="4.83835">
        <ele>212</ele>
        <time>2021-08-27T07:47:46.000Z</time>
      </trkpt>
      <trkpt lat="49.87929" lon="4.83837">
        <ele>213</ele>
        <time>2021-08-27T07:47:47.000Z</time>
      </trkpt>
      <trkpt lat="49.8793" lon="4.83838">
        <ele>213</ele>
        <time>2021-08-27T07:47:48.000Z</time>
      </trkpt>
      <trkpt lat="49.87931" lon="4.83839">
        <ele>213</ele>
        <time>2021-08-27T07:47:49.000Z</time>
      </trkpt>
      <trkpt lat="49.87932" lon="4.8384">
        <ele>214</ele>
        <time>2021-08-27T07:47:50.000Z</time>
      </trkpt>
      <trkpt lat="49.87933" lon="4.83841">
        <ele>214</ele>
        <time>2021-08-27T07:47:51.000Z</time>
      </trkpt>
      <trkpt lat="49.87934" lon="4.83843">
        <ele>214</ele>
        <time>2021-08-27T07:47:52.000Z</time>
      </trkpt>
      <trkpt lat="49.87935" lon="4.83844">
        <ele>214</ele>
        <time>2021-08-27T07:47:53.000Z</time>
      </trkpt>
      <trkpt lat="49.87936" lon="4.83846">
        <ele>215</ele>
        <time>2021-08-27T07:47:54.000Z</time>
      </trkpt>
      <trkpt lat="49.87937" lon="4.83847">
        <ele>215</ele>
        <time>2021-08-27T07:47:55.000Z</time>
      </trkpt>
      <trkpt lat="49.87937" lon="4.83848">
        <ele>215</ele>
        <time>2021-08-27T07:47:56.000Z</time>
      </trkpt>
      <trkpt lat="49.87938" lon="4.83849">
        <ele>216</ele>
        <time>2021-08-27T07:47:57.000Z</time>
      </trkpt>
      <trkpt lat="49.87939" lon="4.83851">
        <ele>216</ele>
        <time>2021-08-27T07:47:58.000Z</time>
      </trkpt>
      <trkpt lat="49.8794" lon="4.83852">
        <ele>216</ele>
        <time>2021-08-27T07:47:59.000Z</time>
      </trkpt>
      <trkpt lat="49.87941" lon="4.83854">
        <ele>216</ele>
        <time>2021-08-27T07:48:00.000Z</time>
      </trkpt>
      <trkpt lat="49.87942" lon="4.83855">
        <ele>217</ele>
        <time>2021-08-27T07:48:01.000Z</time>
      </trkpt>
      <trkpt lat="49.87943" lon="4.83857">
        <ele>217</ele>
        <time>2021-08-27T07:48:02.000Z</time>
      </trkpt>
      <trkpt lat="49.87944" lon="4.83859">
        <ele>217</ele>
        <time>2021-08-27T07:48:03.000Z</time>
      </trkpt>
      <trkpt lat="49.87945" lon="4.8386">
        <ele>218</ele>
        <time>2021-08-27T07:48:04.000Z</time>
      </trkpt>
      <trkpt lat="49.87946" lon="4.83862">
        <ele>218</ele>
        <time>2021-08-27T07:48:05.000Z</time>
      </trkpt>
      <trkpt lat="49.87947" lon="4.83864">
        <ele>218</ele>
        <time>2021-08-27T07:48:06.000Z</time>
      </trkpt>
      <trkpt lat="49.87948" lon="4.83866">
        <ele>218</ele>
        <time>2021-08-27T07:48:07.000Z</time>
      </trkpt>
      <trkpt lat="49.87949" lon="4.83867">
        <ele>219</ele>
        <time>2021-08-27T07:48:08.000Z</time>
      </trkpt>
      <trkpt lat="49.87949" lon="4.83869">
        <ele>219</ele>
        <time>2021-08-27T07:48:09.000Z</time>
      </trkpt>
      <trkpt lat="49.8795" lon="4.83871">
        <ele>219</ele>
        <time>2021-08-27T07:48:10.000Z</time>
      </trkpt>
      <trkpt lat="49.87951" lon="4.83872">
        <ele>219</ele>
        <time>2021-08-27T07:48:11.000Z</time>
      </trkpt>
      <trkpt lat="49.87952" lon="4.83875">
        <ele>220</ele>
        <time>2021-08-27T07:48:12.000Z</time>
      </trkpt>
      <trkpt lat="49.87952" lon="4.83877">
        <ele>220</ele>
        <time>2021-08-27T07:48:13.000Z</time>
      </trkpt>
      <trkpt lat="49.87952" lon="4.83879">
        <ele>220</ele>
        <time>2021-08-27T07:48:14.000Z</time>
      </trkpt>
      <trkpt lat="49.87951" lon="4.83882">
        <ele>221</ele>
        <time>2021-08-27T07:48:15.000Z</time>
      </trkpt>
      <trkpt lat="49.8795" lon="4.83884">
        <ele>221</ele>
        <time>2021-08-27T07:48:16.000Z</time>
      </trkpt>
      <trkpt lat="49.87949" lon="4.83884">
        <ele>221</ele>
        <time>2021-08-27T07:48:17.000Z</time>
      </trkpt>
      <trkpt lat="49.87947" lon="4.83884">
        <ele>221</ele>
        <time>2021-08-27T07:48:18.000Z</time>
      </trkpt>
      <trkpt lat="49.87946" lon="4.83884">
        <ele>222</ele>
        <time>2021-08-27T07:48:19.000Z</time>
      </trkpt>
      <trkpt lat="49.87946" lon="4.83885">
        <ele>222</ele>
        <time>2021-08-27T07:48:20.000Z</time>
      </trkpt>
      <trkpt lat="49.87946" lon="4.83886">
        <ele>222</ele>
        <time>2021-08-27T07:48:21.000Z</time>
      </trkpt>
      <trkpt lat="49.87947" lon="4.83887">
        <ele>222</ele>
        <time>2021-08-27T07:48:22.000Z</time>
      </trkpt>
      <trkpt lat="49.87948" lon="4.83888">
        <ele>222</ele>
        <time>2021-08-27T07:48:23.000Z</time>
      </trkpt>
      <trkpt lat="49.8795" lon="4.83888">
        <ele>222</ele>
        <time>2021-08-27T07:48:24.000Z</time>
      </trkpt>
      <trkpt lat="49.87953" lon="4.83888">
        <ele>222</ele>
        <time>2021-08-27T07:48:25.000Z</time>
      </trkpt>
      <trkpt lat="49.87954" lon="4.83889">
        <ele>222</ele>
        <time>2021-08-27T07:48:26.000Z</time>
      </trkpt>
      <trkpt lat="49.87955" lon="4.8389">
        <ele>223</ele>
        <time>2021-08-27T07:48:27.000Z</time>
      </trkpt>
      <trkpt lat="49.87957" lon="4.8389">
        <ele>223</ele>
        <time>2021-08-27T07:48:28.000Z</time>
      </trkpt>
      <trkpt lat="49.87959" lon="4.8389">
        <ele>223</ele>
        <time>2021-08-27T07:48:29.000Z</time>
      </trkpt>
      <trkpt lat="49.87961" lon="4.8389">
        <ele>223</ele>
        <time>2021-08-27T07:48:30.000Z</time>
      </trkpt>
      <trkpt lat="49.87963" lon="4.83889">
        <ele>223</ele>
        <time>2021-08-27T07:48:31.000Z</time>
      </trkpt>
      <trkpt lat="49.87966" lon="4.83889">
        <ele>223</ele>
        <time>2021-08-27T07:48:32.000Z</time>
      </trkpt>
      <trkpt lat="49.87969" lon="4.83889">
        <ele>223</ele>
        <time>2021-08-27T07:48:33.000Z</time>
      </trkpt>
      <trkpt lat="49.87972" lon="4.83888">
        <ele>223</ele>
        <time>2021-08-27T07:48:34.000Z</time>
      </trkpt>
      <trkpt lat="49.87975" lon="4.83887">
        <ele>224</ele>
        <time>2021-08-27T07:48:35.000Z</time>
      </trkpt>
      <trkpt lat="49.87978" lon="4.83886">
        <ele>224</ele>
        <time>2021-08-27T07:48:36.000Z</time>
      </trkpt>
      <trkpt lat="49.87981" lon="4.83885">
        <ele>224</ele>
        <time>2021-08-27T07:48:37.000Z</time>
      </trkpt>
      <trkpt lat="49.87984" lon="4.83884">
        <ele>224</ele>
        <time>2021-08-27T07:48:38.000Z</time>
      </trkpt>
      <trkpt lat="49.87988" lon="4.83884">
        <ele>224</ele>
        <time>2021-08-27T07:48:39.000Z</time>
      </trkpt>
      <trkpt lat="49.87991" lon="4.83883">
        <ele>224</ele>
        <time>2021-08-27T07:48:40.000Z</time>
      </trkpt>
      <trkpt lat="49.87995" lon="4.83883">
        <ele>224</ele>
        <time>2021-08-27T07:48:41.000Z</time>
      </trkpt>
      <trkpt lat="49.87998" lon="4.83883">
        <ele>224</ele>
        <time>2021-08-27T07:48:42.000Z</time>
      </trkpt>
      <trkpt lat="49.88001" lon="4.83882">
        <ele>225</ele>
        <time>2021-08-27T07:48:43.000Z</time>
      </trkpt>
      <trkpt lat="49.88003" lon="4.83881">
        <ele>225</ele>
        <time>2021-08-27T07:48:44.000Z</time>
      </trkpt>
      <trkpt lat="49.88005" lon="4.83881">
        <ele>225</ele>
        <time>2021-08-27T07:48:45.000Z</time>
      </trkpt>
      <trkpt lat="49.88008" lon="4.8388">
        <ele>225</ele>
        <time>2021-08-27T07:48:46.000Z</time>
      </trkpt>
      <trkpt lat="49.8801" lon="4.83879">
        <ele>225</ele>
        <time>2021-08-27T07:48:47.000Z</time>
      </trkpt>
      <trkpt lat="49.88013" lon="4.83878">
        <ele>225</ele>
        <time>2021-08-27T07:48:48.000Z</time>
      </trkpt>
      <trkpt lat="49.88016" lon="4.83878">
        <ele>225</ele>
        <time>2021-08-27T07:48:49.000Z</time>
      </trkpt>
      <trkpt lat="49.88019" lon="4.83878">
        <ele>226</ele>
        <time>2021-08-27T07:48:50.000Z</time>
      </trkpt>
      <trkpt lat="49.88021" lon="4.83879">
        <ele>226</ele>
        <time>2021-08-27T07:48:51.000Z</time>
      </trkpt>
      <trkpt lat="49.88023" lon="4.8388">
        <ele>226</ele>
        <time>2021-08-27T07:48:52.000Z</time>
      </trkpt>
      <trkpt lat="49.88025" lon="4.83881">
        <ele>226</ele>
        <time>2021-08-27T07:48:53.000Z</time>
      </trkpt>
      <trkpt lat="49.88027" lon="4.83882">
        <ele>226</ele>
        <time>2021-08-27T07:48:54.000Z</time>
      </trkpt>
      <trkpt lat="49.88029" lon="4.83883">
        <ele>227</ele>
        <time>2021-08-27T07:48:55.000Z</time>
      </trkpt>
      <trkpt lat="49.88031" lon="4.83885">
        <ele>227</ele>
        <time>2021-08-27T07:48:56.000Z</time>
      </trkpt>
      <trkpt lat="49.88033" lon="4.83887">
        <ele>227</ele>
        <time>2021-08-27T07:48:57.000Z</time>
      </trkpt>
      <trkpt lat="49.88035" lon="4.83888">
        <ele>227</ele>
        <time>2021-08-27T07:48:58.000Z</time>
      </trkpt>
      <trkpt lat="49.88037" lon="4.83889">
        <ele>228</ele>
        <time>2021-08-27T07:48:59.000Z</time>
      </trkpt>
      <trkpt lat="49.88038" lon="4.8389">
        <ele>228</ele>
        <time>2021-08-27T07:49:00.000Z</time>
      </trkpt>
      <trkpt lat="49.8804" lon="4.8389">
        <ele>228</ele>
        <time>2021-08-27T07:49:01.000Z</time>
      </trkpt>
      <trkpt lat="49.88042" lon="4.83891">
        <ele>228</ele>
        <time>2021-08-27T07:49:02.000Z</time>
      </trkpt>
      <trkpt lat="49.88044" lon="4.83892">
        <ele>228</ele>
        <time>2021-08-27T07:49:03.000Z</time>
      </trkpt>
      <trkpt lat="49.88046" lon="4.83893">
        <ele>228</ele>
        <time>2021-08-27T07:49:04.000Z</time>
      </trkpt>
      <trkpt lat="49.88049" lon="4.83892">
        <ele>228</ele>
        <time>2021-08-27T07:49:05.000Z</time>
      </trkpt>
      <trkpt lat="49.88051" lon="4.83891">
        <ele>228</ele>
        <time>2021-08-27T07:49:06.000Z</time>
      </trkpt>
      <trkpt lat="49.88053" lon="4.83891">
        <ele>228</ele>
        <time>2021-08-27T07:49:07.000Z</time>
      </trkpt>
      <trkpt lat="49.88054" lon="4.83891">
        <ele>228</ele>
        <time>2021-08-27T07:49:08.000Z</time>
      </trkpt>
      <trkpt lat="49.88055" lon="4.83891">
        <ele>228</ele>
        <time>2021-08-27T07:49:09.000Z</time>
      </trkpt>
      <trkpt lat="49.88056" lon="4.83891">
        <ele>228</ele>
        <time>2021-08-27T07:49:10.000Z</time>
      </trkpt>
      <trkpt lat="49.88057" lon="4.83891">
        <ele>228</ele>
        <time>2021-08-27T07:49:11.000Z</time>
      </trkpt>
      <trkpt lat="49.88059" lon="4.83892">
        <ele>228</ele>
        <time>2021-08-27T07:49:12.000Z</time>
      </trkpt>
      <trkpt lat="49.8806" lon="4.83892">
        <ele>228</ele>
        <time>2021-08-27T07:49:13.000Z</time>
      </trkpt>
      <trkpt lat="49.88062" lon="4.83894">
        <ele>229</ele>
        <time>2021-08-27T07:49:14.000Z</time>
      </trkpt>
      <trkpt lat="49.88064" lon="4.83895">
        <ele>229</ele>
        <time>2021-08-27T07:49:15.000Z</time>
      </trkpt>
      <trkpt lat="49.88066" lon="4.83896">
        <ele>229</ele>
        <time>2021-08-27T07:49:16.000Z</time>
      </trkpt>
      <trkpt lat="49.88068" lon="4.83896">
        <ele>229</ele>
        <time>2021-08-27T07:49:17.000Z</time>
      </trkpt>
      <trkpt lat="49.8807" lon="4.83895">
        <ele>229</ele>
        <time>2021-08-27T07:49:18.000Z</time>
      </trkpt>
      <trkpt lat="49.88072" lon="4.83894">
        <ele>229</ele>
        <time>2021-08-27T07:49:19.000Z</time>
      </trkpt>
      <trkpt lat="49.88074" lon="4.83894">
        <ele>229</ele>
        <time>2021-08-27T07:49:20.000Z</time>
      </trkpt>
      <trkpt lat="49.88076" lon="4.83894">
        <ele>229</ele>
        <time>2021-08-27T07:49:21.000Z</time>
      </trkpt>
      <trkpt lat="49.88078" lon="4.83894">
        <ele>229</ele>
        <time>2021-08-27T07:49:22.000Z</time>
      </trkpt>
      <trkpt lat="49.8808" lon="4.83894">
        <ele>229</ele>
        <time>2021-08-27T07:49:23.000Z</time>
      </trkpt>
      <trkpt lat="49.88082" lon="4.83893">
        <ele>230</ele>
        <time>2021-08-27T07:49:24.000Z</time>
      </trkpt>
      <trkpt lat="49.88084" lon="4.83893">
        <ele>230</ele>
        <time>2021-08-27T07:49:25.000Z</time>
      </trkpt>
      <trkpt lat="49.88086" lon="4.83893">
        <ele>230</ele>
        <time>2021-08-27T07:49:26.000Z</time>
      </trkpt>
      <trkpt lat="49.88087" lon="4.83893">
        <ele>230</ele>
        <time>2021-08-27T07:49:27.000Z</time>
      </trkpt>
      <trkpt lat="49.88089" lon="4.83893">
        <ele>230</ele>
        <time>2021-08-27T07:49:28.000Z</time>
      </trkpt>
      <trkpt lat="49.88091" lon="4.83894">
        <ele>231</ele>
        <time>2021-08-27T07:49:29.000Z</time>
      </trkpt>
      <trkpt lat="49.88093" lon="4.83895">
        <ele>231</ele>
        <time>2021-08-27T07:49:30.000Z</time>
      </trkpt>
      <trkpt lat="49.88094" lon="4.83896">
        <ele>231</ele>
        <time>2021-08-27T07:49:31.000Z</time>
      </trkpt>
      <trkpt lat="49.88096" lon="4.83896">
        <ele>231</ele>
        <time>2021-08-27T07:49:32.000Z</time>
      </trkpt>
      <trkpt lat="49.88097" lon="4.83896">
        <ele>231</ele>
        <time>2021-08-27T07:49:33.000Z</time>
      </trkpt>
      <trkpt lat="49.88098" lon="4.83896">
        <ele>232</ele>
        <time>2021-08-27T07:49:34.000Z</time>
      </trkpt>
      <trkpt lat="49.88098" lon="4.83896">
        <ele>232</ele>
        <time>2021-08-27T07:49:35.000Z</time>
      </trkpt>
      <trkpt lat="49.88098" lon="4.83896">
        <ele>232</ele>
        <time>2021-08-27T07:49:36.000Z</time>
      </trkpt>
      <trkpt lat="49.88098" lon="4.83896">
        <ele>232</ele>
        <time>2021-08-27T07:49:37.000Z</time>
      </trkpt>
      <trkpt lat="49.88099" lon="4.83896">
        <ele>232</ele>
        <time>2021-08-27T07:49:38.000Z</time>
      </trkpt>
      <trkpt lat="49.88099" lon="4.83896">
        <ele>232</ele>
        <time>2021-08-27T07:49:39.000Z</time>
      </trkpt>
      <trkpt lat="49.88099" lon="4.83896">
        <ele>232</ele>
        <time>2021-08-27T07:49:40.000Z</time>
      </trkpt>
      <trkpt lat="49.88099" lon="4.83896">
        <ele>232</ele>
        <time>2021-08-27T07:49:41.000Z</time>
      </trkpt>
      <trkpt lat="49.88099" lon="4.83896">
        <ele>232</ele>
        <time>2021-08-27T07:49:42.000Z</time>
      </trkpt>
      <trkpt lat="49.88099" lon="4.83896">
        <ele>232</ele>
        <time>2021-08-27T07:49:43.000Z</time>
      </trkpt>
      <trkpt lat="49.88099" lon="4.83896">
        <ele>232</ele>
        <time>2021-08-27T07:49:44.000Z</time>
      </trkpt>
      <trkpt lat="49.881" lon="4.83895">
        <ele>232</ele>
        <time>2021-08-27T07:49:45.000Z</time>
      </trkpt>
      <trkpt lat="49.88101" lon="4.83895">
        <ele>232</ele>
        <time>2021-08-27T07:49:46.000Z</time>
      </trkpt>
      <trkpt lat="49.88103" lon="4.83895">
        <ele>233</ele>
        <time>2021-08-27T07:49:47.000Z</time>
      </trkpt>
      <trkpt lat="49.88104" lon="4.83895">
        <ele>233</ele>
        <time>2021-08-27T07:49:48.000Z</time>
      </trkpt>
      <trkpt lat="49.88106" lon="4.83895">
        <ele>233</ele>
        <time>2021-08-27T07:49:49.000Z</time>
      </trkpt>
      <trkpt lat="49.88109" lon="4.83894">
        <ele>233</ele>
        <time>2021-08-27T07:49:50.000Z</time>
      </trkpt>
      <trkpt lat="49.88111" lon="4.83893">
        <ele>233</ele>
        <time>2021-08-27T07:49:51.000Z</time>
      </trkpt>
      <trkpt lat="49.88114" lon="4.83892">
        <ele>233</ele>
        <time>2021-08-27T07:49:52.000Z</time>
      </trkpt>
      <trkpt lat="49.88116" lon="4.83891">
        <ele>233</ele>
        <time>2021-08-27T07:49:53.000Z</time>
      </trkpt>
      <trkpt lat="49.88119" lon="4.83891">
        <ele>233</ele>
        <time>2021-08-27T07:49:54.000Z</time>
      </trkpt>
      <trkpt lat="49.88121" lon="4.83891">
        <ele>233</ele>
        <time>2021-08-27T07:49:55.000Z</time>
      </trkpt>
      <trkpt lat="49.88124" lon="4.83892">
        <ele>233</ele>
        <time>2021-08-27T07:49:56.000Z</time>
      </trkpt>
      <trkpt lat="49.88126" lon="4.83894">
        <ele>233</ele>
        <time>2021-08-27T07:49:57.000Z</time>
      </trkpt>
      <trkpt lat="49.88128" lon="4.83895">
        <ele>233</ele>
        <time>2021-08-27T07:49:58.000Z</time>
      </trkpt>
      <trkpt lat="49.8813" lon="4.83896">
        <ele>233</ele>
        <time>2021-08-27T07:49:59.000Z</time>
      </trkpt>
      <trkpt lat="49.88131" lon="4.83896">
        <ele>233</ele>
        <time>2021-08-27T07:50:00.000Z</time>
      </trkpt>
      <trkpt lat="49.88132" lon="4.83896">
        <ele>233</ele>
        <time>2021-08-27T07:50:01.000Z</time>
      </trkpt>
      <trkpt lat="49.88133" lon="4.83896">
        <ele>234</ele>
        <time>2021-08-27T07:50:02.000Z</time>
      </trkpt>
      <trkpt lat="49.88134" lon="4.83897">
        <ele>234</ele>
        <time>2021-08-27T07:50:03.000Z</time>
      </trkpt>
      <trkpt lat="49.88135" lon="4.83898">
        <ele>234</ele>
        <time>2021-08-27T07:50:04.000Z</time>
      </trkpt>
      <trkpt lat="49.88136" lon="4.83899">
        <ele>234</ele>
        <time>2021-08-27T07:50:05.000Z</time>
      </trkpt>
      <trkpt lat="49.88137" lon="4.839">
        <ele>234</ele>
        <time>2021-08-27T07:50:06.000Z</time>
      </trkpt>
      <trkpt lat="49.88137" lon="4.83901">
        <ele>234</ele>
        <time>2021-08-27T07:50:07.000Z</time>
      </trkpt>
      <trkpt lat="49.88138" lon="4.83901">
        <ele>234</ele>
        <time>2021-08-27T07:50:08.000Z</time>
      </trkpt>
      <trkpt lat="49.88139" lon="4.83902">
        <ele>235</ele>
        <time>2021-08-27T07:50:09.000Z</time>
      </trkpt>
      <trkpt lat="49.8814" lon="4.83903">
        <ele>235</ele>
        <time>2021-08-27T07:50:10.000Z</time>
      </trkpt>
      <trkpt lat="49.88141" lon="4.83904">
        <ele>235</ele>
        <time>2021-08-27T07:50:11.000Z</time>
      </trkpt>
      <trkpt lat="49.88142" lon="4.83905">
        <ele>235</ele>
        <time>2021-08-27T07:50:12.000Z</time>
      </trkpt>
      <trkpt lat="49.88143" lon="4.83905">
        <ele>235</ele>
        <time>2021-08-27T07:50:13.000Z</time>
      </trkpt>
      <trkpt lat="49.88143" lon="4.83906">
        <ele>236</ele>
        <time>2021-08-27T07:50:14.000Z</time>
      </trkpt>
      <trkpt lat="49.88144" lon="4.83906">
        <ele>236</ele>
        <time>2021-08-27T07:50:15.000Z</time>
      </trkpt>
      <trkpt lat="49.88145" lon="4.83906">
        <ele>236</ele>
        <time>2021-08-27T07:50:16.000Z</time>
      </trkpt>
      <trkpt lat="49.88146" lon="4.83906">
        <ele>236</ele>
        <time>2021-08-27T07:50:17.000Z</time>
      </trkpt>
      <trkpt lat="49.88147" lon="4.83905">
        <ele>236</ele>
        <time>2021-08-27T07:50:18.000Z</time>
      </trkpt>
      <trkpt lat="49.88148" lon="4.83905">
        <ele>237</ele>
        <time>2021-08-27T07:50:19.000Z</time>
      </trkpt>
      <trkpt lat="49.88148" lon="4.83906">
        <ele>237</ele>
        <time>2021-08-27T07:50:20.000Z</time>
      </trkpt>
      <trkpt lat="49.88149" lon="4.83906">
        <ele>237</ele>
        <time>2021-08-27T07:50:21.000Z</time>
      </trkpt>
      <trkpt lat="49.88151" lon="4.83906">
        <ele>237</ele>
        <time>2021-08-27T07:50:22.000Z</time>
      </trkpt>
      <trkpt lat="49.88152" lon="4.83906">
        <ele>237</ele>
        <time>2021-08-27T07:50:23.000Z</time>
      </trkpt>
      <trkpt lat="49.88153" lon="4.83905">
        <ele>237</ele>
        <time>2021-08-27T07:50:24.000Z</time>
      </trkpt>
      <trkpt lat="49.88155" lon="4.83905">
        <ele>237</ele>
        <time>2021-08-27T07:50:25.000Z</time>
      </trkpt>
      <trkpt lat="49.88157" lon="4.83906">
        <ele>237</ele>
        <time>2021-08-27T07:50:26.000Z</time>
      </trkpt>
      <trkpt lat="49.88159" lon="4.83906">
        <ele>238</ele>
        <time>2021-08-27T07:50:27.000Z</time>
      </trkpt>
      <trkpt lat="49.8816" lon="4.83907">
        <ele>238</ele>
        <time>2021-08-27T07:50:28.000Z</time>
      </trkpt>
      <trkpt lat="49.88162" lon="4.83908">
        <ele>238</ele>
        <time>2021-08-27T07:50:29.000Z</time>
      </trkpt>
      <trkpt lat="49.88164" lon="4.83908">
        <ele>238</ele>
        <time>2021-08-27T07:50:30.000Z</time>
      </trkpt>
      <trkpt lat="49.88165" lon="4.83908">
        <ele>238</ele>
        <time>2021-08-27T07:50:31.000Z</time>
      </trkpt>
      <trkpt lat="49.88167" lon="4.83909">
        <ele>238</ele>
        <time>2021-08-27T07:50:32.000Z</time>
      </trkpt>
      <trkpt lat="49.8817" lon="4.83909">
        <ele>238</ele>
        <time>2021-08-27T07:50:33.000Z</time>
      </trkpt>
      <trkpt lat="49.88172" lon="4.8391">
        <ele>239</ele>
        <time>2021-08-27T07:50:34.000Z</time>
      </trkpt>
      <trkpt lat="49.88173" lon="4.8391">
        <ele>239</ele>
        <time>2021-08-27T07:50:35.000Z</time>
      </trkpt>
      <trkpt lat="49.88175" lon="4.8391">
        <ele>239</ele>
        <time>2021-08-27T07:50:36.000Z</time>
      </trkpt>
      <trkpt lat="49.88178" lon="4.83909">
        <ele>239</ele>
        <time>2021-08-27T07:50:37.000Z</time>
      </trkpt>
      <trkpt lat="49.8818" lon="4.83907">
        <ele>239</ele>
        <time>2021-08-27T07:50:38.000Z</time>
      </trkpt>
      <trkpt lat="49.88182" lon="4.83904">
        <ele>239</ele>
        <time>2021-08-27T07:50:39.000Z</time>
      </trkpt>
      <trkpt lat="49.88184" lon="4.83901">
        <ele>239</ele>
        <time>2021-08-27T07:50:40.000Z</time>
      </trkpt>
      <trkpt lat="49.88187" lon="4.83899">
        <ele>239</ele>
        <time>2021-08-27T07:50:41.000Z</time>
      </trkpt>
      <trkpt lat="49.88189" lon="4.83898">
        <ele>239</ele>
        <time>2021-08-27T07:50:42.000Z</time>
      </trkpt>
      <trkpt lat="49.88192" lon="4.83897">
        <ele>239</ele>
        <time>2021-08-27T07:50:43.000Z</time>
      </trkpt>
      <trkpt lat="49.88195" lon="4.83896">
        <ele>238</ele>
        <time>2021-08-27T07:50:44.000Z</time>
      </trkpt>
      <trkpt lat="49.88198" lon="4.83893">
        <ele>238</ele>
        <time>2021-08-27T07:50:45.000Z</time>
      </trkpt>
      <trkpt lat="49.88201" lon="4.83889">
        <ele>238</ele>
        <time>2021-08-27T07:50:46.000Z</time>
      </trkpt>
      <trkpt lat="49.88204" lon="4.83884">
        <ele>238</ele>
        <time>2021-08-27T07:50:47.000Z</time>
      </trkpt>
      <trkpt lat="49.88208" lon="4.83881">
        <ele>238</ele>
        <time>2021-08-27T07:50:48.000Z</time>
      </trkpt>
      <trkpt lat="49.88212" lon="4.83879">
        <ele>238</ele>
        <time>2021-08-27T07:50:49.000Z</time>
      </trkpt>
      <trkpt lat="49.88216" lon="4.83877">
        <ele>238</ele>
        <time>2021-08-27T07:50:50.000Z</time>
      </trkpt>
      <trkpt lat="49.8822" lon="4.83875">
        <ele>238</ele>
        <time>2021-08-27T07:50:51.000Z</time>
      </trkpt>
      <trkpt lat="49.88224" lon="4.83873">
        <ele>238</ele>
        <time>2021-08-27T07:50:52.000Z</time>
      </trkpt>
      <trkpt lat="49.88228" lon="4.83871">
        <ele>238</ele>
        <time>2021-08-27T07:50:53.000Z</time>
      </trkpt>
      <trkpt lat="49.88231" lon="4.8387">
        <ele>238</ele>
        <time>2021-08-27T07:50:54.000Z</time>
      </trkpt>
      <trkpt lat="49.88235" lon="4.83869">
        <ele>238</ele>
        <time>2021-08-27T07:50:55.000Z</time>
      </trkpt>
      <trkpt lat="49.88239" lon="4.83869">
        <ele>238</ele>
        <time>2021-08-27T07:50:56.000Z</time>
      </trkpt>
      <trkpt lat="49.88242" lon="4.83869">
        <ele>238</ele>
        <time>2021-08-27T07:50:57.000Z</time>
      </trkpt>
      <trkpt lat="49.88244" lon="4.83869">
        <ele>238</ele>
        <time>2021-08-27T07:50:58.000Z</time>
      </trkpt>
      <trkpt lat="49.88246" lon="4.83868">
        <ele>238</ele>
        <time>2021-08-27T07:50:59.000Z</time>
      </trkpt>
      <trkpt lat="49.88247" lon="4.83868">
        <ele>238</ele>
        <time>2021-08-27T07:51:00.000Z</time>
      </trkpt>
      <trkpt lat="49.88249" lon="4.83867">
        <ele>238</ele>
        <time>2021-08-27T07:51:01.000Z</time>
      </trkpt>
      <trkpt lat="49.88251" lon="4.83866">
        <ele>238</ele>
        <time>2021-08-27T07:51:02.000Z</time>
      </trkpt>
      <trkpt lat="49.88255" lon="4.83864">
        <ele>238</ele>
        <time>2021-08-27T07:51:03.000Z</time>
      </trkpt>
      <trkpt lat="49.8826" lon="4.83864">
        <ele>238</ele>
        <time>2021-08-27T07:51:04.000Z</time>
      </trkpt>
      <trkpt lat="49.88264" lon="4.83863">
        <ele>238</ele>
        <time>2021-08-27T07:51:05.000Z</time>
      </trkpt>
      <trkpt lat="49.88269" lon="4.83864">
        <ele>238</ele>
        <time>2021-08-27T07:51:06.000Z</time>
      </trkpt>
      <trkpt lat="49.88273" lon="4.83864">
        <ele>238</ele>
        <time>2021-08-27T07:51:07.000Z</time>
      </trkpt>
      <trkpt lat="49.88277" lon="4.83864">
        <ele>238</ele>
        <time>2021-08-27T07:51:08.000Z</time>
      </trkpt>
      <trkpt lat="49.8828" lon="4.83863">
        <ele>238</ele>
        <time>2021-08-27T07:51:09.000Z</time>
      </trkpt>
      <trkpt lat="49.88284" lon="4.83862">
        <ele>238</ele>
        <time>2021-08-27T07:51:10.000Z</time>
      </trkpt>
      <trkpt lat="49.88289" lon="4.8386">
        <ele>238</ele>
        <time>2021-08-27T07:51:11.000Z</time>
      </trkpt>
      <trkpt lat="49.88294" lon="4.83859">
        <ele>238</ele>
        <time>2021-08-27T07:51:12.000Z</time>
      </trkpt>
      <trkpt lat="49.88299" lon="4.83857">
        <ele>238</ele>
        <time>2021-08-27T07:51:13.000Z</time>
      </trkpt>
      <trkpt lat="49.88303" lon="4.83856">
        <ele>237</ele>
        <time>2021-08-27T07:51:14.000Z</time>
      </trkpt>
      <trkpt lat="49.88309" lon="4.83856">
        <ele>237</ele>
        <time>2021-08-27T07:51:15.000Z</time>
      </trkpt>
      <trkpt lat="49.88315" lon="4.83856">
        <ele>237</ele>
        <time>2021-08-27T07:51:16.000Z</time>
      </trkpt>
      <trkpt lat="49.88321" lon="4.83856">
        <ele>237</ele>
        <time>2021-08-27T07:51:17.000Z</time>
      </trkpt>
      <trkpt lat="49.88327" lon="4.83855">
        <ele>236</ele>
        <time>2021-08-27T07:51:18.000Z</time>
      </trkpt>
      <trkpt lat="49.88333" lon="4.83854">
        <ele>236</ele>
        <time>2021-08-27T07:51:19.000Z</time>
      </trkpt>
      <trkpt lat="49.88339" lon="4.83853">
        <ele>236</ele>
        <time>2021-08-27T07:51:20.000Z</time>
      </trkpt>
      <trkpt lat="49.88345" lon="4.83853">
        <ele>236</ele>
        <time>2021-08-27T07:51:21.000Z</time>
      </trkpt>
      <trkpt lat="49.88352" lon="4.83852">
        <ele>236</ele>
        <time>2021-08-27T07:51:22.000Z</time>
      </trkpt>
      <trkpt lat="49.88359" lon="4.83852">
        <ele>235</ele>
        <time>2021-08-27T07:51:23.000Z</time>
      </trkpt>
      <trkpt lat="49.88365" lon="4.83852">
        <ele>235</ele>
        <time>2021-08-27T07:51:24.000Z</time>
      </trkpt>
      <trkpt lat="49.88371" lon="4.83852">
        <ele>235</ele>
        <time>2021-08-27T07:51:25.000Z</time>
      </trkpt>
      <trkpt lat="49.88378" lon="4.83853">
        <ele>235</ele>
        <time>2021-08-27T07:51:26.000Z</time>
      </trkpt>
      <trkpt lat="49.88384" lon="4.83853">
        <ele>235</ele>
        <time>2021-08-27T07:51:27.000Z</time>
      </trkpt>
      <trkpt lat="49.8839" lon="4.83853">
        <ele>235</ele>
        <time>2021-08-27T07:51:28.000Z</time>
      </trkpt>
      <trkpt lat="49.88395" lon="4.83852">
        <ele>234</ele>
        <time>2021-08-27T07:51:29.000Z</time>
      </trkpt>
      <trkpt lat="49.884" lon="4.83852">
        <ele>234</ele>
        <time>2021-08-27T07:51:30.000Z</time>
      </trkpt>
      <trkpt lat="49.88404" lon="4.83851">
        <ele>234</ele>
        <time>2021-08-27T07:51:31.000Z</time>
      </trkpt>
      <trkpt lat="49.88408" lon="4.8385">
        <ele>234</ele>
        <time>2021-08-27T07:51:32.000Z</time>
      </trkpt>
      <trkpt lat="49.88412" lon="4.83848">
        <ele>233</ele>
        <time>2021-08-27T07:51:33.000Z</time>
      </trkpt>
      <trkpt lat="49.88416" lon="4.83848">
        <ele>233</ele>
        <time>2021-08-27T07:51:34.000Z</time>
      </trkpt>
      <trkpt lat="49.88422" lon="4.83847">
        <ele>233</ele>
        <time>2021-08-27T07:51:35.000Z</time>
      </trkpt>
      <trkpt lat="49.88428" lon="4.83846">
        <ele>233</ele>
        <time>2021-08-27T07:51:36.000Z</time>
      </trkpt>
      <trkpt lat="49.88433" lon="4.83846">
        <ele>232</ele>
        <time>2021-08-27T07:51:37.000Z</time>
      </trkpt>
      <trkpt lat="49.88438" lon="4.83846">
        <ele>232</ele>
        <time>2021-08-27T07:51:38.000Z</time>
      </trkpt>
      <trkpt lat="49.88443" lon="4.83845">
        <ele>232</ele>
        <time>2021-08-27T07:51:39.000Z</time>
      </trkpt>
      <trkpt lat="49.88447" lon="4.83844">
        <ele>231</ele>
        <time>2021-08-27T07:51:40.000Z</time>
      </trkpt>
      <trkpt lat="49.88451" lon="4.83843">
        <ele>231</ele>
        <time>2021-08-27T07:51:41.000Z</time>
      </trkpt>
      <trkpt lat="49.88456" lon="4.83842">
        <ele>231</ele>
        <time>2021-08-27T07:51:42.000Z</time>
      </trkpt>
      <trkpt lat="49.8846" lon="4.83842">
        <ele>230</ele>
        <time>2021-08-27T07:51:43.000Z</time>
      </trkpt>
      <trkpt lat="49.88463" lon="4.83842">
        <ele>230</ele>
        <time>2021-08-27T07:51:44.000Z</time>
      </trkpt>
      <trkpt lat="49.88466" lon="4.83841">
        <ele>230</ele>
        <time>2021-08-27T07:51:45.000Z</time>
      </trkpt>
      <trkpt lat="49.88469" lon="4.8384">
        <ele>229</ele>
        <time>2021-08-27T07:51:46.000Z</time>
      </trkpt>
      <trkpt lat="49.88471" lon="4.83839">
        <ele>229</ele>
        <time>2021-08-27T07:51:47.000Z</time>
      </trkpt>
      <trkpt lat="49.88473" lon="4.83839">
        <ele>229</ele>
        <time>2021-08-27T07:51:48.000Z</time>
      </trkpt>
      <trkpt lat="49.88475" lon="4.83839">
        <ele>228</ele>
        <time>2021-08-27T07:51:49.000Z</time>
      </trkpt>
      <trkpt lat="49.88476" lon="4.8384">
        <ele>228</ele>
        <time>2021-08-27T07:51:50.000Z</time>
      </trkpt>
      <trkpt lat="49.88477" lon="4.83841">
        <ele>228</ele>
        <time>2021-08-27T07:51:51.000Z</time>
      </trkpt>
      <trkpt lat="49.88477" lon="4.83842">
        <ele>227</ele>
        <time>2021-08-27T07:51:52.000Z</time>
      </trkpt>
      <trkpt lat="49.88478" lon="4.83844">
        <ele>227</ele>
        <time>2021-08-27T07:51:53.000Z</time>
      </trkpt>
      <trkpt lat="49.88477" lon="4.83846">
        <ele>226</ele>
        <time>2021-08-27T07:51:54.000Z</time>
      </trkpt>
      <trkpt lat="49.88476" lon="4.83849">
        <ele>226</ele>
        <time>2021-08-27T07:51:55.000Z</time>
      </trkpt>
      <trkpt lat="49.88474" lon="4.83853">
        <ele>226</ele>
        <time>2021-08-27T07:51:56.000Z</time>
      </trkpt>
      <trkpt lat="49.88473" lon="4.83857">
        <ele>226</ele>
        <time>2021-08-27T07:51:57.000Z</time>
      </trkpt>
      <trkpt lat="49.88471" lon="4.83862">
        <ele>225</ele>
        <time>2021-08-27T07:51:58.000Z</time>
      </trkpt>
      <trkpt lat="49.88469" lon="4.83867">
        <ele>225</ele>
        <time>2021-08-27T07:51:59.000Z</time>
      </trkpt>
      <trkpt lat="49.88467" lon="4.83872">
        <ele>225</ele>
        <time>2021-08-27T07:52:00.000Z</time>
      </trkpt>
      <trkpt lat="49.88465" lon="4.83878">
        <ele>225</ele>
        <time>2021-08-27T07:52:01.000Z</time>
      </trkpt>
      <trkpt lat="49.88463" lon="4.83883">
        <ele>225</ele>
        <time>2021-08-27T07:52:02.000Z</time>
      </trkpt>
      <trkpt lat="49.8846" lon="4.83888">
        <ele>224</ele>
        <time>2021-08-27T07:52:03.000Z</time>
      </trkpt>
      <trkpt lat="49.88457" lon="4.83893">
        <ele>224</ele>
        <time>2021-08-27T07:52:04.000Z</time>
      </trkpt>
      <trkpt lat="49.88455" lon="4.83898">
        <ele>224</ele>
        <time>2021-08-27T07:52:05.000Z</time>
      </trkpt>
      <trkpt lat="49.88452" lon="4.83902">
        <ele>224</ele>
        <time>2021-08-27T07:52:06.000Z</time>
      </trkpt>
      <trkpt lat="49.88449" lon="4.83906">
        <ele>223</ele>
        <time>2021-08-27T07:52:07.000Z</time>
      </trkpt>
      <trkpt lat="49.88445" lon="4.8391">
        <ele>223</ele>
        <time>2021-08-27T07:52:08.000Z</time>
      </trkpt>
      <trkpt lat="49.88442" lon="4.83914">
        <ele>223</ele>
        <time>2021-08-27T07:52:09.000Z</time>
      </trkpt>
      <trkpt lat="49.88438" lon="4.83918">
        <ele>223</ele>
        <time>2021-08-27T07:52:10.000Z</time>
      </trkpt>
      <trkpt lat="49.88435" lon="4.8392">
        <ele>222</ele>
        <time>2021-08-27T07:52:11.000Z</time>
      </trkpt>
      <trkpt lat="49.88431" lon="4.83923">
        <ele>222</ele>
        <time>2021-08-27T07:52:12.000Z</time>
      </trkpt>
      <trkpt lat="49.88428" lon="4.83926">
        <ele>221</ele>
        <time>2021-08-27T07:52:13.000Z</time>
      </trkpt>
      <trkpt lat="49.88425" lon="4.83928">
        <ele>221</ele>
        <time>2021-08-27T07:52:14.000Z</time>
      </trkpt>
      <trkpt lat="49.88421" lon="4.83929">
        <ele>221</ele>
        <time>2021-08-27T07:52:15.000Z</time>
      </trkpt>
      <trkpt lat="49.88416" lon="4.83929">
        <ele>220</ele>
        <time>2021-08-27T07:52:16.000Z</time>
      </trkpt>
      <trkpt lat="49.88412" lon="4.83929">
        <ele>220</ele>
        <time>2021-08-27T07:52:17.000Z</time>
      </trkpt>
      <trkpt lat="49.88409" lon="4.8393">
        <ele>219</ele>
        <time>2021-08-27T07:52:18.000Z</time>
      </trkpt>
      <trkpt lat="49.88406" lon="4.83931">
        <ele>219</ele>
        <time>2021-08-27T07:52:19.000Z</time>
      </trkpt>
      <trkpt lat="49.88403" lon="4.83931">
        <ele>218</ele>
        <time>2021-08-27T07:52:20.000Z</time>
      </trkpt>
      <trkpt lat="49.88399" lon="4.83931">
        <ele>218</ele>
        <time>2021-08-27T07:52:21.000Z</time>
      </trkpt>
      <trkpt lat="49.88395" lon="4.83931">
        <ele>217</ele>
        <time>2021-08-27T07:52:22.000Z</time>
      </trkpt>
      <trkpt lat="49.88391" lon="4.83931">
        <ele>217</ele>
        <time>2021-08-27T07:52:23.000Z</time>
      </trkpt>
      <trkpt lat="49.88385" lon="4.83931">
        <ele>217</ele>
        <time>2021-08-27T07:52:24.000Z</time>
      </trkpt>
      <trkpt lat="49.8838" lon="4.83931">
        <ele>216</ele>
        <time>2021-08-27T07:52:25.000Z</time>
      </trkpt>
      <trkpt lat="49.88375" lon="4.83932">
        <ele>216</ele>
        <time>2021-08-27T07:52:26.000Z</time>
      </trkpt>
      <trkpt lat="49.8837" lon="4.83933">
        <ele>215</ele>
        <time>2021-08-27T07:52:27.000Z</time>
      </trkpt>
      <trkpt lat="49.88364" lon="4.83934">
        <ele>215</ele>
        <time>2021-08-27T07:52:28.000Z</time>
      </trkpt>
      <trkpt lat="49.88359" lon="4.83935">
        <ele>214</ele>
        <time>2021-08-27T07:52:29.000Z</time>
      </trkpt>
      <trkpt lat="49.88354" lon="4.83937">
        <ele>214</ele>
        <time>2021-08-27T07:52:30.000Z</time>
      </trkpt>
      <trkpt lat="49.8835" lon="4.83939">
        <ele>213</ele>
        <time>2021-08-27T07:52:31.000Z</time>
      </trkpt>
      <trkpt lat="49.88345" lon="4.8394">
        <ele>212</ele>
        <time>2021-08-27T07:52:32.000Z</time>
      </trkpt>
      <trkpt lat="49.8834" lon="4.83942">
        <ele>212</ele>
        <time>2021-08-27T07:52:33.000Z</time>
      </trkpt>
      <trkpt lat="49.88336" lon="4.83944">
        <ele>212</ele>
        <time>2021-08-27T07:52:34.000Z</time>
      </trkpt>
      <trkpt lat="49.88332" lon="4.83946">
        <ele>211</ele>
        <time>2021-08-27T07:52:35.000Z</time>
      </trkpt>
      <trkpt lat="49.88328" lon="4.83948">
        <ele>211</ele>
        <time>2021-08-27T07:52:36.000Z</time>
      </trkpt>
      <trkpt lat="49.88324" lon="4.8395">
        <ele>210</ele>
        <time>2021-08-27T07:52:37.000Z</time>
      </trkpt>
      <trkpt lat="49.8832" lon="4.83952">
        <ele>210</ele>
        <time>2021-08-27T07:52:38.000Z</time>
      </trkpt>
      <trkpt lat="49.88317" lon="4.83954">
        <ele>209</ele>
        <time>2021-08-27T07:52:39.000Z</time>
      </trkpt>
      <trkpt lat="49.88312" lon="4.83956">
        <ele>209</ele>
        <time>2021-08-27T07:52:40.000Z</time>
      </trkpt>
      <trkpt lat="49.88308" lon="4.83958">
        <ele>209</ele>
        <time>2021-08-27T07:52:41.000Z</time>
      </trkpt>
      <trkpt lat="49.88304" lon="4.8396">
        <ele>208</ele>
        <time>2021-08-27T07:52:42.000Z</time>
      </trkpt>
      <trkpt lat="49.883" lon="4.83961">
        <ele>208</ele>
        <time>2021-08-27T07:52:43.000Z</time>
      </trkpt>
      <trkpt lat="49.88296" lon="4.83962">
        <ele>207</ele>
        <time>2021-08-27T07:52:44.000Z</time>
      </trkpt>
      <trkpt lat="49.88293" lon="4.83964">
        <ele>207</ele>
        <time>2021-08-27T07:52:45.000Z</time>
      </trkpt>
      <trkpt lat="49.88288" lon="4.83967">
        <ele>206</ele>
        <time>2021-08-27T07:52:46.000Z</time>
      </trkpt>
      <trkpt lat="49.88284" lon="4.83969">
        <ele>206</ele>
        <time>2021-08-27T07:52:47.000Z</time>
      </trkpt>
      <trkpt lat="49.88281" lon="4.83971">
        <ele>205</ele>
        <time>2021-08-27T07:52:48.000Z</time>
      </trkpt>
      <trkpt lat="49.88279" lon="4.83973">
        <ele>205</ele>
        <time>2021-08-27T07:52:49.000Z</time>
      </trkpt>
      <trkpt lat="49.88276" lon="4.83975">
        <ele>205</ele>
        <time>2021-08-27T07:52:50.000Z</time>
      </trkpt>
      <trkpt lat="49.88273" lon="4.83977">
        <ele>204</ele>
        <time>2021-08-27T07:52:51.000Z</time>
      </trkpt>
      <trkpt lat="49.88267" lon="4.83979">
        <ele>204</ele>
        <time>2021-08-27T07:52:52.000Z</time>
      </trkpt>
      <trkpt lat="49.88262" lon="4.83982">
        <ele>203</ele>
        <time>2021-08-27T07:52:53.000Z</time>
      </trkpt>
      <trkpt lat="49.88258" lon="4.83986">
        <ele>203</ele>
        <time>2021-08-27T07:52:54.000Z</time>
      </trkpt>
      <trkpt lat="49.88254" lon="4.83989">
        <ele>203</ele>
        <time>2021-08-27T07:52:55.000Z</time>
      </trkpt>
      <trkpt lat="49.8825" lon="4.83993">
        <ele>202</ele>
        <time>2021-08-27T07:52:56.000Z</time>
      </trkpt>
      <trkpt lat="49.88247" lon="4.83996">
        <ele>202</ele>
        <time>2021-08-27T07:52:57.000Z</time>
      </trkpt>
      <trkpt lat="49.88244" lon="4.84">
        <ele>201</ele>
        <time>2021-08-27T07:52:58.000Z</time>
      </trkpt>
      <trkpt lat="49.88239" lon="4.84003">
        <ele>201</ele>
        <time>2021-08-27T07:52:59.000Z</time>
      </trkpt>
      <trkpt lat="49.88235" lon="4.84006">
        <ele>200</ele>
        <time>2021-08-27T07:53:00.000Z</time>
      </trkpt>
      <trkpt lat="49.88231" lon="4.8401">
        <ele>200</ele>
        <time>2021-08-27T07:53:01.000Z</time>
      </trkpt>
      <trkpt lat="49.88228" lon="4.84014">
        <ele>199</ele>
        <time>2021-08-27T07:53:02.000Z</time>
      </trkpt>
      <trkpt lat="49.88224" lon="4.84017">
        <ele>199</ele>
        <time>2021-08-27T07:53:03.000Z</time>
      </trkpt>
      <trkpt lat="49.8822" lon="4.8402">
        <ele>198</ele>
        <time>2021-08-27T07:53:04.000Z</time>
      </trkpt>
      <trkpt lat="49.88216" lon="4.84023">
        <ele>198</ele>
        <time>2021-08-27T07:53:05.000Z</time>
      </trkpt>
      <trkpt lat="49.88212" lon="4.84025">
        <ele>197</ele>
        <time>2021-08-27T07:53:06.000Z</time>
      </trkpt>
      <trkpt lat="49.88209" lon="4.84027">
        <ele>197</ele>
        <time>2021-08-27T07:53:07.000Z</time>
      </trkpt>
      <trkpt lat="49.88205" lon="4.84029">
        <ele>196</ele>
        <time>2021-08-27T07:53:08.000Z</time>
      </trkpt>
      <trkpt lat="49.88202" lon="4.8403">
        <ele>196</ele>
        <time>2021-08-27T07:53:09.000Z</time>
      </trkpt>
      <trkpt lat="49.88198" lon="4.84031">
        <ele>195</ele>
        <time>2021-08-27T07:53:10.000Z</time>
      </trkpt>
      <trkpt lat="49.88195" lon="4.84032">
        <ele>195</ele>
        <time>2021-08-27T07:53:11.000Z</time>
      </trkpt>
      <trkpt lat="49.88192" lon="4.84033">
        <ele>194</ele>
        <time>2021-08-27T07:53:12.000Z</time>
      </trkpt>
      <trkpt lat="49.88189" lon="4.84035">
        <ele>194</ele>
        <time>2021-08-27T07:53:13.000Z</time>
      </trkpt>
      <trkpt lat="49.88185" lon="4.84037">
        <ele>193</ele>
        <time>2021-08-27T07:53:14.000Z</time>
      </trkpt>
      <trkpt lat="49.88181" lon="4.8404">
        <ele>192</ele>
        <time>2021-08-27T07:53:15.000Z</time>
      </trkpt>
      <trkpt lat="49.88176" lon="4.84044">
        <ele>192</ele>
        <time>2021-08-27T07:53:16.000Z</time>
      </trkpt>
      <trkpt lat="49.88171" lon="4.84048">
        <ele>191</ele>
        <time>2021-08-27T07:53:17.000Z</time>
      </trkpt>
      <trkpt lat="49.88166" lon="4.84052">
        <ele>190</ele>
        <time>2021-08-27T07:53:18.000Z</time>
      </trkpt>
      <trkpt lat="49.88161" lon="4.84055">
        <ele>189</ele>
        <time>2021-08-27T07:53:19.000Z</time>
      </trkpt>
      <trkpt lat="49.88157" lon="4.84057">
        <ele>189</ele>
        <time>2021-08-27T07:53:20.000Z</time>
      </trkpt>
      <trkpt lat="49.88153" lon="4.84056">
        <ele>188</ele>
        <time>2021-08-27T07:53:21.000Z</time>
      </trkpt>
      <trkpt lat="49.8815" lon="4.84055">
        <ele>187</ele>
        <time>2021-08-27T07:53:22.000Z</time>
      </trkpt>
      <trkpt lat="49.88147" lon="4.84054">
        <ele>186</ele>
        <time>2021-08-27T07:53:23.000Z</time>
      </trkpt>
      <trkpt lat="49.88146" lon="4.84053">
        <ele>185</ele>
        <time>2021-08-27T07:53:24.000Z</time>
      </trkpt>
      <trkpt lat="49.88145" lon="4.84053">
        <ele>185</ele>
        <time>2021-08-27T07:53:25.000Z</time>
      </trkpt>
      <trkpt lat="49.88144" lon="4.84053">
        <ele>184</ele>
        <time>2021-08-27T07:53:26.000Z</time>
      </trkpt>
      <trkpt lat="49.88143" lon="4.84053">
        <ele>183</ele>
        <time>2021-08-27T07:53:27.000Z</time>
      </trkpt>
      <trkpt lat="49.88142" lon="4.84053">
        <ele>183</ele>
        <time>2021-08-27T07:53:28.000Z</time>
      </trkpt>
      <trkpt lat="49.8814" lon="4.84053">
        <ele>182</ele>
        <time>2021-08-27T07:53:29.000Z</time>
      </trkpt>
      <trkpt lat="49.88139" lon="4.84053">
        <ele>182</ele>
        <time>2021-08-27T07:53:30.000Z</time>
      </trkpt>
      <trkpt lat="49.88138" lon="4.84053">
        <ele>181</ele>
        <time>2021-08-27T07:53:31.000Z</time>
      </trkpt>
      <trkpt lat="49.88138" lon="4.84053">
        <ele>181</ele>
        <time>2021-08-27T07:53:32.000Z</time>
      </trkpt>
      <trkpt lat="49.88137" lon="4.84053">
        <ele>180</ele>
        <time>2021-08-27T07:53:33.000Z</time>
      </trkpt>
      <trkpt lat="49.88137" lon="4.84053">
        <ele>180</ele>
        <time>2021-08-27T07:53:34.000Z</time>
      </trkpt>
      <trkpt lat="49.88136" lon="4.84053">
        <ele>180</ele>
        <time>2021-08-27T07:53:35.000Z</time>
      </trkpt>
      <trkpt lat="49.88136" lon="4.84053">
        <ele>179</ele>
        <time>2021-08-27T07:53:36.000Z</time>
      </trkpt>
      <trkpt lat="49.88135" lon="4.84053">
        <ele>179</ele>
        <time>2021-08-27T07:53:37.000Z</time>
      </trkpt>
      <trkpt lat="49.88135" lon="4.84052">
        <ele>179</ele>
        <time>2021-08-27T07:53:38.000Z</time>
      </trkpt>
      <trkpt lat="49.88134" lon="4.84052">
        <ele>178</ele>
        <time>2021-08-27T07:53:39.000Z</time>
      </trkpt>
      <trkpt lat="49.88133" lon="4.84052">
        <ele>178</ele>
        <time>2021-08-27T07:53:40.000Z</time>
      </trkpt>
      <trkpt lat="49.88131" lon="4.84052">
        <ele>178</ele>
        <time>2021-08-27T07:53:41.000Z</time>
      </trkpt>
      <trkpt lat="49.88129" lon="4.84051">
        <ele>178</ele>
        <time>2021-08-27T07:53:42.000Z</time>
      </trkpt>
      <trkpt lat="49.88127" lon="4.8405">
        <ele>178</ele>
        <time>2021-08-27T07:53:43.000Z</time>
      </trkpt>
      <trkpt lat="49.88125" lon="4.84049">
        <ele>178</ele>
        <time>2021-08-27T07:53:44.000Z</time>
      </trkpt>
      <trkpt lat="49.88122" lon="4.84049">
        <ele>177</ele>
        <time>2021-08-27T07:53:45.000Z</time>
      </trkpt>
      <trkpt lat="49.88119" lon="4.84051">
        <ele>177</ele>
        <time>2021-08-27T07:53:46.000Z</time>
      </trkpt>
      <trkpt lat="49.88116" lon="4.84052">
        <ele>177</ele>
        <time>2021-08-27T07:53:47.000Z</time>
      </trkpt>
      <trkpt lat="49.88113" lon="4.84054">
        <ele>177</ele>
        <time>2021-08-27T07:53:48.000Z</time>
      </trkpt>
      <trkpt lat="49.8811" lon="4.84056">
        <ele>176</ele>
        <time>2021-08-27T07:53:49.000Z</time>
      </trkpt>
      <trkpt lat="49.88107" lon="4.84058">
        <ele>176</ele>
        <time>2021-08-27T07:53:50.000Z</time>
      </trkpt>
      <trkpt lat="49.88104" lon="4.84061">
        <ele>176</ele>
        <time>2021-08-27T07:53:51.000Z</time>
      </trkpt>
      <trkpt lat="49.881" lon="4.84065">
        <ele>175</ele>
        <time>2021-08-27T07:53:52.000Z</time>
      </trkpt>
      <trkpt lat="49.88096" lon="4.84069">
        <ele>175</ele>
        <time>2021-08-27T07:53:53.000Z</time>
      </trkpt>
      <trkpt lat="49.88092" lon="4.84074">
        <ele>174</ele>
        <time>2021-08-27T07:53:54.000Z</time>
      </trkpt>
      <trkpt lat="49.88087" lon="4.84079">
        <ele>174</ele>
        <time>2021-08-27T07:53:55.000Z</time>
      </trkpt>
      <trkpt lat="49.88082" lon="4.84085">
        <ele>173</ele>
        <time>2021-08-27T07:53:56.000Z</time>
      </trkpt>
      <trkpt lat="49.88078" lon="4.84091">
        <ele>173</ele>
        <time>2021-08-27T07:53:57.000Z</time>
      </trkpt>
      <trkpt lat="49.88072" lon="4.84097">
        <ele>172</ele>
        <time>2021-08-27T07:53:58.000Z</time>
      </trkpt>
      <trkpt lat="49.88067" lon="4.84104">
        <ele>172</ele>
        <time>2021-08-27T07:53:59.000Z</time>
      </trkpt>
      <trkpt lat="49.88062" lon="4.8411">
        <ele>171</ele>
        <time>2021-08-27T07:54:00.000Z</time>
      </trkpt>
      <trkpt lat="49.88056" lon="4.84114">
        <ele>171</ele>
        <time>2021-08-27T07:54:01.000Z</time>
      </trkpt>
      <trkpt lat="49.88049" lon="4.84116">
        <ele>171</ele>
        <time>2021-08-27T07:54:02.000Z</time>
      </trkpt>
      <trkpt lat="49.88043" lon="4.84118">
        <ele>170</ele>
        <time>2021-08-27T07:54:03.000Z</time>
      </trkpt>
      <trkpt lat="49.88039" lon="4.8412">
        <ele>170</ele>
        <time>2021-08-27T07:54:04.000Z</time>
      </trkpt>
      <trkpt lat="49.88036" lon="4.84123">
        <ele>170</ele>
        <time>2021-08-27T07:54:05.000Z</time>
      </trkpt>
      <trkpt lat="49.88035" lon="4.84125">
        <ele>170</ele>
        <time>2021-08-27T07:54:06.000Z</time>
      </trkpt>
      <trkpt lat="49.88034" lon="4.84125">
        <ele>170</ele>
        <time>2021-08-27T07:54:07.000Z</time>
      </trkpt>
      <trkpt lat="49.88034" lon="4.84125">
        <ele>169</ele>
        <time>2021-08-27T07:54:08.000Z</time>
      </trkpt>
      <trkpt lat="49.88034" lon="4.84126">
        <ele>169</ele>
        <time>2021-08-27T07:54:09.000Z</time>
      </trkpt>
      <trkpt lat="49.88034" lon="4.84126">
        <ele>169</ele>
        <time>2021-08-27T07:54:10.000Z</time>
      </trkpt>
      <trkpt lat="49.88034" lon="4.84126">
        <ele>169</ele>
        <time>2021-08-27T07:54:11.000Z</time>
      </trkpt>
      <trkpt lat="49.88033" lon="4.84126">
        <ele>169</ele>
        <time>2021-08-27T07:54:12.000Z</time>
      </trkpt>
      <trkpt lat="49.88033" lon="4.84126">
        <ele>169</ele>
        <time>2021-08-27T07:54:13.000Z</time>
      </trkpt>
      <trkpt lat="49.88033" lon="4.84126">
        <ele>169</ele>
        <time>2021-08-27T07:54:14.000Z</time>
      </trkpt>
      <trkpt lat="49.88033" lon="4.84126">
        <ele>169</ele>
        <time>2021-08-27T07:54:15.000Z</time>
      </trkpt>
      <trkpt lat="49.88033" lon="4.84126">
        <ele>168</ele>
        <time>2021-08-27T07:54:16.000Z</time>
      </trkpt>
      <trkpt lat="49.88033" lon="4.84126">
        <ele>168</ele>
        <time>2021-08-27T07:54:17.000Z</time>
      </trkpt>
      <trkpt lat="49.88033" lon="4.84126">
        <ele>168</ele>
        <time>2021-08-27T07:54:18.000Z</time>
      </trkpt>
      <trkpt lat="49.88033" lon="4.84126">
        <ele>168</ele>
        <time>2021-08-27T07:54:19.000Z</time>
      </trkpt>
      <trkpt lat="49.88033" lon="4.84126">
        <ele>168</ele>
        <time>2021-08-27T07:54:20.000Z</time>
      </trkpt>
      <trkpt lat="49.88033" lon="4.84126">
        <ele>168</ele>
        <time>2021-08-27T07:54:21.000Z</time>
      </trkpt>
      <trkpt lat="49.88033" lon="4.84126">
        <ele>168</ele>
        <time>2021-08-27T07:54:22.000Z</time>
      </trkpt>
      <trkpt lat="49.88033" lon="4.84126">
        <ele>168</ele>
        <time>2021-08-27T07:54:23.000Z</time>
      </trkpt>
      <trkpt lat="49.88033" lon="4.84125">
        <ele>168</ele>
        <time>2021-08-27T07:54:24.000Z</time>
      </trkpt>
      <trkpt lat="49.88034" lon="4.84125">
        <ele>168</ele>
        <time>2021-08-27T07:54:25.000Z</time>
      </trkpt>
      <trkpt lat="49.88034" lon="4.84125">
        <ele>168</ele>
        <time>2021-08-27T07:54:26.000Z</time>
      </trkpt>
      <trkpt lat="49.88034" lon="4.84125">
        <ele>168</ele>
        <time>2021-08-27T07:54:27.000Z</time>
      </trkpt>
      <trkpt lat="49.88034" lon="4.84125">
        <ele>168</ele>
        <time>2021-08-27T07:54:28.000Z</time>
      </trkpt>
      <trkpt lat="49.88034" lon="4.84125">
        <ele>168</ele>
        <time>2021-08-27T07:54:29.000Z</time>
      </trkpt>
      <trkpt lat="49.88034" lon="4.84125">
        <ele>168</ele>
        <time>2021-08-27T07:54:30.000Z</time>
      </trkpt>
      <trkpt lat="49.88034" lon="4.84125">
        <ele>168</ele>
        <time>2021-08-27T07:54:31.000Z</time>
      </trkpt>
      <trkpt lat="49.88034" lon="4.84125">
        <ele>168</ele>
        <time>2021-08-27T07:54:32.000Z</time>
      </trkpt>
      <trkpt lat="49.88033" lon="4.84125">
        <ele>168</ele>
        <time>2021-08-27T07:54:33.000Z</time>
      </trkpt>
      <trkpt lat="49.88033" lon="4.84125">
        <ele>168</ele>
        <time>2021-08-27T07:54:34.000Z</time>
      </trkpt>
      <trkpt lat="49.88034" lon="4.84125">
        <ele>168</ele>
        <time>2021-08-27T07:54:35.000Z</time>
      </trkpt>
      <trkpt lat="49.88034" lon="4.84125">
        <ele>168</ele>
        <time>2021-08-27T07:54:36.000Z</time>
      </trkpt>
      <trkpt lat="49.88034" lon="4.84125">
        <ele>168</ele>
        <time>2021-08-27T07:54:37.000Z</time>
      </trkpt>
      <trkpt lat="49.88034" lon="4.84125">
        <ele>168</ele>
        <time>2021-08-27T07:54:38.000Z</time>
      </trkpt>
      <trkpt lat="49.88034" lon="4.84125">
        <ele>167</ele>
        <time>2021-08-27T07:54:39.000Z</time>
      </trkpt>
      <trkpt lat="49.88034" lon="4.84125">
        <ele>167</ele>
        <time>2021-08-27T07:54:40.000Z</time>
      </trkpt>
      <trkpt lat="49.88034" lon="4.84125">
        <ele>167</ele>
        <time>2021-08-27T07:54:41.000Z</time>
      </trkpt>
      <trkpt lat="49.88034" lon="4.84125">
        <ele>167</ele>
        <time>2021-08-27T07:54:42.000Z</time>
      </trkpt>
      <trkpt lat="49.88035" lon="4.84125">
        <ele>167</ele>
        <time>2021-08-27T07:54:43.000Z</time>
      </trkpt>
      <trkpt lat="49.88035" lon="4.84125">
        <ele>167</ele>
        <time>2021-08-27T07:54:44.000Z</time>
      </trkpt>
      <trkpt lat="49.88035" lon="4.84124">
        <ele>167</ele>
        <time>2021-08-27T07:54:45.000Z</time>
      </trkpt>
      <trkpt lat="49.88035" lon="4.84124">
        <ele>167</ele>
        <time>2021-08-27T07:54:46.000Z</time>
      </trkpt>
      <trkpt lat="49.88035" lon="4.84124">
        <ele>168</ele>
        <time>2021-08-27T07:54:47.000Z</time>
      </trkpt>
      <trkpt lat="49.88035" lon="4.84124">
        <ele>168</ele>
        <time>2021-08-27T07:54:48.000Z</time>
      </trkpt>
      <trkpt lat="49.88036" lon="4.84124">
        <ele>168</ele>
        <time>2021-08-27T07:54:49.000Z</time>
      </trkpt>
      <trkpt lat="49.88036" lon="4.84124">
        <ele>168</ele>
        <time>2021-08-27T07:54:50.000Z</time>
      </trkpt>
      <trkpt lat="49.88036" lon="4.84124">
        <ele>168</ele>
        <time>2021-08-27T07:54:51.000Z</time>
      </trkpt>
      <trkpt lat="49.88036" lon="4.84124">
        <ele>168</ele>
        <time>2021-08-27T07:54:52.000Z</time>
      </trkpt>
      <trkpt lat="49.88036" lon="4.84124">
        <ele>168</ele>
        <time>2021-08-27T07:54:53.000Z</time>
      </trkpt>
      <trkpt lat="49.88036" lon="4.84124">
        <ele>168</ele>
        <time>2021-08-27T07:54:54.000Z</time>
      </trkpt>
      <trkpt lat="49.88036" lon="4.84124">
        <ele>168</ele>
        <time>2021-08-27T07:54:55.000Z</time>
      </trkpt>
      <trkpt lat="49.88036" lon="4.84124">
        <ele>168</ele>
        <time>2021-08-27T07:54:56.000Z</time>
      </trkpt>
      <trkpt lat="49.88036" lon="4.84124">
        <ele>168</ele>
        <time>2021-08-27T07:54:57.000Z</time>
      </trkpt>
      <trkpt lat="49.88036" lon="4.84124">
        <ele>168</ele>
        <time>2021-08-27T07:54:58.000Z</time>
      </trkpt>
      <trkpt lat="49.88036" lon="4.84124">
        <ele>168</ele>
        <time>2021-08-27T07:54:59.000Z</time>
      </trkpt>
      <trkpt lat="49.88037" lon="4.84124">
        <ele>168</ele>
        <time>2021-08-27T07:55:00.000Z</time>
      </trkpt>
      <trkpt lat="49.88037" lon="4.84124">
        <ele>168</ele>
        <time>2021-08-27T07:55:01.000Z</time>
      </trkpt>
      <trkpt lat="49.88037" lon="4.84124">
        <ele>168</ele>
        <time>2021-08-27T07:55:02.000Z</time>
      </trkpt>
      <trkpt lat="49.88037" lon="4.84124">
        <ele>168</ele>
        <time>2021-08-27T07:55:03.000Z</time>
      </trkpt>
      <trkpt lat="49.88036" lon="4.84124">
        <ele>168</ele>
        <time>2021-08-27T07:55:04.000Z</time>
      </trkpt>
      <trkpt lat="49.88036" lon="4.84124">
        <ele>168</ele>
        <time>2021-08-27T07:55:05.000Z</time>
      </trkpt>
      <trkpt lat="49.88036" lon="4.84125">
        <ele>168</ele>
        <time>2021-08-27T07:55:06.000Z</time>
      </trkpt>
      <trkpt lat="49.88036" lon="4.84125">
        <ele>168</ele>
        <time>2021-08-27T07:55:07.000Z</time>
      </trkpt>
      <trkpt lat="49.88036" lon="4.84124">
        <ele>168</ele>
        <time>2021-08-27T07:55:08.000Z</time>
      </trkpt>
      <trkpt lat="49.88036" lon="4.84124">
        <ele>168</ele>
        <time>2021-08-27T07:55:09.000Z</time>
      </trkpt>
      <trkpt lat="49.88036" lon="4.84123">
        <ele>169</ele>
        <time>2021-08-27T07:55:10.000Z</time>
      </trkpt>
      <trkpt lat="49.88036" lon="4.84123">
        <ele>169</ele>
        <time>2021-08-27T07:55:11.000Z</time>
      </trkpt>
      <trkpt lat="49.88036" lon="4.84123">
        <ele>169</ele>
        <time>2021-08-27T07:55:12.000Z</time>
      </trkpt>
      <trkpt lat="49.88036" lon="4.84123">
        <ele>169</ele>
        <time>2021-08-27T07:55:13.000Z</time>
      </trkpt>
      <trkpt lat="49.88036" lon="4.84123">
        <ele>169</ele>
        <time>2021-08-27T07:55:14.000Z</time>
      </trkpt>
      <trkpt lat="49.88035" lon="4.84123">
        <ele>169</ele>
        <time>2021-08-27T07:55:15.000Z</time>
      </trkpt>
      <trkpt lat="49.88035" lon="4.84123">
        <ele>169</ele>
        <time>2021-08-27T07:55:16.000Z</time>
      </trkpt>
      <trkpt lat="49.88035" lon="4.84123">
        <ele>169</ele>
        <time>2021-08-27T07:55:17.000Z</time>
      </trkpt>
      <trkpt lat="49.88036" lon="4.84123">
        <ele>170</ele>
        <time>2021-08-27T07:55:18.000Z</time>
      </trkpt>
      <trkpt lat="49.88036" lon="4.84123">
        <ele>170</ele>
        <time>2021-08-27T07:55:19.000Z</time>
      </trkpt>
      <trkpt lat="49.88036" lon="4.84124">
        <ele>170</ele>
        <time>2021-08-27T07:55:20.000Z</time>
      </trkpt>
      <trkpt lat="49.88036" lon="4.84124">
        <ele>170</ele>
        <time>2021-08-27T07:55:21.000Z</time>
      </trkpt>
      <trkpt lat="49.88037" lon="4.84124">
        <ele>170</ele>
        <time>2021-08-27T07:55:22.000Z</time>
      </trkpt>
      <trkpt lat="49.88037" lon="4.84124">
        <ele>170</ele>
        <time>2021-08-27T07:55:23.000Z</time>
      </trkpt>
      <trkpt lat="49.88037" lon="4.84124">
        <ele>170</ele>
        <time>2021-08-27T07:55:24.000Z</time>
      </trkpt>
      <trkpt lat="49.88037" lon="4.84124">
        <ele>170</ele>
        <time>2021-08-27T07:55:25.000Z</time>
      </trkpt>
      <trkpt lat="49.88037" lon="4.84124">
        <ele>170</ele>
        <time>2021-08-27T07:55:26.000Z</time>
      </trkpt>
      <trkpt lat="49.88037" lon="4.84124">
        <ele>170</ele>
        <time>2021-08-27T07:55:27.000Z</time>
      </trkpt>
      <trkpt lat="49.88038" lon="4.84125">
        <ele>170</ele>
        <time>2021-08-27T07:55:28.000Z</time>
      </trkpt>
      <trkpt lat="49.88038" lon="4.84125">
        <ele>171</ele>
        <time>2021-08-27T07:55:29.000Z</time>
      </trkpt>
      <trkpt lat="49.88038" lon="4.84125">
        <ele>171</ele>
        <time>2021-08-27T07:55:30.000Z</time>
      </trkpt>
      <trkpt lat="49.88038" lon="4.84125">
        <ele>171</ele>
        <time>2021-08-27T07:55:31.000Z</time>
      </trkpt>
      <trkpt lat="49.88038" lon="4.84124">
        <ele>171</ele>
        <time>2021-08-27T07:55:32.000Z</time>
      </trkpt>
      <trkpt lat="49.88038" lon="4.84124">
        <ele>171</ele>
        <time>2021-08-27T07:55:33.000Z</time>
      </trkpt>
      <trkpt lat="49.88038" lon="4.84124">
        <ele>171</ele>
        <time>2021-08-27T07:55:34.000Z</time>
      </trkpt>
      <trkpt lat="49.88038" lon="4.84124">
        <ele>171</ele>
        <time>2021-08-27T07:55:35.000Z</time>
      </trkpt>
      <trkpt lat="49.88037" lon="4.84124">
        <ele>171</ele>
        <time>2021-08-27T07:55:36.000Z</time>
      </trkpt>
      <trkpt lat="49.88037" lon="4.84123">
        <ele>171</ele>
        <time>2021-08-27T07:55:37.000Z</time>
      </trkpt>
      <trkpt lat="49.88037" lon="4.84123">
        <ele>171</ele>
        <time>2021-08-27T07:55:38.000Z</time>
      </trkpt>
      <trkpt lat="49.88037" lon="4.84123">
        <ele>171</ele>
        <time>2021-08-27T07:55:39.000Z</time>
      </trkpt>
      <trkpt lat="49.88037" lon="4.84123">
        <ele>170</ele>
        <time>2021-08-27T07:55:40.000Z</time>
      </trkpt>
      <trkpt lat="49.88038" lon="4.84123">
        <ele>171</ele>
        <time>2021-08-27T07:55:41.000Z</time>
      </trkpt>
      <trkpt lat="49.88038" lon="4.84122">
        <ele>171</ele>
        <time>2021-08-27T07:55:42.000Z</time>
      </trkpt>
      <trkpt lat="49.88038" lon="4.84122">
        <ele>171</ele>
        <time>2021-08-27T07:55:43.000Z</time>
      </trkpt>
      <trkpt lat="49.88038" lon="4.84123">
        <ele>171</ele>
        <time>2021-08-27T07:55:44.000Z</time>
      </trkpt>
      <trkpt lat="49.88038" lon="4.84123">
        <ele>171</ele>
        <time>2021-08-27T07:55:45.000Z</time>
      </trkpt>
      <trkpt lat="49.88038" lon="4.84123">
        <ele>171</ele>
        <time>2021-08-27T07:55:46.000Z</time>
      </trkpt>
      <trkpt lat="49.88038" lon="4.84123">
        <ele>171</ele>
        <time>2021-08-27T07:55:47.000Z</time>
      </trkpt>
      <trkpt lat="49.88038" lon="4.84123">
        <ele>171</ele>
        <time>2021-08-27T07:55:48.000Z</time>
      </trkpt>
      <trkpt lat="49.88038" lon="4.84123">
        <ele>172</ele>
        <time>2021-08-27T07:55:49.000Z</time>
      </trkpt>
      <trkpt lat="49.88038" lon="4.84123">
        <ele>172</ele>
        <time>2021-08-27T07:55:50.000Z</time>
      </trkpt>
      <trkpt lat="49.88038" lon="4.84122">
        <ele>172</ele>
        <time>2021-08-27T07:55:51.000Z</time>
      </trkpt>
      <trkpt lat="49.88038" lon="4.84123">
        <ele>172</ele>
        <time>2021-08-27T07:55:52.000Z</time>
      </trkpt>
      <trkpt lat="49.88038" lon="4.84123">
        <ele>172</ele>
        <time>2021-08-27T07:55:53.000Z</time>
      </trkpt>
      <trkpt lat="49.88038" lon="4.84123">
        <ele>172</ele>
        <time>2021-08-27T07:55:54.000Z</time>
      </trkpt>
      <trkpt lat="49.88037" lon="4.84123">
        <ele>173</ele>
        <time>2021-08-27T07:55:55.000Z</time>
      </trkpt>
      <trkpt lat="49.88037" lon="4.84123">
        <ele>173</ele>
        <time>2021-08-27T07:55:56.000Z</time>
      </trkpt>
      <trkpt lat="49.88037" lon="4.84124">
        <ele>173</ele>
        <time>2021-08-27T07:55:57.000Z</time>
      </trkpt>
      <trkpt lat="49.88037" lon="4.84124">
        <ele>173</ele>
        <time>2021-08-27T07:55:58.000Z</time>
      </trkpt>
      <trkpt lat="49.88037" lon="4.84124">
        <ele>173</ele>
        <time>2021-08-27T07:55:59.000Z</time>
      </trkpt>
      <trkpt lat="49.88037" lon="4.84124">
        <ele>173</ele>
        <time>2021-08-27T07:56:00.000Z</time>
      </trkpt>
      <trkpt lat="49.88037" lon="4.84124">
        <ele>173</ele>
        <time>2021-08-27T07:56:01.000Z</time>
      </trkpt>
      <trkpt lat="49.88037" lon="4.84124">
        <ele>173</ele>
        <time>2021-08-27T07:56:02.000Z</time>
      </trkpt>
      <trkpt lat="49.88037" lon="4.84124">
        <ele>173</ele>
        <time>2021-08-27T07:56:03.000Z</time>
      </trkpt>
      <trkpt lat="49.88037" lon="4.84124">
        <ele>173</ele>
        <time>2021-08-27T07:56:04.000Z</time>
      </trkpt>
      <trkpt lat="49.88036" lon="4.84124">
        <ele>173</ele>
        <time>2021-08-27T07:56:05.000Z</time>
      </trkpt>
      <trkpt lat="49.88036" lon="4.84124">
        <ele>173</ele>
        <time>2021-08-27T07:56:06.000Z</time>
      </trkpt>
      <trkpt lat="49.88036" lon="4.84124">
        <ele>173</ele>
        <time>2021-08-27T07:56:07.000Z</time>
      </trkpt>
      <trkpt lat="49.88036" lon="4.84124">
        <ele>173</ele>
        <time>2021-08-27T07:56:08.000Z</time>
      </trkpt>
      <trkpt lat="49.88036" lon="4.84124">
        <ele>173</ele>
        <time>2021-08-27T07:56:09.000Z</time>
      </trkpt>
      <trkpt lat="49.88036" lon="4.84124">
        <ele>173</ele>
        <time>2021-08-27T07:56:10.000Z</time>
      </trkpt>
      <trkpt lat="49.88036" lon="4.84124">
        <ele>173</ele>
        <time>2021-08-27T07:56:11.000Z</time>
      </trkpt>
      <trkpt lat="49.88036" lon="4.84124">
        <ele>173</ele>
        <time>2021-08-27T07:56:12.000Z</time>
      </trkpt>
      <trkpt lat="49.88036" lon="4.84124">
        <ele>173</ele>
        <time>2021-08-27T07:56:13.000Z</time>
      </trkpt>
      <trkpt lat="49.88036" lon="4.84124">
        <ele>173</ele>
        <time>2021-08-27T07:56:14.000Z</time>
      </trkpt>
      <trkpt lat="49.88036" lon="4.84124">
        <ele>173</ele>
        <time>2021-08-27T07:56:15.000Z</time>
      </trkpt>
      <trkpt lat="49.88036" lon="4.84125">
        <ele>173</ele>
        <time>2021-08-27T07:56:16.000Z</time>
      </trkpt>
      <trkpt lat="49.88036" lon="4.84125">
        <ele>173</ele>
        <time>2021-08-27T07:56:17.000Z</time>
      </trkpt>
      <trkpt lat="49.88036" lon="4.84125">
        <ele>173</ele>
        <time>2021-08-27T07:56:18.000Z</time>
      </trkpt>
      <trkpt lat="49.88036" lon="4.84125">
        <ele>173</ele>
        <time>2021-08-27T07:56:19.000Z</time>
      </trkpt>
      <trkpt lat="49.88036" lon="4.84125">
        <ele>173</ele>
        <time>2021-08-27T07:56:20.000Z</time>
      </trkpt>
      <trkpt lat="49.88036" lon="4.84125">
        <ele>173</ele>
        <time>2021-08-27T07:56:21.000Z</time>
      </trkpt>
      <trkpt lat="49.88036" lon="4.84125">
        <ele>173</ele>
        <time>2021-08-27T07:56:22.000Z</time>
      </trkpt>
      <trkpt lat="49.88036" lon="4.84125">
        <ele>173</ele>
        <time>2021-08-27T07:56:23.000Z</time>
      </trkpt>
      <trkpt lat="49.88036" lon="4.84125">
        <ele>173</ele>
        <time>2021-08-27T07:56:24.000Z</time>
      </trkpt>
      <trkpt lat="49.88036" lon="4.84125">
        <ele>173</ele>
        <time>2021-08-27T07:56:25.000Z</time>
      </trkpt>
      <trkpt lat="49.88036" lon="4.84125">
        <ele>173</ele>
        <time>2021-08-27T07:56:26.000Z</time>
      </trkpt>
      <trkpt lat="49.88036" lon="4.84125">
        <ele>173</ele>
        <time>2021-08-27T07:56:27.000Z</time>
      </trkpt>
      <trkpt lat="49.88036" lon="4.84126">
        <ele>173</ele>
        <time>2021-08-27T07:56:28.000Z</time>
      </trkpt>
      <trkpt lat="49.88036" lon="4.84126">
        <ele>173</ele>
        <time>2021-08-27T07:56:29.000Z</time>
      </trkpt>
      <trkpt lat="49.88036" lon="4.84126">
        <ele>173</ele>
        <time>2021-08-27T07:56:30.000Z</time>
      </trkpt>
      <trkpt lat="49.88036" lon="4.84126">
        <ele>172</ele>
        <time>2021-08-27T07:56:31.000Z</time>
      </trkpt>
      <trkpt lat="49.88036" lon="4.84126">
        <ele>172</ele>
        <time>2021-08-27T07:56:32.000Z</time>
      </trkpt>
      <trkpt lat="49.88036" lon="4.84126">
        <ele>172</ele>
        <time>2021-08-27T07:56:33.000Z</time>
      </trkpt>
      <trkpt lat="49.88036" lon="4.84126">
        <ele>172</ele>
        <time>2021-08-27T07:56:34.000Z</time>
      </trkpt>
      <trkpt lat="49.88036" lon="4.84127">
        <ele>172</ele>
        <time>2021-08-27T07:56:35.000Z</time>
      </trkpt>
      <trkpt lat="49.88036" lon="4.84127">
        <ele>172</ele>
        <time>2021-08-27T07:56:36.000Z</time>
      </trkpt>
      <trkpt lat="49.88036" lon="4.84127">
        <ele>172</ele>
        <time>2021-08-27T07:56:37.000Z</time>
      </trkpt>
      <trkpt lat="49.88036" lon="4.84127">
        <ele>172</ele>
        <time>2021-08-27T07:56:38.000Z</time>
      </trkpt>
      <trkpt lat="49.88036" lon="4.84127">
        <ele>172</ele>
        <time>2021-08-27T07:56:39.000Z</time>
      </trkpt>
      <trkpt lat="49.88036" lon="4.84127">
        <ele>172</ele>
        <time>2021-08-27T07:56:40.000Z</time>
      </trkpt>
      <trkpt lat="49.88036" lon="4.84127">
        <ele>172</ele>
        <time>2021-08-27T07:56:41.000Z</time>
      </trkpt>
      <trkpt lat="49.88036" lon="4.84127">
        <ele>172</ele>
        <time>2021-08-27T07:56:42.000Z</time>
      </trkpt>
      <trkpt lat="49.88037" lon="4.84127">
        <ele>172</ele>
        <time>2021-08-27T07:56:43.000Z</time>
      </trkpt>
      <trkpt lat="49.88037" lon="4.84127">
        <ele>172</ele>
        <time>2021-08-27T07:56:44.000Z</time>
      </trkpt>
      <trkpt lat="49.88037" lon="4.84127">
        <ele>172</ele>
        <time>2021-08-27T07:56:45.000Z</time>
      </trkpt>
      <trkpt lat="49.88037" lon="4.84127">
        <ele>172</ele>
        <time>2021-08-27T07:56:46.000Z</time>
      </trkpt>
      <trkpt lat="49.88037" lon="4.84127">
        <ele>172</ele>
        <time>2021-08-27T07:56:47.000Z</time>
      </trkpt>
      <trkpt lat="49.88037" lon="4.84127">
        <ele>172</ele>
        <time>2021-08-27T07:56:48.000Z</time>
      </trkpt>
      <trkpt lat="49.88037" lon="4.84127">
        <ele>172</ele>
        <time>2021-08-27T07:56:49.000Z</time>
      </trkpt>
      <trkpt lat="49.88037" lon="4.84127">
        <ele>172</ele>
        <time>2021-08-27T07:56:50.000Z</time>
      </trkpt>
      <trkpt lat="49.88037" lon="4.84127">
        <ele>172</ele>
        <time>2021-08-27T07:56:51.000Z</time>
      </trkpt>
      <trkpt lat="49.88037" lon="4.84127">
        <ele>172</ele>
        <time>2021-08-27T07:56:52.000Z</time>
      </trkpt>
      <trkpt lat="49.88037" lon="4.84127">
        <ele>172</ele>
        <time>2021-08-27T07:56:53.000Z</time>
      </trkpt>
      <trkpt lat="49.88037" lon="4.84127">
        <ele>171</ele>
        <time>2021-08-27T07:56:54.000Z</time>
      </trkpt>
      <trkpt lat="49.88037" lon="4.84127">
        <ele>171</ele>
        <time>2021-08-27T07:56:55.000Z</time>
      </trkpt>
      <trkpt lat="49.88037" lon="4.84127">
        <ele>171</ele>
        <time>2021-08-27T07:56:56.000Z</time>
      </trkpt>
      <trkpt lat="49.88037" lon="4.84127">
        <ele>171</ele>
        <time>2021-08-27T07:56:57.000Z</time>
      </trkpt>
      <trkpt lat="49.88037" lon="4.84127">
        <ele>171</ele>
        <time>2021-08-27T07:56:58.000Z</time>
      </trkpt>
      <trkpt lat="49.88037" lon="4.84127">
        <ele>171</ele>
        <time>2021-08-27T07:56:59.000Z</time>
      </trkpt>
      <trkpt lat="49.88037" lon="4.84127">
        <ele>171</ele>
        <time>2021-08-27T07:57:00.000Z</time>
      </trkpt>
      <trkpt lat="49.88037" lon="4.84128">
        <ele>171</ele>
        <time>2021-08-27T07:57:01.000Z</time>
      </trkpt>
      <trkpt lat="49.88037" lon="4.84128">
        <ele>171</ele>
        <time>2021-08-27T07:57:02.000Z</time>
      </trkpt>
      <trkpt lat="49.88037" lon="4.84128">
        <ele>171</ele>
        <time>2021-08-27T07:57:03.000Z</time>
      </trkpt>
      <trkpt lat="49.88037" lon="4.84128">
        <ele>171</ele>
        <time>2021-08-27T07:57:04.000Z</time>
      </trkpt>
      <trkpt lat="49.88037" lon="4.84128">
        <ele>171</ele>
        <time>2021-08-27T07:57:05.000Z</time>
      </trkpt>
      <trkpt lat="49.88037" lon="4.84128">
        <ele>171</ele>
        <time>2021-08-27T07:57:06.000Z</time>
      </trkpt>
      <trkpt lat="49.88037" lon="4.84128">
        <ele>171</ele>
        <time>2021-08-27T07:57:07.000Z</time>
      </trkpt>
      <trkpt lat="49.88037" lon="4.84128">
        <ele>171</ele>
        <time>2021-08-27T07:57:08.000Z</time>
      </trkpt>
      <trkpt lat="49.88037" lon="4.84127">
        <ele>171</ele>
        <time>2021-08-27T07:57:09.000Z</time>
      </trkpt>
      <trkpt lat="49.88037" lon="4.84127">
        <ele>171</ele>
        <time>2021-08-27T07:57:10.000Z</time>
      </trkpt>
      <trkpt lat="49.88037" lon="4.84127">
        <ele>171</ele>
        <time>2021-08-27T07:57:11.000Z</time>
      </trkpt>
      <trkpt lat="49.88038" lon="4.84127">
        <ele>171</ele>
        <time>2021-08-27T07:57:12.000Z</time>
      </trkpt>
      <trkpt lat="49.88038" lon="4.84127">
        <ele>171</ele>
        <time>2021-08-27T07:57:13.000Z</time>
      </trkpt>
      <trkpt lat="49.88038" lon="4.84127">
        <ele>171</ele>
        <time>2021-08-27T07:57:14.000Z</time>
      </trkpt>
      <trkpt lat="49.88038" lon="4.84127">
        <ele>171</ele>
        <time>2021-08-27T07:57:15.000Z</time>
      </trkpt>
      <trkpt lat="49.88038" lon="4.84127">
        <ele>171</ele>
        <time>2021-08-27T07:57:16.000Z</time>
      </trkpt>
      <trkpt lat="49.88038" lon="4.84127">
        <ele>171</ele>
        <time>2021-08-27T07:57:17.000Z</time>
      </trkpt>
      <trkpt lat="49.88038" lon="4.84127">
        <ele>171</ele>
        <time>2021-08-27T07:57:18.000Z</time>
      </trkpt>
      <trkpt lat="49.88038" lon="4.84127">
        <ele>171</ele>
        <time>2021-08-27T07:57:19.000Z</time>
      </trkpt>
      <trkpt lat="49.88038" lon="4.84127">
        <ele>171</ele>
        <time>2021-08-27T07:57:20.000Z</time>
      </trkpt>
      <trkpt lat="49.88038" lon="4.84127">
        <ele>171</ele>
        <time>2021-08-27T07:57:21.000Z</time>
      </trkpt>
      <trkpt lat="49.88038" lon="4.84127">
        <ele>171</ele>
        <time>2021-08-27T07:57:22.000Z</time>
      </trkpt>
      <trkpt lat="49.88038" lon="4.84127">
        <ele>171</ele>
        <time>2021-08-27T07:57:23.000Z</time>
      </trkpt>
      <trkpt lat="49.88038" lon="4.84127">
        <ele>171</ele>
        <time>2021-08-27T07:57:24.000Z</time>
      </trkpt>
      <trkpt lat="49.88038" lon="4.84127">
        <ele>171</ele>
        <time>2021-08-27T07:57:25.000Z</time>
      </trkpt>
      <trkpt lat="49.88038" lon="4.84127">
        <ele>171</ele>
        <time>2021-08-27T07:57:26.000Z</time>
      </trkpt>
      <trkpt lat="49.88038" lon="4.84127">
        <ele>170</ele>
        <time>2021-08-27T07:57:27.000Z</time>
      </trkpt>
      <trkpt lat="49.88038" lon="4.84127">
        <ele>170</ele>
        <time>2021-08-27T07:57:28.000Z</time>
      </trkpt>
      <trkpt lat="49.88038" lon="4.84127">
        <ele>170</ele>
        <time>2021-08-27T07:57:29.000Z</time>
      </trkpt>
      <trkpt lat="49.88038" lon="4.84127">
        <ele>170</ele>
        <time>2021-08-27T07:57:30.000Z</time>
      </trkpt>
      <trkpt lat="49.88038" lon="4.84127">
        <ele>170</ele>
        <time>2021-08-27T07:57:31.000Z</time>
      </trkpt>
      <trkpt lat="49.88038" lon="4.84127">
        <ele>170</ele>
        <time>2021-08-27T07:57:32.000Z</time>
      </trkpt>
      <trkpt lat="49.88038" lon="4.84127">
        <ele>170</ele>
        <time>2021-08-27T07:57:33.000Z</time>
      </trkpt>
      <trkpt lat="49.88038" lon="4.84127">
        <ele>170</ele>
        <time>2021-08-27T07:57:34.000Z</time>
      </trkpt>
      <trkpt lat="49.88038" lon="4.84127">
        <ele>170</ele>
        <time>2021-08-27T07:57:35.000Z</time>
      </trkpt>
      <trkpt lat="49.88038" lon="4.84127">
        <ele>170</ele>
        <time>2021-08-27T07:57:36.000Z</time>
      </trkpt>
      <trkpt lat="49.88038" lon="4.84127">
        <ele>170</ele>
        <time>2021-08-27T07:57:37.000Z</time>
      </trkpt>
      <trkpt lat="49.88038" lon="4.84127">
        <ele>170</ele>
        <time>2021-08-27T07:57:38.000Z</time>
      </trkpt>
      <trkpt lat="49.88038" lon="4.84127">
        <ele>170</ele>
        <time>2021-08-27T07:57:39.000Z</time>
      </trkpt>
      <trkpt lat="49.88038" lon="4.84127">
        <ele>170</ele>
        <time>2021-08-27T07:57:40.000Z</time>
      </trkpt>
      <trkpt lat="49.88038" lon="4.84127">
        <ele>170</ele>
        <time>2021-08-27T07:57:41.000Z</time>
      </trkpt>
      <trkpt lat="49.88038" lon="4.84127">
        <ele>170</ele>
        <time>2021-08-27T07:57:42.000Z</time>
      </trkpt>
      <trkpt lat="49.88038" lon="4.84127">
        <ele>170</ele>
        <time>2021-08-27T07:57:43.000Z</time>
      </trkpt>
      <trkpt lat="49.88038" lon="4.84127">
        <ele>170</ele>
        <time>2021-08-27T07:57:44.000Z</time>
      </trkpt>
      <trkpt lat="49.88038" lon="4.84127">
        <ele>170</ele>
        <time>2021-08-27T07:57:45.000Z</time>
      </trkpt>
      <trkpt lat="49.88038" lon="4.84127">
        <ele>170</ele>
        <time>2021-08-27T07:57:46.000Z</time>
      </trkpt>
      <trkpt lat="49.88038" lon="4.84127">
        <ele>170</ele>
        <time>2021-08-27T07:57:47.000Z</time>
      </trkpt>
      <trkpt lat="49.88038" lon="4.84127">
        <ele>170</ele>
        <time>2021-08-27T07:57:48.000Z</time>
      </trkpt>
      <trkpt lat="49.88038" lon="4.84127">
        <ele>170</ele>
        <time>2021-08-27T07:57:49.000Z</time>
      </trkpt>
      <trkpt lat="49.88038" lon="4.84126">
        <ele>169</ele>
        <time>2021-08-27T07:57:50.000Z</time>
      </trkpt>
      <trkpt lat="49.88038" lon="4.84126">
        <ele>169</ele>
        <time>2021-08-27T07:57:51.000Z</time>
      </trkpt>
      <trkpt lat="49.88038" lon="4.84126">
        <ele>169</ele>
        <time>2021-08-27T07:57:52.000Z</time>
      </trkpt>
      <trkpt lat="49.88038" lon="4.84126">
        <ele>169</ele>
        <time>2021-08-27T07:57:53.000Z</time>
      </trkpt>
      <trkpt lat="49.88038" lon="4.84126">
        <ele>169</ele>
        <time>2021-08-27T07:57:54.000Z</time>
      </trkpt>
      <trkpt lat="49.88038" lon="4.84126">
        <ele>169</ele>
        <time>2021-08-27T07:57:55.000Z</time>
      </trkpt>
      <trkpt lat="49.88039" lon="4.84126">
        <ele>169</ele>
        <time>2021-08-27T07:57:56.000Z</time>
      </trkpt>
      <trkpt lat="49.88039" lon="4.84126">
        <ele>169</ele>
        <time>2021-08-27T07:57:57.000Z</time>
      </trkpt>
      <trkpt lat="49.88038" lon="4.84126">
        <ele>169</ele>
        <time>2021-08-27T07:57:58.000Z</time>
      </trkpt>
      <trkpt lat="49.88038" lon="4.84126">
        <ele>169</ele>
        <time>2021-08-27T07:57:59.000Z</time>
      </trkpt>
      <trkpt lat="49.88038" lon="4.84126">
        <ele>169</ele>
        <time>2021-08-27T07:58:00.000Z</time>
      </trkpt>
      <trkpt lat="49.88038" lon="4.84126">
        <ele>169</ele>
        <time>2021-08-27T07:58:01.000Z</time>
      </trkpt>
      <trkpt lat="49.88038" lon="4.84127">
        <ele>169</ele>
        <time>2021-08-27T07:58:02.000Z</time>
      </trkpt>
      <trkpt lat="49.88038" lon="4.84127">
        <ele>169</ele>
        <time>2021-08-27T07:58:03.000Z</time>
      </trkpt>
      <trkpt lat="49.88038" lon="4.84127">
        <ele>169</ele>
        <time>2021-08-27T07:58:04.000Z</time>
      </trkpt>
      <trkpt lat="49.88038" lon="4.84127">
        <ele>169</ele>
        <time>2021-08-27T07:58:05.000Z</time>
      </trkpt>
      <trkpt lat="49.88038" lon="4.84127">
        <ele>169</ele>
        <time>2021-08-27T07:58:06.000Z</time>
      </trkpt>
      <trkpt lat="49.88038" lon="4.84126">
        <ele>169</ele>
        <time>2021-08-27T07:58:07.000Z</time>
      </trkpt>
      <trkpt lat="49.88039" lon="4.84126">
        <ele>169</ele>
        <time>2021-08-27T07:58:08.000Z</time>
      </trkpt>
      <trkpt lat="49.88039" lon="4.84126">
        <ele>169</ele>
        <time>2021-08-27T07:58:09.000Z</time>
      </trkpt>
      <trkpt lat="49.88039" lon="4.84126">
        <ele>169</ele>
        <time>2021-08-27T07:58:10.000Z</time>
      </trkpt>
      <trkpt lat="49.88039" lon="4.84126">
        <ele>169</ele>
        <time>2021-08-27T07:58:11.000Z</time>
      </trkpt>
      <trkpt lat="49.88039" lon="4.84126">
        <ele>169</ele>
        <time>2021-08-27T07:58:12.000Z</time>
      </trkpt>
      <trkpt lat="49.88039" lon="4.84126">
        <ele>169</ele>
        <time>2021-08-27T07:58:13.000Z</time>
      </trkpt>
      <trkpt lat="49.88039" lon="4.84126">
        <ele>169</ele>
        <time>2021-08-27T07:58:14.000Z</time>
      </trkpt>
      <trkpt lat="49.88039" lon="4.84126">
        <ele>168</ele>
        <time>2021-08-27T07:58:15.000Z</time>
      </trkpt>
      <trkpt lat="49.88039" lon="4.84126">
        <ele>168</ele>
        <time>2021-08-27T07:58:16.000Z</time>
      </trkpt>
      <trkpt lat="49.88039" lon="4.84126">
        <ele>168</ele>
        <time>2021-08-27T07:58:17.000Z</time>
      </trkpt>
      <trkpt lat="49.88039" lon="4.84126">
        <ele>168</ele>
        <time>2021-08-27T07:58:18.000Z</time>
      </trkpt>
      <trkpt lat="49.88039" lon="4.84126">
        <ele>168</ele>
        <time>2021-08-27T07:58:19.000Z</time>
      </trkpt>
      <trkpt lat="49.88039" lon="4.84126">
        <ele>168</ele>
        <time>2021-08-27T07:58:20.000Z</time>
      </trkpt>
      <trkpt lat="49.88039" lon="4.84126">
        <ele>168</ele>
        <time>2021-08-27T07:58:21.000Z</time>
      </trkpt>
      <trkpt lat="49.88039" lon="4.84126">
        <ele>168</ele>
        <time>2021-08-27T07:58:22.000Z</time>
      </trkpt>
      <trkpt lat="49.88039" lon="4.84126">
        <ele>168</ele>
        <time>2021-08-27T07:58:23.000Z</time>
      </trkpt>
      <trkpt lat="49.88039" lon="4.84126">
        <ele>168</ele>
        <time>2021-08-27T07:58:24.000Z</time>
      </trkpt>
      <trkpt lat="49.88039" lon="4.84126">
        <ele>168</ele>
        <time>2021-08-27T07:58:25.000Z</time>
      </trkpt>
      <trkpt lat="49.8804" lon="4.84126">
        <ele>168</ele>
        <time>2021-08-27T07:58:26.000Z</time>
      </trkpt>
      <trkpt lat="49.8804" lon="4.84126">
        <ele>168</ele>
        <time>2021-08-27T07:58:27.000Z</time>
      </trkpt>
      <trkpt lat="49.8804" lon="4.84126">
        <ele>168</ele>
        <time>2021-08-27T07:58:28.000Z</time>
      </trkpt>
      <trkpt lat="49.8804" lon="4.84126">
        <ele>168</ele>
        <time>2021-08-27T07:58:29.000Z</time>
      </trkpt>
      <trkpt lat="49.8804" lon="4.84126">
        <ele>168</ele>
        <time>2021-08-27T07:58:30.000Z</time>
      </trkpt>
      <trkpt lat="49.8804" lon="4.84126">
        <ele>168</ele>
        <time>2021-08-27T07:58:31.000Z</time>
      </trkpt>
      <trkpt lat="49.8804" lon="4.84126">
        <ele>168</ele>
        <time>2021-08-27T07:58:32.000Z</time>
      </trkpt>
      <trkpt lat="49.8804" lon="4.84126">
        <ele>168</ele>
        <time>2021-08-27T07:58:33.000Z</time>
      </trkpt>
      <trkpt lat="49.8804" lon="4.84126">
        <ele>168</ele>
        <time>2021-08-27T07:58:34.000Z</time>
      </trkpt>
      <trkpt lat="49.8804" lon="4.84126">
        <ele>168</ele>
        <time>2021-08-27T07:58:35.000Z</time>
      </trkpt>
      <trkpt lat="49.8804" lon="4.84126">
        <ele>168</ele>
        <time>2021-08-27T07:58:36.000Z</time>
      </trkpt>
      <trkpt lat="49.8804" lon="4.84126">
        <ele>168</ele>
        <time>2021-08-27T07:58:37.000Z</time>
      </trkpt>
      <trkpt lat="49.8804" lon="4.84126">
        <ele>168</ele>
        <time>2021-08-27T07:58:38.000Z</time>
      </trkpt>
      <trkpt lat="49.8804" lon="4.84126">
        <ele>168</ele>
        <time>2021-08-27T07:58:39.000Z</time>
      </trkpt>
      <trkpt lat="49.8804" lon="4.84126">
        <ele>168</ele>
        <time>2021-08-27T07:58:40.000Z</time>
      </trkpt>
      <trkpt lat="49.8804" lon="4.84126">
        <ele>168</ele>
        <time>2021-08-27T07:58:41.000Z</time>
      </trkpt>
      <trkpt lat="49.8804" lon="4.84126">
        <ele>168</ele>
        <time>2021-08-27T07:58:42.000Z</time>
      </trkpt>
      <trkpt lat="49.8804" lon="4.84126">
        <ele>168</ele>
        <time>2021-08-27T07:58:43.000Z</time>
      </trkpt>
      <trkpt lat="49.8804" lon="4.84126">
        <ele>168</ele>
        <time>2021-08-27T07:58:44.000Z</time>
      </trkpt>
      <trkpt lat="49.8804" lon="4.84126">
        <ele>168</ele>
        <time>2021-08-27T07:58:45.000Z</time>
      </trkpt>
      <trkpt lat="49.8804" lon="4.84126">
        <ele>168</ele>
        <time>2021-08-27T07:58:46.000Z</time>
      </trkpt>
      <trkpt lat="49.8804" lon="4.84126">
        <ele>168</ele>
        <time>2021-08-27T07:58:47.000Z</time>
      </trkpt>
      <trkpt lat="49.8804" lon="4.84126">
        <ele>168</ele>
        <time>2021-08-27T07:58:48.000Z</time>
      </trkpt>
      <trkpt lat="49.8804" lon="4.84126">
        <ele>168</ele>
        <time>2021-08-27T07:58:49.000Z</time>
      </trkpt>
      <trkpt lat="49.8804" lon="4.84126">
        <ele>168</ele>
        <time>2021-08-27T07:58:50.000Z</time>
      </trkpt>
      <trkpt lat="49.8804" lon="4.84126">
        <ele>168</ele>
        <time>2021-08-27T07:58:51.000Z</time>
      </trkpt>
      <trkpt lat="49.8804" lon="4.84126">
        <ele>168</ele>
        <time>2021-08-27T07:58:52.000Z</time>
      </trkpt>
      <trkpt lat="49.8804" lon="4.84126">
        <ele>168</ele>
        <time>2021-08-27T07:58:53.000Z</time>
      </trkpt>
      <trkpt lat="49.8804" lon="4.84126">
        <ele>168</ele>
        <time>2021-08-27T07:58:54.000Z</time>
      </trkpt>
      <trkpt lat="49.8804" lon="4.84126">
        <ele>168</ele>
        <time>2021-08-27T07:58:55.000Z</time>
      </trkpt>
      <trkpt lat="49.8804" lon="4.84126">
        <ele>168</ele>
        <time>2021-08-27T07:58:56.000Z</time>
      </trkpt>
      <trkpt lat="49.8804" lon="4.84126">
        <ele>168</ele>
        <time>2021-08-27T07:58:57.000Z</time>
      </trkpt>
      <trkpt lat="49.8804" lon="4.84126">
        <ele>168</ele>
        <time>2021-08-27T07:58:58.000Z</time>
      </trkpt>
      <trkpt lat="49.8804" lon="4.84126">
        <ele>168</ele>
        <time>2021-08-27T07:58:59.000Z</time>
      </trkpt>
      <trkpt lat="49.8804" lon="4.84126">
        <ele>168</ele>
        <time>2021-08-27T07:59:00.000Z</time>
      </trkpt>
      <trkpt lat="49.8804" lon="4.84126">
        <ele>168</ele>
        <time>2021-08-27T07:59:01.000Z</time>
      </trkpt>
      <trkpt lat="49.8804" lon="4.84126">
        <ele>168</ele>
        <time>2021-08-27T07:59:02.000Z</time>
      </trkpt>
      <trkpt lat="49.8804" lon="4.84126">
        <ele>168</ele>
        <time>2021-08-27T07:59:03.000Z</time>
      </trkpt>
      <trkpt lat="49.8804" lon="4.84126">
        <ele>168</ele>
        <time>2021-08-27T07:59:04.000Z</time>
      </trkpt>
      <trkpt lat="49.8804" lon="4.84126">
        <ele>168</ele>
        <time>2021-08-27T07:59:05.000Z</time>
      </trkpt>
      <trkpt lat="49.8804" lon="4.84126">
        <ele>168</ele>
        <time>2021-08-27T07:59:06.000Z</time>
      </trkpt>
      <trkpt lat="49.8804" lon="4.84126">
        <ele>168</ele>
        <time>2021-08-27T07:59:07.000Z</time>
      </trkpt>
      <trkpt lat="49.8804" lon="4.84126">
        <ele>168</ele>
        <time>2021-08-27T07:59:08.000Z</time>
      </trkpt>
      <trkpt lat="49.8804" lon="4.84126">
        <ele>168</ele>
        <time>2021-08-27T07:59:09.000Z</time>
      </trkpt>
      <trkpt lat="49.8804" lon="4.84126">
        <ele>168</ele>
        <time>2021-08-27T07:59:10.000Z</time>
      </trkpt>
      <trkpt lat="49.8804" lon="4.84126">
        <ele>168</ele>
        <time>2021-08-27T07:59:11.000Z</time>
      </trkpt>
      <trkpt lat="49.8804" lon="4.84126">
        <ele>168</ele>
        <time>2021-08-27T07:59:12.000Z</time>
      </trkpt>
      <trkpt lat="49.8804" lon="4.84126">
        <ele>168</ele>
        <time>2021-08-27T07:59:13.000Z</time>
      </trkpt>
      <trkpt lat="49.8804" lon="4.84126">
        <ele>168</ele>
        <time>2021-08-27T07:59:14.000Z</time>
      </trkpt>
      <trkpt lat="49.8804" lon="4.84126">
        <ele>168</ele>
        <time>2021-08-27T07:59:15.000Z</time>
      </trkpt>
      <trkpt lat="49.8804" lon="4.84126">
        <ele>168</ele>
        <time>2021-08-27T07:59:16.000Z</time>
      </trkpt>
      <trkpt lat="49.8804" lon="4.84126">
        <ele>168</ele>
        <time>2021-08-27T07:59:17.000Z</time>
      </trkpt>
      <trkpt lat="49.8804" lon="4.84126">
        <ele>168</ele>
        <time>2021-08-27T07:59:18.000Z</time>
      </trkpt>
      <trkpt lat="49.8804" lon="4.84126">
        <ele>168</ele>
        <time>2021-08-27T07:59:19.000Z</time>
      </trkpt>
      <trkpt lat="49.8804" lon="4.84126">
        <ele>168</ele>
        <time>2021-08-27T07:59:20.000Z</time>
      </trkpt>
      <trkpt lat="49.8804" lon="4.84126">
        <ele>168</ele>
        <time>2021-08-27T07:59:21.000Z</time>
      </trkpt>
      <trkpt lat="49.8804" lon="4.84126">
        <ele>168</ele>
        <time>2021-08-27T07:59:22.000Z</time>
      </trkpt>
      <trkpt lat="49.8804" lon="4.84126">
        <ele>168</ele>
        <time>2021-08-27T07:59:23.000Z</time>
      </trkpt>
      <trkpt lat="49.8804" lon="4.84126">
        <ele>168</ele>
        <time>2021-08-27T07:59:24.000Z</time>
      </trkpt>
      <trkpt lat="49.8804" lon="4.84126">
        <ele>168</ele>
        <time>2021-08-27T07:59:25.000Z</time>
      </trkpt>
      <trkpt lat="49.8804" lon="4.84126">
        <ele>168</ele>
        <time>2021-08-27T07:59:26.000Z</time>
      </trkpt>
      <trkpt lat="49.8804" lon="4.84126">
        <ele>168</ele>
        <time>2021-08-27T07:59:27.000Z</time>
      </trkpt>
      <trkpt lat="49.8804" lon="4.84126">
        <ele>168</ele>
        <time>2021-08-27T07:59:28.000Z</time>
      </trkpt>
      <trkpt lat="49.8804" lon="4.84126">
        <ele>168</ele>
        <time>2021-08-27T07:59:29.000Z</time>
      </trkpt>
      <trkpt lat="49.8804" lon="4.84125">
        <ele>168</ele>
        <time>2021-08-27T07:59:30.000Z</time>
      </trkpt>
      <trkpt lat="49.8804" lon="4.84125">
        <ele>168</ele>
        <time>2021-08-27T07:59:31.000Z</time>
      </trkpt>
      <trkpt lat="49.8804" lon="4.84125">
        <ele>167</ele>
        <time>2021-08-27T07:59:32.000Z</time>
      </trkpt>
      <trkpt lat="49.8804" lon="4.84126">
        <ele>167</ele>
        <time>2021-08-27T07:59:33.000Z</time>
      </trkpt>
      <trkpt lat="49.88042" lon="4.84127">
        <ele>167</ele>
        <time>2021-08-27T07:59:34.000Z</time>
      </trkpt>
      <trkpt lat="49.88042" lon="4.84127">
        <ele>167</ele>
        <time>2021-08-27T07:59:35.000Z</time>
      </trkpt>
      <trkpt lat="49.88042" lon="4.84127">
        <ele>167</ele>
        <time>2021-08-27T07:59:36.000Z</time>
      </trkpt>
      <trkpt lat="49.88042" lon="4.84127">
        <ele>167</ele>
        <time>2021-08-27T07:59:37.000Z</time>
      </trkpt>
      <trkpt lat="49.88042" lon="4.84128">
        <ele>167</ele>
        <time>2021-08-27T07:59:38.000Z</time>
      </trkpt>
      <trkpt lat="49.88043" lon="4.84129">
        <ele>167</ele>
        <time>2021-08-27T07:59:39.000Z</time>
      </trkpt>
      <trkpt lat="49.88045" lon="4.84131">
        <ele>167</ele>
        <time>2021-08-27T07:59:40.000Z</time>
      </trkpt>
      <trkpt lat="49.88045" lon="4.84134">
        <ele>167</ele>
        <time>2021-08-27T07:59:41.000Z</time>
      </trkpt>
      <trkpt lat="49.88044" lon="4.84138">
        <ele>167</ele>
        <time>2021-08-27T07:59:42.000Z</time>
      </trkpt>
      <trkpt lat="49.88043" lon="4.84141">
        <ele>167</ele>
        <time>2021-08-27T07:59:43.000Z</time>
      </trkpt>
      <trkpt lat="49.8804" lon="4.84143">
        <ele>167</ele>
        <time>2021-08-27T07:59:44.000Z</time>
      </trkpt>
      <trkpt lat="49.88038" lon="4.84146">
        <ele>166</ele>
        <time>2021-08-27T07:59:45.000Z</time>
      </trkpt>
      <trkpt lat="49.88035" lon="4.84149">
        <ele>166</ele>
        <time>2021-08-27T07:59:46.000Z</time>
      </trkpt>
      <trkpt lat="49.88032" lon="4.84153">
        <ele>166</ele>
        <time>2021-08-27T07:59:47.000Z</time>
      </trkpt>
      <trkpt lat="49.88029" lon="4.84157">
        <ele>166</ele>
        <time>2021-08-27T07:59:48.000Z</time>
      </trkpt>
      <trkpt lat="49.88026" lon="4.84161">
        <ele>166</ele>
        <time>2021-08-27T07:59:49.000Z</time>
      </trkpt>
      <trkpt lat="49.88022" lon="4.84165">
        <ele>166</ele>
        <time>2021-08-27T07:59:50.000Z</time>
      </trkpt>
      <trkpt lat="49.88019" lon="4.84169">
        <ele>166</ele>
        <time>2021-08-27T07:59:51.000Z</time>
      </trkpt>
      <trkpt lat="49.88016" lon="4.84174">
        <ele>166</ele>
        <time>2021-08-27T07:59:52.000Z</time>
      </trkpt>
      <trkpt lat="49.88013" lon="4.84178">
        <ele>166</ele>
        <time>2021-08-27T07:59:53.000Z</time>
      </trkpt>
      <trkpt lat="49.88009" lon="4.84183">
        <ele>166</ele>
        <time>2021-08-27T07:59:54.000Z</time>
      </trkpt>
      <trkpt lat="49.88006" lon="4.84189">
        <ele>166</ele>
        <time>2021-08-27T07:59:55.000Z</time>
      </trkpt>
      <trkpt lat="49.88002" lon="4.84195">
        <ele>166</ele>
        <time>2021-08-27T07:59:56.000Z</time>
      </trkpt>
      <trkpt lat="49.87999" lon="4.84201">
        <ele>166</ele>
        <time>2021-08-27T07:59:57.000Z</time>
      </trkpt>
      <trkpt lat="49.87995" lon="4.84207">
        <ele>166</ele>
        <time>2021-08-27T07:59:58.000Z</time>
      </trkpt>
      <trkpt lat="49.87992" lon="4.84213">
        <ele>166</ele>
        <time>2021-08-27T07:59:59.000Z</time>
      </trkpt>
      <trkpt lat="49.87988" lon="4.8422">
        <ele>166</ele>
        <time>2021-08-27T08:00:00.000Z</time>
      </trkpt>
      <trkpt lat="49.87984" lon="4.84227">
        <ele>166</ele>
        <time>2021-08-27T08:00:01.000Z</time>
      </trkpt>
      <trkpt lat="49.8798" lon="4.84233">
        <ele>166</ele>
        <time>2021-08-27T08:00:02.000Z</time>
      </trkpt>
      <trkpt lat="49.87977" lon="4.8424">
        <ele>167</ele>
        <time>2021-08-27T08:00:03.000Z</time>
      </trkpt>
      <trkpt lat="49.87973" lon="4.84246">
        <ele>167</ele>
        <time>2021-08-27T08:00:04.000Z</time>
      </trkpt>
      <trkpt lat="49.87969" lon="4.84252">
        <ele>167</ele>
        <time>2021-08-27T08:00:05.000Z</time>
      </trkpt>
      <trkpt lat="49.87965" lon="4.84259">
        <ele>168</ele>
        <time>2021-08-27T08:00:06.000Z</time>
      </trkpt>
      <trkpt lat="49.87962" lon="4.84265">
        <ele>168</ele>
        <time>2021-08-27T08:00:07.000Z</time>
      </trkpt>
      <trkpt lat="49.87958" lon="4.84271">
        <ele>168</ele>
        <time>2021-08-27T08:00:08.000Z</time>
      </trkpt>
      <trkpt lat="49.87955" lon="4.84278">
        <ele>169</ele>
        <time>2021-08-27T08:00:09.000Z</time>
      </trkpt>
      <trkpt lat="49.87952" lon="4.84285">
        <ele>169</ele>
        <time>2021-08-27T08:00:10.000Z</time>
      </trkpt>
      <trkpt lat="49.87949" lon="4.84291">
        <ele>169</ele>
        <time>2021-08-27T08:00:11.000Z</time>
      </trkpt>
      <trkpt lat="49.87945" lon="4.84296">
        <ele>169</ele>
        <time>2021-08-27T08:00:12.000Z</time>
      </trkpt>
      <trkpt lat="49.87942" lon="4.84302">
        <ele>169</ele>
        <time>2021-08-27T08:00:13.000Z</time>
      </trkpt>
      <trkpt lat="49.87938" lon="4.84307">
        <ele>169</ele>
        <time>2021-08-27T08:00:14.000Z</time>
      </trkpt>
      <trkpt lat="49.87934" lon="4.84312">
        <ele>169</ele>
        <time>2021-08-27T08:00:15.000Z</time>
      </trkpt>
      <trkpt lat="49.87931" lon="4.84317">
        <ele>170</ele>
        <time>2021-08-27T08:00:16.000Z</time>
      </trkpt>
      <trkpt lat="49.87927" lon="4.84323">
        <ele>170</ele>
        <time>2021-08-27T08:00:17.000Z</time>
      </trkpt>
      <trkpt lat="49.87923" lon="4.84328">
        <ele>170</ele>
        <time>2021-08-27T08:00:18.000Z</time>
      </trkpt>
      <trkpt lat="49.8792" lon="4.84333">
        <ele>170</ele>
        <time>2021-08-27T08:00:19.000Z</time>
      </trkpt>
      <trkpt lat="49.87916" lon="4.84338">
        <ele>170</ele>
        <time>2021-08-27T08:00:20.000Z</time>
      </trkpt>
      <trkpt lat="49.87913" lon="4.84344">
        <ele>170</ele>
        <time>2021-08-27T08:00:21.000Z</time>
      </trkpt>
      <trkpt lat="49.87909" lon="4.84348">
        <ele>170</ele>
        <time>2021-08-27T08:00:22.000Z</time>
      </trkpt>
      <trkpt lat="49.87905" lon="4.84353">
        <ele>170</ele>
        <time>2021-08-27T08:00:23.000Z</time>
      </trkpt>
      <trkpt lat="49.87901" lon="4.84358">
        <ele>170</ele>
        <time>2021-08-27T08:00:24.000Z</time>
      </trkpt>
      <trkpt lat="49.87897" lon="4.84363">
        <ele>170</ele>
        <time>2021-08-27T08:00:25.000Z</time>
      </trkpt>
      <trkpt lat="49.87893" lon="4.84367">
        <ele>170</ele>
        <time>2021-08-27T08:00:26.000Z</time>
      </trkpt>
      <trkpt lat="49.87889" lon="4.84373">
        <ele>170</ele>
        <time>2021-08-27T08:00:27.000Z</time>
      </trkpt>
      <trkpt lat="49.87886" lon="4.84378">
        <ele>170</ele>
        <time>2021-08-27T08:00:28.000Z</time>
      </trkpt>
      <trkpt lat="49.87882" lon="4.84382">
        <ele>170</ele>
        <time>2021-08-27T08:00:29.000Z</time>
      </trkpt>
      <trkpt lat="49.87878" lon="4.84387">
        <ele>170</ele>
        <time>2021-08-27T08:00:30.000Z</time>
      </trkpt>
      <trkpt lat="49.87874" lon="4.84392">
        <ele>170</ele>
        <time>2021-08-27T08:00:31.000Z</time>
      </trkpt>
      <trkpt lat="49.8787" lon="4.84398">
        <ele>169</ele>
        <time>2021-08-27T08:00:32.000Z</time>
      </trkpt>
      <trkpt lat="49.87866" lon="4.84403">
        <ele>169</ele>
        <time>2021-08-27T08:00:33.000Z</time>
      </trkpt>
      <trkpt lat="49.87863" lon="4.84408">
        <ele>169</ele>
        <time>2021-08-27T08:00:34.000Z</time>
      </trkpt>
      <trkpt lat="49.87859" lon="4.84412">
        <ele>169</ele>
        <time>2021-08-27T08:00:35.000Z</time>
      </trkpt>
      <trkpt lat="49.87855" lon="4.84417">
        <ele>169</ele>
        <time>2021-08-27T08:00:36.000Z</time>
      </trkpt>
      <trkpt lat="49.87851" lon="4.84422">
        <ele>169</ele>
        <time>2021-08-27T08:00:37.000Z</time>
      </trkpt>
      <trkpt lat="49.87847" lon="4.84426">
        <ele>169</ele>
        <time>2021-08-27T08:00:38.000Z</time>
      </trkpt>
      <trkpt lat="49.87843" lon="4.8443">
        <ele>168</ele>
        <time>2021-08-27T08:00:39.000Z</time>
      </trkpt>
      <trkpt lat="49.87839" lon="4.84435">
        <ele>168</ele>
        <time>2021-08-27T08:00:40.000Z</time>
      </trkpt>
      <trkpt lat="49.87835" lon="4.84439">
        <ele>168</ele>
        <time>2021-08-27T08:00:41.000Z</time>
      </trkpt>
      <trkpt lat="49.87831" lon="4.84443">
        <ele>168</ele>
        <time>2021-08-27T08:00:42.000Z</time>
      </trkpt>
      <trkpt lat="49.87827" lon="4.84447">
        <ele>168</ele>
        <time>2021-08-27T08:00:43.000Z</time>
      </trkpt>
      <trkpt lat="49.87823" lon="4.84451">
        <ele>168</ele>
        <time>2021-08-27T08:00:44.000Z</time>
      </trkpt>
      <trkpt lat="49.87819" lon="4.84456">
        <ele>168</ele>
        <time>2021-08-27T08:00:45.000Z</time>
      </trkpt>
      <trkpt lat="49.87815" lon="4.8446">
        <ele>168</ele>
        <time>2021-08-27T08:00:46.000Z</time>
      </trkpt>
      <trkpt lat="49.87811" lon="4.84464">
        <ele>168</ele>
        <time>2021-08-27T08:00:47.000Z</time>
      </trkpt>
      <trkpt lat="49.87807" lon="4.84468">
        <ele>167</ele>
        <time>2021-08-27T08:00:48.000Z</time>
      </trkpt>
      <trkpt lat="49.87803" lon="4.84472">
        <ele>167</ele>
        <time>2021-08-27T08:00:49.000Z</time>
      </trkpt>
      <trkpt lat="49.87799" lon="4.84476">
        <ele>167</ele>
        <time>2021-08-27T08:00:50.000Z</time>
      </trkpt>
      <trkpt lat="49.87795" lon="4.84481">
        <ele>167</ele>
        <time>2021-08-27T08:00:51.000Z</time>
      </trkpt>
      <trkpt lat="49.87791" lon="4.84485">
        <ele>167</ele>
        <time>2021-08-27T08:00:52.000Z</time>
      </trkpt>
      <trkpt lat="49.87787" lon="4.84489">
        <ele>167</ele>
        <time>2021-08-27T08:00:53.000Z</time>
      </trkpt>
      <trkpt lat="49.87783" lon="4.84492">
        <ele>167</ele>
        <time>2021-08-27T08:00:54.000Z</time>
      </trkpt>
      <trkpt lat="49.87779" lon="4.84496">
        <ele>167</ele>
        <time>2021-08-27T08:00:55.000Z</time>
      </trkpt>
      <trkpt lat="49.87775" lon="4.84499">
        <ele>167</ele>
        <time>2021-08-27T08:00:56.000Z</time>
      </trkpt>
      <trkpt lat="49.87771" lon="4.84503">
        <ele>167</ele>
        <time>2021-08-27T08:00:57.000Z</time>
      </trkpt>
      <trkpt lat="49.87767" lon="4.84506">
        <ele>167</ele>
        <time>2021-08-27T08:00:58.000Z</time>
      </trkpt>
      <trkpt lat="49.87763" lon="4.8451">
        <ele>167</ele>
        <time>2021-08-27T08:00:59.000Z</time>
      </trkpt>
      <trkpt lat="49.87759" lon="4.84513">
        <ele>167</ele>
        <time>2021-08-27T08:01:00.000Z</time>
      </trkpt>
      <trkpt lat="49.87754" lon="4.84516">
        <ele>167</ele>
        <time>2021-08-27T08:01:01.000Z</time>
      </trkpt>
      <trkpt lat="49.8775" lon="4.84518">
        <ele>167</ele>
        <time>2021-08-27T08:01:02.000Z</time>
      </trkpt>
      <trkpt lat="49.87745" lon="4.84522">
        <ele>167</ele>
        <time>2021-08-27T08:01:03.000Z</time>
      </trkpt>
      <trkpt lat="49.8774" lon="4.84525">
        <ele>167</ele>
        <time>2021-08-27T08:01:04.000Z</time>
      </trkpt>
      <trkpt lat="49.87736" lon="4.84528">
        <ele>167</ele>
        <time>2021-08-27T08:01:05.000Z</time>
      </trkpt>
      <trkpt lat="49.87731" lon="4.84532">
        <ele>167</ele>
        <time>2021-08-27T08:01:06.000Z</time>
      </trkpt>
      <trkpt lat="49.87727" lon="4.84535">
        <ele>167</ele>
        <time>2021-08-27T08:01:07.000Z</time>
      </trkpt>
      <trkpt lat="49.87723" lon="4.84539">
        <ele>167</ele>
        <time>2021-08-27T08:01:08.000Z</time>
      </trkpt>
      <trkpt lat="49.87719" lon="4.84543">
        <ele>167</ele>
        <time>2021-08-27T08:01:09.000Z</time>
      </trkpt>
      <trkpt lat="49.87714" lon="4.84547">
        <ele>167</ele>
        <time>2021-08-27T08:01:10.000Z</time>
      </trkpt>
      <trkpt lat="49.8771" lon="4.84551">
        <ele>167</ele>
        <time>2021-08-27T08:01:11.000Z</time>
      </trkpt>
      <trkpt lat="49.87706" lon="4.84556">
        <ele>167</ele>
        <time>2021-08-27T08:01:12.000Z</time>
      </trkpt>
      <trkpt lat="49.87702" lon="4.84561">
        <ele>167</ele>
        <time>2021-08-27T08:01:13.000Z</time>
      </trkpt>
      <trkpt lat="49.87698" lon="4.84566">
        <ele>167</ele>
        <time>2021-08-27T08:01:14.000Z</time>
      </trkpt>
      <trkpt lat="49.87693" lon="4.84571">
        <ele>167</ele>
        <time>2021-08-27T08:01:15.000Z</time>
      </trkpt>
      <trkpt lat="49.87689" lon="4.84576">
        <ele>166</ele>
        <time>2021-08-27T08:01:16.000Z</time>
      </trkpt>
      <trkpt lat="49.87684" lon="4.84581">
        <ele>166</ele>
        <time>2021-08-27T08:01:17.000Z</time>
      </trkpt>
      <trkpt lat="49.8768" lon="4.84586">
        <ele>166</ele>
        <time>2021-08-27T08:01:18.000Z</time>
      </trkpt>
      <trkpt lat="49.87675" lon="4.84591">
        <ele>166</ele>
        <time>2021-08-27T08:01:19.000Z</time>
      </trkpt>
      <trkpt lat="49.8767" lon="4.84595">
        <ele>166</ele>
        <time>2021-08-27T08:01:20.000Z</time>
      </trkpt>
      <trkpt lat="49.87666" lon="4.846">
        <ele>166</ele>
        <time>2021-08-27T08:01:21.000Z</time>
      </trkpt>
      <trkpt lat="49.87662" lon="4.84604">
        <ele>166</ele>
        <time>2021-08-27T08:01:22.000Z</time>
      </trkpt>
      <trkpt lat="49.87657" lon="4.84609">
        <ele>166</ele>
        <time>2021-08-27T08:01:23.000Z</time>
      </trkpt>
      <trkpt lat="49.87653" lon="4.84613">
        <ele>166</ele>
        <time>2021-08-27T08:01:24.000Z</time>
      </trkpt>
      <trkpt lat="49.87648" lon="4.84617">
        <ele>166</ele>
        <time>2021-08-27T08:01:25.000Z</time>
      </trkpt>
      <trkpt lat="49.87644" lon="4.84621">
        <ele>166</ele>
        <time>2021-08-27T08:01:26.000Z</time>
      </trkpt>
      <trkpt lat="49.87639" lon="4.84625">
        <ele>166</ele>
        <time>2021-08-27T08:01:27.000Z</time>
      </trkpt>
      <trkpt lat="49.87634" lon="4.84628">
        <ele>166</ele>
        <time>2021-08-27T08:01:28.000Z</time>
      </trkpt>
      <trkpt lat="49.87629" lon="4.84632">
        <ele>166</ele>
        <time>2021-08-27T08:01:29.000Z</time>
      </trkpt>
      <trkpt lat="49.87625" lon="4.84635">
        <ele>166</ele>
        <time>2021-08-27T08:01:30.000Z</time>
      </trkpt>
      <trkpt lat="49.8762" lon="4.84639">
        <ele>165</ele>
        <time>2021-08-27T08:01:31.000Z</time>
      </trkpt>
      <trkpt lat="49.87615" lon="4.84642">
        <ele>165</ele>
        <time>2021-08-27T08:01:32.000Z</time>
      </trkpt>
      <trkpt lat="49.8761" lon="4.84646">
        <ele>165</ele>
        <time>2021-08-27T08:01:33.000Z</time>
      </trkpt>
      <trkpt lat="49.87605" lon="4.84649">
        <ele>165</ele>
        <time>2021-08-27T08:01:34.000Z</time>
      </trkpt>
      <trkpt lat="49.876" lon="4.84652">
        <ele>165</ele>
        <time>2021-08-27T08:01:35.000Z</time>
      </trkpt>
      <trkpt lat="49.87594" lon="4.84654">
        <ele>165</ele>
        <time>2021-08-27T08:01:36.000Z</time>
      </trkpt>
      <trkpt lat="49.87589" lon="4.84655">
        <ele>165</ele>
        <time>2021-08-27T08:01:37.000Z</time>
      </trkpt>
      <trkpt lat="49.87583" lon="4.84655">
        <ele>165</ele>
        <time>2021-08-27T08:01:38.000Z</time>
      </trkpt>
      <trkpt lat="49.87578" lon="4.84654">
        <ele>165</ele>
        <time>2021-08-27T08:01:39.000Z</time>
      </trkpt>
      <trkpt lat="49.87573" lon="4.84651">
        <ele>165</ele>
        <time>2021-08-27T08:01:40.000Z</time>
      </trkpt>
      <trkpt lat="49.87568" lon="4.84648">
        <ele>165</ele>
        <time>2021-08-27T08:01:41.000Z</time>
      </trkpt>
      <trkpt lat="49.87563" lon="4.84644">
        <ele>165</ele>
        <time>2021-08-27T08:01:42.000Z</time>
      </trkpt>
      <trkpt lat="49.87558" lon="4.8464">
        <ele>165</ele>
        <time>2021-08-27T08:01:43.000Z</time>
      </trkpt>
      <trkpt lat="49.87554" lon="4.84636">
        <ele>165</ele>
        <time>2021-08-27T08:01:44.000Z</time>
      </trkpt>
      <trkpt lat="49.87549" lon="4.84632">
        <ele>166</ele>
        <time>2021-08-27T08:01:45.000Z</time>
      </trkpt>
      <trkpt lat="49.87545" lon="4.84629">
        <ele>166</ele>
        <time>2021-08-27T08:01:46.000Z</time>
      </trkpt>
      <trkpt lat="49.8754" lon="4.84625">
        <ele>166</ele>
        <time>2021-08-27T08:01:47.000Z</time>
      </trkpt>
      <trkpt lat="49.87535" lon="4.84621">
        <ele>166</ele>
        <time>2021-08-27T08:01:48.000Z</time>
      </trkpt>
      <trkpt lat="49.87531" lon="4.84617">
        <ele>166</ele>
        <time>2021-08-27T08:01:49.000Z</time>
      </trkpt>
      <trkpt lat="49.87526" lon="4.84614">
        <ele>166</ele>
        <time>2021-08-27T08:01:50.000Z</time>
      </trkpt>
      <trkpt lat="49.87522" lon="4.8461">
        <ele>166</ele>
        <time>2021-08-27T08:01:51.000Z</time>
      </trkpt>
      <trkpt lat="49.87518" lon="4.84606">
        <ele>167</ele>
        <time>2021-08-27T08:01:52.000Z</time>
      </trkpt>
      <trkpt lat="49.87514" lon="4.84603">
        <ele>167</ele>
        <time>2021-08-27T08:01:53.000Z</time>
      </trkpt>
      <trkpt lat="49.8751" lon="4.846">
        <ele>167</ele>
        <time>2021-08-27T08:01:54.000Z</time>
      </trkpt>
      <trkpt lat="49.87507" lon="4.84597">
        <ele>167</ele>
        <time>2021-08-27T08:01:55.000Z</time>
      </trkpt>
      <trkpt lat="49.87503" lon="4.84594">
        <ele>167</ele>
        <time>2021-08-27T08:01:56.000Z</time>
      </trkpt>
      <trkpt lat="49.87499" lon="4.8459">
        <ele>167</ele>
        <time>2021-08-27T08:01:57.000Z</time>
      </trkpt>
      <trkpt lat="49.87496" lon="4.84587">
        <ele>168</ele>
        <time>2021-08-27T08:01:58.000Z</time>
      </trkpt>
      <trkpt lat="49.87492" lon="4.84584">
        <ele>168</ele>
        <time>2021-08-27T08:01:59.000Z</time>
      </trkpt>
      <trkpt lat="49.87489" lon="4.8458">
        <ele>168</ele>
        <time>2021-08-27T08:02:00.000Z</time>
      </trkpt>
      <trkpt lat="49.87486" lon="4.84577">
        <ele>168</ele>
        <time>2021-08-27T08:02:01.000Z</time>
      </trkpt>
      <trkpt lat="49.87483" lon="4.84574">
        <ele>168</ele>
        <time>2021-08-27T08:02:02.000Z</time>
      </trkpt>
      <trkpt lat="49.87479" lon="4.84571">
        <ele>169</ele>
        <time>2021-08-27T08:02:03.000Z</time>
      </trkpt>
      <trkpt lat="49.87476" lon="4.84569">
        <ele>169</ele>
        <time>2021-08-27T08:02:04.000Z</time>
      </trkpt>
      <trkpt lat="49.87473" lon="4.84567">
        <ele>169</ele>
        <time>2021-08-27T08:02:05.000Z</time>
      </trkpt>
      <trkpt lat="49.8747" lon="4.84565">
        <ele>169</ele>
        <time>2021-08-27T08:02:06.000Z</time>
      </trkpt>
      <trkpt lat="49.87467" lon="4.84563">
        <ele>169</ele>
        <time>2021-08-27T08:02:07.000Z</time>
      </trkpt>
      <trkpt lat="49.87464" lon="4.84561">
        <ele>169</ele>
        <time>2021-08-27T08:02:08.000Z</time>
      </trkpt>
      <trkpt lat="49.87461" lon="4.84558">
        <ele>170</ele>
        <time>2021-08-27T08:02:09.000Z</time>
      </trkpt>
      <trkpt lat="49.87459" lon="4.84555">
        <ele>170</ele>
        <time>2021-08-27T08:02:10.000Z</time>
      </trkpt>
      <trkpt lat="49.87456" lon="4.84553">
        <ele>170</ele>
        <time>2021-08-27T08:02:11.000Z</time>
      </trkpt>
      <trkpt lat="49.87453" lon="4.8455">
        <ele>171</ele>
        <time>2021-08-27T08:02:12.000Z</time>
      </trkpt>
      <trkpt lat="49.8745" lon="4.84547">
        <ele>171</ele>
        <time>2021-08-27T08:02:13.000Z</time>
      </trkpt>
      <trkpt lat="49.87447" lon="4.84545">
        <ele>171</ele>
        <time>2021-08-27T08:02:14.000Z</time>
      </trkpt>
      <trkpt lat="49.87445" lon="4.84543">
        <ele>171</ele>
        <time>2021-08-27T08:02:15.000Z</time>
      </trkpt>
      <trkpt lat="49.87442" lon="4.84541">
        <ele>172</ele>
        <time>2021-08-27T08:02:16.000Z</time>
      </trkpt>
      <trkpt lat="49.87439" lon="4.84539">
        <ele>172</ele>
        <time>2021-08-27T08:02:17.000Z</time>
      </trkpt>
      <trkpt lat="49.87436" lon="4.84537">
        <ele>172</ele>
        <time>2021-08-27T08:02:18.000Z</time>
      </trkpt>
      <trkpt lat="49.87433" lon="4.84535">
        <ele>172</ele>
        <time>2021-08-27T08:02:19.000Z</time>
      </trkpt>
      <trkpt lat="49.8743" lon="4.84534">
        <ele>173</ele>
        <time>2021-08-27T08:02:20.000Z</time>
      </trkpt>
      <trkpt lat="49.87427" lon="4.84532">
        <ele>173</ele>
        <time>2021-08-27T08:02:21.000Z</time>
      </trkpt>
      <trkpt lat="49.87424" lon="4.84531">
        <ele>173</ele>
        <time>2021-08-27T08:02:22.000Z</time>
      </trkpt>
      <trkpt lat="49.87422" lon="4.8453">
        <ele>173</ele>
        <time>2021-08-27T08:02:23.000Z</time>
      </trkpt>
      <trkpt lat="49.87419" lon="4.84529">
        <ele>174</ele>
        <time>2021-08-27T08:02:24.000Z</time>
      </trkpt>
      <trkpt lat="49.87416" lon="4.84528">
        <ele>174</ele>
        <time>2021-08-27T08:02:25.000Z</time>
      </trkpt>
      <trkpt lat="49.87413" lon="4.84527">
        <ele>174</ele>
        <time>2021-08-27T08:02:26.000Z</time>
      </trkpt>
      <trkpt lat="49.8741" lon="4.84526">
        <ele>174</ele>
        <time>2021-08-27T08:02:27.000Z</time>
      </trkpt>
      <trkpt lat="49.87408" lon="4.84526">
        <ele>175</ele>
        <time>2021-08-27T08:02:28.000Z</time>
      </trkpt>
      <trkpt lat="49.87405" lon="4.84526">
        <ele>175</ele>
        <time>2021-08-27T08:02:29.000Z</time>
      </trkpt>
      <trkpt lat="49.87402" lon="4.84527">
        <ele>175</ele>
        <time>2021-08-27T08:02:30.000Z</time>
      </trkpt>
      <trkpt lat="49.87399" lon="4.84527">
        <ele>175</ele>
        <time>2021-08-27T08:02:31.000Z</time>
      </trkpt>
      <trkpt lat="49.87396" lon="4.84527">
        <ele>175</ele>
        <time>2021-08-27T08:02:32.000Z</time>
      </trkpt>
      <trkpt lat="49.87392" lon="4.84527">
        <ele>176</ele>
        <time>2021-08-27T08:02:33.000Z</time>
      </trkpt>
      <trkpt lat="49.87389" lon="4.84526">
        <ele>176</ele>
        <time>2021-08-27T08:02:34.000Z</time>
      </trkpt>
      <trkpt lat="49.87386" lon="4.84526">
        <ele>176</ele>
        <time>2021-08-27T08:02:35.000Z</time>
      </trkpt>
      <trkpt lat="49.87383" lon="4.84526">
        <ele>176</ele>
        <time>2021-08-27T08:02:36.000Z</time>
      </trkpt>
      <trkpt lat="49.8738" lon="4.84527">
        <ele>177</ele>
        <time>2021-08-27T08:02:37.000Z</time>
      </trkpt>
      <trkpt lat="49.87378" lon="4.84527">
        <ele>177</ele>
        <time>2021-08-27T08:02:38.000Z</time>
      </trkpt>
      <trkpt lat="49.87375" lon="4.84528">
        <ele>177</ele>
        <time>2021-08-27T08:02:39.000Z</time>
      </trkpt>
      <trkpt lat="49.87372" lon="4.8453">
        <ele>178</ele>
        <time>2021-08-27T08:02:40.000Z</time>
      </trkpt>
      <trkpt lat="49.8737" lon="4.8453">
        <ele>178</ele>
        <time>2021-08-27T08:02:41.000Z</time>
      </trkpt>
      <trkpt lat="49.87367" lon="4.84531">
        <ele>178</ele>
        <time>2021-08-27T08:02:42.000Z</time>
      </trkpt>
      <trkpt lat="49.87364" lon="4.84532">
        <ele>178</ele>
        <time>2021-08-27T08:02:43.000Z</time>
      </trkpt>
      <trkpt lat="49.87361" lon="4.84533">
        <ele>179</ele>
        <time>2021-08-27T08:02:44.000Z</time>
      </trkpt>
      <trkpt lat="49.87359" lon="4.84534">
        <ele>179</ele>
        <time>2021-08-27T08:02:45.000Z</time>
      </trkpt>
      <trkpt lat="49.87356" lon="4.84535">
        <ele>179</ele>
        <time>2021-08-27T08:02:46.000Z</time>
      </trkpt>
      <trkpt lat="49.87353" lon="4.84536">
        <ele>180</ele>
        <time>2021-08-27T08:02:47.000Z</time>
      </trkpt>
      <trkpt lat="49.8735" lon="4.84537">
        <ele>180</ele>
        <time>2021-08-27T08:02:48.000Z</time>
      </trkpt>
      <trkpt lat="49.87348" lon="4.84538">
        <ele>180</ele>
        <time>2021-08-27T08:02:49.000Z</time>
      </trkpt>
      <trkpt lat="49.87345" lon="4.8454">
        <ele>181</ele>
        <time>2021-08-27T08:02:50.000Z</time>
      </trkpt>
      <trkpt lat="49.87342" lon="4.84542">
        <ele>181</ele>
        <time>2021-08-27T08:02:51.000Z</time>
      </trkpt>
      <trkpt lat="49.87339" lon="4.84543">
        <ele>181</ele>
        <time>2021-08-27T08:02:52.000Z</time>
      </trkpt>
      <trkpt lat="49.87336" lon="4.84545">
        <ele>182</ele>
        <time>2021-08-27T08:02:53.000Z</time>
      </trkpt>
      <trkpt lat="49.87333" lon="4.84546">
        <ele>182</ele>
        <time>2021-08-27T08:02:54.000Z</time>
      </trkpt>
      <trkpt lat="49.8733" lon="4.84548">
        <ele>182</ele>
        <time>2021-08-27T08:02:55.000Z</time>
      </trkpt>
      <trkpt lat="49.87327" lon="4.8455">
        <ele>182</ele>
        <time>2021-08-27T08:02:56.000Z</time>
      </trkpt>
      <trkpt lat="49.87324" lon="4.84551">
        <ele>183</ele>
        <time>2021-08-27T08:02:57.000Z</time>
      </trkpt>
      <trkpt lat="49.8732" lon="4.84553">
        <ele>183</ele>
        <time>2021-08-27T08:02:58.000Z</time>
      </trkpt>
      <trkpt lat="49.87317" lon="4.84555">
        <ele>183</ele>
        <time>2021-08-27T08:02:59.000Z</time>
      </trkpt>
      <trkpt lat="49.87313" lon="4.84556">
        <ele>183</ele>
        <time>2021-08-27T08:03:00.000Z</time>
      </trkpt>
      <trkpt lat="49.8731" lon="4.84558">
        <ele>184</ele>
        <time>2021-08-27T08:03:01.000Z</time>
      </trkpt>
      <trkpt lat="49.87306" lon="4.84559">
        <ele>184</ele>
        <time>2021-08-27T08:03:02.000Z</time>
      </trkpt>
      <trkpt lat="49.87302" lon="4.8456">
        <ele>184</ele>
        <time>2021-08-27T08:03:03.000Z</time>
      </trkpt>
      <trkpt lat="49.87298" lon="4.84561">
        <ele>184</ele>
        <time>2021-08-27T08:03:04.000Z</time>
      </trkpt>
      <trkpt lat="49.87294" lon="4.84562">
        <ele>185</ele>
        <time>2021-08-27T08:03:05.000Z</time>
      </trkpt>
      <trkpt lat="49.8729" lon="4.84563">
        <ele>185</ele>
        <time>2021-08-27T08:03:06.000Z</time>
      </trkpt>
      <trkpt lat="49.87286" lon="4.84564">
        <ele>185</ele>
        <time>2021-08-27T08:03:07.000Z</time>
      </trkpt>
      <trkpt lat="49.87282" lon="4.84565">
        <ele>185</ele>
        <time>2021-08-27T08:03:08.000Z</time>
      </trkpt>
      <trkpt lat="49.87278" lon="4.84566">
        <ele>186</ele>
        <time>2021-08-27T08:03:09.000Z</time>
      </trkpt>
      <trkpt lat="49.87274" lon="4.84567">
        <ele>186</ele>
        <time>2021-08-27T08:03:10.000Z</time>
      </trkpt>
      <trkpt lat="49.8727" lon="4.84568">
        <ele>186</ele>
        <time>2021-08-27T08:03:11.000Z</time>
      </trkpt>
      <trkpt lat="49.87266" lon="4.84569">
        <ele>186</ele>
        <time>2021-08-27T08:03:12.000Z</time>
      </trkpt>
      <trkpt lat="49.87262" lon="4.8457">
        <ele>186</ele>
        <time>2021-08-27T08:03:13.000Z</time>
      </trkpt>
      <trkpt lat="49.87257" lon="4.84571">
        <ele>186</ele>
        <time>2021-08-27T08:03:14.000Z</time>
      </trkpt>
      <trkpt lat="49.87253" lon="4.84572">
        <ele>186</ele>
        <time>2021-08-27T08:03:15.000Z</time>
      </trkpt>
      <trkpt lat="49.87249" lon="4.84572">
        <ele>187</ele>
        <time>2021-08-27T08:03:16.000Z</time>
      </trkpt>
      <trkpt lat="49.87245" lon="4.84573">
        <ele>187</ele>
        <time>2021-08-27T08:03:17.000Z</time>
      </trkpt>
      <trkpt lat="49.87241" lon="4.84573">
        <ele>187</ele>
        <time>2021-08-27T08:03:18.000Z</time>
      </trkpt>
      <trkpt lat="49.87237" lon="4.84574">
        <ele>187</ele>
        <time>2021-08-27T08:03:19.000Z</time>
      </trkpt>
      <trkpt lat="49.87233" lon="4.84574">
        <ele>187</ele>
        <time>2021-08-27T08:03:20.000Z</time>
      </trkpt>
      <trkpt lat="49.87229" lon="4.84574">
        <ele>187</ele>
        <time>2021-08-27T08:03:21.000Z</time>
      </trkpt>
      <trkpt lat="49.87225" lon="4.84574">
        <ele>187</ele>
        <time>2021-08-27T08:03:22.000Z</time>
      </trkpt>
      <trkpt lat="49.8722" lon="4.84574">
        <ele>187</ele>
        <time>2021-08-27T08:03:23.000Z</time>
      </trkpt>
      <trkpt lat="49.87216" lon="4.84574">
        <ele>187</ele>
        <time>2021-08-27T08:03:24.000Z</time>
      </trkpt>
      <trkpt lat="49.87212" lon="4.84573">
        <ele>187</ele>
        <time>2021-08-27T08:03:25.000Z</time>
      </trkpt>
      <trkpt lat="49.87208" lon="4.84573">
        <ele>187</ele>
        <time>2021-08-27T08:03:26.000Z</time>
      </trkpt>
      <trkpt lat="49.87204" lon="4.84573">
        <ele>187</ele>
        <time>2021-08-27T08:03:27.000Z</time>
      </trkpt>
      <trkpt lat="49.87199" lon="4.84574">
        <ele>187</ele>
        <time>2021-08-27T08:03:28.000Z</time>
      </trkpt>
      <trkpt lat="49.87195" lon="4.84574">
        <ele>187</ele>
        <time>2021-08-27T08:03:29.000Z</time>
      </trkpt>
      <trkpt lat="49.87191" lon="4.84575">
        <ele>187</ele>
        <time>2021-08-27T08:03:30.000Z</time>
      </trkpt>
      <trkpt lat="49.87186" lon="4.84575">
        <ele>187</ele>
        <time>2021-08-27T08:03:31.000Z</time>
      </trkpt>
      <trkpt lat="49.87182" lon="4.84576">
        <ele>187</ele>
        <time>2021-08-27T08:03:32.000Z</time>
      </trkpt>
      <trkpt lat="49.87178" lon="4.84576">
        <ele>187</ele>
        <time>2021-08-27T08:03:33.000Z</time>
      </trkpt>
      <trkpt lat="49.87173" lon="4.84577">
        <ele>187</ele>
        <time>2021-08-27T08:03:34.000Z</time>
      </trkpt>
      <trkpt lat="49.87169" lon="4.84578">
        <ele>187</ele>
        <time>2021-08-27T08:03:35.000Z</time>
      </trkpt>
      <trkpt lat="49.87164" lon="4.84578">
        <ele>187</ele>
        <time>2021-08-27T08:03:36.000Z</time>
      </trkpt>
      <trkpt lat="49.8716" lon="4.84578">
        <ele>187</ele>
        <time>2021-08-27T08:03:37.000Z</time>
      </trkpt>
      <trkpt lat="49.87155" lon="4.84579">
        <ele>187</ele>
        <time>2021-08-27T08:03:38.000Z</time>
      </trkpt>
      <trkpt lat="49.87151" lon="4.84579">
        <ele>187</ele>
        <time>2021-08-27T08:03:39.000Z</time>
      </trkpt>
      <trkpt lat="49.87147" lon="4.84579">
        <ele>186</ele>
        <time>2021-08-27T08:03:40.000Z</time>
      </trkpt>
      <trkpt lat="49.87142" lon="4.84578">
        <ele>186</ele>
        <time>2021-08-27T08:03:41.000Z</time>
      </trkpt>
      <trkpt lat="49.87138" lon="4.84578">
        <ele>186</ele>
        <time>2021-08-27T08:03:42.000Z</time>
      </trkpt>
      <trkpt lat="49.87134" lon="4.84577">
        <ele>186</ele>
        <time>2021-08-27T08:03:43.000Z</time>
      </trkpt>
      <trkpt lat="49.87129" lon="4.84577">
        <ele>186</ele>
        <time>2021-08-27T08:03:44.000Z</time>
      </trkpt>
      <trkpt lat="49.87125" lon="4.84576">
        <ele>186</ele>
        <time>2021-08-27T08:03:45.000Z</time>
      </trkpt>
      <trkpt lat="49.87122" lon="4.84575">
        <ele>186</ele>
        <time>2021-08-27T08:03:46.000Z</time>
      </trkpt>
      <trkpt lat="49.87118" lon="4.84574">
        <ele>186</ele>
        <time>2021-08-27T08:03:47.000Z</time>
      </trkpt>
      <trkpt lat="49.87114" lon="4.84573">
        <ele>186</ele>
        <time>2021-08-27T08:03:48.000Z</time>
      </trkpt>
      <trkpt lat="49.8711" lon="4.84572">
        <ele>186</ele>
        <time>2021-08-27T08:03:49.000Z</time>
      </trkpt>
      <trkpt lat="49.87106" lon="4.8457">
        <ele>186</ele>
        <time>2021-08-27T08:03:50.000Z</time>
      </trkpt>
      <trkpt lat="49.87101" lon="4.84568">
        <ele>186</ele>
        <time>2021-08-27T08:03:51.000Z</time>
      </trkpt>
      <trkpt lat="49.87097" lon="4.84566">
        <ele>186</ele>
        <time>2021-08-27T08:03:52.000Z</time>
      </trkpt>
      <trkpt lat="49.87093" lon="4.84564">
        <ele>186</ele>
        <time>2021-08-27T08:03:53.000Z</time>
      </trkpt>
      <trkpt lat="49.87088" lon="4.84563">
        <ele>186</ele>
        <time>2021-08-27T08:03:54.000Z</time>
      </trkpt>
      <trkpt lat="49.87083" lon="4.84563">
        <ele>186</ele>
        <time>2021-08-27T08:03:55.000Z</time>
      </trkpt>
      <trkpt lat="49.87079" lon="4.84564">
        <ele>186</ele>
        <time>2021-08-27T08:03:56.000Z</time>
      </trkpt>
      <trkpt lat="49.87075" lon="4.84565">
        <ele>185</ele>
        <time>2021-08-27T08:03:57.000Z</time>
      </trkpt>
      <trkpt lat="49.87072" lon="4.84567">
        <ele>185</ele>
        <time>2021-08-27T08:03:58.000Z</time>
      </trkpt>
      <trkpt lat="49.87068" lon="4.8457">
        <ele>185</ele>
        <time>2021-08-27T08:03:59.000Z</time>
      </trkpt>
      <trkpt lat="49.87065" lon="4.84572">
        <ele>186</ele>
        <time>2021-08-27T08:04:00.000Z</time>
      </trkpt>
      <trkpt lat="49.87062" lon="4.84574">
        <ele>186</ele>
        <time>2021-08-27T08:04:01.000Z</time>
      </trkpt>
      <trkpt lat="49.87058" lon="4.84576">
        <ele>186</ele>
        <time>2021-08-27T08:04:02.000Z</time>
      </trkpt>
      <trkpt lat="49.87055" lon="4.84578">
        <ele>186</ele>
        <time>2021-08-27T08:04:03.000Z</time>
      </trkpt>
      <trkpt lat="49.87051" lon="4.8458">
        <ele>186</ele>
        <time>2021-08-27T08:04:04.000Z</time>
      </trkpt>
      <trkpt lat="49.87047" lon="4.84582">
        <ele>186</ele>
        <time>2021-08-27T08:04:05.000Z</time>
      </trkpt>
      <trkpt lat="49.87043" lon="4.84583">
        <ele>186</ele>
        <time>2021-08-27T08:04:06.000Z</time>
      </trkpt>
      <trkpt lat="49.87038" lon="4.84585">
        <ele>186</ele>
        <time>2021-08-27T08:04:07.000Z</time>
      </trkpt>
      <trkpt lat="49.87035" lon="4.84587">
        <ele>186</ele>
        <time>2021-08-27T08:04:08.000Z</time>
      </trkpt>
      <trkpt lat="49.87031" lon="4.84589">
        <ele>186</ele>
        <time>2021-08-27T08:04:09.000Z</time>
      </trkpt>
      <trkpt lat="49.87028" lon="4.84591">
        <ele>186</ele>
        <time>2021-08-27T08:04:10.000Z</time>
      </trkpt>
      <trkpt lat="49.87024" lon="4.84593">
        <ele>186</ele>
        <time>2021-08-27T08:04:11.000Z</time>
      </trkpt>
      <trkpt lat="49.87021" lon="4.84596">
        <ele>186</ele>
        <time>2021-08-27T08:04:12.000Z</time>
      </trkpt>
      <trkpt lat="49.87017" lon="4.84598">
        <ele>186</ele>
        <time>2021-08-27T08:04:13.000Z</time>
      </trkpt>
      <trkpt lat="49.87014" lon="4.84601">
        <ele>186</ele>
        <time>2021-08-27T08:04:14.000Z</time>
      </trkpt>
      <trkpt lat="49.87011" lon="4.84604">
        <ele>186</ele>
        <time>2021-08-27T08:04:15.000Z</time>
      </trkpt>
      <trkpt lat="49.87008" lon="4.84605">
        <ele>186</ele>
        <time>2021-08-27T08:04:16.000Z</time>
      </trkpt>
      <trkpt lat="49.87005" lon="4.84607">
        <ele>186</ele>
        <time>2021-08-27T08:04:17.000Z</time>
      </trkpt>
      <trkpt lat="49.87002" lon="4.84608">
        <ele>186</ele>
        <time>2021-08-27T08:04:18.000Z</time>
      </trkpt>
      <trkpt lat="49.87" lon="4.84609">
        <ele>186</ele>
        <time>2021-08-27T08:04:19.000Z</time>
      </trkpt>
      <trkpt lat="49.86997" lon="4.84611">
        <ele>186</ele>
        <time>2021-08-27T08:04:20.000Z</time>
      </trkpt>
      <trkpt lat="49.86994" lon="4.84613">
        <ele>186</ele>
        <time>2021-08-27T08:04:21.000Z</time>
      </trkpt>
      <trkpt lat="49.86991" lon="4.84615">
        <ele>186</ele>
        <time>2021-08-27T08:04:22.000Z</time>
      </trkpt>
      <trkpt lat="49.86988" lon="4.84617">
        <ele>187</ele>
        <time>2021-08-27T08:04:23.000Z</time>
      </trkpt>
      <trkpt lat="49.86985" lon="4.84619">
        <ele>187</ele>
        <time>2021-08-27T08:04:24.000Z</time>
      </trkpt>
      <trkpt lat="49.86982" lon="4.84621">
        <ele>187</ele>
        <time>2021-08-27T08:04:25.000Z</time>
      </trkpt>
      <trkpt lat="49.86978" lon="4.84623">
        <ele>187</ele>
        <time>2021-08-27T08:04:26.000Z</time>
      </trkpt>
      <trkpt lat="49.86975" lon="4.84626">
        <ele>187</ele>
        <time>2021-08-27T08:04:27.000Z</time>
      </trkpt>
      <trkpt lat="49.86971" lon="4.84628">
        <ele>187</ele>
        <time>2021-08-27T08:04:28.000Z</time>
      </trkpt>
      <trkpt lat="49.86967" lon="4.84631">
        <ele>187</ele>
        <time>2021-08-27T08:04:29.000Z</time>
      </trkpt>
      <trkpt lat="49.86964" lon="4.84634">
        <ele>187</ele>
        <time>2021-08-27T08:04:30.000Z</time>
      </trkpt>
      <trkpt lat="49.86961" lon="4.84637">
        <ele>188</ele>
        <time>2021-08-27T08:04:31.000Z</time>
      </trkpt>
      <trkpt lat="49.86957" lon="4.8464">
        <ele>188</ele>
        <time>2021-08-27T08:04:32.000Z</time>
      </trkpt>
      <trkpt lat="49.86954" lon="4.84643">
        <ele>188</ele>
        <time>2021-08-27T08:04:33.000Z</time>
      </trkpt>
      <trkpt lat="49.8695" lon="4.84647">
        <ele>188</ele>
        <time>2021-08-27T08:04:34.000Z</time>
      </trkpt>
      <trkpt lat="49.86946" lon="4.84651">
        <ele>188</ele>
        <time>2021-08-27T08:04:35.000Z</time>
      </trkpt>
      <trkpt lat="49.86941" lon="4.84655">
        <ele>188</ele>
        <time>2021-08-27T08:04:36.000Z</time>
      </trkpt>
      <trkpt lat="49.86936" lon="4.84658">
        <ele>188</ele>
        <time>2021-08-27T08:04:37.000Z</time>
      </trkpt>
      <trkpt lat="49.86932" lon="4.84663">
        <ele>188</ele>
        <time>2021-08-27T08:04:38.000Z</time>
      </trkpt>
      <trkpt lat="49.86928" lon="4.84668">
        <ele>188</ele>
        <time>2021-08-27T08:04:39.000Z</time>
      </trkpt>
      <trkpt lat="49.86923" lon="4.84673">
        <ele>188</ele>
        <time>2021-08-27T08:04:40.000Z</time>
      </trkpt>
      <trkpt lat="49.86918" lon="4.84679">
        <ele>188</ele>
        <time>2021-08-27T08:04:41.000Z</time>
      </trkpt>
      <trkpt lat="49.86913" lon="4.84684">
        <ele>188</ele>
        <time>2021-08-27T08:04:42.000Z</time>
      </trkpt>
      <trkpt lat="49.86909" lon="4.84691">
        <ele>188</ele>
        <time>2021-08-27T08:04:43.000Z</time>
      </trkpt>
      <trkpt lat="49.86904" lon="4.84696">
        <ele>188</ele>
        <time>2021-08-27T08:04:44.000Z</time>
      </trkpt>
      <trkpt lat="49.86899" lon="4.84702">
        <ele>188</ele>
        <time>2021-08-27T08:04:45.000Z</time>
      </trkpt>
      <trkpt lat="49.86894" lon="4.84708">
        <ele>188</ele>
        <time>2021-08-27T08:04:46.000Z</time>
      </trkpt>
      <trkpt lat="49.86889" lon="4.84715">
        <ele>188</ele>
        <time>2021-08-27T08:04:47.000Z</time>
      </trkpt>
      <trkpt lat="49.86884" lon="4.84721">
        <ele>188</ele>
        <time>2021-08-27T08:04:48.000Z</time>
      </trkpt>
      <trkpt lat="49.86879" lon="4.84727">
        <ele>188</ele>
        <time>2021-08-27T08:04:49.000Z</time>
      </trkpt>
      <trkpt lat="49.86874" lon="4.84733">
        <ele>188</ele>
        <time>2021-08-27T08:04:50.000Z</time>
      </trkpt>
      <trkpt lat="49.86869" lon="4.84739">
        <ele>188</ele>
        <time>2021-08-27T08:04:51.000Z</time>
      </trkpt>
      <trkpt lat="49.86864" lon="4.84745">
        <ele>188</ele>
        <time>2021-08-27T08:04:52.000Z</time>
      </trkpt>
      <trkpt lat="49.86859" lon="4.84749">
        <ele>187</ele>
        <time>2021-08-27T08:04:53.000Z</time>
      </trkpt>
      <trkpt lat="49.86853" lon="4.84752">
        <ele>187</ele>
        <time>2021-08-27T08:04:54.000Z</time>
      </trkpt>
      <trkpt lat="49.86847" lon="4.84756">
        <ele>187</ele>
        <time>2021-08-27T08:04:55.000Z</time>
      </trkpt>
      <trkpt lat="49.8684" lon="4.84758">
        <ele>186</ele>
        <time>2021-08-27T08:04:56.000Z</time>
      </trkpt>
      <trkpt lat="49.86834" lon="4.84759">
        <ele>186</ele>
        <time>2021-08-27T08:04:57.000Z</time>
      </trkpt>
      <trkpt lat="49.86828" lon="4.84758">
        <ele>186</ele>
        <time>2021-08-27T08:04:58.000Z</time>
      </trkpt>
      <trkpt lat="49.86824" lon="4.84757">
        <ele>185</ele>
        <time>2021-08-27T08:04:59.000Z</time>
      </trkpt>
      <trkpt lat="49.8682" lon="4.84755">
        <ele>185</ele>
        <time>2021-08-27T08:05:00.000Z</time>
      </trkpt>
      <trkpt lat="49.86816" lon="4.84753">
        <ele>185</ele>
        <time>2021-08-27T08:05:01.000Z</time>
      </trkpt>
      <trkpt lat="49.86812" lon="4.84752">
        <ele>185</ele>
        <time>2021-08-27T08:05:02.000Z</time>
      </trkpt>
      <trkpt lat="49.86808" lon="4.84753">
        <ele>184</ele>
        <time>2021-08-27T08:05:03.000Z</time>
      </trkpt>
      <trkpt lat="49.86803" lon="4.84755">
        <ele>184</ele>
        <time>2021-08-27T08:05:04.000Z</time>
      </trkpt>
      <trkpt lat="49.86798" lon="4.84757">
        <ele>184</ele>
        <time>2021-08-27T08:05:05.000Z</time>
      </trkpt>
      <trkpt lat="49.86793" lon="4.84759">
        <ele>184</ele>
        <time>2021-08-27T08:05:06.000Z</time>
      </trkpt>
      <trkpt lat="49.86787" lon="4.8476">
        <ele>184</ele>
        <time>2021-08-27T08:05:07.000Z</time>
      </trkpt>
      <trkpt lat="49.86783" lon="4.84763">
        <ele>183</ele>
        <time>2021-08-27T08:05:08.000Z</time>
      </trkpt>
      <trkpt lat="49.86779" lon="4.84765">
        <ele>183</ele>
        <time>2021-08-27T08:05:09.000Z</time>
      </trkpt>
      <trkpt lat="49.86774" lon="4.84768">
        <ele>183</ele>
        <time>2021-08-27T08:05:10.000Z</time>
      </trkpt>
      <trkpt lat="49.8677" lon="4.84771">
        <ele>183</ele>
        <time>2021-08-27T08:05:11.000Z</time>
      </trkpt>
      <trkpt lat="49.86766" lon="4.84774">
        <ele>183</ele>
        <time>2021-08-27T08:05:12.000Z</time>
      </trkpt>
      <trkpt lat="49.86762" lon="4.84778">
        <ele>183</ele>
        <time>2021-08-27T08:05:13.000Z</time>
      </trkpt>
      <trkpt lat="49.86758" lon="4.84782">
        <ele>183</ele>
        <time>2021-08-27T08:05:14.000Z</time>
      </trkpt>
      <trkpt lat="49.86754" lon="4.84786">
        <ele>183</ele>
        <time>2021-08-27T08:05:15.000Z</time>
      </trkpt>
      <trkpt lat="49.8675" lon="4.8479">
        <ele>183</ele>
        <time>2021-08-27T08:05:16.000Z</time>
      </trkpt>
      <trkpt lat="49.86746" lon="4.84794">
        <ele>183</ele>
        <time>2021-08-27T08:05:17.000Z</time>
      </trkpt>
      <trkpt lat="49.86742" lon="4.84798">
        <ele>183</ele>
        <time>2021-08-27T08:05:18.000Z</time>
      </trkpt>
      <trkpt lat="49.86739" lon="4.84802">
        <ele>183</ele>
        <time>2021-08-27T08:05:19.000Z</time>
      </trkpt>
      <trkpt lat="49.86735" lon="4.84805">
        <ele>182</ele>
        <time>2021-08-27T08:05:20.000Z</time>
      </trkpt>
      <trkpt lat="49.86731" lon="4.84807">
        <ele>182</ele>
        <time>2021-08-27T08:05:21.000Z</time>
      </trkpt>
      <trkpt lat="49.86727" lon="4.8481">
        <ele>182</ele>
        <time>2021-08-27T08:05:22.000Z</time>
      </trkpt>
      <trkpt lat="49.86723" lon="4.84813">
        <ele>182</ele>
        <time>2021-08-27T08:05:23.000Z</time>
      </trkpt>
      <trkpt lat="49.86719" lon="4.84815">
        <ele>182</ele>
        <time>2021-08-27T08:05:24.000Z</time>
      </trkpt>
      <trkpt lat="49.86715" lon="4.84818">
        <ele>182</ele>
        <time>2021-08-27T08:05:25.000Z</time>
      </trkpt>
      <trkpt lat="49.86712" lon="4.84819">
        <ele>182</ele>
        <time>2021-08-27T08:05:26.000Z</time>
      </trkpt>
      <trkpt lat="49.86709" lon="4.8482">
        <ele>182</ele>
        <time>2021-08-27T08:05:27.000Z</time>
      </trkpt>
      <trkpt lat="49.86706" lon="4.8482">
        <ele>182</ele>
        <time>2021-08-27T08:05:28.000Z</time>
      </trkpt>
      <trkpt lat="49.86704" lon="4.8482">
        <ele>182</ele>
        <time>2021-08-27T08:05:29.000Z</time>
      </trkpt>
      <trkpt lat="49.86703" lon="4.84819">
        <ele>182</ele>
        <time>2021-08-27T08:05:30.000Z</time>
      </trkpt>
      <trkpt lat="49.86702" lon="4.84819">
        <ele>182</ele>
        <time>2021-08-27T08:05:31.000Z</time>
      </trkpt>
      <trkpt lat="49.867" lon="4.84819">
        <ele>182</ele>
        <time>2021-08-27T08:05:32.000Z</time>
      </trkpt>
      <trkpt lat="49.86698" lon="4.84819">
        <ele>182</ele>
        <time>2021-08-27T08:05:33.000Z</time>
      </trkpt>
      <trkpt lat="49.86696" lon="4.84818">
        <ele>182</ele>
        <time>2021-08-27T08:05:34.000Z</time>
      </trkpt>
      <trkpt lat="49.86693" lon="4.84818">
        <ele>182</ele>
        <time>2021-08-27T08:05:35.000Z</time>
      </trkpt>
      <trkpt lat="49.86691" lon="4.84819">
        <ele>182</ele>
        <time>2021-08-27T08:05:36.000Z</time>
      </trkpt>
      <trkpt lat="49.8669" lon="4.84819">
        <ele>182</ele>
        <time>2021-08-27T08:05:37.000Z</time>
      </trkpt>
      <trkpt lat="49.86689" lon="4.84821">
        <ele>182</ele>
        <time>2021-08-27T08:05:38.000Z</time>
      </trkpt>
      <trkpt lat="49.86689" lon="4.84825">
        <ele>182</ele>
        <time>2021-08-27T08:05:39.000Z</time>
      </trkpt>
      <trkpt lat="49.86689" lon="4.8483">
        <ele>182</ele>
        <time>2021-08-27T08:05:40.000Z</time>
      </trkpt>
      <trkpt lat="49.86688" lon="4.84835">
        <ele>182</ele>
        <time>2021-08-27T08:05:41.000Z</time>
      </trkpt>
      <trkpt lat="49.86687" lon="4.8484">
        <ele>182</ele>
        <time>2021-08-27T08:05:42.000Z</time>
      </trkpt>
      <trkpt lat="49.86686" lon="4.84844">
        <ele>182</ele>
        <time>2021-08-27T08:05:43.000Z</time>
      </trkpt>
      <trkpt lat="49.86686" lon="4.84847">
        <ele>182</ele>
        <time>2021-08-27T08:05:44.000Z</time>
      </trkpt>
      <trkpt lat="49.86685" lon="4.84851">
        <ele>182</ele>
        <time>2021-08-27T08:05:45.000Z</time>
      </trkpt>
      <trkpt lat="49.86684" lon="4.84855">
        <ele>182</ele>
        <time>2021-08-27T08:05:46.000Z</time>
      </trkpt>
      <trkpt lat="49.86683" lon="4.84858">
        <ele>182</ele>
        <time>2021-08-27T08:05:47.000Z</time>
      </trkpt>
      <trkpt lat="49.86683" lon="4.84861">
        <ele>183</ele>
        <time>2021-08-27T08:05:48.000Z</time>
      </trkpt>
      <trkpt lat="49.86682" lon="4.84864">
        <ele>183</ele>
        <time>2021-08-27T08:05:49.000Z</time>
      </trkpt>
      <trkpt lat="49.86682" lon="4.84866">
        <ele>183</ele>
        <time>2021-08-27T08:05:50.000Z</time>
      </trkpt>
      <trkpt lat="49.86682" lon="4.84868">
        <ele>183</ele>
        <time>2021-08-27T08:05:51.000Z</time>
      </trkpt>
      <trkpt lat="49.86681" lon="4.8487">
        <ele>183</ele>
        <time>2021-08-27T08:05:52.000Z</time>
      </trkpt>
      <trkpt lat="49.8668" lon="4.84873">
        <ele>183</ele>
        <time>2021-08-27T08:05:53.000Z</time>
      </trkpt>
      <trkpt lat="49.86678" lon="4.84876">
        <ele>183</ele>
        <time>2021-08-27T08:05:54.000Z</time>
      </trkpt>
      <trkpt lat="49.86677" lon="4.8488">
        <ele>183</ele>
        <time>2021-08-27T08:05:55.000Z</time>
      </trkpt>
      <trkpt lat="49.86675" lon="4.84883">
        <ele>183</ele>
        <time>2021-08-27T08:05:56.000Z</time>
      </trkpt>
      <trkpt lat="49.86673" lon="4.84888">
        <ele>184</ele>
        <time>2021-08-27T08:05:57.000Z</time>
      </trkpt>
      <trkpt lat="49.86672" lon="4.84891">
        <ele>184</ele>
        <time>2021-08-27T08:05:58.000Z</time>
      </trkpt>
      <trkpt lat="49.8667" lon="4.84895">
        <ele>184</ele>
        <time>2021-08-27T08:05:59.000Z</time>
      </trkpt>
      <trkpt lat="49.86668" lon="4.84899">
        <ele>184</ele>
        <time>2021-08-27T08:06:00.000Z</time>
      </trkpt>
      <trkpt lat="49.86667" lon="4.84902">
        <ele>184</ele>
        <time>2021-08-27T08:06:01.000Z</time>
      </trkpt>
      <trkpt lat="49.86665" lon="4.84906">
        <ele>184</ele>
        <time>2021-08-27T08:06:02.000Z</time>
      </trkpt>
      <trkpt lat="49.86663" lon="4.8491">
        <ele>184</ele>
        <time>2021-08-27T08:06:03.000Z</time>
      </trkpt>
      <trkpt lat="49.86661" lon="4.84914">
        <ele>184</ele>
        <time>2021-08-27T08:06:04.000Z</time>
      </trkpt>
      <trkpt lat="49.86659" lon="4.84918">
        <ele>184</ele>
        <time>2021-08-27T08:06:05.000Z</time>
      </trkpt>
      <trkpt lat="49.86658" lon="4.84923">
        <ele>184</ele>
        <time>2021-08-27T08:06:06.000Z</time>
      </trkpt>
      <trkpt lat="49.86655" lon="4.84928">
        <ele>184</ele>
        <time>2021-08-27T08:06:07.000Z</time>
      </trkpt>
      <trkpt lat="49.86652" lon="4.84933">
        <ele>184</ele>
        <time>2021-08-27T08:06:08.000Z</time>
      </trkpt>
      <trkpt lat="49.8665" lon="4.84938">
        <ele>184</ele>
        <time>2021-08-27T08:06:09.000Z</time>
      </trkpt>
      <trkpt lat="49.86646" lon="4.84944">
        <ele>184</ele>
        <time>2021-08-27T08:06:10.000Z</time>
      </trkpt>
      <trkpt lat="49.86642" lon="4.8495">
        <ele>184</ele>
        <time>2021-08-27T08:06:11.000Z</time>
      </trkpt>
      <trkpt lat="49.86638" lon="4.84955">
        <ele>184</ele>
        <time>2021-08-27T08:06:12.000Z</time>
      </trkpt>
      <trkpt lat="49.86634" lon="4.84961">
        <ele>184</ele>
        <time>2021-08-27T08:06:13.000Z</time>
      </trkpt>
      <trkpt lat="49.8663" lon="4.84966">
        <ele>184</ele>
        <time>2021-08-27T08:06:14.000Z</time>
      </trkpt>
      <trkpt lat="49.86626" lon="4.84971">
        <ele>183</ele>
        <time>2021-08-27T08:06:15.000Z</time>
      </trkpt>
      <trkpt lat="49.86621" lon="4.84976">
        <ele>183</ele>
        <time>2021-08-27T08:06:16.000Z</time>
      </trkpt>
      <trkpt lat="49.86616" lon="4.84979">
        <ele>183</ele>
        <time>2021-08-27T08:06:17.000Z</time>
      </trkpt>
      <trkpt lat="49.86611" lon="4.84983">
        <ele>183</ele>
        <time>2021-08-27T08:06:18.000Z</time>
      </trkpt>
      <trkpt lat="49.86606" lon="4.84985">
        <ele>183</ele>
        <time>2021-08-27T08:06:19.000Z</time>
      </trkpt>
      <trkpt lat="49.86603" lon="4.84987">
        <ele>183</ele>
        <time>2021-08-27T08:06:20.000Z</time>
      </trkpt>
      <trkpt lat="49.866" lon="4.84989">
        <ele>183</ele>
        <time>2021-08-27T08:06:21.000Z</time>
      </trkpt>
      <trkpt lat="49.86596" lon="4.8499">
        <ele>182</ele>
        <time>2021-08-27T08:06:22.000Z</time>
      </trkpt>
      <trkpt lat="49.86593" lon="4.84992">
        <ele>182</ele>
        <time>2021-08-27T08:06:23.000Z</time>
      </trkpt>
      <trkpt lat="49.8659" lon="4.84994">
        <ele>182</ele>
        <time>2021-08-27T08:06:24.000Z</time>
      </trkpt>
      <trkpt lat="49.86587" lon="4.84995">
        <ele>182</ele>
        <time>2021-08-27T08:06:25.000Z</time>
      </trkpt>
      <trkpt lat="49.86585" lon="4.84997">
        <ele>182</ele>
        <time>2021-08-27T08:06:26.000Z</time>
      </trkpt>
      <trkpt lat="49.86582" lon="4.84999">
        <ele>182</ele>
        <time>2021-08-27T08:06:27.000Z</time>
      </trkpt>
      <trkpt lat="49.8658" lon="4.85">
        <ele>182</ele>
        <time>2021-08-27T08:06:28.000Z</time>
      </trkpt>
      <trkpt lat="49.86578" lon="4.85002">
        <ele>182</ele>
        <time>2021-08-27T08:06:29.000Z</time>
      </trkpt>
      <trkpt lat="49.86576" lon="4.85003">
        <ele>182</ele>
        <time>2021-08-27T08:06:30.000Z</time>
      </trkpt>
      <trkpt lat="49.86574" lon="4.85005">
        <ele>182</ele>
        <time>2021-08-27T08:06:31.000Z</time>
      </trkpt>
      <trkpt lat="49.86572" lon="4.85007">
        <ele>182</ele>
        <time>2021-08-27T08:06:32.000Z</time>
      </trkpt>
      <trkpt lat="49.8657" lon="4.85008">
        <ele>182</ele>
        <time>2021-08-27T08:06:33.000Z</time>
      </trkpt>
      <trkpt lat="49.86567" lon="4.85011">
        <ele>182</ele>
        <time>2021-08-27T08:06:34.000Z</time>
      </trkpt>
      <trkpt lat="49.86565" lon="4.85013">
        <ele>182</ele>
        <time>2021-08-27T08:06:35.000Z</time>
      </trkpt>
      <trkpt lat="49.86562" lon="4.85016">
        <ele>182</ele>
        <time>2021-08-27T08:06:36.000Z</time>
      </trkpt>
      <trkpt lat="49.8656" lon="4.85017">
        <ele>182</ele>
        <time>2021-08-27T08:06:37.000Z</time>
      </trkpt>
      <trkpt lat="49.86557" lon="4.85019">
        <ele>182</ele>
        <time>2021-08-27T08:06:38.000Z</time>
      </trkpt>
      <trkpt lat="49.86554" lon="4.85021">
        <ele>182</ele>
        <time>2021-08-27T08:06:39.000Z</time>
      </trkpt>
      <trkpt lat="49.86551" lon="4.85023">
        <ele>182</ele>
        <time>2021-08-27T08:06:40.000Z</time>
      </trkpt>
      <trkpt lat="49.86548" lon="4.85026">
        <ele>183</ele>
        <time>2021-08-27T08:06:41.000Z</time>
      </trkpt>
      <trkpt lat="49.86545" lon="4.85029">
        <ele>183</ele>
        <time>2021-08-27T08:06:42.000Z</time>
      </trkpt>
      <trkpt lat="49.86541" lon="4.8503">
        <ele>183</ele>
        <time>2021-08-27T08:06:43.000Z</time>
      </trkpt>
      <trkpt lat="49.86537" lon="4.85032">
        <ele>183</ele>
        <time>2021-08-27T08:06:44.000Z</time>
      </trkpt>
      <trkpt lat="49.86533" lon="4.85032">
        <ele>183</ele>
        <time>2021-08-27T08:06:45.000Z</time>
      </trkpt>
      <trkpt lat="49.86529" lon="4.85032">
        <ele>183</ele>
        <time>2021-08-27T08:06:46.000Z</time>
      </trkpt>
      <trkpt lat="49.86525" lon="4.85032">
        <ele>183</ele>
        <time>2021-08-27T08:06:47.000Z</time>
      </trkpt>
      <trkpt lat="49.8652" lon="4.85033">
        <ele>183</ele>
        <time>2021-08-27T08:06:48.000Z</time>
      </trkpt>
      <trkpt lat="49.86516" lon="4.85034">
        <ele>183</ele>
        <time>2021-08-27T08:06:49.000Z</time>
      </trkpt>
      <trkpt lat="49.86513" lon="4.85035">
        <ele>183</ele>
        <time>2021-08-27T08:06:50.000Z</time>
      </trkpt>
      <trkpt lat="49.8651" lon="4.85035">
        <ele>183</ele>
        <time>2021-08-27T08:06:51.000Z</time>
      </trkpt>
      <trkpt lat="49.86506" lon="4.85036">
        <ele>183</ele>
        <time>2021-08-27T08:06:52.000Z</time>
      </trkpt>
      <trkpt lat="49.86503" lon="4.85037">
        <ele>183</ele>
        <time>2021-08-27T08:06:53.000Z</time>
      </trkpt>
      <trkpt lat="49.86499" lon="4.85038">
        <ele>183</ele>
        <time>2021-08-27T08:06:54.000Z</time>
      </trkpt>
      <trkpt lat="49.86495" lon="4.8504">
        <ele>184</ele>
        <time>2021-08-27T08:06:55.000Z</time>
      </trkpt>
      <trkpt lat="49.86492" lon="4.85042">
        <ele>184</ele>
        <time>2021-08-27T08:06:56.000Z</time>
      </trkpt>
      <trkpt lat="49.86488" lon="4.85043">
        <ele>184</ele>
        <time>2021-08-27T08:06:57.000Z</time>
      </trkpt>
      <trkpt lat="49.86484" lon="4.85044">
        <ele>184</ele>
        <time>2021-08-27T08:06:58.000Z</time>
      </trkpt>
      <trkpt lat="49.86481" lon="4.85045">
        <ele>184</ele>
        <time>2021-08-27T08:06:59.000Z</time>
      </trkpt>
      <trkpt lat="49.86478" lon="4.85046">
        <ele>184</ele>
        <time>2021-08-27T08:07:00.000Z</time>
      </trkpt>
      <trkpt lat="49.86474" lon="4.85048">
        <ele>184</ele>
        <time>2021-08-27T08:07:01.000Z</time>
      </trkpt>
      <trkpt lat="49.86471" lon="4.85049">
        <ele>184</ele>
        <time>2021-08-27T08:07:02.000Z</time>
      </trkpt>
      <trkpt lat="49.86468" lon="4.85051">
        <ele>184</ele>
        <time>2021-08-27T08:07:03.000Z</time>
      </trkpt>
      <trkpt lat="49.86465" lon="4.85053">
        <ele>184</ele>
        <time>2021-08-27T08:07:04.000Z</time>
      </trkpt>
      <trkpt lat="49.86462" lon="4.85054">
        <ele>185</ele>
        <time>2021-08-27T08:07:05.000Z</time>
      </trkpt>
      <trkpt lat="49.86459" lon="4.85055">
        <ele>185</ele>
        <time>2021-08-27T08:07:06.000Z</time>
      </trkpt>
      <trkpt lat="49.86456" lon="4.85057">
        <ele>185</ele>
        <time>2021-08-27T08:07:07.000Z</time>
      </trkpt>
      <trkpt lat="49.86452" lon="4.85058">
        <ele>185</ele>
        <time>2021-08-27T08:07:08.000Z</time>
      </trkpt>
      <trkpt lat="49.86448" lon="4.85059">
        <ele>185</ele>
        <time>2021-08-27T08:07:09.000Z</time>
      </trkpt>
      <trkpt lat="49.86444" lon="4.8506">
        <ele>185</ele>
        <time>2021-08-27T08:07:10.000Z</time>
      </trkpt>
      <trkpt lat="49.8644" lon="4.85062">
        <ele>185</ele>
        <time>2021-08-27T08:07:11.000Z</time>
      </trkpt>
      <trkpt lat="49.86435" lon="4.85063">
        <ele>185</ele>
        <time>2021-08-27T08:07:12.000Z</time>
      </trkpt>
      <trkpt lat="49.86431" lon="4.85064">
        <ele>185</ele>
        <time>2021-08-27T08:07:13.000Z</time>
      </trkpt>
      <trkpt lat="49.86427" lon="4.85064">
        <ele>185</ele>
        <time>2021-08-27T08:07:14.000Z</time>
      </trkpt>
      <trkpt lat="49.86422" lon="4.85063">
        <ele>185</ele>
        <time>2021-08-27T08:07:15.000Z</time>
      </trkpt>
      <trkpt lat="49.86418" lon="4.85063">
        <ele>184</ele>
        <time>2021-08-27T08:07:16.000Z</time>
      </trkpt>
      <trkpt lat="49.86413" lon="4.85063">
        <ele>184</ele>
        <time>2021-08-27T08:07:17.000Z</time>
      </trkpt>
      <trkpt lat="49.86408" lon="4.85065">
        <ele>184</ele>
        <time>2021-08-27T08:07:18.000Z</time>
      </trkpt>
      <trkpt lat="49.86402" lon="4.85067">
        <ele>184</ele>
        <time>2021-08-27T08:07:19.000Z</time>
      </trkpt>
      <trkpt lat="49.86396" lon="4.85068">
        <ele>184</ele>
        <time>2021-08-27T08:07:20.000Z</time>
      </trkpt>
      <trkpt lat="49.86391" lon="4.8507">
        <ele>184</ele>
        <time>2021-08-27T08:07:21.000Z</time>
      </trkpt>
      <trkpt lat="49.86385" lon="4.85072">
        <ele>184</ele>
        <time>2021-08-27T08:07:22.000Z</time>
      </trkpt>
      <trkpt lat="49.86379" lon="4.85075">
        <ele>184</ele>
        <time>2021-08-27T08:07:23.000Z</time>
      </trkpt>
      <trkpt lat="49.86374" lon="4.85077">
        <ele>184</ele>
        <time>2021-08-27T08:07:24.000Z</time>
      </trkpt>
      <trkpt lat="49.86368" lon="4.85079">
        <ele>184</ele>
        <time>2021-08-27T08:07:25.000Z</time>
      </trkpt>
      <trkpt lat="49.86361" lon="4.85081">
        <ele>184</ele>
        <time>2021-08-27T08:07:26.000Z</time>
      </trkpt>
      <trkpt lat="49.86356" lon="4.85083">
        <ele>184</ele>
        <time>2021-08-27T08:07:27.000Z</time>
      </trkpt>
      <trkpt lat="49.86351" lon="4.85085">
        <ele>184</ele>
        <time>2021-08-27T08:07:28.000Z</time>
      </trkpt>
      <trkpt lat="49.86346" lon="4.85087">
        <ele>184</ele>
        <time>2021-08-27T08:07:29.000Z</time>
      </trkpt>
      <trkpt lat="49.86342" lon="4.85089">
        <ele>184</ele>
        <time>2021-08-27T08:07:30.000Z</time>
      </trkpt>
      <trkpt lat="49.86339" lon="4.85089">
        <ele>184</ele>
        <time>2021-08-27T08:07:31.000Z</time>
      </trkpt>
      <trkpt lat="49.86335" lon="4.8509">
        <ele>184</ele>
        <time>2021-08-27T08:07:32.000Z</time>
      </trkpt>
      <trkpt lat="49.86331" lon="4.85091">
        <ele>184</ele>
        <time>2021-08-27T08:07:33.000Z</time>
      </trkpt>
      <trkpt lat="49.86328" lon="4.85093">
        <ele>184</ele>
        <time>2021-08-27T08:07:34.000Z</time>
      </trkpt>
      <trkpt lat="49.86325" lon="4.85094">
        <ele>184</ele>
        <time>2021-08-27T08:07:35.000Z</time>
      </trkpt>
      <trkpt lat="49.86322" lon="4.85095">
        <ele>184</ele>
        <time>2021-08-27T08:07:36.000Z</time>
      </trkpt>
      <trkpt lat="49.86319" lon="4.85096">
        <ele>185</ele>
        <time>2021-08-27T08:07:37.000Z</time>
      </trkpt>
      <trkpt lat="49.86317" lon="4.85097">
        <ele>185</ele>
        <time>2021-08-27T08:07:38.000Z</time>
      </trkpt>
      <trkpt lat="49.86314" lon="4.85099">
        <ele>185</ele>
        <time>2021-08-27T08:07:39.000Z</time>
      </trkpt>
      <trkpt lat="49.86311" lon="4.851">
        <ele>185</ele>
        <time>2021-08-27T08:07:40.000Z</time>
      </trkpt>
      <trkpt lat="49.86308" lon="4.85101">
        <ele>185</ele>
        <time>2021-08-27T08:07:41.000Z</time>
      </trkpt>
      <trkpt lat="49.86304" lon="4.851">
        <ele>185</ele>
        <time>2021-08-27T08:07:42.000Z</time>
      </trkpt>
      <trkpt lat="49.86301" lon="4.85101">
        <ele>185</ele>
        <time>2021-08-27T08:07:43.000Z</time>
      </trkpt>
      <trkpt lat="49.86297" lon="4.85102">
        <ele>184</ele>
        <time>2021-08-27T08:07:44.000Z</time>
      </trkpt>
      <trkpt lat="49.86293" lon="4.85102">
        <ele>184</ele>
        <time>2021-08-27T08:07:45.000Z</time>
      </trkpt>
      <trkpt lat="49.86289" lon="4.85102">
        <ele>184</ele>
        <time>2021-08-27T08:07:46.000Z</time>
      </trkpt>
      <trkpt lat="49.86285" lon="4.85102">
        <ele>184</ele>
        <time>2021-08-27T08:07:47.000Z</time>
      </trkpt>
      <trkpt lat="49.86282" lon="4.85102">
        <ele>184</ele>
        <time>2021-08-27T08:07:48.000Z</time>
      </trkpt>
      <trkpt lat="49.86278" lon="4.85103">
        <ele>184</ele>
        <time>2021-08-27T08:07:49.000Z</time>
      </trkpt>
      <trkpt lat="49.86274" lon="4.85104">
        <ele>184</ele>
        <time>2021-08-27T08:07:50.000Z</time>
      </trkpt>
      <trkpt lat="49.86271" lon="4.85104">
        <ele>184</ele>
        <time>2021-08-27T08:07:51.000Z</time>
      </trkpt>
      <trkpt lat="49.86267" lon="4.85104">
        <ele>184</ele>
        <time>2021-08-27T08:07:52.000Z</time>
      </trkpt>
      <trkpt lat="49.86264" lon="4.85104">
        <ele>184</ele>
        <time>2021-08-27T08:07:53.000Z</time>
      </trkpt>
      <trkpt lat="49.8626" lon="4.85104">
        <ele>184</ele>
        <time>2021-08-27T08:07:54.000Z</time>
      </trkpt>
      <trkpt lat="49.86257" lon="4.85104">
        <ele>184</ele>
        <time>2021-08-27T08:07:55.000Z</time>
      </trkpt>
      <trkpt lat="49.86254" lon="4.85105">
        <ele>184</ele>
        <time>2021-08-27T08:07:56.000Z</time>
      </trkpt>
      <trkpt lat="49.86251" lon="4.85105">
        <ele>184</ele>
        <time>2021-08-27T08:07:57.000Z</time>
      </trkpt>
      <trkpt lat="49.86248" lon="4.85105">
        <ele>184</ele>
        <time>2021-08-27T08:07:58.000Z</time>
      </trkpt>
      <trkpt lat="49.86245" lon="4.85105">
        <ele>184</ele>
        <time>2021-08-27T08:07:59.000Z</time>
      </trkpt>
      <trkpt lat="49.86243" lon="4.85105">
        <ele>184</ele>
        <time>2021-08-27T08:08:00.000Z</time>
      </trkpt>
      <trkpt lat="49.86241" lon="4.85106">
        <ele>184</ele>
        <time>2021-08-27T08:08:01.000Z</time>
      </trkpt>
      <trkpt lat="49.86239" lon="4.85106">
        <ele>184</ele>
        <time>2021-08-27T08:08:02.000Z</time>
      </trkpt>
      <trkpt lat="49.86237" lon="4.85106">
        <ele>184</ele>
        <time>2021-08-27T08:08:03.000Z</time>
      </trkpt>
      <trkpt lat="49.86235" lon="4.85106">
        <ele>184</ele>
        <time>2021-08-27T08:08:04.000Z</time>
      </trkpt>
      <trkpt lat="49.86232" lon="4.85106">
        <ele>184</ele>
        <time>2021-08-27T08:08:05.000Z</time>
      </trkpt>
      <trkpt lat="49.86229" lon="4.85107">
        <ele>184</ele>
        <time>2021-08-27T08:08:06.000Z</time>
      </trkpt>
      <trkpt lat="49.86227" lon="4.85107">
        <ele>184</ele>
        <time>2021-08-27T08:08:07.000Z</time>
      </trkpt>
      <trkpt lat="49.86225" lon="4.85107">
        <ele>184</ele>
        <time>2021-08-27T08:08:08.000Z</time>
      </trkpt>
      <trkpt lat="49.86223" lon="4.85107">
        <ele>184</ele>
        <time>2021-08-27T08:08:09.000Z</time>
      </trkpt>
      <trkpt lat="49.8622" lon="4.85107">
        <ele>184</ele>
        <time>2021-08-27T08:08:10.000Z</time>
      </trkpt>
      <trkpt lat="49.86218" lon="4.85108">
        <ele>184</ele>
        <time>2021-08-27T08:08:11.000Z</time>
      </trkpt>
      <trkpt lat="49.86216" lon="4.85108">
        <ele>184</ele>
        <time>2021-08-27T08:08:12.000Z</time>
      </trkpt>
      <trkpt lat="49.86214" lon="4.85108">
        <ele>184</ele>
        <time>2021-08-27T08:08:13.000Z</time>
      </trkpt>
      <trkpt lat="49.86213" lon="4.85109">
        <ele>184</ele>
        <time>2021-08-27T08:08:14.000Z</time>
      </trkpt>
      <trkpt lat="49.86211" lon="4.85109">
        <ele>184</ele>
        <time>2021-08-27T08:08:15.000Z</time>
      </trkpt>
      <trkpt lat="49.8621" lon="4.85109">
        <ele>184</ele>
        <time>2021-08-27T08:08:16.000Z</time>
      </trkpt>
      <trkpt lat="49.86208" lon="4.85109">
        <ele>184</ele>
        <time>2021-08-27T08:08:17.000Z</time>
      </trkpt>
      <trkpt lat="49.86207" lon="4.85109">
        <ele>184</ele>
        <time>2021-08-27T08:08:18.000Z</time>
      </trkpt>
      <trkpt lat="49.86205" lon="4.85109">
        <ele>183</ele>
        <time>2021-08-27T08:08:19.000Z</time>
      </trkpt>
      <trkpt lat="49.86204" lon="4.85109">
        <ele>183</ele>
        <time>2021-08-27T08:08:20.000Z</time>
      </trkpt>
      <trkpt lat="49.86202" lon="4.8511">
        <ele>183</ele>
        <time>2021-08-27T08:08:21.000Z</time>
      </trkpt>
      <trkpt lat="49.862" lon="4.8511">
        <ele>183</ele>
        <time>2021-08-27T08:08:22.000Z</time>
      </trkpt>
      <trkpt lat="49.86198" lon="4.8511">
        <ele>184</ele>
        <time>2021-08-27T08:08:23.000Z</time>
      </trkpt>
      <trkpt lat="49.86196" lon="4.8511">
        <ele>184</ele>
        <time>2021-08-27T08:08:24.000Z</time>
      </trkpt>
      <trkpt lat="49.86193" lon="4.8511">
        <ele>184</ele>
        <time>2021-08-27T08:08:25.000Z</time>
      </trkpt>
      <trkpt lat="49.86191" lon="4.8511">
        <ele>184</ele>
        <time>2021-08-27T08:08:26.000Z</time>
      </trkpt>
      <trkpt lat="49.86189" lon="4.85109">
        <ele>184</ele>
        <time>2021-08-27T08:08:27.000Z</time>
      </trkpt>
      <trkpt lat="49.86186" lon="4.8511">
        <ele>184</ele>
        <time>2021-08-27T08:08:28.000Z</time>
      </trkpt>
      <trkpt lat="49.86184" lon="4.8511">
        <ele>184</ele>
        <time>2021-08-27T08:08:29.000Z</time>
      </trkpt>
      <trkpt lat="49.86181" lon="4.85111">
        <ele>184</ele>
        <time>2021-08-27T08:08:30.000Z</time>
      </trkpt>
      <trkpt lat="49.86179" lon="4.8511">
        <ele>184</ele>
        <time>2021-08-27T08:08:31.000Z</time>
      </trkpt>
      <trkpt lat="49.86177" lon="4.8511">
        <ele>185</ele>
        <time>2021-08-27T08:08:32.000Z</time>
      </trkpt>
      <trkpt lat="49.86175" lon="4.8511">
        <ele>185</ele>
        <time>2021-08-27T08:08:33.000Z</time>
      </trkpt>
      <trkpt lat="49.86172" lon="4.8511">
        <ele>185</ele>
        <time>2021-08-27T08:08:34.000Z</time>
      </trkpt>
      <trkpt lat="49.8617" lon="4.8511">
        <ele>185</ele>
        <time>2021-08-27T08:08:35.000Z</time>
      </trkpt>
      <trkpt lat="49.86168" lon="4.85109">
        <ele>185</ele>
        <time>2021-08-27T08:08:36.000Z</time>
      </trkpt>
      <trkpt lat="49.86166" lon="4.85109">
        <ele>186</ele>
        <time>2021-08-27T08:08:37.000Z</time>
      </trkpt>
      <trkpt lat="49.86163" lon="4.85109">
        <ele>186</ele>
        <time>2021-08-27T08:08:38.000Z</time>
      </trkpt>
      <trkpt lat="49.86161" lon="4.8511">
        <ele>186</ele>
        <time>2021-08-27T08:08:39.000Z</time>
      </trkpt>
      <trkpt lat="49.86158" lon="4.8511">
        <ele>186</ele>
        <time>2021-08-27T08:08:40.000Z</time>
      </trkpt>
      <trkpt lat="49.86156" lon="4.85109">
        <ele>186</ele>
        <time>2021-08-27T08:08:41.000Z</time>
      </trkpt>
      <trkpt lat="49.86154" lon="4.85109">
        <ele>186</ele>
        <time>2021-08-27T08:08:42.000Z</time>
      </trkpt>
      <trkpt lat="49.86151" lon="4.85109">
        <ele>186</ele>
        <time>2021-08-27T08:08:43.000Z</time>
      </trkpt>
      <trkpt lat="49.86149" lon="4.85109">
        <ele>187</ele>
        <time>2021-08-27T08:08:44.000Z</time>
      </trkpt>
      <trkpt lat="49.86147" lon="4.85109">
        <ele>187</ele>
        <time>2021-08-27T08:08:45.000Z</time>
      </trkpt>
      <trkpt lat="49.86145" lon="4.8511">
        <ele>187</ele>
        <time>2021-08-27T08:08:46.000Z</time>
      </trkpt>
      <trkpt lat="49.86142" lon="4.8511">
        <ele>187</ele>
        <time>2021-08-27T08:08:47.000Z</time>
      </trkpt>
      <trkpt lat="49.86139" lon="4.8511">
        <ele>187</ele>
        <time>2021-08-27T08:08:48.000Z</time>
      </trkpt>
      <trkpt lat="49.86137" lon="4.8511">
        <ele>188</ele>
        <time>2021-08-27T08:08:49.000Z</time>
      </trkpt>
      <trkpt lat="49.86135" lon="4.8511">
        <ele>188</ele>
        <time>2021-08-27T08:08:50.000Z</time>
      </trkpt>
      <trkpt lat="49.86132" lon="4.8511">
        <ele>188</ele>
        <time>2021-08-27T08:08:51.000Z</time>
      </trkpt>
      <trkpt lat="49.8613" lon="4.85111">
        <ele>188</ele>
        <time>2021-08-27T08:08:52.000Z</time>
      </trkpt>
      <trkpt lat="49.86127" lon="4.85112">
        <ele>188</ele>
        <time>2021-08-27T08:08:53.000Z</time>
      </trkpt>
      <trkpt lat="49.86125" lon="4.85112">
        <ele>188</ele>
        <time>2021-08-27T08:08:54.000Z</time>
      </trkpt>
      <trkpt lat="49.86123" lon="4.85113">
        <ele>188</ele>
        <time>2021-08-27T08:08:55.000Z</time>
      </trkpt>
      <trkpt lat="49.86121" lon="4.85113">
        <ele>189</ele>
        <time>2021-08-27T08:08:56.000Z</time>
      </trkpt>
      <trkpt lat="49.86119" lon="4.85113">
        <ele>189</ele>
        <time>2021-08-27T08:08:57.000Z</time>
      </trkpt>
      <trkpt lat="49.86116" lon="4.85113">
        <ele>189</ele>
        <time>2021-08-27T08:08:58.000Z</time>
      </trkpt>
      <trkpt lat="49.86114" lon="4.85112">
        <ele>189</ele>
        <time>2021-08-27T08:08:59.000Z</time>
      </trkpt>
      <trkpt lat="49.86113" lon="4.85112">
        <ele>189</ele>
        <time>2021-08-27T08:09:00.000Z</time>
      </trkpt>
      <trkpt lat="49.86111" lon="4.85111">
        <ele>190</ele>
        <time>2021-08-27T08:09:01.000Z</time>
      </trkpt>
      <trkpt lat="49.86109" lon="4.8511">
        <ele>190</ele>
        <time>2021-08-27T08:09:02.000Z</time>
      </trkpt>
      <trkpt lat="49.86107" lon="4.85109">
        <ele>190</ele>
        <time>2021-08-27T08:09:03.000Z</time>
      </trkpt>
      <trkpt lat="49.86105" lon="4.85109">
        <ele>190</ele>
        <time>2021-08-27T08:09:04.000Z</time>
      </trkpt>
      <trkpt lat="49.86103" lon="4.85108">
        <ele>190</ele>
        <time>2021-08-27T08:09:05.000Z</time>
      </trkpt>
      <trkpt lat="49.86102" lon="4.85106">
        <ele>190</ele>
        <time>2021-08-27T08:09:06.000Z</time>
      </trkpt>
      <trkpt lat="49.861" lon="4.85105">
        <ele>190</ele>
        <time>2021-08-27T08:09:07.000Z</time>
      </trkpt>
      <trkpt lat="49.86098" lon="4.85104">
        <ele>190</ele>
        <time>2021-08-27T08:09:08.000Z</time>
      </trkpt>
      <trkpt lat="49.86097" lon="4.85103">
        <ele>191</ele>
        <time>2021-08-27T08:09:09.000Z</time>
      </trkpt>
      <trkpt lat="49.86096" lon="4.85102">
        <ele>191</ele>
        <time>2021-08-27T08:09:10.000Z</time>
      </trkpt>
      <trkpt lat="49.86094" lon="4.85101">
        <ele>191</ele>
        <time>2021-08-27T08:09:11.000Z</time>
      </trkpt>
      <trkpt lat="49.86094" lon="4.85099">
        <ele>191</ele>
        <time>2021-08-27T08:09:12.000Z</time>
      </trkpt>
      <trkpt lat="49.86093" lon="4.85097">
        <ele>191</ele>
        <time>2021-08-27T08:09:13.000Z</time>
      </trkpt>
      <trkpt lat="49.86092" lon="4.85095">
        <ele>192</ele>
        <time>2021-08-27T08:09:14.000Z</time>
      </trkpt>
      <trkpt lat="49.8609" lon="4.85094">
        <ele>192</ele>
        <time>2021-08-27T08:09:15.000Z</time>
      </trkpt>
      <trkpt lat="49.86089" lon="4.85091">
        <ele>192</ele>
        <time>2021-08-27T08:09:16.000Z</time>
      </trkpt>
      <trkpt lat="49.86088" lon="4.85089">
        <ele>192</ele>
        <time>2021-08-27T08:09:17.000Z</time>
      </trkpt>
      <trkpt lat="49.86087" lon="4.85088">
        <ele>192</ele>
        <time>2021-08-27T08:09:18.000Z</time>
      </trkpt>
      <trkpt lat="49.86086" lon="4.85086">
        <ele>193</ele>
        <time>2021-08-27T08:09:19.000Z</time>
      </trkpt>
      <trkpt lat="49.86085" lon="4.85084">
        <ele>193</ele>
        <time>2021-08-27T08:09:20.000Z</time>
      </trkpt>
      <trkpt lat="49.86084" lon="4.85083">
        <ele>193</ele>
        <time>2021-08-27T08:09:21.000Z</time>
      </trkpt>
      <trkpt lat="49.86083" lon="4.85081">
        <ele>193</ele>
        <time>2021-08-27T08:09:22.000Z</time>
      </trkpt>
      <trkpt lat="49.86082" lon="4.85079">
        <ele>194</ele>
        <time>2021-08-27T08:09:23.000Z</time>
      </trkpt>
      <trkpt lat="49.86081" lon="4.85077">
        <ele>194</ele>
        <time>2021-08-27T08:09:24.000Z</time>
      </trkpt>
      <trkpt lat="49.8608" lon="4.85075">
        <ele>194</ele>
        <time>2021-08-27T08:09:25.000Z</time>
      </trkpt>
      <trkpt lat="49.86078" lon="4.85073">
        <ele>194</ele>
        <time>2021-08-27T08:09:26.000Z</time>
      </trkpt>
      <trkpt lat="49.86077" lon="4.85071">
        <ele>194</ele>
        <time>2021-08-27T08:09:27.000Z</time>
      </trkpt>
      <trkpt lat="49.86077" lon="4.85069">
        <ele>194</ele>
        <time>2021-08-27T08:09:28.000Z</time>
      </trkpt>
      <trkpt lat="49.86076" lon="4.85068">
        <ele>195</ele>
        <time>2021-08-27T08:09:29.000Z</time>
      </trkpt>
      <trkpt lat="49.86075" lon="4.85066">
        <ele>195</ele>
        <time>2021-08-27T08:09:30.000Z</time>
      </trkpt>
      <trkpt lat="49.86075" lon="4.85065">
        <ele>195</ele>
        <time>2021-08-27T08:09:31.000Z</time>
      </trkpt>
      <trkpt lat="49.86074" lon="4.85064">
        <ele>195</ele>
        <time>2021-08-27T08:09:32.000Z</time>
      </trkpt>
      <trkpt lat="49.86074" lon="4.85062">
        <ele>196</ele>
        <time>2021-08-27T08:09:33.000Z</time>
      </trkpt>
      <trkpt lat="49.86073" lon="4.8506">
        <ele>196</ele>
        <time>2021-08-27T08:09:34.000Z</time>
      </trkpt>
      <trkpt lat="49.86072" lon="4.85059">
        <ele>196</ele>
        <time>2021-08-27T08:09:35.000Z</time>
      </trkpt>
      <trkpt lat="49.86071" lon="4.85058">
        <ele>197</ele>
        <time>2021-08-27T08:09:36.000Z</time>
      </trkpt>
      <trkpt lat="49.8607" lon="4.85056">
        <ele>197</ele>
        <time>2021-08-27T08:09:37.000Z</time>
      </trkpt>
      <trkpt lat="49.86069" lon="4.85054">
        <ele>197</ele>
        <time>2021-08-27T08:09:38.000Z</time>
      </trkpt>
      <trkpt lat="49.86068" lon="4.85053">
        <ele>198</ele>
        <time>2021-08-27T08:09:39.000Z</time>
      </trkpt>
      <trkpt lat="49.86067" lon="4.85051">
        <ele>198</ele>
        <time>2021-08-27T08:09:40.000Z</time>
      </trkpt>
      <trkpt lat="49.86066" lon="4.8505">
        <ele>198</ele>
        <time>2021-08-27T08:09:41.000Z</time>
      </trkpt>
      <trkpt lat="49.86065" lon="4.85048">
        <ele>198</ele>
        <time>2021-08-27T08:09:42.000Z</time>
      </trkpt>
      <trkpt lat="49.86063" lon="4.85046">
        <ele>198</ele>
        <time>2021-08-27T08:09:43.000Z</time>
      </trkpt>
      <trkpt lat="49.86062" lon="4.85044">
        <ele>199</ele>
        <time>2021-08-27T08:09:44.000Z</time>
      </trkpt>
      <trkpt lat="49.86061" lon="4.85042">
        <ele>199</ele>
        <time>2021-08-27T08:09:45.000Z</time>
      </trkpt>
      <trkpt lat="49.8606" lon="4.85041">
        <ele>199</ele>
        <time>2021-08-27T08:09:46.000Z</time>
      </trkpt>
      <trkpt lat="49.86059" lon="4.85039">
        <ele>199</ele>
        <time>2021-08-27T08:09:47.000Z</time>
      </trkpt>
      <trkpt lat="49.86059" lon="4.85036">
        <ele>199</ele>
        <time>2021-08-27T08:09:48.000Z</time>
      </trkpt>
      <trkpt lat="49.86058" lon="4.85035">
        <ele>199</ele>
        <time>2021-08-27T08:09:49.000Z</time>
      </trkpt>
      <trkpt lat="49.86057" lon="4.85032">
        <ele>200</ele>
        <time>2021-08-27T08:09:50.000Z</time>
      </trkpt>
      <trkpt lat="49.86056" lon="4.8503">
        <ele>200</ele>
        <time>2021-08-27T08:09:51.000Z</time>
      </trkpt>
      <trkpt lat="49.86054" lon="4.85027">
        <ele>200</ele>
        <time>2021-08-27T08:09:52.000Z</time>
      </trkpt>
      <trkpt lat="49.86053" lon="4.85025">
        <ele>200</ele>
        <time>2021-08-27T08:09:53.000Z</time>
      </trkpt>
      <trkpt lat="49.86052" lon="4.85022">
        <ele>200</ele>
        <time>2021-08-27T08:09:54.000Z</time>
      </trkpt>
      <trkpt lat="49.86052" lon="4.85019">
        <ele>200</ele>
        <time>2021-08-27T08:09:55.000Z</time>
      </trkpt>
      <trkpt lat="49.86051" lon="4.85016">
        <ele>200</ele>
        <time>2021-08-27T08:09:56.000Z</time>
      </trkpt>
      <trkpt lat="49.8605" lon="4.85013">
        <ele>200</ele>
        <time>2021-08-27T08:09:57.000Z</time>
      </trkpt>
      <trkpt lat="49.86049" lon="4.85009">
        <ele>200</ele>
        <time>2021-08-27T08:09:58.000Z</time>
      </trkpt>
      <trkpt lat="49.86049" lon="4.85005">
        <ele>200</ele>
        <time>2021-08-27T08:09:59.000Z</time>
      </trkpt>
      <trkpt lat="49.86048" lon="4.85002">
        <ele>200</ele>
        <time>2021-08-27T08:10:00.000Z</time>
      </trkpt>
      <trkpt lat="49.86048" lon="4.84999">
        <ele>200</ele>
        <time>2021-08-27T08:10:01.000Z</time>
      </trkpt>
      <trkpt lat="49.86047" lon="4.84996">
        <ele>200</ele>
        <time>2021-08-27T08:10:02.000Z</time>
      </trkpt>
      <trkpt lat="49.86047" lon="4.84993">
        <ele>200</ele>
        <time>2021-08-27T08:10:03.000Z</time>
      </trkpt>
      <trkpt lat="49.86046" lon="4.84991">
        <ele>200</ele>
        <time>2021-08-27T08:10:04.000Z</time>
      </trkpt>
      <trkpt lat="49.86046" lon="4.84988">
        <ele>200</ele>
        <time>2021-08-27T08:10:05.000Z</time>
      </trkpt>
      <trkpt lat="49.86046" lon="4.84985">
        <ele>200</ele>
        <time>2021-08-27T08:10:06.000Z</time>
      </trkpt>
      <trkpt lat="49.86045" lon="4.84982">
        <ele>200</ele>
        <time>2021-08-27T08:10:07.000Z</time>
      </trkpt>
      <trkpt lat="49.86045" lon="4.84979">
        <ele>201</ele>
        <time>2021-08-27T08:10:08.000Z</time>
      </trkpt>
      <trkpt lat="49.86045" lon="4.84976">
        <ele>201</ele>
        <time>2021-08-27T08:10:09.000Z</time>
      </trkpt>
      <trkpt lat="49.86045" lon="4.84974">
        <ele>201</ele>
        <time>2021-08-27T08:10:10.000Z</time>
      </trkpt>
      <trkpt lat="49.86044" lon="4.84971">
        <ele>201</ele>
        <time>2021-08-27T08:10:11.000Z</time>
      </trkpt>
      <trkpt lat="49.86043" lon="4.84969">
        <ele>201</ele>
        <time>2021-08-27T08:10:12.000Z</time>
      </trkpt>
      <trkpt lat="49.86042" lon="4.84967">
        <ele>201</ele>
        <time>2021-08-27T08:10:13.000Z</time>
      </trkpt>
      <trkpt lat="49.86041" lon="4.84964">
        <ele>201</ele>
        <time>2021-08-27T08:10:14.000Z</time>
      </trkpt>
      <trkpt lat="49.8604" lon="4.84963">
        <ele>201</ele>
        <time>2021-08-27T08:10:15.000Z</time>
      </trkpt>
      <trkpt lat="49.86038" lon="4.84961">
        <ele>202</ele>
        <time>2021-08-27T08:10:16.000Z</time>
      </trkpt>
      <trkpt lat="49.86037" lon="4.84959">
        <ele>202</ele>
        <time>2021-08-27T08:10:17.000Z</time>
      </trkpt>
      <trkpt lat="49.86036" lon="4.84957">
        <ele>202</ele>
        <time>2021-08-27T08:10:18.000Z</time>
      </trkpt>
      <trkpt lat="49.86036" lon="4.84955">
        <ele>202</ele>
        <time>2021-08-27T08:10:19.000Z</time>
      </trkpt>
      <trkpt lat="49.86035" lon="4.84953">
        <ele>202</ele>
        <time>2021-08-27T08:10:20.000Z</time>
      </trkpt>
      <trkpt lat="49.86034" lon="4.84951">
        <ele>202</ele>
        <time>2021-08-27T08:10:21.000Z</time>
      </trkpt>
      <trkpt lat="49.86033" lon="4.84949">
        <ele>203</ele>
        <time>2021-08-27T08:10:22.000Z</time>
      </trkpt>
      <trkpt lat="49.86032" lon="4.84947">
        <ele>203</ele>
        <time>2021-08-27T08:10:23.000Z</time>
      </trkpt>
      <trkpt lat="49.86031" lon="4.84946">
        <ele>203</ele>
        <time>2021-08-27T08:10:24.000Z</time>
      </trkpt>
      <trkpt lat="49.8603" lon="4.84944">
        <ele>203</ele>
        <time>2021-08-27T08:10:25.000Z</time>
      </trkpt>
      <trkpt lat="49.8603" lon="4.84941">
        <ele>203</ele>
        <time>2021-08-27T08:10:26.000Z</time>
      </trkpt>
      <trkpt lat="49.86029" lon="4.84939">
        <ele>203</ele>
        <time>2021-08-27T08:10:27.000Z</time>
      </trkpt>
      <trkpt lat="49.86028" lon="4.84937">
        <ele>203</ele>
        <time>2021-08-27T08:10:28.000Z</time>
      </trkpt>
      <trkpt lat="49.86027" lon="4.84934">
        <ele>204</ele>
        <time>2021-08-27T08:10:29.000Z</time>
      </trkpt>
      <trkpt lat="49.86026" lon="4.84931">
        <ele>204</ele>
        <time>2021-08-27T08:10:30.000Z</time>
      </trkpt>
      <trkpt lat="49.86026" lon="4.84929">
        <ele>204</ele>
        <time>2021-08-27T08:10:31.000Z</time>
      </trkpt>
      <trkpt lat="49.86026" lon="4.84926">
        <ele>204</ele>
        <time>2021-08-27T08:10:32.000Z</time>
      </trkpt>
      <trkpt lat="49.86025" lon="4.84923">
        <ele>204</ele>
        <time>2021-08-27T08:10:33.000Z</time>
      </trkpt>
      <trkpt lat="49.86025" lon="4.8492">
        <ele>204</ele>
        <time>2021-08-27T08:10:34.000Z</time>
      </trkpt>
      <trkpt lat="49.86024" lon="4.84917">
        <ele>204</ele>
        <time>2021-08-27T08:10:35.000Z</time>
      </trkpt>
      <trkpt lat="49.86024" lon="4.84914">
        <ele>204</ele>
        <time>2021-08-27T08:10:36.000Z</time>
      </trkpt>
      <trkpt lat="49.86024" lon="4.84912">
        <ele>205</ele>
        <time>2021-08-27T08:10:37.000Z</time>
      </trkpt>
      <trkpt lat="49.86024" lon="4.84909">
        <ele>205</ele>
        <time>2021-08-27T08:10:38.000Z</time>
      </trkpt>
      <trkpt lat="49.86023" lon="4.84906">
        <ele>205</ele>
        <time>2021-08-27T08:10:39.000Z</time>
      </trkpt>
      <trkpt lat="49.86024" lon="4.84903">
        <ele>205</ele>
        <time>2021-08-27T08:10:40.000Z</time>
      </trkpt>
      <trkpt lat="49.86023" lon="4.84901">
        <ele>206</ele>
        <time>2021-08-27T08:10:41.000Z</time>
      </trkpt>
      <trkpt lat="49.86023" lon="4.84898">
        <ele>206</ele>
        <time>2021-08-27T08:10:42.000Z</time>
      </trkpt>
      <trkpt lat="49.86023" lon="4.84895">
        <ele>206</ele>
        <time>2021-08-27T08:10:43.000Z</time>
      </trkpt>
      <trkpt lat="49.86023" lon="4.84892">
        <ele>207</ele>
        <time>2021-08-27T08:10:44.000Z</time>
      </trkpt>
      <trkpt lat="49.86022" lon="4.84889">
        <ele>207</ele>
        <time>2021-08-27T08:10:45.000Z</time>
      </trkpt>
      <trkpt lat="49.86022" lon="4.84887">
        <ele>207</ele>
        <time>2021-08-27T08:10:46.000Z</time>
      </trkpt>
      <trkpt lat="49.86022" lon="4.84884">
        <ele>208</ele>
        <time>2021-08-27T08:10:47.000Z</time>
      </trkpt>
      <trkpt lat="49.86022" lon="4.84881">
        <ele>208</ele>
        <time>2021-08-27T08:10:48.000Z</time>
      </trkpt>
      <trkpt lat="49.86021" lon="4.84878">
        <ele>209</ele>
        <time>2021-08-27T08:10:49.000Z</time>
      </trkpt>
      <trkpt lat="49.86021" lon="4.84875">
        <ele>209</ele>
        <time>2021-08-27T08:10:50.000Z</time>
      </trkpt>
      <trkpt lat="49.86021" lon="4.84873">
        <ele>209</ele>
        <time>2021-08-27T08:10:51.000Z</time>
      </trkpt>
      <trkpt lat="49.86021" lon="4.8487">
        <ele>210</ele>
        <time>2021-08-27T08:10:52.000Z</time>
      </trkpt>
      <trkpt lat="49.86021" lon="4.84867">
        <ele>210</ele>
        <time>2021-08-27T08:10:53.000Z</time>
      </trkpt>
      <trkpt lat="49.86021" lon="4.84864">
        <ele>210</ele>
        <time>2021-08-27T08:10:54.000Z</time>
      </trkpt>
      <trkpt lat="49.8602" lon="4.84861">
        <ele>211</ele>
        <time>2021-08-27T08:10:55.000Z</time>
      </trkpt>
      <trkpt lat="49.8602" lon="4.84858">
        <ele>211</ele>
        <time>2021-08-27T08:10:56.000Z</time>
      </trkpt>
      <trkpt lat="49.86019" lon="4.84856">
        <ele>212</ele>
        <time>2021-08-27T08:10:57.000Z</time>
      </trkpt>
      <trkpt lat="49.86019" lon="4.84853">
        <ele>212</ele>
        <time>2021-08-27T08:10:58.000Z</time>
      </trkpt>
      <trkpt lat="49.86018" lon="4.84851">
        <ele>212</ele>
        <time>2021-08-27T08:10:59.000Z</time>
      </trkpt>
      <trkpt lat="49.86018" lon="4.84848">
        <ele>213</ele>
        <time>2021-08-27T08:11:00.000Z</time>
      </trkpt>
      <trkpt lat="49.86017" lon="4.84846">
        <ele>213</ele>
        <time>2021-08-27T08:11:01.000Z</time>
      </trkpt>
      <trkpt lat="49.86017" lon="4.84843">
        <ele>214</ele>
        <time>2021-08-27T08:11:02.000Z</time>
      </trkpt>
      <trkpt lat="49.86017" lon="4.8484">
        <ele>214</ele>
        <time>2021-08-27T08:11:03.000Z</time>
      </trkpt>
      <trkpt lat="49.86018" lon="4.84838">
        <ele>215</ele>
        <time>2021-08-27T08:11:04.000Z</time>
      </trkpt>
      <trkpt lat="49.86018" lon="4.84836">
        <ele>215</ele>
        <time>2021-08-27T08:11:05.000Z</time>
      </trkpt>
      <trkpt lat="49.86018" lon="4.84833">
        <ele>216</ele>
        <time>2021-08-27T08:11:06.000Z</time>
      </trkpt>
      <trkpt lat="49.86017" lon="4.8483">
        <ele>216</ele>
        <time>2021-08-27T08:11:07.000Z</time>
      </trkpt>
      <trkpt lat="49.86017" lon="4.84827">
        <ele>217</ele>
        <time>2021-08-27T08:11:08.000Z</time>
      </trkpt>
      <trkpt lat="49.86017" lon="4.84825">
        <ele>217</ele>
        <time>2021-08-27T08:11:09.000Z</time>
      </trkpt>
      <trkpt lat="49.86017" lon="4.84821">
        <ele>218</ele>
        <time>2021-08-27T08:11:10.000Z</time>
      </trkpt>
      <trkpt lat="49.86017" lon="4.84818">
        <ele>218</ele>
        <time>2021-08-27T08:11:11.000Z</time>
      </trkpt>
      <trkpt lat="49.86016" lon="4.84815">
        <ele>218</ele>
        <time>2021-08-27T08:11:12.000Z</time>
      </trkpt>
      <trkpt lat="49.86016" lon="4.84811">
        <ele>219</ele>
        <time>2021-08-27T08:11:13.000Z</time>
      </trkpt>
      <trkpt lat="49.86016" lon="4.84808">
        <ele>219</ele>
        <time>2021-08-27T08:11:14.000Z</time>
      </trkpt>
      <trkpt lat="49.86016" lon="4.84805">
        <ele>219</ele>
        <time>2021-08-27T08:11:15.000Z</time>
      </trkpt>
      <trkpt lat="49.86017" lon="4.84802">
        <ele>219</ele>
        <time>2021-08-27T08:11:16.000Z</time>
      </trkpt>
      <trkpt lat="49.86016" lon="4.84799">
        <ele>220</ele>
        <time>2021-08-27T08:11:17.000Z</time>
      </trkpt>
      <trkpt lat="49.86016" lon="4.84796">
        <ele>220</ele>
        <time>2021-08-27T08:11:18.000Z</time>
      </trkpt>
      <trkpt lat="49.86015" lon="4.84793">
        <ele>220</ele>
        <time>2021-08-27T08:11:19.000Z</time>
      </trkpt>
      <trkpt lat="49.86015" lon="4.8479">
        <ele>221</ele>
        <time>2021-08-27T08:11:20.000Z</time>
      </trkpt>
      <trkpt lat="49.86015" lon="4.84787">
        <ele>221</ele>
        <time>2021-08-27T08:11:21.000Z</time>
      </trkpt>
      <trkpt lat="49.86015" lon="4.84784">
        <ele>221</ele>
        <time>2021-08-27T08:11:22.000Z</time>
      </trkpt>
      <trkpt lat="49.86014" lon="4.84782">
        <ele>221</ele>
        <time>2021-08-27T08:11:23.000Z</time>
      </trkpt>
      <trkpt lat="49.86014" lon="4.8478">
        <ele>221</ele>
        <time>2021-08-27T08:11:24.000Z</time>
      </trkpt>
      <trkpt lat="49.86014" lon="4.84777">
        <ele>221</ele>
        <time>2021-08-27T08:11:25.000Z</time>
      </trkpt>
      <trkpt lat="49.86013" lon="4.84775">
        <ele>222</ele>
        <time>2021-08-27T08:11:26.000Z</time>
      </trkpt>
      <trkpt lat="49.86013" lon="4.84772">
        <ele>222</ele>
        <time>2021-08-27T08:11:27.000Z</time>
      </trkpt>
      <trkpt lat="49.86013" lon="4.8477">
        <ele>222</ele>
        <time>2021-08-27T08:11:28.000Z</time>
      </trkpt>
      <trkpt lat="49.86012" lon="4.84768">
        <ele>222</ele>
        <time>2021-08-27T08:11:29.000Z</time>
      </trkpt>
      <trkpt lat="49.86012" lon="4.84765">
        <ele>223</ele>
        <time>2021-08-27T08:11:30.000Z</time>
      </trkpt>
      <trkpt lat="49.86012" lon="4.84763">
        <ele>223</ele>
        <time>2021-08-27T08:11:31.000Z</time>
      </trkpt>
      <trkpt lat="49.86012" lon="4.84761">
        <ele>223</ele>
        <time>2021-08-27T08:11:32.000Z</time>
      </trkpt>
      <trkpt lat="49.86011" lon="4.84758">
        <ele>223</ele>
        <time>2021-08-27T08:11:33.000Z</time>
      </trkpt>
      <trkpt lat="49.86011" lon="4.84756">
        <ele>224</ele>
        <time>2021-08-27T08:11:34.000Z</time>
      </trkpt>
      <trkpt lat="49.8601" lon="4.84754">
        <ele>224</ele>
        <time>2021-08-27T08:11:35.000Z</time>
      </trkpt>
      <trkpt lat="49.86009" lon="4.84751">
        <ele>224</ele>
        <time>2021-08-27T08:11:36.000Z</time>
      </trkpt>
      <trkpt lat="49.86008" lon="4.84748">
        <ele>224</ele>
        <time>2021-08-27T08:11:37.000Z</time>
      </trkpt>
      <trkpt lat="49.86007" lon="4.84746">
        <ele>224</ele>
        <time>2021-08-27T08:11:38.000Z</time>
      </trkpt>
      <trkpt lat="49.86006" lon="4.84744">
        <ele>225</ele>
        <time>2021-08-27T08:11:39.000Z</time>
      </trkpt>
      <trkpt lat="49.86004" lon="4.84741">
        <ele>225</ele>
        <time>2021-08-27T08:11:40.000Z</time>
      </trkpt>
      <trkpt lat="49.86003" lon="4.84738">
        <ele>225</ele>
        <time>2021-08-27T08:11:41.000Z</time>
      </trkpt>
      <trkpt lat="49.86002" lon="4.84736">
        <ele>225</ele>
        <time>2021-08-27T08:11:42.000Z</time>
      </trkpt>
      <trkpt lat="49.86001" lon="4.84734">
        <ele>225</ele>
        <time>2021-08-27T08:11:43.000Z</time>
      </trkpt>
      <trkpt lat="49.86" lon="4.84731">
        <ele>225</ele>
        <time>2021-08-27T08:11:44.000Z</time>
      </trkpt>
      <trkpt lat="49.85999" lon="4.84728">
        <ele>226</ele>
        <time>2021-08-27T08:11:45.000Z</time>
      </trkpt>
      <trkpt lat="49.85998" lon="4.84725">
        <ele>226</ele>
        <time>2021-08-27T08:11:46.000Z</time>
      </trkpt>
      <trkpt lat="49.85996" lon="4.84723">
        <ele>226</ele>
        <time>2021-08-27T08:11:47.000Z</time>
      </trkpt>
      <trkpt lat="49.85995" lon="4.84721">
        <ele>226</ele>
        <time>2021-08-27T08:11:48.000Z</time>
      </trkpt>
      <trkpt lat="49.85994" lon="4.84718">
        <ele>226</ele>
        <time>2021-08-27T08:11:49.000Z</time>
      </trkpt>
      <trkpt lat="49.85992" lon="4.84716">
        <ele>226</ele>
        <time>2021-08-27T08:11:50.000Z</time>
      </trkpt>
      <trkpt lat="49.85992" lon="4.84713">
        <ele>226</ele>
        <time>2021-08-27T08:11:51.000Z</time>
      </trkpt>
      <trkpt lat="49.85991" lon="4.84711">
        <ele>226</ele>
        <time>2021-08-27T08:11:52.000Z</time>
      </trkpt>
      <trkpt lat="49.85991" lon="4.84709">
        <ele>226</ele>
        <time>2021-08-27T08:11:53.000Z</time>
      </trkpt>
      <trkpt lat="49.8599" lon="4.84707">
        <ele>226</ele>
        <time>2021-08-27T08:11:54.000Z</time>
      </trkpt>
      <trkpt lat="49.85989" lon="4.84704">
        <ele>226</ele>
        <time>2021-08-27T08:11:55.000Z</time>
      </trkpt>
      <trkpt lat="49.85988" lon="4.84701">
        <ele>226</ele>
        <time>2021-08-27T08:11:56.000Z</time>
      </trkpt>
      <trkpt lat="49.85986" lon="4.84699">
        <ele>226</ele>
        <time>2021-08-27T08:11:57.000Z</time>
      </trkpt>
      <trkpt lat="49.85985" lon="4.84697">
        <ele>226</ele>
        <time>2021-08-27T08:11:58.000Z</time>
      </trkpt>
      <trkpt lat="49.85984" lon="4.84695">
        <ele>226</ele>
        <time>2021-08-27T08:11:59.000Z</time>
      </trkpt>
      <trkpt lat="49.85982" lon="4.84692">
        <ele>226</ele>
        <time>2021-08-27T08:12:00.000Z</time>
      </trkpt>
      <trkpt lat="49.85981" lon="4.8469">
        <ele>226</ele>
        <time>2021-08-27T08:12:01.000Z</time>
      </trkpt>
      <trkpt lat="49.85979" lon="4.84687">
        <ele>226</ele>
        <time>2021-08-27T08:12:02.000Z</time>
      </trkpt>
      <trkpt lat="49.85978" lon="4.84685">
        <ele>227</ele>
        <time>2021-08-27T08:12:03.000Z</time>
      </trkpt>
      <trkpt lat="49.85977" lon="4.84683">
        <ele>227</ele>
        <time>2021-08-27T08:12:04.000Z</time>
      </trkpt>
      <trkpt lat="49.85976" lon="4.8468">
        <ele>227</ele>
        <time>2021-08-27T08:12:05.000Z</time>
      </trkpt>
      <trkpt lat="49.85976" lon="4.84678">
        <ele>227</ele>
        <time>2021-08-27T08:12:06.000Z</time>
      </trkpt>
      <trkpt lat="49.85975" lon="4.84675">
        <ele>227</ele>
        <time>2021-08-27T08:12:07.000Z</time>
      </trkpt>
      <trkpt lat="49.85975" lon="4.84673">
        <ele>227</ele>
        <time>2021-08-27T08:12:08.000Z</time>
      </trkpt>
      <trkpt lat="49.85975" lon="4.8467">
        <ele>228</ele>
        <time>2021-08-27T08:12:09.000Z</time>
      </trkpt>
      <trkpt lat="49.85974" lon="4.84668">
        <ele>228</ele>
        <time>2021-08-27T08:12:10.000Z</time>
      </trkpt>
      <trkpt lat="49.85974" lon="4.84665">
        <ele>228</ele>
        <time>2021-08-27T08:12:11.000Z</time>
      </trkpt>
      <trkpt lat="49.85973" lon="4.84662">
        <ele>228</ele>
        <time>2021-08-27T08:12:12.000Z</time>
      </trkpt>
      <trkpt lat="49.85972" lon="4.84659">
        <ele>229</ele>
        <time>2021-08-27T08:12:13.000Z</time>
      </trkpt>
      <trkpt lat="49.85972" lon="4.84656">
        <ele>229</ele>
        <time>2021-08-27T08:12:14.000Z</time>
      </trkpt>
      <trkpt lat="49.85971" lon="4.84653">
        <ele>229</ele>
        <time>2021-08-27T08:12:15.000Z</time>
      </trkpt>
      <trkpt lat="49.85969" lon="4.84651">
        <ele>229</ele>
        <time>2021-08-27T08:12:16.000Z</time>
      </trkpt>
      <trkpt lat="49.85968" lon="4.84649">
        <ele>229</ele>
        <time>2021-08-27T08:12:17.000Z</time>
      </trkpt>
      <trkpt lat="49.85967" lon="4.84646">
        <ele>230</ele>
        <time>2021-08-27T08:12:18.000Z</time>
      </trkpt>
      <trkpt lat="49.85966" lon="4.84643">
        <ele>230</ele>
        <time>2021-08-27T08:12:19.000Z</time>
      </trkpt>
      <trkpt lat="49.85965" lon="4.8464">
        <ele>230</ele>
        <time>2021-08-27T08:12:20.000Z</time>
      </trkpt>
      <trkpt lat="49.85965" lon="4.84638">
        <ele>230</ele>
        <time>2021-08-27T08:12:21.000Z</time>
      </trkpt>
      <trkpt lat="49.85964" lon="4.84635">
        <ele>230</ele>
        <time>2021-08-27T08:12:22.000Z</time>
      </trkpt>
      <trkpt lat="49.85962" lon="4.84632">
        <ele>230</ele>
        <time>2021-08-27T08:12:23.000Z</time>
      </trkpt>
      <trkpt lat="49.85961" lon="4.8463">
        <ele>230</ele>
        <time>2021-08-27T08:12:24.000Z</time>
      </trkpt>
      <trkpt lat="49.8596" lon="4.84628">
        <ele>231</ele>
        <time>2021-08-27T08:12:25.000Z</time>
      </trkpt>
      <trkpt lat="49.85958" lon="4.84627">
        <ele>231</ele>
        <time>2021-08-27T08:12:26.000Z</time>
      </trkpt>
      <trkpt lat="49.85957" lon="4.84625">
        <ele>231</ele>
        <time>2021-08-27T08:12:27.000Z</time>
      </trkpt>
      <trkpt lat="49.85956" lon="4.84624">
        <ele>231</ele>
        <time>2021-08-27T08:12:28.000Z</time>
      </trkpt>
      <trkpt lat="49.85954" lon="4.84623">
        <ele>231</ele>
        <time>2021-08-27T08:12:29.000Z</time>
      </trkpt>
      <trkpt lat="49.85953" lon="4.84622">
        <ele>231</ele>
        <time>2021-08-27T08:12:30.000Z</time>
      </trkpt>
      <trkpt lat="49.85951" lon="4.84622">
        <ele>231</ele>
        <time>2021-08-27T08:12:31.000Z</time>
      </trkpt>
      <trkpt lat="49.8595" lon="4.84621">
        <ele>232</ele>
        <time>2021-08-27T08:12:32.000Z</time>
      </trkpt>
      <trkpt lat="49.85949" lon="4.8462">
        <ele>232</ele>
        <time>2021-08-27T08:12:33.000Z</time>
      </trkpt>
      <trkpt lat="49.85947" lon="4.84619">
        <ele>232</ele>
        <time>2021-08-27T08:12:34.000Z</time>
      </trkpt>
      <trkpt lat="49.85945" lon="4.84618">
        <ele>233</ele>
        <time>2021-08-27T08:12:35.000Z</time>
      </trkpt>
      <trkpt lat="49.85944" lon="4.84618">
        <ele>233</ele>
        <time>2021-08-27T08:12:36.000Z</time>
      </trkpt>
      <trkpt lat="49.85943" lon="4.84617">
        <ele>233</ele>
        <time>2021-08-27T08:12:37.000Z</time>
      </trkpt>
      <trkpt lat="49.85942" lon="4.84616">
        <ele>234</ele>
        <time>2021-08-27T08:12:38.000Z</time>
      </trkpt>
      <trkpt lat="49.8594" lon="4.84616">
        <ele>234</ele>
        <time>2021-08-27T08:12:39.000Z</time>
      </trkpt>
      <trkpt lat="49.85938" lon="4.84615">
        <ele>235</ele>
        <time>2021-08-27T08:12:40.000Z</time>
      </trkpt>
      <trkpt lat="49.85937" lon="4.84614">
        <ele>235</ele>
        <time>2021-08-27T08:12:41.000Z</time>
      </trkpt>
      <trkpt lat="49.85936" lon="4.84613">
        <ele>235</ele>
        <time>2021-08-27T08:12:42.000Z</time>
      </trkpt>
      <trkpt lat="49.85934" lon="4.84612">
        <ele>236</ele>
        <time>2021-08-27T08:12:43.000Z</time>
      </trkpt>
      <trkpt lat="49.85933" lon="4.84611">
        <ele>236</ele>
        <time>2021-08-27T08:12:44.000Z</time>
      </trkpt>
      <trkpt lat="49.85932" lon="4.84611">
        <ele>237</ele>
        <time>2021-08-27T08:12:45.000Z</time>
      </trkpt>
      <trkpt lat="49.8593" lon="4.8461">
        <ele>237</ele>
        <time>2021-08-27T08:12:46.000Z</time>
      </trkpt>
      <trkpt lat="49.85929" lon="4.84609">
        <ele>237</ele>
        <time>2021-08-27T08:12:47.000Z</time>
      </trkpt>
      <trkpt lat="49.85928" lon="4.84608">
        <ele>238</ele>
        <time>2021-08-27T08:12:48.000Z</time>
      </trkpt>
      <trkpt lat="49.85927" lon="4.84606">
        <ele>238</ele>
        <time>2021-08-27T08:12:49.000Z</time>
      </trkpt>
      <trkpt lat="49.85926" lon="4.84605">
        <ele>238</ele>
        <time>2021-08-27T08:12:50.000Z</time>
      </trkpt>
      <trkpt lat="49.85924" lon="4.84604">
        <ele>239</ele>
        <time>2021-08-27T08:12:51.000Z</time>
      </trkpt>
      <trkpt lat="49.85923" lon="4.84603">
        <ele>239</ele>
        <time>2021-08-27T08:12:52.000Z</time>
      </trkpt>
      <trkpt lat="49.85922" lon="4.84601">
        <ele>239</ele>
        <time>2021-08-27T08:12:53.000Z</time>
      </trkpt>
      <trkpt lat="49.85921" lon="4.846">
        <ele>240</ele>
        <time>2021-08-27T08:12:54.000Z</time>
      </trkpt>
      <trkpt lat="49.85919" lon="4.84598">
        <ele>240</ele>
        <time>2021-08-27T08:12:55.000Z</time>
      </trkpt>
      <trkpt lat="49.85918" lon="4.84597">
        <ele>240</ele>
        <time>2021-08-27T08:12:56.000Z</time>
      </trkpt>
      <trkpt lat="49.85917" lon="4.84596">
        <ele>241</ele>
        <time>2021-08-27T08:12:57.000Z</time>
      </trkpt>
      <trkpt lat="49.85915" lon="4.84595">
        <ele>241</ele>
        <time>2021-08-27T08:12:58.000Z</time>
      </trkpt>
      <trkpt lat="49.85914" lon="4.84594">
        <ele>241</ele>
        <time>2021-08-27T08:12:59.000Z</time>
      </trkpt>
      <trkpt lat="49.85914" lon="4.84593">
        <ele>242</ele>
        <time>2021-08-27T08:13:00.000Z</time>
      </trkpt>
      <trkpt lat="49.85912" lon="4.84591">
        <ele>242</ele>
        <time>2021-08-27T08:13:01.000Z</time>
      </trkpt>
      <trkpt lat="49.85911" lon="4.8459">
        <ele>242</ele>
        <time>2021-08-27T08:13:02.000Z</time>
      </trkpt>
      <trkpt lat="49.85909" lon="4.84588">
        <ele>242</ele>
        <time>2021-08-27T08:13:03.000Z</time>
      </trkpt>
      <trkpt lat="49.85908" lon="4.84587">
        <ele>243</ele>
        <time>2021-08-27T08:13:04.000Z</time>
      </trkpt>
      <trkpt lat="49.85906" lon="4.84586">
        <ele>243</ele>
        <time>2021-08-27T08:13:05.000Z</time>
      </trkpt>
      <trkpt lat="49.85904" lon="4.84584">
        <ele>243</ele>
        <time>2021-08-27T08:13:06.000Z</time>
      </trkpt>
      <trkpt lat="49.85902" lon="4.84582">
        <ele>243</ele>
        <time>2021-08-27T08:13:07.000Z</time>
      </trkpt>
      <trkpt lat="49.85901" lon="4.84581">
        <ele>243</ele>
        <time>2021-08-27T08:13:08.000Z</time>
      </trkpt>
      <trkpt lat="49.85899" lon="4.84579">
        <ele>244</ele>
        <time>2021-08-27T08:13:09.000Z</time>
      </trkpt>
      <trkpt lat="49.85898" lon="4.84578">
        <ele>244</ele>
        <time>2021-08-27T08:13:10.000Z</time>
      </trkpt>
      <trkpt lat="49.85897" lon="4.84577">
        <ele>244</ele>
        <time>2021-08-27T08:13:11.000Z</time>
      </trkpt>
      <trkpt lat="49.85896" lon="4.84576">
        <ele>245</ele>
        <time>2021-08-27T08:13:12.000Z</time>
      </trkpt>
      <trkpt lat="49.85894" lon="4.84574">
        <ele>245</ele>
        <time>2021-08-27T08:13:13.000Z</time>
      </trkpt>
      <trkpt lat="49.85893" lon="4.84573">
        <ele>245</ele>
        <time>2021-08-27T08:13:14.000Z</time>
      </trkpt>
      <trkpt lat="49.85892" lon="4.84572">
        <ele>245</ele>
        <time>2021-08-27T08:13:15.000Z</time>
      </trkpt>
      <trkpt lat="49.8589" lon="4.8457">
        <ele>245</ele>
        <time>2021-08-27T08:13:16.000Z</time>
      </trkpt>
      <trkpt lat="49.85889" lon="4.84569">
        <ele>245</ele>
        <time>2021-08-27T08:13:17.000Z</time>
      </trkpt>
      <trkpt lat="49.85887" lon="4.84568">
        <ele>246</ele>
        <time>2021-08-27T08:13:18.000Z</time>
      </trkpt>
      <trkpt lat="49.85885" lon="4.84566">
        <ele>246</ele>
        <time>2021-08-27T08:13:19.000Z</time>
      </trkpt>
      <trkpt lat="49.85883" lon="4.84565">
        <ele>246</ele>
        <time>2021-08-27T08:13:20.000Z</time>
      </trkpt>
      <trkpt lat="49.85882" lon="4.84563">
        <ele>246</ele>
        <time>2021-08-27T08:13:21.000Z</time>
      </trkpt>
      <trkpt lat="49.8588" lon="4.84562">
        <ele>246</ele>
        <time>2021-08-27T08:13:22.000Z</time>
      </trkpt>
      <trkpt lat="49.85878" lon="4.8456">
        <ele>247</ele>
        <time>2021-08-27T08:13:23.000Z</time>
      </trkpt>
      <trkpt lat="49.85877" lon="4.84559">
        <ele>247</ele>
        <time>2021-08-27T08:13:24.000Z</time>
      </trkpt>
      <trkpt lat="49.85875" lon="4.84557">
        <ele>247</ele>
        <time>2021-08-27T08:13:25.000Z</time>
      </trkpt>
      <trkpt lat="49.85874" lon="4.84556">
        <ele>247</ele>
        <time>2021-08-27T08:13:26.000Z</time>
      </trkpt>
      <trkpt lat="49.85872" lon="4.84554">
        <ele>247</ele>
        <time>2021-08-27T08:13:27.000Z</time>
      </trkpt>
      <trkpt lat="49.85871" lon="4.84553">
        <ele>248</ele>
        <time>2021-08-27T08:13:28.000Z</time>
      </trkpt>
      <trkpt lat="49.85869" lon="4.84552">
        <ele>248</ele>
        <time>2021-08-27T08:13:29.000Z</time>
      </trkpt>
      <trkpt lat="49.85867" lon="4.84551">
        <ele>248</ele>
        <time>2021-08-27T08:13:30.000Z</time>
      </trkpt>
      <trkpt lat="49.85866" lon="4.84549">
        <ele>248</ele>
        <time>2021-08-27T08:13:31.000Z</time>
      </trkpt>
      <trkpt lat="49.85864" lon="4.84548">
        <ele>248</ele>
        <time>2021-08-27T08:13:32.000Z</time>
      </trkpt>
      <trkpt lat="49.85861" lon="4.84548">
        <ele>248</ele>
        <time>2021-08-27T08:13:33.000Z</time>
      </trkpt>
      <trkpt lat="49.85858" lon="4.84547">
        <ele>248</ele>
        <time>2021-08-27T08:13:34.000Z</time>
      </trkpt>
      <trkpt lat="49.85855" lon="4.84546">
        <ele>248</ele>
        <time>2021-08-27T08:13:35.000Z</time>
      </trkpt>
      <trkpt lat="49.85852" lon="4.84546">
        <ele>248</ele>
        <time>2021-08-27T08:13:36.000Z</time>
      </trkpt>
      <trkpt lat="49.85849" lon="4.84546">
        <ele>249</ele>
        <time>2021-08-27T08:13:37.000Z</time>
      </trkpt>
      <trkpt lat="49.85847" lon="4.84547">
        <ele>249</ele>
        <time>2021-08-27T08:13:38.000Z</time>
      </trkpt>
      <trkpt lat="49.85845" lon="4.84547">
        <ele>249</ele>
        <time>2021-08-27T08:13:39.000Z</time>
      </trkpt>
      <trkpt lat="49.85844" lon="4.84549">
        <ele>249</ele>
        <time>2021-08-27T08:13:40.000Z</time>
      </trkpt>
      <trkpt lat="49.85841" lon="4.8455">
        <ele>249</ele>
        <time>2021-08-27T08:13:41.000Z</time>
      </trkpt>
      <trkpt lat="49.8584" lon="4.84552">
        <ele>249</ele>
        <time>2021-08-27T08:13:42.000Z</time>
      </trkpt>
      <trkpt lat="49.85839" lon="4.84555">
        <ele>249</ele>
        <time>2021-08-27T08:13:43.000Z</time>
      </trkpt>
      <trkpt lat="49.85838" lon="4.84557">
        <ele>249</ele>
        <time>2021-08-27T08:13:44.000Z</time>
      </trkpt>
      <trkpt lat="49.85837" lon="4.84559">
        <ele>249</ele>
        <time>2021-08-27T08:13:45.000Z</time>
      </trkpt>
      <trkpt lat="49.85836" lon="4.84562">
        <ele>250</ele>
        <time>2021-08-27T08:13:46.000Z</time>
      </trkpt>
      <trkpt lat="49.85836" lon="4.84564">
        <ele>250</ele>
        <time>2021-08-27T08:13:47.000Z</time>
      </trkpt>
      <trkpt lat="49.85836" lon="4.84567">
        <ele>250</ele>
        <time>2021-08-27T08:13:48.000Z</time>
      </trkpt>
      <trkpt lat="49.85835" lon="4.84569">
        <ele>250</ele>
        <time>2021-08-27T08:13:49.000Z</time>
      </trkpt>
      <trkpt lat="49.85835" lon="4.84572">
        <ele>250</ele>
        <time>2021-08-27T08:13:50.000Z</time>
      </trkpt>
      <trkpt lat="49.85836" lon="4.84575">
        <ele>251</ele>
        <time>2021-08-27T08:13:51.000Z</time>
      </trkpt>
      <trkpt lat="49.85836" lon="4.84577">
        <ele>251</ele>
        <time>2021-08-27T08:13:52.000Z</time>
      </trkpt>
      <trkpt lat="49.85836" lon="4.84579">
        <ele>251</ele>
        <time>2021-08-27T08:13:53.000Z</time>
      </trkpt>
      <trkpt lat="49.85836" lon="4.84582">
        <ele>251</ele>
        <time>2021-08-27T08:13:54.000Z</time>
      </trkpt>
      <trkpt lat="49.85837" lon="4.84585">
        <ele>251</ele>
        <time>2021-08-27T08:13:55.000Z</time>
      </trkpt>
      <trkpt lat="49.85838" lon="4.84588">
        <ele>252</ele>
        <time>2021-08-27T08:13:56.000Z</time>
      </trkpt>
      <trkpt lat="49.85838" lon="4.84591">
        <ele>252</ele>
        <time>2021-08-27T08:13:57.000Z</time>
      </trkpt>
      <trkpt lat="49.8584" lon="4.84594">
        <ele>252</ele>
        <time>2021-08-27T08:13:58.000Z</time>
      </trkpt>
      <trkpt lat="49.85841" lon="4.84596">
        <ele>252</ele>
        <time>2021-08-27T08:13:59.000Z</time>
      </trkpt>
      <trkpt lat="49.85841" lon="4.84598">
        <ele>252</ele>
        <time>2021-08-27T08:14:00.000Z</time>
      </trkpt>
      <trkpt lat="49.85842" lon="4.84601">
        <ele>252</ele>
        <time>2021-08-27T08:14:01.000Z</time>
      </trkpt>
      <trkpt lat="49.85843" lon="4.84604">
        <ele>252</ele>
        <time>2021-08-27T08:14:02.000Z</time>
      </trkpt>
      <trkpt lat="49.85844" lon="4.84606">
        <ele>252</ele>
        <time>2021-08-27T08:14:03.000Z</time>
      </trkpt>
      <trkpt lat="49.85845" lon="4.8461">
        <ele>252</ele>
        <time>2021-08-27T08:14:04.000Z</time>
      </trkpt>
      <trkpt lat="49.85846" lon="4.84613">
        <ele>252</ele>
        <time>2021-08-27T08:14:05.000Z</time>
      </trkpt>
      <trkpt lat="49.85848" lon="4.84615">
        <ele>252</ele>
        <time>2021-08-27T08:14:06.000Z</time>
      </trkpt>
      <trkpt lat="49.85849" lon="4.84618">
        <ele>252</ele>
        <time>2021-08-27T08:14:07.000Z</time>
      </trkpt>
      <trkpt lat="49.8585" lon="4.8462">
        <ele>252</ele>
        <time>2021-08-27T08:14:08.000Z</time>
      </trkpt>
      <trkpt lat="49.85851" lon="4.84623">
        <ele>252</ele>
        <time>2021-08-27T08:14:09.000Z</time>
      </trkpt>
      <trkpt lat="49.85853" lon="4.84625">
        <ele>252</ele>
        <time>2021-08-27T08:14:10.000Z</time>
      </trkpt>
      <trkpt lat="49.85854" lon="4.84628">
        <ele>252</ele>
        <time>2021-08-27T08:14:11.000Z</time>
      </trkpt>
      <trkpt lat="49.85855" lon="4.84631">
        <ele>252</ele>
        <time>2021-08-27T08:14:12.000Z</time>
      </trkpt>
      <trkpt lat="49.85856" lon="4.84633">
        <ele>252</ele>
        <time>2021-08-27T08:14:13.000Z</time>
      </trkpt>
      <trkpt lat="49.85857" lon="4.84635">
        <ele>252</ele>
        <time>2021-08-27T08:14:14.000Z</time>
      </trkpt>
      <trkpt lat="49.85858" lon="4.84638">
        <ele>252</ele>
        <time>2021-08-27T08:14:15.000Z</time>
      </trkpt>
      <trkpt lat="49.85859" lon="4.8464">
        <ele>252</ele>
        <time>2021-08-27T08:14:16.000Z</time>
      </trkpt>
      <trkpt lat="49.8586" lon="4.84643">
        <ele>252</ele>
        <time>2021-08-27T08:14:17.000Z</time>
      </trkpt>
      <trkpt lat="49.85861" lon="4.84645">
        <ele>252</ele>
        <time>2021-08-27T08:14:18.000Z</time>
      </trkpt>
      <trkpt lat="49.85862" lon="4.84648">
        <ele>252</ele>
        <time>2021-08-27T08:14:19.000Z</time>
      </trkpt>
      <trkpt lat="49.85863" lon="4.8465">
        <ele>252</ele>
        <time>2021-08-27T08:14:20.000Z</time>
      </trkpt>
      <trkpt lat="49.85864" lon="4.84652">
        <ele>252</ele>
        <time>2021-08-27T08:14:21.000Z</time>
      </trkpt>
      <trkpt lat="49.85865" lon="4.84655">
        <ele>253</ele>
        <time>2021-08-27T08:14:22.000Z</time>
      </trkpt>
      <trkpt lat="49.85866" lon="4.84657">
        <ele>253</ele>
        <time>2021-08-27T08:14:23.000Z</time>
      </trkpt>
      <trkpt lat="49.85868" lon="4.8466">
        <ele>253</ele>
        <time>2021-08-27T08:14:24.000Z</time>
      </trkpt>
      <trkpt lat="49.85869" lon="4.84663">
        <ele>253</ele>
        <time>2021-08-27T08:14:25.000Z</time>
      </trkpt>
      <trkpt lat="49.8587" lon="4.84666">
        <ele>253</ele>
        <time>2021-08-27T08:14:26.000Z</time>
      </trkpt>
      <trkpt lat="49.85871" lon="4.8467">
        <ele>253</ele>
        <time>2021-08-27T08:14:27.000Z</time>
      </trkpt>
      <trkpt lat="49.85872" lon="4.84672">
        <ele>253</ele>
        <time>2021-08-27T08:14:28.000Z</time>
      </trkpt>
      <trkpt lat="49.85873" lon="4.84676">
        <ele>253</ele>
        <time>2021-08-27T08:14:29.000Z</time>
      </trkpt>
      <trkpt lat="49.85873" lon="4.8468">
        <ele>253</ele>
        <time>2021-08-27T08:14:30.000Z</time>
      </trkpt>
      <trkpt lat="49.85874" lon="4.84683">
        <ele>253</ele>
        <time>2021-08-27T08:14:31.000Z</time>
      </trkpt>
      <trkpt lat="49.85874" lon="4.84687">
        <ele>254</ele>
        <time>2021-08-27T08:14:32.000Z</time>
      </trkpt>
      <trkpt lat="49.85874" lon="4.84691">
        <ele>254</ele>
        <time>2021-08-27T08:14:33.000Z</time>
      </trkpt>
      <trkpt lat="49.85874" lon="4.84695">
        <ele>254</ele>
        <time>2021-08-27T08:14:34.000Z</time>
      </trkpt>
      <trkpt lat="49.85874" lon="4.84699">
        <ele>254</ele>
        <time>2021-08-27T08:14:35.000Z</time>
      </trkpt>
      <trkpt lat="49.85874" lon="4.84702">
        <ele>254</ele>
        <time>2021-08-27T08:14:36.000Z</time>
      </trkpt>
      <trkpt lat="49.85873" lon="4.84706">
        <ele>254</ele>
        <time>2021-08-27T08:14:37.000Z</time>
      </trkpt>
      <trkpt lat="49.85872" lon="4.84711">
        <ele>254</ele>
        <time>2021-08-27T08:14:38.000Z</time>
      </trkpt>
      <trkpt lat="49.85872" lon="4.84715">
        <ele>254</ele>
        <time>2021-08-27T08:14:39.000Z</time>
      </trkpt>
      <trkpt lat="49.85871" lon="4.8472">
        <ele>254</ele>
        <time>2021-08-27T08:14:40.000Z</time>
      </trkpt>
      <trkpt lat="49.8587" lon="4.84725">
        <ele>255</ele>
        <time>2021-08-27T08:14:41.000Z</time>
      </trkpt>
      <trkpt lat="49.8587" lon="4.84729">
        <ele>255</ele>
        <time>2021-08-27T08:14:42.000Z</time>
      </trkpt>
      <trkpt lat="49.85868" lon="4.84733">
        <ele>255</ele>
        <time>2021-08-27T08:14:43.000Z</time>
      </trkpt>
      <trkpt lat="49.85867" lon="4.84736">
        <ele>255</ele>
        <time>2021-08-27T08:14:44.000Z</time>
      </trkpt>
      <trkpt lat="49.85866" lon="4.8474">
        <ele>255</ele>
        <time>2021-08-27T08:14:45.000Z</time>
      </trkpt>
      <trkpt lat="49.85864" lon="4.84744">
        <ele>256</ele>
        <time>2021-08-27T08:14:46.000Z</time>
      </trkpt>
      <trkpt lat="49.85863" lon="4.84748">
        <ele>256</ele>
        <time>2021-08-27T08:14:47.000Z</time>
      </trkpt>
      <trkpt lat="49.85863" lon="4.8475">
        <ele>256</ele>
        <time>2021-08-27T08:14:48.000Z</time>
      </trkpt>
      <trkpt lat="49.85862" lon="4.84751">
        <ele>256</ele>
        <time>2021-08-27T08:14:49.000Z</time>
      </trkpt>
      <trkpt lat="49.85863" lon="4.84751">
        <ele>256</ele>
        <time>2021-08-27T08:14:50.000Z</time>
      </trkpt>
      <trkpt lat="49.85863" lon="4.84751">
        <ele>257</ele>
        <time>2021-08-27T08:14:51.000Z</time>
      </trkpt>
      <trkpt lat="49.85863" lon="4.8475">
        <ele>257</ele>
        <time>2021-08-27T08:14:52.000Z</time>
      </trkpt>
      <trkpt lat="49.85863" lon="4.8475">
        <ele>257</ele>
        <time>2021-08-27T08:14:53.000Z</time>
      </trkpt>
      <trkpt lat="49.85863" lon="4.8475">
        <ele>257</ele>
        <time>2021-08-27T08:14:54.000Z</time>
      </trkpt>
      <trkpt lat="49.85863" lon="4.8475">
        <ele>257</ele>
        <time>2021-08-27T08:14:55.000Z</time>
      </trkpt>
      <trkpt lat="49.85863" lon="4.8475">
        <ele>258</ele>
        <time>2021-08-27T08:14:56.000Z</time>
      </trkpt>
      <trkpt lat="49.85863" lon="4.8475">
        <ele>258</ele>
        <time>2021-08-27T08:14:57.000Z</time>
      </trkpt>
      <trkpt lat="49.85864" lon="4.84751">
        <ele>258</ele>
        <time>2021-08-27T08:14:58.000Z</time>
      </trkpt>
      <trkpt lat="49.85864" lon="4.84752">
        <ele>258</ele>
        <time>2021-08-27T08:14:59.000Z</time>
      </trkpt>
      <trkpt lat="49.85863" lon="4.84753">
        <ele>258</ele>
        <time>2021-08-27T08:15:00.000Z</time>
      </trkpt>
      <trkpt lat="49.85863" lon="4.84753">
        <ele>258</ele>
        <time>2021-08-27T08:15:01.000Z</time>
      </trkpt>
      <trkpt lat="49.85863" lon="4.84754">
        <ele>259</ele>
        <time>2021-08-27T08:15:02.000Z</time>
      </trkpt>
      <trkpt lat="49.85863" lon="4.84755">
        <ele>259</ele>
        <time>2021-08-27T08:15:03.000Z</time>
      </trkpt>
      <trkpt lat="49.85863" lon="4.84758">
        <ele>259</ele>
        <time>2021-08-27T08:15:04.000Z</time>
      </trkpt>
      <trkpt lat="49.85862" lon="4.84761">
        <ele>259</ele>
        <time>2021-08-27T08:15:05.000Z</time>
      </trkpt>
      <trkpt lat="49.85861" lon="4.84764">
        <ele>259</ele>
        <time>2021-08-27T08:15:06.000Z</time>
      </trkpt>
      <trkpt lat="49.85861" lon="4.84768">
        <ele>259</ele>
        <time>2021-08-27T08:15:07.000Z</time>
      </trkpt>
      <trkpt lat="49.85861" lon="4.84772">
        <ele>259</ele>
        <time>2021-08-27T08:15:08.000Z</time>
      </trkpt>
      <trkpt lat="49.85861" lon="4.84777">
        <ele>260</ele>
        <time>2021-08-27T08:15:09.000Z</time>
      </trkpt>
      <trkpt lat="49.85861" lon="4.84782">
        <ele>260</ele>
        <time>2021-08-27T08:15:10.000Z</time>
      </trkpt>
      <trkpt lat="49.85862" lon="4.84786">
        <ele>260</ele>
        <time>2021-08-27T08:15:11.000Z</time>
      </trkpt>
      <trkpt lat="49.85862" lon="4.84791">
        <ele>260</ele>
        <time>2021-08-27T08:15:12.000Z</time>
      </trkpt>
      <trkpt lat="49.85862" lon="4.84794">
        <ele>260</ele>
        <time>2021-08-27T08:15:13.000Z</time>
      </trkpt>
      <trkpt lat="49.85862" lon="4.84798">
        <ele>260</ele>
        <time>2021-08-27T08:15:14.000Z</time>
      </trkpt>
      <trkpt lat="49.85862" lon="4.84801">
        <ele>260</ele>
        <time>2021-08-27T08:15:15.000Z</time>
      </trkpt>
      <trkpt lat="49.85862" lon="4.84805">
        <ele>260</ele>
        <time>2021-08-27T08:15:16.000Z</time>
      </trkpt>
      <trkpt lat="49.85863" lon="4.84809">
        <ele>260</ele>
        <time>2021-08-27T08:15:17.000Z</time>
      </trkpt>
      <trkpt lat="49.85863" lon="4.84812">
        <ele>260</ele>
        <time>2021-08-27T08:15:18.000Z</time>
      </trkpt>
      <trkpt lat="49.85864" lon="4.84816">
        <ele>260</ele>
        <time>2021-08-27T08:15:19.000Z</time>
      </trkpt>
      <trkpt lat="49.85865" lon="4.84819">
        <ele>260</ele>
        <time>2021-08-27T08:15:20.000Z</time>
      </trkpt>
      <trkpt lat="49.85866" lon="4.84823">
        <ele>260</ele>
        <time>2021-08-27T08:15:21.000Z</time>
      </trkpt>
      <trkpt lat="49.85866" lon="4.84826">
        <ele>260</ele>
        <time>2021-08-27T08:15:22.000Z</time>
      </trkpt>
      <trkpt lat="49.85867" lon="4.8483">
        <ele>261</ele>
        <time>2021-08-27T08:15:23.000Z</time>
      </trkpt>
      <trkpt lat="49.85868" lon="4.84834">
        <ele>261</ele>
        <time>2021-08-27T08:15:24.000Z</time>
      </trkpt>
      <trkpt lat="49.85868" lon="4.84838">
        <ele>261</ele>
        <time>2021-08-27T08:15:25.000Z</time>
      </trkpt>
      <trkpt lat="49.85868" lon="4.84841">
        <ele>261</ele>
        <time>2021-08-27T08:15:26.000Z</time>
      </trkpt>
      <trkpt lat="49.85868" lon="4.84843">
        <ele>261</ele>
        <time>2021-08-27T08:15:27.000Z</time>
      </trkpt>
      <trkpt lat="49.85867" lon="4.84844">
        <ele>261</ele>
        <time>2021-08-27T08:15:28.000Z</time>
      </trkpt>
      <trkpt lat="49.85865" lon="4.84843">
        <ele>261</ele>
        <time>2021-08-27T08:15:29.000Z</time>
      </trkpt>
      <trkpt lat="49.85865" lon="4.84841">
        <ele>261</ele>
        <time>2021-08-27T08:15:30.000Z</time>
      </trkpt>
      <trkpt lat="49.85864" lon="4.8484">
        <ele>261</ele>
        <time>2021-08-27T08:15:31.000Z</time>
      </trkpt>
      <trkpt lat="49.85864" lon="4.84838">
        <ele>261</ele>
        <time>2021-08-27T08:15:32.000Z</time>
      </trkpt>
      <trkpt lat="49.85863" lon="4.84836">
        <ele>261</ele>
        <time>2021-08-27T08:15:33.000Z</time>
      </trkpt>
      <trkpt lat="49.85862" lon="4.84833">
        <ele>261</ele>
        <time>2021-08-27T08:15:34.000Z</time>
      </trkpt>
      <trkpt lat="49.85861" lon="4.84831">
        <ele>261</ele>
        <time>2021-08-27T08:15:35.000Z</time>
      </trkpt>
      <trkpt lat="49.85861" lon="4.84829">
        <ele>261</ele>
        <time>2021-08-27T08:15:36.000Z</time>
      </trkpt>
      <trkpt lat="49.8586" lon="4.84826">
        <ele>261</ele>
        <time>2021-08-27T08:15:37.000Z</time>
      </trkpt>
      <trkpt lat="49.85859" lon="4.84824">
        <ele>261</ele>
        <time>2021-08-27T08:15:38.000Z</time>
      </trkpt>
      <trkpt lat="49.85858" lon="4.84821">
        <ele>261</ele>
        <time>2021-08-27T08:15:39.000Z</time>
      </trkpt>
      <trkpt lat="49.85857" lon="4.84819">
        <ele>261</ele>
        <time>2021-08-27T08:15:40.000Z</time>
      </trkpt>
      <trkpt lat="49.85856" lon="4.84816">
        <ele>261</ele>
        <time>2021-08-27T08:15:41.000Z</time>
      </trkpt>
      <trkpt lat="49.85855" lon="4.84814">
        <ele>261</ele>
        <time>2021-08-27T08:15:42.000Z</time>
      </trkpt>
      <trkpt lat="49.85854" lon="4.84812">
        <ele>261</ele>
        <time>2021-08-27T08:15:43.000Z</time>
      </trkpt>
      <trkpt lat="49.85853" lon="4.8481">
        <ele>261</ele>
        <time>2021-08-27T08:15:44.000Z</time>
      </trkpt>
      <trkpt lat="49.85852" lon="4.84808">
        <ele>261</ele>
        <time>2021-08-27T08:15:45.000Z</time>
      </trkpt>
      <trkpt lat="49.85851" lon="4.84805">
        <ele>262</ele>
        <time>2021-08-27T08:15:46.000Z</time>
      </trkpt>
      <trkpt lat="49.8585" lon="4.84803">
        <ele>262</ele>
        <time>2021-08-27T08:15:47.000Z</time>
      </trkpt>
      <trkpt lat="49.85849" lon="4.848">
        <ele>262</ele>
        <time>2021-08-27T08:15:48.000Z</time>
      </trkpt>
      <trkpt lat="49.85848" lon="4.84797">
        <ele>262</ele>
        <time>2021-08-27T08:15:49.000Z</time>
      </trkpt>
      <trkpt lat="49.85848" lon="4.84795">
        <ele>262</ele>
        <time>2021-08-27T08:15:50.000Z</time>
      </trkpt>
      <trkpt lat="49.85847" lon="4.84792">
        <ele>262</ele>
        <time>2021-08-27T08:15:51.000Z</time>
      </trkpt>
      <trkpt lat="49.85847" lon="4.84789">
        <ele>262</ele>
        <time>2021-08-27T08:15:52.000Z</time>
      </trkpt>
      <trkpt lat="49.85847" lon="4.84787">
        <ele>262</ele>
        <time>2021-08-27T08:15:53.000Z</time>
      </trkpt>
      <trkpt lat="49.85846" lon="4.84784">
        <ele>262</ele>
        <time>2021-08-27T08:15:54.000Z</time>
      </trkpt>
      <trkpt lat="49.85846" lon="4.84781">
        <ele>263</ele>
        <time>2021-08-27T08:15:55.000Z</time>
      </trkpt>
      <trkpt lat="49.85845" lon="4.84779">
        <ele>263</ele>
        <time>2021-08-27T08:15:56.000Z</time>
      </trkpt>
      <trkpt lat="49.85845" lon="4.84776">
        <ele>263</ele>
        <time>2021-08-27T08:15:57.000Z</time>
      </trkpt>
      <trkpt lat="49.85845" lon="4.84773">
        <ele>263</ele>
        <time>2021-08-27T08:15:58.000Z</time>
      </trkpt>
      <trkpt lat="49.85844" lon="4.84771">
        <ele>263</ele>
        <time>2021-08-27T08:15:59.000Z</time>
      </trkpt>
      <trkpt lat="49.85844" lon="4.84769">
        <ele>263</ele>
        <time>2021-08-27T08:16:00.000Z</time>
      </trkpt>
      <trkpt lat="49.85843" lon="4.84766">
        <ele>263</ele>
        <time>2021-08-27T08:16:01.000Z</time>
      </trkpt>
      <trkpt lat="49.85842" lon="4.84763">
        <ele>263</ele>
        <time>2021-08-27T08:16:02.000Z</time>
      </trkpt>
      <trkpt lat="49.85842" lon="4.84761">
        <ele>263</ele>
        <time>2021-08-27T08:16:03.000Z</time>
      </trkpt>
      <trkpt lat="49.85841" lon="4.84758">
        <ele>263</ele>
        <time>2021-08-27T08:16:04.000Z</time>
      </trkpt>
      <trkpt lat="49.8584" lon="4.84756">
        <ele>263</ele>
        <time>2021-08-27T08:16:05.000Z</time>
      </trkpt>
      <trkpt lat="49.85839" lon="4.84753">
        <ele>264</ele>
        <time>2021-08-27T08:16:06.000Z</time>
      </trkpt>
      <trkpt lat="49.85839" lon="4.8475">
        <ele>264</ele>
        <time>2021-08-27T08:16:07.000Z</time>
      </trkpt>
      <trkpt lat="49.85839" lon="4.84747">
        <ele>264</ele>
        <time>2021-08-27T08:16:08.000Z</time>
      </trkpt>
      <trkpt lat="49.85838" lon="4.84744">
        <ele>264</ele>
        <time>2021-08-27T08:16:09.000Z</time>
      </trkpt>
      <trkpt lat="49.85837" lon="4.84742">
        <ele>264</ele>
        <time>2021-08-27T08:16:10.000Z</time>
      </trkpt>
      <trkpt lat="49.85836" lon="4.84742">
        <ele>264</ele>
        <time>2021-08-27T08:16:11.000Z</time>
      </trkpt>
      <trkpt lat="49.85835" lon="4.84743">
        <ele>264</ele>
        <time>2021-08-27T08:16:12.000Z</time>
      </trkpt>
      <trkpt lat="49.85834" lon="4.84746">
        <ele>265</ele>
        <time>2021-08-27T08:16:13.000Z</time>
      </trkpt>
      <trkpt lat="49.85834" lon="4.8475">
        <ele>265</ele>
        <time>2021-08-27T08:16:14.000Z</time>
      </trkpt>
      <trkpt lat="49.85834" lon="4.84754">
        <ele>265</ele>
        <time>2021-08-27T08:16:15.000Z</time>
      </trkpt>
      <trkpt lat="49.85835" lon="4.84758">
        <ele>265</ele>
        <time>2021-08-27T08:16:16.000Z</time>
      </trkpt>
      <trkpt lat="49.85835" lon="4.84763">
        <ele>265</ele>
        <time>2021-08-27T08:16:17.000Z</time>
      </trkpt>
      <trkpt lat="49.85835" lon="4.84768">
        <ele>265</ele>
        <time>2021-08-27T08:16:18.000Z</time>
      </trkpt>
      <trkpt lat="49.85836" lon="4.84773">
        <ele>266</ele>
        <time>2021-08-27T08:16:19.000Z</time>
      </trkpt>
      <trkpt lat="49.85837" lon="4.84779">
        <ele>266</ele>
        <time>2021-08-27T08:16:20.000Z</time>
      </trkpt>
      <trkpt lat="49.85838" lon="4.84784">
        <ele>266</ele>
        <time>2021-08-27T08:16:21.000Z</time>
      </trkpt>
      <trkpt lat="49.8584" lon="4.84789">
        <ele>266</ele>
        <time>2021-08-27T08:16:22.000Z</time>
      </trkpt>
      <trkpt lat="49.85842" lon="4.84795">
        <ele>266</ele>
        <time>2021-08-27T08:16:23.000Z</time>
      </trkpt>
      <trkpt lat="49.85844" lon="4.848">
        <ele>266</ele>
        <time>2021-08-27T08:16:24.000Z</time>
      </trkpt>
      <trkpt lat="49.85846" lon="4.84806">
        <ele>266</ele>
        <time>2021-08-27T08:16:25.000Z</time>
      </trkpt>
      <trkpt lat="49.85848" lon="4.84813">
        <ele>266</ele>
        <time>2021-08-27T08:16:26.000Z</time>
      </trkpt>
      <trkpt lat="49.8585" lon="4.84819">
        <ele>266</ele>
        <time>2021-08-27T08:16:27.000Z</time>
      </trkpt>
      <trkpt lat="49.85852" lon="4.84826">
        <ele>266</ele>
        <time>2021-08-27T08:16:28.000Z</time>
      </trkpt>
      <trkpt lat="49.85854" lon="4.84833">
        <ele>266</ele>
        <time>2021-08-27T08:16:29.000Z</time>
      </trkpt>
      <trkpt lat="49.85856" lon="4.84841">
        <ele>265</ele>
        <time>2021-08-27T08:16:30.000Z</time>
      </trkpt>
      <trkpt lat="49.85858" lon="4.84849">
        <ele>265</ele>
        <time>2021-08-27T08:16:31.000Z</time>
      </trkpt>
      <trkpt lat="49.8586" lon="4.84857">
        <ele>265</ele>
        <time>2021-08-27T08:16:32.000Z</time>
      </trkpt>
      <trkpt lat="49.85861" lon="4.84866">
        <ele>265</ele>
        <time>2021-08-27T08:16:33.000Z</time>
      </trkpt>
      <trkpt lat="49.85862" lon="4.84875">
        <ele>265</ele>
        <time>2021-08-27T08:16:34.000Z</time>
      </trkpt>
      <trkpt lat="49.85863" lon="4.84885">
        <ele>265</ele>
        <time>2021-08-27T08:16:35.000Z</time>
      </trkpt>
      <trkpt lat="49.85862" lon="4.84894">
        <ele>265</ele>
        <time>2021-08-27T08:16:36.000Z</time>
      </trkpt>
      <trkpt lat="49.85861" lon="4.84903">
        <ele>264</ele>
        <time>2021-08-27T08:16:37.000Z</time>
      </trkpt>
      <trkpt lat="49.8586" lon="4.84913">
        <ele>264</ele>
        <time>2021-08-27T08:16:38.000Z</time>
      </trkpt>
      <trkpt lat="49.85857" lon="4.84922">
        <ele>264</ele>
        <time>2021-08-27T08:16:39.000Z</time>
      </trkpt>
      <trkpt lat="49.85855" lon="4.8493">
        <ele>264</ele>
        <time>2021-08-27T08:16:40.000Z</time>
      </trkpt>
      <trkpt lat="49.85851" lon="4.84938">
        <ele>264</ele>
        <time>2021-08-27T08:16:41.000Z</time>
      </trkpt>
      <trkpt lat="49.85847" lon="4.84946">
        <ele>264</ele>
        <time>2021-08-27T08:16:42.000Z</time>
      </trkpt>
      <trkpt lat="49.85842" lon="4.84952">
        <ele>264</ele>
        <time>2021-08-27T08:16:43.000Z</time>
      </trkpt>
      <trkpt lat="49.85836" lon="4.84958">
        <ele>264</ele>
        <time>2021-08-27T08:16:44.000Z</time>
      </trkpt>
      <trkpt lat="49.8583" lon="4.84963">
        <ele>263</ele>
        <time>2021-08-27T08:16:45.000Z</time>
      </trkpt>
      <trkpt lat="49.85824" lon="4.84967">
        <ele>263</ele>
        <time>2021-08-27T08:16:46.000Z</time>
      </trkpt>
      <trkpt lat="49.85817" lon="4.8497">
        <ele>263</ele>
        <time>2021-08-27T08:16:47.000Z</time>
      </trkpt>
      <trkpt lat="49.8581" lon="4.84973">
        <ele>263</ele>
        <time>2021-08-27T08:16:48.000Z</time>
      </trkpt>
      <trkpt lat="49.85803" lon="4.84974">
        <ele>263</ele>
        <time>2021-08-27T08:16:49.000Z</time>
      </trkpt>
      <trkpt lat="49.85795" lon="4.84976">
        <ele>262</ele>
        <time>2021-08-27T08:16:50.000Z</time>
      </trkpt>
      <trkpt lat="49.85788" lon="4.84977">
        <ele>262</ele>
        <time>2021-08-27T08:16:51.000Z</time>
      </trkpt>
      <trkpt lat="49.8578" lon="4.84976">
        <ele>262</ele>
        <time>2021-08-27T08:16:52.000Z</time>
      </trkpt>
      <trkpt lat="49.85773" lon="4.84975">
        <ele>261</ele>
        <time>2021-08-27T08:16:53.000Z</time>
      </trkpt>
      <trkpt lat="49.85766" lon="4.84974">
        <ele>261</ele>
        <time>2021-08-27T08:16:54.000Z</time>
      </trkpt>
      <trkpt lat="49.85759" lon="4.84971">
        <ele>261</ele>
        <time>2021-08-27T08:16:55.000Z</time>
      </trkpt>
      <trkpt lat="49.85751" lon="4.84969">
        <ele>260</ele>
        <time>2021-08-27T08:16:56.000Z</time>
      </trkpt>
      <trkpt lat="49.85743" lon="4.84966">
        <ele>260</ele>
        <time>2021-08-27T08:16:57.000Z</time>
      </trkpt>
      <trkpt lat="49.85735" lon="4.84963">
        <ele>259</ele>
        <time>2021-08-27T08:16:58.000Z</time>
      </trkpt>
      <trkpt lat="49.85728" lon="4.84961">
        <ele>259</ele>
        <time>2021-08-27T08:16:59.000Z</time>
      </trkpt>
      <trkpt lat="49.8572" lon="4.84959">
        <ele>259</ele>
        <time>2021-08-27T08:17:00.000Z</time>
      </trkpt>
      <trkpt lat="49.85712" lon="4.84958">
        <ele>258</ele>
        <time>2021-08-27T08:17:01.000Z</time>
      </trkpt>
      <trkpt lat="49.85704" lon="4.84956">
        <ele>258</ele>
        <time>2021-08-27T08:17:02.000Z</time>
      </trkpt>
      <trkpt lat="49.85697" lon="4.84955">
        <ele>257</ele>
        <time>2021-08-27T08:17:03.000Z</time>
      </trkpt>
      <trkpt lat="49.85689" lon="4.84954">
        <ele>257</ele>
        <time>2021-08-27T08:17:04.000Z</time>
      </trkpt>
      <trkpt lat="49.85681" lon="4.84953">
        <ele>256</ele>
        <time>2021-08-27T08:17:05.000Z</time>
      </trkpt>
      <trkpt lat="49.85674" lon="4.84952">
        <ele>256</ele>
        <time>2021-08-27T08:17:06.000Z</time>
      </trkpt>
      <trkpt lat="49.85666" lon="4.84951">
        <ele>256</ele>
        <time>2021-08-27T08:17:07.000Z</time>
      </trkpt>
      <trkpt lat="49.85658" lon="4.8495">
        <ele>255</ele>
        <time>2021-08-27T08:17:08.000Z</time>
      </trkpt>
      <trkpt lat="49.8565" lon="4.84949">
        <ele>255</ele>
        <time>2021-08-27T08:17:09.000Z</time>
      </trkpt>
      <trkpt lat="49.85642" lon="4.84948">
        <ele>254</ele>
        <time>2021-08-27T08:17:10.000Z</time>
      </trkpt>
      <trkpt lat="49.85634" lon="4.84947">
        <ele>254</ele>
        <time>2021-08-27T08:17:11.000Z</time>
      </trkpt>
      <trkpt lat="49.85625" lon="4.84947">
        <ele>254</ele>
        <time>2021-08-27T08:17:12.000Z</time>
      </trkpt>
      <trkpt lat="49.85617" lon="4.84946">
        <ele>253</ele>
        <time>2021-08-27T08:17:13.000Z</time>
      </trkpt>
      <trkpt lat="49.85609" lon="4.84944">
        <ele>253</ele>
        <time>2021-08-27T08:17:14.000Z</time>
      </trkpt>
      <trkpt lat="49.85602" lon="4.84941">
        <ele>253</ele>
        <time>2021-08-27T08:17:15.000Z</time>
      </trkpt>
      <trkpt lat="49.85595" lon="4.84938">
        <ele>253</ele>
        <time>2021-08-27T08:17:16.000Z</time>
      </trkpt>
      <trkpt lat="49.85588" lon="4.84933">
        <ele>253</ele>
        <time>2021-08-27T08:17:17.000Z</time>
      </trkpt>
      <trkpt lat="49.85583" lon="4.84928">
        <ele>253</ele>
        <time>2021-08-27T08:17:18.000Z</time>
      </trkpt>
      <trkpt lat="49.85578" lon="4.84923">
        <ele>253</ele>
        <time>2021-08-27T08:17:19.000Z</time>
      </trkpt>
      <trkpt lat="49.85573" lon="4.84918">
        <ele>253</ele>
        <time>2021-08-27T08:17:20.000Z</time>
      </trkpt>
      <trkpt lat="49.85569" lon="4.84913">
        <ele>253</ele>
        <time>2021-08-27T08:17:21.000Z</time>
      </trkpt>
      <trkpt lat="49.85565" lon="4.84908">
        <ele>253</ele>
        <time>2021-08-27T08:17:22.000Z</time>
      </trkpt>
      <trkpt lat="49.85561" lon="4.84904">
        <ele>253</ele>
        <time>2021-08-27T08:17:23.000Z</time>
      </trkpt>
      <trkpt lat="49.85558" lon="4.84899">
        <ele>253</ele>
        <time>2021-08-27T08:17:24.000Z</time>
      </trkpt>
      <trkpt lat="49.85554" lon="4.84895">
        <ele>253</ele>
        <time>2021-08-27T08:17:25.000Z</time>
      </trkpt>
      <trkpt lat="49.85551" lon="4.84891">
        <ele>253</ele>
        <time>2021-08-27T08:17:26.000Z</time>
      </trkpt>
      <trkpt lat="49.85548" lon="4.84889">
        <ele>253</ele>
        <time>2021-08-27T08:17:27.000Z</time>
      </trkpt>
      <trkpt lat="49.85545" lon="4.84886">
        <ele>253</ele>
        <time>2021-08-27T08:17:28.000Z</time>
      </trkpt>
      <trkpt lat="49.85542" lon="4.84883">
        <ele>253</ele>
        <time>2021-08-27T08:17:29.000Z</time>
      </trkpt>
      <trkpt lat="49.85539" lon="4.8488">
        <ele>253</ele>
        <time>2021-08-27T08:17:30.000Z</time>
      </trkpt>
      <trkpt lat="49.85535" lon="4.84877">
        <ele>253</ele>
        <time>2021-08-27T08:17:31.000Z</time>
      </trkpt>
      <trkpt lat="49.85532" lon="4.84874">
        <ele>253</ele>
        <time>2021-08-27T08:17:32.000Z</time>
      </trkpt>
      <trkpt lat="49.85529" lon="4.84872">
        <ele>253</ele>
        <time>2021-08-27T08:17:33.000Z</time>
      </trkpt>
      <trkpt lat="49.85526" lon="4.84869">
        <ele>253</ele>
        <time>2021-08-27T08:17:34.000Z</time>
      </trkpt>
      <trkpt lat="49.85523" lon="4.84867">
        <ele>254</ele>
        <time>2021-08-27T08:17:35.000Z</time>
      </trkpt>
      <trkpt lat="49.8552" lon="4.84864">
        <ele>254</ele>
        <time>2021-08-27T08:17:36.000Z</time>
      </trkpt>
      <trkpt lat="49.85517" lon="4.84861">
        <ele>254</ele>
        <time>2021-08-27T08:17:37.000Z</time>
      </trkpt>
      <trkpt lat="49.85514" lon="4.84858">
        <ele>254</ele>
        <time>2021-08-27T08:17:38.000Z</time>
      </trkpt>
      <trkpt lat="49.85511" lon="4.84855">
        <ele>254</ele>
        <time>2021-08-27T08:17:39.000Z</time>
      </trkpt>
      <trkpt lat="49.85507" lon="4.84852">
        <ele>254</ele>
        <time>2021-08-27T08:17:40.000Z</time>
      </trkpt>
      <trkpt lat="49.85504" lon="4.8485">
        <ele>254</ele>
        <time>2021-08-27T08:17:41.000Z</time>
      </trkpt>
      <trkpt lat="49.85501" lon="4.84848">
        <ele>254</ele>
        <time>2021-08-27T08:17:42.000Z</time>
      </trkpt>
      <trkpt lat="49.85498" lon="4.84846">
        <ele>255</ele>
        <time>2021-08-27T08:17:43.000Z</time>
      </trkpt>
      <trkpt lat="49.85495" lon="4.84845">
        <ele>255</ele>
        <time>2021-08-27T08:17:44.000Z</time>
      </trkpt>
      <trkpt lat="49.85492" lon="4.84843">
        <ele>255</ele>
        <time>2021-08-27T08:17:45.000Z</time>
      </trkpt>
      <trkpt lat="49.8549" lon="4.8484">
        <ele>255</ele>
        <time>2021-08-27T08:17:46.000Z</time>
      </trkpt>
      <trkpt lat="49.85487" lon="4.84838">
        <ele>255</ele>
        <time>2021-08-27T08:17:47.000Z</time>
      </trkpt>
      <trkpt lat="49.85484" lon="4.84835">
        <ele>255</ele>
        <time>2021-08-27T08:17:48.000Z</time>
      </trkpt>
      <trkpt lat="49.85481" lon="4.84833">
        <ele>256</ele>
        <time>2021-08-27T08:17:49.000Z</time>
      </trkpt>
      <trkpt lat="49.85478" lon="4.84832">
        <ele>256</ele>
        <time>2021-08-27T08:17:50.000Z</time>
      </trkpt>
      <trkpt lat="49.85475" lon="4.8483">
        <ele>256</ele>
        <time>2021-08-27T08:17:51.000Z</time>
      </trkpt>
      <trkpt lat="49.85472" lon="4.84828">
        <ele>256</ele>
        <time>2021-08-27T08:17:52.000Z</time>
      </trkpt>
      <trkpt lat="49.8547" lon="4.84826">
        <ele>256</ele>
        <time>2021-08-27T08:17:53.000Z</time>
      </trkpt>
      <trkpt lat="49.85467" lon="4.84824">
        <ele>257</ele>
        <time>2021-08-27T08:17:54.000Z</time>
      </trkpt>
      <trkpt lat="49.85464" lon="4.84822">
        <ele>257</ele>
        <time>2021-08-27T08:17:55.000Z</time>
      </trkpt>
      <trkpt lat="49.85461" lon="4.8482">
        <ele>257</ele>
        <time>2021-08-27T08:17:56.000Z</time>
      </trkpt>
      <trkpt lat="49.85458" lon="4.84818">
        <ele>257</ele>
        <time>2021-08-27T08:17:57.000Z</time>
      </trkpt>
      <trkpt lat="49.85455" lon="4.84817">
        <ele>257</ele>
        <time>2021-08-27T08:17:58.000Z</time>
      </trkpt>
      <trkpt lat="49.85452" lon="4.84816">
        <ele>257</ele>
        <time>2021-08-27T08:17:59.000Z</time>
      </trkpt>
      <trkpt lat="49.85449" lon="4.84815">
        <ele>257</ele>
        <time>2021-08-27T08:18:00.000Z</time>
      </trkpt>
      <trkpt lat="49.85446" lon="4.84815">
        <ele>258</ele>
        <time>2021-08-27T08:18:01.000Z</time>
      </trkpt>
      <trkpt lat="49.85443" lon="4.84815">
        <ele>258</ele>
        <time>2021-08-27T08:18:02.000Z</time>
      </trkpt>
      <trkpt lat="49.8544" lon="4.84815">
        <ele>258</ele>
        <time>2021-08-27T08:18:03.000Z</time>
      </trkpt>
      <trkpt lat="49.85438" lon="4.84816">
        <ele>258</ele>
        <time>2021-08-27T08:18:04.000Z</time>
      </trkpt>
      <trkpt lat="49.85435" lon="4.84817">
        <ele>258</ele>
        <time>2021-08-27T08:18:05.000Z</time>
      </trkpt>
      <trkpt lat="49.85433" lon="4.8482">
        <ele>258</ele>
        <time>2021-08-27T08:18:06.000Z</time>
      </trkpt>
      <trkpt lat="49.85431" lon="4.84823">
        <ele>258</ele>
        <time>2021-08-27T08:18:07.000Z</time>
      </trkpt>
      <trkpt lat="49.8543" lon="4.84826">
        <ele>258</ele>
        <time>2021-08-27T08:18:08.000Z</time>
      </trkpt>
      <trkpt lat="49.85428" lon="4.8483">
        <ele>259</ele>
        <time>2021-08-27T08:18:09.000Z</time>
      </trkpt>
      <trkpt lat="49.85426" lon="4.84833">
        <ele>259</ele>
        <time>2021-08-27T08:18:10.000Z</time>
      </trkpt>
      <trkpt lat="49.85425" lon="4.84837">
        <ele>259</ele>
        <time>2021-08-27T08:18:11.000Z</time>
      </trkpt>
      <trkpt lat="49.85424" lon="4.84841">
        <ele>259</ele>
        <time>2021-08-27T08:18:12.000Z</time>
      </trkpt>
      <trkpt lat="49.85423" lon="4.84846">
        <ele>260</ele>
        <time>2021-08-27T08:18:13.000Z</time>
      </trkpt>
      <trkpt lat="49.85423" lon="4.84851">
        <ele>260</ele>
        <time>2021-08-27T08:18:14.000Z</time>
      </trkpt>
      <trkpt lat="49.85422" lon="4.84856">
        <ele>260</ele>
        <time>2021-08-27T08:18:15.000Z</time>
      </trkpt>
      <trkpt lat="49.85422" lon="4.84862">
        <ele>260</ele>
        <time>2021-08-27T08:18:16.000Z</time>
      </trkpt>
      <trkpt lat="49.85421" lon="4.84867">
        <ele>261</ele>
        <time>2021-08-27T08:18:17.000Z</time>
      </trkpt>
      <trkpt lat="49.8542" lon="4.84873">
        <ele>261</ele>
        <time>2021-08-27T08:18:18.000Z</time>
      </trkpt>
      <trkpt lat="49.85419" lon="4.84879">
        <ele>261</ele>
        <time>2021-08-27T08:18:19.000Z</time>
      </trkpt>
      <trkpt lat="49.85419" lon="4.84884">
        <ele>262</ele>
        <time>2021-08-27T08:18:20.000Z</time>
      </trkpt>
      <trkpt lat="49.85419" lon="4.84891">
        <ele>262</ele>
        <time>2021-08-27T08:18:21.000Z</time>
      </trkpt>
      <trkpt lat="49.85418" lon="4.84897">
        <ele>262</ele>
        <time>2021-08-27T08:18:22.000Z</time>
      </trkpt>
      <trkpt lat="49.85418" lon="4.84903">
        <ele>263</ele>
        <time>2021-08-27T08:18:23.000Z</time>
      </trkpt>
      <trkpt lat="49.85417" lon="4.84909">
        <ele>263</ele>
        <time>2021-08-27T08:18:24.000Z</time>
      </trkpt>
      <trkpt lat="49.85418" lon="4.84915">
        <ele>263</ele>
        <time>2021-08-27T08:18:25.000Z</time>
      </trkpt>
      <trkpt lat="49.85418" lon="4.84922">
        <ele>264</ele>
        <time>2021-08-27T08:18:26.000Z</time>
      </trkpt>
      <trkpt lat="49.85418" lon="4.84927">
        <ele>264</ele>
        <time>2021-08-27T08:18:27.000Z</time>
      </trkpt>
      <trkpt lat="49.85418" lon="4.84933">
        <ele>264</ele>
        <time>2021-08-27T08:18:28.000Z</time>
      </trkpt>
      <trkpt lat="49.85418" lon="4.84939">
        <ele>265</ele>
        <time>2021-08-27T08:18:29.000Z</time>
      </trkpt>
      <trkpt lat="49.85418" lon="4.84945">
        <ele>265</ele>
        <time>2021-08-27T08:18:30.000Z</time>
      </trkpt>
      <trkpt lat="49.85418" lon="4.84951">
        <ele>265</ele>
        <time>2021-08-27T08:18:31.000Z</time>
      </trkpt>
      <trkpt lat="49.85417" lon="4.84957">
        <ele>265</ele>
        <time>2021-08-27T08:18:32.000Z</time>
      </trkpt>
      <trkpt lat="49.85416" lon="4.84962">
        <ele>265</ele>
        <time>2021-08-27T08:18:33.000Z</time>
      </trkpt>
      <trkpt lat="49.85415" lon="4.84968">
        <ele>266</ele>
        <time>2021-08-27T08:18:34.000Z</time>
      </trkpt>
      <trkpt lat="49.85414" lon="4.84974">
        <ele>266</ele>
        <time>2021-08-27T08:18:35.000Z</time>
      </trkpt>
      <trkpt lat="49.85412" lon="4.84979">
        <ele>266</ele>
        <time>2021-08-27T08:18:36.000Z</time>
      </trkpt>
      <trkpt lat="49.8541" lon="4.84983">
        <ele>266</ele>
        <time>2021-08-27T08:18:37.000Z</time>
      </trkpt>
      <trkpt lat="49.85407" lon="4.84987">
        <ele>267</ele>
        <time>2021-08-27T08:18:38.000Z</time>
      </trkpt>
      <trkpt lat="49.85404" lon="4.84991">
        <ele>267</ele>
        <time>2021-08-27T08:18:39.000Z</time>
      </trkpt>
      <trkpt lat="49.85401" lon="4.84993">
        <ele>267</ele>
        <time>2021-08-27T08:18:40.000Z</time>
      </trkpt>
      <trkpt lat="49.85397" lon="4.84995">
        <ele>267</ele>
        <time>2021-08-27T08:18:41.000Z</time>
      </trkpt>
      <trkpt lat="49.85394" lon="4.84996">
        <ele>267</ele>
        <time>2021-08-27T08:18:42.000Z</time>
      </trkpt>
      <trkpt lat="49.8539" lon="4.84997">
        <ele>267</ele>
        <time>2021-08-27T08:18:43.000Z</time>
      </trkpt>
      <trkpt lat="49.85387" lon="4.84997">
        <ele>267</ele>
        <time>2021-08-27T08:18:44.000Z</time>
      </trkpt>
      <trkpt lat="49.85383" lon="4.84997">
        <ele>267</ele>
        <time>2021-08-27T08:18:45.000Z</time>
      </trkpt>
      <trkpt lat="49.85379" lon="4.84998">
        <ele>267</ele>
        <time>2021-08-27T08:18:46.000Z</time>
      </trkpt>
      <trkpt lat="49.85375" lon="4.84999">
        <ele>266</ele>
        <time>2021-08-27T08:18:47.000Z</time>
      </trkpt>
      <trkpt lat="49.85371" lon="4.84999">
        <ele>266</ele>
        <time>2021-08-27T08:18:48.000Z</time>
      </trkpt>
      <trkpt lat="49.85366" lon="4.84999">
        <ele>266</ele>
        <time>2021-08-27T08:18:49.000Z</time>
      </trkpt>
      <trkpt lat="49.85362" lon="4.84999">
        <ele>266</ele>
        <time>2021-08-27T08:18:50.000Z</time>
      </trkpt>
      <trkpt lat="49.85357" lon="4.84999">
        <ele>265</ele>
        <time>2021-08-27T08:18:51.000Z</time>
      </trkpt>
      <trkpt lat="49.85353" lon="4.84998">
        <ele>265</ele>
        <time>2021-08-27T08:18:52.000Z</time>
      </trkpt>
      <trkpt lat="49.8535" lon="4.84997">
        <ele>265</ele>
        <time>2021-08-27T08:18:53.000Z</time>
      </trkpt>
      <trkpt lat="49.85347" lon="4.84996">
        <ele>265</ele>
        <time>2021-08-27T08:18:54.000Z</time>
      </trkpt>
      <trkpt lat="49.85344" lon="4.84995">
        <ele>265</ele>
        <time>2021-08-27T08:18:55.000Z</time>
      </trkpt>
      <trkpt lat="49.8534" lon="4.84994">
        <ele>265</ele>
        <time>2021-08-27T08:18:56.000Z</time>
      </trkpt>
      <trkpt lat="49.85337" lon="4.84993">
        <ele>265</ele>
        <time>2021-08-27T08:18:57.000Z</time>
      </trkpt>
      <trkpt lat="49.85333" lon="4.84993">
        <ele>265</ele>
        <time>2021-08-27T08:18:58.000Z</time>
      </trkpt>
      <trkpt lat="49.85329" lon="4.84992">
        <ele>265</ele>
        <time>2021-08-27T08:18:59.000Z</time>
      </trkpt>
      <trkpt lat="49.85324" lon="4.84991">
        <ele>265</ele>
        <time>2021-08-27T08:19:00.000Z</time>
      </trkpt>
      <trkpt lat="49.8532" lon="4.8499">
        <ele>265</ele>
        <time>2021-08-27T08:19:01.000Z</time>
      </trkpt>
      <trkpt lat="49.85316" lon="4.84989">
        <ele>264</ele>
        <time>2021-08-27T08:19:02.000Z</time>
      </trkpt>
      <trkpt lat="49.85312" lon="4.84989">
        <ele>264</ele>
        <time>2021-08-27T08:19:03.000Z</time>
      </trkpt>
      <trkpt lat="49.85307" lon="4.84988">
        <ele>264</ele>
        <time>2021-08-27T08:19:04.000Z</time>
      </trkpt>
      <trkpt lat="49.85303" lon="4.84988">
        <ele>264</ele>
        <time>2021-08-27T08:19:05.000Z</time>
      </trkpt>
      <trkpt lat="49.85299" lon="4.84988">
        <ele>264</ele>
        <time>2021-08-27T08:19:06.000Z</time>
      </trkpt>
      <trkpt lat="49.85294" lon="4.84988">
        <ele>264</ele>
        <time>2021-08-27T08:19:07.000Z</time>
      </trkpt>
      <trkpt lat="49.8529" lon="4.84989">
        <ele>264</ele>
        <time>2021-08-27T08:19:08.000Z</time>
      </trkpt>
      <trkpt lat="49.85285" lon="4.84989">
        <ele>264</ele>
        <time>2021-08-27T08:19:09.000Z</time>
      </trkpt>
      <trkpt lat="49.85281" lon="4.84989">
        <ele>264</ele>
        <time>2021-08-27T08:19:10.000Z</time>
      </trkpt>
      <trkpt lat="49.85276" lon="4.84989">
        <ele>264</ele>
        <time>2021-08-27T08:19:11.000Z</time>
      </trkpt>
      <trkpt lat="49.85271" lon="4.8499">
        <ele>264</ele>
        <time>2021-08-27T08:19:12.000Z</time>
      </trkpt>
      <trkpt lat="49.85267" lon="4.84991">
        <ele>264</ele>
        <time>2021-08-27T08:19:13.000Z</time>
      </trkpt>
      <trkpt lat="49.85262" lon="4.84992">
        <ele>264</ele>
        <time>2021-08-27T08:19:14.000Z</time>
      </trkpt>
      <trkpt lat="49.85258" lon="4.84993">
        <ele>264</ele>
        <time>2021-08-27T08:19:15.000Z</time>
      </trkpt>
      <trkpt lat="49.85253" lon="4.84994">
        <ele>264</ele>
        <time>2021-08-27T08:19:16.000Z</time>
      </trkpt>
      <trkpt lat="49.85248" lon="4.84995">
        <ele>265</ele>
        <time>2021-08-27T08:19:17.000Z</time>
      </trkpt>
      <trkpt lat="49.85244" lon="4.84996">
        <ele>265</ele>
        <time>2021-08-27T08:19:18.000Z</time>
      </trkpt>
      <trkpt lat="49.8524" lon="4.84998">
        <ele>265</ele>
        <time>2021-08-27T08:19:19.000Z</time>
      </trkpt>
      <trkpt lat="49.85235" lon="4.84999">
        <ele>265</ele>
        <time>2021-08-27T08:19:20.000Z</time>
      </trkpt>
      <trkpt lat="49.85231" lon="4.85001">
        <ele>265</ele>
        <time>2021-08-27T08:19:21.000Z</time>
      </trkpt>
      <trkpt lat="49.85227" lon="4.85003">
        <ele>265</ele>
        <time>2021-08-27T08:19:22.000Z</time>
      </trkpt>
      <trkpt lat="49.85223" lon="4.85006">
        <ele>265</ele>
        <time>2021-08-27T08:19:23.000Z</time>
      </trkpt>
      <trkpt lat="49.8522" lon="4.85009">
        <ele>265</ele>
        <time>2021-08-27T08:19:24.000Z</time>
      </trkpt>
      <trkpt lat="49.85217" lon="4.85012">
        <ele>265</ele>
        <time>2021-08-27T08:19:25.000Z</time>
      </trkpt>
      <trkpt lat="49.85214" lon="4.85016">
        <ele>266</ele>
        <time>2021-08-27T08:19:26.000Z</time>
      </trkpt>
      <trkpt lat="49.85211" lon="4.8502">
        <ele>266</ele>
        <time>2021-08-27T08:19:27.000Z</time>
      </trkpt>
      <trkpt lat="49.85208" lon="4.85024">
        <ele>266</ele>
        <time>2021-08-27T08:19:28.000Z</time>
      </trkpt>
      <trkpt lat="49.85205" lon="4.85027">
        <ele>266</ele>
        <time>2021-08-27T08:19:29.000Z</time>
      </trkpt>
      <trkpt lat="49.85203" lon="4.85031">
        <ele>267</ele>
        <time>2021-08-27T08:19:30.000Z</time>
      </trkpt>
      <trkpt lat="49.852" lon="4.85035">
        <ele>267</ele>
        <time>2021-08-27T08:19:31.000Z</time>
      </trkpt>
      <trkpt lat="49.85197" lon="4.85038">
        <ele>267</ele>
        <time>2021-08-27T08:19:32.000Z</time>
      </trkpt>
      <trkpt lat="49.85193" lon="4.85042">
        <ele>267</ele>
        <time>2021-08-27T08:19:33.000Z</time>
      </trkpt>
      <trkpt lat="49.8519" lon="4.85046">
        <ele>268</ele>
        <time>2021-08-27T08:19:34.000Z</time>
      </trkpt>
      <trkpt lat="49.85186" lon="4.85049">
        <ele>268</ele>
        <time>2021-08-27T08:19:35.000Z</time>
      </trkpt>
      <trkpt lat="49.85182" lon="4.85053">
        <ele>268</ele>
        <time>2021-08-27T08:19:36.000Z</time>
      </trkpt>
      <trkpt lat="49.85179" lon="4.85056">
        <ele>268</ele>
        <time>2021-08-27T08:19:37.000Z</time>
      </trkpt>
      <trkpt lat="49.85176" lon="4.85059">
        <ele>269</ele>
        <time>2021-08-27T08:19:38.000Z</time>
      </trkpt>
      <trkpt lat="49.85173" lon="4.85061">
        <ele>269</ele>
        <time>2021-08-27T08:19:39.000Z</time>
      </trkpt>
      <trkpt lat="49.85169" lon="4.85065">
        <ele>269</ele>
        <time>2021-08-27T08:19:40.000Z</time>
      </trkpt>
      <trkpt lat="49.85166" lon="4.85068">
        <ele>270</ele>
        <time>2021-08-27T08:19:41.000Z</time>
      </trkpt>
      <trkpt lat="49.85162" lon="4.85071">
        <ele>270</ele>
        <time>2021-08-27T08:19:42.000Z</time>
      </trkpt>
      <trkpt lat="49.85158" lon="4.85074">
        <ele>270</ele>
        <time>2021-08-27T08:19:43.000Z</time>
      </trkpt>
      <trkpt lat="49.85155" lon="4.85077">
        <ele>271</ele>
        <time>2021-08-27T08:19:44.000Z</time>
      </trkpt>
      <trkpt lat="49.85152" lon="4.8508">
        <ele>271</ele>
        <time>2021-08-27T08:19:45.000Z</time>
      </trkpt>
      <trkpt lat="49.85148" lon="4.85083">
        <ele>272</ele>
        <time>2021-08-27T08:19:46.000Z</time>
      </trkpt>
      <trkpt lat="49.85145" lon="4.85086">
        <ele>272</ele>
        <time>2021-08-27T08:19:47.000Z</time>
      </trkpt>
      <trkpt lat="49.85141" lon="4.8509">
        <ele>272</ele>
        <time>2021-08-27T08:19:48.000Z</time>
      </trkpt>
      <trkpt lat="49.85137" lon="4.85094">
        <ele>273</ele>
        <time>2021-08-27T08:19:49.000Z</time>
      </trkpt>
      <trkpt lat="49.85133" lon="4.85097">
        <ele>273</ele>
        <time>2021-08-27T08:19:50.000Z</time>
      </trkpt>
      <trkpt lat="49.85129" lon="4.851">
        <ele>273</ele>
        <time>2021-08-27T08:19:51.000Z</time>
      </trkpt>
      <trkpt lat="49.85125" lon="4.85104">
        <ele>273</ele>
        <time>2021-08-27T08:19:52.000Z</time>
      </trkpt>
      <trkpt lat="49.85122" lon="4.85108">
        <ele>273</ele>
        <time>2021-08-27T08:19:53.000Z</time>
      </trkpt>
      <trkpt lat="49.85118" lon="4.85112">
        <ele>274</ele>
        <time>2021-08-27T08:19:54.000Z</time>
      </trkpt>
      <trkpt lat="49.85114" lon="4.85115">
        <ele>274</ele>
        <time>2021-08-27T08:19:55.000Z</time>
      </trkpt>
      <trkpt lat="49.8511" lon="4.85119">
        <ele>274</ele>
        <time>2021-08-27T08:19:56.000Z</time>
      </trkpt>
      <trkpt lat="49.85107" lon="4.85122">
        <ele>274</ele>
        <time>2021-08-27T08:19:57.000Z</time>
      </trkpt>
      <trkpt lat="49.85103" lon="4.85126">
        <ele>275</ele>
        <time>2021-08-27T08:19:58.000Z</time>
      </trkpt>
      <trkpt lat="49.85099" lon="4.85129">
        <ele>275</ele>
        <time>2021-08-27T08:19:59.000Z</time>
      </trkpt>
      <trkpt lat="49.85095" lon="4.85132">
        <ele>275</ele>
        <time>2021-08-27T08:20:00.000Z</time>
      </trkpt>
      <trkpt lat="49.85091" lon="4.85135">
        <ele>275</ele>
        <time>2021-08-27T08:20:01.000Z</time>
      </trkpt>
      <trkpt lat="49.85087" lon="4.85138">
        <ele>275</ele>
        <time>2021-08-27T08:20:02.000Z</time>
      </trkpt>
      <trkpt lat="49.85083" lon="4.85141">
        <ele>276</ele>
        <time>2021-08-27T08:20:03.000Z</time>
      </trkpt>
      <trkpt lat="49.85079" lon="4.85143">
        <ele>276</ele>
        <time>2021-08-27T08:20:04.000Z</time>
      </trkpt>
      <trkpt lat="49.85075" lon="4.85145">
        <ele>276</ele>
        <time>2021-08-27T08:20:05.000Z</time>
      </trkpt>
      <trkpt lat="49.85072" lon="4.85147">
        <ele>276</ele>
        <time>2021-08-27T08:20:06.000Z</time>
      </trkpt>
      <trkpt lat="49.85068" lon="4.8515">
        <ele>277</ele>
        <time>2021-08-27T08:20:07.000Z</time>
      </trkpt>
      <trkpt lat="49.85064" lon="4.85151">
        <ele>277</ele>
        <time>2021-08-27T08:20:08.000Z</time>
      </trkpt>
      <trkpt lat="49.8506" lon="4.85153">
        <ele>277</ele>
        <time>2021-08-27T08:20:09.000Z</time>
      </trkpt>
      <trkpt lat="49.85056" lon="4.85154">
        <ele>277</ele>
        <time>2021-08-27T08:20:10.000Z</time>
      </trkpt>
      <trkpt lat="49.85052" lon="4.85156">
        <ele>277</ele>
        <time>2021-08-27T08:20:11.000Z</time>
      </trkpt>
      <trkpt lat="49.85048" lon="4.85157">
        <ele>277</ele>
        <time>2021-08-27T08:20:12.000Z</time>
      </trkpt>
      <trkpt lat="49.85044" lon="4.85159">
        <ele>277</ele>
        <time>2021-08-27T08:20:13.000Z</time>
      </trkpt>
      <trkpt lat="49.8504" lon="4.85161">
        <ele>277</ele>
        <time>2021-08-27T08:20:14.000Z</time>
      </trkpt>
      <trkpt lat="49.85035" lon="4.85163">
        <ele>277</ele>
        <time>2021-08-27T08:20:15.000Z</time>
      </trkpt>
      <trkpt lat="49.85032" lon="4.85164">
        <ele>277</ele>
        <time>2021-08-27T08:20:16.000Z</time>
      </trkpt>
      <trkpt lat="49.85027" lon="4.85165">
        <ele>277</ele>
        <time>2021-08-27T08:20:17.000Z</time>
      </trkpt>
      <trkpt lat="49.85023" lon="4.85167">
        <ele>277</ele>
        <time>2021-08-27T08:20:18.000Z</time>
      </trkpt>
      <trkpt lat="49.85018" lon="4.85169">
        <ele>277</ele>
        <time>2021-08-27T08:20:19.000Z</time>
      </trkpt>
      <trkpt lat="49.85013" lon="4.85172">
        <ele>278</ele>
        <time>2021-08-27T08:20:20.000Z</time>
      </trkpt>
      <trkpt lat="49.85008" lon="4.85174">
        <ele>278</ele>
        <time>2021-08-27T08:20:21.000Z</time>
      </trkpt>
      <trkpt lat="49.85004" lon="4.85177">
        <ele>277</ele>
        <time>2021-08-27T08:20:22.000Z</time>
      </trkpt>
      <trkpt lat="49.85" lon="4.85181">
        <ele>277</ele>
        <time>2021-08-27T08:20:23.000Z</time>
      </trkpt>
      <trkpt lat="49.84996" lon="4.85186">
        <ele>277</ele>
        <time>2021-08-27T08:20:24.000Z</time>
      </trkpt>
      <trkpt lat="49.84992" lon="4.8519">
        <ele>277</ele>
        <time>2021-08-27T08:20:25.000Z</time>
      </trkpt>
      <trkpt lat="49.84989" lon="4.85195">
        <ele>277</ele>
        <time>2021-08-27T08:20:26.000Z</time>
      </trkpt>
      <trkpt lat="49.84985" lon="4.85199">
        <ele>277</ele>
        <time>2021-08-27T08:20:27.000Z</time>
      </trkpt>
      <trkpt lat="49.84982" lon="4.85204">
        <ele>277</ele>
        <time>2021-08-27T08:20:28.000Z</time>
      </trkpt>
      <trkpt lat="49.84979" lon="4.85209">
        <ele>277</ele>
        <time>2021-08-27T08:20:29.000Z</time>
      </trkpt>
      <trkpt lat="49.84975" lon="4.85214">
        <ele>277</ele>
        <time>2021-08-27T08:20:30.000Z</time>
      </trkpt>
      <trkpt lat="49.84972" lon="4.85219">
        <ele>277</ele>
        <time>2021-08-27T08:20:31.000Z</time>
      </trkpt>
      <trkpt lat="49.84969" lon="4.85225">
        <ele>277</ele>
        <time>2021-08-27T08:20:32.000Z</time>
      </trkpt>
      <trkpt lat="49.84966" lon="4.8523">
        <ele>277</ele>
        <time>2021-08-27T08:20:33.000Z</time>
      </trkpt>
      <trkpt lat="49.84963" lon="4.85236">
        <ele>277</ele>
        <time>2021-08-27T08:20:34.000Z</time>
      </trkpt>
      <trkpt lat="49.8496" lon="4.85241">
        <ele>277</ele>
        <time>2021-08-27T08:20:35.000Z</time>
      </trkpt>
      <trkpt lat="49.84956" lon="4.85246">
        <ele>277</ele>
        <time>2021-08-27T08:20:36.000Z</time>
      </trkpt>
      <trkpt lat="49.84952" lon="4.85251">
        <ele>277</ele>
        <time>2021-08-27T08:20:37.000Z</time>
      </trkpt>
      <trkpt lat="49.84948" lon="4.85255">
        <ele>278</ele>
        <time>2021-08-27T08:20:38.000Z</time>
      </trkpt>
      <trkpt lat="49.84945" lon="4.85258">
        <ele>278</ele>
        <time>2021-08-27T08:20:39.000Z</time>
      </trkpt>
      <trkpt lat="49.84941" lon="4.85262">
        <ele>278</ele>
        <time>2021-08-27T08:20:40.000Z</time>
      </trkpt>
      <trkpt lat="49.84936" lon="4.85265">
        <ele>278</ele>
        <time>2021-08-27T08:20:41.000Z</time>
      </trkpt>
      <trkpt lat="49.84931" lon="4.85267">
        <ele>278</ele>
        <time>2021-08-27T08:20:42.000Z</time>
      </trkpt>
      <trkpt lat="49.84926" lon="4.85269">
        <ele>278</ele>
        <time>2021-08-27T08:20:43.000Z</time>
      </trkpt>
      <trkpt lat="49.8492" lon="4.8527">
        <ele>277</ele>
        <time>2021-08-27T08:20:44.000Z</time>
      </trkpt>
      <trkpt lat="49.84915" lon="4.85269">
        <ele>277</ele>
        <time>2021-08-27T08:20:45.000Z</time>
      </trkpt>
      <trkpt lat="49.8491" lon="4.85267">
        <ele>277</ele>
        <time>2021-08-27T08:20:46.000Z</time>
      </trkpt>
      <trkpt lat="49.84905" lon="4.85264">
        <ele>277</ele>
        <time>2021-08-27T08:20:47.000Z</time>
      </trkpt>
      <trkpt lat="49.84901" lon="4.8526">
        <ele>277</ele>
        <time>2021-08-27T08:20:48.000Z</time>
      </trkpt>
      <trkpt lat="49.84897" lon="4.85256">
        <ele>276</ele>
        <time>2021-08-27T08:20:49.000Z</time>
      </trkpt>
      <trkpt lat="49.84894" lon="4.8525">
        <ele>276</ele>
        <time>2021-08-27T08:20:50.000Z</time>
      </trkpt>
      <trkpt lat="49.84891" lon="4.85245">
        <ele>276</ele>
        <time>2021-08-27T08:20:51.000Z</time>
      </trkpt>
      <trkpt lat="49.84888" lon="4.85239">
        <ele>276</ele>
        <time>2021-08-27T08:20:52.000Z</time>
      </trkpt>
      <trkpt lat="49.84886" lon="4.85233">
        <ele>276</ele>
        <time>2021-08-27T08:20:53.000Z</time>
      </trkpt>
      <trkpt lat="49.84884" lon="4.85227">
        <ele>275</ele>
        <time>2021-08-27T08:20:54.000Z</time>
      </trkpt>
      <trkpt lat="49.84882" lon="4.8522">
        <ele>275</ele>
        <time>2021-08-27T08:20:55.000Z</time>
      </trkpt>
      <trkpt lat="49.84879" lon="4.85214">
        <ele>275</ele>
        <time>2021-08-27T08:20:56.000Z</time>
      </trkpt>
      <trkpt lat="49.84877" lon="4.85207">
        <ele>275</ele>
        <time>2021-08-27T08:20:57.000Z</time>
      </trkpt>
      <trkpt lat="49.84875" lon="4.852">
        <ele>274</ele>
        <time>2021-08-27T08:20:58.000Z</time>
      </trkpt>
      <trkpt lat="49.84872" lon="4.85193">
        <ele>274</ele>
        <time>2021-08-27T08:20:59.000Z</time>
      </trkpt>
      <trkpt lat="49.8487" lon="4.85186">
        <ele>274</ele>
        <time>2021-08-27T08:21:00.000Z</time>
      </trkpt>
      <trkpt lat="49.84868" lon="4.85179">
        <ele>274</ele>
        <time>2021-08-27T08:21:01.000Z</time>
      </trkpt>
      <trkpt lat="49.84865" lon="4.85172">
        <ele>274</ele>
        <time>2021-08-27T08:21:02.000Z</time>
      </trkpt>
      <trkpt lat="49.84863" lon="4.85165">
        <ele>274</ele>
        <time>2021-08-27T08:21:03.000Z</time>
      </trkpt>
      <trkpt lat="49.8486" lon="4.85159">
        <ele>273</ele>
        <time>2021-08-27T08:21:04.000Z</time>
      </trkpt>
      <trkpt lat="49.84857" lon="4.85154">
        <ele>273</ele>
        <time>2021-08-27T08:21:05.000Z</time>
      </trkpt>
      <trkpt lat="49.84853" lon="4.85149">
        <ele>273</ele>
        <time>2021-08-27T08:21:06.000Z</time>
      </trkpt>
      <trkpt lat="49.84849" lon="4.85143">
        <ele>273</ele>
        <time>2021-08-27T08:21:07.000Z</time>
      </trkpt>
      <trkpt lat="49.84845" lon="4.85138">
        <ele>273</ele>
        <time>2021-08-27T08:21:08.000Z</time>
      </trkpt>
      <trkpt lat="49.84841" lon="4.85133">
        <ele>272</ele>
        <time>2021-08-27T08:21:09.000Z</time>
      </trkpt>
      <trkpt lat="49.84836" lon="4.85129">
        <ele>272</ele>
        <time>2021-08-27T08:21:10.000Z</time>
      </trkpt>
      <trkpt lat="49.84831" lon="4.85125">
        <ele>272</ele>
        <time>2021-08-27T08:21:11.000Z</time>
      </trkpt>
      <trkpt lat="49.84826" lon="4.8512">
        <ele>272</ele>
        <time>2021-08-27T08:21:12.000Z</time>
      </trkpt>
      <trkpt lat="49.84822" lon="4.85116">
        <ele>271</ele>
        <time>2021-08-27T08:21:13.000Z</time>
      </trkpt>
      <trkpt lat="49.84817" lon="4.85112">
        <ele>271</ele>
        <time>2021-08-27T08:21:14.000Z</time>
      </trkpt>
      <trkpt lat="49.84812" lon="4.85108">
        <ele>271</ele>
        <time>2021-08-27T08:21:15.000Z</time>
      </trkpt>
      <trkpt lat="49.84808" lon="4.85104">
        <ele>271</ele>
        <time>2021-08-27T08:21:16.000Z</time>
      </trkpt>
      <trkpt lat="49.84803" lon="4.851">
        <ele>271</ele>
        <time>2021-08-27T08:21:17.000Z</time>
      </trkpt>
      <trkpt lat="49.84799" lon="4.85096">
        <ele>270</ele>
        <time>2021-08-27T08:21:18.000Z</time>
      </trkpt>
      <trkpt lat="49.84794" lon="4.85093">
        <ele>270</ele>
        <time>2021-08-27T08:21:19.000Z</time>
      </trkpt>
      <trkpt lat="49.8479" lon="4.85091">
        <ele>270</ele>
        <time>2021-08-27T08:21:20.000Z</time>
      </trkpt>
      <trkpt lat="49.84785" lon="4.8509">
        <ele>270</ele>
        <time>2021-08-27T08:21:21.000Z</time>
      </trkpt>
      <trkpt lat="49.8478" lon="4.85093">
        <ele>270</ele>
        <time>2021-08-27T08:21:22.000Z</time>
      </trkpt>
      <trkpt lat="49.84775" lon="4.85097">
        <ele>270</ele>
        <time>2021-08-27T08:21:23.000Z</time>
      </trkpt>
      <trkpt lat="49.84772" lon="4.85103">
        <ele>270</ele>
        <time>2021-08-27T08:21:24.000Z</time>
      </trkpt>
      <trkpt lat="49.84769" lon="4.85111">
        <ele>270</ele>
        <time>2021-08-27T08:21:25.000Z</time>
      </trkpt>
      <trkpt lat="49.84768" lon="4.8512">
        <ele>270</ele>
        <time>2021-08-27T08:21:26.000Z</time>
      </trkpt>
      <trkpt lat="49.84767" lon="4.8513">
        <ele>270</ele>
        <time>2021-08-27T08:21:27.000Z</time>
      </trkpt>
      <trkpt lat="49.84767" lon="4.8514">
        <ele>270</ele>
        <time>2021-08-27T08:21:28.000Z</time>
      </trkpt>
      <trkpt lat="49.84768" lon="4.85152">
        <ele>270</ele>
        <time>2021-08-27T08:21:29.000Z</time>
      </trkpt>
      <trkpt lat="49.84769" lon="4.85163">
        <ele>270</ele>
        <time>2021-08-27T08:21:30.000Z</time>
      </trkpt>
      <trkpt lat="49.84771" lon="4.85175">
        <ele>269</ele>
        <time>2021-08-27T08:21:31.000Z</time>
      </trkpt>
      <trkpt lat="49.84773" lon="4.85188">
        <ele>269</ele>
        <time>2021-08-27T08:21:32.000Z</time>
      </trkpt>
      <trkpt lat="49.84776" lon="4.852">
        <ele>269</ele>
        <time>2021-08-27T08:21:33.000Z</time>
      </trkpt>
      <trkpt lat="49.84777" lon="4.85214">
        <ele>269</ele>
        <time>2021-08-27T08:21:34.000Z</time>
      </trkpt>
      <trkpt lat="49.84778" lon="4.85228">
        <ele>269</ele>
        <time>2021-08-27T08:21:35.000Z</time>
      </trkpt>
      <trkpt lat="49.84778" lon="4.85243">
        <ele>268</ele>
        <time>2021-08-27T08:21:36.000Z</time>
      </trkpt>
      <trkpt lat="49.84777" lon="4.85257">
        <ele>268</ele>
        <time>2021-08-27T08:21:37.000Z</time>
      </trkpt>
      <trkpt lat="49.84774" lon="4.85269">
        <ele>268</ele>
        <time>2021-08-27T08:21:38.000Z</time>
      </trkpt>
      <trkpt lat="49.8477" lon="4.85279">
        <ele>268</ele>
        <time>2021-08-27T08:21:39.000Z</time>
      </trkpt>
      <trkpt lat="49.84764" lon="4.85286">
        <ele>267</ele>
        <time>2021-08-27T08:21:40.000Z</time>
      </trkpt>
      <trkpt lat="49.84757" lon="4.85289">
        <ele>267</ele>
        <time>2021-08-27T08:21:41.000Z</time>
      </trkpt>
      <trkpt lat="49.84747" lon="4.85289">
        <ele>266</ele>
        <time>2021-08-27T08:21:42.000Z</time>
      </trkpt>
      <trkpt lat="49.84738" lon="4.85288">
        <ele>266</ele>
        <time>2021-08-27T08:21:43.000Z</time>
      </trkpt>
      <trkpt lat="49.84728" lon="4.85287">
        <ele>265</ele>
        <time>2021-08-27T08:21:44.000Z</time>
      </trkpt>
      <trkpt lat="49.84719" lon="4.85283">
        <ele>264</ele>
        <time>2021-08-27T08:21:45.000Z</time>
      </trkpt>
      <trkpt lat="49.8471" lon="4.8528">
        <ele>264</ele>
        <time>2021-08-27T08:21:46.000Z</time>
      </trkpt>
      <trkpt lat="49.84702" lon="4.85278">
        <ele>263</ele>
        <time>2021-08-27T08:21:47.000Z</time>
      </trkpt>
      <trkpt lat="49.84695" lon="4.85278">
        <ele>262</ele>
        <time>2021-08-27T08:21:48.000Z</time>
      </trkpt>
      <trkpt lat="49.84688" lon="4.85281">
        <ele>262</ele>
        <time>2021-08-27T08:21:49.000Z</time>
      </trkpt>
      <trkpt lat="49.84684" lon="4.85288">
        <ele>261</ele>
        <time>2021-08-27T08:21:50.000Z</time>
      </trkpt>
      <trkpt lat="49.84683" lon="4.85298">
        <ele>261</ele>
        <time>2021-08-27T08:21:51.000Z</time>
      </trkpt>
      <trkpt lat="49.84684" lon="4.85308">
        <ele>260</ele>
        <time>2021-08-27T08:21:52.000Z</time>
      </trkpt>
      <trkpt lat="49.84688" lon="4.85319">
        <ele>260</ele>
        <time>2021-08-27T08:21:53.000Z</time>
      </trkpt>
      <trkpt lat="49.84693" lon="4.8533">
        <ele>260</ele>
        <time>2021-08-27T08:21:54.000Z</time>
      </trkpt>
      <trkpt lat="49.84697" lon="4.85342">
        <ele>259</ele>
        <time>2021-08-27T08:21:55.000Z</time>
      </trkpt>
      <trkpt lat="49.84702" lon="4.85353">
        <ele>259</ele>
        <time>2021-08-27T08:21:56.000Z</time>
      </trkpt>
      <trkpt lat="49.84706" lon="4.85365">
        <ele>258</ele>
        <time>2021-08-27T08:21:57.000Z</time>
      </trkpt>
      <trkpt lat="49.84709" lon="4.85377">
        <ele>258</ele>
        <time>2021-08-27T08:21:58.000Z</time>
      </trkpt>
      <trkpt lat="49.84713" lon="4.85388">
        <ele>257</ele>
        <time>2021-08-27T08:21:59.000Z</time>
      </trkpt>
      <trkpt lat="49.84717" lon="4.85401">
        <ele>257</ele>
        <time>2021-08-27T08:22:00.000Z</time>
      </trkpt>
      <trkpt lat="49.84721" lon="4.85413">
        <ele>256</ele>
        <time>2021-08-27T08:22:01.000Z</time>
      </trkpt>
      <trkpt lat="49.84724" lon="4.85425">
        <ele>256</ele>
        <time>2021-08-27T08:22:02.000Z</time>
      </trkpt>
      <trkpt lat="49.84727" lon="4.85438">
        <ele>256</ele>
        <time>2021-08-27T08:22:03.000Z</time>
      </trkpt>
      <trkpt lat="49.84731" lon="4.8545">
        <ele>255</ele>
        <time>2021-08-27T08:22:04.000Z</time>
      </trkpt>
      <trkpt lat="49.84735" lon="4.85462">
        <ele>255</ele>
        <time>2021-08-27T08:22:05.000Z</time>
      </trkpt>
      <trkpt lat="49.84739" lon="4.85474">
        <ele>255</ele>
        <time>2021-08-27T08:22:06.000Z</time>
      </trkpt>
      <trkpt lat="49.84743" lon="4.85485">
        <ele>254</ele>
        <time>2021-08-27T08:22:07.000Z</time>
      </trkpt>
      <trkpt lat="49.84747" lon="4.85496">
        <ele>254</ele>
        <time>2021-08-27T08:22:08.000Z</time>
      </trkpt>
      <trkpt lat="49.8475" lon="4.85508">
        <ele>253</ele>
        <time>2021-08-27T08:22:09.000Z</time>
      </trkpt>
      <trkpt lat="49.84751" lon="4.8552">
        <ele>253</ele>
        <time>2021-08-27T08:22:10.000Z</time>
      </trkpt>
      <trkpt lat="49.8475" lon="4.85533">
        <ele>252</ele>
        <time>2021-08-27T08:22:11.000Z</time>
      </trkpt>
      <trkpt lat="49.84747" lon="4.85545">
        <ele>252</ele>
        <time>2021-08-27T08:22:12.000Z</time>
      </trkpt>
      <trkpt lat="49.84743" lon="4.85556">
        <ele>252</ele>
        <time>2021-08-27T08:22:13.000Z</time>
      </trkpt>
      <trkpt lat="49.84737" lon="4.85565">
        <ele>251</ele>
        <time>2021-08-27T08:22:14.000Z</time>
      </trkpt>
      <trkpt lat="49.84731" lon="4.85575">
        <ele>251</ele>
        <time>2021-08-27T08:22:15.000Z</time>
      </trkpt>
      <trkpt lat="49.84726" lon="4.85585">
        <ele>251</ele>
        <time>2021-08-27T08:22:16.000Z</time>
      </trkpt>
      <trkpt lat="49.84722" lon="4.85596">
        <ele>251</ele>
        <time>2021-08-27T08:22:17.000Z</time>
      </trkpt>
      <trkpt lat="49.84717" lon="4.85605">
        <ele>251</ele>
        <time>2021-08-27T08:22:18.000Z</time>
      </trkpt>
      <trkpt lat="49.84712" lon="4.85614">
        <ele>251</ele>
        <time>2021-08-27T08:22:19.000Z</time>
      </trkpt>
      <trkpt lat="49.84708" lon="4.85622">
        <ele>251</ele>
        <time>2021-08-27T08:22:20.000Z</time>
      </trkpt>
      <trkpt lat="49.84704" lon="4.8563">
        <ele>251</ele>
        <time>2021-08-27T08:22:21.000Z</time>
      </trkpt>
      <trkpt lat="49.847" lon="4.85638">
        <ele>251</ele>
        <time>2021-08-27T08:22:22.000Z</time>
      </trkpt>
      <trkpt lat="49.84696" lon="4.85646">
        <ele>251</ele>
        <time>2021-08-27T08:22:23.000Z</time>
      </trkpt>
      <trkpt lat="49.84691" lon="4.85652">
        <ele>251</ele>
        <time>2021-08-27T08:22:24.000Z</time>
      </trkpt>
      <trkpt lat="49.84686" lon="4.85656">
        <ele>251</ele>
        <time>2021-08-27T08:22:25.000Z</time>
      </trkpt>
      <trkpt lat="49.8468" lon="4.85657">
        <ele>251</ele>
        <time>2021-08-27T08:22:26.000Z</time>
      </trkpt>
      <trkpt lat="49.84675" lon="4.85657">
        <ele>251</ele>
        <time>2021-08-27T08:22:27.000Z</time>
      </trkpt>
      <trkpt lat="49.8467" lon="4.85655">
        <ele>251</ele>
        <time>2021-08-27T08:22:28.000Z</time>
      </trkpt>
      <trkpt lat="49.84665" lon="4.85652">
        <ele>251</ele>
        <time>2021-08-27T08:22:29.000Z</time>
      </trkpt>
      <trkpt lat="49.84659" lon="4.8565">
        <ele>251</ele>
        <time>2021-08-27T08:22:30.000Z</time>
      </trkpt>
      <trkpt lat="49.84654" lon="4.85648">
        <ele>251</ele>
        <time>2021-08-27T08:22:31.000Z</time>
      </trkpt>
      <trkpt lat="49.84649" lon="4.85646">
        <ele>251</ele>
        <time>2021-08-27T08:22:32.000Z</time>
      </trkpt>
      <trkpt lat="49.84643" lon="4.85645">
        <ele>251</ele>
        <time>2021-08-27T08:22:33.000Z</time>
      </trkpt>
      <trkpt lat="49.84639" lon="4.85644">
        <ele>251</ele>
        <time>2021-08-27T08:22:34.000Z</time>
      </trkpt>
      <trkpt lat="49.84634" lon="4.85644">
        <ele>251</ele>
        <time>2021-08-27T08:22:35.000Z</time>
      </trkpt>
      <trkpt lat="49.84629" lon="4.85643">
        <ele>251</ele>
        <time>2021-08-27T08:22:36.000Z</time>
      </trkpt>
      <trkpt lat="49.84625" lon="4.85644">
        <ele>250</ele>
        <time>2021-08-27T08:22:37.000Z</time>
      </trkpt>
      <trkpt lat="49.8462" lon="4.85645">
        <ele>250</ele>
        <time>2021-08-27T08:22:38.000Z</time>
      </trkpt>
      <trkpt lat="49.84615" lon="4.85645">
        <ele>250</ele>
        <time>2021-08-27T08:22:39.000Z</time>
      </trkpt>
      <trkpt lat="49.84611" lon="4.85646">
        <ele>250</ele>
        <time>2021-08-27T08:22:40.000Z</time>
      </trkpt>
      <trkpt lat="49.84606" lon="4.85646">
        <ele>250</ele>
        <time>2021-08-27T08:22:41.000Z</time>
      </trkpt>
      <trkpt lat="49.84602" lon="4.85646">
        <ele>250</ele>
        <time>2021-08-27T08:22:42.000Z</time>
      </trkpt>
      <trkpt lat="49.84598" lon="4.85646">
        <ele>250</ele>
        <time>2021-08-27T08:22:43.000Z</time>
      </trkpt>
      <trkpt lat="49.84593" lon="4.85644">
        <ele>250</ele>
        <time>2021-08-27T08:22:44.000Z</time>
      </trkpt>
      <trkpt lat="49.84589" lon="4.85643">
        <ele>250</ele>
        <time>2021-08-27T08:22:45.000Z</time>
      </trkpt>
      <trkpt lat="49.84584" lon="4.85642">
        <ele>250</ele>
        <time>2021-08-27T08:22:46.000Z</time>
      </trkpt>
      <trkpt lat="49.8458" lon="4.85641">
        <ele>250</ele>
        <time>2021-08-27T08:22:47.000Z</time>
      </trkpt>
      <trkpt lat="49.84575" lon="4.85639">
        <ele>250</ele>
        <time>2021-08-27T08:22:48.000Z</time>
      </trkpt>
      <trkpt lat="49.8457" lon="4.85638">
        <ele>250</ele>
        <time>2021-08-27T08:22:49.000Z</time>
      </trkpt>
      <trkpt lat="49.84565" lon="4.85638">
        <ele>250</ele>
        <time>2021-08-27T08:22:50.000Z</time>
      </trkpt>
      <trkpt lat="49.84561" lon="4.85636">
        <ele>251</ele>
        <time>2021-08-27T08:22:51.000Z</time>
      </trkpt>
      <trkpt lat="49.84556" lon="4.85634">
        <ele>251</ele>
        <time>2021-08-27T08:22:52.000Z</time>
      </trkpt>
      <trkpt lat="49.84552" lon="4.85632">
        <ele>251</ele>
        <time>2021-08-27T08:22:53.000Z</time>
      </trkpt>
      <trkpt lat="49.84548" lon="4.8563">
        <ele>251</ele>
        <time>2021-08-27T08:22:54.000Z</time>
      </trkpt>
      <trkpt lat="49.84544" lon="4.85629">
        <ele>251</ele>
        <time>2021-08-27T08:22:55.000Z</time>
      </trkpt>
      <trkpt lat="49.84539" lon="4.85627">
        <ele>251</ele>
        <time>2021-08-27T08:22:56.000Z</time>
      </trkpt>
      <trkpt lat="49.84535" lon="4.85625">
        <ele>251</ele>
        <time>2021-08-27T08:22:57.000Z</time>
      </trkpt>
      <trkpt lat="49.8453" lon="4.85623">
        <ele>251</ele>
        <time>2021-08-27T08:22:58.000Z</time>
      </trkpt>
      <trkpt lat="49.84525" lon="4.8562">
        <ele>251</ele>
        <time>2021-08-27T08:22:59.000Z</time>
      </trkpt>
      <trkpt lat="49.84521" lon="4.85617">
        <ele>251</ele>
        <time>2021-08-27T08:23:00.000Z</time>
      </trkpt>
      <trkpt lat="49.84517" lon="4.85614">
        <ele>251</ele>
        <time>2021-08-27T08:23:01.000Z</time>
      </trkpt>
      <trkpt lat="49.84514" lon="4.85609">
        <ele>251</ele>
        <time>2021-08-27T08:23:02.000Z</time>
      </trkpt>
      <trkpt lat="49.84511" lon="4.85603">
        <ele>251</ele>
        <time>2021-08-27T08:23:03.000Z</time>
      </trkpt>
      <trkpt lat="49.84509" lon="4.85597">
        <ele>251</ele>
        <time>2021-08-27T08:23:04.000Z</time>
      </trkpt>
      <trkpt lat="49.84508" lon="4.85589">
        <ele>251</ele>
        <time>2021-08-27T08:23:05.000Z</time>
      </trkpt>
      <trkpt lat="49.84507" lon="4.85582">
        <ele>251</ele>
        <time>2021-08-27T08:23:06.000Z</time>
      </trkpt>
      <trkpt lat="49.84506" lon="4.85575">
        <ele>251</ele>
        <time>2021-08-27T08:23:07.000Z</time>
      </trkpt>
      <trkpt lat="49.84506" lon="4.85569">
        <ele>251</ele>
        <time>2021-08-27T08:23:08.000Z</time>
      </trkpt>
      <trkpt lat="49.84506" lon="4.85563">
        <ele>251</ele>
        <time>2021-08-27T08:23:09.000Z</time>
      </trkpt>
      <trkpt lat="49.84505" lon="4.85556">
        <ele>251</ele>
        <time>2021-08-27T08:23:10.000Z</time>
      </trkpt>
      <trkpt lat="49.84505" lon="4.8555">
        <ele>251</ele>
        <time>2021-08-27T08:23:11.000Z</time>
      </trkpt>
      <trkpt lat="49.84504" lon="4.85543">
        <ele>251</ele>
        <time>2021-08-27T08:23:12.000Z</time>
      </trkpt>
      <trkpt lat="49.84504" lon="4.85537">
        <ele>251</ele>
        <time>2021-08-27T08:23:13.000Z</time>
      </trkpt>
      <trkpt lat="49.84503" lon="4.85531">
        <ele>251</ele>
        <time>2021-08-27T08:23:14.000Z</time>
      </trkpt>
      <trkpt lat="49.84502" lon="4.85525">
        <ele>251</ele>
        <time>2021-08-27T08:23:15.000Z</time>
      </trkpt>
      <trkpt lat="49.84501" lon="4.85519">
        <ele>251</ele>
        <time>2021-08-27T08:23:16.000Z</time>
      </trkpt>
      <trkpt lat="49.84501" lon="4.85512">
        <ele>251</ele>
        <time>2021-08-27T08:23:17.000Z</time>
      </trkpt>
      <trkpt lat="49.84501" lon="4.85506">
        <ele>251</ele>
        <time>2021-08-27T08:23:18.000Z</time>
      </trkpt>
      <trkpt lat="49.845" lon="4.85499">
        <ele>251</ele>
        <time>2021-08-27T08:23:19.000Z</time>
      </trkpt>
      <trkpt lat="49.84498" lon="4.85493">
        <ele>251</ele>
        <time>2021-08-27T08:23:20.000Z</time>
      </trkpt>
      <trkpt lat="49.84497" lon="4.85487">
        <ele>251</ele>
        <time>2021-08-27T08:23:21.000Z</time>
      </trkpt>
      <trkpt lat="49.84495" lon="4.85481">
        <ele>251</ele>
        <time>2021-08-27T08:23:22.000Z</time>
      </trkpt>
      <trkpt lat="49.84494" lon="4.85475">
        <ele>251</ele>
        <time>2021-08-27T08:23:23.000Z</time>
      </trkpt>
      <trkpt lat="49.84492" lon="4.85469">
        <ele>252</ele>
        <time>2021-08-27T08:23:24.000Z</time>
      </trkpt>
      <trkpt lat="49.84491" lon="4.85463">
        <ele>252</ele>
        <time>2021-08-27T08:23:25.000Z</time>
      </trkpt>
      <trkpt lat="49.84489" lon="4.85457">
        <ele>252</ele>
        <time>2021-08-27T08:23:26.000Z</time>
      </trkpt>
      <trkpt lat="49.84488" lon="4.85451">
        <ele>252</ele>
        <time>2021-08-27T08:23:27.000Z</time>
      </trkpt>
      <trkpt lat="49.84486" lon="4.85446">
        <ele>252</ele>
        <time>2021-08-27T08:23:28.000Z</time>
      </trkpt>
      <trkpt lat="49.84485" lon="4.85441">
        <ele>252</ele>
        <time>2021-08-27T08:23:29.000Z</time>
      </trkpt>
      <trkpt lat="49.84483" lon="4.85435">
        <ele>252</ele>
        <time>2021-08-27T08:23:30.000Z</time>
      </trkpt>
      <trkpt lat="49.84481" lon="4.8543">
        <ele>253</ele>
        <time>2021-08-27T08:23:31.000Z</time>
      </trkpt>
      <trkpt lat="49.84479" lon="4.85424">
        <ele>253</ele>
        <time>2021-08-27T08:23:32.000Z</time>
      </trkpt>
      <trkpt lat="49.84477" lon="4.85419">
        <ele>253</ele>
        <time>2021-08-27T08:23:33.000Z</time>
      </trkpt>
      <trkpt lat="49.84475" lon="4.85415">
        <ele>253</ele>
        <time>2021-08-27T08:23:34.000Z</time>
      </trkpt>
      <trkpt lat="49.84472" lon="4.8541">
        <ele>253</ele>
        <time>2021-08-27T08:23:35.000Z</time>
      </trkpt>
      <trkpt lat="49.8447" lon="4.85405">
        <ele>254</ele>
        <time>2021-08-27T08:23:36.000Z</time>
      </trkpt>
      <trkpt lat="49.84467" lon="4.854">
        <ele>254</ele>
        <time>2021-08-27T08:23:37.000Z</time>
      </trkpt>
      <trkpt lat="49.84464" lon="4.85396">
        <ele>254</ele>
        <time>2021-08-27T08:23:38.000Z</time>
      </trkpt>
      <trkpt lat="49.84462" lon="4.85391">
        <ele>254</ele>
        <time>2021-08-27T08:23:39.000Z</time>
      </trkpt>
      <trkpt lat="49.84459" lon="4.85386">
        <ele>255</ele>
        <time>2021-08-27T08:23:40.000Z</time>
      </trkpt>
      <trkpt lat="49.84456" lon="4.85382">
        <ele>255</ele>
        <time>2021-08-27T08:23:41.000Z</time>
      </trkpt>
      <trkpt lat="49.84453" lon="4.85377">
        <ele>255</ele>
        <time>2021-08-27T08:23:42.000Z</time>
      </trkpt>
      <trkpt lat="49.8445" lon="4.85372">
        <ele>256</ele>
        <time>2021-08-27T08:23:43.000Z</time>
      </trkpt>
      <trkpt lat="49.84447" lon="4.85367">
        <ele>256</ele>
        <time>2021-08-27T08:23:44.000Z</time>
      </trkpt>
      <trkpt lat="49.84444" lon="4.85362">
        <ele>256</ele>
        <time>2021-08-27T08:23:45.000Z</time>
      </trkpt>
      <trkpt lat="49.84441" lon="4.85358">
        <ele>256</ele>
        <time>2021-08-27T08:23:46.000Z</time>
      </trkpt>
      <trkpt lat="49.84437" lon="4.85355">
        <ele>257</ele>
        <time>2021-08-27T08:23:47.000Z</time>
      </trkpt>
      <trkpt lat="49.84434" lon="4.85351">
        <ele>257</ele>
        <time>2021-08-27T08:23:48.000Z</time>
      </trkpt>
      <trkpt lat="49.84431" lon="4.85346">
        <ele>257</ele>
        <time>2021-08-27T08:23:49.000Z</time>
      </trkpt>
      <trkpt lat="49.84429" lon="4.85343">
        <ele>257</ele>
        <time>2021-08-27T08:23:50.000Z</time>
      </trkpt>
      <trkpt lat="49.84427" lon="4.85339">
        <ele>257</ele>
        <time>2021-08-27T08:23:51.000Z</time>
      </trkpt>
      <trkpt lat="49.84424" lon="4.85335">
        <ele>258</ele>
        <time>2021-08-27T08:23:52.000Z</time>
      </trkpt>
      <trkpt lat="49.84422" lon="4.85331">
        <ele>258</ele>
        <time>2021-08-27T08:23:53.000Z</time>
      </trkpt>
      <trkpt lat="49.8442" lon="4.85327">
        <ele>258</ele>
        <time>2021-08-27T08:23:54.000Z</time>
      </trkpt>
      <trkpt lat="49.84418" lon="4.85322">
        <ele>258</ele>
        <time>2021-08-27T08:23:55.000Z</time>
      </trkpt>
      <trkpt lat="49.84415" lon="4.85318">
        <ele>258</ele>
        <time>2021-08-27T08:23:56.000Z</time>
      </trkpt>
      <trkpt lat="49.84412" lon="4.85314">
        <ele>258</ele>
        <time>2021-08-27T08:23:57.000Z</time>
      </trkpt>
      <trkpt lat="49.84409" lon="4.85311">
        <ele>258</ele>
        <time>2021-08-27T08:23:58.000Z</time>
      </trkpt>
      <trkpt lat="49.84406" lon="4.85309">
        <ele>258</ele>
        <time>2021-08-27T08:23:59.000Z</time>
      </trkpt>
      <trkpt lat="49.84403" lon="4.85309">
        <ele>258</ele>
        <time>2021-08-27T08:24:00.000Z</time>
      </trkpt>
      <trkpt lat="49.844" lon="4.85309">
        <ele>258</ele>
        <time>2021-08-27T08:24:01.000Z</time>
      </trkpt>
      <trkpt lat="49.84397" lon="4.85309">
        <ele>259</ele>
        <time>2021-08-27T08:24:02.000Z</time>
      </trkpt>
      <trkpt lat="49.84394" lon="4.8531">
        <ele>259</ele>
        <time>2021-08-27T08:24:03.000Z</time>
      </trkpt>
      <trkpt lat="49.84391" lon="4.85311">
        <ele>259</ele>
        <time>2021-08-27T08:24:04.000Z</time>
      </trkpt>
      <trkpt lat="49.84389" lon="4.85312">
        <ele>259</ele>
        <time>2021-08-27T08:24:05.000Z</time>
      </trkpt>
      <trkpt lat="49.84386" lon="4.85314">
        <ele>259</ele>
        <time>2021-08-27T08:24:06.000Z</time>
      </trkpt>
      <trkpt lat="49.84384" lon="4.85315">
        <ele>259</ele>
        <time>2021-08-27T08:24:07.000Z</time>
      </trkpt>
      <trkpt lat="49.84381" lon="4.85316">
        <ele>260</ele>
        <time>2021-08-27T08:24:08.000Z</time>
      </trkpt>
      <trkpt lat="49.84379" lon="4.85315">
        <ele>260</ele>
        <time>2021-08-27T08:24:09.000Z</time>
      </trkpt>
      <trkpt lat="49.84377" lon="4.85315">
        <ele>260</ele>
        <time>2021-08-27T08:24:10.000Z</time>
      </trkpt>
      <trkpt lat="49.84376" lon="4.85316">
        <ele>260</ele>
        <time>2021-08-27T08:24:11.000Z</time>
      </trkpt>
      <trkpt lat="49.84374" lon="4.85315">
        <ele>261</ele>
        <time>2021-08-27T08:24:12.000Z</time>
      </trkpt>
      <trkpt lat="49.84372" lon="4.85315">
        <ele>261</ele>
        <time>2021-08-27T08:24:13.000Z</time>
      </trkpt>
      <trkpt lat="49.84371" lon="4.85314">
        <ele>261</ele>
        <time>2021-08-27T08:24:14.000Z</time>
      </trkpt>
      <trkpt lat="49.84369" lon="4.85312">
        <ele>261</ele>
        <time>2021-08-27T08:24:15.000Z</time>
      </trkpt>
      <trkpt lat="49.84368" lon="4.85311">
        <ele>262</ele>
        <time>2021-08-27T08:24:16.000Z</time>
      </trkpt>
      <trkpt lat="49.84367" lon="4.85309">
        <ele>262</ele>
        <time>2021-08-27T08:24:17.000Z</time>
      </trkpt>
      <trkpt lat="49.84366" lon="4.85307">
        <ele>262</ele>
        <time>2021-08-27T08:24:18.000Z</time>
      </trkpt>
      <trkpt lat="49.84365" lon="4.85306">
        <ele>262</ele>
        <time>2021-08-27T08:24:19.000Z</time>
      </trkpt>
      <trkpt lat="49.84365" lon="4.85305">
        <ele>263</ele>
        <time>2021-08-27T08:24:20.000Z</time>
      </trkpt>
      <trkpt lat="49.84363" lon="4.85304">
        <ele>263</ele>
        <time>2021-08-27T08:24:21.000Z</time>
      </trkpt>
      <trkpt lat="49.84362" lon="4.85303">
        <ele>263</ele>
        <time>2021-08-27T08:24:22.000Z</time>
      </trkpt>
      <trkpt lat="49.84361" lon="4.85302">
        <ele>264</ele>
        <time>2021-08-27T08:24:23.000Z</time>
      </trkpt>
      <trkpt lat="49.84361" lon="4.85301">
        <ele>264</ele>
        <time>2021-08-27T08:24:24.000Z</time>
      </trkpt>
      <trkpt lat="49.8436" lon="4.85299">
        <ele>264</ele>
        <time>2021-08-27T08:24:25.000Z</time>
      </trkpt>
      <trkpt lat="49.84359" lon="4.85298">
        <ele>265</ele>
        <time>2021-08-27T08:24:26.000Z</time>
      </trkpt>
      <trkpt lat="49.84359" lon="4.85295">
        <ele>265</ele>
        <time>2021-08-27T08:24:27.000Z</time>
      </trkpt>
      <trkpt lat="49.84359" lon="4.85293">
        <ele>265</ele>
        <time>2021-08-27T08:24:28.000Z</time>
      </trkpt>
      <trkpt lat="49.84359" lon="4.8529">
        <ele>265</ele>
        <time>2021-08-27T08:24:29.000Z</time>
      </trkpt>
      <trkpt lat="49.84358" lon="4.85288">
        <ele>265</ele>
        <time>2021-08-27T08:24:30.000Z</time>
      </trkpt>
      <trkpt lat="49.84357" lon="4.85285">
        <ele>265</ele>
        <time>2021-08-27T08:24:31.000Z</time>
      </trkpt>
      <trkpt lat="49.84357" lon="4.85283">
        <ele>266</ele>
        <time>2021-08-27T08:24:32.000Z</time>
      </trkpt>
      <trkpt lat="49.84356" lon="4.85281">
        <ele>266</ele>
        <time>2021-08-27T08:24:33.000Z</time>
      </trkpt>
      <trkpt lat="49.84355" lon="4.85278">
        <ele>266</ele>
        <time>2021-08-27T08:24:34.000Z</time>
      </trkpt>
      <trkpt lat="49.84354" lon="4.85275">
        <ele>266</ele>
        <time>2021-08-27T08:24:35.000Z</time>
      </trkpt>
      <trkpt lat="49.84353" lon="4.85273">
        <ele>266</ele>
        <time>2021-08-27T08:24:36.000Z</time>
      </trkpt>
      <trkpt lat="49.84352" lon="4.8527">
        <ele>266</ele>
        <time>2021-08-27T08:24:37.000Z</time>
      </trkpt>
      <trkpt lat="49.84352" lon="4.85267">
        <ele>266</ele>
        <time>2021-08-27T08:24:38.000Z</time>
      </trkpt>
      <trkpt lat="49.84351" lon="4.85264">
        <ele>266</ele>
        <time>2021-08-27T08:24:39.000Z</time>
      </trkpt>
      <trkpt lat="49.84351" lon="4.85261">
        <ele>266</ele>
        <time>2021-08-27T08:24:40.000Z</time>
      </trkpt>
      <trkpt lat="49.84351" lon="4.85258">
        <ele>266</ele>
        <time>2021-08-27T08:24:41.000Z</time>
      </trkpt>
      <trkpt lat="49.8435" lon="4.85255">
        <ele>266</ele>
        <time>2021-08-27T08:24:42.000Z</time>
      </trkpt>
      <trkpt lat="49.8435" lon="4.85252">
        <ele>267</ele>
        <time>2021-08-27T08:24:43.000Z</time>
      </trkpt>
      <trkpt lat="49.84351" lon="4.8525">
        <ele>267</ele>
        <time>2021-08-27T08:24:44.000Z</time>
      </trkpt>
      <trkpt lat="49.84352" lon="4.85247">
        <ele>267</ele>
        <time>2021-08-27T08:24:45.000Z</time>
      </trkpt>
      <trkpt lat="49.84352" lon="4.85245">
        <ele>267</ele>
        <time>2021-08-27T08:24:46.000Z</time>
      </trkpt>
      <trkpt lat="49.84353" lon="4.85242">
        <ele>268</ele>
        <time>2021-08-27T08:24:47.000Z</time>
      </trkpt>
      <trkpt lat="49.84354" lon="4.8524">
        <ele>268</ele>
        <time>2021-08-27T08:24:48.000Z</time>
      </trkpt>
      <trkpt lat="49.84355" lon="4.85237">
        <ele>268</ele>
        <time>2021-08-27T08:24:49.000Z</time>
      </trkpt>
      <trkpt lat="49.84356" lon="4.85235">
        <ele>269</ele>
        <time>2021-08-27T08:24:50.000Z</time>
      </trkpt>
      <trkpt lat="49.84357" lon="4.85232">
        <ele>269</ele>
        <time>2021-08-27T08:24:51.000Z</time>
      </trkpt>
      <trkpt lat="49.84358" lon="4.8523">
        <ele>270</ele>
        <time>2021-08-27T08:24:52.000Z</time>
      </trkpt>
      <trkpt lat="49.84359" lon="4.85228">
        <ele>270</ele>
        <time>2021-08-27T08:24:53.000Z</time>
      </trkpt>
      <trkpt lat="49.8436" lon="4.85225">
        <ele>271</ele>
        <time>2021-08-27T08:24:54.000Z</time>
      </trkpt>
      <trkpt lat="49.84361" lon="4.85223">
        <ele>271</ele>
        <time>2021-08-27T08:24:55.000Z</time>
      </trkpt>
      <trkpt lat="49.84362" lon="4.85221">
        <ele>271</ele>
        <time>2021-08-27T08:24:56.000Z</time>
      </trkpt>
      <trkpt lat="49.84363" lon="4.85218">
        <ele>272</ele>
        <time>2021-08-27T08:24:57.000Z</time>
      </trkpt>
      <trkpt lat="49.84364" lon="4.85216">
        <ele>272</ele>
        <time>2021-08-27T08:24:58.000Z</time>
      </trkpt>
      <trkpt lat="49.84364" lon="4.85213">
        <ele>273</ele>
        <time>2021-08-27T08:24:59.000Z</time>
      </trkpt>
      <trkpt lat="49.84365" lon="4.85211">
        <ele>273</ele>
        <time>2021-08-27T08:25:00.000Z</time>
      </trkpt>
      <trkpt lat="49.84366" lon="4.85209">
        <ele>273</ele>
        <time>2021-08-27T08:25:01.000Z</time>
      </trkpt>
      <trkpt lat="49.84366" lon="4.85208">
        <ele>273</ele>
        <time>2021-08-27T08:25:02.000Z</time>
      </trkpt>
      <trkpt lat="49.84367" lon="4.85207">
        <ele>274</ele>
        <time>2021-08-27T08:25:03.000Z</time>
      </trkpt>
      <trkpt lat="49.84368" lon="4.85206">
        <ele>274</ele>
        <time>2021-08-27T08:25:04.000Z</time>
      </trkpt>
      <trkpt lat="49.84369" lon="4.85205">
        <ele>274</ele>
        <time>2021-08-27T08:25:05.000Z</time>
      </trkpt>
      <trkpt lat="49.84369" lon="4.85206">
        <ele>274</ele>
        <time>2021-08-27T08:25:06.000Z</time>
      </trkpt>
      <trkpt lat="49.8437" lon="4.85206">
        <ele>274</ele>
        <time>2021-08-27T08:25:07.000Z</time>
      </trkpt>
      <trkpt lat="49.8437" lon="4.85207">
        <ele>275</ele>
        <time>2021-08-27T08:25:08.000Z</time>
      </trkpt>
      <trkpt lat="49.8437" lon="4.85207">
        <ele>275</ele>
        <time>2021-08-27T08:25:09.000Z</time>
      </trkpt>
      <trkpt lat="49.8437" lon="4.85208">
        <ele>275</ele>
        <time>2021-08-27T08:25:10.000Z</time>
      </trkpt>
      <trkpt lat="49.84371" lon="4.8521">
        <ele>275</ele>
        <time>2021-08-27T08:25:11.000Z</time>
      </trkpt>
      <trkpt lat="49.84372" lon="4.85211">
        <ele>275</ele>
        <time>2021-08-27T08:25:12.000Z</time>
      </trkpt>
      <trkpt lat="49.84373" lon="4.85212">
        <ele>275</ele>
        <time>2021-08-27T08:25:13.000Z</time>
      </trkpt>
      <trkpt lat="49.84375" lon="4.85213">
        <ele>275</ele>
        <time>2021-08-27T08:25:14.000Z</time>
      </trkpt>
      <trkpt lat="49.84377" lon="4.85215">
        <ele>275</ele>
        <time>2021-08-27T08:25:15.000Z</time>
      </trkpt>
      <trkpt lat="49.84378" lon="4.85217">
        <ele>275</ele>
        <time>2021-08-27T08:25:16.000Z</time>
      </trkpt>
      <trkpt lat="49.8438" lon="4.85219">
        <ele>275</ele>
        <time>2021-08-27T08:25:17.000Z</time>
      </trkpt>
      <trkpt lat="49.84382" lon="4.8522">
        <ele>275</ele>
        <time>2021-08-27T08:25:18.000Z</time>
      </trkpt>
      <trkpt lat="49.84383" lon="4.85221">
        <ele>275</ele>
        <time>2021-08-27T08:25:19.000Z</time>
      </trkpt>
      <trkpt lat="49.84384" lon="4.85223">
        <ele>275</ele>
        <time>2021-08-27T08:25:20.000Z</time>
      </trkpt>
      <trkpt lat="49.84385" lon="4.85225">
        <ele>275</ele>
        <time>2021-08-27T08:25:21.000Z</time>
      </trkpt>
      <trkpt lat="49.84386" lon="4.85227">
        <ele>275</ele>
        <time>2021-08-27T08:25:22.000Z</time>
      </trkpt>
      <trkpt lat="49.84388" lon="4.85228">
        <ele>275</ele>
        <time>2021-08-27T08:25:23.000Z</time>
      </trkpt>
      <trkpt lat="49.8439" lon="4.8523">
        <ele>275</ele>
        <time>2021-08-27T08:25:24.000Z</time>
      </trkpt>
      <trkpt lat="49.84391" lon="4.85233">
        <ele>275</ele>
        <time>2021-08-27T08:25:25.000Z</time>
      </trkpt>
      <trkpt lat="49.84392" lon="4.85235">
        <ele>275</ele>
        <time>2021-08-27T08:25:26.000Z</time>
      </trkpt>
      <trkpt lat="49.84394" lon="4.85237">
        <ele>275</ele>
        <time>2021-08-27T08:25:27.000Z</time>
      </trkpt>
      <trkpt lat="49.84395" lon="4.85239">
        <ele>275</ele>
        <time>2021-08-27T08:25:28.000Z</time>
      </trkpt>
      <trkpt lat="49.84396" lon="4.85241">
        <ele>274</ele>
        <time>2021-08-27T08:25:29.000Z</time>
      </trkpt>
      <trkpt lat="49.84398" lon="4.85243">
        <ele>274</ele>
        <time>2021-08-27T08:25:30.000Z</time>
      </trkpt>
      <trkpt lat="49.844" lon="4.85245">
        <ele>274</ele>
        <time>2021-08-27T08:25:31.000Z</time>
      </trkpt>
      <trkpt lat="49.84401" lon="4.85246">
        <ele>274</ele>
        <time>2021-08-27T08:25:32.000Z</time>
      </trkpt>
      <trkpt lat="49.84402" lon="4.85248">
        <ele>274</ele>
        <time>2021-08-27T08:25:33.000Z</time>
      </trkpt>
      <trkpt lat="49.84403" lon="4.8525">
        <ele>274</ele>
        <time>2021-08-27T08:25:34.000Z</time>
      </trkpt>
      <trkpt lat="49.84404" lon="4.85251">
        <ele>274</ele>
        <time>2021-08-27T08:25:35.000Z</time>
      </trkpt>
      <trkpt lat="49.84405" lon="4.85253">
        <ele>274</ele>
        <time>2021-08-27T08:25:36.000Z</time>
      </trkpt>
      <trkpt lat="49.84406" lon="4.85254">
        <ele>274</ele>
        <time>2021-08-27T08:25:37.000Z</time>
      </trkpt>
      <trkpt lat="49.84407" lon="4.85256">
        <ele>274</ele>
        <time>2021-08-27T08:25:38.000Z</time>
      </trkpt>
      <trkpt lat="49.84408" lon="4.85257">
        <ele>274</ele>
        <time>2021-08-27T08:25:39.000Z</time>
      </trkpt>
      <trkpt lat="49.8441" lon="4.85259">
        <ele>274</ele>
        <time>2021-08-27T08:25:40.000Z</time>
      </trkpt>
      <trkpt lat="49.84412" lon="4.85261">
        <ele>274</ele>
        <time>2021-08-27T08:25:41.000Z</time>
      </trkpt>
      <trkpt lat="49.84413" lon="4.85263">
        <ele>274</ele>
        <time>2021-08-27T08:25:42.000Z</time>
      </trkpt>
      <trkpt lat="49.84414" lon="4.85265">
        <ele>274</ele>
        <time>2021-08-27T08:25:43.000Z</time>
      </trkpt>
      <trkpt lat="49.84416" lon="4.85266">
        <ele>274</ele>
        <time>2021-08-27T08:25:44.000Z</time>
      </trkpt>
      <trkpt lat="49.84418" lon="4.85268">
        <ele>274</ele>
        <time>2021-08-27T08:25:45.000Z</time>
      </trkpt>
      <trkpt lat="49.84419" lon="4.8527">
        <ele>274</ele>
        <time>2021-08-27T08:25:46.000Z</time>
      </trkpt>
      <trkpt lat="49.84419" lon="4.85273">
        <ele>274</ele>
        <time>2021-08-27T08:25:47.000Z</time>
      </trkpt>
      <trkpt lat="49.84421" lon="4.85275">
        <ele>275</ele>
        <time>2021-08-27T08:25:48.000Z</time>
      </trkpt>
      <trkpt lat="49.84422" lon="4.85277">
        <ele>275</ele>
        <time>2021-08-27T08:25:49.000Z</time>
      </trkpt>
      <trkpt lat="49.84422" lon="4.85279">
        <ele>275</ele>
        <time>2021-08-27T08:25:50.000Z</time>
      </trkpt>
      <trkpt lat="49.84423" lon="4.85281">
        <ele>275</ele>
        <time>2021-08-27T08:25:51.000Z</time>
      </trkpt>
      <trkpt lat="49.84424" lon="4.85282">
        <ele>275</ele>
        <time>2021-08-27T08:25:52.000Z</time>
      </trkpt>
      <trkpt lat="49.84425" lon="4.85284">
        <ele>275</ele>
        <time>2021-08-27T08:25:53.000Z</time>
      </trkpt>
      <trkpt lat="49.84426" lon="4.85286">
        <ele>275</ele>
        <time>2021-08-27T08:25:54.000Z</time>
      </trkpt>
      <trkpt lat="49.84427" lon="4.85288">
        <ele>275</ele>
        <time>2021-08-27T08:25:55.000Z</time>
      </trkpt>
      <trkpt lat="49.84429" lon="4.85289">
        <ele>275</ele>
        <time>2021-08-27T08:25:56.000Z</time>
      </trkpt>
      <trkpt lat="49.8443" lon="4.85292">
        <ele>275</ele>
        <time>2021-08-27T08:25:57.000Z</time>
      </trkpt>
      <trkpt lat="49.84431" lon="4.85294">
        <ele>275</ele>
        <time>2021-08-27T08:25:58.000Z</time>
      </trkpt>
      <trkpt lat="49.84432" lon="4.85296">
        <ele>275</ele>
        <time>2021-08-27T08:25:59.000Z</time>
      </trkpt>
      <trkpt lat="49.84434" lon="4.85297">
        <ele>275</ele>
        <time>2021-08-27T08:26:00.000Z</time>
      </trkpt>
      <trkpt lat="49.84436" lon="4.85299">
        <ele>275</ele>
        <time>2021-08-27T08:26:01.000Z</time>
      </trkpt>
      <trkpt lat="49.84437" lon="4.85301">
        <ele>275</ele>
        <time>2021-08-27T08:26:02.000Z</time>
      </trkpt>
      <trkpt lat="49.84439" lon="4.85303">
        <ele>275</ele>
        <time>2021-08-27T08:26:03.000Z</time>
      </trkpt>
      <trkpt lat="49.84441" lon="4.85305">
        <ele>275</ele>
        <time>2021-08-27T08:26:04.000Z</time>
      </trkpt>
      <trkpt lat="49.84442" lon="4.85307">
        <ele>275</ele>
        <time>2021-08-27T08:26:05.000Z</time>
      </trkpt>
      <trkpt lat="49.84443" lon="4.85309">
        <ele>275</ele>
        <time>2021-08-27T08:26:06.000Z</time>
      </trkpt>
      <trkpt lat="49.84444" lon="4.8531">
        <ele>275</ele>
        <time>2021-08-27T08:26:07.000Z</time>
      </trkpt>
      <trkpt lat="49.84445" lon="4.85311">
        <ele>275</ele>
        <time>2021-08-27T08:26:08.000Z</time>
      </trkpt>
      <trkpt lat="49.84447" lon="4.85313">
        <ele>276</ele>
        <time>2021-08-27T08:26:09.000Z</time>
      </trkpt>
      <trkpt lat="49.84448" lon="4.85315">
        <ele>276</ele>
        <time>2021-08-27T08:26:10.000Z</time>
      </trkpt>
      <trkpt lat="49.84449" lon="4.85318">
        <ele>276</ele>
        <time>2021-08-27T08:26:11.000Z</time>
      </trkpt>
      <trkpt lat="49.84451" lon="4.8532">
        <ele>276</ele>
        <time>2021-08-27T08:26:12.000Z</time>
      </trkpt>
      <trkpt lat="49.84453" lon="4.85321">
        <ele>276</ele>
        <time>2021-08-27T08:26:13.000Z</time>
      </trkpt>
      <trkpt lat="49.84455" lon="4.85323">
        <ele>277</ele>
        <time>2021-08-27T08:26:14.000Z</time>
      </trkpt>
      <trkpt lat="49.84456" lon="4.85325">
        <ele>277</ele>
        <time>2021-08-27T08:26:15.000Z</time>
      </trkpt>
      <trkpt lat="49.84458" lon="4.85328">
        <ele>277</ele>
        <time>2021-08-27T08:26:16.000Z</time>
      </trkpt>
      <trkpt lat="49.84459" lon="4.85329">
        <ele>277</ele>
        <time>2021-08-27T08:26:17.000Z</time>
      </trkpt>
      <trkpt lat="49.84461" lon="4.85332">
        <ele>277</ele>
        <time>2021-08-27T08:26:18.000Z</time>
      </trkpt>
      <trkpt lat="49.84464" lon="4.85334">
        <ele>277</ele>
        <time>2021-08-27T08:26:19.000Z</time>
      </trkpt>
      <trkpt lat="49.84466" lon="4.85336">
        <ele>278</ele>
        <time>2021-08-27T08:26:20.000Z</time>
      </trkpt>
      <trkpt lat="49.84469" lon="4.85337">
        <ele>278</ele>
        <time>2021-08-27T08:26:21.000Z</time>
      </trkpt>
      <trkpt lat="49.84471" lon="4.85339">
        <ele>278</ele>
        <time>2021-08-27T08:26:22.000Z</time>
      </trkpt>
      <trkpt lat="49.84473" lon="4.85342">
        <ele>278</ele>
        <time>2021-08-27T08:26:23.000Z</time>
      </trkpt>
      <trkpt lat="49.84475" lon="4.85344">
        <ele>278</ele>
        <time>2021-08-27T08:26:24.000Z</time>
      </trkpt>
      <trkpt lat="49.84477" lon="4.85346">
        <ele>278</ele>
        <time>2021-08-27T08:26:25.000Z</time>
      </trkpt>
      <trkpt lat="49.84479" lon="4.85349">
        <ele>278</ele>
        <time>2021-08-27T08:26:26.000Z</time>
      </trkpt>
      <trkpt lat="49.8448" lon="4.85352">
        <ele>279</ele>
        <time>2021-08-27T08:26:27.000Z</time>
      </trkpt>
      <trkpt lat="49.84482" lon="4.85354">
        <ele>279</ele>
        <time>2021-08-27T08:26:28.000Z</time>
      </trkpt>
      <trkpt lat="49.84484" lon="4.85357">
        <ele>279</ele>
        <time>2021-08-27T08:26:29.000Z</time>
      </trkpt>
      <trkpt lat="49.84485" lon="4.8536">
        <ele>279</ele>
        <time>2021-08-27T08:26:30.000Z</time>
      </trkpt>
      <trkpt lat="49.84486" lon="4.85363">
        <ele>279</ele>
        <time>2021-08-27T08:26:31.000Z</time>
      </trkpt>
      <trkpt lat="49.84488" lon="4.85365">
        <ele>279</ele>
        <time>2021-08-27T08:26:32.000Z</time>
      </trkpt>
      <trkpt lat="49.84489" lon="4.85367">
        <ele>279</ele>
        <time>2021-08-27T08:26:33.000Z</time>
      </trkpt>
      <trkpt lat="49.8449" lon="4.85369">
        <ele>280</ele>
        <time>2021-08-27T08:26:34.000Z</time>
      </trkpt>
      <trkpt lat="49.84491" lon="4.85371">
        <ele>280</ele>
        <time>2021-08-27T08:26:35.000Z</time>
      </trkpt>
      <trkpt lat="49.84492" lon="4.85374">
        <ele>280</ele>
        <time>2021-08-27T08:26:36.000Z</time>
      </trkpt>
      <trkpt lat="49.84494" lon="4.85377">
        <ele>280</ele>
        <time>2021-08-27T08:26:37.000Z</time>
      </trkpt>
      <trkpt lat="49.84495" lon="4.85379">
        <ele>280</ele>
        <time>2021-08-27T08:26:38.000Z</time>
      </trkpt>
      <trkpt lat="49.84497" lon="4.85382">
        <ele>280</ele>
        <time>2021-08-27T08:26:39.000Z</time>
      </trkpt>
      <trkpt lat="49.84499" lon="4.85383">
        <ele>280</ele>
        <time>2021-08-27T08:26:40.000Z</time>
      </trkpt>
      <trkpt lat="49.84501" lon="4.85386">
        <ele>280</ele>
        <time>2021-08-27T08:26:41.000Z</time>
      </trkpt>
      <trkpt lat="49.84502" lon="4.85389">
        <ele>280</ele>
        <time>2021-08-27T08:26:42.000Z</time>
      </trkpt>
      <trkpt lat="49.84503" lon="4.85392">
        <ele>280</ele>
        <time>2021-08-27T08:26:43.000Z</time>
      </trkpt>
      <trkpt lat="49.84505" lon="4.85395">
        <ele>279</ele>
        <time>2021-08-27T08:26:44.000Z</time>
      </trkpt>
      <trkpt lat="49.84505" lon="4.85397">
        <ele>279</ele>
        <time>2021-08-27T08:26:45.000Z</time>
      </trkpt>
      <trkpt lat="49.84506" lon="4.854">
        <ele>279</ele>
        <time>2021-08-27T08:26:46.000Z</time>
      </trkpt>
      <trkpt lat="49.84507" lon="4.85402">
        <ele>279</ele>
        <time>2021-08-27T08:26:47.000Z</time>
      </trkpt>
      <trkpt lat="49.84507" lon="4.85405">
        <ele>280</ele>
        <time>2021-08-27T08:26:48.000Z</time>
      </trkpt>
      <trkpt lat="49.84508" lon="4.85409">
        <ele>280</ele>
        <time>2021-08-27T08:26:49.000Z</time>
      </trkpt>
      <trkpt lat="49.84509" lon="4.85412">
        <ele>280</ele>
        <time>2021-08-27T08:26:50.000Z</time>
      </trkpt>
      <trkpt lat="49.8451" lon="4.85415">
        <ele>280</ele>
        <time>2021-08-27T08:26:51.000Z</time>
      </trkpt>
      <trkpt lat="49.84511" lon="4.85419">
        <ele>280</ele>
        <time>2021-08-27T08:26:52.000Z</time>
      </trkpt>
      <trkpt lat="49.84512" lon="4.85422">
        <ele>281</ele>
        <time>2021-08-27T08:26:53.000Z</time>
      </trkpt>
      <trkpt lat="49.84513" lon="4.85425">
        <ele>281</ele>
        <time>2021-08-27T08:26:54.000Z</time>
      </trkpt>
      <trkpt lat="49.84515" lon="4.85428">
        <ele>281</ele>
        <time>2021-08-27T08:26:55.000Z</time>
      </trkpt>
      <trkpt lat="49.84517" lon="4.85432">
        <ele>281</ele>
        <time>2021-08-27T08:26:56.000Z</time>
      </trkpt>
      <trkpt lat="49.84519" lon="4.85436">
        <ele>281</ele>
        <time>2021-08-27T08:26:57.000Z</time>
      </trkpt>
      <trkpt lat="49.8452" lon="4.85439">
        <ele>282</ele>
        <time>2021-08-27T08:26:58.000Z</time>
      </trkpt>
      <trkpt lat="49.84522" lon="4.85443">
        <ele>282</ele>
        <time>2021-08-27T08:26:59.000Z</time>
      </trkpt>
      <trkpt lat="49.84523" lon="4.85446">
        <ele>282</ele>
        <time>2021-08-27T08:27:00.000Z</time>
      </trkpt>
      <trkpt lat="49.84524" lon="4.85448">
        <ele>282</ele>
        <time>2021-08-27T08:27:01.000Z</time>
      </trkpt>
      <trkpt lat="49.84525" lon="4.85451">
        <ele>282</ele>
        <time>2021-08-27T08:27:02.000Z</time>
      </trkpt>
      <trkpt lat="49.84525" lon="4.85453">
        <ele>282</ele>
        <time>2021-08-27T08:27:03.000Z</time>
      </trkpt>
      <trkpt lat="49.84526" lon="4.85456">
        <ele>282</ele>
        <time>2021-08-27T08:27:04.000Z</time>
      </trkpt>
      <trkpt lat="49.84527" lon="4.85459">
        <ele>282</ele>
        <time>2021-08-27T08:27:05.000Z</time>
      </trkpt>
      <trkpt lat="49.84528" lon="4.85462">
        <ele>282</ele>
        <time>2021-08-27T08:27:06.000Z</time>
      </trkpt>
      <trkpt lat="49.84529" lon="4.85465">
        <ele>283</ele>
        <time>2021-08-27T08:27:07.000Z</time>
      </trkpt>
      <trkpt lat="49.8453" lon="4.85468">
        <ele>283</ele>
        <time>2021-08-27T08:27:08.000Z</time>
      </trkpt>
      <trkpt lat="49.84531" lon="4.8547">
        <ele>283</ele>
        <time>2021-08-27T08:27:09.000Z</time>
      </trkpt>
      <trkpt lat="49.84533" lon="4.85473">
        <ele>283</ele>
        <time>2021-08-27T08:27:10.000Z</time>
      </trkpt>
      <trkpt lat="49.84534" lon="4.85475">
        <ele>283</ele>
        <time>2021-08-27T08:27:11.000Z</time>
      </trkpt>
      <trkpt lat="49.84535" lon="4.85478">
        <ele>283</ele>
        <time>2021-08-27T08:27:12.000Z</time>
      </trkpt>
      <trkpt lat="49.84536" lon="4.85481">
        <ele>283</ele>
        <time>2021-08-27T08:27:13.000Z</time>
      </trkpt>
      <trkpt lat="49.84537" lon="4.85483">
        <ele>283</ele>
        <time>2021-08-27T08:27:14.000Z</time>
      </trkpt>
      <trkpt lat="49.84538" lon="4.85486">
        <ele>282</ele>
        <time>2021-08-27T08:27:15.000Z</time>
      </trkpt>
      <trkpt lat="49.84539" lon="4.85488">
        <ele>282</ele>
        <time>2021-08-27T08:27:16.000Z</time>
      </trkpt>
      <trkpt lat="49.8454" lon="4.8549">
        <ele>282</ele>
        <time>2021-08-27T08:27:17.000Z</time>
      </trkpt>
      <trkpt lat="49.84541" lon="4.85492">
        <ele>282</ele>
        <time>2021-08-27T08:27:18.000Z</time>
      </trkpt>
      <trkpt lat="49.84542" lon="4.85494">
        <ele>282</ele>
        <time>2021-08-27T08:27:19.000Z</time>
      </trkpt>
      <trkpt lat="49.84544" lon="4.85497">
        <ele>282</ele>
        <time>2021-08-27T08:27:20.000Z</time>
      </trkpt>
      <trkpt lat="49.84545" lon="4.85499">
        <ele>282</ele>
        <time>2021-08-27T08:27:21.000Z</time>
      </trkpt>
      <trkpt lat="49.84545" lon="4.85501">
        <ele>282</ele>
        <time>2021-08-27T08:27:22.000Z</time>
      </trkpt>
      <trkpt lat="49.84545" lon="4.85503">
        <ele>282</ele>
        <time>2021-08-27T08:27:23.000Z</time>
      </trkpt>
      <trkpt lat="49.84546" lon="4.85504">
        <ele>282</ele>
        <time>2021-08-27T08:27:24.000Z</time>
      </trkpt>
      <trkpt lat="49.84546" lon="4.85507">
        <ele>282</ele>
        <time>2021-08-27T08:27:25.000Z</time>
      </trkpt>
      <trkpt lat="49.84547" lon="4.85509">
        <ele>282</ele>
        <time>2021-08-27T08:27:26.000Z</time>
      </trkpt>
      <trkpt lat="49.84548" lon="4.85512">
        <ele>282</ele>
        <time>2021-08-27T08:27:27.000Z</time>
      </trkpt>
      <trkpt lat="49.84548" lon="4.85514">
        <ele>282</ele>
        <time>2021-08-27T08:27:28.000Z</time>
      </trkpt>
      <trkpt lat="49.84549" lon="4.85516">
        <ele>282</ele>
        <time>2021-08-27T08:27:29.000Z</time>
      </trkpt>
      <trkpt lat="49.8455" lon="4.85519">
        <ele>282</ele>
        <time>2021-08-27T08:27:30.000Z</time>
      </trkpt>
      <trkpt lat="49.84551" lon="4.85521">
        <ele>282</ele>
        <time>2021-08-27T08:27:31.000Z</time>
      </trkpt>
      <trkpt lat="49.84552" lon="4.85524">
        <ele>283</ele>
        <time>2021-08-27T08:27:32.000Z</time>
      </trkpt>
      <trkpt lat="49.84553" lon="4.85526">
        <ele>283</ele>
        <time>2021-08-27T08:27:33.000Z</time>
      </trkpt>
      <trkpt lat="49.84554" lon="4.85528">
        <ele>283</ele>
        <time>2021-08-27T08:27:34.000Z</time>
      </trkpt>
      <trkpt lat="49.84555" lon="4.85531">
        <ele>283</ele>
        <time>2021-08-27T08:27:35.000Z</time>
      </trkpt>
      <trkpt lat="49.84556" lon="4.85533">
        <ele>283</ele>
        <time>2021-08-27T08:27:36.000Z</time>
      </trkpt>
      <trkpt lat="49.84557" lon="4.85535">
        <ele>283</ele>
        <time>2021-08-27T08:27:37.000Z</time>
      </trkpt>
      <trkpt lat="49.84558" lon="4.85536">
        <ele>283</ele>
        <time>2021-08-27T08:27:38.000Z</time>
      </trkpt>
      <trkpt lat="49.84559" lon="4.85536">
        <ele>283</ele>
        <time>2021-08-27T08:27:39.000Z</time>
      </trkpt>
      <trkpt lat="49.8456" lon="4.85536">
        <ele>283</ele>
        <time>2021-08-27T08:27:40.000Z</time>
      </trkpt>
      <trkpt lat="49.8456" lon="4.85536">
        <ele>283</ele>
        <time>2021-08-27T08:27:41.000Z</time>
      </trkpt>
      <trkpt lat="49.84561" lon="4.85535">
        <ele>284</ele>
        <time>2021-08-27T08:27:42.000Z</time>
      </trkpt>
      <trkpt lat="49.84561" lon="4.85534">
        <ele>284</ele>
        <time>2021-08-27T08:27:43.000Z</time>
      </trkpt>
      <trkpt lat="49.84561" lon="4.85532">
        <ele>284</ele>
        <time>2021-08-27T08:27:44.000Z</time>
      </trkpt>
      <trkpt lat="49.84561" lon="4.8553">
        <ele>284</ele>
        <time>2021-08-27T08:27:45.000Z</time>
      </trkpt>
      <trkpt lat="49.8456" lon="4.85529">
        <ele>284</ele>
        <time>2021-08-27T08:27:46.000Z</time>
      </trkpt>
      <trkpt lat="49.8456" lon="4.85527">
        <ele>284</ele>
        <time>2021-08-27T08:27:47.000Z</time>
      </trkpt>
      <trkpt lat="49.84559" lon="4.85525">
        <ele>284</ele>
        <time>2021-08-27T08:27:48.000Z</time>
      </trkpt>
      <trkpt lat="49.84559" lon="4.85523">
        <ele>284</ele>
        <time>2021-08-27T08:27:49.000Z</time>
      </trkpt>
      <trkpt lat="49.84559" lon="4.85521">
        <ele>284</ele>
        <time>2021-08-27T08:27:50.000Z</time>
      </trkpt>
      <trkpt lat="49.84558" lon="4.85519">
        <ele>284</ele>
        <time>2021-08-27T08:27:51.000Z</time>
      </trkpt>
      <trkpt lat="49.84558" lon="4.85517">
        <ele>284</ele>
        <time>2021-08-27T08:27:52.000Z</time>
      </trkpt>
      <trkpt lat="49.84557" lon="4.85514">
        <ele>284</ele>
        <time>2021-08-27T08:27:53.000Z</time>
      </trkpt>
      <trkpt lat="49.84557" lon="4.85512">
        <ele>284</ele>
        <time>2021-08-27T08:27:54.000Z</time>
      </trkpt>
      <trkpt lat="49.84556" lon="4.85509">
        <ele>285</ele>
        <time>2021-08-27T08:27:55.000Z</time>
      </trkpt>
      <trkpt lat="49.84556" lon="4.85507">
        <ele>285</ele>
        <time>2021-08-27T08:27:56.000Z</time>
      </trkpt>
      <trkpt lat="49.84555" lon="4.85504">
        <ele>285</ele>
        <time>2021-08-27T08:27:57.000Z</time>
      </trkpt>
      <trkpt lat="49.84555" lon="4.85502">
        <ele>285</ele>
        <time>2021-08-27T08:27:58.000Z</time>
      </trkpt>
      <trkpt lat="49.84554" lon="4.855">
        <ele>285</ele>
        <time>2021-08-27T08:27:59.000Z</time>
      </trkpt>
      <trkpt lat="49.84553" lon="4.85497">
        <ele>285</ele>
        <time>2021-08-27T08:28:00.000Z</time>
      </trkpt>
      <trkpt lat="49.84553" lon="4.85495">
        <ele>286</ele>
        <time>2021-08-27T08:28:01.000Z</time>
      </trkpt>
      <trkpt lat="49.84552" lon="4.85492">
        <ele>286</ele>
        <time>2021-08-27T08:28:02.000Z</time>
      </trkpt>
      <trkpt lat="49.84553" lon="4.8549">
        <ele>286</ele>
        <time>2021-08-27T08:28:03.000Z</time>
      </trkpt>
      <trkpt lat="49.84553" lon="4.85487">
        <ele>286</ele>
        <time>2021-08-27T08:28:04.000Z</time>
      </trkpt>
      <trkpt lat="49.84553" lon="4.85485">
        <ele>286</ele>
        <time>2021-08-27T08:28:05.000Z</time>
      </trkpt>
      <trkpt lat="49.84552" lon="4.85483">
        <ele>286</ele>
        <time>2021-08-27T08:28:06.000Z</time>
      </trkpt>
      <trkpt lat="49.84552" lon="4.8548">
        <ele>287</ele>
        <time>2021-08-27T08:28:07.000Z</time>
      </trkpt>
      <trkpt lat="49.84552" lon="4.85478">
        <ele>287</ele>
        <time>2021-08-27T08:28:08.000Z</time>
      </trkpt>
      <trkpt lat="49.84551" lon="4.85476">
        <ele>287</ele>
        <time>2021-08-27T08:28:09.000Z</time>
      </trkpt>
      <trkpt lat="49.84551" lon="4.85473">
        <ele>287</ele>
        <time>2021-08-27T08:28:10.000Z</time>
      </trkpt>
      <trkpt lat="49.84551" lon="4.8547">
        <ele>287</ele>
        <time>2021-08-27T08:28:11.000Z</time>
      </trkpt>
      <trkpt lat="49.8455" lon="4.85468">
        <ele>288</ele>
        <time>2021-08-27T08:28:12.000Z</time>
      </trkpt>
      <trkpt lat="49.8455" lon="4.85465">
        <ele>288</ele>
        <time>2021-08-27T08:28:13.000Z</time>
      </trkpt>
      <trkpt lat="49.8455" lon="4.85463">
        <ele>288</ele>
        <time>2021-08-27T08:28:14.000Z</time>
      </trkpt>
      <trkpt lat="49.8455" lon="4.8546">
        <ele>288</ele>
        <time>2021-08-27T08:28:15.000Z</time>
      </trkpt>
      <trkpt lat="49.8455" lon="4.85457">
        <ele>288</ele>
        <time>2021-08-27T08:28:16.000Z</time>
      </trkpt>
      <trkpt lat="49.84549" lon="4.85455">
        <ele>288</ele>
        <time>2021-08-27T08:28:17.000Z</time>
      </trkpt>
      <trkpt lat="49.84549" lon="4.85453">
        <ele>289</ele>
        <time>2021-08-27T08:28:18.000Z</time>
      </trkpt>
      <trkpt lat="49.84549" lon="4.8545">
        <ele>289</ele>
        <time>2021-08-27T08:28:19.000Z</time>
      </trkpt>
      <trkpt lat="49.84549" lon="4.85447">
        <ele>289</ele>
        <time>2021-08-27T08:28:20.000Z</time>
      </trkpt>
      <trkpt lat="49.84549" lon="4.85445">
        <ele>289</ele>
        <time>2021-08-27T08:28:21.000Z</time>
      </trkpt>
      <trkpt lat="49.84549" lon="4.85442">
        <ele>289</ele>
        <time>2021-08-27T08:28:22.000Z</time>
      </trkpt>
      <trkpt lat="49.84548" lon="4.8544">
        <ele>290</ele>
        <time>2021-08-27T08:28:23.000Z</time>
      </trkpt>
      <trkpt lat="49.84548" lon="4.85438">
        <ele>290</ele>
        <time>2021-08-27T08:28:24.000Z</time>
      </trkpt>
      <trkpt lat="49.84548" lon="4.85435">
        <ele>290</ele>
        <time>2021-08-27T08:28:25.000Z</time>
      </trkpt>
      <trkpt lat="49.84548" lon="4.85433">
        <ele>290</ele>
        <time>2021-08-27T08:28:26.000Z</time>
      </trkpt>
      <trkpt lat="49.84548" lon="4.85431">
        <ele>291</ele>
        <time>2021-08-27T08:28:27.000Z</time>
      </trkpt>
      <trkpt lat="49.84548" lon="4.85429">
        <ele>291</ele>
        <time>2021-08-27T08:28:28.000Z</time>
      </trkpt>
      <trkpt lat="49.84548" lon="4.85427">
        <ele>291</ele>
        <time>2021-08-27T08:28:29.000Z</time>
      </trkpt>
      <trkpt lat="49.84548" lon="4.85425">
        <ele>291</ele>
        <time>2021-08-27T08:28:30.000Z</time>
      </trkpt>
      <trkpt lat="49.84548" lon="4.85423">
        <ele>291</ele>
        <time>2021-08-27T08:28:31.000Z</time>
      </trkpt>
      <trkpt lat="49.84547" lon="4.85421">
        <ele>291</ele>
        <time>2021-08-27T08:28:32.000Z</time>
      </trkpt>
      <trkpt lat="49.84548" lon="4.85419">
        <ele>291</ele>
        <time>2021-08-27T08:28:33.000Z</time>
      </trkpt>
      <trkpt lat="49.84547" lon="4.85417">
        <ele>292</ele>
        <time>2021-08-27T08:28:34.000Z</time>
      </trkpt>
      <trkpt lat="49.84547" lon="4.85415">
        <ele>292</ele>
        <time>2021-08-27T08:28:35.000Z</time>
      </trkpt>
      <trkpt lat="49.84546" lon="4.85413">
        <ele>292</ele>
        <time>2021-08-27T08:28:36.000Z</time>
      </trkpt>
      <trkpt lat="49.84546" lon="4.8541">
        <ele>292</ele>
        <time>2021-08-27T08:28:37.000Z</time>
      </trkpt>
      <trkpt lat="49.84546" lon="4.85408">
        <ele>292</ele>
        <time>2021-08-27T08:28:38.000Z</time>
      </trkpt>
      <trkpt lat="49.84545" lon="4.85406">
        <ele>292</ele>
        <time>2021-08-27T08:28:39.000Z</time>
      </trkpt>
      <trkpt lat="49.84545" lon="4.85404">
        <ele>292</ele>
        <time>2021-08-27T08:28:40.000Z</time>
      </trkpt>
      <trkpt lat="49.84545" lon="4.85401">
        <ele>292</ele>
        <time>2021-08-27T08:28:41.000Z</time>
      </trkpt>
      <trkpt lat="49.84545" lon="4.85399">
        <ele>292</ele>
        <time>2021-08-27T08:28:42.000Z</time>
      </trkpt>
      <trkpt lat="49.84545" lon="4.85397">
        <ele>292</ele>
        <time>2021-08-27T08:28:43.000Z</time>
      </trkpt>
      <trkpt lat="49.84546" lon="4.85394">
        <ele>292</ele>
        <time>2021-08-27T08:28:44.000Z</time>
      </trkpt>
      <trkpt lat="49.84546" lon="4.85393">
        <ele>292</ele>
        <time>2021-08-27T08:28:45.000Z</time>
      </trkpt>
      <trkpt lat="49.84546" lon="4.85391">
        <ele>293</ele>
        <time>2021-08-27T08:28:46.000Z</time>
      </trkpt>
      <trkpt lat="49.84546" lon="4.85389">
        <ele>293</ele>
        <time>2021-08-27T08:28:47.000Z</time>
      </trkpt>
      <trkpt lat="49.84546" lon="4.85387">
        <ele>293</ele>
        <time>2021-08-27T08:28:48.000Z</time>
      </trkpt>
      <trkpt lat="49.84545" lon="4.85385">
        <ele>293</ele>
        <time>2021-08-27T08:28:49.000Z</time>
      </trkpt>
      <trkpt lat="49.84545" lon="4.85383">
        <ele>293</ele>
        <time>2021-08-27T08:28:50.000Z</time>
      </trkpt>
      <trkpt lat="49.84545" lon="4.85381">
        <ele>293</ele>
        <time>2021-08-27T08:28:51.000Z</time>
      </trkpt>
      <trkpt lat="49.84545" lon="4.85379">
        <ele>294</ele>
        <time>2021-08-27T08:28:52.000Z</time>
      </trkpt>
      <trkpt lat="49.84544" lon="4.85377">
        <ele>294</ele>
        <time>2021-08-27T08:28:53.000Z</time>
      </trkpt>
      <trkpt lat="49.84544" lon="4.85375">
        <ele>294</ele>
        <time>2021-08-27T08:28:54.000Z</time>
      </trkpt>
      <trkpt lat="49.84543" lon="4.85373">
        <ele>294</ele>
        <time>2021-08-27T08:28:55.000Z</time>
      </trkpt>
      <trkpt lat="49.84543" lon="4.85371">
        <ele>294</ele>
        <time>2021-08-27T08:28:56.000Z</time>
      </trkpt>
      <trkpt lat="49.84543" lon="4.85369">
        <ele>295</ele>
        <time>2021-08-27T08:28:57.000Z</time>
      </trkpt>
      <trkpt lat="49.84543" lon="4.85367">
        <ele>295</ele>
        <time>2021-08-27T08:28:58.000Z</time>
      </trkpt>
      <trkpt lat="49.84543" lon="4.85364">
        <ele>295</ele>
        <time>2021-08-27T08:28:59.000Z</time>
      </trkpt>
      <trkpt lat="49.84542" lon="4.85362">
        <ele>295</ele>
        <time>2021-08-27T08:29:00.000Z</time>
      </trkpt>
      <trkpt lat="49.84542" lon="4.8536">
        <ele>296</ele>
        <time>2021-08-27T08:29:01.000Z</time>
      </trkpt>
      <trkpt lat="49.84542" lon="4.85358">
        <ele>296</ele>
        <time>2021-08-27T08:29:02.000Z</time>
      </trkpt>
      <trkpt lat="49.84541" lon="4.85356">
        <ele>296</ele>
        <time>2021-08-27T08:29:03.000Z</time>
      </trkpt>
      <trkpt lat="49.84541" lon="4.85354">
        <ele>297</ele>
        <time>2021-08-27T08:29:04.000Z</time>
      </trkpt>
      <trkpt lat="49.84541" lon="4.85352">
        <ele>297</ele>
        <time>2021-08-27T08:29:05.000Z</time>
      </trkpt>
      <trkpt lat="49.8454" lon="4.8535">
        <ele>297</ele>
        <time>2021-08-27T08:29:06.000Z</time>
      </trkpt>
      <trkpt lat="49.84539" lon="4.85348">
        <ele>298</ele>
        <time>2021-08-27T08:29:07.000Z</time>
      </trkpt>
      <trkpt lat="49.84539" lon="4.85346">
        <ele>298</ele>
        <time>2021-08-27T08:29:08.000Z</time>
      </trkpt>
      <trkpt lat="49.84538" lon="4.85344">
        <ele>298</ele>
        <time>2021-08-27T08:29:09.000Z</time>
      </trkpt>
      <trkpt lat="49.84537" lon="4.85342">
        <ele>298</ele>
        <time>2021-08-27T08:29:10.000Z</time>
      </trkpt>
      <trkpt lat="49.84537" lon="4.8534">
        <ele>299</ele>
        <time>2021-08-27T08:29:11.000Z</time>
      </trkpt>
      <trkpt lat="49.84537" lon="4.85338">
        <ele>299</ele>
        <time>2021-08-27T08:29:12.000Z</time>
      </trkpt>
      <trkpt lat="49.84536" lon="4.85336">
        <ele>299</ele>
        <time>2021-08-27T08:29:13.000Z</time>
      </trkpt>
      <trkpt lat="49.84536" lon="4.85334">
        <ele>300</ele>
        <time>2021-08-27T08:29:14.000Z</time>
      </trkpt>
      <trkpt lat="49.84535" lon="4.85332">
        <ele>300</ele>
        <time>2021-08-27T08:29:15.000Z</time>
      </trkpt>
      <trkpt lat="49.84535" lon="4.8533">
        <ele>300</ele>
        <time>2021-08-27T08:29:16.000Z</time>
      </trkpt>
      <trkpt lat="49.84534" lon="4.85328">
        <ele>300</ele>
        <time>2021-08-27T08:29:17.000Z</time>
      </trkpt>
      <trkpt lat="49.84534" lon="4.85327">
        <ele>300</ele>
        <time>2021-08-27T08:29:18.000Z</time>
      </trkpt>
      <trkpt lat="49.84533" lon="4.85325">
        <ele>301</ele>
        <time>2021-08-27T08:29:19.000Z</time>
      </trkpt>
      <trkpt lat="49.84533" lon="4.85323">
        <ele>301</ele>
        <time>2021-08-27T08:29:20.000Z</time>
      </trkpt>
      <trkpt lat="49.84532" lon="4.85322">
        <ele>301</ele>
        <time>2021-08-27T08:29:21.000Z</time>
      </trkpt>
      <trkpt lat="49.84532" lon="4.8532">
        <ele>301</ele>
        <time>2021-08-27T08:29:22.000Z</time>
      </trkpt>
      <trkpt lat="49.84531" lon="4.85318">
        <ele>301</ele>
        <time>2021-08-27T08:29:23.000Z</time>
      </trkpt>
      <trkpt lat="49.84531" lon="4.85317">
        <ele>301</ele>
        <time>2021-08-27T08:29:24.000Z</time>
      </trkpt>
      <trkpt lat="49.8453" lon="4.85315">
        <ele>301</ele>
        <time>2021-08-27T08:29:25.000Z</time>
      </trkpt>
      <trkpt lat="49.8453" lon="4.85313">
        <ele>301</ele>
        <time>2021-08-27T08:29:26.000Z</time>
      </trkpt>
      <trkpt lat="49.84529" lon="4.8531">
        <ele>301</ele>
        <time>2021-08-27T08:29:27.000Z</time>
      </trkpt>
      <trkpt lat="49.84529" lon="4.85309">
        <ele>301</ele>
        <time>2021-08-27T08:29:28.000Z</time>
      </trkpt>
      <trkpt lat="49.84528" lon="4.85307">
        <ele>301</ele>
        <time>2021-08-27T08:29:29.000Z</time>
      </trkpt>
      <trkpt lat="49.84528" lon="4.85305">
        <ele>301</ele>
        <time>2021-08-27T08:29:30.000Z</time>
      </trkpt>
      <trkpt lat="49.84527" lon="4.85303">
        <ele>301</ele>
        <time>2021-08-27T08:29:31.000Z</time>
      </trkpt>
      <trkpt lat="49.84527" lon="4.85301">
        <ele>301</ele>
        <time>2021-08-27T08:29:32.000Z</time>
      </trkpt>
      <trkpt lat="49.84527" lon="4.85299">
        <ele>301</ele>
        <time>2021-08-27T08:29:33.000Z</time>
      </trkpt>
      <trkpt lat="49.84526" lon="4.85298">
        <ele>302</ele>
        <time>2021-08-27T08:29:34.000Z</time>
      </trkpt>
      <trkpt lat="49.84525" lon="4.85296">
        <ele>302</ele>
        <time>2021-08-27T08:29:35.000Z</time>
      </trkpt>
      <trkpt lat="49.84524" lon="4.85294">
        <ele>302</ele>
        <time>2021-08-27T08:29:36.000Z</time>
      </trkpt>
      <trkpt lat="49.84524" lon="4.85292">
        <ele>302</ele>
        <time>2021-08-27T08:29:37.000Z</time>
      </trkpt>
      <trkpt lat="49.84523" lon="4.8529">
        <ele>302</ele>
        <time>2021-08-27T08:29:38.000Z</time>
      </trkpt>
      <trkpt lat="49.84522" lon="4.85288">
        <ele>302</ele>
        <time>2021-08-27T08:29:39.000Z</time>
      </trkpt>
      <trkpt lat="49.84521" lon="4.85286">
        <ele>302</ele>
        <time>2021-08-27T08:29:40.000Z</time>
      </trkpt>
      <trkpt lat="49.84521" lon="4.85284">
        <ele>302</ele>
        <time>2021-08-27T08:29:41.000Z</time>
      </trkpt>
      <trkpt lat="49.8452" lon="4.85283">
        <ele>302</ele>
        <time>2021-08-27T08:29:42.000Z</time>
      </trkpt>
      <trkpt lat="49.8452" lon="4.85281">
        <ele>302</ele>
        <time>2021-08-27T08:29:43.000Z</time>
      </trkpt>
      <trkpt lat="49.84519" lon="4.85279">
        <ele>302</ele>
        <time>2021-08-27T08:29:44.000Z</time>
      </trkpt>
      <trkpt lat="49.84519" lon="4.85278">
        <ele>302</ele>
        <time>2021-08-27T08:29:45.000Z</time>
      </trkpt>
      <trkpt lat="49.84518" lon="4.85276">
        <ele>302</ele>
        <time>2021-08-27T08:29:46.000Z</time>
      </trkpt>
      <trkpt lat="49.84517" lon="4.85275">
        <ele>302</ele>
        <time>2021-08-27T08:29:47.000Z</time>
      </trkpt>
      <trkpt lat="49.84517" lon="4.85274">
        <ele>302</ele>
        <time>2021-08-27T08:29:48.000Z</time>
      </trkpt>
      <trkpt lat="49.84516" lon="4.85272">
        <ele>303</ele>
        <time>2021-08-27T08:29:49.000Z</time>
      </trkpt>
      <trkpt lat="49.84515" lon="4.8527">
        <ele>303</ele>
        <time>2021-08-27T08:29:50.000Z</time>
      </trkpt>
      <trkpt lat="49.84514" lon="4.85269">
        <ele>303</ele>
        <time>2021-08-27T08:29:51.000Z</time>
      </trkpt>
      <trkpt lat="49.84513" lon="4.85267">
        <ele>303</ele>
        <time>2021-08-27T08:29:52.000Z</time>
      </trkpt>
      <trkpt lat="49.84512" lon="4.85265">
        <ele>303</ele>
        <time>2021-08-27T08:29:53.000Z</time>
      </trkpt>
      <trkpt lat="49.84511" lon="4.85263">
        <ele>303</ele>
        <time>2021-08-27T08:29:54.000Z</time>
      </trkpt>
      <trkpt lat="49.8451" lon="4.8526">
        <ele>304</ele>
        <time>2021-08-27T08:29:55.000Z</time>
      </trkpt>
      <trkpt lat="49.8451" lon="4.85258">
        <ele>304</ele>
        <time>2021-08-27T08:29:56.000Z</time>
      </trkpt>
      <trkpt lat="49.84508" lon="4.85256">
        <ele>304</ele>
        <time>2021-08-27T08:29:57.000Z</time>
      </trkpt>
      <trkpt lat="49.84507" lon="4.85254">
        <ele>304</ele>
        <time>2021-08-27T08:29:58.000Z</time>
      </trkpt>
      <trkpt lat="49.84506" lon="4.85252">
        <ele>304</ele>
        <time>2021-08-27T08:29:59.000Z</time>
      </trkpt>
      <trkpt lat="49.84505" lon="4.8525">
        <ele>304</ele>
        <time>2021-08-27T08:30:00.000Z</time>
      </trkpt>
      <trkpt lat="49.84504" lon="4.85247">
        <ele>305</ele>
        <time>2021-08-27T08:30:01.000Z</time>
      </trkpt>
      <trkpt lat="49.84503" lon="4.85245">
        <ele>305</ele>
        <time>2021-08-27T08:30:02.000Z</time>
      </trkpt>
      <trkpt lat="49.84503" lon="4.85243">
        <ele>305</ele>
        <time>2021-08-27T08:30:03.000Z</time>
      </trkpt>
      <trkpt lat="49.84502" lon="4.85242">
        <ele>305</ele>
        <time>2021-08-27T08:30:04.000Z</time>
      </trkpt>
      <trkpt lat="49.84501" lon="4.8524">
        <ele>305</ele>
        <time>2021-08-27T08:30:05.000Z</time>
      </trkpt>
      <trkpt lat="49.845" lon="4.85239">
        <ele>306</ele>
        <time>2021-08-27T08:30:06.000Z</time>
      </trkpt>
      <trkpt lat="49.84498" lon="4.85237">
        <ele>306</ele>
        <time>2021-08-27T08:30:07.000Z</time>
      </trkpt>
      <trkpt lat="49.84497" lon="4.85235">
        <ele>306</ele>
        <time>2021-08-27T08:30:08.000Z</time>
      </trkpt>
      <trkpt lat="49.84496" lon="4.85234">
        <ele>306</ele>
        <time>2021-08-27T08:30:09.000Z</time>
      </trkpt>
      <trkpt lat="49.84495" lon="4.85232">
        <ele>306</ele>
        <time>2021-08-27T08:30:10.000Z</time>
      </trkpt>
      <trkpt lat="49.84494" lon="4.8523">
        <ele>306</ele>
        <time>2021-08-27T08:30:11.000Z</time>
      </trkpt>
      <trkpt lat="49.84492" lon="4.85227">
        <ele>306</ele>
        <time>2021-08-27T08:30:12.000Z</time>
      </trkpt>
      <trkpt lat="49.84491" lon="4.85225">
        <ele>306</ele>
        <time>2021-08-27T08:30:13.000Z</time>
      </trkpt>
      <trkpt lat="49.8449" lon="4.85222">
        <ele>306</ele>
        <time>2021-08-27T08:30:14.000Z</time>
      </trkpt>
      <trkpt lat="49.84488" lon="4.85219">
        <ele>306</ele>
        <time>2021-08-27T08:30:15.000Z</time>
      </trkpt>
      <trkpt lat="49.84486" lon="4.85217">
        <ele>306</ele>
        <time>2021-08-27T08:30:16.000Z</time>
      </trkpt>
      <trkpt lat="49.84485" lon="4.85214">
        <ele>306</ele>
        <time>2021-08-27T08:30:17.000Z</time>
      </trkpt>
      <trkpt lat="49.84483" lon="4.85211">
        <ele>306</ele>
        <time>2021-08-27T08:30:18.000Z</time>
      </trkpt>
      <trkpt lat="49.84481" lon="4.85208">
        <ele>306</ele>
        <time>2021-08-27T08:30:19.000Z</time>
      </trkpt>
      <trkpt lat="49.8448" lon="4.85205">
        <ele>305</ele>
        <time>2021-08-27T08:30:20.000Z</time>
      </trkpt>
      <trkpt lat="49.84478" lon="4.85202">
        <ele>305</ele>
        <time>2021-08-27T08:30:21.000Z</time>
      </trkpt>
      <trkpt lat="49.84476" lon="4.85199">
        <ele>305</ele>
        <time>2021-08-27T08:30:22.000Z</time>
      </trkpt>
      <trkpt lat="49.84475" lon="4.85196">
        <ele>305</ele>
        <time>2021-08-27T08:30:23.000Z</time>
      </trkpt>
      <trkpt lat="49.84473" lon="4.85193">
        <ele>305</ele>
        <time>2021-08-27T08:30:24.000Z</time>
      </trkpt>
      <trkpt lat="49.84471" lon="4.8519">
        <ele>305</ele>
        <time>2021-08-27T08:30:25.000Z</time>
      </trkpt>
      <trkpt lat="49.8447" lon="4.85187">
        <ele>305</ele>
        <time>2021-08-27T08:30:26.000Z</time>
      </trkpt>
      <trkpt lat="49.84468" lon="4.85184">
        <ele>305</ele>
        <time>2021-08-27T08:30:27.000Z</time>
      </trkpt>
      <trkpt lat="49.84467" lon="4.85181">
        <ele>305</ele>
        <time>2021-08-27T08:30:28.000Z</time>
      </trkpt>
      <trkpt lat="49.84465" lon="4.85177">
        <ele>305</ele>
        <time>2021-08-27T08:30:29.000Z</time>
      </trkpt>
      <trkpt lat="49.84464" lon="4.85174">
        <ele>305</ele>
        <time>2021-08-27T08:30:30.000Z</time>
      </trkpt>
      <trkpt lat="49.84462" lon="4.8517">
        <ele>305</ele>
        <time>2021-08-27T08:30:31.000Z</time>
      </trkpt>
      <trkpt lat="49.84462" lon="4.85166">
        <ele>305</ele>
        <time>2021-08-27T08:30:32.000Z</time>
      </trkpt>
      <trkpt lat="49.84461" lon="4.85163">
        <ele>305</ele>
        <time>2021-08-27T08:30:33.000Z</time>
      </trkpt>
      <trkpt lat="49.84459" lon="4.85161">
        <ele>305</ele>
        <time>2021-08-27T08:30:34.000Z</time>
      </trkpt>
      <trkpt lat="49.84459" lon="4.85157">
        <ele>305</ele>
        <time>2021-08-27T08:30:35.000Z</time>
      </trkpt>
      <trkpt lat="49.84458" lon="4.85154">
        <ele>305</ele>
        <time>2021-08-27T08:30:36.000Z</time>
      </trkpt>
      <trkpt lat="49.84457" lon="4.8515">
        <ele>305</ele>
        <time>2021-08-27T08:30:37.000Z</time>
      </trkpt>
      <trkpt lat="49.84457" lon="4.85147">
        <ele>305</ele>
        <time>2021-08-27T08:30:38.000Z</time>
      </trkpt>
      <trkpt lat="49.84456" lon="4.85144">
        <ele>305</ele>
        <time>2021-08-27T08:30:39.000Z</time>
      </trkpt>
      <trkpt lat="49.84454" lon="4.85141">
        <ele>304</ele>
        <time>2021-08-27T08:30:40.000Z</time>
      </trkpt>
      <trkpt lat="49.84453" lon="4.85138">
        <ele>304</ele>
        <time>2021-08-27T08:30:41.000Z</time>
      </trkpt>
      <trkpt lat="49.84452" lon="4.85135">
        <ele>304</ele>
        <time>2021-08-27T08:30:42.000Z</time>
      </trkpt>
      <trkpt lat="49.8445" lon="4.85132">
        <ele>304</ele>
        <time>2021-08-27T08:30:43.000Z</time>
      </trkpt>
      <trkpt lat="49.84449" lon="4.85127">
        <ele>304</ele>
        <time>2021-08-27T08:30:44.000Z</time>
      </trkpt>
      <trkpt lat="49.84448" lon="4.85123">
        <ele>304</ele>
        <time>2021-08-27T08:30:45.000Z</time>
      </trkpt>
      <trkpt lat="49.84446" lon="4.8512">
        <ele>305</ele>
        <time>2021-08-27T08:30:46.000Z</time>
      </trkpt>
      <trkpt lat="49.84445" lon="4.85116">
        <ele>305</ele>
        <time>2021-08-27T08:30:47.000Z</time>
      </trkpt>
      <trkpt lat="49.84444" lon="4.85113">
        <ele>305</ele>
        <time>2021-08-27T08:30:48.000Z</time>
      </trkpt>
      <trkpt lat="49.84443" lon="4.8511">
        <ele>305</ele>
        <time>2021-08-27T08:30:49.000Z</time>
      </trkpt>
      <trkpt lat="49.84442" lon="4.85107">
        <ele>305</ele>
        <time>2021-08-27T08:30:50.000Z</time>
      </trkpt>
      <trkpt lat="49.84441" lon="4.85105">
        <ele>305</ele>
        <time>2021-08-27T08:30:51.000Z</time>
      </trkpt>
      <trkpt lat="49.8444" lon="4.85102">
        <ele>305</ele>
        <time>2021-08-27T08:30:52.000Z</time>
      </trkpt>
      <trkpt lat="49.8444" lon="4.851">
        <ele>305</ele>
        <time>2021-08-27T08:30:53.000Z</time>
      </trkpt>
      <trkpt lat="49.84439" lon="4.85097">
        <ele>306</ele>
        <time>2021-08-27T08:30:54.000Z</time>
      </trkpt>
      <trkpt lat="49.84438" lon="4.85095">
        <ele>306</ele>
        <time>2021-08-27T08:30:55.000Z</time>
      </trkpt>
      <trkpt lat="49.84437" lon="4.85092">
        <ele>306</ele>
        <time>2021-08-27T08:30:56.000Z</time>
      </trkpt>
      <trkpt lat="49.84436" lon="4.85089">
        <ele>306</ele>
        <time>2021-08-27T08:30:57.000Z</time>
      </trkpt>
      <trkpt lat="49.84435" lon="4.85086">
        <ele>306</ele>
        <time>2021-08-27T08:30:58.000Z</time>
      </trkpt>
      <trkpt lat="49.84434" lon="4.85084">
        <ele>306</ele>
        <time>2021-08-27T08:30:59.000Z</time>
      </trkpt>
      <trkpt lat="49.84433" lon="4.85081">
        <ele>306</ele>
        <time>2021-08-27T08:31:00.000Z</time>
      </trkpt>
      <trkpt lat="49.84431" lon="4.85078">
        <ele>306</ele>
        <time>2021-08-27T08:31:01.000Z</time>
      </trkpt>
      <trkpt lat="49.8443" lon="4.85075">
        <ele>306</ele>
        <time>2021-08-27T08:31:02.000Z</time>
      </trkpt>
      <trkpt lat="49.84429" lon="4.85071">
        <ele>306</ele>
        <time>2021-08-27T08:31:03.000Z</time>
      </trkpt>
      <trkpt lat="49.84427" lon="4.85068">
        <ele>306</ele>
        <time>2021-08-27T08:31:04.000Z</time>
      </trkpt>
      <trkpt lat="49.84426" lon="4.85064">
        <ele>306</ele>
        <time>2021-08-27T08:31:05.000Z</time>
      </trkpt>
      <trkpt lat="49.84425" lon="4.8506">
        <ele>306</ele>
        <time>2021-08-27T08:31:06.000Z</time>
      </trkpt>
      <trkpt lat="49.84424" lon="4.85057">
        <ele>306</ele>
        <time>2021-08-27T08:31:07.000Z</time>
      </trkpt>
      <trkpt lat="49.84424" lon="4.85054">
        <ele>307</ele>
        <time>2021-08-27T08:31:08.000Z</time>
      </trkpt>
      <trkpt lat="49.84423" lon="4.85052">
        <ele>307</ele>
        <time>2021-08-27T08:31:09.000Z</time>
      </trkpt>
      <trkpt lat="49.84422" lon="4.85049">
        <ele>307</ele>
        <time>2021-08-27T08:31:10.000Z</time>
      </trkpt>
      <trkpt lat="49.84421" lon="4.85045">
        <ele>307</ele>
        <time>2021-08-27T08:31:11.000Z</time>
      </trkpt>
      <trkpt lat="49.84421" lon="4.85042">
        <ele>307</ele>
        <time>2021-08-27T08:31:12.000Z</time>
      </trkpt>
      <trkpt lat="49.8442" lon="4.85038">
        <ele>307</ele>
        <time>2021-08-27T08:31:13.000Z</time>
      </trkpt>
      <trkpt lat="49.84419" lon="4.85034">
        <ele>307</ele>
        <time>2021-08-27T08:31:14.000Z</time>
      </trkpt>
      <trkpt lat="49.84418" lon="4.8503">
        <ele>307</ele>
        <time>2021-08-27T08:31:15.000Z</time>
      </trkpt>
      <trkpt lat="49.84417" lon="4.85026">
        <ele>307</ele>
        <time>2021-08-27T08:31:16.000Z</time>
      </trkpt>
      <trkpt lat="49.84415" lon="4.85022">
        <ele>307</ele>
        <time>2021-08-27T08:31:17.000Z</time>
      </trkpt>
      <trkpt lat="49.84414" lon="4.85018">
        <ele>307</ele>
        <time>2021-08-27T08:31:18.000Z</time>
      </trkpt>
      <trkpt lat="49.84412" lon="4.85014">
        <ele>308</ele>
        <time>2021-08-27T08:31:19.000Z</time>
      </trkpt>
      <trkpt lat="49.84411" lon="4.8501">
        <ele>308</ele>
        <time>2021-08-27T08:31:20.000Z</time>
      </trkpt>
      <trkpt lat="49.84409" lon="4.85007">
        <ele>308</ele>
        <time>2021-08-27T08:31:21.000Z</time>
      </trkpt>
      <trkpt lat="49.84407" lon="4.85003">
        <ele>308</ele>
        <time>2021-08-27T08:31:22.000Z</time>
      </trkpt>
      <trkpt lat="49.84406" lon="4.84999">
        <ele>308</ele>
        <time>2021-08-27T08:31:23.000Z</time>
      </trkpt>
      <trkpt lat="49.84404" lon="4.84995">
        <ele>308</ele>
        <time>2021-08-27T08:31:24.000Z</time>
      </trkpt>
      <trkpt lat="49.84402" lon="4.84992">
        <ele>308</ele>
        <time>2021-08-27T08:31:25.000Z</time>
      </trkpt>
      <trkpt lat="49.844" lon="4.84989">
        <ele>308</ele>
        <time>2021-08-27T08:31:26.000Z</time>
      </trkpt>
      <trkpt lat="49.84399" lon="4.84986">
        <ele>309</ele>
        <time>2021-08-27T08:31:27.000Z</time>
      </trkpt>
      <trkpt lat="49.84397" lon="4.84983">
        <ele>309</ele>
        <time>2021-08-27T08:31:28.000Z</time>
      </trkpt>
      <trkpt lat="49.84395" lon="4.84981">
        <ele>309</ele>
        <time>2021-08-27T08:31:29.000Z</time>
      </trkpt>
      <trkpt lat="49.84394" lon="4.84979">
        <ele>309</ele>
        <time>2021-08-27T08:31:30.000Z</time>
      </trkpt>
      <trkpt lat="49.84392" lon="4.84976">
        <ele>309</ele>
        <time>2021-08-27T08:31:31.000Z</time>
      </trkpt>
      <trkpt lat="49.84391" lon="4.84973">
        <ele>309</ele>
        <time>2021-08-27T08:31:32.000Z</time>
      </trkpt>
      <trkpt lat="49.8439" lon="4.8497">
        <ele>309</ele>
        <time>2021-08-27T08:31:33.000Z</time>
      </trkpt>
      <trkpt lat="49.84389" lon="4.84967">
        <ele>309</ele>
        <time>2021-08-27T08:31:34.000Z</time>
      </trkpt>
      <trkpt lat="49.84388" lon="4.84964">
        <ele>309</ele>
        <time>2021-08-27T08:31:35.000Z</time>
      </trkpt>
      <trkpt lat="49.84387" lon="4.84962">
        <ele>309</ele>
        <time>2021-08-27T08:31:36.000Z</time>
      </trkpt>
      <trkpt lat="49.84385" lon="4.84959">
        <ele>309</ele>
        <time>2021-08-27T08:31:37.000Z</time>
      </trkpt>
      <trkpt lat="49.84384" lon="4.84956">
        <ele>309</ele>
        <time>2021-08-27T08:31:38.000Z</time>
      </trkpt>
      <trkpt lat="49.84383" lon="4.84952">
        <ele>309</ele>
        <time>2021-08-27T08:31:39.000Z</time>
      </trkpt>
      <trkpt lat="49.84382" lon="4.8495">
        <ele>309</ele>
        <time>2021-08-27T08:31:40.000Z</time>
      </trkpt>
      <trkpt lat="49.84381" lon="4.84946">
        <ele>309</ele>
        <time>2021-08-27T08:31:41.000Z</time>
      </trkpt>
      <trkpt lat="49.8438" lon="4.84943">
        <ele>309</ele>
        <time>2021-08-27T08:31:42.000Z</time>
      </trkpt>
      <trkpt lat="49.84379" lon="4.8494">
        <ele>309</ele>
        <time>2021-08-27T08:31:43.000Z</time>
      </trkpt>
      <trkpt lat="49.84378" lon="4.84936">
        <ele>308</ele>
        <time>2021-08-27T08:31:44.000Z</time>
      </trkpt>
      <trkpt lat="49.84376" lon="4.84933">
        <ele>308</ele>
        <time>2021-08-27T08:31:45.000Z</time>
      </trkpt>
      <trkpt lat="49.84375" lon="4.84929">
        <ele>308</ele>
        <time>2021-08-27T08:31:46.000Z</time>
      </trkpt>
      <trkpt lat="49.84373" lon="4.84926">
        <ele>308</ele>
        <time>2021-08-27T08:31:47.000Z</time>
      </trkpt>
      <trkpt lat="49.84371" lon="4.84924">
        <ele>308</ele>
        <time>2021-08-27T08:31:48.000Z</time>
      </trkpt>
      <trkpt lat="49.84369" lon="4.84922">
        <ele>308</ele>
        <time>2021-08-27T08:31:49.000Z</time>
      </trkpt>
      <trkpt lat="49.84367" lon="4.84919">
        <ele>308</ele>
        <time>2021-08-27T08:31:50.000Z</time>
      </trkpt>
      <trkpt lat="49.84365" lon="4.84916">
        <ele>308</ele>
        <time>2021-08-27T08:31:51.000Z</time>
      </trkpt>
      <trkpt lat="49.84363" lon="4.84914">
        <ele>308</ele>
        <time>2021-08-27T08:31:52.000Z</time>
      </trkpt>
      <trkpt lat="49.84361" lon="4.84911">
        <ele>308</ele>
        <time>2021-08-27T08:31:53.000Z</time>
      </trkpt>
      <trkpt lat="49.84359" lon="4.84909">
        <ele>308</ele>
        <time>2021-08-27T08:31:54.000Z</time>
      </trkpt>
      <trkpt lat="49.84359" lon="4.84906">
        <ele>308</ele>
        <time>2021-08-27T08:31:55.000Z</time>
      </trkpt>
      <trkpt lat="49.84357" lon="4.84904">
        <ele>308</ele>
        <time>2021-08-27T08:31:56.000Z</time>
      </trkpt>
      <trkpt lat="49.84356" lon="4.84903">
        <ele>308</ele>
        <time>2021-08-27T08:31:57.000Z</time>
      </trkpt>
      <trkpt lat="49.84355" lon="4.849">
        <ele>308</ele>
        <time>2021-08-27T08:31:58.000Z</time>
      </trkpt>
      <trkpt lat="49.84353" lon="4.84898">
        <ele>308</ele>
        <time>2021-08-27T08:31:59.000Z</time>
      </trkpt>
      <trkpt lat="49.84351" lon="4.84896">
        <ele>308</ele>
        <time>2021-08-27T08:32:00.000Z</time>
      </trkpt>
      <trkpt lat="49.84349" lon="4.84893">
        <ele>308</ele>
        <time>2021-08-27T08:32:01.000Z</time>
      </trkpt>
      <trkpt lat="49.84346" lon="4.84891">
        <ele>308</ele>
        <time>2021-08-27T08:32:02.000Z</time>
      </trkpt>
      <trkpt lat="49.84344" lon="4.84888">
        <ele>308</ele>
        <time>2021-08-27T08:32:03.000Z</time>
      </trkpt>
      <trkpt lat="49.84342" lon="4.84885">
        <ele>308</ele>
        <time>2021-08-27T08:32:04.000Z</time>
      </trkpt>
      <trkpt lat="49.8434" lon="4.84882">
        <ele>308</ele>
        <time>2021-08-27T08:32:05.000Z</time>
      </trkpt>
      <trkpt lat="49.84338" lon="4.8488">
        <ele>308</ele>
        <time>2021-08-27T08:32:06.000Z</time>
      </trkpt>
      <trkpt lat="49.84337" lon="4.84877">
        <ele>308</ele>
        <time>2021-08-27T08:32:07.000Z</time>
      </trkpt>
      <trkpt lat="49.84335" lon="4.84875">
        <ele>308</ele>
        <time>2021-08-27T08:32:08.000Z</time>
      </trkpt>
      <trkpt lat="49.84333" lon="4.84874">
        <ele>308</ele>
        <time>2021-08-27T08:32:09.000Z</time>
      </trkpt>
      <trkpt lat="49.84331" lon="4.84872">
        <ele>308</ele>
        <time>2021-08-27T08:32:10.000Z</time>
      </trkpt>
      <trkpt lat="49.84329" lon="4.8487">
        <ele>308</ele>
        <time>2021-08-27T08:32:11.000Z</time>
      </trkpt>
      <trkpt lat="49.84327" lon="4.84868">
        <ele>308</ele>
        <time>2021-08-27T08:32:12.000Z</time>
      </trkpt>
      <trkpt lat="49.84325" lon="4.84867">
        <ele>308</ele>
        <time>2021-08-27T08:32:13.000Z</time>
      </trkpt>
      <trkpt lat="49.84322" lon="4.84865">
        <ele>308</ele>
        <time>2021-08-27T08:32:14.000Z</time>
      </trkpt>
      <trkpt lat="49.8432" lon="4.84864">
        <ele>308</ele>
        <time>2021-08-27T08:32:15.000Z</time>
      </trkpt>
      <trkpt lat="49.84317" lon="4.84864">
        <ele>309</ele>
        <time>2021-08-27T08:32:16.000Z</time>
      </trkpt>
      <trkpt lat="49.84315" lon="4.84863">
        <ele>309</ele>
        <time>2021-08-27T08:32:17.000Z</time>
      </trkpt>
      <trkpt lat="49.84313" lon="4.84862">
        <ele>309</ele>
        <time>2021-08-27T08:32:18.000Z</time>
      </trkpt>
      <trkpt lat="49.8431" lon="4.8486">
        <ele>309</ele>
        <time>2021-08-27T08:32:19.000Z</time>
      </trkpt>
      <trkpt lat="49.84308" lon="4.84859">
        <ele>309</ele>
        <time>2021-08-27T08:32:20.000Z</time>
      </trkpt>
      <trkpt lat="49.84306" lon="4.84858">
        <ele>309</ele>
        <time>2021-08-27T08:32:21.000Z</time>
      </trkpt>
      <trkpt lat="49.84304" lon="4.84858">
        <ele>309</ele>
        <time>2021-08-27T08:32:22.000Z</time>
      </trkpt>
      <trkpt lat="49.84302" lon="4.84857">
        <ele>309</ele>
        <time>2021-08-27T08:32:23.000Z</time>
      </trkpt>
      <trkpt lat="49.843" lon="4.84857">
        <ele>309</ele>
        <time>2021-08-27T08:32:24.000Z</time>
      </trkpt>
      <trkpt lat="49.84298" lon="4.84858">
        <ele>309</ele>
        <time>2021-08-27T08:32:25.000Z</time>
      </trkpt>
      <trkpt lat="49.84296" lon="4.84859">
        <ele>309</ele>
        <time>2021-08-27T08:32:26.000Z</time>
      </trkpt>
      <trkpt lat="49.84295" lon="4.8486">
        <ele>310</ele>
        <time>2021-08-27T08:32:27.000Z</time>
      </trkpt>
      <trkpt lat="49.84294" lon="4.84861">
        <ele>310</ele>
        <time>2021-08-27T08:32:28.000Z</time>
      </trkpt>
      <trkpt lat="49.84293" lon="4.84862">
        <ele>310</ele>
        <time>2021-08-27T08:32:29.000Z</time>
      </trkpt>
      <trkpt lat="49.84291" lon="4.84863">
        <ele>310</ele>
        <time>2021-08-27T08:32:30.000Z</time>
      </trkpt>
      <trkpt lat="49.8429" lon="4.84864">
        <ele>311</ele>
        <time>2021-08-27T08:32:31.000Z</time>
      </trkpt>
      <trkpt lat="49.84289" lon="4.84865">
        <ele>311</ele>
        <time>2021-08-27T08:32:32.000Z</time>
      </trkpt>
      <trkpt lat="49.84287" lon="4.84867">
        <ele>311</ele>
        <time>2021-08-27T08:32:33.000Z</time>
      </trkpt>
      <trkpt lat="49.84285" lon="4.84869">
        <ele>311</ele>
        <time>2021-08-27T08:32:34.000Z</time>
      </trkpt>
      <trkpt lat="49.84284" lon="4.84871">
        <ele>312</ele>
        <time>2021-08-27T08:32:35.000Z</time>
      </trkpt>
      <trkpt lat="49.84283" lon="4.84873">
        <ele>312</ele>
        <time>2021-08-27T08:32:36.000Z</time>
      </trkpt>
      <trkpt lat="49.84282" lon="4.84875">
        <ele>312</ele>
        <time>2021-08-27T08:32:37.000Z</time>
      </trkpt>
      <trkpt lat="49.84281" lon="4.84877">
        <ele>312</ele>
        <time>2021-08-27T08:32:38.000Z</time>
      </trkpt>
      <trkpt lat="49.84279" lon="4.8488">
        <ele>313</ele>
        <time>2021-08-27T08:32:39.000Z</time>
      </trkpt>
      <trkpt lat="49.84279" lon="4.84883">
        <ele>313</ele>
        <time>2021-08-27T08:32:40.000Z</time>
      </trkpt>
      <trkpt lat="49.84278" lon="4.84886">
        <ele>313</ele>
        <time>2021-08-27T08:32:41.000Z</time>
      </trkpt>
      <trkpt lat="49.84277" lon="4.84888">
        <ele>313</ele>
        <time>2021-08-27T08:32:42.000Z</time>
      </trkpt>
      <trkpt lat="49.84276" lon="4.84891">
        <ele>314</ele>
        <time>2021-08-27T08:32:43.000Z</time>
      </trkpt>
      <trkpt lat="49.84275" lon="4.84894">
        <ele>314</ele>
        <time>2021-08-27T08:32:44.000Z</time>
      </trkpt>
      <trkpt lat="49.84275" lon="4.84897">
        <ele>314</ele>
        <time>2021-08-27T08:32:45.000Z</time>
      </trkpt>
      <trkpt lat="49.84274" lon="4.849">
        <ele>314</ele>
        <time>2021-08-27T08:32:46.000Z</time>
      </trkpt>
      <trkpt lat="49.84273" lon="4.84903">
        <ele>314</ele>
        <time>2021-08-27T08:32:47.000Z</time>
      </trkpt>
      <trkpt lat="49.84273" lon="4.84906">
        <ele>314</ele>
        <time>2021-08-27T08:32:48.000Z</time>
      </trkpt>
      <trkpt lat="49.84272" lon="4.8491">
        <ele>314</ele>
        <time>2021-08-27T08:32:49.000Z</time>
      </trkpt>
      <trkpt lat="49.84272" lon="4.84913">
        <ele>314</ele>
        <time>2021-08-27T08:32:50.000Z</time>
      </trkpt>
      <trkpt lat="49.84272" lon="4.84916">
        <ele>314</ele>
        <time>2021-08-27T08:32:51.000Z</time>
      </trkpt>
      <trkpt lat="49.84272" lon="4.84919">
        <ele>314</ele>
        <time>2021-08-27T08:32:52.000Z</time>
      </trkpt>
      <trkpt lat="49.84272" lon="4.84922">
        <ele>314</ele>
        <time>2021-08-27T08:32:53.000Z</time>
      </trkpt>
      <trkpt lat="49.84272" lon="4.84925">
        <ele>314</ele>
        <time>2021-08-27T08:32:54.000Z</time>
      </trkpt>
      <trkpt lat="49.84272" lon="4.84928">
        <ele>314</ele>
        <time>2021-08-27T08:32:55.000Z</time>
      </trkpt>
      <trkpt lat="49.84272" lon="4.84932">
        <ele>314</ele>
        <time>2021-08-27T08:32:56.000Z</time>
      </trkpt>
      <trkpt lat="49.84272" lon="4.84935">
        <ele>314</ele>
        <time>2021-08-27T08:32:57.000Z</time>
      </trkpt>
      <trkpt lat="49.84271" lon="4.84939">
        <ele>314</ele>
        <time>2021-08-27T08:32:58.000Z</time>
      </trkpt>
      <trkpt lat="49.84271" lon="4.84942">
        <ele>314</ele>
        <time>2021-08-27T08:32:59.000Z</time>
      </trkpt>
      <trkpt lat="49.84272" lon="4.84945">
        <ele>314</ele>
        <time>2021-08-27T08:33:00.000Z</time>
      </trkpt>
      <trkpt lat="49.84271" lon="4.84949">
        <ele>314</ele>
        <time>2021-08-27T08:33:01.000Z</time>
      </trkpt>
      <trkpt lat="49.84271" lon="4.84952">
        <ele>314</ele>
        <time>2021-08-27T08:33:02.000Z</time>
      </trkpt>
      <trkpt lat="49.84271" lon="4.84955">
        <ele>314</ele>
        <time>2021-08-27T08:33:03.000Z</time>
      </trkpt>
      <trkpt lat="49.84272" lon="4.84958">
        <ele>314</ele>
        <time>2021-08-27T08:33:04.000Z</time>
      </trkpt>
      <trkpt lat="49.84272" lon="4.84961">
        <ele>314</ele>
        <time>2021-08-27T08:33:05.000Z</time>
      </trkpt>
      <trkpt lat="49.84272" lon="4.84962">
        <ele>314</ele>
        <time>2021-08-27T08:33:06.000Z</time>
      </trkpt>
      <trkpt lat="49.84272" lon="4.84962">
        <ele>314</ele>
        <time>2021-08-27T08:33:07.000Z</time>
      </trkpt>
      <trkpt lat="49.84272" lon="4.84963">
        <ele>314</ele>
        <time>2021-08-27T08:33:08.000Z</time>
      </trkpt>
      <trkpt lat="49.84272" lon="4.84963">
        <ele>314</ele>
        <time>2021-08-27T08:33:09.000Z</time>
      </trkpt>
      <trkpt lat="49.84273" lon="4.84963">
        <ele>314</ele>
        <time>2021-08-27T08:33:10.000Z</time>
      </trkpt>
      <trkpt lat="49.84273" lon="4.84964">
        <ele>314</ele>
        <time>2021-08-27T08:33:11.000Z</time>
      </trkpt>
      <trkpt lat="49.84272" lon="4.84964">
        <ele>314</ele>
        <time>2021-08-27T08:33:12.000Z</time>
      </trkpt>
      <trkpt lat="49.84272" lon="4.84964">
        <ele>314</ele>
        <time>2021-08-27T08:33:13.000Z</time>
      </trkpt>
      <trkpt lat="49.84272" lon="4.84963">
        <ele>314</ele>
        <time>2021-08-27T08:33:14.000Z</time>
      </trkpt>
      <trkpt lat="49.84272" lon="4.84962">
        <ele>313</ele>
        <time>2021-08-27T08:33:15.000Z</time>
      </trkpt>
      <trkpt lat="49.84272" lon="4.84962">
        <ele>313</ele>
        <time>2021-08-27T08:33:16.000Z</time>
      </trkpt>
      <trkpt lat="49.84272" lon="4.8496">
        <ele>313</ele>
        <time>2021-08-27T08:33:17.000Z</time>
      </trkpt>
      <trkpt lat="49.84272" lon="4.84958">
        <ele>313</ele>
        <time>2021-08-27T08:33:18.000Z</time>
      </trkpt>
      <trkpt lat="49.84271" lon="4.84955">
        <ele>313</ele>
        <time>2021-08-27T08:33:19.000Z</time>
      </trkpt>
      <trkpt lat="49.84271" lon="4.84953">
        <ele>313</ele>
        <time>2021-08-27T08:33:20.000Z</time>
      </trkpt>
      <trkpt lat="49.84272" lon="4.8495">
        <ele>313</ele>
        <time>2021-08-27T08:33:21.000Z</time>
      </trkpt>
      <trkpt lat="49.84272" lon="4.84947">
        <ele>313</ele>
        <time>2021-08-27T08:33:22.000Z</time>
      </trkpt>
      <trkpt lat="49.84272" lon="4.84943">
        <ele>313</ele>
        <time>2021-08-27T08:33:23.000Z</time>
      </trkpt>
      <trkpt lat="49.84271" lon="4.84939">
        <ele>312</ele>
        <time>2021-08-27T08:33:24.000Z</time>
      </trkpt>
      <trkpt lat="49.8427" lon="4.84935">
        <ele>312</ele>
        <time>2021-08-27T08:33:25.000Z</time>
      </trkpt>
      <trkpt lat="49.8427" lon="4.84932">
        <ele>312</ele>
        <time>2021-08-27T08:33:26.000Z</time>
      </trkpt>
      <trkpt lat="49.84269" lon="4.84928">
        <ele>312</ele>
        <time>2021-08-27T08:33:27.000Z</time>
      </trkpt>
      <trkpt lat="49.84269" lon="4.84924">
        <ele>312</ele>
        <time>2021-08-27T08:33:28.000Z</time>
      </trkpt>
      <trkpt lat="49.84269" lon="4.8492">
        <ele>312</ele>
        <time>2021-08-27T08:33:29.000Z</time>
      </trkpt>
      <trkpt lat="49.8427" lon="4.84917">
        <ele>312</ele>
        <time>2021-08-27T08:33:30.000Z</time>
      </trkpt>
      <trkpt lat="49.8427" lon="4.84913">
        <ele>312</ele>
        <time>2021-08-27T08:33:31.000Z</time>
      </trkpt>
      <trkpt lat="49.84269" lon="4.84909">
        <ele>312</ele>
        <time>2021-08-27T08:33:32.000Z</time>
      </trkpt>
      <trkpt lat="49.84269" lon="4.84905">
        <ele>312</ele>
        <time>2021-08-27T08:33:33.000Z</time>
      </trkpt>
      <trkpt lat="49.84269" lon="4.84901">
        <ele>312</ele>
        <time>2021-08-27T08:33:34.000Z</time>
      </trkpt>
      <trkpt lat="49.84269" lon="4.84897">
        <ele>312</ele>
        <time>2021-08-27T08:33:35.000Z</time>
      </trkpt>
      <trkpt lat="49.84269" lon="4.84893">
        <ele>312</ele>
        <time>2021-08-27T08:33:36.000Z</time>
      </trkpt>
      <trkpt lat="49.8427" lon="4.8489">
        <ele>312</ele>
        <time>2021-08-27T08:33:37.000Z</time>
      </trkpt>
      <trkpt lat="49.8427" lon="4.84886">
        <ele>312</ele>
        <time>2021-08-27T08:33:38.000Z</time>
      </trkpt>
      <trkpt lat="49.84271" lon="4.84883">
        <ele>312</ele>
        <time>2021-08-27T08:33:39.000Z</time>
      </trkpt>
      <trkpt lat="49.84271" lon="4.84879">
        <ele>312</ele>
        <time>2021-08-27T08:33:40.000Z</time>
      </trkpt>
      <trkpt lat="49.84271" lon="4.84875">
        <ele>312</ele>
        <time>2021-08-27T08:33:41.000Z</time>
      </trkpt>
      <trkpt lat="49.84272" lon="4.8487">
        <ele>312</ele>
        <time>2021-08-27T08:33:42.000Z</time>
      </trkpt>
      <trkpt lat="49.84274" lon="4.84867">
        <ele>312</ele>
        <time>2021-08-27T08:33:43.000Z</time>
      </trkpt>
      <trkpt lat="49.84275" lon="4.84864">
        <ele>312</ele>
        <time>2021-08-27T08:33:44.000Z</time>
      </trkpt>
      <trkpt lat="49.84277" lon="4.84862">
        <ele>312</ele>
        <time>2021-08-27T08:33:45.000Z</time>
      </trkpt>
      <trkpt lat="49.84279" lon="4.8486">
        <ele>312</ele>
        <time>2021-08-27T08:33:46.000Z</time>
      </trkpt>
      <trkpt lat="49.8428" lon="4.84858">
        <ele>313</ele>
        <time>2021-08-27T08:33:47.000Z</time>
      </trkpt>
      <trkpt lat="49.84281" lon="4.84856">
        <ele>313</ele>
        <time>2021-08-27T08:33:48.000Z</time>
      </trkpt>
      <trkpt lat="49.84282" lon="4.84854">
        <ele>313</ele>
        <time>2021-08-27T08:33:49.000Z</time>
      </trkpt>
      <trkpt lat="49.84282" lon="4.84852">
        <ele>313</ele>
        <time>2021-08-27T08:33:50.000Z</time>
      </trkpt>
      <trkpt lat="49.84283" lon="4.84851">
        <ele>313</ele>
        <time>2021-08-27T08:33:51.000Z</time>
      </trkpt>
      <trkpt lat="49.84283" lon="4.8485">
        <ele>313</ele>
        <time>2021-08-27T08:33:52.000Z</time>
      </trkpt>
      <trkpt lat="49.84284" lon="4.84849">
        <ele>313</ele>
        <time>2021-08-27T08:33:53.000Z</time>
      </trkpt>
      <trkpt lat="49.84286" lon="4.84848">
        <ele>313</ele>
        <time>2021-08-27T08:33:54.000Z</time>
      </trkpt>
      <trkpt lat="49.84288" lon="4.84846">
        <ele>313</ele>
        <time>2021-08-27T08:33:55.000Z</time>
      </trkpt>
      <trkpt lat="49.84289" lon="4.84845">
        <ele>313</ele>
        <time>2021-08-27T08:33:56.000Z</time>
      </trkpt>
      <trkpt lat="49.84291" lon="4.84844">
        <ele>313</ele>
        <time>2021-08-27T08:33:57.000Z</time>
      </trkpt>
      <trkpt lat="49.84293" lon="4.84844">
        <ele>313</ele>
        <time>2021-08-27T08:33:58.000Z</time>
      </trkpt>
      <trkpt lat="49.84295" lon="4.84844">
        <ele>313</ele>
        <time>2021-08-27T08:33:59.000Z</time>
      </trkpt>
      <trkpt lat="49.84298" lon="4.84844">
        <ele>313</ele>
        <time>2021-08-27T08:34:00.000Z</time>
      </trkpt>
      <trkpt lat="49.843" lon="4.84844">
        <ele>313</ele>
        <time>2021-08-27T08:34:01.000Z</time>
      </trkpt>
      <trkpt lat="49.84302" lon="4.84845">
        <ele>313</ele>
        <time>2021-08-27T08:34:02.000Z</time>
      </trkpt>
      <trkpt lat="49.84305" lon="4.84845">
        <ele>313</ele>
        <time>2021-08-27T08:34:03.000Z</time>
      </trkpt>
      <trkpt lat="49.84307" lon="4.84847">
        <ele>313</ele>
        <time>2021-08-27T08:34:04.000Z</time>
      </trkpt>
      <trkpt lat="49.84309" lon="4.84849">
        <ele>313</ele>
        <time>2021-08-27T08:34:05.000Z</time>
      </trkpt>
      <trkpt lat="49.84312" lon="4.84851">
        <ele>314</ele>
        <time>2021-08-27T08:34:06.000Z</time>
      </trkpt>
      <trkpt lat="49.84315" lon="4.84852">
        <ele>314</ele>
        <time>2021-08-27T08:34:07.000Z</time>
      </trkpt>
      <trkpt lat="49.84317" lon="4.84854">
        <ele>314</ele>
        <time>2021-08-27T08:34:08.000Z</time>
      </trkpt>
      <trkpt lat="49.84319" lon="4.84855">
        <ele>314</ele>
        <time>2021-08-27T08:34:09.000Z</time>
      </trkpt>
      <trkpt lat="49.84321" lon="4.84857">
        <ele>314</ele>
        <time>2021-08-27T08:34:10.000Z</time>
      </trkpt>
      <trkpt lat="49.84324" lon="4.8486">
        <ele>314</ele>
        <time>2021-08-27T08:34:11.000Z</time>
      </trkpt>
      <trkpt lat="49.84328" lon="4.84863">
        <ele>314</ele>
        <time>2021-08-27T08:34:12.000Z</time>
      </trkpt>
      <trkpt lat="49.84331" lon="4.84865">
        <ele>314</ele>
        <time>2021-08-27T08:34:13.000Z</time>
      </trkpt>
      <trkpt lat="49.84334" lon="4.84868">
        <ele>314</ele>
        <time>2021-08-27T08:34:14.000Z</time>
      </trkpt>
      <trkpt lat="49.84336" lon="4.84872">
        <ele>314</ele>
        <time>2021-08-27T08:34:15.000Z</time>
      </trkpt>
      <trkpt lat="49.84339" lon="4.84875">
        <ele>314</ele>
        <time>2021-08-27T08:34:16.000Z</time>
      </trkpt>
      <trkpt lat="49.84342" lon="4.84879">
        <ele>314</ele>
        <time>2021-08-27T08:34:17.000Z</time>
      </trkpt>
      <trkpt lat="49.84345" lon="4.84882">
        <ele>314</ele>
        <time>2021-08-27T08:34:18.000Z</time>
      </trkpt>
      <trkpt lat="49.84348" lon="4.84886">
        <ele>314</ele>
        <time>2021-08-27T08:34:19.000Z</time>
      </trkpt>
      <trkpt lat="49.84351" lon="4.84889">
        <ele>314</ele>
        <time>2021-08-27T08:34:20.000Z</time>
      </trkpt>
      <trkpt lat="49.84354" lon="4.84892">
        <ele>314</ele>
        <time>2021-08-27T08:34:21.000Z</time>
      </trkpt>
      <trkpt lat="49.84357" lon="4.84895">
        <ele>314</ele>
        <time>2021-08-27T08:34:22.000Z</time>
      </trkpt>
      <trkpt lat="49.84361" lon="4.84898">
        <ele>314</ele>
        <time>2021-08-27T08:34:23.000Z</time>
      </trkpt>
      <trkpt lat="49.84365" lon="4.84901">
        <ele>314</ele>
        <time>2021-08-27T08:34:24.000Z</time>
      </trkpt>
      <trkpt lat="49.84368" lon="4.84905">
        <ele>314</ele>
        <time>2021-08-27T08:34:25.000Z</time>
      </trkpt>
      <trkpt lat="49.84372" lon="4.84909">
        <ele>314</ele>
        <time>2021-08-27T08:34:26.000Z</time>
      </trkpt>
      <trkpt lat="49.84376" lon="4.84914">
        <ele>314</ele>
        <time>2021-08-27T08:34:27.000Z</time>
      </trkpt>
      <trkpt lat="49.84379" lon="4.84918">
        <ele>314</ele>
        <time>2021-08-27T08:34:28.000Z</time>
      </trkpt>
      <trkpt lat="49.84382" lon="4.84923">
        <ele>314</ele>
        <time>2021-08-27T08:34:29.000Z</time>
      </trkpt>
      <trkpt lat="49.84385" lon="4.84927">
        <ele>314</ele>
        <time>2021-08-27T08:34:30.000Z</time>
      </trkpt>
      <trkpt lat="49.84387" lon="4.84931">
        <ele>314</ele>
        <time>2021-08-27T08:34:31.000Z</time>
      </trkpt>
      <trkpt lat="49.84389" lon="4.84935">
        <ele>314</ele>
        <time>2021-08-27T08:34:32.000Z</time>
      </trkpt>
      <trkpt lat="49.84391" lon="4.84939">
        <ele>314</ele>
        <time>2021-08-27T08:34:33.000Z</time>
      </trkpt>
      <trkpt lat="49.84393" lon="4.84943">
        <ele>314</ele>
        <time>2021-08-27T08:34:34.000Z</time>
      </trkpt>
      <trkpt lat="49.84395" lon="4.84947">
        <ele>314</ele>
        <time>2021-08-27T08:34:35.000Z</time>
      </trkpt>
      <trkpt lat="49.84398" lon="4.84952">
        <ele>314</ele>
        <time>2021-08-27T08:34:36.000Z</time>
      </trkpt>
      <trkpt lat="49.844" lon="4.84957">
        <ele>313</ele>
        <time>2021-08-27T08:34:37.000Z</time>
      </trkpt>
      <trkpt lat="49.84403" lon="4.84962">
        <ele>313</ele>
        <time>2021-08-27T08:34:38.000Z</time>
      </trkpt>
      <trkpt lat="49.84405" lon="4.84968">
        <ele>313</ele>
        <time>2021-08-27T08:34:39.000Z</time>
      </trkpt>
      <trkpt lat="49.84408" lon="4.84974">
        <ele>313</ele>
        <time>2021-08-27T08:34:40.000Z</time>
      </trkpt>
      <trkpt lat="49.8441" lon="4.84979">
        <ele>313</ele>
        <time>2021-08-27T08:34:41.000Z</time>
      </trkpt>
      <trkpt lat="49.84412" lon="4.84984">
        <ele>313</ele>
        <time>2021-08-27T08:34:42.000Z</time>
      </trkpt>
      <trkpt lat="49.84414" lon="4.84989">
        <ele>313</ele>
        <time>2021-08-27T08:34:43.000Z</time>
      </trkpt>
      <trkpt lat="49.84416" lon="4.84993">
        <ele>313</ele>
        <time>2021-08-27T08:34:44.000Z</time>
      </trkpt>
      <trkpt lat="49.84417" lon="4.84997">
        <ele>313</ele>
        <time>2021-08-27T08:34:45.000Z</time>
      </trkpt>
      <trkpt lat="49.84418" lon="4.85001">
        <ele>313</ele>
        <time>2021-08-27T08:34:46.000Z</time>
      </trkpt>
      <trkpt lat="49.84419" lon="4.85006">
        <ele>313</ele>
        <time>2021-08-27T08:34:47.000Z</time>
      </trkpt>
      <trkpt lat="49.84421" lon="4.85011">
        <ele>313</ele>
        <time>2021-08-27T08:34:48.000Z</time>
      </trkpt>
      <trkpt lat="49.84423" lon="4.85015">
        <ele>313</ele>
        <time>2021-08-27T08:34:49.000Z</time>
      </trkpt>
      <trkpt lat="49.84424" lon="4.85019">
        <ele>314</ele>
        <time>2021-08-27T08:34:50.000Z</time>
      </trkpt>
      <trkpt lat="49.84425" lon="4.85023">
        <ele>314</ele>
        <time>2021-08-27T08:34:51.000Z</time>
      </trkpt>
      <trkpt lat="49.84427" lon="4.85027">
        <ele>314</ele>
        <time>2021-08-27T08:34:52.000Z</time>
      </trkpt>
      <trkpt lat="49.84428" lon="4.85032">
        <ele>314</ele>
        <time>2021-08-27T08:34:53.000Z</time>
      </trkpt>
      <trkpt lat="49.8443" lon="4.85037">
        <ele>314</ele>
        <time>2021-08-27T08:34:54.000Z</time>
      </trkpt>
      <trkpt lat="49.84431" lon="4.85041">
        <ele>314</ele>
        <time>2021-08-27T08:34:55.000Z</time>
      </trkpt>
      <trkpt lat="49.84433" lon="4.85046">
        <ele>314</ele>
        <time>2021-08-27T08:34:56.000Z</time>
      </trkpt>
      <trkpt lat="49.84435" lon="4.85051">
        <ele>315</ele>
        <time>2021-08-27T08:34:57.000Z</time>
      </trkpt>
      <trkpt lat="49.84437" lon="4.85056">
        <ele>315</ele>
        <time>2021-08-27T08:34:58.000Z</time>
      </trkpt>
      <trkpt lat="49.84439" lon="4.85061">
        <ele>315</ele>
        <time>2021-08-27T08:34:59.000Z</time>
      </trkpt>
      <trkpt lat="49.84441" lon="4.85065">
        <ele>315</ele>
        <time>2021-08-27T08:35:00.000Z</time>
      </trkpt>
      <trkpt lat="49.84443" lon="4.85069">
        <ele>315</ele>
        <time>2021-08-27T08:35:01.000Z</time>
      </trkpt>
      <trkpt lat="49.84444" lon="4.85074">
        <ele>315</ele>
        <time>2021-08-27T08:35:02.000Z</time>
      </trkpt>
      <trkpt lat="49.84445" lon="4.85078">
        <ele>315</ele>
        <time>2021-08-27T08:35:03.000Z</time>
      </trkpt>
      <trkpt lat="49.84446" lon="4.85082">
        <ele>315</ele>
        <time>2021-08-27T08:35:04.000Z</time>
      </trkpt>
      <trkpt lat="49.84446" lon="4.85086">
        <ele>315</ele>
        <time>2021-08-27T08:35:05.000Z</time>
      </trkpt>
      <trkpt lat="49.84447" lon="4.8509">
        <ele>315</ele>
        <time>2021-08-27T08:35:06.000Z</time>
      </trkpt>
      <trkpt lat="49.84448" lon="4.85095">
        <ele>315</ele>
        <time>2021-08-27T08:35:07.000Z</time>
      </trkpt>
      <trkpt lat="49.84448" lon="4.851">
        <ele>315</ele>
        <time>2021-08-27T08:35:08.000Z</time>
      </trkpt>
      <trkpt lat="49.84449" lon="4.85105">
        <ele>315</ele>
        <time>2021-08-27T08:35:09.000Z</time>
      </trkpt>
      <trkpt lat="49.8445" lon="4.85109">
        <ele>315</ele>
        <time>2021-08-27T08:35:10.000Z</time>
      </trkpt>
      <trkpt lat="49.84451" lon="4.85112">
        <ele>315</ele>
        <time>2021-08-27T08:35:11.000Z</time>
      </trkpt>
      <trkpt lat="49.84452" lon="4.85115">
        <ele>315</ele>
        <time>2021-08-27T08:35:12.000Z</time>
      </trkpt>
      <trkpt lat="49.84453" lon="4.85118">
        <ele>315</ele>
        <time>2021-08-27T08:35:13.000Z</time>
      </trkpt>
      <trkpt lat="49.84453" lon="4.85121">
        <ele>314</ele>
        <time>2021-08-27T08:35:14.000Z</time>
      </trkpt>
      <trkpt lat="49.84454" lon="4.85123">
        <ele>314</ele>
        <time>2021-08-27T08:35:15.000Z</time>
      </trkpt>
      <trkpt lat="49.84454" lon="4.85127">
        <ele>314</ele>
        <time>2021-08-27T08:35:16.000Z</time>
      </trkpt>
      <trkpt lat="49.84455" lon="4.85132">
        <ele>314</ele>
        <time>2021-08-27T08:35:17.000Z</time>
      </trkpt>
      <trkpt lat="49.84456" lon="4.85136">
        <ele>314</ele>
        <time>2021-08-27T08:35:18.000Z</time>
      </trkpt>
      <trkpt lat="49.84456" lon="4.8514">
        <ele>314</ele>
        <time>2021-08-27T08:35:19.000Z</time>
      </trkpt>
      <trkpt lat="49.84458" lon="4.85143">
        <ele>314</ele>
        <time>2021-08-27T08:35:20.000Z</time>
      </trkpt>
      <trkpt lat="49.8446" lon="4.85147">
        <ele>314</ele>
        <time>2021-08-27T08:35:21.000Z</time>
      </trkpt>
      <trkpt lat="49.84461" lon="4.85151">
        <ele>314</ele>
        <time>2021-08-27T08:35:22.000Z</time>
      </trkpt>
      <trkpt lat="49.84463" lon="4.85155">
        <ele>314</ele>
        <time>2021-08-27T08:35:23.000Z</time>
      </trkpt>
      <trkpt lat="49.84466" lon="4.85159">
        <ele>314</ele>
        <time>2021-08-27T08:35:24.000Z</time>
      </trkpt>
      <trkpt lat="49.84468" lon="4.85163">
        <ele>314</ele>
        <time>2021-08-27T08:35:25.000Z</time>
      </trkpt>
      <trkpt lat="49.8447" lon="4.85167">
        <ele>314</ele>
        <time>2021-08-27T08:35:26.000Z</time>
      </trkpt>
      <trkpt lat="49.84473" lon="4.85171">
        <ele>313</ele>
        <time>2021-08-27T08:35:27.000Z</time>
      </trkpt>
      <trkpt lat="49.84475" lon="4.85174">
        <ele>313</ele>
        <time>2021-08-27T08:35:28.000Z</time>
      </trkpt>
      <trkpt lat="49.84477" lon="4.85178">
        <ele>313</ele>
        <time>2021-08-27T08:35:29.000Z</time>
      </trkpt>
      <trkpt lat="49.84479" lon="4.85182">
        <ele>313</ele>
        <time>2021-08-27T08:35:30.000Z</time>
      </trkpt>
      <trkpt lat="49.84481" lon="4.85185">
        <ele>313</ele>
        <time>2021-08-27T08:35:31.000Z</time>
      </trkpt>
      <trkpt lat="49.84483" lon="4.85188">
        <ele>313</ele>
        <time>2021-08-27T08:35:32.000Z</time>
      </trkpt>
      <trkpt lat="49.84486" lon="4.85192">
        <ele>312</ele>
        <time>2021-08-27T08:35:33.000Z</time>
      </trkpt>
      <trkpt lat="49.84488" lon="4.85196">
        <ele>312</ele>
        <time>2021-08-27T08:35:34.000Z</time>
      </trkpt>
      <trkpt lat="49.84491" lon="4.85199">
        <ele>312</ele>
        <time>2021-08-27T08:35:35.000Z</time>
      </trkpt>
      <trkpt lat="49.84493" lon="4.85203">
        <ele>312</ele>
        <time>2021-08-27T08:35:36.000Z</time>
      </trkpt>
      <trkpt lat="49.84494" lon="4.85205">
        <ele>312</ele>
        <time>2021-08-27T08:35:37.000Z</time>
      </trkpt>
      <trkpt lat="49.84495" lon="4.85206">
        <ele>312</ele>
        <time>2021-08-27T08:35:38.000Z</time>
      </trkpt>
      <trkpt lat="49.84496" lon="4.85208">
        <ele>312</ele>
        <time>2021-08-27T08:35:39.000Z</time>
      </trkpt>
      <trkpt lat="49.84497" lon="4.85209">
        <ele>312</ele>
        <time>2021-08-27T08:35:40.000Z</time>
      </trkpt>
      <trkpt lat="49.84499" lon="4.85209">
        <ele>312</ele>
        <time>2021-08-27T08:35:41.000Z</time>
      </trkpt>
      <trkpt lat="49.845" lon="4.85208">
        <ele>312</ele>
        <time>2021-08-27T08:35:42.000Z</time>
      </trkpt>
      <trkpt lat="49.84501" lon="4.85207">
        <ele>312</ele>
        <time>2021-08-27T08:35:43.000Z</time>
      </trkpt>
      <trkpt lat="49.84502" lon="4.85205">
        <ele>312</ele>
        <time>2021-08-27T08:35:44.000Z</time>
      </trkpt>
      <trkpt lat="49.84502" lon="4.85204">
        <ele>312</ele>
        <time>2021-08-27T08:35:45.000Z</time>
      </trkpt>
      <trkpt lat="49.84503" lon="4.85203">
        <ele>312</ele>
        <time>2021-08-27T08:35:46.000Z</time>
      </trkpt>
      <trkpt lat="49.84503" lon="4.85201">
        <ele>312</ele>
        <time>2021-08-27T08:35:47.000Z</time>
      </trkpt>
      <trkpt lat="49.84503" lon="4.85199">
        <ele>312</ele>
        <time>2021-08-27T08:35:48.000Z</time>
      </trkpt>
      <trkpt lat="49.84503" lon="4.85197">
        <ele>312</ele>
        <time>2021-08-27T08:35:49.000Z</time>
      </trkpt>
      <trkpt lat="49.84503" lon="4.85195">
        <ele>313</ele>
        <time>2021-08-27T08:35:50.000Z</time>
      </trkpt>
      <trkpt lat="49.84503" lon="4.85193">
        <ele>313</ele>
        <time>2021-08-27T08:35:51.000Z</time>
      </trkpt>
      <trkpt lat="49.84503" lon="4.85191">
        <ele>313</ele>
        <time>2021-08-27T08:35:52.000Z</time>
      </trkpt>
      <trkpt lat="49.84502" lon="4.85189">
        <ele>313</ele>
        <time>2021-08-27T08:35:53.000Z</time>
      </trkpt>
      <trkpt lat="49.84502" lon="4.85187">
        <ele>313</ele>
        <time>2021-08-27T08:35:54.000Z</time>
      </trkpt>
      <trkpt lat="49.84502" lon="4.85184">
        <ele>313</ele>
        <time>2021-08-27T08:35:55.000Z</time>
      </trkpt>
      <trkpt lat="49.84502" lon="4.85182">
        <ele>313</ele>
        <time>2021-08-27T08:35:56.000Z</time>
      </trkpt>
      <trkpt lat="49.84502" lon="4.85179">
        <ele>313</ele>
        <time>2021-08-27T08:35:57.000Z</time>
      </trkpt>
      <trkpt lat="49.84501" lon="4.85177">
        <ele>313</ele>
        <time>2021-08-27T08:35:58.000Z</time>
      </trkpt>
      <trkpt lat="49.84502" lon="4.85175">
        <ele>313</ele>
        <time>2021-08-27T08:35:59.000Z</time>
      </trkpt>
      <trkpt lat="49.84502" lon="4.85172">
        <ele>313</ele>
        <time>2021-08-27T08:36:00.000Z</time>
      </trkpt>
      <trkpt lat="49.84502" lon="4.8517">
        <ele>313</ele>
        <time>2021-08-27T08:36:01.000Z</time>
      </trkpt>
      <trkpt lat="49.84502" lon="4.85168">
        <ele>313</ele>
        <time>2021-08-27T08:36:02.000Z</time>
      </trkpt>
      <trkpt lat="49.84502" lon="4.85165">
        <ele>313</ele>
        <time>2021-08-27T08:36:03.000Z</time>
      </trkpt>
      <trkpt lat="49.84502" lon="4.85163">
        <ele>313</ele>
        <time>2021-08-27T08:36:04.000Z</time>
      </trkpt>
      <trkpt lat="49.84502" lon="4.85161">
        <ele>313</ele>
        <time>2021-08-27T08:36:05.000Z</time>
      </trkpt>
      <trkpt lat="49.84501" lon="4.85159">
        <ele>313</ele>
        <time>2021-08-27T08:36:06.000Z</time>
      </trkpt>
      <trkpt lat="49.84501" lon="4.85156">
        <ele>314</ele>
        <time>2021-08-27T08:36:07.000Z</time>
      </trkpt>
      <trkpt lat="49.845" lon="4.85154">
        <ele>314</ele>
        <time>2021-08-27T08:36:08.000Z</time>
      </trkpt>
      <trkpt lat="49.845" lon="4.85152">
        <ele>314</ele>
        <time>2021-08-27T08:36:09.000Z</time>
      </trkpt>
      <trkpt lat="49.845" lon="4.8515">
        <ele>314</ele>
        <time>2021-08-27T08:36:10.000Z</time>
      </trkpt>
      <trkpt lat="49.845" lon="4.85148">
        <ele>314</ele>
        <time>2021-08-27T08:36:11.000Z</time>
      </trkpt>
      <trkpt lat="49.845" lon="4.85145">
        <ele>314</ele>
        <time>2021-08-27T08:36:12.000Z</time>
      </trkpt>
      <trkpt lat="49.84501" lon="4.85143">
        <ele>314</ele>
        <time>2021-08-27T08:36:13.000Z</time>
      </trkpt>
      <trkpt lat="49.84501" lon="4.85141">
        <ele>314</ele>
        <time>2021-08-27T08:36:14.000Z</time>
      </trkpt>
      <trkpt lat="49.84502" lon="4.85139">
        <ele>315</ele>
        <time>2021-08-27T08:36:15.000Z</time>
      </trkpt>
      <trkpt lat="49.84502" lon="4.85136">
        <ele>315</ele>
        <time>2021-08-27T08:36:16.000Z</time>
      </trkpt>
      <trkpt lat="49.84502" lon="4.85133">
        <ele>315</ele>
        <time>2021-08-27T08:36:17.000Z</time>
      </trkpt>
      <trkpt lat="49.84502" lon="4.85131">
        <ele>315</ele>
        <time>2021-08-27T08:36:18.000Z</time>
      </trkpt>
      <trkpt lat="49.84502" lon="4.85129">
        <ele>315</ele>
        <time>2021-08-27T08:36:19.000Z</time>
      </trkpt>
      <trkpt lat="49.84503" lon="4.85126">
        <ele>315</ele>
        <time>2021-08-27T08:36:20.000Z</time>
      </trkpt>
      <trkpt lat="49.84503" lon="4.85124">
        <ele>315</ele>
        <time>2021-08-27T08:36:21.000Z</time>
      </trkpt>
      <trkpt lat="49.84503" lon="4.85122">
        <ele>315</ele>
        <time>2021-08-27T08:36:22.000Z</time>
      </trkpt>
      <trkpt lat="49.84503" lon="4.85119">
        <ele>315</ele>
        <time>2021-08-27T08:36:23.000Z</time>
      </trkpt>
      <trkpt lat="49.84503" lon="4.85117">
        <ele>315</ele>
        <time>2021-08-27T08:36:24.000Z</time>
      </trkpt>
      <trkpt lat="49.84503" lon="4.85115">
        <ele>315</ele>
        <time>2021-08-27T08:36:25.000Z</time>
      </trkpt>
      <trkpt lat="49.84503" lon="4.85113">
        <ele>315</ele>
        <time>2021-08-27T08:36:26.000Z</time>
      </trkpt>
      <trkpt lat="49.84503" lon="4.85111">
        <ele>316</ele>
        <time>2021-08-27T08:36:27.000Z</time>
      </trkpt>
      <trkpt lat="49.84503" lon="4.85108">
        <ele>316</ele>
        <time>2021-08-27T08:36:28.000Z</time>
      </trkpt>
      <trkpt lat="49.84503" lon="4.85107">
        <ele>316</ele>
        <time>2021-08-27T08:36:29.000Z</time>
      </trkpt>
      <trkpt lat="49.84503" lon="4.85104">
        <ele>316</ele>
        <time>2021-08-27T08:36:30.000Z</time>
      </trkpt>
      <trkpt lat="49.84503" lon="4.85102">
        <ele>316</ele>
        <time>2021-08-27T08:36:31.000Z</time>
      </trkpt>
      <trkpt lat="49.84502" lon="4.851">
        <ele>317</ele>
        <time>2021-08-27T08:36:32.000Z</time>
      </trkpt>
      <trkpt lat="49.84502" lon="4.85098">
        <ele>317</ele>
        <time>2021-08-27T08:36:33.000Z</time>
      </trkpt>
      <trkpt lat="49.84502" lon="4.85096">
        <ele>317</ele>
        <time>2021-08-27T08:36:34.000Z</time>
      </trkpt>
      <trkpt lat="49.84502" lon="4.85094">
        <ele>318</ele>
        <time>2021-08-27T08:36:35.000Z</time>
      </trkpt>
      <trkpt lat="49.84501" lon="4.85092">
        <ele>318</ele>
        <time>2021-08-27T08:36:36.000Z</time>
      </trkpt>
      <trkpt lat="49.84501" lon="4.8509">
        <ele>318</ele>
        <time>2021-08-27T08:36:37.000Z</time>
      </trkpt>
      <trkpt lat="49.84501" lon="4.85088">
        <ele>319</ele>
        <time>2021-08-27T08:36:38.000Z</time>
      </trkpt>
      <trkpt lat="49.84501" lon="4.85086">
        <ele>319</ele>
        <time>2021-08-27T08:36:39.000Z</time>
      </trkpt>
      <trkpt lat="49.84501" lon="4.85083">
        <ele>319</ele>
        <time>2021-08-27T08:36:40.000Z</time>
      </trkpt>
      <trkpt lat="49.84501" lon="4.85081">
        <ele>320</ele>
        <time>2021-08-27T08:36:41.000Z</time>
      </trkpt>
      <trkpt lat="49.84501" lon="4.85078">
        <ele>320</ele>
        <time>2021-08-27T08:36:42.000Z</time>
      </trkpt>
      <trkpt lat="49.845" lon="4.85076">
        <ele>321</ele>
        <time>2021-08-27T08:36:43.000Z</time>
      </trkpt>
      <trkpt lat="49.84499" lon="4.85074">
        <ele>321</ele>
        <time>2021-08-27T08:36:44.000Z</time>
      </trkpt>
      <trkpt lat="49.84499" lon="4.85071">
        <ele>322</ele>
        <time>2021-08-27T08:36:45.000Z</time>
      </trkpt>
      <trkpt lat="49.84499" lon="4.85069">
        <ele>322</ele>
        <time>2021-08-27T08:36:46.000Z</time>
      </trkpt>
      <trkpt lat="49.84498" lon="4.85067">
        <ele>323</ele>
        <time>2021-08-27T08:36:47.000Z</time>
      </trkpt>
      <trkpt lat="49.84498" lon="4.85064">
        <ele>323</ele>
        <time>2021-08-27T08:36:48.000Z</time>
      </trkpt>
      <trkpt lat="49.84498" lon="4.85061">
        <ele>323</ele>
        <time>2021-08-27T08:36:49.000Z</time>
      </trkpt>
      <trkpt lat="49.84499" lon="4.85058">
        <ele>324</ele>
        <time>2021-08-27T08:36:50.000Z</time>
      </trkpt>
      <trkpt lat="49.84499" lon="4.85055">
        <ele>324</ele>
        <time>2021-08-27T08:36:51.000Z</time>
      </trkpt>
      <trkpt lat="49.84499" lon="4.85053">
        <ele>324</ele>
        <time>2021-08-27T08:36:52.000Z</time>
      </trkpt>
      <trkpt lat="49.84499" lon="4.8505">
        <ele>324</ele>
        <time>2021-08-27T08:36:53.000Z</time>
      </trkpt>
      <trkpt lat="49.84499" lon="4.85047">
        <ele>324</ele>
        <time>2021-08-27T08:36:54.000Z</time>
      </trkpt>
      <trkpt lat="49.845" lon="4.85045">
        <ele>324</ele>
        <time>2021-08-27T08:36:55.000Z</time>
      </trkpt>
      <trkpt lat="49.845" lon="4.85042">
        <ele>325</ele>
        <time>2021-08-27T08:36:56.000Z</time>
      </trkpt>
      <trkpt lat="49.84501" lon="4.85041">
        <ele>325</ele>
        <time>2021-08-27T08:36:57.000Z</time>
      </trkpt>
      <trkpt lat="49.84502" lon="4.8504">
        <ele>325</ele>
        <time>2021-08-27T08:36:58.000Z</time>
      </trkpt>
      <trkpt lat="49.84502" lon="4.8504">
        <ele>325</ele>
        <time>2021-08-27T08:36:59.000Z</time>
      </trkpt>
      <trkpt lat="49.84502" lon="4.85039">
        <ele>326</ele>
        <time>2021-08-27T08:37:00.000Z</time>
      </trkpt>
      <trkpt lat="49.84503" lon="4.85038">
        <ele>326</ele>
        <time>2021-08-27T08:37:01.000Z</time>
      </trkpt>
      <trkpt lat="49.84503" lon="4.85038">
        <ele>326</ele>
        <time>2021-08-27T08:37:02.000Z</time>
      </trkpt>
      <trkpt lat="49.84503" lon="4.85037">
        <ele>326</ele>
        <time>2021-08-27T08:37:03.000Z</time>
      </trkpt>
      <trkpt lat="49.84503" lon="4.85037">
        <ele>326</ele>
        <time>2021-08-27T08:37:04.000Z</time>
      </trkpt>
      <trkpt lat="49.84504" lon="4.85036">
        <ele>326</ele>
        <time>2021-08-27T08:37:05.000Z</time>
      </trkpt>
      <trkpt lat="49.84504" lon="4.85034">
        <ele>326</ele>
        <time>2021-08-27T08:37:06.000Z</time>
      </trkpt>
      <trkpt lat="49.84504" lon="4.85032">
        <ele>327</ele>
        <time>2021-08-27T08:37:07.000Z</time>
      </trkpt>
      <trkpt lat="49.84505" lon="4.85031">
        <ele>327</ele>
        <time>2021-08-27T08:37:08.000Z</time>
      </trkpt>
      <trkpt lat="49.84505" lon="4.8503">
        <ele>327</ele>
        <time>2021-08-27T08:37:09.000Z</time>
      </trkpt>
      <trkpt lat="49.84505" lon="4.85028">
        <ele>327</ele>
        <time>2021-08-27T08:37:10.000Z</time>
      </trkpt>
      <trkpt lat="49.84505" lon="4.85027">
        <ele>327</ele>
        <time>2021-08-27T08:37:11.000Z</time>
      </trkpt>
      <trkpt lat="49.84504" lon="4.85027">
        <ele>327</ele>
        <time>2021-08-27T08:37:12.000Z</time>
      </trkpt>
      <trkpt lat="49.84504" lon="4.85026">
        <ele>327</ele>
        <time>2021-08-27T08:37:13.000Z</time>
      </trkpt>
      <trkpt lat="49.84504" lon="4.85025">
        <ele>327</ele>
        <time>2021-08-27T08:37:14.000Z</time>
      </trkpt>
      <trkpt lat="49.84504" lon="4.85023">
        <ele>327</ele>
        <time>2021-08-27T08:37:15.000Z</time>
      </trkpt>
      <trkpt lat="49.84504" lon="4.85021">
        <ele>327</ele>
        <time>2021-08-27T08:37:16.000Z</time>
      </trkpt>
      <trkpt lat="49.84503" lon="4.85018">
        <ele>328</ele>
        <time>2021-08-27T08:37:17.000Z</time>
      </trkpt>
      <trkpt lat="49.84503" lon="4.85016">
        <ele>328</ele>
        <time>2021-08-27T08:37:18.000Z</time>
      </trkpt>
      <trkpt lat="49.84503" lon="4.85014">
        <ele>328</ele>
        <time>2021-08-27T08:37:19.000Z</time>
      </trkpt>
      <trkpt lat="49.84502" lon="4.85013">
        <ele>328</ele>
        <time>2021-08-27T08:37:20.000Z</time>
      </trkpt>
      <trkpt lat="49.84502" lon="4.85011">
        <ele>328</ele>
        <time>2021-08-27T08:37:21.000Z</time>
      </trkpt>
      <trkpt lat="49.84502" lon="4.85009">
        <ele>328</ele>
        <time>2021-08-27T08:37:22.000Z</time>
      </trkpt>
      <trkpt lat="49.84502" lon="4.85006">
        <ele>328</ele>
        <time>2021-08-27T08:37:23.000Z</time>
      </trkpt>
      <trkpt lat="49.84502" lon="4.85003">
        <ele>329</ele>
        <time>2021-08-27T08:37:24.000Z</time>
      </trkpt>
      <trkpt lat="49.84502" lon="4.85">
        <ele>329</ele>
        <time>2021-08-27T08:37:25.000Z</time>
      </trkpt>
      <trkpt lat="49.84501" lon="4.84997">
        <ele>329</ele>
        <time>2021-08-27T08:37:26.000Z</time>
      </trkpt>
      <trkpt lat="49.84501" lon="4.84994">
        <ele>329</ele>
        <time>2021-08-27T08:37:27.000Z</time>
      </trkpt>
      <trkpt lat="49.845" lon="4.84992">
        <ele>329</ele>
        <time>2021-08-27T08:37:28.000Z</time>
      </trkpt>
      <trkpt lat="49.845" lon="4.84989">
        <ele>329</ele>
        <time>2021-08-27T08:37:29.000Z</time>
      </trkpt>
      <trkpt lat="49.845" lon="4.84986">
        <ele>329</ele>
        <time>2021-08-27T08:37:30.000Z</time>
      </trkpt>
      <trkpt lat="49.845" lon="4.84983">
        <ele>329</ele>
        <time>2021-08-27T08:37:31.000Z</time>
      </trkpt>
      <trkpt lat="49.84501" lon="4.8498">
        <ele>329</ele>
        <time>2021-08-27T08:37:32.000Z</time>
      </trkpt>
      <trkpt lat="49.845" lon="4.84977">
        <ele>329</ele>
        <time>2021-08-27T08:37:33.000Z</time>
      </trkpt>
      <trkpt lat="49.845" lon="4.84974">
        <ele>329</ele>
        <time>2021-08-27T08:37:34.000Z</time>
      </trkpt>
      <trkpt lat="49.845" lon="4.84972">
        <ele>329</ele>
        <time>2021-08-27T08:37:35.000Z</time>
      </trkpt>
      <trkpt lat="49.845" lon="4.84969">
        <ele>329</ele>
        <time>2021-08-27T08:37:36.000Z</time>
      </trkpt>
      <trkpt lat="49.845" lon="4.84966">
        <ele>330</ele>
        <time>2021-08-27T08:37:37.000Z</time>
      </trkpt>
      <trkpt lat="49.845" lon="4.84963">
        <ele>330</ele>
        <time>2021-08-27T08:37:38.000Z</time>
      </trkpt>
      <trkpt lat="49.84501" lon="4.8496">
        <ele>330</ele>
        <time>2021-08-27T08:37:39.000Z</time>
      </trkpt>
      <trkpt lat="49.84501" lon="4.84958">
        <ele>330</ele>
        <time>2021-08-27T08:37:40.000Z</time>
      </trkpt>
      <trkpt lat="49.84501" lon="4.84955">
        <ele>330</ele>
        <time>2021-08-27T08:37:41.000Z</time>
      </trkpt>
      <trkpt lat="49.845" lon="4.84953">
        <ele>331</ele>
        <time>2021-08-27T08:37:42.000Z</time>
      </trkpt>
      <trkpt lat="49.845" lon="4.84951">
        <ele>331</ele>
        <time>2021-08-27T08:37:43.000Z</time>
      </trkpt>
      <trkpt lat="49.845" lon="4.84949">
        <ele>331</ele>
        <time>2021-08-27T08:37:44.000Z</time>
      </trkpt>
      <trkpt lat="49.84499" lon="4.84947">
        <ele>332</ele>
        <time>2021-08-27T08:37:45.000Z</time>
      </trkpt>
      <trkpt lat="49.84499" lon="4.84946">
        <ele>332</ele>
        <time>2021-08-27T08:37:46.000Z</time>
      </trkpt>
      <trkpt lat="49.84498" lon="4.84945">
        <ele>332</ele>
        <time>2021-08-27T08:37:47.000Z</time>
      </trkpt>
      <trkpt lat="49.84497" lon="4.84946">
        <ele>332</ele>
        <time>2021-08-27T08:37:48.000Z</time>
      </trkpt>
      <trkpt lat="49.84496" lon="4.84947">
        <ele>333</ele>
        <time>2021-08-27T08:37:49.000Z</time>
      </trkpt>
      <trkpt lat="49.84495" lon="4.84948">
        <ele>333</ele>
        <time>2021-08-27T08:37:50.000Z</time>
      </trkpt>
      <trkpt lat="49.84494" lon="4.8495">
        <ele>333</ele>
        <time>2021-08-27T08:37:51.000Z</time>
      </trkpt>
      <trkpt lat="49.84493" lon="4.84953">
        <ele>333</ele>
        <time>2021-08-27T08:37:52.000Z</time>
      </trkpt>
      <trkpt lat="49.84492" lon="4.84955">
        <ele>333</ele>
        <time>2021-08-27T08:37:53.000Z</time>
      </trkpt>
      <trkpt lat="49.84491" lon="4.84957">
        <ele>334</ele>
        <time>2021-08-27T08:37:54.000Z</time>
      </trkpt>
      <trkpt lat="49.84489" lon="4.84959">
        <ele>334</ele>
        <time>2021-08-27T08:37:55.000Z</time>
      </trkpt>
      <trkpt lat="49.84487" lon="4.84961">
        <ele>334</ele>
        <time>2021-08-27T08:37:56.000Z</time>
      </trkpt>
      <trkpt lat="49.84486" lon="4.84963">
        <ele>334</ele>
        <time>2021-08-27T08:37:57.000Z</time>
      </trkpt>
      <trkpt lat="49.84484" lon="4.84965">
        <ele>334</ele>
        <time>2021-08-27T08:37:58.000Z</time>
      </trkpt>
      <trkpt lat="49.84482" lon="4.84966">
        <ele>334</ele>
        <time>2021-08-27T08:37:59.000Z</time>
      </trkpt>
      <trkpt lat="49.8448" lon="4.84966">
        <ele>334</ele>
        <time>2021-08-27T08:38:00.000Z</time>
      </trkpt>
      <trkpt lat="49.84477" lon="4.84965">
        <ele>334</ele>
        <time>2021-08-27T08:38:01.000Z</time>
      </trkpt>
      <trkpt lat="49.84475" lon="4.84964">
        <ele>334</ele>
        <time>2021-08-27T08:38:02.000Z</time>
      </trkpt>
      <trkpt lat="49.84473" lon="4.84962">
        <ele>334</ele>
        <time>2021-08-27T08:38:03.000Z</time>
      </trkpt>
      <trkpt lat="49.84471" lon="4.8496">
        <ele>334</ele>
        <time>2021-08-27T08:38:04.000Z</time>
      </trkpt>
      <trkpt lat="49.8447" lon="4.84957">
        <ele>334</ele>
        <time>2021-08-27T08:38:05.000Z</time>
      </trkpt>
      <trkpt lat="49.84468" lon="4.84954">
        <ele>334</ele>
        <time>2021-08-27T08:38:06.000Z</time>
      </trkpt>
      <trkpt lat="49.84467" lon="4.84951">
        <ele>334</ele>
        <time>2021-08-27T08:38:07.000Z</time>
      </trkpt>
      <trkpt lat="49.84466" lon="4.84948">
        <ele>334</ele>
        <time>2021-08-27T08:38:08.000Z</time>
      </trkpt>
      <trkpt lat="49.84465" lon="4.84945">
        <ele>334</ele>
        <time>2021-08-27T08:38:09.000Z</time>
      </trkpt>
      <trkpt lat="49.84464" lon="4.84942">
        <ele>334</ele>
        <time>2021-08-27T08:38:10.000Z</time>
      </trkpt>
      <trkpt lat="49.84463" lon="4.84939">
        <ele>334</ele>
        <time>2021-08-27T08:38:11.000Z</time>
      </trkpt>
      <trkpt lat="49.84461" lon="4.84935">
        <ele>334</ele>
        <time>2021-08-27T08:38:12.000Z</time>
      </trkpt>
      <trkpt lat="49.8446" lon="4.84931">
        <ele>334</ele>
        <time>2021-08-27T08:38:13.000Z</time>
      </trkpt>
      <trkpt lat="49.84458" lon="4.84927">
        <ele>333</ele>
        <time>2021-08-27T08:38:14.000Z</time>
      </trkpt>
      <trkpt lat="49.84457" lon="4.84923">
        <ele>333</ele>
        <time>2021-08-27T08:38:15.000Z</time>
      </trkpt>
      <trkpt lat="49.84456" lon="4.84918">
        <ele>333</ele>
        <time>2021-08-27T08:38:16.000Z</time>
      </trkpt>
      <trkpt lat="49.84454" lon="4.84914">
        <ele>333</ele>
        <time>2021-08-27T08:38:17.000Z</time>
      </trkpt>
      <trkpt lat="49.84452" lon="4.84909">
        <ele>333</ele>
        <time>2021-08-27T08:38:18.000Z</time>
      </trkpt>
      <trkpt lat="49.84451" lon="4.84904">
        <ele>333</ele>
        <time>2021-08-27T08:38:19.000Z</time>
      </trkpt>
      <trkpt lat="49.8445" lon="4.849">
        <ele>333</ele>
        <time>2021-08-27T08:38:20.000Z</time>
      </trkpt>
      <trkpt lat="49.84448" lon="4.84896">
        <ele>333</ele>
        <time>2021-08-27T08:38:21.000Z</time>
      </trkpt>
      <trkpt lat="49.84447" lon="4.84891">
        <ele>333</ele>
        <time>2021-08-27T08:38:22.000Z</time>
      </trkpt>
      <trkpt lat="49.84445" lon="4.84887">
        <ele>333</ele>
        <time>2021-08-27T08:38:23.000Z</time>
      </trkpt>
      <trkpt lat="49.84444" lon="4.84882">
        <ele>333</ele>
        <time>2021-08-27T08:38:24.000Z</time>
      </trkpt>
      <trkpt lat="49.84443" lon="4.84877">
        <ele>333</ele>
        <time>2021-08-27T08:38:25.000Z</time>
      </trkpt>
      <trkpt lat="49.84442" lon="4.84873">
        <ele>333</ele>
        <time>2021-08-27T08:38:26.000Z</time>
      </trkpt>
      <trkpt lat="49.84441" lon="4.84868">
        <ele>333</ele>
        <time>2021-08-27T08:38:27.000Z</time>
      </trkpt>
      <trkpt lat="49.8444" lon="4.84863">
        <ele>333</ele>
        <time>2021-08-27T08:38:28.000Z</time>
      </trkpt>
      <trkpt lat="49.84439" lon="4.84859">
        <ele>333</ele>
        <time>2021-08-27T08:38:29.000Z</time>
      </trkpt>
      <trkpt lat="49.84438" lon="4.84855">
        <ele>333</ele>
        <time>2021-08-27T08:38:30.000Z</time>
      </trkpt>
      <trkpt lat="49.84437" lon="4.8485">
        <ele>333</ele>
        <time>2021-08-27T08:38:31.000Z</time>
      </trkpt>
      <trkpt lat="49.84436" lon="4.84846">
        <ele>333</ele>
        <time>2021-08-27T08:38:32.000Z</time>
      </trkpt>
      <trkpt lat="49.84435" lon="4.84841">
        <ele>333</ele>
        <time>2021-08-27T08:38:33.000Z</time>
      </trkpt>
      <trkpt lat="49.84434" lon="4.84837">
        <ele>333</ele>
        <time>2021-08-27T08:38:34.000Z</time>
      </trkpt>
      <trkpt lat="49.84433" lon="4.84833">
        <ele>333</ele>
        <time>2021-08-27T08:38:35.000Z</time>
      </trkpt>
      <trkpt lat="49.84432" lon="4.84829">
        <ele>333</ele>
        <time>2021-08-27T08:38:36.000Z</time>
      </trkpt>
      <trkpt lat="49.84431" lon="4.84825">
        <ele>333</ele>
        <time>2021-08-27T08:38:37.000Z</time>
      </trkpt>
      <trkpt lat="49.8443" lon="4.84821">
        <ele>333</ele>
        <time>2021-08-27T08:38:38.000Z</time>
      </trkpt>
      <trkpt lat="49.84429" lon="4.84816">
        <ele>333</ele>
        <time>2021-08-27T08:38:39.000Z</time>
      </trkpt>
      <trkpt lat="49.84429" lon="4.84812">
        <ele>333</ele>
        <time>2021-08-27T08:38:40.000Z</time>
      </trkpt>
      <trkpt lat="49.84427" lon="4.84808">
        <ele>333</ele>
        <time>2021-08-27T08:38:41.000Z</time>
      </trkpt>
      <trkpt lat="49.84426" lon="4.84803">
        <ele>332</ele>
        <time>2021-08-27T08:38:42.000Z</time>
      </trkpt>
      <trkpt lat="49.84424" lon="4.84799">
        <ele>332</ele>
        <time>2021-08-27T08:38:43.000Z</time>
      </trkpt>
      <trkpt lat="49.84423" lon="4.84795">
        <ele>333</ele>
        <time>2021-08-27T08:38:44.000Z</time>
      </trkpt>
      <trkpt lat="49.84421" lon="4.8479">
        <ele>333</ele>
        <time>2021-08-27T08:38:45.000Z</time>
      </trkpt>
      <trkpt lat="49.8442" lon="4.84786">
        <ele>333</ele>
        <time>2021-08-27T08:38:46.000Z</time>
      </trkpt>
      <trkpt lat="49.84419" lon="4.84782">
        <ele>333</ele>
        <time>2021-08-27T08:38:47.000Z</time>
      </trkpt>
      <trkpt lat="49.84418" lon="4.84778">
        <ele>333</ele>
        <time>2021-08-27T08:38:48.000Z</time>
      </trkpt>
      <trkpt lat="49.84416" lon="4.84773">
        <ele>333</ele>
        <time>2021-08-27T08:38:49.000Z</time>
      </trkpt>
      <trkpt lat="49.84414" lon="4.84769">
        <ele>333</ele>
        <time>2021-08-27T08:38:50.000Z</time>
      </trkpt>
      <trkpt lat="49.84413" lon="4.84764">
        <ele>333</ele>
        <time>2021-08-27T08:38:51.000Z</time>
      </trkpt>
      <trkpt lat="49.84412" lon="4.8476">
        <ele>333</ele>
        <time>2021-08-27T08:38:52.000Z</time>
      </trkpt>
      <trkpt lat="49.84411" lon="4.84757">
        <ele>333</ele>
        <time>2021-08-27T08:38:53.000Z</time>
      </trkpt>
      <trkpt lat="49.84409" lon="4.84754">
        <ele>333</ele>
        <time>2021-08-27T08:38:54.000Z</time>
      </trkpt>
      <trkpt lat="49.84407" lon="4.84752">
        <ele>333</ele>
        <time>2021-08-27T08:38:55.000Z</time>
      </trkpt>
      <trkpt lat="49.84405" lon="4.84749">
        <ele>333</ele>
        <time>2021-08-27T08:38:56.000Z</time>
      </trkpt>
      <trkpt lat="49.84402" lon="4.84747">
        <ele>333</ele>
        <time>2021-08-27T08:38:57.000Z</time>
      </trkpt>
      <trkpt lat="49.844" lon="4.84745">
        <ele>333</ele>
        <time>2021-08-27T08:38:58.000Z</time>
      </trkpt>
      <trkpt lat="49.84398" lon="4.84742">
        <ele>333</ele>
        <time>2021-08-27T08:38:59.000Z</time>
      </trkpt>
      <trkpt lat="49.84395" lon="4.8474">
        <ele>333</ele>
        <time>2021-08-27T08:39:00.000Z</time>
      </trkpt>
      <trkpt lat="49.84393" lon="4.84736">
        <ele>332</ele>
        <time>2021-08-27T08:39:01.000Z</time>
      </trkpt>
      <trkpt lat="49.8439" lon="4.84733">
        <ele>332</ele>
        <time>2021-08-27T08:39:02.000Z</time>
      </trkpt>
      <trkpt lat="49.84388" lon="4.84731">
        <ele>332</ele>
        <time>2021-08-27T08:39:03.000Z</time>
      </trkpt>
      <trkpt lat="49.84386" lon="4.84728">
        <ele>332</ele>
        <time>2021-08-27T08:39:04.000Z</time>
      </trkpt>
      <trkpt lat="49.84385" lon="4.84725">
        <ele>332</ele>
        <time>2021-08-27T08:39:05.000Z</time>
      </trkpt>
      <trkpt lat="49.84383" lon="4.84722">
        <ele>332</ele>
        <time>2021-08-27T08:39:06.000Z</time>
      </trkpt>
      <trkpt lat="49.84381" lon="4.84719">
        <ele>332</ele>
        <time>2021-08-27T08:39:07.000Z</time>
      </trkpt>
      <trkpt lat="49.84379" lon="4.84715">
        <ele>331</ele>
        <time>2021-08-27T08:39:08.000Z</time>
      </trkpt>
      <trkpt lat="49.84376" lon="4.84712">
        <ele>331</ele>
        <time>2021-08-27T08:39:09.000Z</time>
      </trkpt>
      <trkpt lat="49.84374" lon="4.84709">
        <ele>331</ele>
        <time>2021-08-27T08:39:10.000Z</time>
      </trkpt>
      <trkpt lat="49.8437" lon="4.84706">
        <ele>331</ele>
        <time>2021-08-27T08:39:11.000Z</time>
      </trkpt>
      <trkpt lat="49.84367" lon="4.84704">
        <ele>331</ele>
        <time>2021-08-27T08:39:12.000Z</time>
      </trkpt>
      <trkpt lat="49.84364" lon="4.84702">
        <ele>331</ele>
        <time>2021-08-27T08:39:13.000Z</time>
      </trkpt>
      <trkpt lat="49.84361" lon="4.84701">
        <ele>331</ele>
        <time>2021-08-27T08:39:14.000Z</time>
      </trkpt>
      <trkpt lat="49.84358" lon="4.84699">
        <ele>331</ele>
        <time>2021-08-27T08:39:15.000Z</time>
      </trkpt>
      <trkpt lat="49.84355" lon="4.84697">
        <ele>331</ele>
        <time>2021-08-27T08:39:16.000Z</time>
      </trkpt>
      <trkpt lat="49.84351" lon="4.84697">
        <ele>331</ele>
        <time>2021-08-27T08:39:17.000Z</time>
      </trkpt>
      <trkpt lat="49.84348" lon="4.84695">
        <ele>331</ele>
        <time>2021-08-27T08:39:18.000Z</time>
      </trkpt>
      <trkpt lat="49.84346" lon="4.84695">
        <ele>331</ele>
        <time>2021-08-27T08:39:19.000Z</time>
      </trkpt>
      <trkpt lat="49.84343" lon="4.84694">
        <ele>331</ele>
        <time>2021-08-27T08:39:20.000Z</time>
      </trkpt>
      <trkpt lat="49.8434" lon="4.84693">
        <ele>331</ele>
        <time>2021-08-27T08:39:21.000Z</time>
      </trkpt>
      <trkpt lat="49.84338" lon="4.84692">
        <ele>330</ele>
        <time>2021-08-27T08:39:22.000Z</time>
      </trkpt>
      <trkpt lat="49.84335" lon="4.84691">
        <ele>330</ele>
        <time>2021-08-27T08:39:23.000Z</time>
      </trkpt>
      <trkpt lat="49.84333" lon="4.84689">
        <ele>330</ele>
        <time>2021-08-27T08:39:24.000Z</time>
      </trkpt>
      <trkpt lat="49.84331" lon="4.84688">
        <ele>330</ele>
        <time>2021-08-27T08:39:25.000Z</time>
      </trkpt>
      <trkpt lat="49.84328" lon="4.84686">
        <ele>330</ele>
        <time>2021-08-27T08:39:26.000Z</time>
      </trkpt>
      <trkpt lat="49.84325" lon="4.84685">
        <ele>330</ele>
        <time>2021-08-27T08:39:27.000Z</time>
      </trkpt>
      <trkpt lat="49.84322" lon="4.84683">
        <ele>330</ele>
        <time>2021-08-27T08:39:28.000Z</time>
      </trkpt>
      <trkpt lat="49.84319" lon="4.84682">
        <ele>330</ele>
        <time>2021-08-27T08:39:29.000Z</time>
      </trkpt>
      <trkpt lat="49.84317" lon="4.8468">
        <ele>331</ele>
        <time>2021-08-27T08:39:30.000Z</time>
      </trkpt>
      <trkpt lat="49.84314" lon="4.84678">
        <ele>331</ele>
        <time>2021-08-27T08:39:31.000Z</time>
      </trkpt>
      <trkpt lat="49.84312" lon="4.84676">
        <ele>331</ele>
        <time>2021-08-27T08:39:32.000Z</time>
      </trkpt>
      <trkpt lat="49.84309" lon="4.84674">
        <ele>331</ele>
        <time>2021-08-27T08:39:33.000Z</time>
      </trkpt>
      <trkpt lat="49.84306" lon="4.84673">
        <ele>331</ele>
        <time>2021-08-27T08:39:34.000Z</time>
      </trkpt>
      <trkpt lat="49.84303" lon="4.84671">
        <ele>330</ele>
        <time>2021-08-27T08:39:35.000Z</time>
      </trkpt>
      <trkpt lat="49.843" lon="4.84669">
        <ele>330</ele>
        <time>2021-08-27T08:39:36.000Z</time>
      </trkpt>
      <trkpt lat="49.84298" lon="4.84668">
        <ele>330</ele>
        <time>2021-08-27T08:39:37.000Z</time>
      </trkpt>
      <trkpt lat="49.84296" lon="4.84666">
        <ele>330</ele>
        <time>2021-08-27T08:39:38.000Z</time>
      </trkpt>
      <trkpt lat="49.84293" lon="4.84666">
        <ele>330</ele>
        <time>2021-08-27T08:39:39.000Z</time>
      </trkpt>
      <trkpt lat="49.84292" lon="4.84665">
        <ele>331</ele>
        <time>2021-08-27T08:39:40.000Z</time>
      </trkpt>
      <trkpt lat="49.84289" lon="4.84665">
        <ele>331</ele>
        <time>2021-08-27T08:39:41.000Z</time>
      </trkpt>
      <trkpt lat="49.84287" lon="4.84664">
        <ele>331</ele>
        <time>2021-08-27T08:39:42.000Z</time>
      </trkpt>
      <trkpt lat="49.84285" lon="4.84664">
        <ele>330</ele>
        <time>2021-08-27T08:39:43.000Z</time>
      </trkpt>
      <trkpt lat="49.84282" lon="4.84663">
        <ele>330</ele>
        <time>2021-08-27T08:39:44.000Z</time>
      </trkpt>
      <trkpt lat="49.8428" lon="4.84663">
        <ele>330</ele>
        <time>2021-08-27T08:39:45.000Z</time>
      </trkpt>
      <trkpt lat="49.84277" lon="4.84662">
        <ele>330</ele>
        <time>2021-08-27T08:39:46.000Z</time>
      </trkpt>
      <trkpt lat="49.84274" lon="4.84661">
        <ele>330</ele>
        <time>2021-08-27T08:39:47.000Z</time>
      </trkpt>
      <trkpt lat="49.84272" lon="4.8466">
        <ele>330</ele>
        <time>2021-08-27T08:39:48.000Z</time>
      </trkpt>
      <trkpt lat="49.8427" lon="4.8466">
        <ele>330</ele>
        <time>2021-08-27T08:39:49.000Z</time>
      </trkpt>
      <trkpt lat="49.84267" lon="4.84659">
        <ele>330</ele>
        <time>2021-08-27T08:39:50.000Z</time>
      </trkpt>
      <trkpt lat="49.84265" lon="4.84658">
        <ele>330</ele>
        <time>2021-08-27T08:39:51.000Z</time>
      </trkpt>
      <trkpt lat="49.84263" lon="4.84658">
        <ele>330</ele>
        <time>2021-08-27T08:39:52.000Z</time>
      </trkpt>
      <trkpt lat="49.84261" lon="4.84657">
        <ele>330</ele>
        <time>2021-08-27T08:39:53.000Z</time>
      </trkpt>
      <trkpt lat="49.84259" lon="4.84657">
        <ele>330</ele>
        <time>2021-08-27T08:39:54.000Z</time>
      </trkpt>
      <trkpt lat="49.84256" lon="4.84656">
        <ele>330</ele>
        <time>2021-08-27T08:39:55.000Z</time>
      </trkpt>
      <trkpt lat="49.84254" lon="4.84656">
        <ele>330</ele>
        <time>2021-08-27T08:39:56.000Z</time>
      </trkpt>
      <trkpt lat="49.84253" lon="4.84656">
        <ele>330</ele>
        <time>2021-08-27T08:39:57.000Z</time>
      </trkpt>
      <trkpt lat="49.84252" lon="4.84656">
        <ele>330</ele>
        <time>2021-08-27T08:39:58.000Z</time>
      </trkpt>
      <trkpt lat="49.84251" lon="4.84656">
        <ele>330</ele>
        <time>2021-08-27T08:39:59.000Z</time>
      </trkpt>
      <trkpt lat="49.84251" lon="4.84656">
        <ele>330</ele>
        <time>2021-08-27T08:40:00.000Z</time>
      </trkpt>
      <trkpt lat="49.8425" lon="4.84656">
        <ele>330</ele>
        <time>2021-08-27T08:40:01.000Z</time>
      </trkpt>
      <trkpt lat="49.8425" lon="4.84656">
        <ele>330</ele>
        <time>2021-08-27T08:40:02.000Z</time>
      </trkpt>
      <trkpt lat="49.84249" lon="4.84656">
        <ele>330</ele>
        <time>2021-08-27T08:40:03.000Z</time>
      </trkpt>
      <trkpt lat="49.84249" lon="4.84656">
        <ele>330</ele>
        <time>2021-08-27T08:40:04.000Z</time>
      </trkpt>
      <trkpt lat="49.84249" lon="4.84656">
        <ele>330</ele>
        <time>2021-08-27T08:40:05.000Z</time>
      </trkpt>
      <trkpt lat="49.84248" lon="4.84656">
        <ele>330</ele>
        <time>2021-08-27T08:40:06.000Z</time>
      </trkpt>
      <trkpt lat="49.84247" lon="4.84656">
        <ele>330</ele>
        <time>2021-08-27T08:40:07.000Z</time>
      </trkpt>
      <trkpt lat="49.84246" lon="4.84657">
        <ele>330</ele>
        <time>2021-08-27T08:40:08.000Z</time>
      </trkpt>
      <trkpt lat="49.84245" lon="4.84657">
        <ele>330</ele>
        <time>2021-08-27T08:40:09.000Z</time>
      </trkpt>
      <trkpt lat="49.84243" lon="4.84658">
        <ele>330</ele>
        <time>2021-08-27T08:40:10.000Z</time>
      </trkpt>
      <trkpt lat="49.84241" lon="4.84658">
        <ele>330</ele>
        <time>2021-08-27T08:40:11.000Z</time>
      </trkpt>
      <trkpt lat="49.8424" lon="4.84658">
        <ele>330</ele>
        <time>2021-08-27T08:40:12.000Z</time>
      </trkpt>
      <trkpt lat="49.84238" lon="4.84659">
        <ele>330</ele>
        <time>2021-08-27T08:40:13.000Z</time>
      </trkpt>
      <trkpt lat="49.84236" lon="4.84659">
        <ele>330</ele>
        <time>2021-08-27T08:40:14.000Z</time>
      </trkpt>
      <trkpt lat="49.84235" lon="4.8466">
        <ele>330</ele>
        <time>2021-08-27T08:40:15.000Z</time>
      </trkpt>
      <trkpt lat="49.84233" lon="4.8466">
        <ele>331</ele>
        <time>2021-08-27T08:40:16.000Z</time>
      </trkpt>
      <trkpt lat="49.84232" lon="4.84659">
        <ele>331</ele>
        <time>2021-08-27T08:40:17.000Z</time>
      </trkpt>
      <trkpt lat="49.84231" lon="4.84657">
        <ele>331</ele>
        <time>2021-08-27T08:40:18.000Z</time>
      </trkpt>
      <trkpt lat="49.8423" lon="4.84655">
        <ele>331</ele>
        <time>2021-08-27T08:40:19.000Z</time>
      </trkpt>
      <trkpt lat="49.8423" lon="4.84652">
        <ele>331</ele>
        <time>2021-08-27T08:40:20.000Z</time>
      </trkpt>
      <trkpt lat="49.84229" lon="4.8465">
        <ele>331</ele>
        <time>2021-08-27T08:40:21.000Z</time>
      </trkpt>
      <trkpt lat="49.84228" lon="4.84647">
        <ele>331</ele>
        <time>2021-08-27T08:40:22.000Z</time>
      </trkpt>
      <trkpt lat="49.84228" lon="4.84645">
        <ele>332</ele>
        <time>2021-08-27T08:40:23.000Z</time>
      </trkpt>
      <trkpt lat="49.84228" lon="4.84643">
        <ele>332</ele>
        <time>2021-08-27T08:40:24.000Z</time>
      </trkpt>
      <trkpt lat="49.84227" lon="4.8464">
        <ele>332</ele>
        <time>2021-08-27T08:40:25.000Z</time>
      </trkpt>
      <trkpt lat="49.84228" lon="4.84637">
        <ele>332</ele>
        <time>2021-08-27T08:40:26.000Z</time>
      </trkpt>
      <trkpt lat="49.84228" lon="4.84634">
        <ele>332</ele>
        <time>2021-08-27T08:40:27.000Z</time>
      </trkpt>
      <trkpt lat="49.84228" lon="4.84631">
        <ele>332</ele>
        <time>2021-08-27T08:40:28.000Z</time>
      </trkpt>
      <trkpt lat="49.84228" lon="4.84629">
        <ele>332</ele>
        <time>2021-08-27T08:40:29.000Z</time>
      </trkpt>
      <trkpt lat="49.84228" lon="4.84626">
        <ele>332</ele>
        <time>2021-08-27T08:40:30.000Z</time>
      </trkpt>
      <trkpt lat="49.84228" lon="4.84623">
        <ele>332</ele>
        <time>2021-08-27T08:40:31.000Z</time>
      </trkpt>
      <trkpt lat="49.84228" lon="4.84621">
        <ele>332</ele>
        <time>2021-08-27T08:40:32.000Z</time>
      </trkpt>
      <trkpt lat="49.84228" lon="4.84618">
        <ele>333</ele>
        <time>2021-08-27T08:40:33.000Z</time>
      </trkpt>
      <trkpt lat="49.84228" lon="4.84615">
        <ele>333</ele>
        <time>2021-08-27T08:40:34.000Z</time>
      </trkpt>
      <trkpt lat="49.84227" lon="4.84612">
        <ele>333</ele>
        <time>2021-08-27T08:40:35.000Z</time>
      </trkpt>
      <trkpt lat="49.84227" lon="4.84609">
        <ele>333</ele>
        <time>2021-08-27T08:40:36.000Z</time>
      </trkpt>
      <trkpt lat="49.84226" lon="4.84606">
        <ele>333</ele>
        <time>2021-08-27T08:40:37.000Z</time>
      </trkpt>
      <trkpt lat="49.84226" lon="4.84602">
        <ele>333</ele>
        <time>2021-08-27T08:40:38.000Z</time>
      </trkpt>
      <trkpt lat="49.84226" lon="4.84599">
        <ele>333</ele>
        <time>2021-08-27T08:40:39.000Z</time>
      </trkpt>
      <trkpt lat="49.84226" lon="4.84596">
        <ele>334</ele>
        <time>2021-08-27T08:40:40.000Z</time>
      </trkpt>
      <trkpt lat="49.84226" lon="4.84592">
        <ele>334</ele>
        <time>2021-08-27T08:40:41.000Z</time>
      </trkpt>
      <trkpt lat="49.84225" lon="4.84589">
        <ele>334</ele>
        <time>2021-08-27T08:40:42.000Z</time>
      </trkpt>
      <trkpt lat="49.84225" lon="4.84586">
        <ele>334</ele>
        <time>2021-08-27T08:40:43.000Z</time>
      </trkpt>
      <trkpt lat="49.84225" lon="4.84583">
        <ele>335</ele>
        <time>2021-08-27T08:40:44.000Z</time>
      </trkpt>
      <trkpt lat="49.84224" lon="4.8458">
        <ele>335</ele>
        <time>2021-08-27T08:40:45.000Z</time>
      </trkpt>
      <trkpt lat="49.84223" lon="4.84577">
        <ele>335</ele>
        <time>2021-08-27T08:40:46.000Z</time>
      </trkpt>
      <trkpt lat="49.84222" lon="4.84574">
        <ele>336</ele>
        <time>2021-08-27T08:40:47.000Z</time>
      </trkpt>
      <trkpt lat="49.84222" lon="4.84571">
        <ele>336</ele>
        <time>2021-08-27T08:40:48.000Z</time>
      </trkpt>
      <trkpt lat="49.84222" lon="4.84568">
        <ele>336</ele>
        <time>2021-08-27T08:40:49.000Z</time>
      </trkpt>
      <trkpt lat="49.84222" lon="4.84565">
        <ele>336</ele>
        <time>2021-08-27T08:40:50.000Z</time>
      </trkpt>
      <trkpt lat="49.84221" lon="4.84563">
        <ele>337</ele>
        <time>2021-08-27T08:40:51.000Z</time>
      </trkpt>
      <trkpt lat="49.84221" lon="4.84559">
        <ele>337</ele>
        <time>2021-08-27T08:40:52.000Z</time>
      </trkpt>
      <trkpt lat="49.8422" lon="4.84556">
        <ele>337</ele>
        <time>2021-08-27T08:40:53.000Z</time>
      </trkpt>
      <trkpt lat="49.8422" lon="4.84553">
        <ele>337</ele>
        <time>2021-08-27T08:40:54.000Z</time>
      </trkpt>
      <trkpt lat="49.8422" lon="4.8455">
        <ele>338</ele>
        <time>2021-08-27T08:40:55.000Z</time>
      </trkpt>
      <trkpt lat="49.84219" lon="4.84547">
        <ele>338</ele>
        <time>2021-08-27T08:40:56.000Z</time>
      </trkpt>
      <trkpt lat="49.84219" lon="4.84545">
        <ele>338</ele>
        <time>2021-08-27T08:40:57.000Z</time>
      </trkpt>
      <trkpt lat="49.84219" lon="4.84542">
        <ele>339</ele>
        <time>2021-08-27T08:40:58.000Z</time>
      </trkpt>
      <trkpt lat="49.84219" lon="4.8454">
        <ele>339</ele>
        <time>2021-08-27T08:40:59.000Z</time>
      </trkpt>
      <trkpt lat="49.84219" lon="4.84537">
        <ele>340</ele>
        <time>2021-08-27T08:41:00.000Z</time>
      </trkpt>
      <trkpt lat="49.84219" lon="4.84535">
        <ele>340</ele>
        <time>2021-08-27T08:41:01.000Z</time>
      </trkpt>
      <trkpt lat="49.8422" lon="4.84532">
        <ele>340</ele>
        <time>2021-08-27T08:41:02.000Z</time>
      </trkpt>
      <trkpt lat="49.8422" lon="4.8453">
        <ele>341</ele>
        <time>2021-08-27T08:41:03.000Z</time>
      </trkpt>
      <trkpt lat="49.84221" lon="4.84527">
        <ele>341</ele>
        <time>2021-08-27T08:41:04.000Z</time>
      </trkpt>
      <trkpt lat="49.84222" lon="4.84525">
        <ele>342</ele>
        <time>2021-08-27T08:41:05.000Z</time>
      </trkpt>
      <trkpt lat="49.84222" lon="4.84523">
        <ele>342</ele>
        <time>2021-08-27T08:41:06.000Z</time>
      </trkpt>
      <trkpt lat="49.84222" lon="4.8452">
        <ele>342</ele>
        <time>2021-08-27T08:41:07.000Z</time>
      </trkpt>
      <trkpt lat="49.84223" lon="4.84518">
        <ele>343</ele>
        <time>2021-08-27T08:41:08.000Z</time>
      </trkpt>
      <trkpt lat="49.84223" lon="4.84515">
        <ele>343</ele>
        <time>2021-08-27T08:41:09.000Z</time>
      </trkpt>
      <trkpt lat="49.84223" lon="4.84513">
        <ele>344</ele>
        <time>2021-08-27T08:41:10.000Z</time>
      </trkpt>
      <trkpt lat="49.84223" lon="4.8451">
        <ele>344</ele>
        <time>2021-08-27T08:41:11.000Z</time>
      </trkpt>
      <trkpt lat="49.84223" lon="4.84507">
        <ele>345</ele>
        <time>2021-08-27T08:41:12.000Z</time>
      </trkpt>
      <trkpt lat="49.84223" lon="4.84504">
        <ele>345</ele>
        <time>2021-08-27T08:41:13.000Z</time>
      </trkpt>
      <trkpt lat="49.84222" lon="4.84502">
        <ele>345</ele>
        <time>2021-08-27T08:41:14.000Z</time>
      </trkpt>
      <trkpt lat="49.84221" lon="4.84499">
        <ele>346</ele>
        <time>2021-08-27T08:41:15.000Z</time>
      </trkpt>
      <trkpt lat="49.84222" lon="4.84497">
        <ele>346</ele>
        <time>2021-08-27T08:41:16.000Z</time>
      </trkpt>
      <trkpt lat="49.84222" lon="4.84494">
        <ele>347</ele>
        <time>2021-08-27T08:41:17.000Z</time>
      </trkpt>
      <trkpt lat="49.84222" lon="4.84492">
        <ele>347</ele>
        <time>2021-08-27T08:41:18.000Z</time>
      </trkpt>
      <trkpt lat="49.84223" lon="4.84489">
        <ele>347</ele>
        <time>2021-08-27T08:41:19.000Z</time>
      </trkpt>
      <trkpt lat="49.84224" lon="4.84487">
        <ele>348</ele>
        <time>2021-08-27T08:41:20.000Z</time>
      </trkpt>
      <trkpt lat="49.84224" lon="4.84485">
        <ele>348</ele>
        <time>2021-08-27T08:41:21.000Z</time>
      </trkpt>
      <trkpt lat="49.84224" lon="4.84483">
        <ele>348</ele>
        <time>2021-08-27T08:41:22.000Z</time>
      </trkpt>
      <trkpt lat="49.84224" lon="4.84481">
        <ele>348</ele>
        <time>2021-08-27T08:41:23.000Z</time>
      </trkpt>
      <trkpt lat="49.84224" lon="4.84478">
        <ele>349</ele>
        <time>2021-08-27T08:41:24.000Z</time>
      </trkpt>
      <trkpt lat="49.84224" lon="4.84476">
        <ele>349</ele>
        <time>2021-08-27T08:41:25.000Z</time>
      </trkpt>
      <trkpt lat="49.84225" lon="4.84474">
        <ele>349</ele>
        <time>2021-08-27T08:41:26.000Z</time>
      </trkpt>
      <trkpt lat="49.84225" lon="4.84471">
        <ele>350</ele>
        <time>2021-08-27T08:41:27.000Z</time>
      </trkpt>
      <trkpt lat="49.84225" lon="4.84469">
        <ele>350</ele>
        <time>2021-08-27T08:41:28.000Z</time>
      </trkpt>
      <trkpt lat="49.84225" lon="4.84466">
        <ele>350</ele>
        <time>2021-08-27T08:41:29.000Z</time>
      </trkpt>
      <trkpt lat="49.84225" lon="4.84464">
        <ele>350</ele>
        <time>2021-08-27T08:41:30.000Z</time>
      </trkpt>
      <trkpt lat="49.84225" lon="4.84462">
        <ele>351</ele>
        <time>2021-08-27T08:41:31.000Z</time>
      </trkpt>
      <trkpt lat="49.84225" lon="4.8446">
        <ele>351</ele>
        <time>2021-08-27T08:41:32.000Z</time>
      </trkpt>
      <trkpt lat="49.84225" lon="4.84457">
        <ele>351</ele>
        <time>2021-08-27T08:41:33.000Z</time>
      </trkpt>
      <trkpt lat="49.84225" lon="4.84455">
        <ele>351</ele>
        <time>2021-08-27T08:41:34.000Z</time>
      </trkpt>
      <trkpt lat="49.84225" lon="4.84452">
        <ele>352</ele>
        <time>2021-08-27T08:41:35.000Z</time>
      </trkpt>
      <trkpt lat="49.84225" lon="4.84449">
        <ele>352</ele>
        <time>2021-08-27T08:41:36.000Z</time>
      </trkpt>
      <trkpt lat="49.84225" lon="4.84447">
        <ele>352</ele>
        <time>2021-08-27T08:41:37.000Z</time>
      </trkpt>
      <trkpt lat="49.84225" lon="4.84444">
        <ele>352</ele>
        <time>2021-08-27T08:41:38.000Z</time>
      </trkpt>
      <trkpt lat="49.84226" lon="4.84441">
        <ele>352</ele>
        <time>2021-08-27T08:41:39.000Z</time>
      </trkpt>
      <trkpt lat="49.84226" lon="4.84439">
        <ele>353</ele>
        <time>2021-08-27T08:41:40.000Z</time>
      </trkpt>
      <trkpt lat="49.84225" lon="4.84436">
        <ele>353</ele>
        <time>2021-08-27T08:41:41.000Z</time>
      </trkpt>
      <trkpt lat="49.84224" lon="4.84434">
        <ele>353</ele>
        <time>2021-08-27T08:41:42.000Z</time>
      </trkpt>
      <trkpt lat="49.84224" lon="4.84432">
        <ele>353</ele>
        <time>2021-08-27T08:41:43.000Z</time>
      </trkpt>
      <trkpt lat="49.84224" lon="4.84429">
        <ele>354</ele>
        <time>2021-08-27T08:41:44.000Z</time>
      </trkpt>
      <trkpt lat="49.84224" lon="4.84426">
        <ele>354</ele>
        <time>2021-08-27T08:41:45.000Z</time>
      </trkpt>
      <trkpt lat="49.84223" lon="4.84424">
        <ele>354</ele>
        <time>2021-08-27T08:41:46.000Z</time>
      </trkpt>
      <trkpt lat="49.84223" lon="4.84421">
        <ele>354</ele>
        <time>2021-08-27T08:41:47.000Z</time>
      </trkpt>
      <trkpt lat="49.84223" lon="4.84418">
        <ele>355</ele>
        <time>2021-08-27T08:41:48.000Z</time>
      </trkpt>
      <trkpt lat="49.84223" lon="4.84415">
        <ele>355</ele>
        <time>2021-08-27T08:41:49.000Z</time>
      </trkpt>
      <trkpt lat="49.84222" lon="4.84412">
        <ele>355</ele>
        <time>2021-08-27T08:41:50.000Z</time>
      </trkpt>
      <trkpt lat="49.84222" lon="4.8441">
        <ele>355</ele>
        <time>2021-08-27T08:41:51.000Z</time>
      </trkpt>
      <trkpt lat="49.84221" lon="4.84407">
        <ele>356</ele>
        <time>2021-08-27T08:41:52.000Z</time>
      </trkpt>
      <trkpt lat="49.84222" lon="4.84405">
        <ele>356</ele>
        <time>2021-08-27T08:41:53.000Z</time>
      </trkpt>
      <trkpt lat="49.84222" lon="4.84403">
        <ele>356</ele>
        <time>2021-08-27T08:41:54.000Z</time>
      </trkpt>
      <trkpt lat="49.84222" lon="4.844">
        <ele>357</ele>
        <time>2021-08-27T08:41:55.000Z</time>
      </trkpt>
      <trkpt lat="49.84223" lon="4.84397">
        <ele>357</ele>
        <time>2021-08-27T08:41:56.000Z</time>
      </trkpt>
      <trkpt lat="49.84223" lon="4.84395">
        <ele>357</ele>
        <time>2021-08-27T08:41:57.000Z</time>
      </trkpt>
      <trkpt lat="49.84223" lon="4.84392">
        <ele>358</ele>
        <time>2021-08-27T08:41:58.000Z</time>
      </trkpt>
      <trkpt lat="49.84224" lon="4.84389">
        <ele>358</ele>
        <time>2021-08-27T08:41:59.000Z</time>
      </trkpt>
      <trkpt lat="49.84225" lon="4.84386">
        <ele>358</ele>
        <time>2021-08-27T08:42:00.000Z</time>
      </trkpt>
      <trkpt lat="49.84225" lon="4.84383">
        <ele>358</ele>
        <time>2021-08-27T08:42:01.000Z</time>
      </trkpt>
      <trkpt lat="49.84225" lon="4.8438">
        <ele>359</ele>
        <time>2021-08-27T08:42:02.000Z</time>
      </trkpt>
      <trkpt lat="49.84225" lon="4.84378">
        <ele>359</ele>
        <time>2021-08-27T08:42:03.000Z</time>
      </trkpt>
      <trkpt lat="49.84225" lon="4.84376">
        <ele>359</ele>
        <time>2021-08-27T08:42:04.000Z</time>
      </trkpt>
      <trkpt lat="49.84225" lon="4.84373">
        <ele>360</ele>
        <time>2021-08-27T08:42:05.000Z</time>
      </trkpt>
      <trkpt lat="49.84224" lon="4.84372">
        <ele>360</ele>
        <time>2021-08-27T08:42:06.000Z</time>
      </trkpt>
      <trkpt lat="49.84224" lon="4.84369">
        <ele>360</ele>
        <time>2021-08-27T08:42:07.000Z</time>
      </trkpt>
      <trkpt lat="49.84224" lon="4.84367">
        <ele>360</ele>
        <time>2021-08-27T08:42:08.000Z</time>
      </trkpt>
      <trkpt lat="49.84224" lon="4.84365">
        <ele>361</ele>
        <time>2021-08-27T08:42:09.000Z</time>
      </trkpt>
      <trkpt lat="49.84223" lon="4.84363">
        <ele>361</ele>
        <time>2021-08-27T08:42:10.000Z</time>
      </trkpt>
      <trkpt lat="49.84224" lon="4.84361">
        <ele>361</ele>
        <time>2021-08-27T08:42:11.000Z</time>
      </trkpt>
      <trkpt lat="49.84224" lon="4.84359">
        <ele>361</ele>
        <time>2021-08-27T08:42:12.000Z</time>
      </trkpt>
      <trkpt lat="49.84223" lon="4.84357">
        <ele>362</ele>
        <time>2021-08-27T08:42:13.000Z</time>
      </trkpt>
      <trkpt lat="49.84223" lon="4.84354">
        <ele>362</ele>
        <time>2021-08-27T08:42:14.000Z</time>
      </trkpt>
      <trkpt lat="49.84223" lon="4.84352">
        <ele>362</ele>
        <time>2021-08-27T08:42:15.000Z</time>
      </trkpt>
      <trkpt lat="49.84223" lon="4.8435">
        <ele>362</ele>
        <time>2021-08-27T08:42:16.000Z</time>
      </trkpt>
      <trkpt lat="49.84224" lon="4.84348">
        <ele>362</ele>
        <time>2021-08-27T08:42:17.000Z</time>
      </trkpt>
      <trkpt lat="49.84224" lon="4.84345">
        <ele>363</ele>
        <time>2021-08-27T08:42:18.000Z</time>
      </trkpt>
      <trkpt lat="49.84225" lon="4.84343">
        <ele>363</ele>
        <time>2021-08-27T08:42:19.000Z</time>
      </trkpt>
      <trkpt lat="49.84225" lon="4.8434">
        <ele>363</ele>
        <time>2021-08-27T08:42:20.000Z</time>
      </trkpt>
      <trkpt lat="49.84225" lon="4.84338">
        <ele>363</ele>
        <time>2021-08-27T08:42:21.000Z</time>
      </trkpt>
      <trkpt lat="49.84226" lon="4.84335">
        <ele>363</ele>
        <time>2021-08-27T08:42:22.000Z</time>
      </trkpt>
      <trkpt lat="49.84226" lon="4.84332">
        <ele>363</ele>
        <time>2021-08-27T08:42:23.000Z</time>
      </trkpt>
      <trkpt lat="49.84227" lon="4.8433">
        <ele>363</ele>
        <time>2021-08-27T08:42:24.000Z</time>
      </trkpt>
      <trkpt lat="49.84227" lon="4.84328">
        <ele>363</ele>
        <time>2021-08-27T08:42:25.000Z</time>
      </trkpt>
      <trkpt lat="49.84227" lon="4.84326">
        <ele>363</ele>
        <time>2021-08-27T08:42:26.000Z</time>
      </trkpt>
      <trkpt lat="49.84226" lon="4.84323">
        <ele>363</ele>
        <time>2021-08-27T08:42:27.000Z</time>
      </trkpt>
      <trkpt lat="49.84225" lon="4.8432">
        <ele>363</ele>
        <time>2021-08-27T08:42:28.000Z</time>
      </trkpt>
      <trkpt lat="49.84224" lon="4.84318">
        <ele>363</ele>
        <time>2021-08-27T08:42:29.000Z</time>
      </trkpt>
      <trkpt lat="49.84223" lon="4.84317">
        <ele>363</ele>
        <time>2021-08-27T08:42:30.000Z</time>
      </trkpt>
      <trkpt lat="49.84221" lon="4.84315">
        <ele>363</ele>
        <time>2021-08-27T08:42:31.000Z</time>
      </trkpt>
      <trkpt lat="49.8422" lon="4.84315">
        <ele>363</ele>
        <time>2021-08-27T08:42:32.000Z</time>
      </trkpt>
      <trkpt lat="49.84218" lon="4.84315">
        <ele>363</ele>
        <time>2021-08-27T08:42:33.000Z</time>
      </trkpt>
      <trkpt lat="49.84216" lon="4.84315">
        <ele>363</ele>
        <time>2021-08-27T08:42:34.000Z</time>
      </trkpt>
      <trkpt lat="49.84216" lon="4.84314">
        <ele>362</ele>
        <time>2021-08-27T08:42:35.000Z</time>
      </trkpt>
      <trkpt lat="49.84216" lon="4.84314">
        <ele>362</ele>
        <time>2021-08-27T08:42:36.000Z</time>
      </trkpt>
      <trkpt lat="49.84216" lon="4.84314">
        <ele>362</ele>
        <time>2021-08-27T08:42:37.000Z</time>
      </trkpt>
      <trkpt lat="49.84216" lon="4.84315">
        <ele>362</ele>
        <time>2021-08-27T08:42:38.000Z</time>
      </trkpt>
      <trkpt lat="49.84216" lon="4.84315">
        <ele>362</ele>
        <time>2021-08-27T08:42:39.000Z</time>
      </trkpt>
      <trkpt lat="49.84216" lon="4.84315">
        <ele>362</ele>
        <time>2021-08-27T08:42:40.000Z</time>
      </trkpt>
      <trkpt lat="49.84215" lon="4.84315">
        <ele>361</ele>
        <time>2021-08-27T08:42:41.000Z</time>
      </trkpt>
      <trkpt lat="49.84215" lon="4.84315">
        <ele>361</ele>
        <time>2021-08-27T08:42:42.000Z</time>
      </trkpt>
      <trkpt lat="49.84215" lon="4.84315">
        <ele>361</ele>
        <time>2021-08-27T08:42:43.000Z</time>
      </trkpt>
      <trkpt lat="49.84215" lon="4.84315">
        <ele>361</ele>
        <time>2021-08-27T08:42:44.000Z</time>
      </trkpt>
      <trkpt lat="49.84215" lon="4.84315">
        <ele>361</ele>
        <time>2021-08-27T08:42:45.000Z</time>
      </trkpt>
      <trkpt lat="49.84215" lon="4.84315">
        <ele>361</ele>
        <time>2021-08-27T08:42:46.000Z</time>
      </trkpt>
      <trkpt lat="49.84215" lon="4.84315">
        <ele>361</ele>
        <time>2021-08-27T08:42:47.000Z</time>
      </trkpt>
      <trkpt lat="49.84215" lon="4.84315">
        <ele>361</ele>
        <time>2021-08-27T08:42:48.000Z</time>
      </trkpt>
      <trkpt lat="49.84214" lon="4.84315">
        <ele>361</ele>
        <time>2021-08-27T08:42:49.000Z</time>
      </trkpt>
      <trkpt lat="49.84214" lon="4.84315">
        <ele>361</ele>
        <time>2021-08-27T08:42:50.000Z</time>
      </trkpt>
      <trkpt lat="49.84214" lon="4.84315">
        <ele>361</ele>
        <time>2021-08-27T08:42:51.000Z</time>
      </trkpt>
      <trkpt lat="49.84214" lon="4.84315">
        <ele>361</ele>
        <time>2021-08-27T08:42:52.000Z</time>
      </trkpt>
      <trkpt lat="49.84214" lon="4.84315">
        <ele>361</ele>
        <time>2021-08-27T08:42:53.000Z</time>
      </trkpt>
      <trkpt lat="49.84214" lon="4.84315">
        <ele>361</ele>
        <time>2021-08-27T08:42:54.000Z</time>
      </trkpt>
      <trkpt lat="49.84214" lon="4.84315">
        <ele>360</ele>
        <time>2021-08-27T08:42:55.000Z</time>
      </trkpt>
      <trkpt lat="49.84214" lon="4.84315">
        <ele>360</ele>
        <time>2021-08-27T08:42:56.000Z</time>
      </trkpt>
      <trkpt lat="49.84214" lon="4.84315">
        <ele>360</ele>
        <time>2021-08-27T08:42:57.000Z</time>
      </trkpt>
      <trkpt lat="49.84214" lon="4.84315">
        <ele>360</ele>
        <time>2021-08-27T08:42:58.000Z</time>
      </trkpt>
      <trkpt lat="49.84214" lon="4.84315">
        <ele>360</ele>
        <time>2021-08-27T08:42:59.000Z</time>
      </trkpt>
      <trkpt lat="49.84214" lon="4.84315">
        <ele>360</ele>
        <time>2021-08-27T08:43:00.000Z</time>
      </trkpt>
      <trkpt lat="49.84214" lon="4.84315">
        <ele>360</ele>
        <time>2021-08-27T08:43:01.000Z</time>
      </trkpt>
      <trkpt lat="49.84214" lon="4.84315">
        <ele>360</ele>
        <time>2021-08-27T08:43:02.000Z</time>
      </trkpt>
      <trkpt lat="49.84214" lon="4.84315">
        <ele>360</ele>
        <time>2021-08-27T08:43:03.000Z</time>
      </trkpt>
      <trkpt lat="49.84214" lon="4.84315">
        <ele>360</ele>
        <time>2021-08-27T08:43:04.000Z</time>
      </trkpt>
      <trkpt lat="49.84214" lon="4.84315">
        <ele>360</ele>
        <time>2021-08-27T08:43:05.000Z</time>
      </trkpt>
      <trkpt lat="49.84213" lon="4.84315">
        <ele>360</ele>
        <time>2021-08-27T08:43:06.000Z</time>
      </trkpt>
      <trkpt lat="49.84213" lon="4.84316">
        <ele>360</ele>
        <time>2021-08-27T08:43:07.000Z</time>
      </trkpt>
      <trkpt lat="49.84212" lon="4.84316">
        <ele>360</ele>
        <time>2021-08-27T08:43:08.000Z</time>
      </trkpt>
      <trkpt lat="49.84211" lon="4.84316">
        <ele>360</ele>
        <time>2021-08-27T08:43:09.000Z</time>
      </trkpt>
      <trkpt lat="49.84209" lon="4.84316">
        <ele>360</ele>
        <time>2021-08-27T08:43:10.000Z</time>
      </trkpt>
      <trkpt lat="49.84206" lon="4.84316">
        <ele>359</ele>
        <time>2021-08-27T08:43:11.000Z</time>
      </trkpt>
      <trkpt lat="49.84204" lon="4.84315">
        <ele>359</ele>
        <time>2021-08-27T08:43:12.000Z</time>
      </trkpt>
      <trkpt lat="49.84201" lon="4.84314">
        <ele>359</ele>
        <time>2021-08-27T08:43:13.000Z</time>
      </trkpt>
      <trkpt lat="49.84198" lon="4.84314">
        <ele>359</ele>
        <time>2021-08-27T08:43:14.000Z</time>
      </trkpt>
      <trkpt lat="49.84195" lon="4.84313">
        <ele>358</ele>
        <time>2021-08-27T08:43:15.000Z</time>
      </trkpt>
      <trkpt lat="49.84192" lon="4.84312">
        <ele>358</ele>
        <time>2021-08-27T08:43:16.000Z</time>
      </trkpt>
      <trkpt lat="49.8419" lon="4.84312">
        <ele>358</ele>
        <time>2021-08-27T08:43:17.000Z</time>
      </trkpt>
      <trkpt lat="49.84186" lon="4.84311">
        <ele>358</ele>
        <time>2021-08-27T08:43:18.000Z</time>
      </trkpt>
      <trkpt lat="49.84183" lon="4.84311">
        <ele>358</ele>
        <time>2021-08-27T08:43:19.000Z</time>
      </trkpt>
      <trkpt lat="49.84179" lon="4.84311">
        <ele>358</ele>
        <time>2021-08-27T08:43:20.000Z</time>
      </trkpt>
      <trkpt lat="49.84175" lon="4.84311">
        <ele>358</ele>
        <time>2021-08-27T08:43:21.000Z</time>
      </trkpt>
      <trkpt lat="49.84171" lon="4.8431">
        <ele>357</ele>
        <time>2021-08-27T08:43:22.000Z</time>
      </trkpt>
      <trkpt lat="49.84167" lon="4.8431">
        <ele>357</ele>
        <time>2021-08-27T08:43:23.000Z</time>
      </trkpt>
      <trkpt lat="49.84163" lon="4.8431">
        <ele>357</ele>
        <time>2021-08-27T08:43:24.000Z</time>
      </trkpt>
      <trkpt lat="49.84159" lon="4.84309">
        <ele>357</ele>
        <time>2021-08-27T08:43:25.000Z</time>
      </trkpt>
      <trkpt lat="49.84155" lon="4.84308">
        <ele>357</ele>
        <time>2021-08-27T08:43:26.000Z</time>
      </trkpt>
      <trkpt lat="49.8415" lon="4.84307">
        <ele>357</ele>
        <time>2021-08-27T08:43:27.000Z</time>
      </trkpt>
      <trkpt lat="49.84146" lon="4.84307">
        <ele>357</ele>
        <time>2021-08-27T08:43:28.000Z</time>
      </trkpt>
      <trkpt lat="49.84142" lon="4.84306">
        <ele>357</ele>
        <time>2021-08-27T08:43:29.000Z</time>
      </trkpt>
      <trkpt lat="49.84137" lon="4.84306">
        <ele>356</ele>
        <time>2021-08-27T08:43:30.000Z</time>
      </trkpt>
      <trkpt lat="49.84133" lon="4.84305">
        <ele>356</ele>
        <time>2021-08-27T08:43:31.000Z</time>
      </trkpt>
      <trkpt lat="49.84128" lon="4.84305">
        <ele>356</ele>
        <time>2021-08-27T08:43:32.000Z</time>
      </trkpt>
      <trkpt lat="49.84123" lon="4.84304">
        <ele>356</ele>
        <time>2021-08-27T08:43:33.000Z</time>
      </trkpt>
      <trkpt lat="49.84118" lon="4.84304">
        <ele>356</ele>
        <time>2021-08-27T08:43:34.000Z</time>
      </trkpt>
      <trkpt lat="49.84114" lon="4.84303">
        <ele>356</ele>
        <time>2021-08-27T08:43:35.000Z</time>
      </trkpt>
      <trkpt lat="49.8411" lon="4.84301">
        <ele>356</ele>
        <time>2021-08-27T08:43:36.000Z</time>
      </trkpt>
      <trkpt lat="49.84105" lon="4.843">
        <ele>356</ele>
        <time>2021-08-27T08:43:37.000Z</time>
      </trkpt>
      <trkpt lat="49.84101" lon="4.843">
        <ele>356</ele>
        <time>2021-08-27T08:43:38.000Z</time>
      </trkpt>
      <trkpt lat="49.84097" lon="4.84299">
        <ele>356</ele>
        <time>2021-08-27T08:43:39.000Z</time>
      </trkpt>
      <trkpt lat="49.84092" lon="4.84298">
        <ele>356</ele>
        <time>2021-08-27T08:43:40.000Z</time>
      </trkpt>
      <trkpt lat="49.84088" lon="4.84297">
        <ele>356</ele>
        <time>2021-08-27T08:43:41.000Z</time>
      </trkpt>
      <trkpt lat="49.84083" lon="4.84296">
        <ele>356</ele>
        <time>2021-08-27T08:43:42.000Z</time>
      </trkpt>
      <trkpt lat="49.84079" lon="4.84295">
        <ele>356</ele>
        <time>2021-08-27T08:43:43.000Z</time>
      </trkpt>
      <trkpt lat="49.84073" lon="4.84294">
        <ele>356</ele>
        <time>2021-08-27T08:43:44.000Z</time>
      </trkpt>
      <trkpt lat="49.84068" lon="4.84292">
        <ele>356</ele>
        <time>2021-08-27T08:43:45.000Z</time>
      </trkpt>
      <trkpt lat="49.84063" lon="4.84291">
        <ele>356</ele>
        <time>2021-08-27T08:43:46.000Z</time>
      </trkpt>
      <trkpt lat="49.84058" lon="4.8429">
        <ele>356</ele>
        <time>2021-08-27T08:43:47.000Z</time>
      </trkpt>
      <trkpt lat="49.84053" lon="4.84289">
        <ele>356</ele>
        <time>2021-08-27T08:43:48.000Z</time>
      </trkpt>
      <trkpt lat="49.84048" lon="4.84287">
        <ele>356</ele>
        <time>2021-08-27T08:43:49.000Z</time>
      </trkpt>
      <trkpt lat="49.84043" lon="4.84287">
        <ele>355</ele>
        <time>2021-08-27T08:43:50.000Z</time>
      </trkpt>
      <trkpt lat="49.84038" lon="4.84286">
        <ele>355</ele>
        <time>2021-08-27T08:43:51.000Z</time>
      </trkpt>
      <trkpt lat="49.84032" lon="4.84284">
        <ele>355</ele>
        <time>2021-08-27T08:43:52.000Z</time>
      </trkpt>
      <trkpt lat="49.84027" lon="4.84283">
        <ele>355</ele>
        <time>2021-08-27T08:43:53.000Z</time>
      </trkpt>
      <trkpt lat="49.84021" lon="4.84282">
        <ele>355</ele>
        <time>2021-08-27T08:43:54.000Z</time>
      </trkpt>
      <trkpt lat="49.84016" lon="4.84281">
        <ele>355</ele>
        <time>2021-08-27T08:43:55.000Z</time>
      </trkpt>
      <trkpt lat="49.8401" lon="4.84279">
        <ele>355</ele>
        <time>2021-08-27T08:43:56.000Z</time>
      </trkpt>
      <trkpt lat="49.84005" lon="4.84277">
        <ele>355</ele>
        <time>2021-08-27T08:43:57.000Z</time>
      </trkpt>
      <trkpt lat="49.83999" lon="4.84276">
        <ele>355</ele>
        <time>2021-08-27T08:43:58.000Z</time>
      </trkpt>
      <trkpt lat="49.83993" lon="4.84275">
        <ele>355</ele>
        <time>2021-08-27T08:43:59.000Z</time>
      </trkpt>
      <trkpt lat="49.83988" lon="4.84273">
        <ele>355</ele>
        <time>2021-08-27T08:44:00.000Z</time>
      </trkpt>
      <trkpt lat="49.83982" lon="4.84272">
        <ele>355</ele>
        <time>2021-08-27T08:44:01.000Z</time>
      </trkpt>
      <trkpt lat="49.83975" lon="4.84271">
        <ele>355</ele>
        <time>2021-08-27T08:44:02.000Z</time>
      </trkpt>
      <trkpt lat="49.83969" lon="4.84269">
        <ele>355</ele>
        <time>2021-08-27T08:44:03.000Z</time>
      </trkpt>
      <trkpt lat="49.83963" lon="4.84268">
        <ele>355</ele>
        <time>2021-08-27T08:44:04.000Z</time>
      </trkpt>
      <trkpt lat="49.83957" lon="4.84267">
        <ele>355</ele>
        <time>2021-08-27T08:44:05.000Z</time>
      </trkpt>
      <trkpt lat="49.83951" lon="4.84266">
        <ele>355</ele>
        <time>2021-08-27T08:44:06.000Z</time>
      </trkpt>
      <trkpt lat="49.83945" lon="4.84265">
        <ele>354</ele>
        <time>2021-08-27T08:44:07.000Z</time>
      </trkpt>
      <trkpt lat="49.83939" lon="4.84263">
        <ele>354</ele>
        <time>2021-08-27T08:44:08.000Z</time>
      </trkpt>
      <trkpt lat="49.83933" lon="4.84262">
        <ele>354</ele>
        <time>2021-08-27T08:44:09.000Z</time>
      </trkpt>
      <trkpt lat="49.83927" lon="4.8426">
        <ele>354</ele>
        <time>2021-08-27T08:44:10.000Z</time>
      </trkpt>
      <trkpt lat="49.83921" lon="4.84259">
        <ele>354</ele>
        <time>2021-08-27T08:44:11.000Z</time>
      </trkpt>
      <trkpt lat="49.83915" lon="4.84257">
        <ele>353</ele>
        <time>2021-08-27T08:44:12.000Z</time>
      </trkpt>
      <trkpt lat="49.83909" lon="4.84256">
        <ele>353</ele>
        <time>2021-08-27T08:44:13.000Z</time>
      </trkpt>
      <trkpt lat="49.83902" lon="4.84255">
        <ele>353</ele>
        <time>2021-08-27T08:44:14.000Z</time>
      </trkpt>
      <trkpt lat="49.83896" lon="4.84253">
        <ele>353</ele>
        <time>2021-08-27T08:44:15.000Z</time>
      </trkpt>
      <trkpt lat="49.83889" lon="4.84252">
        <ele>353</ele>
        <time>2021-08-27T08:44:16.000Z</time>
      </trkpt>
      <trkpt lat="49.83883" lon="4.84251">
        <ele>352</ele>
        <time>2021-08-27T08:44:17.000Z</time>
      </trkpt>
      <trkpt lat="49.83877" lon="4.84249">
        <ele>352</ele>
        <time>2021-08-27T08:44:18.000Z</time>
      </trkpt>
      <trkpt lat="49.83871" lon="4.84248">
        <ele>352</ele>
        <time>2021-08-27T08:44:19.000Z</time>
      </trkpt>
      <trkpt lat="49.83865" lon="4.84246">
        <ele>352</ele>
        <time>2021-08-27T08:44:20.000Z</time>
      </trkpt>
      <trkpt lat="49.83859" lon="4.84245">
        <ele>352</ele>
        <time>2021-08-27T08:44:21.000Z</time>
      </trkpt>
      <trkpt lat="49.83853" lon="4.84244">
        <ele>352</ele>
        <time>2021-08-27T08:44:22.000Z</time>
      </trkpt>
      <trkpt lat="49.83847" lon="4.84243">
        <ele>352</ele>
        <time>2021-08-27T08:44:23.000Z</time>
      </trkpt>
      <trkpt lat="49.83842" lon="4.84242">
        <ele>351</ele>
        <time>2021-08-27T08:44:24.000Z</time>
      </trkpt>
      <trkpt lat="49.83837" lon="4.8424">
        <ele>351</ele>
        <time>2021-08-27T08:44:25.000Z</time>
      </trkpt>
      <trkpt lat="49.83832" lon="4.8424">
        <ele>351</ele>
        <time>2021-08-27T08:44:26.000Z</time>
      </trkpt>
      <trkpt lat="49.83827" lon="4.84239">
        <ele>351</ele>
        <time>2021-08-27T08:44:27.000Z</time>
      </trkpt>
      <trkpt lat="49.83822" lon="4.84239">
        <ele>351</ele>
        <time>2021-08-27T08:44:28.000Z</time>
      </trkpt>
      <trkpt lat="49.83818" lon="4.84238">
        <ele>351</ele>
        <time>2021-08-27T08:44:29.000Z</time>
      </trkpt>
      <trkpt lat="49.83813" lon="4.84236">
        <ele>351</ele>
        <time>2021-08-27T08:44:30.000Z</time>
      </trkpt>
      <trkpt lat="49.83808" lon="4.84235">
        <ele>351</ele>
        <time>2021-08-27T08:44:31.000Z</time>
      </trkpt>
      <trkpt lat="49.83803" lon="4.84234">
        <ele>351</ele>
        <time>2021-08-27T08:44:32.000Z</time>
      </trkpt>
      <trkpt lat="49.83799" lon="4.84233">
        <ele>351</ele>
        <time>2021-08-27T08:44:33.000Z</time>
      </trkpt>
      <trkpt lat="49.83794" lon="4.84232">
        <ele>351</ele>
        <time>2021-08-27T08:44:34.000Z</time>
      </trkpt>
      <trkpt lat="49.8379" lon="4.84232">
        <ele>351</ele>
        <time>2021-08-27T08:44:35.000Z</time>
      </trkpt>
      <trkpt lat="49.83786" lon="4.84232">
        <ele>351</ele>
        <time>2021-08-27T08:44:36.000Z</time>
      </trkpt>
      <trkpt lat="49.83782" lon="4.84231">
        <ele>351</ele>
        <time>2021-08-27T08:44:37.000Z</time>
      </trkpt>
      <trkpt lat="49.83778" lon="4.84229">
        <ele>351</ele>
        <time>2021-08-27T08:44:38.000Z</time>
      </trkpt>
      <trkpt lat="49.83774" lon="4.84229">
        <ele>351</ele>
        <time>2021-08-27T08:44:39.000Z</time>
      </trkpt>
      <trkpt lat="49.8377" lon="4.84228">
        <ele>351</ele>
        <time>2021-08-27T08:44:40.000Z</time>
      </trkpt>
      <trkpt lat="49.83766" lon="4.84227">
        <ele>351</ele>
        <time>2021-08-27T08:44:41.000Z</time>
      </trkpt>
      <trkpt lat="49.83762" lon="4.84226">
        <ele>351</ele>
        <time>2021-08-27T08:44:42.000Z</time>
      </trkpt>
      <trkpt lat="49.83758" lon="4.84226">
        <ele>351</ele>
        <time>2021-08-27T08:44:43.000Z</time>
      </trkpt>
      <trkpt lat="49.83754" lon="4.84226">
        <ele>351</ele>
        <time>2021-08-27T08:44:44.000Z</time>
      </trkpt>
      <trkpt lat="49.8375" lon="4.84225">
        <ele>351</ele>
        <time>2021-08-27T08:44:45.000Z</time>
      </trkpt>
      <trkpt lat="49.83746" lon="4.84224">
        <ele>352</ele>
        <time>2021-08-27T08:44:46.000Z</time>
      </trkpt>
      <trkpt lat="49.83742" lon="4.84223">
        <ele>352</ele>
        <time>2021-08-27T08:44:47.000Z</time>
      </trkpt>
      <trkpt lat="49.83738" lon="4.84222">
        <ele>352</ele>
        <time>2021-08-27T08:44:48.000Z</time>
      </trkpt>
      <trkpt lat="49.83734" lon="4.84222">
        <ele>352</ele>
        <time>2021-08-27T08:44:49.000Z</time>
      </trkpt>
      <trkpt lat="49.83731" lon="4.84221">
        <ele>352</ele>
        <time>2021-08-27T08:44:50.000Z</time>
      </trkpt>
      <trkpt lat="49.83727" lon="4.84221">
        <ele>352</ele>
        <time>2021-08-27T08:44:51.000Z</time>
      </trkpt>
      <trkpt lat="49.83723" lon="4.8422">
        <ele>352</ele>
        <time>2021-08-27T08:44:52.000Z</time>
      </trkpt>
      <trkpt lat="49.83719" lon="4.84219">
        <ele>352</ele>
        <time>2021-08-27T08:44:53.000Z</time>
      </trkpt>
      <trkpt lat="49.83714" lon="4.84218">
        <ele>353</ele>
        <time>2021-08-27T08:44:54.000Z</time>
      </trkpt>
      <trkpt lat="49.8371" lon="4.84217">
        <ele>353</ele>
        <time>2021-08-27T08:44:55.000Z</time>
      </trkpt>
      <trkpt lat="49.83705" lon="4.84216">
        <ele>353</ele>
        <time>2021-08-27T08:44:56.000Z</time>
      </trkpt>
      <trkpt lat="49.83701" lon="4.84215">
        <ele>353</ele>
        <time>2021-08-27T08:44:57.000Z</time>
      </trkpt>
      <trkpt lat="49.83697" lon="4.84214">
        <ele>353</ele>
        <time>2021-08-27T08:44:58.000Z</time>
      </trkpt>
      <trkpt lat="49.83693" lon="4.84213">
        <ele>353</ele>
        <time>2021-08-27T08:44:59.000Z</time>
      </trkpt>
      <trkpt lat="49.83689" lon="4.84212">
        <ele>353</ele>
        <time>2021-08-27T08:45:00.000Z</time>
      </trkpt>
      <trkpt lat="49.83685" lon="4.84211">
        <ele>353</ele>
        <time>2021-08-27T08:45:01.000Z</time>
      </trkpt>
      <trkpt lat="49.83681" lon="4.8421">
        <ele>354</ele>
        <time>2021-08-27T08:45:02.000Z</time>
      </trkpt>
      <trkpt lat="49.83678" lon="4.8421">
        <ele>354</ele>
        <time>2021-08-27T08:45:03.000Z</time>
      </trkpt>
      <trkpt lat="49.83675" lon="4.84209">
        <ele>354</ele>
        <time>2021-08-27T08:45:04.000Z</time>
      </trkpt>
      <trkpt lat="49.83672" lon="4.84208">
        <ele>354</ele>
        <time>2021-08-27T08:45:05.000Z</time>
      </trkpt>
      <trkpt lat="49.83669" lon="4.84208">
        <ele>354</ele>
        <time>2021-08-27T08:45:06.000Z</time>
      </trkpt>
      <trkpt lat="49.83666" lon="4.84208">
        <ele>354</ele>
        <time>2021-08-27T08:45:07.000Z</time>
      </trkpt>
      <trkpt lat="49.83664" lon="4.84207">
        <ele>354</ele>
        <time>2021-08-27T08:45:08.000Z</time>
      </trkpt>
      <trkpt lat="49.83662" lon="4.84205">
        <ele>354</ele>
        <time>2021-08-27T08:45:09.000Z</time>
      </trkpt>
      <trkpt lat="49.8366" lon="4.84204">
        <ele>355</ele>
        <time>2021-08-27T08:45:10.000Z</time>
      </trkpt>
      <trkpt lat="49.83658" lon="4.84204">
        <ele>355</ele>
        <time>2021-08-27T08:45:11.000Z</time>
      </trkpt>
      <trkpt lat="49.83657" lon="4.84205">
        <ele>355</ele>
        <time>2021-08-27T08:45:12.000Z</time>
      </trkpt>
      <trkpt lat="49.83656" lon="4.84206">
        <ele>355</ele>
        <time>2021-08-27T08:45:13.000Z</time>
      </trkpt>
      <trkpt lat="49.83655" lon="4.84208">
        <ele>355</ele>
        <time>2021-08-27T08:45:14.000Z</time>
      </trkpt>
      <trkpt lat="49.83654" lon="4.8421">
        <ele>356</ele>
        <time>2021-08-27T08:45:15.000Z</time>
      </trkpt>
      <trkpt lat="49.83652" lon="4.84212">
        <ele>356</ele>
        <time>2021-08-27T08:45:16.000Z</time>
      </trkpt>
      <trkpt lat="49.8365" lon="4.84216">
        <ele>356</ele>
        <time>2021-08-27T08:45:17.000Z</time>
      </trkpt>
      <trkpt lat="49.83647" lon="4.84221">
        <ele>356</ele>
        <time>2021-08-27T08:45:18.000Z</time>
      </trkpt>
      <trkpt lat="49.83643" lon="4.84228">
        <ele>356</ele>
        <time>2021-08-27T08:45:19.000Z</time>
      </trkpt>
      <trkpt lat="49.83641" lon="4.84236">
        <ele>356</ele>
        <time>2021-08-27T08:45:20.000Z</time>
      </trkpt>
      <trkpt lat="49.83637" lon="4.84244">
        <ele>356</ele>
        <time>2021-08-27T08:45:21.000Z</time>
      </trkpt>
      <trkpt lat="49.83633" lon="4.84253">
        <ele>356</ele>
        <time>2021-08-27T08:45:22.000Z</time>
      </trkpt>
      <trkpt lat="49.83629" lon="4.84263">
        <ele>356</ele>
        <time>2021-08-27T08:45:23.000Z</time>
      </trkpt>
      <trkpt lat="49.83625" lon="4.84274">
        <ele>356</ele>
        <time>2021-08-27T08:45:24.000Z</time>
      </trkpt>
      <trkpt lat="49.83621" lon="4.84285">
        <ele>356</ele>
        <time>2021-08-27T08:45:25.000Z</time>
      </trkpt>
      <trkpt lat="49.83617" lon="4.84296">
        <ele>356</ele>
        <time>2021-08-27T08:45:26.000Z</time>
      </trkpt>
      <trkpt lat="49.83613" lon="4.84308">
        <ele>356</ele>
        <time>2021-08-27T08:45:27.000Z</time>
      </trkpt>
      <trkpt lat="49.83609" lon="4.84318">
        <ele>356</ele>
        <time>2021-08-27T08:45:28.000Z</time>
      </trkpt>
      <trkpt lat="49.83605" lon="4.84329">
        <ele>356</ele>
        <time>2021-08-27T08:45:29.000Z</time>
      </trkpt>
      <trkpt lat="49.83602" lon="4.84341">
        <ele>356</ele>
        <time>2021-08-27T08:45:30.000Z</time>
      </trkpt>
      <trkpt lat="49.83599" lon="4.84351">
        <ele>355</ele>
        <time>2021-08-27T08:45:31.000Z</time>
      </trkpt>
      <trkpt lat="49.83597" lon="4.84362">
        <ele>355</ele>
        <time>2021-08-27T08:45:32.000Z</time>
      </trkpt>
      <trkpt lat="49.83595" lon="4.84373">
        <ele>355</ele>
        <time>2021-08-27T08:45:33.000Z</time>
      </trkpt>
      <trkpt lat="49.83593" lon="4.84385">
        <ele>355</ele>
        <time>2021-08-27T08:45:34.000Z</time>
      </trkpt>
      <trkpt lat="49.83591" lon="4.84397">
        <ele>354</ele>
        <time>2021-08-27T08:45:35.000Z</time>
      </trkpt>
      <trkpt lat="49.83589" lon="4.84408">
        <ele>354</ele>
        <time>2021-08-27T08:45:36.000Z</time>
      </trkpt>
      <trkpt lat="49.83587" lon="4.84418">
        <ele>354</ele>
        <time>2021-08-27T08:45:37.000Z</time>
      </trkpt>
      <trkpt lat="49.83585" lon="4.84429">
        <ele>354</ele>
        <time>2021-08-27T08:45:38.000Z</time>
      </trkpt>
      <trkpt lat="49.83582" lon="4.84439">
        <ele>353</ele>
        <time>2021-08-27T08:45:39.000Z</time>
      </trkpt>
      <trkpt lat="49.8358" lon="4.84447">
        <ele>353</ele>
        <time>2021-08-27T08:45:40.000Z</time>
      </trkpt>
      <trkpt lat="49.83578" lon="4.84454">
        <ele>353</ele>
        <time>2021-08-27T08:45:41.000Z</time>
      </trkpt>
      <trkpt lat="49.83577" lon="4.8446">
        <ele>353</ele>
        <time>2021-08-27T08:45:42.000Z</time>
      </trkpt>
      <trkpt lat="49.83575" lon="4.84465">
        <ele>353</ele>
        <time>2021-08-27T08:45:43.000Z</time>
      </trkpt>
      <trkpt lat="49.83574" lon="4.8447">
        <ele>353</ele>
        <time>2021-08-27T08:45:44.000Z</time>
      </trkpt>
      <trkpt lat="49.83574" lon="4.84476">
        <ele>353</ele>
        <time>2021-08-27T08:45:45.000Z</time>
      </trkpt>
      <trkpt lat="49.83573" lon="4.84482">
        <ele>353</ele>
        <time>2021-08-27T08:45:46.000Z</time>
      </trkpt>
      <trkpt lat="49.83573" lon="4.84488">
        <ele>353</ele>
        <time>2021-08-27T08:45:47.000Z</time>
      </trkpt>
      <trkpt lat="49.83572" lon="4.84495">
        <ele>353</ele>
        <time>2021-08-27T08:45:48.000Z</time>
      </trkpt>
      <trkpt lat="49.83571" lon="4.84502">
        <ele>353</ele>
        <time>2021-08-27T08:45:49.000Z</time>
      </trkpt>
      <trkpt lat="49.83569" lon="4.8451">
        <ele>353</ele>
        <time>2021-08-27T08:45:50.000Z</time>
      </trkpt>
      <trkpt lat="49.83568" lon="4.84518">
        <ele>353</ele>
        <time>2021-08-27T08:45:51.000Z</time>
      </trkpt>
      <trkpt lat="49.83567" lon="4.84525">
        <ele>353</ele>
        <time>2021-08-27T08:45:52.000Z</time>
      </trkpt>
      <trkpt lat="49.83565" lon="4.84533">
        <ele>353</ele>
        <time>2021-08-27T08:45:53.000Z</time>
      </trkpt>
      <trkpt lat="49.83564" lon="4.8454">
        <ele>352</ele>
        <time>2021-08-27T08:45:54.000Z</time>
      </trkpt>
      <trkpt lat="49.83562" lon="4.84549">
        <ele>352</ele>
        <time>2021-08-27T08:45:55.000Z</time>
      </trkpt>
      <trkpt lat="49.83561" lon="4.84557">
        <ele>352</ele>
        <time>2021-08-27T08:45:56.000Z</time>
      </trkpt>
      <trkpt lat="49.83559" lon="4.84565">
        <ele>352</ele>
        <time>2021-08-27T08:45:57.000Z</time>
      </trkpt>
      <trkpt lat="49.83558" lon="4.84573">
        <ele>352</ele>
        <time>2021-08-27T08:45:58.000Z</time>
      </trkpt>
      <trkpt lat="49.83556" lon="4.84581">
        <ele>351</ele>
        <time>2021-08-27T08:45:59.000Z</time>
      </trkpt>
      <trkpt lat="49.83554" lon="4.84589">
        <ele>351</ele>
        <time>2021-08-27T08:46:00.000Z</time>
      </trkpt>
      <trkpt lat="49.83552" lon="4.84597">
        <ele>351</ele>
        <time>2021-08-27T08:46:01.000Z</time>
      </trkpt>
      <trkpt lat="49.83551" lon="4.84605">
        <ele>351</ele>
        <time>2021-08-27T08:46:02.000Z</time>
      </trkpt>
      <trkpt lat="49.83549" lon="4.84614">
        <ele>351</ele>
        <time>2021-08-27T08:46:03.000Z</time>
      </trkpt>
      <trkpt lat="49.83548" lon="4.84622">
        <ele>350</ele>
        <time>2021-08-27T08:46:04.000Z</time>
      </trkpt>
      <trkpt lat="49.83547" lon="4.8463">
        <ele>350</ele>
        <time>2021-08-27T08:46:05.000Z</time>
      </trkpt>
      <trkpt lat="49.83545" lon="4.84638">
        <ele>350</ele>
        <time>2021-08-27T08:46:06.000Z</time>
      </trkpt>
      <trkpt lat="49.83543" lon="4.84646">
        <ele>350</ele>
        <time>2021-08-27T08:46:07.000Z</time>
      </trkpt>
      <trkpt lat="49.83542" lon="4.84654">
        <ele>350</ele>
        <time>2021-08-27T08:46:08.000Z</time>
      </trkpt>
      <trkpt lat="49.83541" lon="4.84663">
        <ele>350</ele>
        <time>2021-08-27T08:46:09.000Z</time>
      </trkpt>
      <trkpt lat="49.83539" lon="4.84671">
        <ele>350</ele>
        <time>2021-08-27T08:46:10.000Z</time>
      </trkpt>
      <trkpt lat="49.83537" lon="4.8468">
        <ele>349</ele>
        <time>2021-08-27T08:46:11.000Z</time>
      </trkpt>
      <trkpt lat="49.83536" lon="4.84688">
        <ele>349</ele>
        <time>2021-08-27T08:46:12.000Z</time>
      </trkpt>
      <trkpt lat="49.83535" lon="4.84696">
        <ele>349</ele>
        <time>2021-08-27T08:46:13.000Z</time>
      </trkpt>
      <trkpt lat="49.83533" lon="4.84704">
        <ele>349</ele>
        <time>2021-08-27T08:46:14.000Z</time>
      </trkpt>
      <trkpt lat="49.83532" lon="4.84712">
        <ele>349</ele>
        <time>2021-08-27T08:46:15.000Z</time>
      </trkpt>
      <trkpt lat="49.83531" lon="4.8472">
        <ele>349</ele>
        <time>2021-08-27T08:46:16.000Z</time>
      </trkpt>
      <trkpt lat="49.83529" lon="4.84728">
        <ele>349</ele>
        <time>2021-08-27T08:46:17.000Z</time>
      </trkpt>
      <trkpt lat="49.83527" lon="4.84736">
        <ele>349</ele>
        <time>2021-08-27T08:46:18.000Z</time>
      </trkpt>
      <trkpt lat="49.83526" lon="4.84744">
        <ele>349</ele>
        <time>2021-08-27T08:46:19.000Z</time>
      </trkpt>
      <trkpt lat="49.83524" lon="4.84752">
        <ele>348</ele>
        <time>2021-08-27T08:46:20.000Z</time>
      </trkpt>
      <trkpt lat="49.83523" lon="4.8476">
        <ele>348</ele>
        <time>2021-08-27T08:46:21.000Z</time>
      </trkpt>
      <trkpt lat="49.83522" lon="4.84768">
        <ele>348</ele>
        <time>2021-08-27T08:46:22.000Z</time>
      </trkpt>
      <trkpt lat="49.8352" lon="4.84776">
        <ele>348</ele>
        <time>2021-08-27T08:46:23.000Z</time>
      </trkpt>
      <trkpt lat="49.83519" lon="4.84784">
        <ele>348</ele>
        <time>2021-08-27T08:46:24.000Z</time>
      </trkpt>
      <trkpt lat="49.83517" lon="4.84792">
        <ele>348</ele>
        <time>2021-08-27T08:46:25.000Z</time>
      </trkpt>
      <trkpt lat="49.83516" lon="4.848">
        <ele>348</ele>
        <time>2021-08-27T08:46:26.000Z</time>
      </trkpt>
      <trkpt lat="49.83515" lon="4.84807">
        <ele>348</ele>
        <time>2021-08-27T08:46:27.000Z</time>
      </trkpt>
      <trkpt lat="49.83514" lon="4.84815">
        <ele>348</ele>
        <time>2021-08-27T08:46:28.000Z</time>
      </trkpt>
      <trkpt lat="49.83513" lon="4.84822">
        <ele>348</ele>
        <time>2021-08-27T08:46:29.000Z</time>
      </trkpt>
      <trkpt lat="49.83511" lon="4.8483">
        <ele>348</ele>
        <time>2021-08-27T08:46:30.000Z</time>
      </trkpt>
      <trkpt lat="49.8351" lon="4.84837">
        <ele>348</ele>
        <time>2021-08-27T08:46:31.000Z</time>
      </trkpt>
      <trkpt lat="49.83509" lon="4.84844">
        <ele>348</ele>
        <time>2021-08-27T08:46:32.000Z</time>
      </trkpt>
      <trkpt lat="49.83507" lon="4.84851">
        <ele>348</ele>
        <time>2021-08-27T08:46:33.000Z</time>
      </trkpt>
      <trkpt lat="49.83506" lon="4.84858">
        <ele>348</ele>
        <time>2021-08-27T08:46:34.000Z</time>
      </trkpt>
      <trkpt lat="49.83504" lon="4.84865">
        <ele>348</ele>
        <time>2021-08-27T08:46:35.000Z</time>
      </trkpt>
      <trkpt lat="49.83503" lon="4.84871">
        <ele>348</ele>
        <time>2021-08-27T08:46:36.000Z</time>
      </trkpt>
      <trkpt lat="49.83501" lon="4.84877">
        <ele>348</ele>
        <time>2021-08-27T08:46:37.000Z</time>
      </trkpt>
      <trkpt lat="49.83499" lon="4.84883">
        <ele>348</ele>
        <time>2021-08-27T08:46:38.000Z</time>
      </trkpt>
      <trkpt lat="49.83497" lon="4.84888">
        <ele>348</ele>
        <time>2021-08-27T08:46:39.000Z</time>
      </trkpt>
      <trkpt lat="49.83494" lon="4.84892">
        <ele>348</ele>
        <time>2021-08-27T08:46:40.000Z</time>
      </trkpt>
      <trkpt lat="49.83492" lon="4.84896">
        <ele>348</ele>
        <time>2021-08-27T08:46:41.000Z</time>
      </trkpt>
      <trkpt lat="49.83489" lon="4.849">
        <ele>349</ele>
        <time>2021-08-27T08:46:42.000Z</time>
      </trkpt>
      <trkpt lat="49.83487" lon="4.84904">
        <ele>349</ele>
        <time>2021-08-27T08:46:43.000Z</time>
      </trkpt>
      <trkpt lat="49.83484" lon="4.84908">
        <ele>349</ele>
        <time>2021-08-27T08:46:44.000Z</time>
      </trkpt>
      <trkpt lat="49.83481" lon="4.84912">
        <ele>349</ele>
        <time>2021-08-27T08:46:45.000Z</time>
      </trkpt>
      <trkpt lat="49.83478" lon="4.84915">
        <ele>349</ele>
        <time>2021-08-27T08:46:46.000Z</time>
      </trkpt>
      <trkpt lat="49.83475" lon="4.84918">
        <ele>349</ele>
        <time>2021-08-27T08:46:47.000Z</time>
      </trkpt>
      <trkpt lat="49.83472" lon="4.84921">
        <ele>349</ele>
        <time>2021-08-27T08:46:48.000Z</time>
      </trkpt>
      <trkpt lat="49.83468" lon="4.84924">
        <ele>349</ele>
        <time>2021-08-27T08:46:49.000Z</time>
      </trkpt>
      <trkpt lat="49.83465" lon="4.84928">
        <ele>349</ele>
        <time>2021-08-27T08:46:50.000Z</time>
      </trkpt>
      <trkpt lat="49.83461" lon="4.84932">
        <ele>349</ele>
        <time>2021-08-27T08:46:51.000Z</time>
      </trkpt>
      <trkpt lat="49.83458" lon="4.84935">
        <ele>349</ele>
        <time>2021-08-27T08:46:52.000Z</time>
      </trkpt>
      <trkpt lat="49.83454" lon="4.84939">
        <ele>349</ele>
        <time>2021-08-27T08:46:53.000Z</time>
      </trkpt>
      <trkpt lat="49.8345" lon="4.84942">
        <ele>349</ele>
        <time>2021-08-27T08:46:54.000Z</time>
      </trkpt>
      <trkpt lat="49.83446" lon="4.84946">
        <ele>349</ele>
        <time>2021-08-27T08:46:55.000Z</time>
      </trkpt>
      <trkpt lat="49.83443" lon="4.8495">
        <ele>349</ele>
        <time>2021-08-27T08:46:56.000Z</time>
      </trkpt>
      <trkpt lat="49.83439" lon="4.84954">
        <ele>350</ele>
        <time>2021-08-27T08:46:57.000Z</time>
      </trkpt>
      <trkpt lat="49.83435" lon="4.84957">
        <ele>350</ele>
        <time>2021-08-27T08:46:58.000Z</time>
      </trkpt>
      <trkpt lat="49.83431" lon="4.8496">
        <ele>350</ele>
        <time>2021-08-27T08:46:59.000Z</time>
      </trkpt>
      <trkpt lat="49.83428" lon="4.84964">
        <ele>350</ele>
        <time>2021-08-27T08:47:00.000Z</time>
      </trkpt>
      <trkpt lat="49.83424" lon="4.84967">
        <ele>350</ele>
        <time>2021-08-27T08:47:01.000Z</time>
      </trkpt>
      <trkpt lat="49.8342" lon="4.84971">
        <ele>350</ele>
        <time>2021-08-27T08:47:02.000Z</time>
      </trkpt>
      <trkpt lat="49.83417" lon="4.84974">
        <ele>351</ele>
        <time>2021-08-27T08:47:03.000Z</time>
      </trkpt>
      <trkpt lat="49.83413" lon="4.84978">
        <ele>351</ele>
        <time>2021-08-27T08:47:04.000Z</time>
      </trkpt>
      <trkpt lat="49.8341" lon="4.84981">
        <ele>351</ele>
        <time>2021-08-27T08:47:05.000Z</time>
      </trkpt>
      <trkpt lat="49.83406" lon="4.84984">
        <ele>351</ele>
        <time>2021-08-27T08:47:06.000Z</time>
      </trkpt>
      <trkpt lat="49.83403" lon="4.84988">
        <ele>351</ele>
        <time>2021-08-27T08:47:07.000Z</time>
      </trkpt>
      <trkpt lat="49.834" lon="4.84991">
        <ele>351</ele>
        <time>2021-08-27T08:47:08.000Z</time>
      </trkpt>
      <trkpt lat="49.83396" lon="4.84995">
        <ele>352</ele>
        <time>2021-08-27T08:47:09.000Z</time>
      </trkpt>
      <trkpt lat="49.83393" lon="4.84998">
        <ele>352</ele>
        <time>2021-08-27T08:47:10.000Z</time>
      </trkpt>
      <trkpt lat="49.83389" lon="4.85001">
        <ele>352</ele>
        <time>2021-08-27T08:47:11.000Z</time>
      </trkpt>
      <trkpt lat="49.83386" lon="4.85004">
        <ele>352</ele>
        <time>2021-08-27T08:47:12.000Z</time>
      </trkpt>
      <trkpt lat="49.83382" lon="4.85007">
        <ele>352</ele>
        <time>2021-08-27T08:47:13.000Z</time>
      </trkpt>
      <trkpt lat="49.83379" lon="4.8501">
        <ele>353</ele>
        <time>2021-08-27T08:47:14.000Z</time>
      </trkpt>
      <trkpt lat="49.83376" lon="4.85013">
        <ele>353</ele>
        <time>2021-08-27T08:47:15.000Z</time>
      </trkpt>
      <trkpt lat="49.83373" lon="4.85016">
        <ele>353</ele>
        <time>2021-08-27T08:47:16.000Z</time>
      </trkpt>
      <trkpt lat="49.83369" lon="4.85019">
        <ele>353</ele>
        <time>2021-08-27T08:47:17.000Z</time>
      </trkpt>
      <trkpt lat="49.83367" lon="4.85021">
        <ele>353</ele>
        <time>2021-08-27T08:47:18.000Z</time>
      </trkpt>
      <trkpt lat="49.83364" lon="4.85023">
        <ele>353</ele>
        <time>2021-08-27T08:47:19.000Z</time>
      </trkpt>
      <trkpt lat="49.83361" lon="4.85025">
        <ele>354</ele>
        <time>2021-08-27T08:47:20.000Z</time>
      </trkpt>
      <trkpt lat="49.83359" lon="4.85027">
        <ele>354</ele>
        <time>2021-08-27T08:47:21.000Z</time>
      </trkpt>
      <trkpt lat="49.83356" lon="4.85029">
        <ele>354</ele>
        <time>2021-08-27T08:47:22.000Z</time>
      </trkpt>
      <trkpt lat="49.83354" lon="4.85031">
        <ele>354</ele>
        <time>2021-08-27T08:47:23.000Z</time>
      </trkpt>
      <trkpt lat="49.83351" lon="4.85033">
        <ele>354</ele>
        <time>2021-08-27T08:47:24.000Z</time>
      </trkpt>
      <trkpt lat="49.83348" lon="4.85035">
        <ele>354</ele>
        <time>2021-08-27T08:47:25.000Z</time>
      </trkpt>
      <trkpt lat="49.83345" lon="4.85036">
        <ele>354</ele>
        <time>2021-08-27T08:47:26.000Z</time>
      </trkpt>
      <trkpt lat="49.83343" lon="4.85038">
        <ele>354</ele>
        <time>2021-08-27T08:47:27.000Z</time>
      </trkpt>
      <trkpt lat="49.8334" lon="4.85039">
        <ele>354</ele>
        <time>2021-08-27T08:47:28.000Z</time>
      </trkpt>
      <trkpt lat="49.83337" lon="4.8504">
        <ele>355</ele>
        <time>2021-08-27T08:47:29.000Z</time>
      </trkpt>
      <trkpt lat="49.83334" lon="4.85041">
        <ele>355</ele>
        <time>2021-08-27T08:47:30.000Z</time>
      </trkpt>
      <trkpt lat="49.83331" lon="4.85042">
        <ele>355</ele>
        <time>2021-08-27T08:47:31.000Z</time>
      </trkpt>
      <trkpt lat="49.83329" lon="4.85043">
        <ele>355</ele>
        <time>2021-08-27T08:47:32.000Z</time>
      </trkpt>
      <trkpt lat="49.83326" lon="4.85044">
        <ele>355</ele>
        <time>2021-08-27T08:47:33.000Z</time>
      </trkpt>
      <trkpt lat="49.83323" lon="4.85044">
        <ele>356</ele>
        <time>2021-08-27T08:47:34.000Z</time>
      </trkpt>
      <trkpt lat="49.83321" lon="4.85045">
        <ele>356</ele>
        <time>2021-08-27T08:47:35.000Z</time>
      </trkpt>
      <trkpt lat="49.83318" lon="4.85046">
        <ele>356</ele>
        <time>2021-08-27T08:47:36.000Z</time>
      </trkpt>
      <trkpt lat="49.83314" lon="4.85047">
        <ele>356</ele>
        <time>2021-08-27T08:47:37.000Z</time>
      </trkpt>
      <trkpt lat="49.83311" lon="4.85047">
        <ele>357</ele>
        <time>2021-08-27T08:47:38.000Z</time>
      </trkpt>
      <trkpt lat="49.83308" lon="4.85047">
        <ele>357</ele>
        <time>2021-08-27T08:47:39.000Z</time>
      </trkpt>
      <trkpt lat="49.83304" lon="4.85048">
        <ele>357</ele>
        <time>2021-08-27T08:47:40.000Z</time>
      </trkpt>
      <trkpt lat="49.83301" lon="4.8505">
        <ele>358</ele>
        <time>2021-08-27T08:47:41.000Z</time>
      </trkpt>
      <trkpt lat="49.83298" lon="4.8505">
        <ele>358</ele>
        <time>2021-08-27T08:47:42.000Z</time>
      </trkpt>
      <trkpt lat="49.83294" lon="4.85052">
        <ele>358</ele>
        <time>2021-08-27T08:47:43.000Z</time>
      </trkpt>
      <trkpt lat="49.83291" lon="4.85053">
        <ele>358</ele>
        <time>2021-08-27T08:47:44.000Z</time>
      </trkpt>
      <trkpt lat="49.83287" lon="4.85054">
        <ele>358</ele>
        <time>2021-08-27T08:47:45.000Z</time>
      </trkpt>
      <trkpt lat="49.83284" lon="4.85055">
        <ele>359</ele>
        <time>2021-08-27T08:47:46.000Z</time>
      </trkpt>
      <trkpt lat="49.83281" lon="4.85056">
        <ele>359</ele>
        <time>2021-08-27T08:47:47.000Z</time>
      </trkpt>
      <trkpt lat="49.83277" lon="4.85056">
        <ele>359</ele>
        <time>2021-08-27T08:47:48.000Z</time>
      </trkpt>
      <trkpt lat="49.83274" lon="4.85055">
        <ele>360</ele>
        <time>2021-08-27T08:47:49.000Z</time>
      </trkpt>
      <trkpt lat="49.83271" lon="4.85054">
        <ele>360</ele>
        <time>2021-08-27T08:47:50.000Z</time>
      </trkpt>
      <trkpt lat="49.83268" lon="4.85052">
        <ele>360</ele>
        <time>2021-08-27T08:47:51.000Z</time>
      </trkpt>
      <trkpt lat="49.83265" lon="4.8505">
        <ele>360</ele>
        <time>2021-08-27T08:47:52.000Z</time>
      </trkpt>
      <trkpt lat="49.83262" lon="4.85048">
        <ele>361</ele>
        <time>2021-08-27T08:47:53.000Z</time>
      </trkpt>
      <trkpt lat="49.83259" lon="4.85045">
        <ele>361</ele>
        <time>2021-08-27T08:47:54.000Z</time>
      </trkpt>
      <trkpt lat="49.83256" lon="4.85042">
        <ele>361</ele>
        <time>2021-08-27T08:47:55.000Z</time>
      </trkpt>
      <trkpt lat="49.83253" lon="4.85039">
        <ele>361</ele>
        <time>2021-08-27T08:47:56.000Z</time>
      </trkpt>
      <trkpt lat="49.83249" lon="4.85036">
        <ele>362</ele>
        <time>2021-08-27T08:47:57.000Z</time>
      </trkpt>
      <trkpt lat="49.83246" lon="4.85032">
        <ele>362</ele>
        <time>2021-08-27T08:47:58.000Z</time>
      </trkpt>
      <trkpt lat="49.83243" lon="4.85029">
        <ele>362</ele>
        <time>2021-08-27T08:47:59.000Z</time>
      </trkpt>
      <trkpt lat="49.8324" lon="4.85027">
        <ele>362</ele>
        <time>2021-08-27T08:48:00.000Z</time>
      </trkpt>
      <trkpt lat="49.83237" lon="4.85024">
        <ele>362</ele>
        <time>2021-08-27T08:48:01.000Z</time>
      </trkpt>
      <trkpt lat="49.83233" lon="4.85021">
        <ele>362</ele>
        <time>2021-08-27T08:48:02.000Z</time>
      </trkpt>
      <trkpt lat="49.8323" lon="4.85017">
        <ele>362</ele>
        <time>2021-08-27T08:48:03.000Z</time>
      </trkpt>
      <trkpt lat="49.83228" lon="4.85014">
        <ele>362</ele>
        <time>2021-08-27T08:48:04.000Z</time>
      </trkpt>
      <trkpt lat="49.83225" lon="4.85012">
        <ele>362</ele>
        <time>2021-08-27T08:48:05.000Z</time>
      </trkpt>
      <trkpt lat="49.83221" lon="4.85008">
        <ele>362</ele>
        <time>2021-08-27T08:48:06.000Z</time>
      </trkpt>
      <trkpt lat="49.83218" lon="4.85005">
        <ele>362</ele>
        <time>2021-08-27T08:48:07.000Z</time>
      </trkpt>
      <trkpt lat="49.83214" lon="4.85002">
        <ele>362</ele>
        <time>2021-08-27T08:48:08.000Z</time>
      </trkpt>
      <trkpt lat="49.83211" lon="4.84998">
        <ele>362</ele>
        <time>2021-08-27T08:48:09.000Z</time>
      </trkpt>
      <trkpt lat="49.83207" lon="4.84995">
        <ele>362</ele>
        <time>2021-08-27T08:48:10.000Z</time>
      </trkpt>
      <trkpt lat="49.83204" lon="4.84992">
        <ele>362</ele>
        <time>2021-08-27T08:48:11.000Z</time>
      </trkpt>
      <trkpt lat="49.83201" lon="4.84989">
        <ele>362</ele>
        <time>2021-08-27T08:48:12.000Z</time>
      </trkpt>
      <trkpt lat="49.83199" lon="4.84985">
        <ele>362</ele>
        <time>2021-08-27T08:48:13.000Z</time>
      </trkpt>
      <trkpt lat="49.83196" lon="4.84981">
        <ele>362</ele>
        <time>2021-08-27T08:48:14.000Z</time>
      </trkpt>
      <trkpt lat="49.83193" lon="4.84977">
        <ele>362</ele>
        <time>2021-08-27T08:48:15.000Z</time>
      </trkpt>
      <trkpt lat="49.8319" lon="4.84974">
        <ele>362</ele>
        <time>2021-08-27T08:48:16.000Z</time>
      </trkpt>
      <trkpt lat="49.83186" lon="4.8497">
        <ele>362</ele>
        <time>2021-08-27T08:48:17.000Z</time>
      </trkpt>
      <trkpt lat="49.83183" lon="4.84966">
        <ele>363</ele>
        <time>2021-08-27T08:48:18.000Z</time>
      </trkpt>
      <trkpt lat="49.83179" lon="4.84962">
        <ele>363</ele>
        <time>2021-08-27T08:48:19.000Z</time>
      </trkpt>
      <trkpt lat="49.83175" lon="4.84959">
        <ele>363</ele>
        <time>2021-08-27T08:48:20.000Z</time>
      </trkpt>
      <trkpt lat="49.83171" lon="4.84955">
        <ele>363</ele>
        <time>2021-08-27T08:48:21.000Z</time>
      </trkpt>
      <trkpt lat="49.83167" lon="4.84952">
        <ele>363</ele>
        <time>2021-08-27T08:48:22.000Z</time>
      </trkpt>
      <trkpt lat="49.83163" lon="4.84949">
        <ele>363</ele>
        <time>2021-08-27T08:48:23.000Z</time>
      </trkpt>
      <trkpt lat="49.8316" lon="4.84946">
        <ele>363</ele>
        <time>2021-08-27T08:48:24.000Z</time>
      </trkpt>
      <trkpt lat="49.83156" lon="4.84943">
        <ele>363</ele>
        <time>2021-08-27T08:48:25.000Z</time>
      </trkpt>
      <trkpt lat="49.83153" lon="4.8494">
        <ele>363</ele>
        <time>2021-08-27T08:48:26.000Z</time>
      </trkpt>
      <trkpt lat="49.8315" lon="4.84937">
        <ele>363</ele>
        <time>2021-08-27T08:48:27.000Z</time>
      </trkpt>
      <trkpt lat="49.83146" lon="4.84934">
        <ele>363</ele>
        <time>2021-08-27T08:48:28.000Z</time>
      </trkpt>
      <trkpt lat="49.83143" lon="4.84931">
        <ele>363</ele>
        <time>2021-08-27T08:48:29.000Z</time>
      </trkpt>
      <trkpt lat="49.83139" lon="4.84928">
        <ele>363</ele>
        <time>2021-08-27T08:48:30.000Z</time>
      </trkpt>
      <trkpt lat="49.83137" lon="4.84925">
        <ele>363</ele>
        <time>2021-08-27T08:48:31.000Z</time>
      </trkpt>
      <trkpt lat="49.83134" lon="4.84923">
        <ele>363</ele>
        <time>2021-08-27T08:48:32.000Z</time>
      </trkpt>
      <trkpt lat="49.83133" lon="4.84921">
        <ele>363</ele>
        <time>2021-08-27T08:48:33.000Z</time>
      </trkpt>
      <trkpt lat="49.83131" lon="4.84919">
        <ele>364</ele>
        <time>2021-08-27T08:48:34.000Z</time>
      </trkpt>
      <trkpt lat="49.8313" lon="4.84919">
        <ele>364</ele>
        <time>2021-08-27T08:48:35.000Z</time>
      </trkpt>
      <trkpt lat="49.83128" lon="4.84917">
        <ele>364</ele>
        <time>2021-08-27T08:48:36.000Z</time>
      </trkpt>
      <trkpt lat="49.83126" lon="4.84914">
        <ele>364</ele>
        <time>2021-08-27T08:48:37.000Z</time>
      </trkpt>
      <trkpt lat="49.83124" lon="4.84911">
        <ele>364</ele>
        <time>2021-08-27T08:48:38.000Z</time>
      </trkpt>
      <trkpt lat="49.83121" lon="4.84908">
        <ele>364</ele>
        <time>2021-08-27T08:48:39.000Z</time>
      </trkpt>
      <trkpt lat="49.83117" lon="4.84905">
        <ele>364</ele>
        <time>2021-08-27T08:48:40.000Z</time>
      </trkpt>
      <trkpt lat="49.83114" lon="4.84901">
        <ele>364</ele>
        <time>2021-08-27T08:48:41.000Z</time>
      </trkpt>
      <trkpt lat="49.83109" lon="4.84897">
        <ele>364</ele>
        <time>2021-08-27T08:48:42.000Z</time>
      </trkpt>
      <trkpt lat="49.83105" lon="4.84893">
        <ele>364</ele>
        <time>2021-08-27T08:48:43.000Z</time>
      </trkpt>
      <trkpt lat="49.83101" lon="4.84888">
        <ele>364</ele>
        <time>2021-08-27T08:48:44.000Z</time>
      </trkpt>
      <trkpt lat="49.83097" lon="4.84884">
        <ele>364</ele>
        <time>2021-08-27T08:48:45.000Z</time>
      </trkpt>
      <trkpt lat="49.83092" lon="4.84879">
        <ele>364</ele>
        <time>2021-08-27T08:48:46.000Z</time>
      </trkpt>
      <trkpt lat="49.83086" lon="4.84875">
        <ele>364</ele>
        <time>2021-08-27T08:48:47.000Z</time>
      </trkpt>
      <trkpt lat="49.8308" lon="4.8487">
        <ele>364</ele>
        <time>2021-08-27T08:48:48.000Z</time>
      </trkpt>
      <trkpt lat="49.83074" lon="4.84864">
        <ele>364</ele>
        <time>2021-08-27T08:48:49.000Z</time>
      </trkpt>
      <trkpt lat="49.83069" lon="4.84859">
        <ele>364</ele>
        <time>2021-08-27T08:48:50.000Z</time>
      </trkpt>
      <trkpt lat="49.83065" lon="4.84853">
        <ele>364</ele>
        <time>2021-08-27T08:48:51.000Z</time>
      </trkpt>
      <trkpt lat="49.8306" lon="4.84848">
        <ele>363</ele>
        <time>2021-08-27T08:48:52.000Z</time>
      </trkpt>
      <trkpt lat="49.83054" lon="4.84842">
        <ele>363</ele>
        <time>2021-08-27T08:48:53.000Z</time>
      </trkpt>
      <trkpt lat="49.83049" lon="4.84838">
        <ele>363</ele>
        <time>2021-08-27T08:48:54.000Z</time>
      </trkpt>
      <trkpt lat="49.83044" lon="4.84836">
        <ele>363</ele>
        <time>2021-08-27T08:48:55.000Z</time>
      </trkpt>
      <trkpt lat="49.83038" lon="4.84837">
        <ele>362</ele>
        <time>2021-08-27T08:48:56.000Z</time>
      </trkpt>
      <trkpt lat="49.83033" lon="4.84838">
        <ele>362</ele>
        <time>2021-08-27T08:48:57.000Z</time>
      </trkpt>
      <trkpt lat="49.83028" lon="4.84839">
        <ele>362</ele>
        <time>2021-08-27T08:48:58.000Z</time>
      </trkpt>
      <trkpt lat="49.83023" lon="4.8484">
        <ele>362</ele>
        <time>2021-08-27T08:48:59.000Z</time>
      </trkpt>
      <trkpt lat="49.83017" lon="4.8484">
        <ele>361</ele>
        <time>2021-08-27T08:49:00.000Z</time>
      </trkpt>
      <trkpt lat="49.83012" lon="4.8484">
        <ele>361</ele>
        <time>2021-08-27T08:49:01.000Z</time>
      </trkpt>
      <trkpt lat="49.83007" lon="4.84839">
        <ele>361</ele>
        <time>2021-08-27T08:49:02.000Z</time>
      </trkpt>
      <trkpt lat="49.83" lon="4.84837">
        <ele>361</ele>
        <time>2021-08-27T08:49:03.000Z</time>
      </trkpt>
      <trkpt lat="49.82993" lon="4.84834">
        <ele>360</ele>
        <time>2021-08-27T08:49:04.000Z</time>
      </trkpt>
      <trkpt lat="49.82986" lon="4.84832">
        <ele>360</ele>
        <time>2021-08-27T08:49:05.000Z</time>
      </trkpt>
      <trkpt lat="49.82979" lon="4.84831">
        <ele>359</ele>
        <time>2021-08-27T08:49:06.000Z</time>
      </trkpt>
      <trkpt lat="49.82972" lon="4.84831">
        <ele>359</ele>
        <time>2021-08-27T08:49:07.000Z</time>
      </trkpt>
      <trkpt lat="49.82966" lon="4.84831">
        <ele>359</ele>
        <time>2021-08-27T08:49:08.000Z</time>
      </trkpt>
      <trkpt lat="49.8296" lon="4.84833">
        <ele>358</ele>
        <time>2021-08-27T08:49:09.000Z</time>
      </trkpt>
      <trkpt lat="49.82954" lon="4.84835">
        <ele>358</ele>
        <time>2021-08-27T08:49:10.000Z</time>
      </trkpt>
      <trkpt lat="49.8295" lon="4.8484">
        <ele>357</ele>
        <time>2021-08-27T08:49:11.000Z</time>
      </trkpt>
      <trkpt lat="49.82947" lon="4.84845">
        <ele>357</ele>
        <time>2021-08-27T08:49:12.000Z</time>
      </trkpt>
      <trkpt lat="49.82943" lon="4.8485">
        <ele>356</ele>
        <time>2021-08-27T08:49:13.000Z</time>
      </trkpt>
      <trkpt lat="49.82939" lon="4.84856">
        <ele>356</ele>
        <time>2021-08-27T08:49:14.000Z</time>
      </trkpt>
      <trkpt lat="49.82934" lon="4.84862">
        <ele>355</ele>
        <time>2021-08-27T08:49:15.000Z</time>
      </trkpt>
      <trkpt lat="49.8293" lon="4.84868">
        <ele>355</ele>
        <time>2021-08-27T08:49:16.000Z</time>
      </trkpt>
      <trkpt lat="49.82925" lon="4.84872">
        <ele>354</ele>
        <time>2021-08-27T08:49:17.000Z</time>
      </trkpt>
      <trkpt lat="49.82919" lon="4.84875">
        <ele>353</ele>
        <time>2021-08-27T08:49:18.000Z</time>
      </trkpt>
      <trkpt lat="49.82914" lon="4.84877">
        <ele>353</ele>
        <time>2021-08-27T08:49:19.000Z</time>
      </trkpt>
      <trkpt lat="49.8291" lon="4.8488">
        <ele>352</ele>
        <time>2021-08-27T08:49:20.000Z</time>
      </trkpt>
      <trkpt lat="49.82906" lon="4.84881">
        <ele>352</ele>
        <time>2021-08-27T08:49:21.000Z</time>
      </trkpt>
      <trkpt lat="49.82901" lon="4.84882">
        <ele>351</ele>
        <time>2021-08-27T08:49:22.000Z</time>
      </trkpt>
      <trkpt lat="49.82898" lon="4.84884">
        <ele>350</ele>
        <time>2021-08-27T08:49:23.000Z</time>
      </trkpt>
      <trkpt lat="49.82895" lon="4.84886">
        <ele>350</ele>
        <time>2021-08-27T08:49:24.000Z</time>
      </trkpt>
      <trkpt lat="49.82894" lon="4.84889">
        <ele>349</ele>
        <time>2021-08-27T08:49:25.000Z</time>
      </trkpt>
      <trkpt lat="49.82893" lon="4.84892">
        <ele>349</ele>
        <time>2021-08-27T08:49:26.000Z</time>
      </trkpt>
      <trkpt lat="49.82893" lon="4.84895">
        <ele>349</ele>
        <time>2021-08-27T08:49:27.000Z</time>
      </trkpt>
      <trkpt lat="49.82893" lon="4.84898">
        <ele>348</ele>
        <time>2021-08-27T08:49:28.000Z</time>
      </trkpt>
      <trkpt lat="49.82893" lon="4.84901">
        <ele>348</ele>
        <time>2021-08-27T08:49:29.000Z</time>
      </trkpt>
      <trkpt lat="49.82893" lon="4.84904">
        <ele>347</ele>
        <time>2021-08-27T08:49:30.000Z</time>
      </trkpt>
      <trkpt lat="49.82893" lon="4.84908">
        <ele>347</ele>
        <time>2021-08-27T08:49:31.000Z</time>
      </trkpt>
      <trkpt lat="49.82893" lon="4.84912">
        <ele>347</ele>
        <time>2021-08-27T08:49:32.000Z</time>
      </trkpt>
      <trkpt lat="49.82893" lon="4.84917">
        <ele>346</ele>
        <time>2021-08-27T08:49:33.000Z</time>
      </trkpt>
      <trkpt lat="49.82893" lon="4.84922">
        <ele>346</ele>
        <time>2021-08-27T08:49:34.000Z</time>
      </trkpt>
      <trkpt lat="49.82893" lon="4.84926">
        <ele>345</ele>
        <time>2021-08-27T08:49:35.000Z</time>
      </trkpt>
      <trkpt lat="49.82894" lon="4.84929">
        <ele>345</ele>
        <time>2021-08-27T08:49:36.000Z</time>
      </trkpt>
      <trkpt lat="49.82895" lon="4.84933">
        <ele>344</ele>
        <time>2021-08-27T08:49:37.000Z</time>
      </trkpt>
      <trkpt lat="49.82896" lon="4.84937">
        <ele>344</ele>
        <time>2021-08-27T08:49:38.000Z</time>
      </trkpt>
      <trkpt lat="49.82897" lon="4.84941">
        <ele>344</ele>
        <time>2021-08-27T08:49:39.000Z</time>
      </trkpt>
      <trkpt lat="49.82898" lon="4.84945">
        <ele>344</ele>
        <time>2021-08-27T08:49:40.000Z</time>
      </trkpt>
      <trkpt lat="49.829" lon="4.84948">
        <ele>343</ele>
        <time>2021-08-27T08:49:41.000Z</time>
      </trkpt>
      <trkpt lat="49.82901" lon="4.84952">
        <ele>343</ele>
        <time>2021-08-27T08:49:42.000Z</time>
      </trkpt>
      <trkpt lat="49.82903" lon="4.84955">
        <ele>343</ele>
        <time>2021-08-27T08:49:43.000Z</time>
      </trkpt>
      <trkpt lat="49.82903" lon="4.84959">
        <ele>343</ele>
        <time>2021-08-27T08:49:44.000Z</time>
      </trkpt>
      <trkpt lat="49.82904" lon="4.84962">
        <ele>343</ele>
        <time>2021-08-27T08:49:45.000Z</time>
      </trkpt>
      <trkpt lat="49.82905" lon="4.84965">
        <ele>343</ele>
        <time>2021-08-27T08:49:46.000Z</time>
      </trkpt>
      <trkpt lat="49.82905" lon="4.84967">
        <ele>342</ele>
        <time>2021-08-27T08:49:47.000Z</time>
      </trkpt>
      <trkpt lat="49.82906" lon="4.84971">
        <ele>342</ele>
        <time>2021-08-27T08:49:48.000Z</time>
      </trkpt>
      <trkpt lat="49.82907" lon="4.84974">
        <ele>342</ele>
        <time>2021-08-27T08:49:49.000Z</time>
      </trkpt>
      <trkpt lat="49.82907" lon="4.84977">
        <ele>342</ele>
        <time>2021-08-27T08:49:50.000Z</time>
      </trkpt>
      <trkpt lat="49.82908" lon="4.8498">
        <ele>342</ele>
        <time>2021-08-27T08:49:51.000Z</time>
      </trkpt>
      <trkpt lat="49.82908" lon="4.84984">
        <ele>342</ele>
        <time>2021-08-27T08:49:52.000Z</time>
      </trkpt>
      <trkpt lat="49.82908" lon="4.84987">
        <ele>342</ele>
        <time>2021-08-27T08:49:53.000Z</time>
      </trkpt>
      <trkpt lat="49.82908" lon="4.8499">
        <ele>342</ele>
        <time>2021-08-27T08:49:54.000Z</time>
      </trkpt>
      <trkpt lat="49.82908" lon="4.84993">
        <ele>342</ele>
        <time>2021-08-27T08:49:55.000Z</time>
      </trkpt>
      <trkpt lat="49.82908" lon="4.84997">
        <ele>342</ele>
        <time>2021-08-27T08:49:56.000Z</time>
      </trkpt>
      <trkpt lat="49.82908" lon="4.85001">
        <ele>342</ele>
        <time>2021-08-27T08:49:57.000Z</time>
      </trkpt>
      <trkpt lat="49.82908" lon="4.85005">
        <ele>342</ele>
        <time>2021-08-27T08:49:58.000Z</time>
      </trkpt>
      <trkpt lat="49.82908" lon="4.8501">
        <ele>342</ele>
        <time>2021-08-27T08:49:59.000Z</time>
      </trkpt>
      <trkpt lat="49.82908" lon="4.85014">
        <ele>342</ele>
        <time>2021-08-27T08:50:00.000Z</time>
      </trkpt>
      <trkpt lat="49.82908" lon="4.85019">
        <ele>343</ele>
        <time>2021-08-27T08:50:01.000Z</time>
      </trkpt>
      <trkpt lat="49.82908" lon="4.85023">
        <ele>343</ele>
        <time>2021-08-27T08:50:02.000Z</time>
      </trkpt>
      <trkpt lat="49.82908" lon="4.85027">
        <ele>343</ele>
        <time>2021-08-27T08:50:03.000Z</time>
      </trkpt>
      <trkpt lat="49.82908" lon="4.85031">
        <ele>343</ele>
        <time>2021-08-27T08:50:04.000Z</time>
      </trkpt>
      <trkpt lat="49.82907" lon="4.85035">
        <ele>343</ele>
        <time>2021-08-27T08:50:05.000Z</time>
      </trkpt>
      <trkpt lat="49.82907" lon="4.85038">
        <ele>343</ele>
        <time>2021-08-27T08:50:06.000Z</time>
      </trkpt>
      <trkpt lat="49.82906" lon="4.85041">
        <ele>343</ele>
        <time>2021-08-27T08:50:07.000Z</time>
      </trkpt>
      <trkpt lat="49.82904" lon="4.85044">
        <ele>343</ele>
        <time>2021-08-27T08:50:08.000Z</time>
      </trkpt>
      <trkpt lat="49.82903" lon="4.85048">
        <ele>344</ele>
        <time>2021-08-27T08:50:09.000Z</time>
      </trkpt>
      <trkpt lat="49.82902" lon="4.85051">
        <ele>344</ele>
        <time>2021-08-27T08:50:10.000Z</time>
      </trkpt>
      <trkpt lat="49.82901" lon="4.85055">
        <ele>344</ele>
        <time>2021-08-27T08:50:11.000Z</time>
      </trkpt>
      <trkpt lat="49.829" lon="4.85058">
        <ele>344</ele>
        <time>2021-08-27T08:50:12.000Z</time>
      </trkpt>
      <trkpt lat="49.82899" lon="4.85061">
        <ele>344</ele>
        <time>2021-08-27T08:50:13.000Z</time>
      </trkpt>
      <trkpt lat="49.82897" lon="4.85065">
        <ele>345</ele>
        <time>2021-08-27T08:50:14.000Z</time>
      </trkpt>
      <trkpt lat="49.82896" lon="4.85068">
        <ele>345</ele>
        <time>2021-08-27T08:50:15.000Z</time>
      </trkpt>
      <trkpt lat="49.82894" lon="4.85071">
        <ele>345</ele>
        <time>2021-08-27T08:50:16.000Z</time>
      </trkpt>
      <trkpt lat="49.82892" lon="4.85074">
        <ele>345</ele>
        <time>2021-08-27T08:50:17.000Z</time>
      </trkpt>
      <trkpt lat="49.8289" lon="4.85077">
        <ele>345</ele>
        <time>2021-08-27T08:50:18.000Z</time>
      </trkpt>
      <trkpt lat="49.82889" lon="4.8508">
        <ele>346</ele>
        <time>2021-08-27T08:50:19.000Z</time>
      </trkpt>
      <trkpt lat="49.82887" lon="4.85083">
        <ele>346</ele>
        <time>2021-08-27T08:50:20.000Z</time>
      </trkpt>
      <trkpt lat="49.82885" lon="4.85085">
        <ele>346</ele>
        <time>2021-08-27T08:50:21.000Z</time>
      </trkpt>
      <trkpt lat="49.82883" lon="4.85089">
        <ele>346</ele>
        <time>2021-08-27T08:50:22.000Z</time>
      </trkpt>
      <trkpt lat="49.82881" lon="4.85091">
        <ele>346</ele>
        <time>2021-08-27T08:50:23.000Z</time>
      </trkpt>
      <trkpt lat="49.8288" lon="4.85095">
        <ele>346</ele>
        <time>2021-08-27T08:50:24.000Z</time>
      </trkpt>
      <trkpt lat="49.82878" lon="4.85097">
        <ele>347</ele>
        <time>2021-08-27T08:50:25.000Z</time>
      </trkpt>
      <trkpt lat="49.82876" lon="4.851">
        <ele>347</ele>
        <time>2021-08-27T08:50:26.000Z</time>
      </trkpt>
      <trkpt lat="49.82875" lon="4.85102">
        <ele>347</ele>
        <time>2021-08-27T08:50:27.000Z</time>
      </trkpt>
      <trkpt lat="49.82873" lon="4.85104">
        <ele>347</ele>
        <time>2021-08-27T08:50:28.000Z</time>
      </trkpt>
      <trkpt lat="49.82872" lon="4.85106">
        <ele>347</ele>
        <time>2021-08-27T08:50:29.000Z</time>
      </trkpt>
      <trkpt lat="49.8287" lon="4.85109">
        <ele>347</ele>
        <time>2021-08-27T08:50:30.000Z</time>
      </trkpt>
      <trkpt lat="49.82867" lon="4.85112">
        <ele>348</ele>
        <time>2021-08-27T08:50:31.000Z</time>
      </trkpt>
      <trkpt lat="49.82865" lon="4.85115">
        <ele>348</ele>
        <time>2021-08-27T08:50:32.000Z</time>
      </trkpt>
      <trkpt lat="49.82863" lon="4.85117">
        <ele>348</ele>
        <time>2021-08-27T08:50:33.000Z</time>
      </trkpt>
      <trkpt lat="49.82861" lon="4.8512">
        <ele>348</ele>
        <time>2021-08-27T08:50:34.000Z</time>
      </trkpt>
      <trkpt lat="49.82858" lon="4.85122">
        <ele>348</ele>
        <time>2021-08-27T08:50:35.000Z</time>
      </trkpt>
      <trkpt lat="49.82856" lon="4.85125">
        <ele>348</ele>
        <time>2021-08-27T08:50:36.000Z</time>
      </trkpt>
      <trkpt lat="49.82854" lon="4.85128">
        <ele>349</ele>
        <time>2021-08-27T08:50:37.000Z</time>
      </trkpt>
      <trkpt lat="49.82852" lon="4.85131">
        <ele>349</ele>
        <time>2021-08-27T08:50:38.000Z</time>
      </trkpt>
      <trkpt lat="49.8285" lon="4.85134">
        <ele>349</ele>
        <time>2021-08-27T08:50:39.000Z</time>
      </trkpt>
      <trkpt lat="49.82847" lon="4.85138">
        <ele>349</ele>
        <time>2021-08-27T08:50:40.000Z</time>
      </trkpt>
      <trkpt lat="49.82845" lon="4.85141">
        <ele>349</ele>
        <time>2021-08-27T08:50:41.000Z</time>
      </trkpt>
      <trkpt lat="49.82842" lon="4.85144">
        <ele>349</ele>
        <time>2021-08-27T08:50:42.000Z</time>
      </trkpt>
      <trkpt lat="49.8284" lon="4.85148">
        <ele>349</ele>
        <time>2021-08-27T08:50:43.000Z</time>
      </trkpt>
      <trkpt lat="49.82837" lon="4.85152">
        <ele>349</ele>
        <time>2021-08-27T08:50:44.000Z</time>
      </trkpt>
      <trkpt lat="49.82836" lon="4.85156">
        <ele>349</ele>
        <time>2021-08-27T08:50:45.000Z</time>
      </trkpt>
      <trkpt lat="49.82834" lon="4.85159">
        <ele>349</ele>
        <time>2021-08-27T08:50:46.000Z</time>
      </trkpt>
      <trkpt lat="49.82832" lon="4.85163">
        <ele>350</ele>
        <time>2021-08-27T08:50:47.000Z</time>
      </trkpt>
      <trkpt lat="49.8283" lon="4.85167">
        <ele>350</ele>
        <time>2021-08-27T08:50:48.000Z</time>
      </trkpt>
      <trkpt lat="49.82828" lon="4.8517">
        <ele>350</ele>
        <time>2021-08-27T08:50:49.000Z</time>
      </trkpt>
      <trkpt lat="49.82826" lon="4.85173">
        <ele>350</ele>
        <time>2021-08-27T08:50:50.000Z</time>
      </trkpt>
      <trkpt lat="49.82824" lon="4.85176">
        <ele>351</ele>
        <time>2021-08-27T08:50:51.000Z</time>
      </trkpt>
      <trkpt lat="49.82822" lon="4.8518">
        <ele>351</ele>
        <time>2021-08-27T08:50:52.000Z</time>
      </trkpt>
      <trkpt lat="49.8282" lon="4.85183">
        <ele>351</ele>
        <time>2021-08-27T08:50:53.000Z</time>
      </trkpt>
      <trkpt lat="49.82818" lon="4.85187">
        <ele>351</ele>
        <time>2021-08-27T08:50:54.000Z</time>
      </trkpt>
      <trkpt lat="49.82817" lon="4.85191">
        <ele>351</ele>
        <time>2021-08-27T08:50:55.000Z</time>
      </trkpt>
      <trkpt lat="49.82815" lon="4.85194">
        <ele>352</ele>
        <time>2021-08-27T08:50:56.000Z</time>
      </trkpt>
      <trkpt lat="49.82813" lon="4.85197">
        <ele>352</ele>
        <time>2021-08-27T08:50:57.000Z</time>
      </trkpt>
      <trkpt lat="49.8281" lon="4.85201">
        <ele>352</ele>
        <time>2021-08-27T08:50:58.000Z</time>
      </trkpt>
      <trkpt lat="49.82808" lon="4.85205">
        <ele>352</ele>
        <time>2021-08-27T08:50:59.000Z</time>
      </trkpt>
      <trkpt lat="49.82806" lon="4.85208">
        <ele>353</ele>
        <time>2021-08-27T08:51:00.000Z</time>
      </trkpt>
      <trkpt lat="49.82803" lon="4.85211">
        <ele>353</ele>
        <time>2021-08-27T08:51:01.000Z</time>
      </trkpt>
      <trkpt lat="49.82802" lon="4.85215">
        <ele>353</ele>
        <time>2021-08-27T08:51:02.000Z</time>
      </trkpt>
      <trkpt lat="49.828" lon="4.85218">
        <ele>353</ele>
        <time>2021-08-27T08:51:03.000Z</time>
      </trkpt>
      <trkpt lat="49.82798" lon="4.85222">
        <ele>353</ele>
        <time>2021-08-27T08:51:04.000Z</time>
      </trkpt>
      <trkpt lat="49.82795" lon="4.85225">
        <ele>353</ele>
        <time>2021-08-27T08:51:05.000Z</time>
      </trkpt>
      <trkpt lat="49.82793" lon="4.85228">
        <ele>353</ele>
        <time>2021-08-27T08:51:06.000Z</time>
      </trkpt>
      <trkpt lat="49.82791" lon="4.85231">
        <ele>354</ele>
        <time>2021-08-27T08:51:07.000Z</time>
      </trkpt>
      <trkpt lat="49.82789" lon="4.85234">
        <ele>354</ele>
        <time>2021-08-27T08:51:08.000Z</time>
      </trkpt>
      <trkpt lat="49.82787" lon="4.85237">
        <ele>354</ele>
        <time>2021-08-27T08:51:09.000Z</time>
      </trkpt>
      <trkpt lat="49.82785" lon="4.85241">
        <ele>354</ele>
        <time>2021-08-27T08:51:10.000Z</time>
      </trkpt>
      <trkpt lat="49.82784" lon="4.85245">
        <ele>354</ele>
        <time>2021-08-27T08:51:11.000Z</time>
      </trkpt>
      <trkpt lat="49.82783" lon="4.85248">
        <ele>355</ele>
        <time>2021-08-27T08:51:12.000Z</time>
      </trkpt>
      <trkpt lat="49.82783" lon="4.85252">
        <ele>355</ele>
        <time>2021-08-27T08:51:13.000Z</time>
      </trkpt>
      <trkpt lat="49.82782" lon="4.85256">
        <ele>355</ele>
        <time>2021-08-27T08:51:14.000Z</time>
      </trkpt>
      <trkpt lat="49.82782" lon="4.8526">
        <ele>355</ele>
        <time>2021-08-27T08:51:15.000Z</time>
      </trkpt>
      <trkpt lat="49.82781" lon="4.85264">
        <ele>356</ele>
        <time>2021-08-27T08:51:16.000Z</time>
      </trkpt>
      <trkpt lat="49.82781" lon="4.85268">
        <ele>356</ele>
        <time>2021-08-27T08:51:17.000Z</time>
      </trkpt>
      <trkpt lat="49.8278" lon="4.85272">
        <ele>356</ele>
        <time>2021-08-27T08:51:18.000Z</time>
      </trkpt>
      <trkpt lat="49.8278" lon="4.85276">
        <ele>357</ele>
        <time>2021-08-27T08:51:19.000Z</time>
      </trkpt>
      <trkpt lat="49.82779" lon="4.85281">
        <ele>357</ele>
        <time>2021-08-27T08:51:20.000Z</time>
      </trkpt>
      <trkpt lat="49.82779" lon="4.85285">
        <ele>357</ele>
        <time>2021-08-27T08:51:21.000Z</time>
      </trkpt>
      <trkpt lat="49.82779" lon="4.85289">
        <ele>357</ele>
        <time>2021-08-27T08:51:22.000Z</time>
      </trkpt>
      <trkpt lat="49.82779" lon="4.85293">
        <ele>358</ele>
        <time>2021-08-27T08:51:23.000Z</time>
      </trkpt>
      <trkpt lat="49.82778" lon="4.85297">
        <ele>358</ele>
        <time>2021-08-27T08:51:24.000Z</time>
      </trkpt>
      <trkpt lat="49.82779" lon="4.85301">
        <ele>358</ele>
        <time>2021-08-27T08:51:25.000Z</time>
      </trkpt>
      <trkpt lat="49.82779" lon="4.85305">
        <ele>358</ele>
        <time>2021-08-27T08:51:26.000Z</time>
      </trkpt>
      <trkpt lat="49.8278" lon="4.8531">
        <ele>358</ele>
        <time>2021-08-27T08:51:27.000Z</time>
      </trkpt>
      <trkpt lat="49.82781" lon="4.85314">
        <ele>358</ele>
        <time>2021-08-27T08:51:28.000Z</time>
      </trkpt>
      <trkpt lat="49.82783" lon="4.85318">
        <ele>359</ele>
        <time>2021-08-27T08:51:29.000Z</time>
      </trkpt>
      <trkpt lat="49.82785" lon="4.85321">
        <ele>359</ele>
        <time>2021-08-27T08:51:30.000Z</time>
      </trkpt>
      <trkpt lat="49.82787" lon="4.85325">
        <ele>359</ele>
        <time>2021-08-27T08:51:31.000Z</time>
      </trkpt>
      <trkpt lat="49.8279" lon="4.85329">
        <ele>359</ele>
        <time>2021-08-27T08:51:32.000Z</time>
      </trkpt>
      <trkpt lat="49.82792" lon="4.85332">
        <ele>359</ele>
        <time>2021-08-27T08:51:33.000Z</time>
      </trkpt>
      <trkpt lat="49.82795" lon="4.85335">
        <ele>359</ele>
        <time>2021-08-27T08:51:34.000Z</time>
      </trkpt>
      <trkpt lat="49.82798" lon="4.85338">
        <ele>359</ele>
        <time>2021-08-27T08:51:35.000Z</time>
      </trkpt>
      <trkpt lat="49.82801" lon="4.8534">
        <ele>359</ele>
        <time>2021-08-27T08:51:36.000Z</time>
      </trkpt>
      <trkpt lat="49.82803" lon="4.85343">
        <ele>359</ele>
        <time>2021-08-27T08:51:37.000Z</time>
      </trkpt>
      <trkpt lat="49.82806" lon="4.85347">
        <ele>359</ele>
        <time>2021-08-27T08:51:38.000Z</time>
      </trkpt>
      <trkpt lat="49.82809" lon="4.85351">
        <ele>359</ele>
        <time>2021-08-27T08:51:39.000Z</time>
      </trkpt>
      <trkpt lat="49.82812" lon="4.85355">
        <ele>359</ele>
        <time>2021-08-27T08:51:40.000Z</time>
      </trkpt>
      <trkpt lat="49.82815" lon="4.85359">
        <ele>359</ele>
        <time>2021-08-27T08:51:41.000Z</time>
      </trkpt>
      <trkpt lat="49.82817" lon="4.85363">
        <ele>359</ele>
        <time>2021-08-27T08:51:42.000Z</time>
      </trkpt>
      <trkpt lat="49.82819" lon="4.85367">
        <ele>359</ele>
        <time>2021-08-27T08:51:43.000Z</time>
      </trkpt>
      <trkpt lat="49.82822" lon="4.8537">
        <ele>359</ele>
        <time>2021-08-27T08:51:44.000Z</time>
      </trkpt>
      <trkpt lat="49.82826" lon="4.85374">
        <ele>359</ele>
        <time>2021-08-27T08:51:45.000Z</time>
      </trkpt>
      <trkpt lat="49.8283" lon="4.85378">
        <ele>359</ele>
        <time>2021-08-27T08:51:46.000Z</time>
      </trkpt>
      <trkpt lat="49.82834" lon="4.85382">
        <ele>359</ele>
        <time>2021-08-27T08:51:47.000Z</time>
      </trkpt>
      <trkpt lat="49.82839" lon="4.85386">
        <ele>359</ele>
        <time>2021-08-27T08:51:48.000Z</time>
      </trkpt>
      <trkpt lat="49.82842" lon="4.85389">
        <ele>358</ele>
        <time>2021-08-27T08:51:49.000Z</time>
      </trkpt>
      <trkpt lat="49.82846" lon="4.85393">
        <ele>358</ele>
        <time>2021-08-27T08:51:50.000Z</time>
      </trkpt>
      <trkpt lat="49.8285" lon="4.85396">
        <ele>358</ele>
        <time>2021-08-27T08:51:51.000Z</time>
      </trkpt>
      <trkpt lat="49.82854" lon="4.854">
        <ele>358</ele>
        <time>2021-08-27T08:51:52.000Z</time>
      </trkpt>
      <trkpt lat="49.82858" lon="4.85404">
        <ele>358</ele>
        <time>2021-08-27T08:51:53.000Z</time>
      </trkpt>
      <trkpt lat="49.82862" lon="4.85409">
        <ele>358</ele>
        <time>2021-08-27T08:51:54.000Z</time>
      </trkpt>
      <trkpt lat="49.82865" lon="4.85414">
        <ele>358</ele>
        <time>2021-08-27T08:51:55.000Z</time>
      </trkpt>
      <trkpt lat="49.82868" lon="4.85419">
        <ele>358</ele>
        <time>2021-08-27T08:51:56.000Z</time>
      </trkpt>
      <trkpt lat="49.82871" lon="4.85425">
        <ele>358</ele>
        <time>2021-08-27T08:51:57.000Z</time>
      </trkpt>
      <trkpt lat="49.82874" lon="4.8543">
        <ele>358</ele>
        <time>2021-08-27T08:51:58.000Z</time>
      </trkpt>
      <trkpt lat="49.82877" lon="4.85436">
        <ele>357</ele>
        <time>2021-08-27T08:51:59.000Z</time>
      </trkpt>
      <trkpt lat="49.82879" lon="4.85441">
        <ele>357</ele>
        <time>2021-08-27T08:52:00.000Z</time>
      </trkpt>
      <trkpt lat="49.82883" lon="4.85448">
        <ele>357</ele>
        <time>2021-08-27T08:52:01.000Z</time>
      </trkpt>
      <trkpt lat="49.82886" lon="4.85454">
        <ele>357</ele>
        <time>2021-08-27T08:52:02.000Z</time>
      </trkpt>
      <trkpt lat="49.82888" lon="4.85462">
        <ele>357</ele>
        <time>2021-08-27T08:52:03.000Z</time>
      </trkpt>
      <trkpt lat="49.8289" lon="4.85469">
        <ele>357</ele>
        <time>2021-08-27T08:52:04.000Z</time>
      </trkpt>
      <trkpt lat="49.82893" lon="4.85477">
        <ele>357</ele>
        <time>2021-08-27T08:52:05.000Z</time>
      </trkpt>
      <trkpt lat="49.82896" lon="4.85485">
        <ele>356</ele>
        <time>2021-08-27T08:52:06.000Z</time>
      </trkpt>
      <trkpt lat="49.82899" lon="4.85494">
        <ele>356</ele>
        <time>2021-08-27T08:52:07.000Z</time>
      </trkpt>
      <trkpt lat="49.82902" lon="4.85503">
        <ele>356</ele>
        <time>2021-08-27T08:52:08.000Z</time>
      </trkpt>
      <trkpt lat="49.82904" lon="4.85512">
        <ele>356</ele>
        <time>2021-08-27T08:52:09.000Z</time>
      </trkpt>
      <trkpt lat="49.82906" lon="4.85521">
        <ele>356</ele>
        <time>2021-08-27T08:52:10.000Z</time>
      </trkpt>
      <trkpt lat="49.82909" lon="4.8553">
        <ele>356</ele>
        <time>2021-08-27T08:52:11.000Z</time>
      </trkpt>
      <trkpt lat="49.82912" lon="4.85541">
        <ele>356</ele>
        <time>2021-08-27T08:52:12.000Z</time>
      </trkpt>
      <trkpt lat="49.82914" lon="4.85552">
        <ele>355</ele>
        <time>2021-08-27T08:52:13.000Z</time>
      </trkpt>
      <trkpt lat="49.82917" lon="4.85563">
        <ele>355</ele>
        <time>2021-08-27T08:52:14.000Z</time>
      </trkpt>
      <trkpt lat="49.8292" lon="4.85574">
        <ele>355</ele>
        <time>2021-08-27T08:52:15.000Z</time>
      </trkpt>
      <trkpt lat="49.82922" lon="4.85586">
        <ele>355</ele>
        <time>2021-08-27T08:52:16.000Z</time>
      </trkpt>
      <trkpt lat="49.82925" lon="4.85597">
        <ele>355</ele>
        <time>2021-08-27T08:52:17.000Z</time>
      </trkpt>
      <trkpt lat="49.82928" lon="4.85609">
        <ele>355</ele>
        <time>2021-08-27T08:52:18.000Z</time>
      </trkpt>
      <trkpt lat="49.82931" lon="4.85619">
        <ele>354</ele>
        <time>2021-08-27T08:52:19.000Z</time>
      </trkpt>
      <trkpt lat="49.82934" lon="4.85629">
        <ele>354</ele>
        <time>2021-08-27T08:52:20.000Z</time>
      </trkpt>
      <trkpt lat="49.82938" lon="4.85638">
        <ele>354</ele>
        <time>2021-08-27T08:52:21.000Z</time>
      </trkpt>
      <trkpt lat="49.82942" lon="4.85648">
        <ele>354</ele>
        <time>2021-08-27T08:52:22.000Z</time>
      </trkpt>
      <trkpt lat="49.82946" lon="4.85657">
        <ele>353</ele>
        <time>2021-08-27T08:52:23.000Z</time>
      </trkpt>
      <trkpt lat="49.82951" lon="4.85667">
        <ele>353</ele>
        <time>2021-08-27T08:52:24.000Z</time>
      </trkpt>
      <trkpt lat="49.82955" lon="4.85676">
        <ele>352</ele>
        <time>2021-08-27T08:52:25.000Z</time>
      </trkpt>
      <trkpt lat="49.82959" lon="4.85686">
        <ele>352</ele>
        <time>2021-08-27T08:52:26.000Z</time>
      </trkpt>
      <trkpt lat="49.82964" lon="4.85695">
        <ele>352</ele>
        <time>2021-08-27T08:52:27.000Z</time>
      </trkpt>
      <trkpt lat="49.82968" lon="4.85705">
        <ele>351</ele>
        <time>2021-08-27T08:52:28.000Z</time>
      </trkpt>
      <trkpt lat="49.82972" lon="4.85715">
        <ele>351</ele>
        <time>2021-08-27T08:52:29.000Z</time>
      </trkpt>
      <trkpt lat="49.82976" lon="4.85726">
        <ele>350</ele>
        <time>2021-08-27T08:52:30.000Z</time>
      </trkpt>
      <trkpt lat="49.82979" lon="4.85737">
        <ele>350</ele>
        <time>2021-08-27T08:52:31.000Z</time>
      </trkpt>
      <trkpt lat="49.82981" lon="4.85748">
        <ele>349</ele>
        <time>2021-08-27T08:52:32.000Z</time>
      </trkpt>
      <trkpt lat="49.82982" lon="4.85759">
        <ele>349</ele>
        <time>2021-08-27T08:52:33.000Z</time>
      </trkpt>
      <trkpt lat="49.82982" lon="4.8577">
        <ele>348</ele>
        <time>2021-08-27T08:52:34.000Z</time>
      </trkpt>
      <trkpt lat="49.82983" lon="4.85781">
        <ele>348</ele>
        <time>2021-08-27T08:52:35.000Z</time>
      </trkpt>
      <trkpt lat="49.82983" lon="4.85791">
        <ele>348</ele>
        <time>2021-08-27T08:52:36.000Z</time>
      </trkpt>
      <trkpt lat="49.82984" lon="4.858">
        <ele>347</ele>
        <time>2021-08-27T08:52:37.000Z</time>
      </trkpt>
      <trkpt lat="49.82984" lon="4.8581">
        <ele>347</ele>
        <time>2021-08-27T08:52:38.000Z</time>
      </trkpt>
      <trkpt lat="49.82984" lon="4.85819">
        <ele>347</ele>
        <time>2021-08-27T08:52:39.000Z</time>
      </trkpt>
      <trkpt lat="49.82985" lon="4.85828">
        <ele>347</ele>
        <time>2021-08-27T08:52:40.000Z</time>
      </trkpt>
      <trkpt lat="49.82984" lon="4.85837">
        <ele>347</ele>
        <time>2021-08-27T08:52:41.000Z</time>
      </trkpt>
      <trkpt lat="49.82984" lon="4.85846">
        <ele>347</ele>
        <time>2021-08-27T08:52:42.000Z</time>
      </trkpt>
      <trkpt lat="49.82984" lon="4.85854">
        <ele>346</ele>
        <time>2021-08-27T08:52:43.000Z</time>
      </trkpt>
      <trkpt lat="49.82985" lon="4.85863">
        <ele>346</ele>
        <time>2021-08-27T08:52:44.000Z</time>
      </trkpt>
      <trkpt lat="49.82985" lon="4.85872">
        <ele>346</ele>
        <time>2021-08-27T08:52:45.000Z</time>
      </trkpt>
      <trkpt lat="49.82986" lon="4.8588">
        <ele>346</ele>
        <time>2021-08-27T08:52:46.000Z</time>
      </trkpt>
      <trkpt lat="49.82988" lon="4.85889">
        <ele>346</ele>
        <time>2021-08-27T08:52:47.000Z</time>
      </trkpt>
      <trkpt lat="49.8299" lon="4.85896">
        <ele>346</ele>
        <time>2021-08-27T08:52:48.000Z</time>
      </trkpt>
      <trkpt lat="49.82992" lon="4.85903">
        <ele>346</ele>
        <time>2021-08-27T08:52:49.000Z</time>
      </trkpt>
      <trkpt lat="49.82995" lon="4.8591">
        <ele>346</ele>
        <time>2021-08-27T08:52:50.000Z</time>
      </trkpt>
      <trkpt lat="49.82997" lon="4.85917">
        <ele>346</ele>
        <time>2021-08-27T08:52:51.000Z</time>
      </trkpt>
      <trkpt lat="49.82999" lon="4.85923">
        <ele>346</ele>
        <time>2021-08-27T08:52:52.000Z</time>
      </trkpt>
      <trkpt lat="49.83001" lon="4.85929">
        <ele>346</ele>
        <time>2021-08-27T08:52:53.000Z</time>
      </trkpt>
      <trkpt lat="49.83003" lon="4.85935">
        <ele>346</ele>
        <time>2021-08-27T08:52:54.000Z</time>
      </trkpt>
      <trkpt lat="49.83005" lon="4.8594">
        <ele>346</ele>
        <time>2021-08-27T08:52:55.000Z</time>
      </trkpt>
      <trkpt lat="49.83007" lon="4.85946">
        <ele>346</ele>
        <time>2021-08-27T08:52:56.000Z</time>
      </trkpt>
      <trkpt lat="49.83009" lon="4.85951">
        <ele>346</ele>
        <time>2021-08-27T08:52:57.000Z</time>
      </trkpt>
      <trkpt lat="49.83011" lon="4.85956">
        <ele>346</ele>
        <time>2021-08-27T08:52:58.000Z</time>
      </trkpt>
      <trkpt lat="49.83012" lon="4.85961">
        <ele>346</ele>
        <time>2021-08-27T08:52:59.000Z</time>
      </trkpt>
      <trkpt lat="49.83014" lon="4.85967">
        <ele>346</ele>
        <time>2021-08-27T08:53:00.000Z</time>
      </trkpt>
      <trkpt lat="49.83015" lon="4.85973">
        <ele>346</ele>
        <time>2021-08-27T08:53:01.000Z</time>
      </trkpt>
      <trkpt lat="49.83016" lon="4.85978">
        <ele>346</ele>
        <time>2021-08-27T08:53:02.000Z</time>
      </trkpt>
      <trkpt lat="49.83017" lon="4.85984">
        <ele>346</ele>
        <time>2021-08-27T08:53:03.000Z</time>
      </trkpt>
      <trkpt lat="49.83018" lon="4.8599">
        <ele>346</ele>
        <time>2021-08-27T08:53:04.000Z</time>
      </trkpt>
      <trkpt lat="49.83018" lon="4.85997">
        <ele>346</ele>
        <time>2021-08-27T08:53:05.000Z</time>
      </trkpt>
      <trkpt lat="49.83019" lon="4.86002">
        <ele>346</ele>
        <time>2021-08-27T08:53:06.000Z</time>
      </trkpt>
      <trkpt lat="49.83018" lon="4.86008">
        <ele>346</ele>
        <time>2021-08-27T08:53:07.000Z</time>
      </trkpt>
      <trkpt lat="49.83019" lon="4.86015">
        <ele>346</ele>
        <time>2021-08-27T08:53:08.000Z</time>
      </trkpt>
      <trkpt lat="49.8302" lon="4.86021">
        <ele>346</ele>
        <time>2021-08-27T08:53:09.000Z</time>
      </trkpt>
      <trkpt lat="49.8302" lon="4.86027">
        <ele>346</ele>
        <time>2021-08-27T08:53:10.000Z</time>
      </trkpt>
      <trkpt lat="49.83022" lon="4.86033">
        <ele>346</ele>
        <time>2021-08-27T08:53:11.000Z</time>
      </trkpt>
      <trkpt lat="49.83022" lon="4.8604">
        <ele>346</ele>
        <time>2021-08-27T08:53:12.000Z</time>
      </trkpt>
      <trkpt lat="49.83022" lon="4.86046">
        <ele>346</ele>
        <time>2021-08-27T08:53:13.000Z</time>
      </trkpt>
      <trkpt lat="49.83023" lon="4.86053">
        <ele>346</ele>
        <time>2021-08-27T08:53:14.000Z</time>
      </trkpt>
      <trkpt lat="49.83023" lon="4.8606">
        <ele>347</ele>
        <time>2021-08-27T08:53:15.000Z</time>
      </trkpt>
      <trkpt lat="49.83023" lon="4.86067">
        <ele>347</ele>
        <time>2021-08-27T08:53:16.000Z</time>
      </trkpt>
      <trkpt lat="49.83024" lon="4.86073">
        <ele>347</ele>
        <time>2021-08-27T08:53:17.000Z</time>
      </trkpt>
      <trkpt lat="49.83025" lon="4.8608">
        <ele>347</ele>
        <time>2021-08-27T08:53:18.000Z</time>
      </trkpt>
      <trkpt lat="49.83025" lon="4.86087">
        <ele>347</ele>
        <time>2021-08-27T08:53:19.000Z</time>
      </trkpt>
      <trkpt lat="49.83025" lon="4.86093">
        <ele>347</ele>
        <time>2021-08-27T08:53:20.000Z</time>
      </trkpt>
      <trkpt lat="49.83025" lon="4.861">
        <ele>347</ele>
        <time>2021-08-27T08:53:21.000Z</time>
      </trkpt>
      <trkpt lat="49.83025" lon="4.86107">
        <ele>347</ele>
        <time>2021-08-27T08:53:22.000Z</time>
      </trkpt>
      <trkpt lat="49.83026" lon="4.86114">
        <ele>347</ele>
        <time>2021-08-27T08:53:23.000Z</time>
      </trkpt>
      <trkpt lat="49.83026" lon="4.86121">
        <ele>347</ele>
        <time>2021-08-27T08:53:24.000Z</time>
      </trkpt>
      <trkpt lat="49.83027" lon="4.86128">
        <ele>347</ele>
        <time>2021-08-27T08:53:25.000Z</time>
      </trkpt>
      <trkpt lat="49.83027" lon="4.86135">
        <ele>347</ele>
        <time>2021-08-27T08:53:26.000Z</time>
      </trkpt>
      <trkpt lat="49.83027" lon="4.86142">
        <ele>347</ele>
        <time>2021-08-27T08:53:27.000Z</time>
      </trkpt>
      <trkpt lat="49.83027" lon="4.86149">
        <ele>347</ele>
        <time>2021-08-27T08:53:28.000Z</time>
      </trkpt>
      <trkpt lat="49.83028" lon="4.86156">
        <ele>347</ele>
        <time>2021-08-27T08:53:29.000Z</time>
      </trkpt>
      <trkpt lat="49.83027" lon="4.86162">
        <ele>347</ele>
        <time>2021-08-27T08:53:30.000Z</time>
      </trkpt>
      <trkpt lat="49.83027" lon="4.86169">
        <ele>347</ele>
        <time>2021-08-27T08:53:31.000Z</time>
      </trkpt>
      <trkpt lat="49.83026" lon="4.86175">
        <ele>347</ele>
        <time>2021-08-27T08:53:32.000Z</time>
      </trkpt>
      <trkpt lat="49.83025" lon="4.86182">
        <ele>348</ele>
        <time>2021-08-27T08:53:33.000Z</time>
      </trkpt>
      <trkpt lat="49.83025" lon="4.86189">
        <ele>348</ele>
        <time>2021-08-27T08:53:34.000Z</time>
      </trkpt>
      <trkpt lat="49.83024" lon="4.86195">
        <ele>348</ele>
        <time>2021-08-27T08:53:35.000Z</time>
      </trkpt>
      <trkpt lat="49.83023" lon="4.86201">
        <ele>348</ele>
        <time>2021-08-27T08:53:36.000Z</time>
      </trkpt>
      <trkpt lat="49.83023" lon="4.86207">
        <ele>348</ele>
        <time>2021-08-27T08:53:37.000Z</time>
      </trkpt>
      <trkpt lat="49.83021" lon="4.86213">
        <ele>348</ele>
        <time>2021-08-27T08:53:38.000Z</time>
      </trkpt>
      <trkpt lat="49.83019" lon="4.86219">
        <ele>348</ele>
        <time>2021-08-27T08:53:39.000Z</time>
      </trkpt>
      <trkpt lat="49.83017" lon="4.86224">
        <ele>349</ele>
        <time>2021-08-27T08:53:40.000Z</time>
      </trkpt>
      <trkpt lat="49.83015" lon="4.8623">
        <ele>349</ele>
        <time>2021-08-27T08:53:41.000Z</time>
      </trkpt>
      <trkpt lat="49.83013" lon="4.86236">
        <ele>349</ele>
        <time>2021-08-27T08:53:42.000Z</time>
      </trkpt>
      <trkpt lat="49.83011" lon="4.86241">
        <ele>349</ele>
        <time>2021-08-27T08:53:43.000Z</time>
      </trkpt>
      <trkpt lat="49.8301" lon="4.86247">
        <ele>349</ele>
        <time>2021-08-27T08:53:44.000Z</time>
      </trkpt>
      <trkpt lat="49.83008" lon="4.86253">
        <ele>349</ele>
        <time>2021-08-27T08:53:45.000Z</time>
      </trkpt>
      <trkpt lat="49.83007" lon="4.86259">
        <ele>349</ele>
        <time>2021-08-27T08:53:46.000Z</time>
      </trkpt>
      <trkpt lat="49.83005" lon="4.86265">
        <ele>349</ele>
        <time>2021-08-27T08:53:47.000Z</time>
      </trkpt>
      <trkpt lat="49.83004" lon="4.86271">
        <ele>349</ele>
        <time>2021-08-27T08:53:48.000Z</time>
      </trkpt>
      <trkpt lat="49.83003" lon="4.86277">
        <ele>350</ele>
        <time>2021-08-27T08:53:49.000Z</time>
      </trkpt>
      <trkpt lat="49.83002" lon="4.86284">
        <ele>350</ele>
        <time>2021-08-27T08:53:50.000Z</time>
      </trkpt>
      <trkpt lat="49.83001" lon="4.8629">
        <ele>350</ele>
        <time>2021-08-27T08:53:51.000Z</time>
      </trkpt>
      <trkpt lat="49.82999" lon="4.86297">
        <ele>350</ele>
        <time>2021-08-27T08:53:52.000Z</time>
      </trkpt>
      <trkpt lat="49.82998" lon="4.86303">
        <ele>350</ele>
        <time>2021-08-27T08:53:53.000Z</time>
      </trkpt>
      <trkpt lat="49.82996" lon="4.86309">
        <ele>350</ele>
        <time>2021-08-27T08:53:54.000Z</time>
      </trkpt>
      <trkpt lat="49.82994" lon="4.86315">
        <ele>351</ele>
        <time>2021-08-27T08:53:55.000Z</time>
      </trkpt>
      <trkpt lat="49.82992" lon="4.8632">
        <ele>351</ele>
        <time>2021-08-27T08:53:56.000Z</time>
      </trkpt>
      <trkpt lat="49.8299" lon="4.86325">
        <ele>351</ele>
        <time>2021-08-27T08:53:57.000Z</time>
      </trkpt>
      <trkpt lat="49.82988" lon="4.86331">
        <ele>351</ele>
        <time>2021-08-27T08:53:58.000Z</time>
      </trkpt>
      <trkpt lat="49.82987" lon="4.86337">
        <ele>351</ele>
        <time>2021-08-27T08:53:59.000Z</time>
      </trkpt>
      <trkpt lat="49.82984" lon="4.86342">
        <ele>351</ele>
        <time>2021-08-27T08:54:00.000Z</time>
      </trkpt>
      <trkpt lat="49.82982" lon="4.86347">
        <ele>351</ele>
        <time>2021-08-27T08:54:01.000Z</time>
      </trkpt>
      <trkpt lat="49.82979" lon="4.86352">
        <ele>351</ele>
        <time>2021-08-27T08:54:02.000Z</time>
      </trkpt>
      <trkpt lat="49.82976" lon="4.86358">
        <ele>351</ele>
        <time>2021-08-27T08:54:03.000Z</time>
      </trkpt>
      <trkpt lat="49.82974" lon="4.86364">
        <ele>351</ele>
        <time>2021-08-27T08:54:04.000Z</time>
      </trkpt>
      <trkpt lat="49.82971" lon="4.8637">
        <ele>352</ele>
        <time>2021-08-27T08:54:05.000Z</time>
      </trkpt>
      <trkpt lat="49.82968" lon="4.86376">
        <ele>352</ele>
        <time>2021-08-27T08:54:06.000Z</time>
      </trkpt>
      <trkpt lat="49.82966" lon="4.86382">
        <ele>352</ele>
        <time>2021-08-27T08:54:07.000Z</time>
      </trkpt>
      <trkpt lat="49.82963" lon="4.86388">
        <ele>352</ele>
        <time>2021-08-27T08:54:08.000Z</time>
      </trkpt>
      <trkpt lat="49.8296" lon="4.86393">
        <ele>353</ele>
        <time>2021-08-27T08:54:09.000Z</time>
      </trkpt>
      <trkpt lat="49.82958" lon="4.86399">
        <ele>353</ele>
        <time>2021-08-27T08:54:10.000Z</time>
      </trkpt>
      <trkpt lat="49.82956" lon="4.86405">
        <ele>353</ele>
        <time>2021-08-27T08:54:11.000Z</time>
      </trkpt>
      <trkpt lat="49.82954" lon="4.86411">
        <ele>353</ele>
        <time>2021-08-27T08:54:12.000Z</time>
      </trkpt>
      <trkpt lat="49.82952" lon="4.86416">
        <ele>353</ele>
        <time>2021-08-27T08:54:13.000Z</time>
      </trkpt>
      <trkpt lat="49.8295" lon="4.86421">
        <ele>354</ele>
        <time>2021-08-27T08:54:14.000Z</time>
      </trkpt>
      <trkpt lat="49.82947" lon="4.86426">
        <ele>354</ele>
        <time>2021-08-27T08:54:15.000Z</time>
      </trkpt>
      <trkpt lat="49.82945" lon="4.86432">
        <ele>354</ele>
        <time>2021-08-27T08:54:16.000Z</time>
      </trkpt>
      <trkpt lat="49.82942" lon="4.86437">
        <ele>354</ele>
        <time>2021-08-27T08:54:17.000Z</time>
      </trkpt>
      <trkpt lat="49.8294" lon="4.86443">
        <ele>354</ele>
        <time>2021-08-27T08:54:18.000Z</time>
      </trkpt>
      <trkpt lat="49.82937" lon="4.86448">
        <ele>354</ele>
        <time>2021-08-27T08:54:19.000Z</time>
      </trkpt>
      <trkpt lat="49.82934" lon="4.86453">
        <ele>354</ele>
        <time>2021-08-27T08:54:20.000Z</time>
      </trkpt>
      <trkpt lat="49.82931" lon="4.86459">
        <ele>354</ele>
        <time>2021-08-27T08:54:21.000Z</time>
      </trkpt>
      <trkpt lat="49.82929" lon="4.86464">
        <ele>354</ele>
        <time>2021-08-27T08:54:22.000Z</time>
      </trkpt>
      <trkpt lat="49.82926" lon="4.8647">
        <ele>354</ele>
        <time>2021-08-27T08:54:23.000Z</time>
      </trkpt>
      <trkpt lat="49.82924" lon="4.86476">
        <ele>354</ele>
        <time>2021-08-27T08:54:24.000Z</time>
      </trkpt>
      <trkpt lat="49.82921" lon="4.86482">
        <ele>355</ele>
        <time>2021-08-27T08:54:25.000Z</time>
      </trkpt>
      <trkpt lat="49.82918" lon="4.86488">
        <ele>355</ele>
        <time>2021-08-27T08:54:26.000Z</time>
      </trkpt>
      <trkpt lat="49.82915" lon="4.86494">
        <ele>355</ele>
        <time>2021-08-27T08:54:27.000Z</time>
      </trkpt>
      <trkpt lat="49.82912" lon="4.86499">
        <ele>355</ele>
        <time>2021-08-27T08:54:28.000Z</time>
      </trkpt>
      <trkpt lat="49.82909" lon="4.86504">
        <ele>355</ele>
        <time>2021-08-27T08:54:29.000Z</time>
      </trkpt>
      <trkpt lat="49.82905" lon="4.86509">
        <ele>355</ele>
        <time>2021-08-27T08:54:30.000Z</time>
      </trkpt>
      <trkpt lat="49.82901" lon="4.86513">
        <ele>356</ele>
        <time>2021-08-27T08:54:31.000Z</time>
      </trkpt>
      <trkpt lat="49.82898" lon="4.86518">
        <ele>356</ele>
        <time>2021-08-27T08:54:32.000Z</time>
      </trkpt>
      <trkpt lat="49.82894" lon="4.86523">
        <ele>356</ele>
        <time>2021-08-27T08:54:33.000Z</time>
      </trkpt>
      <trkpt lat="49.8289" lon="4.86528">
        <ele>356</ele>
        <time>2021-08-27T08:54:34.000Z</time>
      </trkpt>
      <trkpt lat="49.82886" lon="4.86532">
        <ele>356</ele>
        <time>2021-08-27T08:54:35.000Z</time>
      </trkpt>
      <trkpt lat="49.82882" lon="4.86537">
        <ele>356</ele>
        <time>2021-08-27T08:54:36.000Z</time>
      </trkpt>
      <trkpt lat="49.82878" lon="4.8654">
        <ele>356</ele>
        <time>2021-08-27T08:54:37.000Z</time>
      </trkpt>
      <trkpt lat="49.82874" lon="4.86543">
        <ele>356</ele>
        <time>2021-08-27T08:54:38.000Z</time>
      </trkpt>
      <trkpt lat="49.8287" lon="4.86546">
        <ele>356</ele>
        <time>2021-08-27T08:54:39.000Z</time>
      </trkpt>
      <trkpt lat="49.82866" lon="4.86548">
        <ele>356</ele>
        <time>2021-08-27T08:54:40.000Z</time>
      </trkpt>
      <trkpt lat="49.82861" lon="4.86551">
        <ele>356</ele>
        <time>2021-08-27T08:54:41.000Z</time>
      </trkpt>
      <trkpt lat="49.82858" lon="4.86553">
        <ele>356</ele>
        <time>2021-08-27T08:54:42.000Z</time>
      </trkpt>
      <trkpt lat="49.82854" lon="4.86556">
        <ele>356</ele>
        <time>2021-08-27T08:54:43.000Z</time>
      </trkpt>
      <trkpt lat="49.8285" lon="4.86559">
        <ele>356</ele>
        <time>2021-08-27T08:54:44.000Z</time>
      </trkpt>
      <trkpt lat="49.82847" lon="4.8656">
        <ele>356</ele>
        <time>2021-08-27T08:54:45.000Z</time>
      </trkpt>
      <trkpt lat="49.82843" lon="4.86563">
        <ele>356</ele>
        <time>2021-08-27T08:54:46.000Z</time>
      </trkpt>
      <trkpt lat="49.8284" lon="4.86565">
        <ele>356</ele>
        <time>2021-08-27T08:54:47.000Z</time>
      </trkpt>
      <trkpt lat="49.82836" lon="4.86567">
        <ele>356</ele>
        <time>2021-08-27T08:54:48.000Z</time>
      </trkpt>
      <trkpt lat="49.82832" lon="4.86569">
        <ele>356</ele>
        <time>2021-08-27T08:54:49.000Z</time>
      </trkpt>
      <trkpt lat="49.82829" lon="4.86572">
        <ele>356</ele>
        <time>2021-08-27T08:54:50.000Z</time>
      </trkpt>
      <trkpt lat="49.82825" lon="4.86574">
        <ele>355</ele>
        <time>2021-08-27T08:54:51.000Z</time>
      </trkpt>
      <trkpt lat="49.82822" lon="4.86576">
        <ele>355</ele>
        <time>2021-08-27T08:54:52.000Z</time>
      </trkpt>
      <trkpt lat="49.82818" lon="4.86577">
        <ele>355</ele>
        <time>2021-08-27T08:54:53.000Z</time>
      </trkpt>
      <trkpt lat="49.82815" lon="4.8658">
        <ele>355</ele>
        <time>2021-08-27T08:54:54.000Z</time>
      </trkpt>
      <trkpt lat="49.82811" lon="4.86582">
        <ele>355</ele>
        <time>2021-08-27T08:54:55.000Z</time>
      </trkpt>
      <trkpt lat="49.82806" lon="4.86584">
        <ele>355</ele>
        <time>2021-08-27T08:54:56.000Z</time>
      </trkpt>
      <trkpt lat="49.82802" lon="4.86586">
        <ele>355</ele>
        <time>2021-08-27T08:54:57.000Z</time>
      </trkpt>
      <trkpt lat="49.82798" lon="4.86589">
        <ele>355</ele>
        <time>2021-08-27T08:54:58.000Z</time>
      </trkpt>
      <trkpt lat="49.82795" lon="4.86592">
        <ele>355</ele>
        <time>2021-08-27T08:54:59.000Z</time>
      </trkpt>
      <trkpt lat="49.82792" lon="4.86596">
        <ele>356</ele>
        <time>2021-08-27T08:55:00.000Z</time>
      </trkpt>
      <trkpt lat="49.82788" lon="4.86599">
        <ele>356</ele>
        <time>2021-08-27T08:55:01.000Z</time>
      </trkpt>
      <trkpt lat="49.82785" lon="4.86601">
        <ele>356</ele>
        <time>2021-08-27T08:55:02.000Z</time>
      </trkpt>
      <trkpt lat="49.82781" lon="4.86604">
        <ele>356</ele>
        <time>2021-08-27T08:55:03.000Z</time>
      </trkpt>
      <trkpt lat="49.82776" lon="4.86606">
        <ele>356</ele>
        <time>2021-08-27T08:55:04.000Z</time>
      </trkpt>
      <trkpt lat="49.82772" lon="4.86608">
        <ele>356</ele>
        <time>2021-08-27T08:55:05.000Z</time>
      </trkpt>
      <trkpt lat="49.82768" lon="4.86611">
        <ele>356</ele>
        <time>2021-08-27T08:55:06.000Z</time>
      </trkpt>
      <trkpt lat="49.82764" lon="4.86614">
        <ele>356</ele>
        <time>2021-08-27T08:55:07.000Z</time>
      </trkpt>
      <trkpt lat="49.8276" lon="4.86616">
        <ele>356</ele>
        <time>2021-08-27T08:55:08.000Z</time>
      </trkpt>
      <trkpt lat="49.82756" lon="4.86619">
        <ele>356</ele>
        <time>2021-08-27T08:55:09.000Z</time>
      </trkpt>
      <trkpt lat="49.82751" lon="4.86622">
        <ele>356</ele>
        <time>2021-08-27T08:55:10.000Z</time>
      </trkpt>
      <trkpt lat="49.82747" lon="4.86625">
        <ele>356</ele>
        <time>2021-08-27T08:55:11.000Z</time>
      </trkpt>
      <trkpt lat="49.82743" lon="4.86629">
        <ele>356</ele>
        <time>2021-08-27T08:55:12.000Z</time>
      </trkpt>
      <trkpt lat="49.82738" lon="4.86634">
        <ele>356</ele>
        <time>2021-08-27T08:55:13.000Z</time>
      </trkpt>
      <trkpt lat="49.82734" lon="4.86639">
        <ele>356</ele>
        <time>2021-08-27T08:55:14.000Z</time>
      </trkpt>
      <trkpt lat="49.8273" lon="4.86644">
        <ele>356</ele>
        <time>2021-08-27T08:55:15.000Z</time>
      </trkpt>
      <trkpt lat="49.82726" lon="4.86649">
        <ele>356</ele>
        <time>2021-08-27T08:55:16.000Z</time>
      </trkpt>
      <trkpt lat="49.82723" lon="4.86654">
        <ele>356</ele>
        <time>2021-08-27T08:55:17.000Z</time>
      </trkpt>
      <trkpt lat="49.82719" lon="4.86659">
        <ele>357</ele>
        <time>2021-08-27T08:55:18.000Z</time>
      </trkpt>
      <trkpt lat="49.82716" lon="4.86664">
        <ele>357</ele>
        <time>2021-08-27T08:55:19.000Z</time>
      </trkpt>
      <trkpt lat="49.82714" lon="4.86669">
        <ele>357</ele>
        <time>2021-08-27T08:55:20.000Z</time>
      </trkpt>
      <trkpt lat="49.82711" lon="4.86674">
        <ele>357</ele>
        <time>2021-08-27T08:55:21.000Z</time>
      </trkpt>
      <trkpt lat="49.82709" lon="4.86679">
        <ele>357</ele>
        <time>2021-08-27T08:55:22.000Z</time>
      </trkpt>
      <trkpt lat="49.82706" lon="4.86684">
        <ele>357</ele>
        <time>2021-08-27T08:55:23.000Z</time>
      </trkpt>
      <trkpt lat="49.82703" lon="4.86688">
        <ele>357</ele>
        <time>2021-08-27T08:55:24.000Z</time>
      </trkpt>
      <trkpt lat="49.82701" lon="4.86692">
        <ele>357</ele>
        <time>2021-08-27T08:55:25.000Z</time>
      </trkpt>
      <trkpt lat="49.82698" lon="4.86697">
        <ele>357</ele>
        <time>2021-08-27T08:55:26.000Z</time>
      </trkpt>
      <trkpt lat="49.82697" lon="4.86702">
        <ele>357</ele>
        <time>2021-08-27T08:55:27.000Z</time>
      </trkpt>
      <trkpt lat="49.82695" lon="4.86707">
        <ele>357</ele>
        <time>2021-08-27T08:55:28.000Z</time>
      </trkpt>
      <trkpt lat="49.82692" lon="4.86712">
        <ele>357</ele>
        <time>2021-08-27T08:55:29.000Z</time>
      </trkpt>
      <trkpt lat="49.82689" lon="4.86716">
        <ele>357</ele>
        <time>2021-08-27T08:55:30.000Z</time>
      </trkpt>
      <trkpt lat="49.82686" lon="4.86721">
        <ele>357</ele>
        <time>2021-08-27T08:55:31.000Z</time>
      </trkpt>
      <trkpt lat="49.82683" lon="4.86726">
        <ele>358</ele>
        <time>2021-08-27T08:55:32.000Z</time>
      </trkpt>
      <trkpt lat="49.8268" lon="4.86731">
        <ele>358</ele>
        <time>2021-08-27T08:55:33.000Z</time>
      </trkpt>
      <trkpt lat="49.82677" lon="4.86737">
        <ele>358</ele>
        <time>2021-08-27T08:55:34.000Z</time>
      </trkpt>
      <trkpt lat="49.82675" lon="4.86742">
        <ele>358</ele>
        <time>2021-08-27T08:55:35.000Z</time>
      </trkpt>
      <trkpt lat="49.82673" lon="4.86748">
        <ele>358</ele>
        <time>2021-08-27T08:55:36.000Z</time>
      </trkpt>
      <trkpt lat="49.8267" lon="4.86753">
        <ele>358</ele>
        <time>2021-08-27T08:55:37.000Z</time>
      </trkpt>
      <trkpt lat="49.82668" lon="4.86758">
        <ele>358</ele>
        <time>2021-08-27T08:55:38.000Z</time>
      </trkpt>
      <trkpt lat="49.82666" lon="4.86764">
        <ele>358</ele>
        <time>2021-08-27T08:55:39.000Z</time>
      </trkpt>
      <trkpt lat="49.82664" lon="4.86769">
        <ele>358</ele>
        <time>2021-08-27T08:55:40.000Z</time>
      </trkpt>
      <trkpt lat="49.82662" lon="4.86774">
        <ele>359</ele>
        <time>2021-08-27T08:55:41.000Z</time>
      </trkpt>
      <trkpt lat="49.82659" lon="4.8678">
        <ele>359</ele>
        <time>2021-08-27T08:55:42.000Z</time>
      </trkpt>
      <trkpt lat="49.82657" lon="4.86785">
        <ele>359</ele>
        <time>2021-08-27T08:55:43.000Z</time>
      </trkpt>
      <trkpt lat="49.82656" lon="4.86791">
        <ele>359</ele>
        <time>2021-08-27T08:55:44.000Z</time>
      </trkpt>
      <trkpt lat="49.82655" lon="4.86797">
        <ele>359</ele>
        <time>2021-08-27T08:55:45.000Z</time>
      </trkpt>
      <trkpt lat="49.82653" lon="4.86803">
        <ele>360</ele>
        <time>2021-08-27T08:55:46.000Z</time>
      </trkpt>
      <trkpt lat="49.82652" lon="4.86809">
        <ele>360</ele>
        <time>2021-08-27T08:55:47.000Z</time>
      </trkpt>
      <trkpt lat="49.82651" lon="4.86814">
        <ele>360</ele>
        <time>2021-08-27T08:55:48.000Z</time>
      </trkpt>
      <trkpt lat="49.8265" lon="4.8682">
        <ele>360</ele>
        <time>2021-08-27T08:55:49.000Z</time>
      </trkpt>
      <trkpt lat="49.82649" lon="4.86826">
        <ele>360</ele>
        <time>2021-08-27T08:55:50.000Z</time>
      </trkpt>
      <trkpt lat="49.82649" lon="4.86831">
        <ele>360</ele>
        <time>2021-08-27T08:55:51.000Z</time>
      </trkpt>
      <trkpt lat="49.8265" lon="4.86837">
        <ele>360</ele>
        <time>2021-08-27T08:55:52.000Z</time>
      </trkpt>
      <trkpt lat="49.82649" lon="4.86843">
        <ele>360</ele>
        <time>2021-08-27T08:55:53.000Z</time>
      </trkpt>
      <trkpt lat="49.82649" lon="4.86849">
        <ele>360</ele>
        <time>2021-08-27T08:55:54.000Z</time>
      </trkpt>
      <trkpt lat="49.82648" lon="4.86854">
        <ele>361</ele>
        <time>2021-08-27T08:55:55.000Z</time>
      </trkpt>
      <trkpt lat="49.82647" lon="4.86859">
        <ele>361</ele>
        <time>2021-08-27T08:55:56.000Z</time>
      </trkpt>
      <trkpt lat="49.82646" lon="4.86865">
        <ele>361</ele>
        <time>2021-08-27T08:55:57.000Z</time>
      </trkpt>
      <trkpt lat="49.82646" lon="4.86871">
        <ele>361</ele>
        <time>2021-08-27T08:55:58.000Z</time>
      </trkpt>
      <trkpt lat="49.82645" lon="4.86877">
        <ele>361</ele>
        <time>2021-08-27T08:55:59.000Z</time>
      </trkpt>
      <trkpt lat="49.82645" lon="4.86883">
        <ele>361</ele>
        <time>2021-08-27T08:56:00.000Z</time>
      </trkpt>
      <trkpt lat="49.82644" lon="4.86889">
        <ele>361</ele>
        <time>2021-08-27T08:56:01.000Z</time>
      </trkpt>
      <trkpt lat="49.82644" lon="4.86895">
        <ele>361</ele>
        <time>2021-08-27T08:56:02.000Z</time>
      </trkpt>
      <trkpt lat="49.82643" lon="4.86901">
        <ele>361</ele>
        <time>2021-08-27T08:56:03.000Z</time>
      </trkpt>
      <trkpt lat="49.82643" lon="4.86906">
        <ele>361</ele>
        <time>2021-08-27T08:56:04.000Z</time>
      </trkpt>
      <trkpt lat="49.82643" lon="4.86912">
        <ele>361</ele>
        <time>2021-08-27T08:56:05.000Z</time>
      </trkpt>
      <trkpt lat="49.82643" lon="4.86917">
        <ele>361</ele>
        <time>2021-08-27T08:56:06.000Z</time>
      </trkpt>
      <trkpt lat="49.82642" lon="4.86922">
        <ele>361</ele>
        <time>2021-08-27T08:56:07.000Z</time>
      </trkpt>
      <trkpt lat="49.82642" lon="4.86927">
        <ele>361</ele>
        <time>2021-08-27T08:56:08.000Z</time>
      </trkpt>
      <trkpt lat="49.82641" lon="4.86931">
        <ele>361</ele>
        <time>2021-08-27T08:56:09.000Z</time>
      </trkpt>
      <trkpt lat="49.82639" lon="4.86935">
        <ele>361</ele>
        <time>2021-08-27T08:56:10.000Z</time>
      </trkpt>
      <trkpt lat="49.82638" lon="4.8694">
        <ele>361</ele>
        <time>2021-08-27T08:56:11.000Z</time>
      </trkpt>
      <trkpt lat="49.82637" lon="4.86945">
        <ele>361</ele>
        <time>2021-08-27T08:56:12.000Z</time>
      </trkpt>
      <trkpt lat="49.82636" lon="4.8695">
        <ele>361</ele>
        <time>2021-08-27T08:56:13.000Z</time>
      </trkpt>
      <trkpt lat="49.82635" lon="4.86955">
        <ele>361</ele>
        <time>2021-08-27T08:56:14.000Z</time>
      </trkpt>
      <trkpt lat="49.82634" lon="4.86961">
        <ele>361</ele>
        <time>2021-08-27T08:56:15.000Z</time>
      </trkpt>
      <trkpt lat="49.82633" lon="4.86967">
        <ele>361</ele>
        <time>2021-08-27T08:56:16.000Z</time>
      </trkpt>
      <trkpt lat="49.82632" lon="4.86973">
        <ele>361</ele>
        <time>2021-08-27T08:56:17.000Z</time>
      </trkpt>
      <trkpt lat="49.8263" lon="4.86978">
        <ele>361</ele>
        <time>2021-08-27T08:56:18.000Z</time>
      </trkpt>
      <trkpt lat="49.82628" lon="4.86984">
        <ele>361</ele>
        <time>2021-08-27T08:56:19.000Z</time>
      </trkpt>
      <trkpt lat="49.82626" lon="4.86989">
        <ele>361</ele>
        <time>2021-08-27T08:56:20.000Z</time>
      </trkpt>
      <trkpt lat="49.82624" lon="4.86994">
        <ele>361</ele>
        <time>2021-08-27T08:56:21.000Z</time>
      </trkpt>
      <trkpt lat="49.82621" lon="4.86999">
        <ele>361</ele>
        <time>2021-08-27T08:56:22.000Z</time>
      </trkpt>
      <trkpt lat="49.82619" lon="4.87004">
        <ele>361</ele>
        <time>2021-08-27T08:56:23.000Z</time>
      </trkpt>
      <trkpt lat="49.82616" lon="4.87009">
        <ele>361</ele>
        <time>2021-08-27T08:56:24.000Z</time>
      </trkpt>
      <trkpt lat="49.82613" lon="4.87013">
        <ele>361</ele>
        <time>2021-08-27T08:56:25.000Z</time>
      </trkpt>
      <trkpt lat="49.8261" lon="4.87017">
        <ele>360</ele>
        <time>2021-08-27T08:56:26.000Z</time>
      </trkpt>
      <trkpt lat="49.82607" lon="4.87021">
        <ele>360</ele>
        <time>2021-08-27T08:56:27.000Z</time>
      </trkpt>
      <trkpt lat="49.82603" lon="4.87025">
        <ele>360</ele>
        <time>2021-08-27T08:56:28.000Z</time>
      </trkpt>
      <trkpt lat="49.826" lon="4.87029">
        <ele>360</ele>
        <time>2021-08-27T08:56:29.000Z</time>
      </trkpt>
      <trkpt lat="49.82596" lon="4.87032">
        <ele>360</ele>
        <time>2021-08-27T08:56:30.000Z</time>
      </trkpt>
      <trkpt lat="49.82592" lon="4.87035">
        <ele>360</ele>
        <time>2021-08-27T08:56:31.000Z</time>
      </trkpt>
      <trkpt lat="49.82588" lon="4.87039">
        <ele>360</ele>
        <time>2021-08-27T08:56:32.000Z</time>
      </trkpt>
      <trkpt lat="49.82585" lon="4.87042">
        <ele>360</ele>
        <time>2021-08-27T08:56:33.000Z</time>
      </trkpt>
      <trkpt lat="49.82581" lon="4.87045">
        <ele>360</ele>
        <time>2021-08-27T08:56:34.000Z</time>
      </trkpt>
      <trkpt lat="49.82578" lon="4.87048">
        <ele>360</ele>
        <time>2021-08-27T08:56:35.000Z</time>
      </trkpt>
      <trkpt lat="49.82574" lon="4.87051">
        <ele>360</ele>
        <time>2021-08-27T08:56:36.000Z</time>
      </trkpt>
      <trkpt lat="49.82571" lon="4.87054">
        <ele>360</ele>
        <time>2021-08-27T08:56:37.000Z</time>
      </trkpt>
      <trkpt lat="49.82568" lon="4.87056">
        <ele>360</ele>
        <time>2021-08-27T08:56:38.000Z</time>
      </trkpt>
      <trkpt lat="49.82564" lon="4.87059">
        <ele>360</ele>
        <time>2021-08-27T08:56:39.000Z</time>
      </trkpt>
      <trkpt lat="49.82562" lon="4.87063">
        <ele>360</ele>
        <time>2021-08-27T08:56:40.000Z</time>
      </trkpt>
      <trkpt lat="49.82558" lon="4.87067">
        <ele>360</ele>
        <time>2021-08-27T08:56:41.000Z</time>
      </trkpt>
      <trkpt lat="49.82555" lon="4.8707">
        <ele>360</ele>
        <time>2021-08-27T08:56:42.000Z</time>
      </trkpt>
      <trkpt lat="49.82552" lon="4.87074">
        <ele>360</ele>
        <time>2021-08-27T08:56:43.000Z</time>
      </trkpt>
      <trkpt lat="49.82548" lon="4.87077">
        <ele>361</ele>
        <time>2021-08-27T08:56:44.000Z</time>
      </trkpt>
      <trkpt lat="49.82546" lon="4.8708">
        <ele>361</ele>
        <time>2021-08-27T08:56:45.000Z</time>
      </trkpt>
      <trkpt lat="49.82544" lon="4.87083">
        <ele>361</ele>
        <time>2021-08-27T08:56:46.000Z</time>
      </trkpt>
      <trkpt lat="49.82542" lon="4.87086">
        <ele>361</ele>
        <time>2021-08-27T08:56:47.000Z</time>
      </trkpt>
      <trkpt lat="49.82539" lon="4.87088">
        <ele>361</ele>
        <time>2021-08-27T08:56:48.000Z</time>
      </trkpt>
      <trkpt lat="49.82536" lon="4.87092">
        <ele>362</ele>
        <time>2021-08-27T08:56:49.000Z</time>
      </trkpt>
      <trkpt lat="49.82532" lon="4.87097">
        <ele>362</ele>
        <time>2021-08-27T08:56:50.000Z</time>
      </trkpt>
      <trkpt lat="49.82529" lon="4.87102">
        <ele>362</ele>
        <time>2021-08-27T08:56:51.000Z</time>
      </trkpt>
      <trkpt lat="49.82525" lon="4.87108">
        <ele>362</ele>
        <time>2021-08-27T08:56:52.000Z</time>
      </trkpt>
      <trkpt lat="49.82521" lon="4.87114">
        <ele>362</ele>
        <time>2021-08-27T08:56:53.000Z</time>
      </trkpt>
      <trkpt lat="49.82517" lon="4.8712">
        <ele>362</ele>
        <time>2021-08-27T08:56:54.000Z</time>
      </trkpt>
      <trkpt lat="49.82513" lon="4.87127">
        <ele>362</ele>
        <time>2021-08-27T08:56:55.000Z</time>
      </trkpt>
      <trkpt lat="49.82509" lon="4.87133">
        <ele>362</ele>
        <time>2021-08-27T08:56:56.000Z</time>
      </trkpt>
      <trkpt lat="49.82506" lon="4.87139">
        <ele>362</ele>
        <time>2021-08-27T08:56:57.000Z</time>
      </trkpt>
      <trkpt lat="49.82503" lon="4.87145">
        <ele>361</ele>
        <time>2021-08-27T08:56:58.000Z</time>
      </trkpt>
      <trkpt lat="49.825" lon="4.8715">
        <ele>361</ele>
        <time>2021-08-27T08:56:59.000Z</time>
      </trkpt>
      <trkpt lat="49.82497" lon="4.87156">
        <ele>361</ele>
        <time>2021-08-27T08:57:00.000Z</time>
      </trkpt>
      <trkpt lat="49.82494" lon="4.87162">
        <ele>361</ele>
        <time>2021-08-27T08:57:01.000Z</time>
      </trkpt>
      <trkpt lat="49.82491" lon="4.87168">
        <ele>361</ele>
        <time>2021-08-27T08:57:02.000Z</time>
      </trkpt>
      <trkpt lat="49.82488" lon="4.87174">
        <ele>361</ele>
        <time>2021-08-27T08:57:03.000Z</time>
      </trkpt>
      <trkpt lat="49.82486" lon="4.87181">
        <ele>361</ele>
        <time>2021-08-27T08:57:04.000Z</time>
      </trkpt>
      <trkpt lat="49.82483" lon="4.87187">
        <ele>361</ele>
        <time>2021-08-27T08:57:05.000Z</time>
      </trkpt>
      <trkpt lat="49.8248" lon="4.87194">
        <ele>361</ele>
        <time>2021-08-27T08:57:06.000Z</time>
      </trkpt>
      <trkpt lat="49.82478" lon="4.87201">
        <ele>361</ele>
        <time>2021-08-27T08:57:07.000Z</time>
      </trkpt>
      <trkpt lat="49.82475" lon="4.87208">
        <ele>361</ele>
        <time>2021-08-27T08:57:08.000Z</time>
      </trkpt>
      <trkpt lat="49.82472" lon="4.87215">
        <ele>361</ele>
        <time>2021-08-27T08:57:09.000Z</time>
      </trkpt>
      <trkpt lat="49.8247" lon="4.87222">
        <ele>361</ele>
        <time>2021-08-27T08:57:10.000Z</time>
      </trkpt>
      <trkpt lat="49.82467" lon="4.87229">
        <ele>361</ele>
        <time>2021-08-27T08:57:11.000Z</time>
      </trkpt>
      <trkpt lat="49.82465" lon="4.87236">
        <ele>361</ele>
        <time>2021-08-27T08:57:12.000Z</time>
      </trkpt>
      <trkpt lat="49.82462" lon="4.87242">
        <ele>361</ele>
        <time>2021-08-27T08:57:13.000Z</time>
      </trkpt>
      <trkpt lat="49.82459" lon="4.87249">
        <ele>361</ele>
        <time>2021-08-27T08:57:14.000Z</time>
      </trkpt>
      <trkpt lat="49.82456" lon="4.87255">
        <ele>361</ele>
        <time>2021-08-27T08:57:15.000Z</time>
      </trkpt>
      <trkpt lat="49.82453" lon="4.87261">
        <ele>361</ele>
        <time>2021-08-27T08:57:16.000Z</time>
      </trkpt>
      <trkpt lat="49.82451" lon="4.87267">
        <ele>361</ele>
        <time>2021-08-27T08:57:17.000Z</time>
      </trkpt>
      <trkpt lat="49.82448" lon="4.87274">
        <ele>361</ele>
        <time>2021-08-27T08:57:18.000Z</time>
      </trkpt>
      <trkpt lat="49.82446" lon="4.8728">
        <ele>361</ele>
        <time>2021-08-27T08:57:19.000Z</time>
      </trkpt>
      <trkpt lat="49.82444" lon="4.87286">
        <ele>361</ele>
        <time>2021-08-27T08:57:20.000Z</time>
      </trkpt>
      <trkpt lat="49.82442" lon="4.87291">
        <ele>361</ele>
        <time>2021-08-27T08:57:21.000Z</time>
      </trkpt>
      <trkpt lat="49.8244" lon="4.87297">
        <ele>361</ele>
        <time>2021-08-27T08:57:22.000Z</time>
      </trkpt>
      <trkpt lat="49.82438" lon="4.87303">
        <ele>361</ele>
        <time>2021-08-27T08:57:23.000Z</time>
      </trkpt>
      <trkpt lat="49.82437" lon="4.87309">
        <ele>361</ele>
        <time>2021-08-27T08:57:24.000Z</time>
      </trkpt>
      <trkpt lat="49.82435" lon="4.87315">
        <ele>361</ele>
        <time>2021-08-27T08:57:25.000Z</time>
      </trkpt>
      <trkpt lat="49.82434" lon="4.87321">
        <ele>361</ele>
        <time>2021-08-27T08:57:26.000Z</time>
      </trkpt>
      <trkpt lat="49.82433" lon="4.87327">
        <ele>361</ele>
        <time>2021-08-27T08:57:27.000Z</time>
      </trkpt>
      <trkpt lat="49.82432" lon="4.87333">
        <ele>362</ele>
        <time>2021-08-27T08:57:28.000Z</time>
      </trkpt>
      <trkpt lat="49.82431" lon="4.87339">
        <ele>362</ele>
        <time>2021-08-27T08:57:29.000Z</time>
      </trkpt>
      <trkpt lat="49.8243" lon="4.87345">
        <ele>362</ele>
        <time>2021-08-27T08:57:30.000Z</time>
      </trkpt>
      <trkpt lat="49.8243" lon="4.87351">
        <ele>362</ele>
        <time>2021-08-27T08:57:31.000Z</time>
      </trkpt>
      <trkpt lat="49.82429" lon="4.87358">
        <ele>362</ele>
        <time>2021-08-27T08:57:32.000Z</time>
      </trkpt>
      <trkpt lat="49.82428" lon="4.87364">
        <ele>362</ele>
        <time>2021-08-27T08:57:33.000Z</time>
      </trkpt>
      <trkpt lat="49.82427" lon="4.8737">
        <ele>362</ele>
        <time>2021-08-27T08:57:34.000Z</time>
      </trkpt>
      <trkpt lat="49.82426" lon="4.87375">
        <ele>362</ele>
        <time>2021-08-27T08:57:35.000Z</time>
      </trkpt>
      <trkpt lat="49.82425" lon="4.87381">
        <ele>362</ele>
        <time>2021-08-27T08:57:36.000Z</time>
      </trkpt>
      <trkpt lat="49.82424" lon="4.87387">
        <ele>362</ele>
        <time>2021-08-27T08:57:37.000Z</time>
      </trkpt>
      <trkpt lat="49.82424" lon="4.87392">
        <ele>362</ele>
        <time>2021-08-27T08:57:38.000Z</time>
      </trkpt>
      <trkpt lat="49.82424" lon="4.87398">
        <ele>362</ele>
        <time>2021-08-27T08:57:39.000Z</time>
      </trkpt>
      <trkpt lat="49.82423" lon="4.87403">
        <ele>362</ele>
        <time>2021-08-27T08:57:40.000Z</time>
      </trkpt>
      <trkpt lat="49.82422" lon="4.87409">
        <ele>362</ele>
        <time>2021-08-27T08:57:41.000Z</time>
      </trkpt>
      <trkpt lat="49.82419" lon="4.87413">
        <ele>363</ele>
        <time>2021-08-27T08:57:42.000Z</time>
      </trkpt>
      <trkpt lat="49.82415" lon="4.87413">
        <ele>363</ele>
        <time>2021-08-27T08:57:43.000Z</time>
      </trkpt>
      <trkpt lat="49.82412" lon="4.87411">
        <ele>363</ele>
        <time>2021-08-27T08:57:44.000Z</time>
      </trkpt>
      <trkpt lat="49.8241" lon="4.87407">
        <ele>363</ele>
        <time>2021-08-27T08:57:45.000Z</time>
      </trkpt>
      <trkpt lat="49.82409" lon="4.87403">
        <ele>363</ele>
        <time>2021-08-27T08:57:46.000Z</time>
      </trkpt>
      <trkpt lat="49.82407" lon="4.87399">
        <ele>363</ele>
        <time>2021-08-27T08:57:47.000Z</time>
      </trkpt>
      <trkpt lat="49.82405" lon="4.87395">
        <ele>363</ele>
        <time>2021-08-27T08:57:48.000Z</time>
      </trkpt>
      <trkpt lat="49.82404" lon="4.8739">
        <ele>363</ele>
        <time>2021-08-27T08:57:49.000Z</time>
      </trkpt>
      <trkpt lat="49.82403" lon="4.87385">
        <ele>363</ele>
        <time>2021-08-27T08:57:50.000Z</time>
      </trkpt>
      <trkpt lat="49.82401" lon="4.87381">
        <ele>363</ele>
        <time>2021-08-27T08:57:51.000Z</time>
      </trkpt>
      <trkpt lat="49.824" lon="4.87376">
        <ele>363</ele>
        <time>2021-08-27T08:57:52.000Z</time>
      </trkpt>
      <trkpt lat="49.82398" lon="4.87371">
        <ele>363</ele>
        <time>2021-08-27T08:57:53.000Z</time>
      </trkpt>
      <trkpt lat="49.82397" lon="4.87366">
        <ele>364</ele>
        <time>2021-08-27T08:57:54.000Z</time>
      </trkpt>
      <trkpt lat="49.82395" lon="4.87361">
        <ele>364</ele>
        <time>2021-08-27T08:57:55.000Z</time>
      </trkpt>
      <trkpt lat="49.82393" lon="4.87355">
        <ele>364</ele>
        <time>2021-08-27T08:57:56.000Z</time>
      </trkpt>
      <trkpt lat="49.82392" lon="4.8735">
        <ele>364</ele>
        <time>2021-08-27T08:57:57.000Z</time>
      </trkpt>
      <trkpt lat="49.8239" lon="4.87344">
        <ele>364</ele>
        <time>2021-08-27T08:57:58.000Z</time>
      </trkpt>
      <trkpt lat="49.82388" lon="4.87338">
        <ele>364</ele>
        <time>2021-08-27T08:57:59.000Z</time>
      </trkpt>
      <trkpt lat="49.82387" lon="4.87332">
        <ele>364</ele>
        <time>2021-08-27T08:58:00.000Z</time>
      </trkpt>
      <trkpt lat="49.82387" lon="4.87326">
        <ele>364</ele>
        <time>2021-08-27T08:58:01.000Z</time>
      </trkpt>
      <trkpt lat="49.82386" lon="4.8732">
        <ele>364</ele>
        <time>2021-08-27T08:58:02.000Z</time>
      </trkpt>
      <trkpt lat="49.82385" lon="4.87314">
        <ele>365</ele>
        <time>2021-08-27T08:58:03.000Z</time>
      </trkpt>
      <trkpt lat="49.82383" lon="4.87308">
        <ele>365</ele>
        <time>2021-08-27T08:58:04.000Z</time>
      </trkpt>
      <trkpt lat="49.82382" lon="4.87303">
        <ele>365</ele>
        <time>2021-08-27T08:58:05.000Z</time>
      </trkpt>
      <trkpt lat="49.8238" lon="4.87297">
        <ele>365</ele>
        <time>2021-08-27T08:58:06.000Z</time>
      </trkpt>
      <trkpt lat="49.82378" lon="4.87292">
        <ele>365</ele>
        <time>2021-08-27T08:58:07.000Z</time>
      </trkpt>
      <trkpt lat="49.82375" lon="4.87287">
        <ele>365</ele>
        <time>2021-08-27T08:58:08.000Z</time>
      </trkpt>
      <trkpt lat="49.82373" lon="4.87281">
        <ele>365</ele>
        <time>2021-08-27T08:58:09.000Z</time>
      </trkpt>
      <trkpt lat="49.8237" lon="4.87276">
        <ele>365</ele>
        <time>2021-08-27T08:58:10.000Z</time>
      </trkpt>
      <trkpt lat="49.82367" lon="4.87271">
        <ele>365</ele>
        <time>2021-08-27T08:58:11.000Z</time>
      </trkpt>
      <trkpt lat="49.82364" lon="4.87266">
        <ele>365</ele>
        <time>2021-08-27T08:58:12.000Z</time>
      </trkpt>
      <trkpt lat="49.82361" lon="4.87261">
        <ele>365</ele>
        <time>2021-08-27T08:58:13.000Z</time>
      </trkpt>
      <trkpt lat="49.82358" lon="4.87257">
        <ele>365</ele>
        <time>2021-08-27T08:58:14.000Z</time>
      </trkpt>
      <trkpt lat="49.82354" lon="4.87252">
        <ele>365</ele>
        <time>2021-08-27T08:58:15.000Z</time>
      </trkpt>
      <trkpt lat="49.82351" lon="4.87247">
        <ele>365</ele>
        <time>2021-08-27T08:58:16.000Z</time>
      </trkpt>
      <trkpt lat="49.82347" lon="4.87243">
        <ele>365</ele>
        <time>2021-08-27T08:58:17.000Z</time>
      </trkpt>
      <trkpt lat="49.82344" lon="4.87238">
        <ele>365</ele>
        <time>2021-08-27T08:58:18.000Z</time>
      </trkpt>
      <trkpt lat="49.82341" lon="4.87233">
        <ele>365</ele>
        <time>2021-08-27T08:58:19.000Z</time>
      </trkpt>
      <trkpt lat="49.82338" lon="4.87227">
        <ele>365</ele>
        <time>2021-08-27T08:58:20.000Z</time>
      </trkpt>
      <trkpt lat="49.82335" lon="4.87222">
        <ele>365</ele>
        <time>2021-08-27T08:58:21.000Z</time>
      </trkpt>
      <trkpt lat="49.82332" lon="4.87217">
        <ele>366</ele>
        <time>2021-08-27T08:58:22.000Z</time>
      </trkpt>
      <trkpt lat="49.82329" lon="4.87211">
        <ele>366</ele>
        <time>2021-08-27T08:58:23.000Z</time>
      </trkpt>
      <trkpt lat="49.82326" lon="4.87206">
        <ele>366</ele>
        <time>2021-08-27T08:58:24.000Z</time>
      </trkpt>
      <trkpt lat="49.82323" lon="4.872">
        <ele>366</ele>
        <time>2021-08-27T08:58:25.000Z</time>
      </trkpt>
      <trkpt lat="49.8232" lon="4.87195">
        <ele>366</ele>
        <time>2021-08-27T08:58:26.000Z</time>
      </trkpt>
      <trkpt lat="49.82317" lon="4.8719">
        <ele>366</ele>
        <time>2021-08-27T08:58:27.000Z</time>
      </trkpt>
      <trkpt lat="49.82314" lon="4.87185">
        <ele>366</ele>
        <time>2021-08-27T08:58:28.000Z</time>
      </trkpt>
      <trkpt lat="49.82311" lon="4.8718">
        <ele>366</ele>
        <time>2021-08-27T08:58:29.000Z</time>
      </trkpt>
      <trkpt lat="49.82308" lon="4.87176">
        <ele>366</ele>
        <time>2021-08-27T08:58:30.000Z</time>
      </trkpt>
      <trkpt lat="49.82305" lon="4.87172">
        <ele>366</ele>
        <time>2021-08-27T08:58:31.000Z</time>
      </trkpt>
      <trkpt lat="49.82302" lon="4.87168">
        <ele>367</ele>
        <time>2021-08-27T08:58:32.000Z</time>
      </trkpt>
      <trkpt lat="49.82299" lon="4.87164">
        <ele>367</ele>
        <time>2021-08-27T08:58:33.000Z</time>
      </trkpt>
      <trkpt lat="49.82295" lon="4.8716">
        <ele>367</ele>
        <time>2021-08-27T08:58:34.000Z</time>
      </trkpt>
      <trkpt lat="49.82292" lon="4.87157">
        <ele>367</ele>
        <time>2021-08-27T08:58:35.000Z</time>
      </trkpt>
      <trkpt lat="49.82289" lon="4.87153">
        <ele>367</ele>
        <time>2021-08-27T08:58:36.000Z</time>
      </trkpt>
      <trkpt lat="49.82286" lon="4.87149">
        <ele>367</ele>
        <time>2021-08-27T08:58:37.000Z</time>
      </trkpt>
      <trkpt lat="49.82283" lon="4.87145">
        <ele>367</ele>
        <time>2021-08-27T08:58:38.000Z</time>
      </trkpt>
      <trkpt lat="49.8228" lon="4.87141">
        <ele>367</ele>
        <time>2021-08-27T08:58:39.000Z</time>
      </trkpt>
      <trkpt lat="49.82277" lon="4.87137">
        <ele>367</ele>
        <time>2021-08-27T08:58:40.000Z</time>
      </trkpt>
      <trkpt lat="49.82274" lon="4.87134">
        <ele>367</ele>
        <time>2021-08-27T08:58:41.000Z</time>
      </trkpt>
      <trkpt lat="49.82271" lon="4.8713">
        <ele>367</ele>
        <time>2021-08-27T08:58:42.000Z</time>
      </trkpt>
      <trkpt lat="49.82268" lon="4.87126">
        <ele>367</ele>
        <time>2021-08-27T08:58:43.000Z</time>
      </trkpt>
      <trkpt lat="49.82265" lon="4.87122">
        <ele>367</ele>
        <time>2021-08-27T08:58:44.000Z</time>
      </trkpt>
      <trkpt lat="49.82262" lon="4.87119">
        <ele>367</ele>
        <time>2021-08-27T08:58:45.000Z</time>
      </trkpt>
      <trkpt lat="49.8226" lon="4.87115">
        <ele>367</ele>
        <time>2021-08-27T08:58:46.000Z</time>
      </trkpt>
      <trkpt lat="49.82257" lon="4.87111">
        <ele>367</ele>
        <time>2021-08-27T08:58:47.000Z</time>
      </trkpt>
      <trkpt lat="49.82255" lon="4.87106">
        <ele>367</ele>
        <time>2021-08-27T08:58:48.000Z</time>
      </trkpt>
      <trkpt lat="49.82253" lon="4.87102">
        <ele>367</ele>
        <time>2021-08-27T08:58:49.000Z</time>
      </trkpt>
      <trkpt lat="49.8225" lon="4.87097">
        <ele>367</ele>
        <time>2021-08-27T08:58:50.000Z</time>
      </trkpt>
      <trkpt lat="49.82248" lon="4.87093">
        <ele>367</ele>
        <time>2021-08-27T08:58:51.000Z</time>
      </trkpt>
      <trkpt lat="49.82246" lon="4.87088">
        <ele>367</ele>
        <time>2021-08-27T08:58:52.000Z</time>
      </trkpt>
      <trkpt lat="49.82243" lon="4.87084">
        <ele>367</ele>
        <time>2021-08-27T08:58:53.000Z</time>
      </trkpt>
      <trkpt lat="49.82241" lon="4.87079">
        <ele>367</ele>
        <time>2021-08-27T08:58:54.000Z</time>
      </trkpt>
      <trkpt lat="49.82239" lon="4.87075">
        <ele>367</ele>
        <time>2021-08-27T08:58:55.000Z</time>
      </trkpt>
      <trkpt lat="49.82237" lon="4.8707">
        <ele>366</ele>
        <time>2021-08-27T08:58:56.000Z</time>
      </trkpt>
      <trkpt lat="49.82235" lon="4.87066">
        <ele>366</ele>
        <time>2021-08-27T08:58:57.000Z</time>
      </trkpt>
      <trkpt lat="49.82233" lon="4.87061">
        <ele>366</ele>
        <time>2021-08-27T08:58:58.000Z</time>
      </trkpt>
      <trkpt lat="49.82231" lon="4.87057">
        <ele>366</ele>
        <time>2021-08-27T08:58:59.000Z</time>
      </trkpt>
      <trkpt lat="49.82229" lon="4.87053">
        <ele>366</ele>
        <time>2021-08-27T08:59:00.000Z</time>
      </trkpt>
      <trkpt lat="49.82228" lon="4.8705">
        <ele>366</ele>
        <time>2021-08-27T08:59:01.000Z</time>
      </trkpt>
      <trkpt lat="49.82227" lon="4.87047">
        <ele>366</ele>
        <time>2021-08-27T08:59:02.000Z</time>
      </trkpt>
      <trkpt lat="49.82227" lon="4.87046">
        <ele>366</ele>
        <time>2021-08-27T08:59:03.000Z</time>
      </trkpt>
      <trkpt lat="49.82226" lon="4.87045">
        <ele>366</ele>
        <time>2021-08-27T08:59:04.000Z</time>
      </trkpt>
      <trkpt lat="49.82227" lon="4.87043">
        <ele>366</ele>
        <time>2021-08-27T08:59:05.000Z</time>
      </trkpt>
      <trkpt lat="49.82227" lon="4.87042">
        <ele>366</ele>
        <time>2021-08-27T08:59:06.000Z</time>
      </trkpt>
      <trkpt lat="49.82228" lon="4.87041">
        <ele>366</ele>
        <time>2021-08-27T08:59:07.000Z</time>
      </trkpt>
      <trkpt lat="49.82228" lon="4.87041">
        <ele>366</ele>
        <time>2021-08-27T08:59:08.000Z</time>
      </trkpt>
      <trkpt lat="49.82227" lon="4.8704">
        <ele>366</ele>
        <time>2021-08-27T08:59:09.000Z</time>
      </trkpt>
      <trkpt lat="49.82226" lon="4.8704">
        <ele>366</ele>
        <time>2021-08-27T08:59:10.000Z</time>
      </trkpt>
      <trkpt lat="49.82224" lon="4.87039">
        <ele>366</ele>
        <time>2021-08-27T08:59:11.000Z</time>
      </trkpt>
      <trkpt lat="49.82222" lon="4.87038">
        <ele>366</ele>
        <time>2021-08-27T08:59:12.000Z</time>
      </trkpt>
      <trkpt lat="49.8222" lon="4.87036">
        <ele>366</ele>
        <time>2021-08-27T08:59:13.000Z</time>
      </trkpt>
      <trkpt lat="49.82219" lon="4.87035">
        <ele>366</ele>
        <time>2021-08-27T08:59:14.000Z</time>
      </trkpt>
      <trkpt lat="49.82217" lon="4.87034">
        <ele>367</ele>
        <time>2021-08-27T08:59:15.000Z</time>
      </trkpt>
      <trkpt lat="49.82215" lon="4.87033">
        <ele>367</ele>
        <time>2021-08-27T08:59:16.000Z</time>
      </trkpt>
      <trkpt lat="49.82212" lon="4.87032">
        <ele>367</ele>
        <time>2021-08-27T08:59:17.000Z</time>
      </trkpt>
      <trkpt lat="49.8221" lon="4.87032">
        <ele>367</ele>
        <time>2021-08-27T08:59:18.000Z</time>
      </trkpt>
      <trkpt lat="49.82207" lon="4.87032">
        <ele>367</ele>
        <time>2021-08-27T08:59:19.000Z</time>
      </trkpt>
      <trkpt lat="49.82205" lon="4.87032">
        <ele>367</ele>
        <time>2021-08-27T08:59:20.000Z</time>
      </trkpt>
      <trkpt lat="49.82203" lon="4.87033">
        <ele>367</ele>
        <time>2021-08-27T08:59:21.000Z</time>
      </trkpt>
      <trkpt lat="49.822" lon="4.87034">
        <ele>367</ele>
        <time>2021-08-27T08:59:22.000Z</time>
      </trkpt>
      <trkpt lat="49.82198" lon="4.87035">
        <ele>367</ele>
        <time>2021-08-27T08:59:23.000Z</time>
      </trkpt>
      <trkpt lat="49.82196" lon="4.87037">
        <ele>367</ele>
        <time>2021-08-27T08:59:24.000Z</time>
      </trkpt>
      <trkpt lat="49.82194" lon="4.87038">
        <ele>367</ele>
        <time>2021-08-27T08:59:25.000Z</time>
      </trkpt>
      <trkpt lat="49.82193" lon="4.87039">
        <ele>367</ele>
        <time>2021-08-27T08:59:26.000Z</time>
      </trkpt>
      <trkpt lat="49.82191" lon="4.87039">
        <ele>367</ele>
        <time>2021-08-27T08:59:27.000Z</time>
      </trkpt>
      <trkpt lat="49.82189" lon="4.87039">
        <ele>367</ele>
        <time>2021-08-27T08:59:28.000Z</time>
      </trkpt>
      <trkpt lat="49.82186" lon="4.8704">
        <ele>367</ele>
        <time>2021-08-27T08:59:29.000Z</time>
      </trkpt>
      <trkpt lat="49.82183" lon="4.87041">
        <ele>367</ele>
        <time>2021-08-27T08:59:30.000Z</time>
      </trkpt>
      <trkpt lat="49.82181" lon="4.87043">
        <ele>367</ele>
        <time>2021-08-27T08:59:31.000Z</time>
      </trkpt>
      <trkpt lat="49.82178" lon="4.87043">
        <ele>367</ele>
        <time>2021-08-27T08:59:32.000Z</time>
      </trkpt>
      <trkpt lat="49.82175" lon="4.87045">
        <ele>367</ele>
        <time>2021-08-27T08:59:33.000Z</time>
      </trkpt>
      <trkpt lat="49.82172" lon="4.87046">
        <ele>368</ele>
        <time>2021-08-27T08:59:34.000Z</time>
      </trkpt>
      <trkpt lat="49.82169" lon="4.87047">
        <ele>368</ele>
        <time>2021-08-27T08:59:35.000Z</time>
      </trkpt>
      <trkpt lat="49.82166" lon="4.87049">
        <ele>368</ele>
        <time>2021-08-27T08:59:36.000Z</time>
      </trkpt>
      <trkpt lat="49.82163" lon="4.87051">
        <ele>368</ele>
        <time>2021-08-27T08:59:37.000Z</time>
      </trkpt>
      <trkpt lat="49.8216" lon="4.87051">
        <ele>368</ele>
        <time>2021-08-27T08:59:38.000Z</time>
      </trkpt>
      <trkpt lat="49.82157" lon="4.87052">
        <ele>368</ele>
        <time>2021-08-27T08:59:39.000Z</time>
      </trkpt>
      <trkpt lat="49.82153" lon="4.87053">
        <ele>368</ele>
        <time>2021-08-27T08:59:40.000Z</time>
      </trkpt>
      <trkpt lat="49.82149" lon="4.87053">
        <ele>368</ele>
        <time>2021-08-27T08:59:41.000Z</time>
      </trkpt>
      <trkpt lat="49.82146" lon="4.87053">
        <ele>368</ele>
        <time>2021-08-27T08:59:42.000Z</time>
      </trkpt>
      <trkpt lat="49.82142" lon="4.87054">
        <ele>368</ele>
        <time>2021-08-27T08:59:43.000Z</time>
      </trkpt>
      <trkpt lat="49.82139" lon="4.87055">
        <ele>368</ele>
        <time>2021-08-27T08:59:44.000Z</time>
      </trkpt>
      <trkpt lat="49.82135" lon="4.87057">
        <ele>368</ele>
        <time>2021-08-27T08:59:45.000Z</time>
      </trkpt>
      <trkpt lat="49.82131" lon="4.87058">
        <ele>368</ele>
        <time>2021-08-27T08:59:46.000Z</time>
      </trkpt>
      <trkpt lat="49.82128" lon="4.87059">
        <ele>368</ele>
        <time>2021-08-27T08:59:47.000Z</time>
      </trkpt>
      <trkpt lat="49.82124" lon="4.8706">
        <ele>368</ele>
        <time>2021-08-27T08:59:48.000Z</time>
      </trkpt>
      <trkpt lat="49.82121" lon="4.87062">
        <ele>368</ele>
        <time>2021-08-27T08:59:49.000Z</time>
      </trkpt>
      <trkpt lat="49.82118" lon="4.87063">
        <ele>369</ele>
        <time>2021-08-27T08:59:50.000Z</time>
      </trkpt>
      <trkpt lat="49.82115" lon="4.87063">
        <ele>369</ele>
        <time>2021-08-27T08:59:51.000Z</time>
      </trkpt>
      <trkpt lat="49.82111" lon="4.87064">
        <ele>369</ele>
        <time>2021-08-27T08:59:52.000Z</time>
      </trkpt>
      <trkpt lat="49.82107" lon="4.87065">
        <ele>369</ele>
        <time>2021-08-27T08:59:53.000Z</time>
      </trkpt>
      <trkpt lat="49.82104" lon="4.87066">
        <ele>369</ele>
        <time>2021-08-27T08:59:54.000Z</time>
      </trkpt>
      <trkpt lat="49.82099" lon="4.87066">
        <ele>369</ele>
        <time>2021-08-27T08:59:55.000Z</time>
      </trkpt>
      <trkpt lat="49.82094" lon="4.87066">
        <ele>369</ele>
        <time>2021-08-27T08:59:56.000Z</time>
      </trkpt>
      <trkpt lat="49.82089" lon="4.87067">
        <ele>369</ele>
        <time>2021-08-27T08:59:57.000Z</time>
      </trkpt>
      <trkpt lat="49.82085" lon="4.87066">
        <ele>368</ele>
        <time>2021-08-27T08:59:58.000Z</time>
      </trkpt>
      <trkpt lat="49.82081" lon="4.87065">
        <ele>368</ele>
        <time>2021-08-27T08:59:59.000Z</time>
      </trkpt>
      <trkpt lat="49.82077" lon="4.87062">
        <ele>368</ele>
        <time>2021-08-27T09:00:00.000Z</time>
      </trkpt>
      <trkpt lat="49.82074" lon="4.87059">
        <ele>368</ele>
        <time>2021-08-27T09:00:01.000Z</time>
      </trkpt>
      <trkpt lat="49.82072" lon="4.87058">
        <ele>368</ele>
        <time>2021-08-27T09:00:02.000Z</time>
      </trkpt>
      <trkpt lat="49.82069" lon="4.87056">
        <ele>367</ele>
        <time>2021-08-27T09:00:03.000Z</time>
      </trkpt>
      <trkpt lat="49.82067" lon="4.87052">
        <ele>367</ele>
        <time>2021-08-27T09:00:04.000Z</time>
      </trkpt>
      <trkpt lat="49.82065" lon="4.87049">
        <ele>367</ele>
        <time>2021-08-27T09:00:05.000Z</time>
      </trkpt>
      <trkpt lat="49.82062" lon="4.87046">
        <ele>366</ele>
        <time>2021-08-27T09:00:06.000Z</time>
      </trkpt>
      <trkpt lat="49.8206" lon="4.87041">
        <ele>366</ele>
        <time>2021-08-27T09:00:07.000Z</time>
      </trkpt>
      <trkpt lat="49.82057" lon="4.87037">
        <ele>366</ele>
        <time>2021-08-27T09:00:08.000Z</time>
      </trkpt>
      <trkpt lat="49.82055" lon="4.87033">
        <ele>366</ele>
        <time>2021-08-27T09:00:09.000Z</time>
      </trkpt>
      <trkpt lat="49.82053" lon="4.8703">
        <ele>366</ele>
        <time>2021-08-27T09:00:10.000Z</time>
      </trkpt>
      <trkpt lat="49.8205" lon="4.87026">
        <ele>366</ele>
        <time>2021-08-27T09:00:11.000Z</time>
      </trkpt>
      <trkpt lat="49.82047" lon="4.87021">
        <ele>366</ele>
        <time>2021-08-27T09:00:12.000Z</time>
      </trkpt>
      <trkpt lat="49.82045" lon="4.87017">
        <ele>365</ele>
        <time>2021-08-27T09:00:13.000Z</time>
      </trkpt>
      <trkpt lat="49.82043" lon="4.87012">
        <ele>365</ele>
        <time>2021-08-27T09:00:14.000Z</time>
      </trkpt>
      <trkpt lat="49.8204" lon="4.87006">
        <ele>365</ele>
        <time>2021-08-27T09:00:15.000Z</time>
      </trkpt>
      <trkpt lat="49.82038" lon="4.87001">
        <ele>365</ele>
        <time>2021-08-27T09:00:16.000Z</time>
      </trkpt>
      <trkpt lat="49.82035" lon="4.86996">
        <ele>365</ele>
        <time>2021-08-27T09:00:17.000Z</time>
      </trkpt>
      <trkpt lat="49.82033" lon="4.8699">
        <ele>365</ele>
        <time>2021-08-27T09:00:18.000Z</time>
      </trkpt>
      <trkpt lat="49.8203" lon="4.86983">
        <ele>365</ele>
        <time>2021-08-27T09:00:19.000Z</time>
      </trkpt>
      <trkpt lat="49.82027" lon="4.86977">
        <ele>364</ele>
        <time>2021-08-27T09:00:20.000Z</time>
      </trkpt>
      <trkpt lat="49.82025" lon="4.86972">
        <ele>364</ele>
        <time>2021-08-27T09:00:21.000Z</time>
      </trkpt>
      <trkpt lat="49.82022" lon="4.86967">
        <ele>364</ele>
        <time>2021-08-27T09:00:22.000Z</time>
      </trkpt>
      <trkpt lat="49.82019" lon="4.86962">
        <ele>364</ele>
        <time>2021-08-27T09:00:23.000Z</time>
      </trkpt>
      <trkpt lat="49.82017" lon="4.86957">
        <ele>364</ele>
        <time>2021-08-27T09:00:24.000Z</time>
      </trkpt>
      <trkpt lat="49.82014" lon="4.86952">
        <ele>364</ele>
        <time>2021-08-27T09:00:25.000Z</time>
      </trkpt>
      <trkpt lat="49.82011" lon="4.86946">
        <ele>364</ele>
        <time>2021-08-27T09:00:26.000Z</time>
      </trkpt>
      <trkpt lat="49.82009" lon="4.86941">
        <ele>363</ele>
        <time>2021-08-27T09:00:27.000Z</time>
      </trkpt>
      <trkpt lat="49.82007" lon="4.86934">
        <ele>363</ele>
        <time>2021-08-27T09:00:28.000Z</time>
      </trkpt>
      <trkpt lat="49.82004" lon="4.86928">
        <ele>363</ele>
        <time>2021-08-27T09:00:29.000Z</time>
      </trkpt>
      <trkpt lat="49.82001" lon="4.86921">
        <ele>363</ele>
        <time>2021-08-27T09:00:30.000Z</time>
      </trkpt>
      <trkpt lat="49.81998" lon="4.86914">
        <ele>363</ele>
        <time>2021-08-27T09:00:31.000Z</time>
      </trkpt>
      <trkpt lat="49.81995" lon="4.86908">
        <ele>363</ele>
        <time>2021-08-27T09:00:32.000Z</time>
      </trkpt>
      <trkpt lat="49.81991" lon="4.86901">
        <ele>363</ele>
        <time>2021-08-27T09:00:33.000Z</time>
      </trkpt>
      <trkpt lat="49.81988" lon="4.86895">
        <ele>362</ele>
        <time>2021-08-27T09:00:34.000Z</time>
      </trkpt>
      <trkpt lat="49.81985" lon="4.8689">
        <ele>362</ele>
        <time>2021-08-27T09:00:35.000Z</time>
      </trkpt>
      <trkpt lat="49.81981" lon="4.86884">
        <ele>362</ele>
        <time>2021-08-27T09:00:36.000Z</time>
      </trkpt>
      <trkpt lat="49.81977" lon="4.86878">
        <ele>362</ele>
        <time>2021-08-27T09:00:37.000Z</time>
      </trkpt>
      <trkpt lat="49.81973" lon="4.86872">
        <ele>362</ele>
        <time>2021-08-27T09:00:38.000Z</time>
      </trkpt>
      <trkpt lat="49.8197" lon="4.86865">
        <ele>361</ele>
        <time>2021-08-27T09:00:39.000Z</time>
      </trkpt>
      <trkpt lat="49.81967" lon="4.86859">
        <ele>361</ele>
        <time>2021-08-27T09:00:40.000Z</time>
      </trkpt>
      <trkpt lat="49.81964" lon="4.86852">
        <ele>361</ele>
        <time>2021-08-27T09:00:41.000Z</time>
      </trkpt>
      <trkpt lat="49.8196" lon="4.86846">
        <ele>361</ele>
        <time>2021-08-27T09:00:42.000Z</time>
      </trkpt>
      <trkpt lat="49.81957" lon="4.8684">
        <ele>361</ele>
        <time>2021-08-27T09:00:43.000Z</time>
      </trkpt>
      <trkpt lat="49.81953" lon="4.86833">
        <ele>361</ele>
        <time>2021-08-27T09:00:44.000Z</time>
      </trkpt>
      <trkpt lat="49.81949" lon="4.86826">
        <ele>360</ele>
        <time>2021-08-27T09:00:45.000Z</time>
      </trkpt>
      <trkpt lat="49.81945" lon="4.86819">
        <ele>360</ele>
        <time>2021-08-27T09:00:46.000Z</time>
      </trkpt>
      <trkpt lat="49.81942" lon="4.86812">
        <ele>360</ele>
        <time>2021-08-27T09:00:47.000Z</time>
      </trkpt>
      <trkpt lat="49.81939" lon="4.86805">
        <ele>360</ele>
        <time>2021-08-27T09:00:48.000Z</time>
      </trkpt>
      <trkpt lat="49.81936" lon="4.86798">
        <ele>359</ele>
        <time>2021-08-27T09:00:49.000Z</time>
      </trkpt>
      <trkpt lat="49.81933" lon="4.86791">
        <ele>359</ele>
        <time>2021-08-27T09:00:50.000Z</time>
      </trkpt>
      <trkpt lat="49.81929" lon="4.86785">
        <ele>359</ele>
        <time>2021-08-27T09:00:51.000Z</time>
      </trkpt>
      <trkpt lat="49.81927" lon="4.86779">
        <ele>358</ele>
        <time>2021-08-27T09:00:52.000Z</time>
      </trkpt>
      <trkpt lat="49.81924" lon="4.86773">
        <ele>358</ele>
        <time>2021-08-27T09:00:53.000Z</time>
      </trkpt>
      <trkpt lat="49.81922" lon="4.86767">
        <ele>358</ele>
        <time>2021-08-27T09:00:54.000Z</time>
      </trkpt>
      <trkpt lat="49.81919" lon="4.86762">
        <ele>357</ele>
        <time>2021-08-27T09:00:55.000Z</time>
      </trkpt>
      <trkpt lat="49.81917" lon="4.86757">
        <ele>357</ele>
        <time>2021-08-27T09:00:56.000Z</time>
      </trkpt>
      <trkpt lat="49.81914" lon="4.86752">
        <ele>357</ele>
        <time>2021-08-27T09:00:57.000Z</time>
      </trkpt>
      <trkpt lat="49.81912" lon="4.86747">
        <ele>356</ele>
        <time>2021-08-27T09:00:58.000Z</time>
      </trkpt>
      <trkpt lat="49.8191" lon="4.86742">
        <ele>356</ele>
        <time>2021-08-27T09:00:59.000Z</time>
      </trkpt>
      <trkpt lat="49.81907" lon="4.86736">
        <ele>356</ele>
        <time>2021-08-27T09:01:00.000Z</time>
      </trkpt>
      <trkpt lat="49.81904" lon="4.8673">
        <ele>355</ele>
        <time>2021-08-27T09:01:01.000Z</time>
      </trkpt>
      <trkpt lat="49.81901" lon="4.86724">
        <ele>355</ele>
        <time>2021-08-27T09:01:02.000Z</time>
      </trkpt>
      <trkpt lat="49.81899" lon="4.86718">
        <ele>355</ele>
        <time>2021-08-27T09:01:03.000Z</time>
      </trkpt>
      <trkpt lat="49.81896" lon="4.86713">
        <ele>354</ele>
        <time>2021-08-27T09:01:04.000Z</time>
      </trkpt>
      <trkpt lat="49.81894" lon="4.86706">
        <ele>354</ele>
        <time>2021-08-27T09:01:05.000Z</time>
      </trkpt>
      <trkpt lat="49.81891" lon="4.86701">
        <ele>354</ele>
        <time>2021-08-27T09:01:06.000Z</time>
      </trkpt>
      <trkpt lat="49.81889" lon="4.86697">
        <ele>354</ele>
        <time>2021-08-27T09:01:07.000Z</time>
      </trkpt>
      <trkpt lat="49.81886" lon="4.86693">
        <ele>354</ele>
        <time>2021-08-27T09:01:08.000Z</time>
      </trkpt>
      <trkpt lat="49.81884" lon="4.86689">
        <ele>353</ele>
        <time>2021-08-27T09:01:09.000Z</time>
      </trkpt>
      <trkpt lat="49.81882" lon="4.86686">
        <ele>353</ele>
        <time>2021-08-27T09:01:10.000Z</time>
      </trkpt>
      <trkpt lat="49.81881" lon="4.86682">
        <ele>353</ele>
        <time>2021-08-27T09:01:11.000Z</time>
      </trkpt>
      <trkpt lat="49.81879" lon="4.86678">
        <ele>353</ele>
        <time>2021-08-27T09:01:12.000Z</time>
      </trkpt>
      <trkpt lat="49.81877" lon="4.86674">
        <ele>353</ele>
        <time>2021-08-27T09:01:13.000Z</time>
      </trkpt>
      <trkpt lat="49.81875" lon="4.8667">
        <ele>352</ele>
        <time>2021-08-27T09:01:14.000Z</time>
      </trkpt>
      <trkpt lat="49.81873" lon="4.86666">
        <ele>352</ele>
        <time>2021-08-27T09:01:15.000Z</time>
      </trkpt>
      <trkpt lat="49.81871" lon="4.86663">
        <ele>352</ele>
        <time>2021-08-27T09:01:16.000Z</time>
      </trkpt>
      <trkpt lat="49.8187" lon="4.8666">
        <ele>352</ele>
        <time>2021-08-27T09:01:17.000Z</time>
      </trkpt>
      <trkpt lat="49.81869" lon="4.86656">
        <ele>351</ele>
        <time>2021-08-27T09:01:18.000Z</time>
      </trkpt>
      <trkpt lat="49.81867" lon="4.86652">
        <ele>351</ele>
        <time>2021-08-27T09:01:19.000Z</time>
      </trkpt>
      <trkpt lat="49.81866" lon="4.86648">
        <ele>351</ele>
        <time>2021-08-27T09:01:20.000Z</time>
      </trkpt>
      <trkpt lat="49.81864" lon="4.86644">
        <ele>351</ele>
        <time>2021-08-27T09:01:21.000Z</time>
      </trkpt>
      <trkpt lat="49.81862" lon="4.8664">
        <ele>351</ele>
        <time>2021-08-27T09:01:22.000Z</time>
      </trkpt>
      <trkpt lat="49.81861" lon="4.86636">
        <ele>350</ele>
        <time>2021-08-27T09:01:23.000Z</time>
      </trkpt>
      <trkpt lat="49.8186" lon="4.86632">
        <ele>350</ele>
        <time>2021-08-27T09:01:24.000Z</time>
      </trkpt>
      <trkpt lat="49.81858" lon="4.86628">
        <ele>350</ele>
        <time>2021-08-27T09:01:25.000Z</time>
      </trkpt>
      <trkpt lat="49.81856" lon="4.86624">
        <ele>350</ele>
        <time>2021-08-27T09:01:26.000Z</time>
      </trkpt>
      <trkpt lat="49.81854" lon="4.8662">
        <ele>350</ele>
        <time>2021-08-27T09:01:27.000Z</time>
      </trkpt>
      <trkpt lat="49.81852" lon="4.86616">
        <ele>349</ele>
        <time>2021-08-27T09:01:28.000Z</time>
      </trkpt>
      <trkpt lat="49.81851" lon="4.86612">
        <ele>349</ele>
        <time>2021-08-27T09:01:29.000Z</time>
      </trkpt>
      <trkpt lat="49.81848" lon="4.86607">
        <ele>349</ele>
        <time>2021-08-27T09:01:30.000Z</time>
      </trkpt>
      <trkpt lat="49.81846" lon="4.86603">
        <ele>349</ele>
        <time>2021-08-27T09:01:31.000Z</time>
      </trkpt>
      <trkpt lat="49.81843" lon="4.86598">
        <ele>349</ele>
        <time>2021-08-27T09:01:32.000Z</time>
      </trkpt>
      <trkpt lat="49.81841" lon="4.86594">
        <ele>349</ele>
        <time>2021-08-27T09:01:33.000Z</time>
      </trkpt>
      <trkpt lat="49.81838" lon="4.86588">
        <ele>349</ele>
        <time>2021-08-27T09:01:34.000Z</time>
      </trkpt>
      <trkpt lat="49.81837" lon="4.86584">
        <ele>349</ele>
        <time>2021-08-27T09:01:35.000Z</time>
      </trkpt>
      <trkpt lat="49.81834" lon="4.8658">
        <ele>349</ele>
        <time>2021-08-27T09:01:36.000Z</time>
      </trkpt>
      <trkpt lat="49.81832" lon="4.86578">
        <ele>349</ele>
        <time>2021-08-27T09:01:37.000Z</time>
      </trkpt>
      <trkpt lat="49.8183" lon="4.86574">
        <ele>349</ele>
        <time>2021-08-27T09:01:38.000Z</time>
      </trkpt>
      <trkpt lat="49.81829" lon="4.86571">
        <ele>349</ele>
        <time>2021-08-27T09:01:39.000Z</time>
      </trkpt>
      <trkpt lat="49.81828" lon="4.86567">
        <ele>349</ele>
        <time>2021-08-27T09:01:40.000Z</time>
      </trkpt>
      <trkpt lat="49.81827" lon="4.86564">
        <ele>349</ele>
        <time>2021-08-27T09:01:41.000Z</time>
      </trkpt>
      <trkpt lat="49.81825" lon="4.8656">
        <ele>348</ele>
        <time>2021-08-27T09:01:42.000Z</time>
      </trkpt>
      <trkpt lat="49.81823" lon="4.86555">
        <ele>348</ele>
        <time>2021-08-27T09:01:43.000Z</time>
      </trkpt>
      <trkpt lat="49.8182" lon="4.8655">
        <ele>348</ele>
        <time>2021-08-27T09:01:44.000Z</time>
      </trkpt>
      <trkpt lat="49.81818" lon="4.86545">
        <ele>348</ele>
        <time>2021-08-27T09:01:45.000Z</time>
      </trkpt>
      <trkpt lat="49.81815" lon="4.8654">
        <ele>348</ele>
        <time>2021-08-27T09:01:46.000Z</time>
      </trkpt>
      <trkpt lat="49.81813" lon="4.86535">
        <ele>348</ele>
        <time>2021-08-27T09:01:47.000Z</time>
      </trkpt>
      <trkpt lat="49.8181" lon="4.86531">
        <ele>348</ele>
        <time>2021-08-27T09:01:48.000Z</time>
      </trkpt>
      <trkpt lat="49.81808" lon="4.86527">
        <ele>348</ele>
        <time>2021-08-27T09:01:49.000Z</time>
      </trkpt>
      <trkpt lat="49.81806" lon="4.86523">
        <ele>348</ele>
        <time>2021-08-27T09:01:50.000Z</time>
      </trkpt>
      <trkpt lat="49.81804" lon="4.86518">
        <ele>348</ele>
        <time>2021-08-27T09:01:51.000Z</time>
      </trkpt>
      <trkpt lat="49.81802" lon="4.86514">
        <ele>348</ele>
        <time>2021-08-27T09:01:52.000Z</time>
      </trkpt>
      <trkpt lat="49.818" lon="4.8651">
        <ele>348</ele>
        <time>2021-08-27T09:01:53.000Z</time>
      </trkpt>
      <trkpt lat="49.81798" lon="4.86506">
        <ele>348</ele>
        <time>2021-08-27T09:01:54.000Z</time>
      </trkpt>
      <trkpt lat="49.81796" lon="4.86502">
        <ele>347</ele>
        <time>2021-08-27T09:01:55.000Z</time>
      </trkpt>
      <trkpt lat="49.81793" lon="4.86498">
        <ele>347</ele>
        <time>2021-08-27T09:01:56.000Z</time>
      </trkpt>
      <trkpt lat="49.81791" lon="4.86493">
        <ele>347</ele>
        <time>2021-08-27T09:01:57.000Z</time>
      </trkpt>
      <trkpt lat="49.81788" lon="4.86488">
        <ele>347</ele>
        <time>2021-08-27T09:01:58.000Z</time>
      </trkpt>
      <trkpt lat="49.81785" lon="4.86483">
        <ele>347</ele>
        <time>2021-08-27T09:01:59.000Z</time>
      </trkpt>
      <trkpt lat="49.81782" lon="4.86477">
        <ele>347</ele>
        <time>2021-08-27T09:02:00.000Z</time>
      </trkpt>
      <trkpt lat="49.81779" lon="4.86471">
        <ele>347</ele>
        <time>2021-08-27T09:02:01.000Z</time>
      </trkpt>
      <trkpt lat="49.81776" lon="4.86464">
        <ele>346</ele>
        <time>2021-08-27T09:02:02.000Z</time>
      </trkpt>
      <trkpt lat="49.81773" lon="4.86458">
        <ele>346</ele>
        <time>2021-08-27T09:02:03.000Z</time>
      </trkpt>
      <trkpt lat="49.81771" lon="4.86451">
        <ele>346</ele>
        <time>2021-08-27T09:02:04.000Z</time>
      </trkpt>
      <trkpt lat="49.81768" lon="4.86445">
        <ele>346</ele>
        <time>2021-08-27T09:02:05.000Z</time>
      </trkpt>
      <trkpt lat="49.81766" lon="4.86439">
        <ele>346</ele>
        <time>2021-08-27T09:02:06.000Z</time>
      </trkpt>
      <trkpt lat="49.81764" lon="4.86434">
        <ele>346</ele>
        <time>2021-08-27T09:02:07.000Z</time>
      </trkpt>
      <trkpt lat="49.81761" lon="4.86429">
        <ele>346</ele>
        <time>2021-08-27T09:02:08.000Z</time>
      </trkpt>
      <trkpt lat="49.81759" lon="4.86424">
        <ele>346</ele>
        <time>2021-08-27T09:02:09.000Z</time>
      </trkpt>
      <trkpt lat="49.81757" lon="4.86419">
        <ele>346</ele>
        <time>2021-08-27T09:02:10.000Z</time>
      </trkpt>
      <trkpt lat="49.81755" lon="4.86414">
        <ele>346</ele>
        <time>2021-08-27T09:02:11.000Z</time>
      </trkpt>
      <trkpt lat="49.81752" lon="4.86408">
        <ele>346</ele>
        <time>2021-08-27T09:02:12.000Z</time>
      </trkpt>
      <trkpt lat="49.81749" lon="4.86401">
        <ele>346</ele>
        <time>2021-08-27T09:02:13.000Z</time>
      </trkpt>
      <trkpt lat="49.81746" lon="4.86395">
        <ele>345</ele>
        <time>2021-08-27T09:02:14.000Z</time>
      </trkpt>
      <trkpt lat="49.81743" lon="4.86388">
        <ele>345</ele>
        <time>2021-08-27T09:02:15.000Z</time>
      </trkpt>
      <trkpt lat="49.8174" lon="4.86381">
        <ele>345</ele>
        <time>2021-08-27T09:02:16.000Z</time>
      </trkpt>
      <trkpt lat="49.81737" lon="4.86374">
        <ele>345</ele>
        <time>2021-08-27T09:02:17.000Z</time>
      </trkpt>
      <trkpt lat="49.81734" lon="4.86367">
        <ele>345</ele>
        <time>2021-08-27T09:02:18.000Z</time>
      </trkpt>
      <trkpt lat="49.81731" lon="4.86361">
        <ele>345</ele>
        <time>2021-08-27T09:02:19.000Z</time>
      </trkpt>
      <trkpt lat="49.81728" lon="4.86356">
        <ele>344</ele>
        <time>2021-08-27T09:02:20.000Z</time>
      </trkpt>
      <trkpt lat="49.81725" lon="4.8635">
        <ele>344</ele>
        <time>2021-08-27T09:02:21.000Z</time>
      </trkpt>
      <trkpt lat="49.81722" lon="4.86344">
        <ele>344</ele>
        <time>2021-08-27T09:02:22.000Z</time>
      </trkpt>
      <trkpt lat="49.8172" lon="4.8634">
        <ele>344</ele>
        <time>2021-08-27T09:02:23.000Z</time>
      </trkpt>
      <trkpt lat="49.81717" lon="4.86336">
        <ele>343</ele>
        <time>2021-08-27T09:02:24.000Z</time>
      </trkpt>
      <trkpt lat="49.81714" lon="4.86333">
        <ele>343</ele>
        <time>2021-08-27T09:02:25.000Z</time>
      </trkpt>
      <trkpt lat="49.81712" lon="4.86331">
        <ele>343</ele>
        <time>2021-08-27T09:02:26.000Z</time>
      </trkpt>
      <trkpt lat="49.8171" lon="4.86327">
        <ele>343</ele>
        <time>2021-08-27T09:02:27.000Z</time>
      </trkpt>
      <trkpt lat="49.8171" lon="4.86324">
        <ele>342</ele>
        <time>2021-08-27T09:02:28.000Z</time>
      </trkpt>
      <trkpt lat="49.8171" lon="4.86321">
        <ele>342</ele>
        <time>2021-08-27T09:02:29.000Z</time>
      </trkpt>
      <trkpt lat="49.81711" lon="4.86319">
        <ele>342</ele>
        <time>2021-08-27T09:02:30.000Z</time>
      </trkpt>
      <trkpt lat="49.81712" lon="4.86317">
        <ele>342</ele>
        <time>2021-08-27T09:02:31.000Z</time>
      </trkpt>
      <trkpt lat="49.81712" lon="4.86316">
        <ele>341</ele>
        <time>2021-08-27T09:02:32.000Z</time>
      </trkpt>
      <trkpt lat="49.81712" lon="4.86315">
        <ele>341</ele>
        <time>2021-08-27T09:02:33.000Z</time>
      </trkpt>
      <trkpt lat="49.81713" lon="4.86313">
        <ele>341</ele>
        <time>2021-08-27T09:02:34.000Z</time>
      </trkpt>
      <trkpt lat="49.81714" lon="4.86312">
        <ele>341</ele>
        <time>2021-08-27T09:02:35.000Z</time>
      </trkpt>
      <trkpt lat="49.81715" lon="4.8631">
        <ele>341</ele>
        <time>2021-08-27T09:02:36.000Z</time>
      </trkpt>
      <trkpt lat="49.81716" lon="4.86308">
        <ele>341</ele>
        <time>2021-08-27T09:02:37.000Z</time>
      </trkpt>
      <trkpt lat="49.81717" lon="4.86307">
        <ele>341</ele>
        <time>2021-08-27T09:02:38.000Z</time>
      </trkpt>
      <trkpt lat="49.81717" lon="4.86306">
        <ele>341</ele>
        <time>2021-08-27T09:02:39.000Z</time>
      </trkpt>
      <trkpt lat="49.81718" lon="4.86305">
        <ele>340</ele>
        <time>2021-08-27T09:02:40.000Z</time>
      </trkpt>
      <trkpt lat="49.81719" lon="4.86303">
        <ele>340</ele>
        <time>2021-08-27T09:02:41.000Z</time>
      </trkpt>
      <trkpt lat="49.81721" lon="4.86301">
        <ele>340</ele>
        <time>2021-08-27T09:02:42.000Z</time>
      </trkpt>
      <trkpt lat="49.81722" lon="4.863">
        <ele>340</ele>
        <time>2021-08-27T09:02:43.000Z</time>
      </trkpt>
      <trkpt lat="49.81724" lon="4.86299">
        <ele>340</ele>
        <time>2021-08-27T09:02:44.000Z</time>
      </trkpt>
      <trkpt lat="49.81725" lon="4.86298">
        <ele>340</ele>
        <time>2021-08-27T09:02:45.000Z</time>
      </trkpt>
      <trkpt lat="49.81726" lon="4.86297">
        <ele>340</ele>
        <time>2021-08-27T09:02:46.000Z</time>
      </trkpt>
      <trkpt lat="49.81728" lon="4.86295">
        <ele>340</ele>
        <time>2021-08-27T09:02:47.000Z</time>
      </trkpt>
      <trkpt lat="49.81729" lon="4.86293">
        <ele>340</ele>
        <time>2021-08-27T09:02:48.000Z</time>
      </trkpt>
      <trkpt lat="49.81731" lon="4.86291">
        <ele>340</ele>
        <time>2021-08-27T09:02:49.000Z</time>
      </trkpt>
      <trkpt lat="49.81733" lon="4.86288">
        <ele>340</ele>
        <time>2021-08-27T09:02:50.000Z</time>
      </trkpt>
      <trkpt lat="49.81735" lon="4.86285">
        <ele>340</ele>
        <time>2021-08-27T09:02:51.000Z</time>
      </trkpt>
      <trkpt lat="49.81736" lon="4.86283">
        <ele>340</ele>
        <time>2021-08-27T09:02:52.000Z</time>
      </trkpt>
      <trkpt lat="49.81738" lon="4.86281">
        <ele>340</ele>
        <time>2021-08-27T09:02:53.000Z</time>
      </trkpt>
      <trkpt lat="49.81741" lon="4.86278">
        <ele>340</ele>
        <time>2021-08-27T09:02:54.000Z</time>
      </trkpt>
      <trkpt lat="49.81744" lon="4.86275">
        <ele>340</ele>
        <time>2021-08-27T09:02:55.000Z</time>
      </trkpt>
      <trkpt lat="49.81747" lon="4.86272">
        <ele>340</ele>
        <time>2021-08-27T09:02:56.000Z</time>
      </trkpt>
      <trkpt lat="49.81751" lon="4.86268">
        <ele>340</ele>
        <time>2021-08-27T09:02:57.000Z</time>
      </trkpt>
      <trkpt lat="49.81754" lon="4.86264">
        <ele>340</ele>
        <time>2021-08-27T09:02:58.000Z</time>
      </trkpt>
      <trkpt lat="49.81758" lon="4.8626">
        <ele>340</ele>
        <time>2021-08-27T09:02:59.000Z</time>
      </trkpt>
      <trkpt lat="49.81762" lon="4.86256">
        <ele>340</ele>
        <time>2021-08-27T09:03:00.000Z</time>
      </trkpt>
      <trkpt lat="49.81766" lon="4.86253">
        <ele>340</ele>
        <time>2021-08-27T09:03:01.000Z</time>
      </trkpt>
      <trkpt lat="49.8177" lon="4.86249">
        <ele>340</ele>
        <time>2021-08-27T09:03:02.000Z</time>
      </trkpt>
      <trkpt lat="49.81774" lon="4.86245">
        <ele>340</ele>
        <time>2021-08-27T09:03:03.000Z</time>
      </trkpt>
      <trkpt lat="49.81779" lon="4.8624">
        <ele>340</ele>
        <time>2021-08-27T09:03:04.000Z</time>
      </trkpt>
      <trkpt lat="49.81783" lon="4.86236">
        <ele>340</ele>
        <time>2021-08-27T09:03:05.000Z</time>
      </trkpt>
      <trkpt lat="49.81788" lon="4.86232">
        <ele>340</ele>
        <time>2021-08-27T09:03:06.000Z</time>
      </trkpt>
      <trkpt lat="49.81792" lon="4.86227">
        <ele>340</ele>
        <time>2021-08-27T09:03:07.000Z</time>
      </trkpt>
      <trkpt lat="49.81797" lon="4.86223">
        <ele>340</ele>
        <time>2021-08-27T09:03:08.000Z</time>
      </trkpt>
      <trkpt lat="49.818" lon="4.8622">
        <ele>340</ele>
        <time>2021-08-27T09:03:09.000Z</time>
      </trkpt>
      <trkpt lat="49.81804" lon="4.86215">
        <ele>340</ele>
        <time>2021-08-27T09:03:10.000Z</time>
      </trkpt>
      <trkpt lat="49.81809" lon="4.86211">
        <ele>339</ele>
        <time>2021-08-27T09:03:11.000Z</time>
      </trkpt>
      <trkpt lat="49.81814" lon="4.86207">
        <ele>339</ele>
        <time>2021-08-27T09:03:12.000Z</time>
      </trkpt>
      <trkpt lat="49.8182" lon="4.86202">
        <ele>339</ele>
        <time>2021-08-27T09:03:13.000Z</time>
      </trkpt>
      <trkpt lat="49.81825" lon="4.86196">
        <ele>339</ele>
        <time>2021-08-27T09:03:14.000Z</time>
      </trkpt>
      <trkpt lat="49.8183" lon="4.86191">
        <ele>338</ele>
        <time>2021-08-27T09:03:15.000Z</time>
      </trkpt>
      <trkpt lat="49.81835" lon="4.86186">
        <ele>338</ele>
        <time>2021-08-27T09:03:16.000Z</time>
      </trkpt>
      <trkpt lat="49.8184" lon="4.86181">
        <ele>337</ele>
        <time>2021-08-27T09:03:17.000Z</time>
      </trkpt>
      <trkpt lat="49.81845" lon="4.86177">
        <ele>337</ele>
        <time>2021-08-27T09:03:18.000Z</time>
      </trkpt>
      <trkpt lat="49.8185" lon="4.86171">
        <ele>336</ele>
        <time>2021-08-27T09:03:19.000Z</time>
      </trkpt>
      <trkpt lat="49.81855" lon="4.86166">
        <ele>335</ele>
        <time>2021-08-27T09:03:20.000Z</time>
      </trkpt>
      <trkpt lat="49.81859" lon="4.86161">
        <ele>334</ele>
        <time>2021-08-27T09:03:21.000Z</time>
      </trkpt>
      <trkpt lat="49.81863" lon="4.86156">
        <ele>334</ele>
        <time>2021-08-27T09:03:22.000Z</time>
      </trkpt>
      <trkpt lat="49.81866" lon="4.86151">
        <ele>333</ele>
        <time>2021-08-27T09:03:23.000Z</time>
      </trkpt>
      <trkpt lat="49.81869" lon="4.86145">
        <ele>332</ele>
        <time>2021-08-27T09:03:24.000Z</time>
      </trkpt>
      <trkpt lat="49.81873" lon="4.86139">
        <ele>332</ele>
        <time>2021-08-27T09:03:25.000Z</time>
      </trkpt>
      <trkpt lat="49.81878" lon="4.86134">
        <ele>331</ele>
        <time>2021-08-27T09:03:26.000Z</time>
      </trkpt>
      <trkpt lat="49.81882" lon="4.86129">
        <ele>330</ele>
        <time>2021-08-27T09:03:27.000Z</time>
      </trkpt>
      <trkpt lat="49.81886" lon="4.86123">
        <ele>329</ele>
        <time>2021-08-27T09:03:28.000Z</time>
      </trkpt>
      <trkpt lat="49.8189" lon="4.86119">
        <ele>328</ele>
        <time>2021-08-27T09:03:29.000Z</time>
      </trkpt>
      <trkpt lat="49.81895" lon="4.86114">
        <ele>327</ele>
        <time>2021-08-27T09:03:30.000Z</time>
      </trkpt>
      <trkpt lat="49.819" lon="4.86108">
        <ele>326</ele>
        <time>2021-08-27T09:03:31.000Z</time>
      </trkpt>
      <trkpt lat="49.81905" lon="4.86103">
        <ele>326</ele>
        <time>2021-08-27T09:03:32.000Z</time>
      </trkpt>
      <trkpt lat="49.81909" lon="4.86098">
        <ele>325</ele>
        <time>2021-08-27T09:03:33.000Z</time>
      </trkpt>
      <trkpt lat="49.81913" lon="4.86093">
        <ele>324</ele>
        <time>2021-08-27T09:03:34.000Z</time>
      </trkpt>
      <trkpt lat="49.81917" lon="4.86088">
        <ele>323</ele>
        <time>2021-08-27T09:03:35.000Z</time>
      </trkpt>
      <trkpt lat="49.81921" lon="4.86083">
        <ele>322</ele>
        <time>2021-08-27T09:03:36.000Z</time>
      </trkpt>
      <trkpt lat="49.81925" lon="4.86077">
        <ele>321</ele>
        <time>2021-08-27T09:03:37.000Z</time>
      </trkpt>
      <trkpt lat="49.81929" lon="4.86072">
        <ele>320</ele>
        <time>2021-08-27T09:03:38.000Z</time>
      </trkpt>
      <trkpt lat="49.81933" lon="4.86068">
        <ele>319</ele>
        <time>2021-08-27T09:03:39.000Z</time>
      </trkpt>
      <trkpt lat="49.81936" lon="4.86063">
        <ele>318</ele>
        <time>2021-08-27T09:03:40.000Z</time>
      </trkpt>
      <trkpt lat="49.81939" lon="4.8606">
        <ele>317</ele>
        <time>2021-08-27T09:03:41.000Z</time>
      </trkpt>
      <trkpt lat="49.81942" lon="4.86056">
        <ele>316</ele>
        <time>2021-08-27T09:03:42.000Z</time>
      </trkpt>
      <trkpt lat="49.81945" lon="4.86053">
        <ele>316</ele>
        <time>2021-08-27T09:03:43.000Z</time>
      </trkpt>
      <trkpt lat="49.81948" lon="4.8605">
        <ele>315</ele>
        <time>2021-08-27T09:03:44.000Z</time>
      </trkpt>
      <trkpt lat="49.81952" lon="4.86046">
        <ele>314</ele>
        <time>2021-08-27T09:03:45.000Z</time>
      </trkpt>
      <trkpt lat="49.81955" lon="4.86043">
        <ele>313</ele>
        <time>2021-08-27T09:03:46.000Z</time>
      </trkpt>
      <trkpt lat="49.81958" lon="4.8604">
        <ele>312</ele>
        <time>2021-08-27T09:03:47.000Z</time>
      </trkpt>
      <trkpt lat="49.81961" lon="4.86036">
        <ele>311</ele>
        <time>2021-08-27T09:03:48.000Z</time>
      </trkpt>
      <trkpt lat="49.81962" lon="4.86034">
        <ele>310</ele>
        <time>2021-08-27T09:03:49.000Z</time>
      </trkpt>
      <trkpt lat="49.81965" lon="4.8603">
        <ele>309</ele>
        <time>2021-08-27T09:03:50.000Z</time>
      </trkpt>
      <trkpt lat="49.81967" lon="4.86027">
        <ele>308</ele>
        <time>2021-08-27T09:03:51.000Z</time>
      </trkpt>
      <trkpt lat="49.81969" lon="4.86024">
        <ele>307</ele>
        <time>2021-08-27T09:03:52.000Z</time>
      </trkpt>
      <trkpt lat="49.81971" lon="4.86019">
        <ele>306</ele>
        <time>2021-08-27T09:03:53.000Z</time>
      </trkpt>
      <trkpt lat="49.81973" lon="4.86015">
        <ele>305</ele>
        <time>2021-08-27T09:03:54.000Z</time>
      </trkpt>
      <trkpt lat="49.81975" lon="4.86012">
        <ele>304</ele>
        <time>2021-08-27T09:03:55.000Z</time>
      </trkpt>
      <trkpt lat="49.81976" lon="4.86009">
        <ele>303</ele>
        <time>2021-08-27T09:03:56.000Z</time>
      </trkpt>
      <trkpt lat="49.81978" lon="4.86007">
        <ele>302</ele>
        <time>2021-08-27T09:03:57.000Z</time>
      </trkpt>
      <trkpt lat="49.81979" lon="4.86004">
        <ele>302</ele>
        <time>2021-08-27T09:03:58.000Z</time>
      </trkpt>
      <trkpt lat="49.81979" lon="4.86003">
        <ele>301</ele>
        <time>2021-08-27T09:03:59.000Z</time>
      </trkpt>
      <trkpt lat="49.8198" lon="4.86002">
        <ele>300</ele>
        <time>2021-08-27T09:04:00.000Z</time>
      </trkpt>
      <trkpt lat="49.81981" lon="4.86">
        <ele>299</ele>
        <time>2021-08-27T09:04:01.000Z</time>
      </trkpt>
      <trkpt lat="49.81982" lon="4.85998">
        <ele>298</ele>
        <time>2021-08-27T09:04:02.000Z</time>
      </trkpt>
      <trkpt lat="49.81984" lon="4.85995">
        <ele>297</ele>
        <time>2021-08-27T09:04:03.000Z</time>
      </trkpt>
      <trkpt lat="49.81987" lon="4.85991">
        <ele>296</ele>
        <time>2021-08-27T09:04:04.000Z</time>
      </trkpt>
      <trkpt lat="49.81991" lon="4.85985">
        <ele>296</ele>
        <time>2021-08-27T09:04:05.000Z</time>
      </trkpt>
      <trkpt lat="49.81996" lon="4.8598">
        <ele>295</ele>
        <time>2021-08-27T09:04:06.000Z</time>
      </trkpt>
      <trkpt lat="49.82001" lon="4.85974">
        <ele>294</ele>
        <time>2021-08-27T09:04:07.000Z</time>
      </trkpt>
      <trkpt lat="49.82007" lon="4.85969">
        <ele>293</ele>
        <time>2021-08-27T09:04:08.000Z</time>
      </trkpt>
      <trkpt lat="49.82013" lon="4.85966">
        <ele>292</ele>
        <time>2021-08-27T09:04:09.000Z</time>
      </trkpt>
      <trkpt lat="49.82018" lon="4.85963">
        <ele>291</ele>
        <time>2021-08-27T09:04:10.000Z</time>
      </trkpt>
      <trkpt lat="49.82023" lon="4.85959">
        <ele>290</ele>
        <time>2021-08-27T09:04:11.000Z</time>
      </trkpt>
      <trkpt lat="49.82027" lon="4.85955">
        <ele>290</ele>
        <time>2021-08-27T09:04:12.000Z</time>
      </trkpt>
      <trkpt lat="49.82029" lon="4.85951">
        <ele>289</ele>
        <time>2021-08-27T09:04:13.000Z</time>
      </trkpt>
      <trkpt lat="49.82032" lon="4.85949">
        <ele>288</ele>
        <time>2021-08-27T09:04:14.000Z</time>
      </trkpt>
      <trkpt lat="49.82035" lon="4.85946">
        <ele>287</ele>
        <time>2021-08-27T09:04:15.000Z</time>
      </trkpt>
      <trkpt lat="49.82038" lon="4.85942">
        <ele>287</ele>
        <time>2021-08-27T09:04:16.000Z</time>
      </trkpt>
      <trkpt lat="49.82039" lon="4.85939">
        <ele>286</ele>
        <time>2021-08-27T09:04:17.000Z</time>
      </trkpt>
      <trkpt lat="49.8204" lon="4.85937">
        <ele>285</ele>
        <time>2021-08-27T09:04:18.000Z</time>
      </trkpt>
      <trkpt lat="49.8204" lon="4.85935">
        <ele>285</ele>
        <time>2021-08-27T09:04:19.000Z</time>
      </trkpt>
      <trkpt lat="49.82041" lon="4.85933">
        <ele>284</ele>
        <time>2021-08-27T09:04:20.000Z</time>
      </trkpt>
      <trkpt lat="49.8204" lon="4.85932">
        <ele>283</ele>
        <time>2021-08-27T09:04:21.000Z</time>
      </trkpt>
      <trkpt lat="49.82039" lon="4.85931">
        <ele>283</ele>
        <time>2021-08-27T09:04:22.000Z</time>
      </trkpt>
      <trkpt lat="49.82037" lon="4.85929">
        <ele>282</ele>
        <time>2021-08-27T09:04:23.000Z</time>
      </trkpt>
      <trkpt lat="49.82035" lon="4.85927">
        <ele>281</ele>
        <time>2021-08-27T09:04:24.000Z</time>
      </trkpt>
      <trkpt lat="49.82033" lon="4.85924">
        <ele>281</ele>
        <time>2021-08-27T09:04:25.000Z</time>
      </trkpt>
      <trkpt lat="49.82031" lon="4.8592">
        <ele>280</ele>
        <time>2021-08-27T09:04:26.000Z</time>
      </trkpt>
      <trkpt lat="49.82027" lon="4.85916">
        <ele>279</ele>
        <time>2021-08-27T09:04:27.000Z</time>
      </trkpt>
      <trkpt lat="49.82024" lon="4.85913">
        <ele>278</ele>
        <time>2021-08-27T09:04:28.000Z</time>
      </trkpt>
      <trkpt lat="49.82021" lon="4.85909">
        <ele>278</ele>
        <time>2021-08-27T09:04:29.000Z</time>
      </trkpt>
      <trkpt lat="49.82017" lon="4.85905">
        <ele>277</ele>
        <time>2021-08-27T09:04:30.000Z</time>
      </trkpt>
      <trkpt lat="49.82013" lon="4.85901">
        <ele>276</ele>
        <time>2021-08-27T09:04:31.000Z</time>
      </trkpt>
      <trkpt lat="49.82009" lon="4.85898">
        <ele>276</ele>
        <time>2021-08-27T09:04:32.000Z</time>
      </trkpt>
      <trkpt lat="49.82004" lon="4.85894">
        <ele>275</ele>
        <time>2021-08-27T09:04:33.000Z</time>
      </trkpt>
      <trkpt lat="49.82" lon="4.85891">
        <ele>275</ele>
        <time>2021-08-27T09:04:34.000Z</time>
      </trkpt>
      <trkpt lat="49.81997" lon="4.85887">
        <ele>274</ele>
        <time>2021-08-27T09:04:35.000Z</time>
      </trkpt>
      <trkpt lat="49.81993" lon="4.85884">
        <ele>274</ele>
        <time>2021-08-27T09:04:36.000Z</time>
      </trkpt>
      <trkpt lat="49.8199" lon="4.85882">
        <ele>273</ele>
        <time>2021-08-27T09:04:37.000Z</time>
      </trkpt>
      <trkpt lat="49.81988" lon="4.85879">
        <ele>272</ele>
        <time>2021-08-27T09:04:38.000Z</time>
      </trkpt>
      <trkpt lat="49.81986" lon="4.85877">
        <ele>272</ele>
        <time>2021-08-27T09:04:39.000Z</time>
      </trkpt>
      <trkpt lat="49.81985" lon="4.85876">
        <ele>271</ele>
        <time>2021-08-27T09:04:40.000Z</time>
      </trkpt>
      <trkpt lat="49.81985" lon="4.85875">
        <ele>271</ele>
        <time>2021-08-27T09:04:41.000Z</time>
      </trkpt>
      <trkpt lat="49.81984" lon="4.85873">
        <ele>270</ele>
        <time>2021-08-27T09:04:42.000Z</time>
      </trkpt>
      <trkpt lat="49.81984" lon="4.85872">
        <ele>269</ele>
        <time>2021-08-27T09:04:43.000Z</time>
      </trkpt>
      <trkpt lat="49.81983" lon="4.85871">
        <ele>269</ele>
        <time>2021-08-27T09:04:44.000Z</time>
      </trkpt>
      <trkpt lat="49.81983" lon="4.85872">
        <ele>268</ele>
        <time>2021-08-27T09:04:45.000Z</time>
      </trkpt>
      <trkpt lat="49.81982" lon="4.85872">
        <ele>268</ele>
        <time>2021-08-27T09:04:46.000Z</time>
      </trkpt>
      <trkpt lat="49.81981" lon="4.85872">
        <ele>268</ele>
        <time>2021-08-27T09:04:47.000Z</time>
      </trkpt>
      <trkpt lat="49.81979" lon="4.85871">
        <ele>267</ele>
        <time>2021-08-27T09:04:48.000Z</time>
      </trkpt>
      <trkpt lat="49.81978" lon="4.85871">
        <ele>267</ele>
        <time>2021-08-27T09:04:49.000Z</time>
      </trkpt>
      <trkpt lat="49.81977" lon="4.85871">
        <ele>266</ele>
        <time>2021-08-27T09:04:50.000Z</time>
      </trkpt>
      <trkpt lat="49.81976" lon="4.85871">
        <ele>266</ele>
        <time>2021-08-27T09:04:51.000Z</time>
      </trkpt>
      <trkpt lat="49.81975" lon="4.85871">
        <ele>265</ele>
        <time>2021-08-27T09:04:52.000Z</time>
      </trkpt>
      <trkpt lat="49.81974" lon="4.8587">
        <ele>265</ele>
        <time>2021-08-27T09:04:53.000Z</time>
      </trkpt>
      <trkpt lat="49.81973" lon="4.85869">
        <ele>264</ele>
        <time>2021-08-27T09:04:54.000Z</time>
      </trkpt>
      <trkpt lat="49.81972" lon="4.85869">
        <ele>264</ele>
        <time>2021-08-27T09:04:55.000Z</time>
      </trkpt>
      <trkpt lat="49.8197" lon="4.85868">
        <ele>264</ele>
        <time>2021-08-27T09:04:56.000Z</time>
      </trkpt>
      <trkpt lat="49.81968" lon="4.85868">
        <ele>263</ele>
        <time>2021-08-27T09:04:57.000Z</time>
      </trkpt>
      <trkpt lat="49.81966" lon="4.85867">
        <ele>263</ele>
        <time>2021-08-27T09:04:58.000Z</time>
      </trkpt>
      <trkpt lat="49.81964" lon="4.85866">
        <ele>262</ele>
        <time>2021-08-27T09:04:59.000Z</time>
      </trkpt>
      <trkpt lat="49.81961" lon="4.85866">
        <ele>262</ele>
        <time>2021-08-27T09:05:00.000Z</time>
      </trkpt>
      <trkpt lat="49.8196" lon="4.85867">
        <ele>262</ele>
        <time>2021-08-27T09:05:01.000Z</time>
      </trkpt>
      <trkpt lat="49.81958" lon="4.85867">
        <ele>261</ele>
        <time>2021-08-27T09:05:02.000Z</time>
      </trkpt>
      <trkpt lat="49.81955" lon="4.85868">
        <ele>261</ele>
        <time>2021-08-27T09:05:03.000Z</time>
      </trkpt>
      <trkpt lat="49.81954" lon="4.8587">
        <ele>261</ele>
        <time>2021-08-27T09:05:04.000Z</time>
      </trkpt>
      <trkpt lat="49.81953" lon="4.85871">
        <ele>261</ele>
        <time>2021-08-27T09:05:05.000Z</time>
      </trkpt>
      <trkpt lat="49.81952" lon="4.85873">
        <ele>261</ele>
        <time>2021-08-27T09:05:06.000Z</time>
      </trkpt>
      <trkpt lat="49.81951" lon="4.85874">
        <ele>260</ele>
        <time>2021-08-27T09:05:07.000Z</time>
      </trkpt>
      <trkpt lat="49.8195" lon="4.85875">
        <ele>260</ele>
        <time>2021-08-27T09:05:08.000Z</time>
      </trkpt>
      <trkpt lat="49.81949" lon="4.85875">
        <ele>260</ele>
        <time>2021-08-27T09:05:09.000Z</time>
      </trkpt>
      <trkpt lat="49.81948" lon="4.85876">
        <ele>260</ele>
        <time>2021-08-27T09:05:10.000Z</time>
      </trkpt>
      <trkpt lat="49.81947" lon="4.85875">
        <ele>260</ele>
        <time>2021-08-27T09:05:11.000Z</time>
      </trkpt>
      <trkpt lat="49.81946" lon="4.85875">
        <ele>260</ele>
        <time>2021-08-27T09:05:12.000Z</time>
      </trkpt>
      <trkpt lat="49.81946" lon="4.85875">
        <ele>260</ele>
        <time>2021-08-27T09:05:13.000Z</time>
      </trkpt>
      <trkpt lat="49.81944" lon="4.85873">
        <ele>260</ele>
        <time>2021-08-27T09:05:14.000Z</time>
      </trkpt>
      <trkpt lat="49.81943" lon="4.85872">
        <ele>260</ele>
        <time>2021-08-27T09:05:15.000Z</time>
      </trkpt>
      <trkpt lat="49.81941" lon="4.8587">
        <ele>259</ele>
        <time>2021-08-27T09:05:16.000Z</time>
      </trkpt>
      <trkpt lat="49.81938" lon="4.85868">
        <ele>259</ele>
        <time>2021-08-27T09:05:17.000Z</time>
      </trkpt>
      <trkpt lat="49.81936" lon="4.85867">
        <ele>259</ele>
        <time>2021-08-27T09:05:18.000Z</time>
      </trkpt>
      <trkpt lat="49.81934" lon="4.85866">
        <ele>259</ele>
        <time>2021-08-27T09:05:19.000Z</time>
      </trkpt>
      <trkpt lat="49.81932" lon="4.85866">
        <ele>259</ele>
        <time>2021-08-27T09:05:20.000Z</time>
      </trkpt>
      <trkpt lat="49.8193" lon="4.85866">
        <ele>259</ele>
        <time>2021-08-27T09:05:21.000Z</time>
      </trkpt>
      <trkpt lat="49.81927" lon="4.85866">
        <ele>258</ele>
        <time>2021-08-27T09:05:22.000Z</time>
      </trkpt>
      <trkpt lat="49.81925" lon="4.85865">
        <ele>258</ele>
        <time>2021-08-27T09:05:23.000Z</time>
      </trkpt>
      <trkpt lat="49.81922" lon="4.85865">
        <ele>258</ele>
        <time>2021-08-27T09:05:24.000Z</time>
      </trkpt>
      <trkpt lat="49.81919" lon="4.85863">
        <ele>258</ele>
        <time>2021-08-27T09:05:25.000Z</time>
      </trkpt>
      <trkpt lat="49.81916" lon="4.85862">
        <ele>258</ele>
        <time>2021-08-27T09:05:26.000Z</time>
      </trkpt>
      <trkpt lat="49.81913" lon="4.8586">
        <ele>257</ele>
        <time>2021-08-27T09:05:27.000Z</time>
      </trkpt>
      <trkpt lat="49.8191" lon="4.85858">
        <ele>257</ele>
        <time>2021-08-27T09:05:28.000Z</time>
      </trkpt>
      <trkpt lat="49.81906" lon="4.85856">
        <ele>257</ele>
        <time>2021-08-27T09:05:29.000Z</time>
      </trkpt>
      <trkpt lat="49.81903" lon="4.85854">
        <ele>257</ele>
        <time>2021-08-27T09:05:30.000Z</time>
      </trkpt>
      <trkpt lat="49.81901" lon="4.85852">
        <ele>256</ele>
        <time>2021-08-27T09:05:31.000Z</time>
      </trkpt>
      <trkpt lat="49.81898" lon="4.8585">
        <ele>256</ele>
        <time>2021-08-27T09:05:32.000Z</time>
      </trkpt>
      <trkpt lat="49.81896" lon="4.85849">
        <ele>256</ele>
        <time>2021-08-27T09:05:33.000Z</time>
      </trkpt>
      <trkpt lat="49.81893" lon="4.85847">
        <ele>256</ele>
        <time>2021-08-27T09:05:34.000Z</time>
      </trkpt>
      <trkpt lat="49.81889" lon="4.85845">
        <ele>255</ele>
        <time>2021-08-27T09:05:35.000Z</time>
      </trkpt>
      <trkpt lat="49.81886" lon="4.85843">
        <ele>255</ele>
        <time>2021-08-27T09:05:36.000Z</time>
      </trkpt>
      <trkpt lat="49.81882" lon="4.85841">
        <ele>255</ele>
        <time>2021-08-27T09:05:37.000Z</time>
      </trkpt>
      <trkpt lat="49.81878" lon="4.85837">
        <ele>254</ele>
        <time>2021-08-27T09:05:38.000Z</time>
      </trkpt>
      <trkpt lat="49.81874" lon="4.85833">
        <ele>254</ele>
        <time>2021-08-27T09:05:39.000Z</time>
      </trkpt>
      <trkpt lat="49.8187" lon="4.85827">
        <ele>254</ele>
        <time>2021-08-27T09:05:40.000Z</time>
      </trkpt>
      <trkpt lat="49.81866" lon="4.85821">
        <ele>253</ele>
        <time>2021-08-27T09:05:41.000Z</time>
      </trkpt>
      <trkpt lat="49.81863" lon="4.85816">
        <ele>253</ele>
        <time>2021-08-27T09:05:42.000Z</time>
      </trkpt>
      <trkpt lat="49.8186" lon="4.8581">
        <ele>253</ele>
        <time>2021-08-27T09:05:43.000Z</time>
      </trkpt>
      <trkpt lat="49.81857" lon="4.85804">
        <ele>253</ele>
        <time>2021-08-27T09:05:44.000Z</time>
      </trkpt>
      <trkpt lat="49.81854" lon="4.85798">
        <ele>252</ele>
        <time>2021-08-27T09:05:45.000Z</time>
      </trkpt>
      <trkpt lat="49.8185" lon="4.85793">
        <ele>252</ele>
        <time>2021-08-27T09:05:46.000Z</time>
      </trkpt>
      <trkpt lat="49.81848" lon="4.85787">
        <ele>252</ele>
        <time>2021-08-27T09:05:47.000Z</time>
      </trkpt>
      <trkpt lat="49.81846" lon="4.85781">
        <ele>252</ele>
        <time>2021-08-27T09:05:48.000Z</time>
      </trkpt>
      <trkpt lat="49.81843" lon="4.85774">
        <ele>252</ele>
        <time>2021-08-27T09:05:49.000Z</time>
      </trkpt>
      <trkpt lat="49.81841" lon="4.85769">
        <ele>252</ele>
        <time>2021-08-27T09:05:50.000Z</time>
      </trkpt>
      <trkpt lat="49.81838" lon="4.85763">
        <ele>252</ele>
        <time>2021-08-27T09:05:51.000Z</time>
      </trkpt>
      <trkpt lat="49.81837" lon="4.85757">
        <ele>252</ele>
        <time>2021-08-27T09:05:52.000Z</time>
      </trkpt>
      <trkpt lat="49.81835" lon="4.85752">
        <ele>251</ele>
        <time>2021-08-27T09:05:53.000Z</time>
      </trkpt>
      <trkpt lat="49.81832" lon="4.85746">
        <ele>251</ele>
        <time>2021-08-27T09:05:54.000Z</time>
      </trkpt>
      <trkpt lat="49.81829" lon="4.85741">
        <ele>251</ele>
        <time>2021-08-27T09:05:55.000Z</time>
      </trkpt>
      <trkpt lat="49.81826" lon="4.85734">
        <ele>251</ele>
        <time>2021-08-27T09:05:56.000Z</time>
      </trkpt>
      <trkpt lat="49.81823" lon="4.85728">
        <ele>251</ele>
        <time>2021-08-27T09:05:57.000Z</time>
      </trkpt>
      <trkpt lat="49.8182" lon="4.85721">
        <ele>250</ele>
        <time>2021-08-27T09:05:58.000Z</time>
      </trkpt>
      <trkpt lat="49.81818" lon="4.85715">
        <ele>250</ele>
        <time>2021-08-27T09:05:59.000Z</time>
      </trkpt>
      <trkpt lat="49.81815" lon="4.85708">
        <ele>250</ele>
        <time>2021-08-27T09:06:00.000Z</time>
      </trkpt>
      <trkpt lat="49.81812" lon="4.85702">
        <ele>250</ele>
        <time>2021-08-27T09:06:01.000Z</time>
      </trkpt>
      <trkpt lat="49.8181" lon="4.85696">
        <ele>249</ele>
        <time>2021-08-27T09:06:02.000Z</time>
      </trkpt>
      <trkpt lat="49.81807" lon="4.8569">
        <ele>249</ele>
        <time>2021-08-27T09:06:03.000Z</time>
      </trkpt>
      <trkpt lat="49.81805" lon="4.85683">
        <ele>249</ele>
        <time>2021-08-27T09:06:04.000Z</time>
      </trkpt>
      <trkpt lat="49.81802" lon="4.85676">
        <ele>248</ele>
        <time>2021-08-27T09:06:05.000Z</time>
      </trkpt>
      <trkpt lat="49.81799" lon="4.8567">
        <ele>248</ele>
        <time>2021-08-27T09:06:06.000Z</time>
      </trkpt>
      <trkpt lat="49.81797" lon="4.85664">
        <ele>248</ele>
        <time>2021-08-27T09:06:07.000Z</time>
      </trkpt>
      <trkpt lat="49.81795" lon="4.85658">
        <ele>247</ele>
        <time>2021-08-27T09:06:08.000Z</time>
      </trkpt>
      <trkpt lat="49.81793" lon="4.85653">
        <ele>247</ele>
        <time>2021-08-27T09:06:09.000Z</time>
      </trkpt>
      <trkpt lat="49.81791" lon="4.85647">
        <ele>247</ele>
        <time>2021-08-27T09:06:10.000Z</time>
      </trkpt>
      <trkpt lat="49.81788" lon="4.85641">
        <ele>246</ele>
        <time>2021-08-27T09:06:11.000Z</time>
      </trkpt>
      <trkpt lat="49.81786" lon="4.85636">
        <ele>246</ele>
        <time>2021-08-27T09:06:12.000Z</time>
      </trkpt>
      <trkpt lat="49.81784" lon="4.8563">
        <ele>246</ele>
        <time>2021-08-27T09:06:13.000Z</time>
      </trkpt>
      <trkpt lat="49.81783" lon="4.85625">
        <ele>245</ele>
        <time>2021-08-27T09:06:14.000Z</time>
      </trkpt>
      <trkpt lat="49.81781" lon="4.85622">
        <ele>245</ele>
        <time>2021-08-27T09:06:15.000Z</time>
      </trkpt>
      <trkpt lat="49.8178" lon="4.85619">
        <ele>245</ele>
        <time>2021-08-27T09:06:16.000Z</time>
      </trkpt>
      <trkpt lat="49.81778" lon="4.85616">
        <ele>244</ele>
        <time>2021-08-27T09:06:17.000Z</time>
      </trkpt>
      <trkpt lat="49.81776" lon="4.85613">
        <ele>244</ele>
        <time>2021-08-27T09:06:18.000Z</time>
      </trkpt>
      <trkpt lat="49.81775" lon="4.85609">
        <ele>243</ele>
        <time>2021-08-27T09:06:19.000Z</time>
      </trkpt>
      <trkpt lat="49.81772" lon="4.85607">
        <ele>243</ele>
        <time>2021-08-27T09:06:20.000Z</time>
      </trkpt>
      <trkpt lat="49.8177" lon="4.85604">
        <ele>243</ele>
        <time>2021-08-27T09:06:21.000Z</time>
      </trkpt>
      <trkpt lat="49.81768" lon="4.85601">
        <ele>242</ele>
        <time>2021-08-27T09:06:22.000Z</time>
      </trkpt>
      <trkpt lat="49.81766" lon="4.85597">
        <ele>242</ele>
        <time>2021-08-27T09:06:23.000Z</time>
      </trkpt>
      <trkpt lat="49.81763" lon="4.85593">
        <ele>242</ele>
        <time>2021-08-27T09:06:24.000Z</time>
      </trkpt>
      <trkpt lat="49.81761" lon="4.85588">
        <ele>241</ele>
        <time>2021-08-27T09:06:25.000Z</time>
      </trkpt>
      <trkpt lat="49.81759" lon="4.85583">
        <ele>241</ele>
        <time>2021-08-27T09:06:26.000Z</time>
      </trkpt>
      <trkpt lat="49.81757" lon="4.85578">
        <ele>241</ele>
        <time>2021-08-27T09:06:27.000Z</time>
      </trkpt>
      <trkpt lat="49.81754" lon="4.85573">
        <ele>241</ele>
        <time>2021-08-27T09:06:28.000Z</time>
      </trkpt>
      <trkpt lat="49.81752" lon="4.85568">
        <ele>240</ele>
        <time>2021-08-27T09:06:29.000Z</time>
      </trkpt>
      <trkpt lat="49.8175" lon="4.85564">
        <ele>240</ele>
        <time>2021-08-27T09:06:30.000Z</time>
      </trkpt>
      <trkpt lat="49.81748" lon="4.8556">
        <ele>240</ele>
        <time>2021-08-27T09:06:31.000Z</time>
      </trkpt>
      <trkpt lat="49.81746" lon="4.85556">
        <ele>240</ele>
        <time>2021-08-27T09:06:32.000Z</time>
      </trkpt>
      <trkpt lat="49.81744" lon="4.85553">
        <ele>240</ele>
        <time>2021-08-27T09:06:33.000Z</time>
      </trkpt>
      <trkpt lat="49.81743" lon="4.85551">
        <ele>240</ele>
        <time>2021-08-27T09:06:34.000Z</time>
      </trkpt>
      <trkpt lat="49.81742" lon="4.85549">
        <ele>240</ele>
        <time>2021-08-27T09:06:35.000Z</time>
      </trkpt>
      <trkpt lat="49.81741" lon="4.85547">
        <ele>240</ele>
        <time>2021-08-27T09:06:36.000Z</time>
      </trkpt>
      <trkpt lat="49.81739" lon="4.85545">
        <ele>240</ele>
        <time>2021-08-27T09:06:37.000Z</time>
      </trkpt>
      <trkpt lat="49.81738" lon="4.85543">
        <ele>240</ele>
        <time>2021-08-27T09:06:38.000Z</time>
      </trkpt>
      <trkpt lat="49.81737" lon="4.8554">
        <ele>240</ele>
        <time>2021-08-27T09:06:39.000Z</time>
      </trkpt>
      <trkpt lat="49.81736" lon="4.85536">
        <ele>239</ele>
        <time>2021-08-27T09:06:40.000Z</time>
      </trkpt>
      <trkpt lat="49.81735" lon="4.85533">
        <ele>239</ele>
        <time>2021-08-27T09:06:41.000Z</time>
      </trkpt>
      <trkpt lat="49.81733" lon="4.85529">
        <ele>239</ele>
        <time>2021-08-27T09:06:42.000Z</time>
      </trkpt>
      <trkpt lat="49.81731" lon="4.85526">
        <ele>239</ele>
        <time>2021-08-27T09:06:43.000Z</time>
      </trkpt>
      <trkpt lat="49.81729" lon="4.85522">
        <ele>239</ele>
        <time>2021-08-27T09:06:44.000Z</time>
      </trkpt>
      <trkpt lat="49.81727" lon="4.85518">
        <ele>239</ele>
        <time>2021-08-27T09:06:45.000Z</time>
      </trkpt>
      <trkpt lat="49.81725" lon="4.85514">
        <ele>238</ele>
        <time>2021-08-27T09:06:46.000Z</time>
      </trkpt>
      <trkpt lat="49.81723" lon="4.85511">
        <ele>238</ele>
        <time>2021-08-27T09:06:47.000Z</time>
      </trkpt>
      <trkpt lat="49.81722" lon="4.85507">
        <ele>238</ele>
        <time>2021-08-27T09:06:48.000Z</time>
      </trkpt>
      <trkpt lat="49.8172" lon="4.85503">
        <ele>238</ele>
        <time>2021-08-27T09:06:49.000Z</time>
      </trkpt>
      <trkpt lat="49.81719" lon="4.855">
        <ele>238</ele>
        <time>2021-08-27T09:06:50.000Z</time>
      </trkpt>
      <trkpt lat="49.81718" lon="4.85496">
        <ele>238</ele>
        <time>2021-08-27T09:06:51.000Z</time>
      </trkpt>
      <trkpt lat="49.81718" lon="4.85493">
        <ele>238</ele>
        <time>2021-08-27T09:06:52.000Z</time>
      </trkpt>
      <trkpt lat="49.81717" lon="4.85489">
        <ele>237</ele>
        <time>2021-08-27T09:06:53.000Z</time>
      </trkpt>
      <trkpt lat="49.81715" lon="4.85484">
        <ele>237</ele>
        <time>2021-08-27T09:06:54.000Z</time>
      </trkpt>
      <trkpt lat="49.81713" lon="4.85479">
        <ele>237</ele>
        <time>2021-08-27T09:06:55.000Z</time>
      </trkpt>
      <trkpt lat="49.81711" lon="4.85474">
        <ele>237</ele>
        <time>2021-08-27T09:06:56.000Z</time>
      </trkpt>
      <trkpt lat="49.81709" lon="4.85469">
        <ele>237</ele>
        <time>2021-08-27T09:06:57.000Z</time>
      </trkpt>
      <trkpt lat="49.81707" lon="4.85463">
        <ele>237</ele>
        <time>2021-08-27T09:06:58.000Z</time>
      </trkpt>
      <trkpt lat="49.81705" lon="4.85457">
        <ele>237</ele>
        <time>2021-08-27T09:06:59.000Z</time>
      </trkpt>
      <trkpt lat="49.81703" lon="4.85451">
        <ele>237</ele>
        <time>2021-08-27T09:07:00.000Z</time>
      </trkpt>
      <trkpt lat="49.81701" lon="4.85445">
        <ele>237</ele>
        <time>2021-08-27T09:07:01.000Z</time>
      </trkpt>
      <trkpt lat="49.81699" lon="4.85439">
        <ele>237</ele>
        <time>2021-08-27T09:07:02.000Z</time>
      </trkpt>
      <trkpt lat="49.81697" lon="4.85432">
        <ele>236</ele>
        <time>2021-08-27T09:07:03.000Z</time>
      </trkpt>
      <trkpt lat="49.81695" lon="4.85426">
        <ele>236</ele>
        <time>2021-08-27T09:07:04.000Z</time>
      </trkpt>
      <trkpt lat="49.81693" lon="4.85418">
        <ele>236</ele>
        <time>2021-08-27T09:07:05.000Z</time>
      </trkpt>
      <trkpt lat="49.81692" lon="4.8541">
        <ele>236</ele>
        <time>2021-08-27T09:07:06.000Z</time>
      </trkpt>
      <trkpt lat="49.8169" lon="4.85403">
        <ele>235</ele>
        <time>2021-08-27T09:07:07.000Z</time>
      </trkpt>
      <trkpt lat="49.81688" lon="4.85396">
        <ele>235</ele>
        <time>2021-08-27T09:07:08.000Z</time>
      </trkpt>
      <trkpt lat="49.81686" lon="4.85389">
        <ele>235</ele>
        <time>2021-08-27T09:07:09.000Z</time>
      </trkpt>
      <trkpt lat="49.81684" lon="4.85381">
        <ele>235</ele>
        <time>2021-08-27T09:07:10.000Z</time>
      </trkpt>
      <trkpt lat="49.81682" lon="4.85373">
        <ele>234</ele>
        <time>2021-08-27T09:07:11.000Z</time>
      </trkpt>
      <trkpt lat="49.81679" lon="4.85365">
        <ele>234</ele>
        <time>2021-08-27T09:07:12.000Z</time>
      </trkpt>
      <trkpt lat="49.81676" lon="4.85356">
        <ele>234</ele>
        <time>2021-08-27T09:07:13.000Z</time>
      </trkpt>
      <trkpt lat="49.81673" lon="4.85347">
        <ele>233</ele>
        <time>2021-08-27T09:07:14.000Z</time>
      </trkpt>
      <trkpt lat="49.81671" lon="4.85338">
        <ele>233</ele>
        <time>2021-08-27T09:07:15.000Z</time>
      </trkpt>
      <trkpt lat="49.81667" lon="4.85329">
        <ele>232</ele>
        <time>2021-08-27T09:07:16.000Z</time>
      </trkpt>
      <trkpt lat="49.81664" lon="4.8532">
        <ele>232</ele>
        <time>2021-08-27T09:07:17.000Z</time>
      </trkpt>
      <trkpt lat="49.81661" lon="4.85312">
        <ele>232</ele>
        <time>2021-08-27T09:07:18.000Z</time>
      </trkpt>
      <trkpt lat="49.81658" lon="4.85303">
        <ele>231</ele>
        <time>2021-08-27T09:07:19.000Z</time>
      </trkpt>
      <trkpt lat="49.81655" lon="4.85294">
        <ele>231</ele>
        <time>2021-08-27T09:07:20.000Z</time>
      </trkpt>
      <trkpt lat="49.81651" lon="4.85285">
        <ele>230</ele>
        <time>2021-08-27T09:07:21.000Z</time>
      </trkpt>
      <trkpt lat="49.81648" lon="4.85275">
        <ele>230</ele>
        <time>2021-08-27T09:07:22.000Z</time>
      </trkpt>
      <trkpt lat="49.81644" lon="4.85266">
        <ele>229</ele>
        <time>2021-08-27T09:07:23.000Z</time>
      </trkpt>
      <trkpt lat="49.81641" lon="4.85256">
        <ele>229</ele>
        <time>2021-08-27T09:07:24.000Z</time>
      </trkpt>
      <trkpt lat="49.81638" lon="4.85247">
        <ele>229</ele>
        <time>2021-08-27T09:07:25.000Z</time>
      </trkpt>
      <trkpt lat="49.81635" lon="4.85237">
        <ele>228</ele>
        <time>2021-08-27T09:07:26.000Z</time>
      </trkpt>
      <trkpt lat="49.81631" lon="4.85228">
        <ele>228</ele>
        <time>2021-08-27T09:07:27.000Z</time>
      </trkpt>
      <trkpt lat="49.81627" lon="4.85219">
        <ele>227</ele>
        <time>2021-08-27T09:07:28.000Z</time>
      </trkpt>
      <trkpt lat="49.81624" lon="4.8521">
        <ele>227</ele>
        <time>2021-08-27T09:07:29.000Z</time>
      </trkpt>
      <trkpt lat="49.8162" lon="4.852">
        <ele>227</ele>
        <time>2021-08-27T09:07:30.000Z</time>
      </trkpt>
      <trkpt lat="49.81617" lon="4.85191">
        <ele>226</ele>
        <time>2021-08-27T09:07:31.000Z</time>
      </trkpt>
      <trkpt lat="49.81613" lon="4.85182">
        <ele>226</ele>
        <time>2021-08-27T09:07:32.000Z</time>
      </trkpt>
      <trkpt lat="49.8161" lon="4.85174">
        <ele>226</ele>
        <time>2021-08-27T09:07:33.000Z</time>
      </trkpt>
      <trkpt lat="49.81607" lon="4.85165">
        <ele>225</ele>
        <time>2021-08-27T09:07:34.000Z</time>
      </trkpt>
      <trkpt lat="49.81604" lon="4.85157">
        <ele>225</ele>
        <time>2021-08-27T09:07:35.000Z</time>
      </trkpt>
      <trkpt lat="49.816" lon="4.85149">
        <ele>225</ele>
        <time>2021-08-27T09:07:36.000Z</time>
      </trkpt>
      <trkpt lat="49.81597" lon="4.85142">
        <ele>224</ele>
        <time>2021-08-27T09:07:37.000Z</time>
      </trkpt>
      <trkpt lat="49.81594" lon="4.85134">
        <ele>224</ele>
        <time>2021-08-27T09:07:38.000Z</time>
      </trkpt>
      <trkpt lat="49.8159" lon="4.85126">
        <ele>224</ele>
        <time>2021-08-27T09:07:39.000Z</time>
      </trkpt>
      <trkpt lat="49.81587" lon="4.85119">
        <ele>224</ele>
        <time>2021-08-27T09:07:40.000Z</time>
      </trkpt>
      <trkpt lat="49.81583" lon="4.85112">
        <ele>224</ele>
        <time>2021-08-27T09:07:41.000Z</time>
      </trkpt>
      <trkpt lat="49.8158" lon="4.85105">
        <ele>224</ele>
        <time>2021-08-27T09:07:42.000Z</time>
      </trkpt>
      <trkpt lat="49.81576" lon="4.85098">
        <ele>224</ele>
        <time>2021-08-27T09:07:43.000Z</time>
      </trkpt>
      <trkpt lat="49.81572" lon="4.85091">
        <ele>224</ele>
        <time>2021-08-27T09:07:44.000Z</time>
      </trkpt>
      <trkpt lat="49.81568" lon="4.85084">
        <ele>224</ele>
        <time>2021-08-27T09:07:45.000Z</time>
      </trkpt>
      <trkpt lat="49.81565" lon="4.85077">
        <ele>224</ele>
        <time>2021-08-27T09:07:46.000Z</time>
      </trkpt>
      <trkpt lat="49.81562" lon="4.85069">
        <ele>224</ele>
        <time>2021-08-27T09:07:47.000Z</time>
      </trkpt>
      <trkpt lat="49.81559" lon="4.85062">
        <ele>224</ele>
        <time>2021-08-27T09:07:48.000Z</time>
      </trkpt>
      <trkpt lat="49.81558" lon="4.85054">
        <ele>224</ele>
        <time>2021-08-27T09:07:49.000Z</time>
      </trkpt>
      <trkpt lat="49.81557" lon="4.85046">
        <ele>223</ele>
        <time>2021-08-27T09:07:50.000Z</time>
      </trkpt>
      <trkpt lat="49.81557" lon="4.85039">
        <ele>223</ele>
        <time>2021-08-27T09:07:51.000Z</time>
      </trkpt>
      <trkpt lat="49.81557" lon="4.85032">
        <ele>223</ele>
        <time>2021-08-27T09:07:52.000Z</time>
      </trkpt>
      <trkpt lat="49.81557" lon="4.85025">
        <ele>223</ele>
        <time>2021-08-27T09:07:53.000Z</time>
      </trkpt>
      <trkpt lat="49.81558" lon="4.85019">
        <ele>223</ele>
        <time>2021-08-27T09:07:54.000Z</time>
      </trkpt>
      <trkpt lat="49.81558" lon="4.85014">
        <ele>223</ele>
        <time>2021-08-27T09:07:55.000Z</time>
      </trkpt>
      <trkpt lat="49.81558" lon="4.85009">
        <ele>224</ele>
        <time>2021-08-27T09:07:56.000Z</time>
      </trkpt>
      <trkpt lat="49.81559" lon="4.85002">
        <ele>224</ele>
        <time>2021-08-27T09:07:57.000Z</time>
      </trkpt>
      <trkpt lat="49.81559" lon="4.84996">
        <ele>224</ele>
        <time>2021-08-27T09:07:58.000Z</time>
      </trkpt>
      <trkpt lat="49.81558" lon="4.8499">
        <ele>224</ele>
        <time>2021-08-27T09:07:59.000Z</time>
      </trkpt>
      <trkpt lat="49.81556" lon="4.84986">
        <ele>224</ele>
        <time>2021-08-27T09:08:00.000Z</time>
      </trkpt>
      <trkpt lat="49.81553" lon="4.84985">
        <ele>224</ele>
        <time>2021-08-27T09:08:01.000Z</time>
      </trkpt>
      <trkpt lat="49.8155" lon="4.84985">
        <ele>224</ele>
        <time>2021-08-27T09:08:02.000Z</time>
      </trkpt>
      <trkpt lat="49.81548" lon="4.84988">
        <ele>224</ele>
        <time>2021-08-27T09:08:03.000Z</time>
      </trkpt>
      <trkpt lat="49.81546" lon="4.8499">
        <ele>224</ele>
        <time>2021-08-27T09:08:04.000Z</time>
      </trkpt>
      <trkpt lat="49.81543" lon="4.84992">
        <ele>225</ele>
        <time>2021-08-27T09:08:05.000Z</time>
      </trkpt>
      <trkpt lat="49.81541" lon="4.84992">
        <ele>225</ele>
        <time>2021-08-27T09:08:06.000Z</time>
      </trkpt>
      <trkpt lat="49.81537" lon="4.84992">
        <ele>225</ele>
        <time>2021-08-27T09:08:07.000Z</time>
      </trkpt>
      <trkpt lat="49.81535" lon="4.8499">
        <ele>225</ele>
        <time>2021-08-27T09:08:08.000Z</time>
      </trkpt>
      <trkpt lat="49.81532" lon="4.84988">
        <ele>226</ele>
        <time>2021-08-27T09:08:09.000Z</time>
      </trkpt>
      <trkpt lat="49.8153" lon="4.84986">
        <ele>226</ele>
        <time>2021-08-27T09:08:10.000Z</time>
      </trkpt>
      <trkpt lat="49.81528" lon="4.84982">
        <ele>226</ele>
        <time>2021-08-27T09:08:11.000Z</time>
      </trkpt>
      <trkpt lat="49.81527" lon="4.84978">
        <ele>226</ele>
        <time>2021-08-27T09:08:12.000Z</time>
      </trkpt>
      <trkpt lat="49.81528" lon="4.84974">
        <ele>226</ele>
        <time>2021-08-27T09:08:13.000Z</time>
      </trkpt>
      <trkpt lat="49.81529" lon="4.8497">
        <ele>226</ele>
        <time>2021-08-27T09:08:14.000Z</time>
      </trkpt>
      <trkpt lat="49.8153" lon="4.84965">
        <ele>226</ele>
        <time>2021-08-27T09:08:15.000Z</time>
      </trkpt>
      <trkpt lat="49.81531" lon="4.8496">
        <ele>226</ele>
        <time>2021-08-27T09:08:16.000Z</time>
      </trkpt>
      <trkpt lat="49.81533" lon="4.84955">
        <ele>226</ele>
        <time>2021-08-27T09:08:17.000Z</time>
      </trkpt>
      <trkpt lat="49.81534" lon="4.84949">
        <ele>226</ele>
        <time>2021-08-27T09:08:18.000Z</time>
      </trkpt>
      <trkpt lat="49.81536" lon="4.84944">
        <ele>226</ele>
        <time>2021-08-27T09:08:19.000Z</time>
      </trkpt>
      <trkpt lat="49.81538" lon="4.84937">
        <ele>226</ele>
        <time>2021-08-27T09:08:20.000Z</time>
      </trkpt>
      <trkpt lat="49.81539" lon="4.84931">
        <ele>226</ele>
        <time>2021-08-27T09:08:21.000Z</time>
      </trkpt>
      <trkpt lat="49.81541" lon="4.84925">
        <ele>227</ele>
        <time>2021-08-27T09:08:22.000Z</time>
      </trkpt>
      <trkpt lat="49.81542" lon="4.84919">
        <ele>227</ele>
        <time>2021-08-27T09:08:23.000Z</time>
      </trkpt>
      <trkpt lat="49.81542" lon="4.84913">
        <ele>227</ele>
        <time>2021-08-27T09:08:24.000Z</time>
      </trkpt>
      <trkpt lat="49.81543" lon="4.84907">
        <ele>227</ele>
        <time>2021-08-27T09:08:25.000Z</time>
      </trkpt>
      <trkpt lat="49.81542" lon="4.849">
        <ele>227</ele>
        <time>2021-08-27T09:08:26.000Z</time>
      </trkpt>
      <trkpt lat="49.81542" lon="4.84894">
        <ele>227</ele>
        <time>2021-08-27T09:08:27.000Z</time>
      </trkpt>
      <trkpt lat="49.81541" lon="4.84888">
        <ele>227</ele>
        <time>2021-08-27T09:08:28.000Z</time>
      </trkpt>
      <trkpt lat="49.81541" lon="4.84882">
        <ele>227</ele>
        <time>2021-08-27T09:08:29.000Z</time>
      </trkpt>
      <trkpt lat="49.81539" lon="4.84876">
        <ele>228</ele>
        <time>2021-08-27T09:08:30.000Z</time>
      </trkpt>
      <trkpt lat="49.81538" lon="4.8487">
        <ele>228</ele>
        <time>2021-08-27T09:08:31.000Z</time>
      </trkpt>
      <trkpt lat="49.81537" lon="4.84864">
        <ele>228</ele>
        <time>2021-08-27T09:08:32.000Z</time>
      </trkpt>
      <trkpt lat="49.81535" lon="4.84857">
        <ele>228</ele>
        <time>2021-08-27T09:08:33.000Z</time>
      </trkpt>
      <trkpt lat="49.81534" lon="4.84851">
        <ele>228</ele>
        <time>2021-08-27T09:08:34.000Z</time>
      </trkpt>
      <trkpt lat="49.81532" lon="4.84844">
        <ele>227</ele>
        <time>2021-08-27T09:08:35.000Z</time>
      </trkpt>
      <trkpt lat="49.81531" lon="4.84836">
        <ele>227</ele>
        <time>2021-08-27T09:08:36.000Z</time>
      </trkpt>
      <trkpt lat="49.8153" lon="4.84829">
        <ele>227</ele>
        <time>2021-08-27T09:08:37.000Z</time>
      </trkpt>
      <trkpt lat="49.81528" lon="4.84822">
        <ele>227</ele>
        <time>2021-08-27T09:08:38.000Z</time>
      </trkpt>
      <trkpt lat="49.81526" lon="4.84815">
        <ele>227</ele>
        <time>2021-08-27T09:08:39.000Z</time>
      </trkpt>
      <trkpt lat="49.81524" lon="4.84808">
        <ele>227</ele>
        <time>2021-08-27T09:08:40.000Z</time>
      </trkpt>
      <trkpt lat="49.81522" lon="4.84801">
        <ele>227</ele>
        <time>2021-08-27T09:08:41.000Z</time>
      </trkpt>
      <trkpt lat="49.8152" lon="4.84793">
        <ele>227</ele>
        <time>2021-08-27T09:08:42.000Z</time>
      </trkpt>
      <trkpt lat="49.81519" lon="4.84785">
        <ele>226</ele>
        <time>2021-08-27T09:08:43.000Z</time>
      </trkpt>
      <trkpt lat="49.81517" lon="4.84777">
        <ele>226</ele>
        <time>2021-08-27T09:08:44.000Z</time>
      </trkpt>
      <trkpt lat="49.81515" lon="4.8477">
        <ele>226</ele>
        <time>2021-08-27T09:08:45.000Z</time>
      </trkpt>
      <trkpt lat="49.81513" lon="4.84762">
        <ele>226</ele>
        <time>2021-08-27T09:08:46.000Z</time>
      </trkpt>
      <trkpt lat="49.81511" lon="4.84754">
        <ele>226</ele>
        <time>2021-08-27T09:08:47.000Z</time>
      </trkpt>
      <trkpt lat="49.8151" lon="4.84746">
        <ele>226</ele>
        <time>2021-08-27T09:08:48.000Z</time>
      </trkpt>
      <trkpt lat="49.81508" lon="4.84739">
        <ele>226</ele>
        <time>2021-08-27T09:08:49.000Z</time>
      </trkpt>
      <trkpt lat="49.81506" lon="4.84731">
        <ele>226</ele>
        <time>2021-08-27T09:08:50.000Z</time>
      </trkpt>
      <trkpt lat="49.81504" lon="4.84724">
        <ele>226</ele>
        <time>2021-08-27T09:08:51.000Z</time>
      </trkpt>
      <trkpt lat="49.81503" lon="4.84716">
        <ele>226</ele>
        <time>2021-08-27T09:08:52.000Z</time>
      </trkpt>
      <trkpt lat="49.81501" lon="4.84709">
        <ele>226</ele>
        <time>2021-08-27T09:08:53.000Z</time>
      </trkpt>
      <trkpt lat="49.81499" lon="4.84701">
        <ele>226</ele>
        <time>2021-08-27T09:08:54.000Z</time>
      </trkpt>
      <trkpt lat="49.81497" lon="4.84693">
        <ele>226</ele>
        <time>2021-08-27T09:08:55.000Z</time>
      </trkpt>
      <trkpt lat="49.81495" lon="4.84685">
        <ele>226</ele>
        <time>2021-08-27T09:08:56.000Z</time>
      </trkpt>
      <trkpt lat="49.81492" lon="4.84678">
        <ele>226</ele>
        <time>2021-08-27T09:08:57.000Z</time>
      </trkpt>
      <trkpt lat="49.81489" lon="4.84671">
        <ele>226</ele>
        <time>2021-08-27T09:08:58.000Z</time>
      </trkpt>
      <trkpt lat="49.81486" lon="4.84664">
        <ele>226</ele>
        <time>2021-08-27T09:08:59.000Z</time>
      </trkpt>
      <trkpt lat="49.81484" lon="4.84659">
        <ele>226</ele>
        <time>2021-08-27T09:09:00.000Z</time>
      </trkpt>
      <trkpt lat="49.81481" lon="4.84655">
        <ele>226</ele>
        <time>2021-08-27T09:09:01.000Z</time>
      </trkpt>
      <trkpt lat="49.81478" lon="4.8465">
        <ele>226</ele>
        <time>2021-08-27T09:09:02.000Z</time>
      </trkpt>
      <trkpt lat="49.81475" lon="4.84646">
        <ele>226</ele>
        <time>2021-08-27T09:09:03.000Z</time>
      </trkpt>
      <trkpt lat="49.81472" lon="4.84643">
        <ele>225</ele>
        <time>2021-08-27T09:09:04.000Z</time>
      </trkpt>
      <trkpt lat="49.81469" lon="4.8464">
        <ele>225</ele>
        <time>2021-08-27T09:09:05.000Z</time>
      </trkpt>
      <trkpt lat="49.81466" lon="4.84638">
        <ele>225</ele>
        <time>2021-08-27T09:09:06.000Z</time>
      </trkpt>
      <trkpt lat="49.81463" lon="4.84636">
        <ele>225</ele>
        <time>2021-08-27T09:09:07.000Z</time>
      </trkpt>
      <trkpt lat="49.81461" lon="4.84633">
        <ele>225</ele>
        <time>2021-08-27T09:09:08.000Z</time>
      </trkpt>
      <trkpt lat="49.81459" lon="4.84629">
        <ele>225</ele>
        <time>2021-08-27T09:09:09.000Z</time>
      </trkpt>
      <trkpt lat="49.81458" lon="4.84623">
        <ele>225</ele>
        <time>2021-08-27T09:09:10.000Z</time>
      </trkpt>
      <trkpt lat="49.81458" lon="4.84616">
        <ele>225</ele>
        <time>2021-08-27T09:09:11.000Z</time>
      </trkpt>
      <trkpt lat="49.81458" lon="4.84609">
        <ele>225</ele>
        <time>2021-08-27T09:09:12.000Z</time>
      </trkpt>
      <trkpt lat="49.81457" lon="4.846">
        <ele>225</ele>
        <time>2021-08-27T09:09:13.000Z</time>
      </trkpt>
      <trkpt lat="49.81457" lon="4.84592">
        <ele>225</ele>
        <time>2021-08-27T09:09:14.000Z</time>
      </trkpt>
      <trkpt lat="49.81457" lon="4.84583">
        <ele>225</ele>
        <time>2021-08-27T09:09:15.000Z</time>
      </trkpt>
      <trkpt lat="49.81457" lon="4.84574">
        <ele>225</ele>
        <time>2021-08-27T09:09:16.000Z</time>
      </trkpt>
      <trkpt lat="49.81456" lon="4.84564">
        <ele>225</ele>
        <time>2021-08-27T09:09:17.000Z</time>
      </trkpt>
      <trkpt lat="49.81456" lon="4.84553">
        <ele>224</ele>
        <time>2021-08-27T09:09:18.000Z</time>
      </trkpt>
      <trkpt lat="49.81456" lon="4.84542">
        <ele>224</ele>
        <time>2021-08-27T09:09:19.000Z</time>
      </trkpt>
      <trkpt lat="49.81456" lon="4.84529">
        <ele>224</ele>
        <time>2021-08-27T09:09:20.000Z</time>
      </trkpt>
      <trkpt lat="49.81455" lon="4.84516">
        <ele>223</ele>
        <time>2021-08-27T09:09:21.000Z</time>
      </trkpt>
      <trkpt lat="49.81455" lon="4.84503">
        <ele>223</ele>
        <time>2021-08-27T09:09:22.000Z</time>
      </trkpt>
      <trkpt lat="49.81455" lon="4.84491">
        <ele>223</ele>
        <time>2021-08-27T09:09:23.000Z</time>
      </trkpt>
      <trkpt lat="49.81455" lon="4.84479">
        <ele>222</ele>
        <time>2021-08-27T09:09:24.000Z</time>
      </trkpt>
      <trkpt lat="49.81455" lon="4.84467">
        <ele>222</ele>
        <time>2021-08-27T09:09:25.000Z</time>
      </trkpt>
      <trkpt lat="49.81456" lon="4.84455">
        <ele>221</ele>
        <time>2021-08-27T09:09:26.000Z</time>
      </trkpt>
      <trkpt lat="49.81456" lon="4.84445">
        <ele>221</ele>
        <time>2021-08-27T09:09:27.000Z</time>
      </trkpt>
      <trkpt lat="49.81456" lon="4.84437">
        <ele>220</ele>
        <time>2021-08-27T09:09:28.000Z</time>
      </trkpt>
      <trkpt lat="49.81457" lon="4.8443">
        <ele>220</ele>
        <time>2021-08-27T09:09:29.000Z</time>
      </trkpt>
      <trkpt lat="49.81459" lon="4.84425">
        <ele>219</ele>
        <time>2021-08-27T09:09:30.000Z</time>
      </trkpt>
      <trkpt lat="49.81462" lon="4.84421">
        <ele>219</ele>
        <time>2021-08-27T09:09:31.000Z</time>
      </trkpt>
      <trkpt lat="49.81465" lon="4.84417">
        <ele>219</ele>
        <time>2021-08-27T09:09:32.000Z</time>
      </trkpt>
      <trkpt lat="49.81468" lon="4.84413">
        <ele>218</ele>
        <time>2021-08-27T09:09:33.000Z</time>
      </trkpt>
      <trkpt lat="49.8147" lon="4.84407">
        <ele>218</ele>
        <time>2021-08-27T09:09:34.000Z</time>
      </trkpt>
      <trkpt lat="49.8147" lon="4.84401">
        <ele>218</ele>
        <time>2021-08-27T09:09:35.000Z</time>
      </trkpt>
      <trkpt lat="49.8147" lon="4.84394">
        <ele>218</ele>
        <time>2021-08-27T09:09:36.000Z</time>
      </trkpt>
      <trkpt lat="49.8147" lon="4.84387">
        <ele>217</ele>
        <time>2021-08-27T09:09:37.000Z</time>
      </trkpt>
      <trkpt lat="49.8147" lon="4.8438">
        <ele>217</ele>
        <time>2021-08-27T09:09:38.000Z</time>
      </trkpt>
      <trkpt lat="49.81471" lon="4.84373">
        <ele>217</ele>
        <time>2021-08-27T09:09:39.000Z</time>
      </trkpt>
      <trkpt lat="49.81471" lon="4.84366">
        <ele>217</ele>
        <time>2021-08-27T09:09:40.000Z</time>
      </trkpt>
      <trkpt lat="49.81472" lon="4.84359">
        <ele>217</ele>
        <time>2021-08-27T09:09:41.000Z</time>
      </trkpt>
      <trkpt lat="49.81474" lon="4.84352">
        <ele>217</ele>
        <time>2021-08-27T09:09:42.000Z</time>
      </trkpt>
      <trkpt lat="49.81475" lon="4.84345">
        <ele>217</ele>
        <time>2021-08-27T09:09:43.000Z</time>
      </trkpt>
      <trkpt lat="49.81478" lon="4.84339">
        <ele>217</ele>
        <time>2021-08-27T09:09:44.000Z</time>
      </trkpt>
      <trkpt lat="49.8148" lon="4.84333">
        <ele>217</ele>
        <time>2021-08-27T09:09:45.000Z</time>
      </trkpt>
      <trkpt lat="49.81484" lon="4.84326">
        <ele>217</ele>
        <time>2021-08-27T09:09:46.000Z</time>
      </trkpt>
      <trkpt lat="49.81486" lon="4.84319">
        <ele>217</ele>
        <time>2021-08-27T09:09:47.000Z</time>
      </trkpt>
      <trkpt lat="49.81488" lon="4.84312">
        <ele>217</ele>
        <time>2021-08-27T09:09:48.000Z</time>
      </trkpt>
      <trkpt lat="49.8149" lon="4.84305">
        <ele>217</ele>
        <time>2021-08-27T09:09:49.000Z</time>
      </trkpt>
      <trkpt lat="49.81493" lon="4.84298">
        <ele>217</ele>
        <time>2021-08-27T09:09:50.000Z</time>
      </trkpt>
      <trkpt lat="49.81495" lon="4.84291">
        <ele>217</ele>
        <time>2021-08-27T09:09:51.000Z</time>
      </trkpt>
      <trkpt lat="49.81497" lon="4.84285">
        <ele>217</ele>
        <time>2021-08-27T09:09:52.000Z</time>
      </trkpt>
      <trkpt lat="49.81499" lon="4.84278">
        <ele>217</ele>
        <time>2021-08-27T09:09:53.000Z</time>
      </trkpt>
      <trkpt lat="49.815" lon="4.84271">
        <ele>217</ele>
        <time>2021-08-27T09:09:54.000Z</time>
      </trkpt>
      <trkpt lat="49.815" lon="4.84264">
        <ele>217</ele>
        <time>2021-08-27T09:09:55.000Z</time>
      </trkpt>
      <trkpt lat="49.81499" lon="4.84257">
        <ele>217</ele>
        <time>2021-08-27T09:09:56.000Z</time>
      </trkpt>
      <trkpt lat="49.81499" lon="4.8425">
        <ele>217</ele>
        <time>2021-08-27T09:09:57.000Z</time>
      </trkpt>
      <trkpt lat="49.81498" lon="4.84245">
        <ele>217</ele>
        <time>2021-08-27T09:09:58.000Z</time>
      </trkpt>
      <trkpt lat="49.81498" lon="4.84241">
        <ele>217</ele>
        <time>2021-08-27T09:09:59.000Z</time>
      </trkpt>
      <trkpt lat="49.81497" lon="4.84237">
        <ele>217</ele>
        <time>2021-08-27T09:10:00.000Z</time>
      </trkpt>
      <trkpt lat="49.81497" lon="4.84234">
        <ele>217</ele>
        <time>2021-08-27T09:10:01.000Z</time>
      </trkpt>
      <trkpt lat="49.81496" lon="4.8423">
        <ele>217</ele>
        <time>2021-08-27T09:10:02.000Z</time>
      </trkpt>
      <trkpt lat="49.81495" lon="4.84226">
        <ele>218</ele>
        <time>2021-08-27T09:10:03.000Z</time>
      </trkpt>
      <trkpt lat="49.81495" lon="4.84222">
        <ele>218</ele>
        <time>2021-08-27T09:10:04.000Z</time>
      </trkpt>
      <trkpt lat="49.81495" lon="4.84218">
        <ele>218</ele>
        <time>2021-08-27T09:10:05.000Z</time>
      </trkpt>
      <trkpt lat="49.81495" lon="4.84213">
        <ele>218</ele>
        <time>2021-08-27T09:10:06.000Z</time>
      </trkpt>
      <trkpt lat="49.81496" lon="4.84208">
        <ele>218</ele>
        <time>2021-08-27T09:10:07.000Z</time>
      </trkpt>
      <trkpt lat="49.81497" lon="4.84203">
        <ele>219</ele>
        <time>2021-08-27T09:10:08.000Z</time>
      </trkpt>
      <trkpt lat="49.81499" lon="4.84199">
        <ele>219</ele>
        <time>2021-08-27T09:10:09.000Z</time>
      </trkpt>
      <trkpt lat="49.81501" lon="4.84194">
        <ele>219</ele>
        <time>2021-08-27T09:10:10.000Z</time>
      </trkpt>
      <trkpt lat="49.81502" lon="4.84189">
        <ele>219</ele>
        <time>2021-08-27T09:10:11.000Z</time>
      </trkpt>
      <trkpt lat="49.81503" lon="4.84183">
        <ele>219</ele>
        <time>2021-08-27T09:10:12.000Z</time>
      </trkpt>
      <trkpt lat="49.81505" lon="4.84177">
        <ele>219</ele>
        <time>2021-08-27T09:10:13.000Z</time>
      </trkpt>
      <trkpt lat="49.81506" lon="4.8417">
        <ele>219</ele>
        <time>2021-08-27T09:10:14.000Z</time>
      </trkpt>
      <trkpt lat="49.81508" lon="4.84162">
        <ele>219</ele>
        <time>2021-08-27T09:10:15.000Z</time>
      </trkpt>
      <trkpt lat="49.81509" lon="4.84154">
        <ele>220</ele>
        <time>2021-08-27T09:10:16.000Z</time>
      </trkpt>
      <trkpt lat="49.81511" lon="4.84147">
        <ele>220</ele>
        <time>2021-08-27T09:10:17.000Z</time>
      </trkpt>
      <trkpt lat="49.81512" lon="4.8414">
        <ele>220</ele>
        <time>2021-08-27T09:10:18.000Z</time>
      </trkpt>
      <trkpt lat="49.81513" lon="4.84133">
        <ele>220</ele>
        <time>2021-08-27T09:10:19.000Z</time>
      </trkpt>
      <trkpt lat="49.81514" lon="4.84126">
        <ele>220</ele>
        <time>2021-08-27T09:10:20.000Z</time>
      </trkpt>
      <trkpt lat="49.81513" lon="4.8412">
        <ele>220</ele>
        <time>2021-08-27T09:10:21.000Z</time>
      </trkpt>
      <trkpt lat="49.81513" lon="4.84113">
        <ele>220</ele>
        <time>2021-08-27T09:10:22.000Z</time>
      </trkpt>
      <trkpt lat="49.81512" lon="4.84106">
        <ele>220</ele>
        <time>2021-08-27T09:10:23.000Z</time>
      </trkpt>
      <trkpt lat="49.8151" lon="4.84098">
        <ele>220</ele>
        <time>2021-08-27T09:10:24.000Z</time>
      </trkpt>
      <trkpt lat="49.81509" lon="4.84091">
        <ele>220</ele>
        <time>2021-08-27T09:10:25.000Z</time>
      </trkpt>
      <trkpt lat="49.81507" lon="4.84084">
        <ele>220</ele>
        <time>2021-08-27T09:10:26.000Z</time>
      </trkpt>
      <trkpt lat="49.81506" lon="4.84077">
        <ele>220</ele>
        <time>2021-08-27T09:10:27.000Z</time>
      </trkpt>
      <trkpt lat="49.81505" lon="4.84069">
        <ele>220</ele>
        <time>2021-08-27T09:10:28.000Z</time>
      </trkpt>
      <trkpt lat="49.81503" lon="4.8406">
        <ele>220</ele>
        <time>2021-08-27T09:10:29.000Z</time>
      </trkpt>
      <trkpt lat="49.81502" lon="4.84052">
        <ele>220</ele>
        <time>2021-08-27T09:10:30.000Z</time>
      </trkpt>
      <trkpt lat="49.815" lon="4.84045">
        <ele>220</ele>
        <time>2021-08-27T09:10:31.000Z</time>
      </trkpt>
      <trkpt lat="49.81499" lon="4.84037">
        <ele>220</ele>
        <time>2021-08-27T09:10:32.000Z</time>
      </trkpt>
      <trkpt lat="49.81498" lon="4.8403">
        <ele>220</ele>
        <time>2021-08-27T09:10:33.000Z</time>
      </trkpt>
      <trkpt lat="49.81497" lon="4.84023">
        <ele>220</ele>
        <time>2021-08-27T09:10:34.000Z</time>
      </trkpt>
      <trkpt lat="49.81496" lon="4.84015">
        <ele>220</ele>
        <time>2021-08-27T09:10:35.000Z</time>
      </trkpt>
      <trkpt lat="49.81495" lon="4.84008">
        <ele>220</ele>
        <time>2021-08-27T09:10:36.000Z</time>
      </trkpt>
      <trkpt lat="49.81495" lon="4.84">
        <ele>220</ele>
        <time>2021-08-27T09:10:37.000Z</time>
      </trkpt>
      <trkpt lat="49.81494" lon="4.83991">
        <ele>220</ele>
        <time>2021-08-27T09:10:38.000Z</time>
      </trkpt>
      <trkpt lat="49.81493" lon="4.83983">
        <ele>220</ele>
        <time>2021-08-27T09:10:39.000Z</time>
      </trkpt>
      <trkpt lat="49.81493" lon="4.83975">
        <ele>220</ele>
        <time>2021-08-27T09:10:40.000Z</time>
      </trkpt>
      <trkpt lat="49.81492" lon="4.83967">
        <ele>220</ele>
        <time>2021-08-27T09:10:41.000Z</time>
      </trkpt>
      <trkpt lat="49.81492" lon="4.83958">
        <ele>220</ele>
        <time>2021-08-27T09:10:42.000Z</time>
      </trkpt>
      <trkpt lat="49.81491" lon="4.8395">
        <ele>220</ele>
        <time>2021-08-27T09:10:43.000Z</time>
      </trkpt>
      <trkpt lat="49.8149" lon="4.83941">
        <ele>220</ele>
        <time>2021-08-27T09:10:44.000Z</time>
      </trkpt>
      <trkpt lat="49.81488" lon="4.83934">
        <ele>220</ele>
        <time>2021-08-27T09:10:45.000Z</time>
      </trkpt>
      <trkpt lat="49.81485" lon="4.83926">
        <ele>220</ele>
        <time>2021-08-27T09:10:46.000Z</time>
      </trkpt>
      <trkpt lat="49.81484" lon="4.83919">
        <ele>220</ele>
        <time>2021-08-27T09:10:47.000Z</time>
      </trkpt>
      <trkpt lat="49.81483" lon="4.83911">
        <ele>220</ele>
        <time>2021-08-27T09:10:48.000Z</time>
      </trkpt>
      <trkpt lat="49.81481" lon="4.83903">
        <ele>220</ele>
        <time>2021-08-27T09:10:49.000Z</time>
      </trkpt>
      <trkpt lat="49.8148" lon="4.83896">
        <ele>220</ele>
        <time>2021-08-27T09:10:50.000Z</time>
      </trkpt>
      <trkpt lat="49.8148" lon="4.83888">
        <ele>220</ele>
        <time>2021-08-27T09:10:51.000Z</time>
      </trkpt>
      <trkpt lat="49.81479" lon="4.83882">
        <ele>220</ele>
        <time>2021-08-27T09:10:52.000Z</time>
      </trkpt>
      <trkpt lat="49.81478" lon="4.83877">
        <ele>220</ele>
        <time>2021-08-27T09:10:53.000Z</time>
      </trkpt>
      <trkpt lat="49.81478" lon="4.83873">
        <ele>220</ele>
        <time>2021-08-27T09:10:54.000Z</time>
      </trkpt>
      <trkpt lat="49.81478" lon="4.83869">
        <ele>220</ele>
        <time>2021-08-27T09:10:55.000Z</time>
      </trkpt>
      <trkpt lat="49.81477" lon="4.83866">
        <ele>220</ele>
        <time>2021-08-27T09:10:56.000Z</time>
      </trkpt>
      <trkpt lat="49.81475" lon="4.83864">
        <ele>220</ele>
        <time>2021-08-27T09:10:57.000Z</time>
      </trkpt>
      <trkpt lat="49.81474" lon="4.83862">
        <ele>220</ele>
        <time>2021-08-27T09:10:58.000Z</time>
      </trkpt>
      <trkpt lat="49.81472" lon="4.8386">
        <ele>220</ele>
        <time>2021-08-27T09:10:59.000Z</time>
      </trkpt>
      <trkpt lat="49.8147" lon="4.83859">
        <ele>220</ele>
        <time>2021-08-27T09:11:00.000Z</time>
      </trkpt>
      <trkpt lat="49.81469" lon="4.83857">
        <ele>219</ele>
        <time>2021-08-27T09:11:01.000Z</time>
      </trkpt>
      <trkpt lat="49.81467" lon="4.83856">
        <ele>219</ele>
        <time>2021-08-27T09:11:02.000Z</time>
      </trkpt>
      <trkpt lat="49.81466" lon="4.83855">
        <ele>219</ele>
        <time>2021-08-27T09:11:03.000Z</time>
      </trkpt>
      <trkpt lat="49.81464" lon="4.83856">
        <ele>219</ele>
        <time>2021-08-27T09:11:04.000Z</time>
      </trkpt>
      <trkpt lat="49.81462" lon="4.83856">
        <ele>219</ele>
        <time>2021-08-27T09:11:05.000Z</time>
      </trkpt>
      <trkpt lat="49.8146" lon="4.83856">
        <ele>219</ele>
        <time>2021-08-27T09:11:06.000Z</time>
      </trkpt>
      <trkpt lat="49.81458" lon="4.83856">
        <ele>219</ele>
        <time>2021-08-27T09:11:07.000Z</time>
      </trkpt>
      <trkpt lat="49.81456" lon="4.83856">
        <ele>219</ele>
        <time>2021-08-27T09:11:08.000Z</time>
      </trkpt>
      <trkpt lat="49.81455" lon="4.83855">
        <ele>219</ele>
        <time>2021-08-27T09:11:09.000Z</time>
      </trkpt>
      <trkpt lat="49.81453" lon="4.83855">
        <ele>220</ele>
        <time>2021-08-27T09:11:10.000Z</time>
      </trkpt>
      <trkpt lat="49.81452" lon="4.83855">
        <ele>220</ele>
        <time>2021-08-27T09:11:11.000Z</time>
      </trkpt>
      <trkpt lat="49.8145" lon="4.83855">
        <ele>220</ele>
        <time>2021-08-27T09:11:12.000Z</time>
      </trkpt>
      <trkpt lat="49.81449" lon="4.83856">
        <ele>220</ele>
        <time>2021-08-27T09:11:13.000Z</time>
      </trkpt>
      <trkpt lat="49.81447" lon="4.83856">
        <ele>220</ele>
        <time>2021-08-27T09:11:14.000Z</time>
      </trkpt>
      <trkpt lat="49.81445" lon="4.83857">
        <ele>220</ele>
        <time>2021-08-27T09:11:15.000Z</time>
      </trkpt>
      <trkpt lat="49.81443" lon="4.83857">
        <ele>220</ele>
        <time>2021-08-27T09:11:16.000Z</time>
      </trkpt>
      <trkpt lat="49.81442" lon="4.83857">
        <ele>220</ele>
        <time>2021-08-27T09:11:17.000Z</time>
      </trkpt>
      <trkpt lat="49.8144" lon="4.83856">
        <ele>220</ele>
        <time>2021-08-27T09:11:18.000Z</time>
      </trkpt>
      <trkpt lat="49.81438" lon="4.83854">
        <ele>220</ele>
        <time>2021-08-27T09:11:19.000Z</time>
      </trkpt>
      <trkpt lat="49.81436" lon="4.83853">
        <ele>220</ele>
        <time>2021-08-27T09:11:20.000Z</time>
      </trkpt>
      <trkpt lat="49.81435" lon="4.83851">
        <ele>220</ele>
        <time>2021-08-27T09:11:21.000Z</time>
      </trkpt>
      <trkpt lat="49.81433" lon="4.8385">
        <ele>220</ele>
        <time>2021-08-27T09:11:22.000Z</time>
      </trkpt>
      <trkpt lat="49.81431" lon="4.83849">
        <ele>221</ele>
        <time>2021-08-27T09:11:23.000Z</time>
      </trkpt>
      <trkpt lat="49.81429" lon="4.83848">
        <ele>221</ele>
        <time>2021-08-27T09:11:24.000Z</time>
      </trkpt>
      <trkpt lat="49.81427" lon="4.83847">
        <ele>221</ele>
        <time>2021-08-27T09:11:25.000Z</time>
      </trkpt>
      <trkpt lat="49.81424" lon="4.83846">
        <ele>221</ele>
        <time>2021-08-27T09:11:26.000Z</time>
      </trkpt>
      <trkpt lat="49.81422" lon="4.83846">
        <ele>221</ele>
        <time>2021-08-27T09:11:27.000Z</time>
      </trkpt>
      <trkpt lat="49.8142" lon="4.83846">
        <ele>221</ele>
        <time>2021-08-27T09:11:28.000Z</time>
      </trkpt>
      <trkpt lat="49.81417" lon="4.83846">
        <ele>221</ele>
        <time>2021-08-27T09:11:29.000Z</time>
      </trkpt>
      <trkpt lat="49.81416" lon="4.83846">
        <ele>221</ele>
        <time>2021-08-27T09:11:30.000Z</time>
      </trkpt>
      <trkpt lat="49.81414" lon="4.83847">
        <ele>221</ele>
        <time>2021-08-27T09:11:31.000Z</time>
      </trkpt>
      <trkpt lat="49.81412" lon="4.83847">
        <ele>221</ele>
        <time>2021-08-27T09:11:32.000Z</time>
      </trkpt>
      <trkpt lat="49.8141" lon="4.83847">
        <ele>221</ele>
        <time>2021-08-27T09:11:33.000Z</time>
      </trkpt>
      <trkpt lat="49.81408" lon="4.83848">
        <ele>221</ele>
        <time>2021-08-27T09:11:34.000Z</time>
      </trkpt>
      <trkpt lat="49.81406" lon="4.83849">
        <ele>221</ele>
        <time>2021-08-27T09:11:35.000Z</time>
      </trkpt>
      <trkpt lat="49.81404" lon="4.8385">
        <ele>221</ele>
        <time>2021-08-27T09:11:36.000Z</time>
      </trkpt>
      <trkpt lat="49.81402" lon="4.83851">
        <ele>221</ele>
        <time>2021-08-27T09:11:37.000Z</time>
      </trkpt>
      <trkpt lat="49.81399" lon="4.83852">
        <ele>222</ele>
        <time>2021-08-27T09:11:38.000Z</time>
      </trkpt>
      <trkpt lat="49.81397" lon="4.83852">
        <ele>222</ele>
        <time>2021-08-27T09:11:39.000Z</time>
      </trkpt>
      <trkpt lat="49.81395" lon="4.83852">
        <ele>222</ele>
        <time>2021-08-27T09:11:40.000Z</time>
      </trkpt>
      <trkpt lat="49.81393" lon="4.83852">
        <ele>222</ele>
        <time>2021-08-27T09:11:41.000Z</time>
      </trkpt>
      <trkpt lat="49.81391" lon="4.83852">
        <ele>222</ele>
        <time>2021-08-27T09:11:42.000Z</time>
      </trkpt>
      <trkpt lat="49.81389" lon="4.83852">
        <ele>223</ele>
        <time>2021-08-27T09:11:43.000Z</time>
      </trkpt>
      <trkpt lat="49.81386" lon="4.83852">
        <ele>223</ele>
        <time>2021-08-27T09:11:44.000Z</time>
      </trkpt>
      <trkpt lat="49.81384" lon="4.83853">
        <ele>223</ele>
        <time>2021-08-27T09:11:45.000Z</time>
      </trkpt>
      <trkpt lat="49.81381" lon="4.83852">
        <ele>223</ele>
        <time>2021-08-27T09:11:46.000Z</time>
      </trkpt>
      <trkpt lat="49.81378" lon="4.83851">
        <ele>223</ele>
        <time>2021-08-27T09:11:47.000Z</time>
      </trkpt>
      <trkpt lat="49.81375" lon="4.8385">
        <ele>223</ele>
        <time>2021-08-27T09:11:48.000Z</time>
      </trkpt>
      <trkpt lat="49.81371" lon="4.83849">
        <ele>223</ele>
        <time>2021-08-27T09:11:49.000Z</time>
      </trkpt>
      <trkpt lat="49.81367" lon="4.83849">
        <ele>224</ele>
        <time>2021-08-27T09:11:50.000Z</time>
      </trkpt>
      <trkpt lat="49.81363" lon="4.83849">
        <ele>224</ele>
        <time>2021-08-27T09:11:51.000Z</time>
      </trkpt>
      <trkpt lat="49.81359" lon="4.83848">
        <ele>224</ele>
        <time>2021-08-27T09:11:52.000Z</time>
      </trkpt>
      <trkpt lat="49.81356" lon="4.83847">
        <ele>224</ele>
        <time>2021-08-27T09:11:53.000Z</time>
      </trkpt>
      <trkpt lat="49.81353" lon="4.83846">
        <ele>224</ele>
        <time>2021-08-27T09:11:54.000Z</time>
      </trkpt>
      <trkpt lat="49.81349" lon="4.83845">
        <ele>225</ele>
        <time>2021-08-27T09:11:55.000Z</time>
      </trkpt>
      <trkpt lat="49.81345" lon="4.83844">
        <ele>225</ele>
        <time>2021-08-27T09:11:56.000Z</time>
      </trkpt>
      <trkpt lat="49.81341" lon="4.83843">
        <ele>225</ele>
        <time>2021-08-27T09:11:57.000Z</time>
      </trkpt>
      <trkpt lat="49.81337" lon="4.83842">
        <ele>225</ele>
        <time>2021-08-27T09:11:58.000Z</time>
      </trkpt>
      <trkpt lat="49.81332" lon="4.83841">
        <ele>225</ele>
        <time>2021-08-27T09:11:59.000Z</time>
      </trkpt>
      <trkpt lat="49.81327" lon="4.8384">
        <ele>225</ele>
        <time>2021-08-27T09:12:00.000Z</time>
      </trkpt>
      <trkpt lat="49.81322" lon="4.8384">
        <ele>226</ele>
        <time>2021-08-27T09:12:01.000Z</time>
      </trkpt>
      <trkpt lat="49.81317" lon="4.83842">
        <ele>226</ele>
        <time>2021-08-27T09:12:02.000Z</time>
      </trkpt>
      <trkpt lat="49.81312" lon="4.83843">
        <ele>226</ele>
        <time>2021-08-27T09:12:03.000Z</time>
      </trkpt>
      <trkpt lat="49.81309" lon="4.83846">
        <ele>226</ele>
        <time>2021-08-27T09:12:04.000Z</time>
      </trkpt>
      <trkpt lat="49.81306" lon="4.83849">
        <ele>226</ele>
        <time>2021-08-27T09:12:05.000Z</time>
      </trkpt>
      <trkpt lat="49.81304" lon="4.83852">
        <ele>226</ele>
        <time>2021-08-27T09:12:06.000Z</time>
      </trkpt>
      <trkpt lat="49.81302" lon="4.83854">
        <ele>227</ele>
        <time>2021-08-27T09:12:07.000Z</time>
      </trkpt>
      <trkpt lat="49.813" lon="4.83856">
        <ele>227</ele>
        <time>2021-08-27T09:12:08.000Z</time>
      </trkpt>
      <trkpt lat="49.81298" lon="4.83857">
        <ele>227</ele>
        <time>2021-08-27T09:12:09.000Z</time>
      </trkpt>
      <trkpt lat="49.81297" lon="4.83858">
        <ele>227</ele>
        <time>2021-08-27T09:12:10.000Z</time>
      </trkpt>
      <trkpt lat="49.81295" lon="4.8386">
        <ele>227</ele>
        <time>2021-08-27T09:12:11.000Z</time>
      </trkpt>
      <trkpt lat="49.81293" lon="4.83861">
        <ele>227</ele>
        <time>2021-08-27T09:12:12.000Z</time>
      </trkpt>
      <trkpt lat="49.81291" lon="4.83863">
        <ele>227</ele>
        <time>2021-08-27T09:12:13.000Z</time>
      </trkpt>
      <trkpt lat="49.81289" lon="4.83865">
        <ele>227</ele>
        <time>2021-08-27T09:12:14.000Z</time>
      </trkpt>
      <trkpt lat="49.81287" lon="4.83867">
        <ele>227</ele>
        <time>2021-08-27T09:12:15.000Z</time>
      </trkpt>
      <trkpt lat="49.81286" lon="4.83868">
        <ele>228</ele>
        <time>2021-08-27T09:12:16.000Z</time>
      </trkpt>
      <trkpt lat="49.81285" lon="4.83869">
        <ele>228</ele>
        <time>2021-08-27T09:12:17.000Z</time>
      </trkpt>
      <trkpt lat="49.81283" lon="4.8387">
        <ele>228</ele>
        <time>2021-08-27T09:12:18.000Z</time>
      </trkpt>
      <trkpt lat="49.81282" lon="4.83871">
        <ele>228</ele>
        <time>2021-08-27T09:12:19.000Z</time>
      </trkpt>
      <trkpt lat="49.8128" lon="4.83872">
        <ele>228</ele>
        <time>2021-08-27T09:12:20.000Z</time>
      </trkpt>
      <trkpt lat="49.81278" lon="4.83873">
        <ele>228</ele>
        <time>2021-08-27T09:12:21.000Z</time>
      </trkpt>
      <trkpt lat="49.81276" lon="4.83874">
        <ele>228</ele>
        <time>2021-08-27T09:12:22.000Z</time>
      </trkpt>
      <trkpt lat="49.81274" lon="4.83876">
        <ele>228</ele>
        <time>2021-08-27T09:12:23.000Z</time>
      </trkpt>
      <trkpt lat="49.81272" lon="4.83877">
        <ele>228</ele>
        <time>2021-08-27T09:12:24.000Z</time>
      </trkpt>
      <trkpt lat="49.81269" lon="4.83878">
        <ele>229</ele>
        <time>2021-08-27T09:12:25.000Z</time>
      </trkpt>
      <trkpt lat="49.81267" lon="4.83879">
        <ele>229</ele>
        <time>2021-08-27T09:12:26.000Z</time>
      </trkpt>
      <trkpt lat="49.81264" lon="4.83879">
        <ele>229</ele>
        <time>2021-08-27T09:12:27.000Z</time>
      </trkpt>
      <trkpt lat="49.81262" lon="4.83881">
        <ele>229</ele>
        <time>2021-08-27T09:12:28.000Z</time>
      </trkpt>
      <trkpt lat="49.81259" lon="4.83882">
        <ele>229</ele>
        <time>2021-08-27T09:12:29.000Z</time>
      </trkpt>
      <trkpt lat="49.81256" lon="4.83883">
        <ele>229</ele>
        <time>2021-08-27T09:12:30.000Z</time>
      </trkpt>
      <trkpt lat="49.81253" lon="4.83883">
        <ele>230</ele>
        <time>2021-08-27T09:12:31.000Z</time>
      </trkpt>
      <trkpt lat="49.8125" lon="4.83884">
        <ele>230</ele>
        <time>2021-08-27T09:12:32.000Z</time>
      </trkpt>
      <trkpt lat="49.81247" lon="4.83884">
        <ele>230</ele>
        <time>2021-08-27T09:12:33.000Z</time>
      </trkpt>
      <trkpt lat="49.81244" lon="4.83885">
        <ele>230</ele>
        <time>2021-08-27T09:12:34.000Z</time>
      </trkpt>
      <trkpt lat="49.8124" lon="4.83885">
        <ele>230</ele>
        <time>2021-08-27T09:12:35.000Z</time>
      </trkpt>
      <trkpt lat="49.81237" lon="4.83885">
        <ele>230</ele>
        <time>2021-08-27T09:12:36.000Z</time>
      </trkpt>
      <trkpt lat="49.81235" lon="4.83886">
        <ele>230</ele>
        <time>2021-08-27T09:12:37.000Z</time>
      </trkpt>
      <trkpt lat="49.81233" lon="4.83886">
        <ele>230</ele>
        <time>2021-08-27T09:12:38.000Z</time>
      </trkpt>
      <trkpt lat="49.8123" lon="4.83887">
        <ele>231</ele>
        <time>2021-08-27T09:12:39.000Z</time>
      </trkpt>
      <trkpt lat="49.81227" lon="4.83888">
        <ele>231</ele>
        <time>2021-08-27T09:12:40.000Z</time>
      </trkpt>
      <trkpt lat="49.81224" lon="4.83888">
        <ele>231</ele>
        <time>2021-08-27T09:12:41.000Z</time>
      </trkpt>
      <trkpt lat="49.81221" lon="4.83888">
        <ele>231</ele>
        <time>2021-08-27T09:12:42.000Z</time>
      </trkpt>
      <trkpt lat="49.81218" lon="4.83889">
        <ele>231</ele>
        <time>2021-08-27T09:12:43.000Z</time>
      </trkpt>
      <trkpt lat="49.81214" lon="4.8389">
        <ele>231</ele>
        <time>2021-08-27T09:12:44.000Z</time>
      </trkpt>
      <trkpt lat="49.8121" lon="4.8389">
        <ele>231</ele>
        <time>2021-08-27T09:12:45.000Z</time>
      </trkpt>
      <trkpt lat="49.81206" lon="4.83891">
        <ele>231</ele>
        <time>2021-08-27T09:12:46.000Z</time>
      </trkpt>
      <trkpt lat="49.81202" lon="4.83891">
        <ele>232</ele>
        <time>2021-08-27T09:12:47.000Z</time>
      </trkpt>
      <trkpt lat="49.81198" lon="4.83893">
        <ele>232</ele>
        <time>2021-08-27T09:12:48.000Z</time>
      </trkpt>
      <trkpt lat="49.81195" lon="4.83894">
        <ele>232</ele>
        <time>2021-08-27T09:12:49.000Z</time>
      </trkpt>
      <trkpt lat="49.81192" lon="4.83894">
        <ele>232</ele>
        <time>2021-08-27T09:12:50.000Z</time>
      </trkpt>
      <trkpt lat="49.8119" lon="4.83895">
        <ele>232</ele>
        <time>2021-08-27T09:12:51.000Z</time>
      </trkpt>
      <trkpt lat="49.81187" lon="4.83896">
        <ele>232</ele>
        <time>2021-08-27T09:12:52.000Z</time>
      </trkpt>
      <trkpt lat="49.81184" lon="4.83898">
        <ele>232</ele>
        <time>2021-08-27T09:12:53.000Z</time>
      </trkpt>
      <trkpt lat="49.81182" lon="4.839">
        <ele>232</ele>
        <time>2021-08-27T09:12:54.000Z</time>
      </trkpt>
      <trkpt lat="49.81178" lon="4.83901">
        <ele>232</ele>
        <time>2021-08-27T09:12:55.000Z</time>
      </trkpt>
      <trkpt lat="49.81175" lon="4.83902">
        <ele>232</ele>
        <time>2021-08-27T09:12:56.000Z</time>
      </trkpt>
      <trkpt lat="49.8117" lon="4.83903">
        <ele>232</ele>
        <time>2021-08-27T09:12:57.000Z</time>
      </trkpt>
      <trkpt lat="49.81166" lon="4.83903">
        <ele>233</ele>
        <time>2021-08-27T09:12:58.000Z</time>
      </trkpt>
      <trkpt lat="49.81162" lon="4.83903">
        <ele>233</ele>
        <time>2021-08-27T09:12:59.000Z</time>
      </trkpt>
      <trkpt lat="49.81158" lon="4.83903">
        <ele>233</ele>
        <time>2021-08-27T09:13:00.000Z</time>
      </trkpt>
      <trkpt lat="49.81154" lon="4.83903">
        <ele>233</ele>
        <time>2021-08-27T09:13:01.000Z</time>
      </trkpt>
      <trkpt lat="49.8115" lon="4.83904">
        <ele>233</ele>
        <time>2021-08-27T09:13:02.000Z</time>
      </trkpt>
      <trkpt lat="49.81146" lon="4.83904">
        <ele>233</ele>
        <time>2021-08-27T09:13:03.000Z</time>
      </trkpt>
      <trkpt lat="49.81142" lon="4.83904">
        <ele>233</ele>
        <time>2021-08-27T09:13:04.000Z</time>
      </trkpt>
      <trkpt lat="49.81137" lon="4.83903">
        <ele>233</ele>
        <time>2021-08-27T09:13:05.000Z</time>
      </trkpt>
      <trkpt lat="49.81133" lon="4.83903">
        <ele>233</ele>
        <time>2021-08-27T09:13:06.000Z</time>
      </trkpt>
      <trkpt lat="49.81129" lon="4.83903">
        <ele>233</ele>
        <time>2021-08-27T09:13:07.000Z</time>
      </trkpt>
      <trkpt lat="49.81126" lon="4.83903">
        <ele>233</ele>
        <time>2021-08-27T09:13:08.000Z</time>
      </trkpt>
      <trkpt lat="49.81121" lon="4.83902">
        <ele>233</ele>
        <time>2021-08-27T09:13:09.000Z</time>
      </trkpt>
      <trkpt lat="49.81117" lon="4.83902">
        <ele>233</ele>
        <time>2021-08-27T09:13:10.000Z</time>
      </trkpt>
      <trkpt lat="49.81112" lon="4.83901">
        <ele>233</ele>
        <time>2021-08-27T09:13:11.000Z</time>
      </trkpt>
      <trkpt lat="49.81107" lon="4.839">
        <ele>233</ele>
        <time>2021-08-27T09:13:12.000Z</time>
      </trkpt>
      <trkpt lat="49.81102" lon="4.839">
        <ele>233</ele>
        <time>2021-08-27T09:13:13.000Z</time>
      </trkpt>
      <trkpt lat="49.81096" lon="4.83899">
        <ele>233</ele>
        <time>2021-08-27T09:13:14.000Z</time>
      </trkpt>
      <trkpt lat="49.81091" lon="4.83897">
        <ele>233</ele>
        <time>2021-08-27T09:13:15.000Z</time>
      </trkpt>
      <trkpt lat="49.81085" lon="4.83896">
        <ele>233</ele>
        <time>2021-08-27T09:13:16.000Z</time>
      </trkpt>
      <trkpt lat="49.8108" lon="4.83895">
        <ele>233</ele>
        <time>2021-08-27T09:13:17.000Z</time>
      </trkpt>
      <trkpt lat="49.81075" lon="4.83894">
        <ele>233</ele>
        <time>2021-08-27T09:13:18.000Z</time>
      </trkpt>
      <trkpt lat="49.8107" lon="4.83893">
        <ele>234</ele>
        <time>2021-08-27T09:13:19.000Z</time>
      </trkpt>
      <trkpt lat="49.81065" lon="4.83892">
        <ele>234</ele>
        <time>2021-08-27T09:13:20.000Z</time>
      </trkpt>
      <trkpt lat="49.8106" lon="4.83891">
        <ele>234</ele>
        <time>2021-08-27T09:13:21.000Z</time>
      </trkpt>
      <trkpt lat="49.81055" lon="4.83891">
        <ele>233</ele>
        <time>2021-08-27T09:13:22.000Z</time>
      </trkpt>
      <trkpt lat="49.8105" lon="4.83891">
        <ele>233</ele>
        <time>2021-08-27T09:13:23.000Z</time>
      </trkpt>
      <trkpt lat="49.81046" lon="4.83892">
        <ele>234</ele>
        <time>2021-08-27T09:13:24.000Z</time>
      </trkpt>
      <trkpt lat="49.81043" lon="4.83893">
        <ele>234</ele>
        <time>2021-08-27T09:13:25.000Z</time>
      </trkpt>
      <trkpt lat="49.81039" lon="4.83893">
        <ele>234</ele>
        <time>2021-08-27T09:13:26.000Z</time>
      </trkpt>
      <trkpt lat="49.81036" lon="4.83893">
        <ele>234</ele>
        <time>2021-08-27T09:13:27.000Z</time>
      </trkpt>
      <trkpt lat="49.81032" lon="4.83893">
        <ele>234</ele>
        <time>2021-08-27T09:13:28.000Z</time>
      </trkpt>
      <trkpt lat="49.81028" lon="4.83893">
        <ele>234</ele>
        <time>2021-08-27T09:13:29.000Z</time>
      </trkpt>
      <trkpt lat="49.81023" lon="4.83893">
        <ele>234</ele>
        <time>2021-08-27T09:13:30.000Z</time>
      </trkpt>
      <trkpt lat="49.81019" lon="4.83893">
        <ele>234</ele>
        <time>2021-08-27T09:13:31.000Z</time>
      </trkpt>
      <trkpt lat="49.81014" lon="4.83893">
        <ele>234</ele>
        <time>2021-08-27T09:13:32.000Z</time>
      </trkpt>
      <trkpt lat="49.81009" lon="4.83893">
        <ele>234</ele>
        <time>2021-08-27T09:13:33.000Z</time>
      </trkpt>
      <trkpt lat="49.81005" lon="4.83894">
        <ele>234</ele>
        <time>2021-08-27T09:13:34.000Z</time>
      </trkpt>
      <trkpt lat="49.81001" lon="4.83894">
        <ele>234</ele>
        <time>2021-08-27T09:13:35.000Z</time>
      </trkpt>
      <trkpt lat="49.80998" lon="4.83894">
        <ele>233</ele>
        <time>2021-08-27T09:13:36.000Z</time>
      </trkpt>
      <trkpt lat="49.80996" lon="4.83894">
        <ele>233</ele>
        <time>2021-08-27T09:13:37.000Z</time>
      </trkpt>
      <trkpt lat="49.80993" lon="4.83893">
        <ele>233</ele>
        <time>2021-08-27T09:13:38.000Z</time>
      </trkpt>
      <trkpt lat="49.8099" lon="4.83893">
        <ele>233</ele>
        <time>2021-08-27T09:13:39.000Z</time>
      </trkpt>
      <trkpt lat="49.80987" lon="4.83893">
        <ele>233</ele>
        <time>2021-08-27T09:13:40.000Z</time>
      </trkpt>
      <trkpt lat="49.80984" lon="4.83892">
        <ele>233</ele>
        <time>2021-08-27T09:13:41.000Z</time>
      </trkpt>
      <trkpt lat="49.80981" lon="4.83892">
        <ele>233</ele>
        <time>2021-08-27T09:13:42.000Z</time>
      </trkpt>
      <trkpt lat="49.80977" lon="4.83892">
        <ele>233</ele>
        <time>2021-08-27T09:13:43.000Z</time>
      </trkpt>
      <trkpt lat="49.80974" lon="4.83891">
        <ele>234</ele>
        <time>2021-08-27T09:13:44.000Z</time>
      </trkpt>
      <trkpt lat="49.8097" lon="4.83891">
        <ele>234</ele>
        <time>2021-08-27T09:13:45.000Z</time>
      </trkpt>
      <trkpt lat="49.80966" lon="4.83891">
        <ele>234</ele>
        <time>2021-08-27T09:13:46.000Z</time>
      </trkpt>
      <trkpt lat="49.80963" lon="4.83891">
        <ele>234</ele>
        <time>2021-08-27T09:13:47.000Z</time>
      </trkpt>
      <trkpt lat="49.8096" lon="4.8389">
        <ele>234</ele>
        <time>2021-08-27T09:13:48.000Z</time>
      </trkpt>
      <trkpt lat="49.80957" lon="4.8389">
        <ele>234</ele>
        <time>2021-08-27T09:13:49.000Z</time>
      </trkpt>
      <trkpt lat="49.80954" lon="4.8389">
        <ele>234</ele>
        <time>2021-08-27T09:13:50.000Z</time>
      </trkpt>
      <trkpt lat="49.8095" lon="4.83891">
        <ele>234</ele>
        <time>2021-08-27T09:13:51.000Z</time>
      </trkpt>
      <trkpt lat="49.80946" lon="4.83891">
        <ele>234</ele>
        <time>2021-08-27T09:13:52.000Z</time>
      </trkpt>
      <trkpt lat="49.80941" lon="4.83891">
        <ele>233</ele>
        <time>2021-08-27T09:13:53.000Z</time>
      </trkpt>
      <trkpt lat="49.80937" lon="4.83891">
        <ele>233</ele>
        <time>2021-08-27T09:13:54.000Z</time>
      </trkpt>
      <trkpt lat="49.80933" lon="4.83892">
        <ele>233</ele>
        <time>2021-08-27T09:13:55.000Z</time>
      </trkpt>
      <trkpt lat="49.8093" lon="4.83891">
        <ele>233</ele>
        <time>2021-08-27T09:13:56.000Z</time>
      </trkpt>
      <trkpt lat="49.80926" lon="4.83891">
        <ele>233</ele>
        <time>2021-08-27T09:13:57.000Z</time>
      </trkpt>
      <trkpt lat="49.80922" lon="4.83891">
        <ele>233</ele>
        <time>2021-08-27T09:13:58.000Z</time>
      </trkpt>
      <trkpt lat="49.80918" lon="4.83891">
        <ele>233</ele>
        <time>2021-08-27T09:13:59.000Z</time>
      </trkpt>
      <trkpt lat="49.80914" lon="4.83891">
        <ele>233</ele>
        <time>2021-08-27T09:14:00.000Z</time>
      </trkpt>
      <trkpt lat="49.8091" lon="4.83891">
        <ele>233</ele>
        <time>2021-08-27T09:14:01.000Z</time>
      </trkpt>
      <trkpt lat="49.80906" lon="4.83891">
        <ele>233</ele>
        <time>2021-08-27T09:14:02.000Z</time>
      </trkpt>
      <trkpt lat="49.80902" lon="4.83891">
        <ele>232</ele>
        <time>2021-08-27T09:14:03.000Z</time>
      </trkpt>
      <trkpt lat="49.80898" lon="4.83891">
        <ele>232</ele>
        <time>2021-08-27T09:14:04.000Z</time>
      </trkpt>
      <trkpt lat="49.80894" lon="4.83891">
        <ele>232</ele>
        <time>2021-08-27T09:14:05.000Z</time>
      </trkpt>
      <trkpt lat="49.80889" lon="4.83891">
        <ele>232</ele>
        <time>2021-08-27T09:14:06.000Z</time>
      </trkpt>
      <trkpt lat="49.80885" lon="4.83892">
        <ele>232</ele>
        <time>2021-08-27T09:14:07.000Z</time>
      </trkpt>
      <trkpt lat="49.80881" lon="4.83893">
        <ele>231</ele>
        <time>2021-08-27T09:14:08.000Z</time>
      </trkpt>
      <trkpt lat="49.80878" lon="4.83893">
        <ele>231</ele>
        <time>2021-08-27T09:14:09.000Z</time>
      </trkpt>
      <trkpt lat="49.80874" lon="4.83894">
        <ele>231</ele>
        <time>2021-08-27T09:14:10.000Z</time>
      </trkpt>
      <trkpt lat="49.8087" lon="4.83894">
        <ele>231</ele>
        <time>2021-08-27T09:14:11.000Z</time>
      </trkpt>
      <trkpt lat="49.80866" lon="4.83894">
        <ele>231</ele>
        <time>2021-08-27T09:14:12.000Z</time>
      </trkpt>
      <trkpt lat="49.80862" lon="4.83895">
        <ele>231</ele>
        <time>2021-08-27T09:14:13.000Z</time>
      </trkpt>
      <trkpt lat="49.80858" lon="4.83895">
        <ele>230</ele>
        <time>2021-08-27T09:14:14.000Z</time>
      </trkpt>
      <trkpt lat="49.80854" lon="4.83896">
        <ele>230</ele>
        <time>2021-08-27T09:14:15.000Z</time>
      </trkpt>
      <trkpt lat="49.80849" lon="4.83896">
        <ele>230</ele>
        <time>2021-08-27T09:14:16.000Z</time>
      </trkpt>
      <trkpt lat="49.80845" lon="4.83896">
        <ele>230</ele>
        <time>2021-08-27T09:14:17.000Z</time>
      </trkpt>
      <trkpt lat="49.80841" lon="4.83896">
        <ele>230</ele>
        <time>2021-08-27T09:14:18.000Z</time>
      </trkpt>
      <trkpt lat="49.80838" lon="4.83896">
        <ele>231</ele>
        <time>2021-08-27T09:14:19.000Z</time>
      </trkpt>
      <trkpt lat="49.80835" lon="4.83896">
        <ele>231</ele>
        <time>2021-08-27T09:14:20.000Z</time>
      </trkpt>
      <trkpt lat="49.80831" lon="4.83896">
        <ele>231</ele>
        <time>2021-08-27T09:14:21.000Z</time>
      </trkpt>
      <trkpt lat="49.80828" lon="4.83897">
        <ele>231</ele>
        <time>2021-08-27T09:14:22.000Z</time>
      </trkpt>
      <trkpt lat="49.80826" lon="4.83897">
        <ele>231</ele>
        <time>2021-08-27T09:14:23.000Z</time>
      </trkpt>
      <trkpt lat="49.80823" lon="4.83896">
        <ele>231</ele>
        <time>2021-08-27T09:14:24.000Z</time>
      </trkpt>
      <trkpt lat="49.80819" lon="4.83895">
        <ele>231</ele>
        <time>2021-08-27T09:14:25.000Z</time>
      </trkpt>
      <trkpt lat="49.80816" lon="4.83896">
        <ele>231</ele>
        <time>2021-08-27T09:14:26.000Z</time>
      </trkpt>
      <trkpt lat="49.80812" lon="4.83897">
        <ele>231</ele>
        <time>2021-08-27T09:14:27.000Z</time>
      </trkpt>
      <trkpt lat="49.80808" lon="4.83898">
        <ele>231</ele>
        <time>2021-08-27T09:14:28.000Z</time>
      </trkpt>
      <trkpt lat="49.80805" lon="4.83899">
        <ele>231</ele>
        <time>2021-08-27T09:14:29.000Z</time>
      </trkpt>
      <trkpt lat="49.80801" lon="4.83899">
        <ele>231</ele>
        <time>2021-08-27T09:14:30.000Z</time>
      </trkpt>
      <trkpt lat="49.80797" lon="4.839">
        <ele>231</ele>
        <time>2021-08-27T09:14:31.000Z</time>
      </trkpt>
      <trkpt lat="49.80793" lon="4.83901">
        <ele>231</ele>
        <time>2021-08-27T09:14:32.000Z</time>
      </trkpt>
      <trkpt lat="49.80789" lon="4.83902">
        <ele>231</ele>
        <time>2021-08-27T09:14:33.000Z</time>
      </trkpt>
      <trkpt lat="49.80786" lon="4.83904">
        <ele>231</ele>
        <time>2021-08-27T09:14:34.000Z</time>
      </trkpt>
      <trkpt lat="49.80783" lon="4.83905">
        <ele>232</ele>
        <time>2021-08-27T09:14:35.000Z</time>
      </trkpt>
      <trkpt lat="49.80779" lon="4.83906">
        <ele>232</ele>
        <time>2021-08-27T09:14:36.000Z</time>
      </trkpt>
      <trkpt lat="49.80776" lon="4.83906">
        <ele>232</ele>
        <time>2021-08-27T09:14:37.000Z</time>
      </trkpt>
      <trkpt lat="49.80772" lon="4.83907">
        <ele>232</ele>
        <time>2021-08-27T09:14:38.000Z</time>
      </trkpt>
      <trkpt lat="49.80768" lon="4.83908">
        <ele>232</ele>
        <time>2021-08-27T09:14:39.000Z</time>
      </trkpt>
      <trkpt lat="49.80765" lon="4.83909">
        <ele>232</ele>
        <time>2021-08-27T09:14:40.000Z</time>
      </trkpt>
      <trkpt lat="49.80761" lon="4.8391">
        <ele>232</ele>
        <time>2021-08-27T09:14:41.000Z</time>
      </trkpt>
      <trkpt lat="49.80757" lon="4.83911">
        <ele>232</ele>
        <time>2021-08-27T09:14:42.000Z</time>
      </trkpt>
      <trkpt lat="49.80754" lon="4.83912">
        <ele>232</ele>
        <time>2021-08-27T09:14:43.000Z</time>
      </trkpt>
      <trkpt lat="49.80751" lon="4.83914">
        <ele>232</ele>
        <time>2021-08-27T09:14:44.000Z</time>
      </trkpt>
      <trkpt lat="49.80748" lon="4.83915">
        <ele>232</ele>
        <time>2021-08-27T09:14:45.000Z</time>
      </trkpt>
      <trkpt lat="49.80744" lon="4.83916">
        <ele>232</ele>
        <time>2021-08-27T09:14:46.000Z</time>
      </trkpt>
      <trkpt lat="49.80741" lon="4.83917">
        <ele>232</ele>
        <time>2021-08-27T09:14:47.000Z</time>
      </trkpt>
      <trkpt lat="49.80738" lon="4.83918">
        <ele>232</ele>
        <time>2021-08-27T09:14:48.000Z</time>
      </trkpt>
      <trkpt lat="49.80734" lon="4.83919">
        <ele>232</ele>
        <time>2021-08-27T09:14:49.000Z</time>
      </trkpt>
      <trkpt lat="49.80731" lon="4.8392">
        <ele>232</ele>
        <time>2021-08-27T09:14:50.000Z</time>
      </trkpt>
      <trkpt lat="49.80727" lon="4.83921">
        <ele>231</ele>
        <time>2021-08-27T09:14:51.000Z</time>
      </trkpt>
      <trkpt lat="49.80723" lon="4.83922">
        <ele>231</ele>
        <time>2021-08-27T09:14:52.000Z</time>
      </trkpt>
      <trkpt lat="49.80719" lon="4.83924">
        <ele>231</ele>
        <time>2021-08-27T09:14:53.000Z</time>
      </trkpt>
      <trkpt lat="49.80716" lon="4.83925">
        <ele>231</ele>
        <time>2021-08-27T09:14:54.000Z</time>
      </trkpt>
      <trkpt lat="49.80714" lon="4.83926">
        <ele>231</ele>
        <time>2021-08-27T09:14:55.000Z</time>
      </trkpt>
      <trkpt lat="49.80713" lon="4.83927">
        <ele>230</ele>
        <time>2021-08-27T09:14:56.000Z</time>
      </trkpt>
      <trkpt lat="49.80711" lon="4.83928">
        <ele>230</ele>
        <time>2021-08-27T09:14:57.000Z</time>
      </trkpt>
      <trkpt lat="49.80709" lon="4.83928">
        <ele>230</ele>
        <time>2021-08-27T09:14:58.000Z</time>
      </trkpt>
      <trkpt lat="49.80707" lon="4.83929">
        <ele>230</ele>
        <time>2021-08-27T09:14:59.000Z</time>
      </trkpt>
      <trkpt lat="49.80706" lon="4.8393">
        <ele>230</ele>
        <time>2021-08-27T09:15:00.000Z</time>
      </trkpt>
      <trkpt lat="49.80705" lon="4.83931">
        <ele>230</ele>
        <time>2021-08-27T09:15:01.000Z</time>
      </trkpt>
      <trkpt lat="49.80703" lon="4.83931">
        <ele>230</ele>
        <time>2021-08-27T09:15:02.000Z</time>
      </trkpt>
      <trkpt lat="49.80701" lon="4.83932">
        <ele>230</ele>
        <time>2021-08-27T09:15:03.000Z</time>
      </trkpt>
      <trkpt lat="49.80699" lon="4.83932">
        <ele>230</ele>
        <time>2021-08-27T09:15:04.000Z</time>
      </trkpt>
      <trkpt lat="49.80698" lon="4.83933">
        <ele>230</ele>
        <time>2021-08-27T09:15:05.000Z</time>
      </trkpt>
      <trkpt lat="49.80697" lon="4.83934">
        <ele>230</ele>
        <time>2021-08-27T09:15:06.000Z</time>
      </trkpt>
      <trkpt lat="49.80695" lon="4.83935">
        <ele>230</ele>
        <time>2021-08-27T09:15:07.000Z</time>
      </trkpt>
      <trkpt lat="49.80694" lon="4.83936">
        <ele>231</ele>
        <time>2021-08-27T09:15:08.000Z</time>
      </trkpt>
      <trkpt lat="49.80692" lon="4.83936">
        <ele>231</ele>
        <time>2021-08-27T09:15:09.000Z</time>
      </trkpt>
      <trkpt lat="49.80691" lon="4.83937">
        <ele>231</ele>
        <time>2021-08-27T09:15:10.000Z</time>
      </trkpt>
      <trkpt lat="49.80689" lon="4.83937">
        <ele>231</ele>
        <time>2021-08-27T09:15:11.000Z</time>
      </trkpt>
      <trkpt lat="49.80688" lon="4.83938">
        <ele>231</ele>
        <time>2021-08-27T09:15:12.000Z</time>
      </trkpt>
      <trkpt lat="49.80686" lon="4.83939">
        <ele>231</ele>
        <time>2021-08-27T09:15:13.000Z</time>
      </trkpt>
      <trkpt lat="49.80684" lon="4.83939">
        <ele>232</ele>
        <time>2021-08-27T09:15:14.000Z</time>
      </trkpt>
      <trkpt lat="49.80683" lon="4.8394">
        <ele>232</ele>
        <time>2021-08-27T09:15:15.000Z</time>
      </trkpt>
      <trkpt lat="49.80681" lon="4.83939">
        <ele>232</ele>
        <time>2021-08-27T09:15:16.000Z</time>
      </trkpt>
      <trkpt lat="49.8068" lon="4.8394">
        <ele>232</ele>
        <time>2021-08-27T09:15:17.000Z</time>
      </trkpt>
      <trkpt lat="49.8068" lon="4.83939">
        <ele>233</ele>
        <time>2021-08-27T09:15:18.000Z</time>
      </trkpt>
      <trkpt lat="49.8068" lon="4.83939">
        <ele>233</ele>
        <time>2021-08-27T09:15:19.000Z</time>
      </trkpt>
      <trkpt lat="49.80679" lon="4.83939">
        <ele>233</ele>
        <time>2021-08-27T09:15:20.000Z</time>
      </trkpt>
      <trkpt lat="49.80679" lon="4.83938">
        <ele>233</ele>
        <time>2021-08-27T09:15:21.000Z</time>
      </trkpt>
      <trkpt lat="49.80677" lon="4.83938">
        <ele>233</ele>
        <time>2021-08-27T09:15:22.000Z</time>
      </trkpt>
      <trkpt lat="49.80676" lon="4.83938">
        <ele>234</ele>
        <time>2021-08-27T09:15:23.000Z</time>
      </trkpt>
      <trkpt lat="49.80675" lon="4.83937">
        <ele>234</ele>
        <time>2021-08-27T09:15:24.000Z</time>
      </trkpt>
      <trkpt lat="49.80674" lon="4.83937">
        <ele>234</ele>
        <time>2021-08-27T09:15:25.000Z</time>
      </trkpt>
      <trkpt lat="49.80674" lon="4.83936">
        <ele>234</ele>
        <time>2021-08-27T09:15:26.000Z</time>
      </trkpt>
      <trkpt lat="49.80673" lon="4.83937">
        <ele>234</ele>
        <time>2021-08-27T09:15:27.000Z</time>
      </trkpt>
      <trkpt lat="49.80673" lon="4.83937">
        <ele>234</ele>
        <time>2021-08-27T09:15:28.000Z</time>
      </trkpt>
      <trkpt lat="49.80672" lon="4.83937">
        <ele>234</ele>
        <time>2021-08-27T09:15:29.000Z</time>
      </trkpt>
      <trkpt lat="49.80671" lon="4.83937">
        <ele>234</ele>
        <time>2021-08-27T09:15:30.000Z</time>
      </trkpt>
      <trkpt lat="49.8067" lon="4.83937">
        <ele>234</ele>
        <time>2021-08-27T09:15:31.000Z</time>
      </trkpt>
      <trkpt lat="49.80669" lon="4.83937">
        <ele>233</ele>
        <time>2021-08-27T09:15:32.000Z</time>
      </trkpt>
      <trkpt lat="49.80667" lon="4.83937">
        <ele>233</ele>
        <time>2021-08-27T09:15:33.000Z</time>
      </trkpt>
      <trkpt lat="49.80665" lon="4.83937">
        <ele>233</ele>
        <time>2021-08-27T09:15:34.000Z</time>
      </trkpt>
      <trkpt lat="49.80663" lon="4.83937">
        <ele>233</ele>
        <time>2021-08-27T09:15:35.000Z</time>
      </trkpt>
      <trkpt lat="49.80661" lon="4.83937">
        <ele>233</ele>
        <time>2021-08-27T09:15:36.000Z</time>
      </trkpt>
      <trkpt lat="49.80658" lon="4.83938">
        <ele>233</ele>
        <time>2021-08-27T09:15:37.000Z</time>
      </trkpt>
      <trkpt lat="49.80656" lon="4.83939">
        <ele>233</ele>
        <time>2021-08-27T09:15:38.000Z</time>
      </trkpt>
      <trkpt lat="49.80654" lon="4.83941">
        <ele>233</ele>
        <time>2021-08-27T09:15:39.000Z</time>
      </trkpt>
      <trkpt lat="49.80651" lon="4.83944">
        <ele>233</ele>
        <time>2021-08-27T09:15:40.000Z</time>
      </trkpt>
      <trkpt lat="49.80648" lon="4.83944">
        <ele>233</ele>
        <time>2021-08-27T09:15:41.000Z</time>
      </trkpt>
      <trkpt lat="49.80646" lon="4.83945">
        <ele>233</ele>
        <time>2021-08-27T09:15:42.000Z</time>
      </trkpt>
      <trkpt lat="49.80643" lon="4.83946">
        <ele>233</ele>
        <time>2021-08-27T09:15:43.000Z</time>
      </trkpt>
      <trkpt lat="49.8064" lon="4.83947">
        <ele>233</ele>
        <time>2021-08-27T09:15:44.000Z</time>
      </trkpt>
      <trkpt lat="49.80638" lon="4.83947">
        <ele>233</ele>
        <time>2021-08-27T09:15:45.000Z</time>
      </trkpt>
      <trkpt lat="49.80635" lon="4.83947">
        <ele>233</ele>
        <time>2021-08-27T09:15:46.000Z</time>
      </trkpt>
      <trkpt lat="49.80632" lon="4.83947">
        <ele>233</ele>
        <time>2021-08-27T09:15:47.000Z</time>
      </trkpt>
      <trkpt lat="49.8063" lon="4.83947">
        <ele>232</ele>
        <time>2021-08-27T09:15:48.000Z</time>
      </trkpt>
      <trkpt lat="49.80627" lon="4.83947">
        <ele>232</ele>
        <time>2021-08-27T09:15:49.000Z</time>
      </trkpt>
      <trkpt lat="49.80623" lon="4.83948">
        <ele>232</ele>
        <time>2021-08-27T09:15:50.000Z</time>
      </trkpt>
      <trkpt lat="49.8062" lon="4.83948">
        <ele>232</ele>
        <time>2021-08-27T09:15:51.000Z</time>
      </trkpt>
      <trkpt lat="49.80617" lon="4.83949">
        <ele>232</ele>
        <time>2021-08-27T09:15:52.000Z</time>
      </trkpt>
      <trkpt lat="49.80614" lon="4.8395">
        <ele>231</ele>
        <time>2021-08-27T09:15:53.000Z</time>
      </trkpt>
      <trkpt lat="49.8061" lon="4.8395">
        <ele>231</ele>
        <time>2021-08-27T09:15:54.000Z</time>
      </trkpt>
      <trkpt lat="49.80606" lon="4.8395">
        <ele>231</ele>
        <time>2021-08-27T09:15:55.000Z</time>
      </trkpt>
      <trkpt lat="49.80603" lon="4.83951">
        <ele>230</ele>
        <time>2021-08-27T09:15:56.000Z</time>
      </trkpt>
      <trkpt lat="49.806" lon="4.83951">
        <ele>230</ele>
        <time>2021-08-27T09:15:57.000Z</time>
      </trkpt>
      <trkpt lat="49.80597" lon="4.83952">
        <ele>230</ele>
        <time>2021-08-27T09:15:58.000Z</time>
      </trkpt>
      <trkpt lat="49.80594" lon="4.83952">
        <ele>229</ele>
        <time>2021-08-27T09:15:59.000Z</time>
      </trkpt>
      <trkpt lat="49.80592" lon="4.83952">
        <ele>229</ele>
        <time>2021-08-27T09:16:00.000Z</time>
      </trkpt>
      <trkpt lat="49.80589" lon="4.83952">
        <ele>229</ele>
        <time>2021-08-27T09:16:01.000Z</time>
      </trkpt>
      <trkpt lat="49.80586" lon="4.83953">
        <ele>229</ele>
        <time>2021-08-27T09:16:02.000Z</time>
      </trkpt>
      <trkpt lat="49.80583" lon="4.83953">
        <ele>228</ele>
        <time>2021-08-27T09:16:03.000Z</time>
      </trkpt>
      <trkpt lat="49.80579" lon="4.83953">
        <ele>228</ele>
        <time>2021-08-27T09:16:04.000Z</time>
      </trkpt>
      <trkpt lat="49.80576" lon="4.83954">
        <ele>228</ele>
        <time>2021-08-27T09:16:05.000Z</time>
      </trkpt>
      <trkpt lat="49.80573" lon="4.83954">
        <ele>228</ele>
        <time>2021-08-27T09:16:06.000Z</time>
      </trkpt>
      <trkpt lat="49.8057" lon="4.83954">
        <ele>227</ele>
        <time>2021-08-27T09:16:07.000Z</time>
      </trkpt>
      <trkpt lat="49.80567" lon="4.83954">
        <ele>227</ele>
        <time>2021-08-27T09:16:08.000Z</time>
      </trkpt>
      <trkpt lat="49.80564" lon="4.83955">
        <ele>227</ele>
        <time>2021-08-27T09:16:09.000Z</time>
      </trkpt>
      <trkpt lat="49.80561" lon="4.83955">
        <ele>227</ele>
        <time>2021-08-27T09:16:10.000Z</time>
      </trkpt>
      <trkpt lat="49.80558" lon="4.83955">
        <ele>227</ele>
        <time>2021-08-27T09:16:11.000Z</time>
      </trkpt>
      <trkpt lat="49.80555" lon="4.83956">
        <ele>226</ele>
        <time>2021-08-27T09:16:12.000Z</time>
      </trkpt>
      <trkpt lat="49.80552" lon="4.83956">
        <ele>226</ele>
        <time>2021-08-27T09:16:13.000Z</time>
      </trkpt>
      <trkpt lat="49.80549" lon="4.83956">
        <ele>226</ele>
        <time>2021-08-27T09:16:14.000Z</time>
      </trkpt>
      <trkpt lat="49.80545" lon="4.83957">
        <ele>226</ele>
        <time>2021-08-27T09:16:15.000Z</time>
      </trkpt>
      <trkpt lat="49.80542" lon="4.83957">
        <ele>226</ele>
        <time>2021-08-27T09:16:16.000Z</time>
      </trkpt>
      <trkpt lat="49.80539" lon="4.83957">
        <ele>226</ele>
        <time>2021-08-27T09:16:17.000Z</time>
      </trkpt>
      <trkpt lat="49.80536" lon="4.83958">
        <ele>225</ele>
        <time>2021-08-27T09:16:18.000Z</time>
      </trkpt>
      <trkpt lat="49.80534" lon="4.83957">
        <ele>225</ele>
        <time>2021-08-27T09:16:19.000Z</time>
      </trkpt>
      <trkpt lat="49.80532" lon="4.83957">
        <ele>225</ele>
        <time>2021-08-27T09:16:20.000Z</time>
      </trkpt>
      <trkpt lat="49.8053" lon="4.83957">
        <ele>225</ele>
        <time>2021-08-27T09:16:21.000Z</time>
      </trkpt>
      <trkpt lat="49.80528" lon="4.83957">
        <ele>225</ele>
        <time>2021-08-27T09:16:22.000Z</time>
      </trkpt>
      <trkpt lat="49.80527" lon="4.83958">
        <ele>225</ele>
        <time>2021-08-27T09:16:23.000Z</time>
      </trkpt>
      <trkpt lat="49.80525" lon="4.83958">
        <ele>225</ele>
        <time>2021-08-27T09:16:24.000Z</time>
      </trkpt>
      <trkpt lat="49.80523" lon="4.83959">
        <ele>224</ele>
        <time>2021-08-27T09:16:25.000Z</time>
      </trkpt>
      <trkpt lat="49.80522" lon="4.8396">
        <ele>224</ele>
        <time>2021-08-27T09:16:26.000Z</time>
      </trkpt>
      <trkpt lat="49.8052" lon="4.8396">
        <ele>224</ele>
        <time>2021-08-27T09:16:27.000Z</time>
      </trkpt>
      <trkpt lat="49.80518" lon="4.83961">
        <ele>224</ele>
        <time>2021-08-27T09:16:28.000Z</time>
      </trkpt>
      <trkpt lat="49.80516" lon="4.83961">
        <ele>224</ele>
        <time>2021-08-27T09:16:29.000Z</time>
      </trkpt>
      <trkpt lat="49.80515" lon="4.83962">
        <ele>224</ele>
        <time>2021-08-27T09:16:30.000Z</time>
      </trkpt>
      <trkpt lat="49.80513" lon="4.83961">
        <ele>224</ele>
        <time>2021-08-27T09:16:31.000Z</time>
      </trkpt>
      <trkpt lat="49.80511" lon="4.83962">
        <ele>224</ele>
        <time>2021-08-27T09:16:32.000Z</time>
      </trkpt>
      <trkpt lat="49.80509" lon="4.83962">
        <ele>224</ele>
        <time>2021-08-27T09:16:33.000Z</time>
      </trkpt>
      <trkpt lat="49.80507" lon="4.83962">
        <ele>224</ele>
        <time>2021-08-27T09:16:34.000Z</time>
      </trkpt>
      <trkpt lat="49.80506" lon="4.83961">
        <ele>224</ele>
        <time>2021-08-27T09:16:35.000Z</time>
      </trkpt>
      <trkpt lat="49.80504" lon="4.8396">
        <ele>224</ele>
        <time>2021-08-27T09:16:36.000Z</time>
      </trkpt>
      <trkpt lat="49.80502" lon="4.83958">
        <ele>224</ele>
        <time>2021-08-27T09:16:37.000Z</time>
      </trkpt>
      <trkpt lat="49.805" lon="4.83955">
        <ele>224</ele>
        <time>2021-08-27T09:16:38.000Z</time>
      </trkpt>
      <trkpt lat="49.80498" lon="4.83952">
        <ele>224</ele>
        <time>2021-08-27T09:16:39.000Z</time>
      </trkpt>
      <trkpt lat="49.80496" lon="4.83949">
        <ele>224</ele>
        <time>2021-08-27T09:16:40.000Z</time>
      </trkpt>
      <trkpt lat="49.80494" lon="4.83947">
        <ele>224</ele>
        <time>2021-08-27T09:16:41.000Z</time>
      </trkpt>
      <trkpt lat="49.80492" lon="4.83944">
        <ele>223</ele>
        <time>2021-08-27T09:16:42.000Z</time>
      </trkpt>
      <trkpt lat="49.8049" lon="4.83941">
        <ele>223</ele>
        <time>2021-08-27T09:16:43.000Z</time>
      </trkpt>
      <trkpt lat="49.80487" lon="4.83938">
        <ele>223</ele>
        <time>2021-08-27T09:16:44.000Z</time>
      </trkpt>
      <trkpt lat="49.80484" lon="4.83935">
        <ele>223</ele>
        <time>2021-08-27T09:16:45.000Z</time>
      </trkpt>
      <trkpt lat="49.80482" lon="4.83932">
        <ele>223</ele>
        <time>2021-08-27T09:16:46.000Z</time>
      </trkpt>
      <trkpt lat="49.80479" lon="4.83929">
        <ele>223</ele>
        <time>2021-08-27T09:16:47.000Z</time>
      </trkpt>
      <trkpt lat="49.80476" lon="4.83927">
        <ele>223</ele>
        <time>2021-08-27T09:16:48.000Z</time>
      </trkpt>
      <trkpt lat="49.80474" lon="4.83924">
        <ele>223</ele>
        <time>2021-08-27T09:16:49.000Z</time>
      </trkpt>
      <trkpt lat="49.80471" lon="4.83922">
        <ele>223</ele>
        <time>2021-08-27T09:16:50.000Z</time>
      </trkpt>
      <trkpt lat="49.80469" lon="4.83921">
        <ele>222</ele>
        <time>2021-08-27T09:16:51.000Z</time>
      </trkpt>
      <trkpt lat="49.80466" lon="4.83919">
        <ele>222</ele>
        <time>2021-08-27T09:16:52.000Z</time>
      </trkpt>
      <trkpt lat="49.80463" lon="4.83917">
        <ele>222</ele>
        <time>2021-08-27T09:16:53.000Z</time>
      </trkpt>
      <trkpt lat="49.8046" lon="4.83916">
        <ele>222</ele>
        <time>2021-08-27T09:16:54.000Z</time>
      </trkpt>
      <trkpt lat="49.80457" lon="4.83914">
        <ele>222</ele>
        <time>2021-08-27T09:16:55.000Z</time>
      </trkpt>
      <trkpt lat="49.80454" lon="4.83912">
        <ele>222</ele>
        <time>2021-08-27T09:16:56.000Z</time>
      </trkpt>
      <trkpt lat="49.80451" lon="4.8391">
        <ele>222</ele>
        <time>2021-08-27T09:16:57.000Z</time>
      </trkpt>
      <trkpt lat="49.80448" lon="4.83909">
        <ele>222</ele>
        <time>2021-08-27T09:16:58.000Z</time>
      </trkpt>
      <trkpt lat="49.80444" lon="4.83907">
        <ele>222</ele>
        <time>2021-08-27T09:16:59.000Z</time>
      </trkpt>
      <trkpt lat="49.80441" lon="4.83906">
        <ele>222</ele>
        <time>2021-08-27T09:17:00.000Z</time>
      </trkpt>
      <trkpt lat="49.80438" lon="4.83904">
        <ele>222</ele>
        <time>2021-08-27T09:17:01.000Z</time>
      </trkpt>
      <trkpt lat="49.80435" lon="4.83902">
        <ele>222</ele>
        <time>2021-08-27T09:17:02.000Z</time>
      </trkpt>
      <trkpt lat="49.80432" lon="4.83899">
        <ele>222</ele>
        <time>2021-08-27T09:17:03.000Z</time>
      </trkpt>
      <trkpt lat="49.80428" lon="4.83897">
        <ele>222</ele>
        <time>2021-08-27T09:17:04.000Z</time>
      </trkpt>
      <trkpt lat="49.80425" lon="4.83895">
        <ele>222</ele>
        <time>2021-08-27T09:17:05.000Z</time>
      </trkpt>
      <trkpt lat="49.80422" lon="4.83892">
        <ele>222</ele>
        <time>2021-08-27T09:17:06.000Z</time>
      </trkpt>
      <trkpt lat="49.80418" lon="4.8389">
        <ele>222</ele>
        <time>2021-08-27T09:17:07.000Z</time>
      </trkpt>
      <trkpt lat="49.80415" lon="4.83887">
        <ele>222</ele>
        <time>2021-08-27T09:17:08.000Z</time>
      </trkpt>
      <trkpt lat="49.80412" lon="4.83885">
        <ele>222</ele>
        <time>2021-08-27T09:17:09.000Z</time>
      </trkpt>
      <trkpt lat="49.80409" lon="4.83882">
        <ele>222</ele>
        <time>2021-08-27T09:17:10.000Z</time>
      </trkpt>
      <trkpt lat="49.80406" lon="4.83877">
        <ele>222</ele>
        <time>2021-08-27T09:17:11.000Z</time>
      </trkpt>
      <trkpt lat="49.80403" lon="4.83872">
        <ele>222</ele>
        <time>2021-08-27T09:17:12.000Z</time>
      </trkpt>
      <trkpt lat="49.804" lon="4.83868">
        <ele>222</ele>
        <time>2021-08-27T09:17:13.000Z</time>
      </trkpt>
      <trkpt lat="49.80397" lon="4.83867">
        <ele>221</ele>
        <time>2021-08-27T09:17:14.000Z</time>
      </trkpt>
      <trkpt lat="49.80393" lon="4.83866">
        <ele>221</ele>
        <time>2021-08-27T09:17:15.000Z</time>
      </trkpt>
      <trkpt lat="49.8039" lon="4.83866">
        <ele>221</ele>
        <time>2021-08-27T09:17:16.000Z</time>
      </trkpt>
      <trkpt lat="49.80386" lon="4.83866">
        <ele>221</ele>
        <time>2021-08-27T09:17:17.000Z</time>
      </trkpt>
      <trkpt lat="49.80382" lon="4.83866">
        <ele>221</ele>
        <time>2021-08-27T09:17:18.000Z</time>
      </trkpt>
      <trkpt lat="49.80379" lon="4.83865">
        <ele>221</ele>
        <time>2021-08-27T09:17:19.000Z</time>
      </trkpt>
      <trkpt lat="49.80376" lon="4.83865">
        <ele>221</ele>
        <time>2021-08-27T09:17:20.000Z</time>
      </trkpt>
      <trkpt lat="49.80373" lon="4.83865">
        <ele>221</ele>
        <time>2021-08-27T09:17:21.000Z</time>
      </trkpt>
      <trkpt lat="49.8037" lon="4.83865">
        <ele>221</ele>
        <time>2021-08-27T09:17:22.000Z</time>
      </trkpt>
      <trkpt lat="49.80366" lon="4.83864">
        <ele>221</ele>
        <time>2021-08-27T09:17:23.000Z</time>
      </trkpt>
      <trkpt lat="49.80363" lon="4.83863">
        <ele>221</ele>
        <time>2021-08-27T09:17:24.000Z</time>
      </trkpt>
      <trkpt lat="49.80359" lon="4.83863">
        <ele>221</ele>
        <time>2021-08-27T09:17:25.000Z</time>
      </trkpt>
      <trkpt lat="49.80356" lon="4.83862">
        <ele>221</ele>
        <time>2021-08-27T09:17:26.000Z</time>
      </trkpt>
      <trkpt lat="49.80352" lon="4.83861">
        <ele>221</ele>
        <time>2021-08-27T09:17:27.000Z</time>
      </trkpt>
      <trkpt lat="49.80349" lon="4.8386">
        <ele>221</ele>
        <time>2021-08-27T09:17:28.000Z</time>
      </trkpt>
      <trkpt lat="49.80345" lon="4.8386">
        <ele>221</ele>
        <time>2021-08-27T09:17:29.000Z</time>
      </trkpt>
      <trkpt lat="49.80342" lon="4.83859">
        <ele>221</ele>
        <time>2021-08-27T09:17:30.000Z</time>
      </trkpt>
      <trkpt lat="49.80338" lon="4.83858">
        <ele>221</ele>
        <time>2021-08-27T09:17:31.000Z</time>
      </trkpt>
      <trkpt lat="49.80335" lon="4.83857">
        <ele>221</ele>
        <time>2021-08-27T09:17:32.000Z</time>
      </trkpt>
      <trkpt lat="49.80331" lon="4.83857">
        <ele>221</ele>
        <time>2021-08-27T09:17:33.000Z</time>
      </trkpt>
      <trkpt lat="49.80328" lon="4.83857">
        <ele>221</ele>
        <time>2021-08-27T09:17:34.000Z</time>
      </trkpt>
      <trkpt lat="49.80325" lon="4.83856">
        <ele>221</ele>
        <time>2021-08-27T09:17:35.000Z</time>
      </trkpt>
      <trkpt lat="49.80322" lon="4.83856">
        <ele>222</ele>
        <time>2021-08-27T09:17:36.000Z</time>
      </trkpt>
      <trkpt lat="49.80318" lon="4.83855">
        <ele>222</ele>
        <time>2021-08-27T09:17:37.000Z</time>
      </trkpt>
      <trkpt lat="49.80314" lon="4.83854">
        <ele>222</ele>
        <time>2021-08-27T09:17:38.000Z</time>
      </trkpt>
      <trkpt lat="49.80311" lon="4.83854">
        <ele>222</ele>
        <time>2021-08-27T09:17:39.000Z</time>
      </trkpt>
      <trkpt lat="49.80308" lon="4.83854">
        <ele>223</ele>
        <time>2021-08-27T09:17:40.000Z</time>
      </trkpt>
      <trkpt lat="49.80305" lon="4.83854">
        <ele>223</ele>
        <time>2021-08-27T09:17:41.000Z</time>
      </trkpt>
      <trkpt lat="49.80301" lon="4.83854">
        <ele>223</ele>
        <time>2021-08-27T09:17:42.000Z</time>
      </trkpt>
      <trkpt lat="49.80297" lon="4.83853">
        <ele>223</ele>
        <time>2021-08-27T09:17:43.000Z</time>
      </trkpt>
      <trkpt lat="49.80293" lon="4.83852">
        <ele>223</ele>
        <time>2021-08-27T09:17:44.000Z</time>
      </trkpt>
      <trkpt lat="49.8029" lon="4.83851">
        <ele>223</ele>
        <time>2021-08-27T09:17:45.000Z</time>
      </trkpt>
      <trkpt lat="49.80286" lon="4.8385">
        <ele>224</ele>
        <time>2021-08-27T09:17:46.000Z</time>
      </trkpt>
      <trkpt lat="49.80282" lon="4.8385">
        <ele>224</ele>
        <time>2021-08-27T09:17:47.000Z</time>
      </trkpt>
      <trkpt lat="49.80278" lon="4.83849">
        <ele>224</ele>
        <time>2021-08-27T09:17:48.000Z</time>
      </trkpt>
      <trkpt lat="49.80273" lon="4.83848">
        <ele>224</ele>
        <time>2021-08-27T09:17:49.000Z</time>
      </trkpt>
      <trkpt lat="49.80269" lon="4.83847">
        <ele>224</ele>
        <time>2021-08-27T09:17:50.000Z</time>
      </trkpt>
      <trkpt lat="49.80265" lon="4.83847">
        <ele>224</ele>
        <time>2021-08-27T09:17:51.000Z</time>
      </trkpt>
      <trkpt lat="49.80261" lon="4.83846">
        <ele>224</ele>
        <time>2021-08-27T09:17:52.000Z</time>
      </trkpt>
      <trkpt lat="49.80257" lon="4.83847">
        <ele>225</ele>
        <time>2021-08-27T09:17:53.000Z</time>
      </trkpt>
      <trkpt lat="49.80253" lon="4.83847">
        <ele>225</ele>
        <time>2021-08-27T09:17:54.000Z</time>
      </trkpt>
      <trkpt lat="49.80249" lon="4.83847">
        <ele>225</ele>
        <time>2021-08-27T09:17:55.000Z</time>
      </trkpt>
      <trkpt lat="49.80245" lon="4.83848">
        <ele>226</ele>
        <time>2021-08-27T09:17:56.000Z</time>
      </trkpt>
      <trkpt lat="49.80242" lon="4.83849">
        <ele>226</ele>
        <time>2021-08-27T09:17:57.000Z</time>
      </trkpt>
      <trkpt lat="49.80238" lon="4.83849">
        <ele>227</ele>
        <time>2021-08-27T09:17:58.000Z</time>
      </trkpt>
      <trkpt lat="49.80234" lon="4.83849">
        <ele>227</ele>
        <time>2021-08-27T09:17:59.000Z</time>
      </trkpt>
      <trkpt lat="49.80229" lon="4.83849">
        <ele>227</ele>
        <time>2021-08-27T09:18:00.000Z</time>
      </trkpt>
      <trkpt lat="49.80225" lon="4.83849">
        <ele>227</ele>
        <time>2021-08-27T09:18:01.000Z</time>
      </trkpt>
      <trkpt lat="49.80221" lon="4.83849">
        <ele>228</ele>
        <time>2021-08-27T09:18:02.000Z</time>
      </trkpt>
      <trkpt lat="49.80216" lon="4.83849">
        <ele>228</ele>
        <time>2021-08-27T09:18:03.000Z</time>
      </trkpt>
      <trkpt lat="49.80212" lon="4.83848">
        <ele>228</ele>
        <time>2021-08-27T09:18:04.000Z</time>
      </trkpt>
      <trkpt lat="49.80208" lon="4.83848">
        <ele>228</ele>
        <time>2021-08-27T09:18:05.000Z</time>
      </trkpt>
      <trkpt lat="49.80203" lon="4.83847">
        <ele>229</ele>
        <time>2021-08-27T09:18:06.000Z</time>
      </trkpt>
      <trkpt lat="49.80198" lon="4.83845">
        <ele>229</ele>
        <time>2021-08-27T09:18:07.000Z</time>
      </trkpt>
      <trkpt lat="49.80194" lon="4.83844">
        <ele>229</ele>
        <time>2021-08-27T09:18:08.000Z</time>
      </trkpt>
      <trkpt lat="49.8019" lon="4.83844">
        <ele>229</ele>
        <time>2021-08-27T09:18:09.000Z</time>
      </trkpt>
      <trkpt lat="49.80186" lon="4.83843">
        <ele>229</ele>
        <time>2021-08-27T09:18:10.000Z</time>
      </trkpt>
      <trkpt lat="49.80182" lon="4.83842">
        <ele>229</ele>
        <time>2021-08-27T09:18:11.000Z</time>
      </trkpt>
      <trkpt lat="49.80178" lon="4.83841">
        <ele>229</ele>
        <time>2021-08-27T09:18:12.000Z</time>
      </trkpt>
      <trkpt lat="49.80175" lon="4.83841">
        <ele>229</ele>
        <time>2021-08-27T09:18:13.000Z</time>
      </trkpt>
      <trkpt lat="49.80171" lon="4.8384">
        <ele>229</ele>
        <time>2021-08-27T09:18:14.000Z</time>
      </trkpt>
      <trkpt lat="49.80167" lon="4.83839">
        <ele>229</ele>
        <time>2021-08-27T09:18:15.000Z</time>
      </trkpt>
      <trkpt lat="49.80163" lon="4.83838">
        <ele>229</ele>
        <time>2021-08-27T09:18:16.000Z</time>
      </trkpt>
      <trkpt lat="49.80158" lon="4.83837">
        <ele>229</ele>
        <time>2021-08-27T09:18:17.000Z</time>
      </trkpt>
      <trkpt lat="49.80154" lon="4.83836">
        <ele>229</ele>
        <time>2021-08-27T09:18:18.000Z</time>
      </trkpt>
      <trkpt lat="49.8015" lon="4.83834">
        <ele>229</ele>
        <time>2021-08-27T09:18:19.000Z</time>
      </trkpt>
      <trkpt lat="49.80146" lon="4.83833">
        <ele>229</ele>
        <time>2021-08-27T09:18:20.000Z</time>
      </trkpt>
      <trkpt lat="49.80142" lon="4.83831">
        <ele>229</ele>
        <time>2021-08-27T09:18:21.000Z</time>
      </trkpt>
      <trkpt lat="49.80137" lon="4.8383">
        <ele>229</ele>
        <time>2021-08-27T09:18:22.000Z</time>
      </trkpt>
      <trkpt lat="49.80133" lon="4.83829">
        <ele>229</ele>
        <time>2021-08-27T09:18:23.000Z</time>
      </trkpt>
      <trkpt lat="49.80129" lon="4.83829">
        <ele>229</ele>
        <time>2021-08-27T09:18:24.000Z</time>
      </trkpt>
      <trkpt lat="49.80126" lon="4.83829">
        <ele>229</ele>
        <time>2021-08-27T09:18:25.000Z</time>
      </trkpt>
      <trkpt lat="49.80122" lon="4.83828">
        <ele>229</ele>
        <time>2021-08-27T09:18:26.000Z</time>
      </trkpt>
      <trkpt lat="49.80119" lon="4.83827">
        <ele>229</ele>
        <time>2021-08-27T09:18:27.000Z</time>
      </trkpt>
      <trkpt lat="49.80116" lon="4.83826">
        <ele>230</ele>
        <time>2021-08-27T09:18:28.000Z</time>
      </trkpt>
      <trkpt lat="49.80112" lon="4.83824">
        <ele>230</ele>
        <time>2021-08-27T09:18:29.000Z</time>
      </trkpt>
      <trkpt lat="49.80107" lon="4.83823">
        <ele>230</ele>
        <time>2021-08-27T09:18:30.000Z</time>
      </trkpt>
      <trkpt lat="49.80103" lon="4.83823">
        <ele>230</ele>
        <time>2021-08-27T09:18:31.000Z</time>
      </trkpt>
      <trkpt lat="49.80098" lon="4.83822">
        <ele>230</ele>
        <time>2021-08-27T09:18:32.000Z</time>
      </trkpt>
      <trkpt lat="49.80094" lon="4.83821">
        <ele>230</ele>
        <time>2021-08-27T09:18:33.000Z</time>
      </trkpt>
      <trkpt lat="49.8009" lon="4.8382">
        <ele>230</ele>
        <time>2021-08-27T09:18:34.000Z</time>
      </trkpt>
      <trkpt lat="49.80086" lon="4.83818">
        <ele>231</ele>
        <time>2021-08-27T09:18:35.000Z</time>
      </trkpt>
      <trkpt lat="49.80082" lon="4.83816">
        <ele>231</ele>
        <time>2021-08-27T09:18:36.000Z</time>
      </trkpt>
      <trkpt lat="49.80078" lon="4.83814">
        <ele>231</ele>
        <time>2021-08-27T09:18:37.000Z</time>
      </trkpt>
      <trkpt lat="49.80074" lon="4.83812">
        <ele>231</ele>
        <time>2021-08-27T09:18:38.000Z</time>
      </trkpt>
      <trkpt lat="49.80069" lon="4.8381">
        <ele>231</ele>
        <time>2021-08-27T09:18:39.000Z</time>
      </trkpt>
      <trkpt lat="49.80064" lon="4.83808">
        <ele>232</ele>
        <time>2021-08-27T09:18:40.000Z</time>
      </trkpt>
      <trkpt lat="49.80059" lon="4.83807">
        <ele>232</ele>
        <time>2021-08-27T09:18:41.000Z</time>
      </trkpt>
      <trkpt lat="49.80054" lon="4.83805">
        <ele>232</ele>
        <time>2021-08-27T09:18:42.000Z</time>
      </trkpt>
      <trkpt lat="49.80049" lon="4.83803">
        <ele>232</ele>
        <time>2021-08-27T09:18:43.000Z</time>
      </trkpt>
      <trkpt lat="49.80044" lon="4.83801">
        <ele>232</ele>
        <time>2021-08-27T09:18:44.000Z</time>
      </trkpt>
      <trkpt lat="49.80039" lon="4.83798">
        <ele>232</ele>
        <time>2021-08-27T09:18:45.000Z</time>
      </trkpt>
      <trkpt lat="49.80034" lon="4.83796">
        <ele>232</ele>
        <time>2021-08-27T09:18:46.000Z</time>
      </trkpt>
      <trkpt lat="49.80029" lon="4.83794">
        <ele>232</ele>
        <time>2021-08-27T09:18:47.000Z</time>
      </trkpt>
      <trkpt lat="49.80024" lon="4.83792">
        <ele>232</ele>
        <time>2021-08-27T09:18:48.000Z</time>
      </trkpt>
      <trkpt lat="49.80019" lon="4.83791">
        <ele>232</ele>
        <time>2021-08-27T09:18:49.000Z</time>
      </trkpt>
      <trkpt lat="49.80015" lon="4.83789">
        <ele>232</ele>
        <time>2021-08-27T09:18:50.000Z</time>
      </trkpt>
      <trkpt lat="49.8001" lon="4.83787">
        <ele>232</ele>
        <time>2021-08-27T09:18:51.000Z</time>
      </trkpt>
      <trkpt lat="49.80005" lon="4.83785">
        <ele>232</ele>
        <time>2021-08-27T09:18:52.000Z</time>
      </trkpt>
      <trkpt lat="49.8" lon="4.83785">
        <ele>232</ele>
        <time>2021-08-27T09:18:53.000Z</time>
      </trkpt>
      <trkpt lat="49.79995" lon="4.83783">
        <ele>232</ele>
        <time>2021-08-27T09:18:54.000Z</time>
      </trkpt>
      <trkpt lat="49.79991" lon="4.83782">
        <ele>232</ele>
        <time>2021-08-27T09:18:55.000Z</time>
      </trkpt>
      <trkpt lat="49.79987" lon="4.83781">
        <ele>232</ele>
        <time>2021-08-27T09:18:56.000Z</time>
      </trkpt>
      <trkpt lat="49.79982" lon="4.8378">
        <ele>233</ele>
        <time>2021-08-27T09:18:57.000Z</time>
      </trkpt>
      <trkpt lat="49.79977" lon="4.83778">
        <ele>233</ele>
        <time>2021-08-27T09:18:58.000Z</time>
      </trkpt>
      <trkpt lat="49.79972" lon="4.83776">
        <ele>233</ele>
        <time>2021-08-27T09:18:59.000Z</time>
      </trkpt>
      <trkpt lat="49.79967" lon="4.83775">
        <ele>233</ele>
        <time>2021-08-27T09:19:00.000Z</time>
      </trkpt>
      <trkpt lat="49.79962" lon="4.83774">
        <ele>233</ele>
        <time>2021-08-27T09:19:01.000Z</time>
      </trkpt>
      <trkpt lat="49.79958" lon="4.83773">
        <ele>233</ele>
        <time>2021-08-27T09:19:02.000Z</time>
      </trkpt>
      <trkpt lat="49.79954" lon="4.83772">
        <ele>233</ele>
        <time>2021-08-27T09:19:03.000Z</time>
      </trkpt>
      <trkpt lat="49.7995" lon="4.83771">
        <ele>233</ele>
        <time>2021-08-27T09:19:04.000Z</time>
      </trkpt>
      <trkpt lat="49.79944" lon="4.8377">
        <ele>234</ele>
        <time>2021-08-27T09:19:05.000Z</time>
      </trkpt>
      <trkpt lat="49.7994" lon="4.83769">
        <ele>234</ele>
        <time>2021-08-27T09:19:06.000Z</time>
      </trkpt>
      <trkpt lat="49.79935" lon="4.83767">
        <ele>234</ele>
        <time>2021-08-27T09:19:07.000Z</time>
      </trkpt>
      <trkpt lat="49.7993" lon="4.83767">
        <ele>234</ele>
        <time>2021-08-27T09:19:08.000Z</time>
      </trkpt>
      <trkpt lat="49.79926" lon="4.83767">
        <ele>235</ele>
        <time>2021-08-27T09:19:09.000Z</time>
      </trkpt>
      <trkpt lat="49.79921" lon="4.83766">
        <ele>235</ele>
        <time>2021-08-27T09:19:10.000Z</time>
      </trkpt>
      <trkpt lat="49.79916" lon="4.83765">
        <ele>235</ele>
        <time>2021-08-27T09:19:11.000Z</time>
      </trkpt>
      <trkpt lat="49.79911" lon="4.83765">
        <ele>235</ele>
        <time>2021-08-27T09:19:12.000Z</time>
      </trkpt>
      <trkpt lat="49.79906" lon="4.83765">
        <ele>235</ele>
        <time>2021-08-27T09:19:13.000Z</time>
      </trkpt>
      <trkpt lat="49.79901" lon="4.83764">
        <ele>235</ele>
        <time>2021-08-27T09:19:14.000Z</time>
      </trkpt>
      <trkpt lat="49.79895" lon="4.83762">
        <ele>235</ele>
        <time>2021-08-27T09:19:15.000Z</time>
      </trkpt>
      <trkpt lat="49.7989" lon="4.83761">
        <ele>235</ele>
        <time>2021-08-27T09:19:16.000Z</time>
      </trkpt>
      <trkpt lat="49.79885" lon="4.83759">
        <ele>235</ele>
        <time>2021-08-27T09:19:17.000Z</time>
      </trkpt>
      <trkpt lat="49.79879" lon="4.83758">
        <ele>235</ele>
        <time>2021-08-27T09:19:18.000Z</time>
      </trkpt>
      <trkpt lat="49.79875" lon="4.83757">
        <ele>235</ele>
        <time>2021-08-27T09:19:19.000Z</time>
      </trkpt>
      <trkpt lat="49.79871" lon="4.83757">
        <ele>235</ele>
        <time>2021-08-27T09:19:20.000Z</time>
      </trkpt>
      <trkpt lat="49.79867" lon="4.83756">
        <ele>236</ele>
        <time>2021-08-27T09:19:21.000Z</time>
      </trkpt>
      <trkpt lat="49.79862" lon="4.83755">
        <ele>236</ele>
        <time>2021-08-27T09:19:22.000Z</time>
      </trkpt>
      <trkpt lat="49.79858" lon="4.83755">
        <ele>236</ele>
        <time>2021-08-27T09:19:23.000Z</time>
      </trkpt>
      <trkpt lat="49.79853" lon="4.83754">
        <ele>236</ele>
        <time>2021-08-27T09:19:24.000Z</time>
      </trkpt>
      <trkpt lat="49.79849" lon="4.83754">
        <ele>236</ele>
        <time>2021-08-27T09:19:25.000Z</time>
      </trkpt>
      <trkpt lat="49.79844" lon="4.83753">
        <ele>236</ele>
        <time>2021-08-27T09:19:26.000Z</time>
      </trkpt>
      <trkpt lat="49.79839" lon="4.83752">
        <ele>236</ele>
        <time>2021-08-27T09:19:27.000Z</time>
      </trkpt>
      <trkpt lat="49.79833" lon="4.83749">
        <ele>236</ele>
        <time>2021-08-27T09:19:28.000Z</time>
      </trkpt>
      <trkpt lat="49.79828" lon="4.83748">
        <ele>236</ele>
        <time>2021-08-27T09:19:29.000Z</time>
      </trkpt>
      <trkpt lat="49.79822" lon="4.83747">
        <ele>236</ele>
        <time>2021-08-27T09:19:30.000Z</time>
      </trkpt>
      <trkpt lat="49.79816" lon="4.83745">
        <ele>236</ele>
        <time>2021-08-27T09:19:31.000Z</time>
      </trkpt>
      <trkpt lat="49.79811" lon="4.83744">
        <ele>236</ele>
        <time>2021-08-27T09:19:32.000Z</time>
      </trkpt>
      <trkpt lat="49.79805" lon="4.83742">
        <ele>236</ele>
        <time>2021-08-27T09:19:33.000Z</time>
      </trkpt>
      <trkpt lat="49.79799" lon="4.83741">
        <ele>235</ele>
        <time>2021-08-27T09:19:34.000Z</time>
      </trkpt>
      <trkpt lat="49.79793" lon="4.8374">
        <ele>235</ele>
        <time>2021-08-27T09:19:35.000Z</time>
      </trkpt>
      <trkpt lat="49.79787" lon="4.83739">
        <ele>235</ele>
        <time>2021-08-27T09:19:36.000Z</time>
      </trkpt>
      <trkpt lat="49.79782" lon="4.83739">
        <ele>235</ele>
        <time>2021-08-27T09:19:37.000Z</time>
      </trkpt>
      <trkpt lat="49.79776" lon="4.83739">
        <ele>235</ele>
        <time>2021-08-27T09:19:38.000Z</time>
      </trkpt>
      <trkpt lat="49.7977" lon="4.83738">
        <ele>235</ele>
        <time>2021-08-27T09:19:39.000Z</time>
      </trkpt>
      <trkpt lat="49.79764" lon="4.83738">
        <ele>235</ele>
        <time>2021-08-27T09:19:40.000Z</time>
      </trkpt>
      <trkpt lat="49.79758" lon="4.83738">
        <ele>235</ele>
        <time>2021-08-27T09:19:41.000Z</time>
      </trkpt>
      <trkpt lat="49.79753" lon="4.83739">
        <ele>235</ele>
        <time>2021-08-27T09:19:42.000Z</time>
      </trkpt>
      <trkpt lat="49.79748" lon="4.83738">
        <ele>234</ele>
        <time>2021-08-27T09:19:43.000Z</time>
      </trkpt>
      <trkpt lat="49.79743" lon="4.83737">
        <ele>234</ele>
        <time>2021-08-27T09:19:44.000Z</time>
      </trkpt>
      <trkpt lat="49.79738" lon="4.83737">
        <ele>234</ele>
        <time>2021-08-27T09:19:45.000Z</time>
      </trkpt>
      <trkpt lat="49.79732" lon="4.83738">
        <ele>234</ele>
        <time>2021-08-27T09:19:46.000Z</time>
      </trkpt>
      <trkpt lat="49.79728" lon="4.83738">
        <ele>234</ele>
        <time>2021-08-27T09:19:47.000Z</time>
      </trkpt>
      <trkpt lat="49.79722" lon="4.83738">
        <ele>234</ele>
        <time>2021-08-27T09:19:48.000Z</time>
      </trkpt>
      <trkpt lat="49.79717" lon="4.83738">
        <ele>234</ele>
        <time>2021-08-27T09:19:49.000Z</time>
      </trkpt>
      <trkpt lat="49.79712" lon="4.83739">
        <ele>234</ele>
        <time>2021-08-27T09:19:50.000Z</time>
      </trkpt>
      <trkpt lat="49.79706" lon="4.83739">
        <ele>234</ele>
        <time>2021-08-27T09:19:51.000Z</time>
      </trkpt>
      <trkpt lat="49.79701" lon="4.83739">
        <ele>233</ele>
        <time>2021-08-27T09:19:52.000Z</time>
      </trkpt>
      <trkpt lat="49.79695" lon="4.83739">
        <ele>233</ele>
        <time>2021-08-27T09:19:53.000Z</time>
      </trkpt>
      <trkpt lat="49.79688" lon="4.83739">
        <ele>232</ele>
        <time>2021-08-27T09:19:54.000Z</time>
      </trkpt>
      <trkpt lat="49.79682" lon="4.83738">
        <ele>232</ele>
        <time>2021-08-27T09:19:55.000Z</time>
      </trkpt>
      <trkpt lat="49.79675" lon="4.83738">
        <ele>232</ele>
        <time>2021-08-27T09:19:56.000Z</time>
      </trkpt>
      <trkpt lat="49.79669" lon="4.83739">
        <ele>231</ele>
        <time>2021-08-27T09:19:57.000Z</time>
      </trkpt>
      <trkpt lat="49.79663" lon="4.83739">
        <ele>231</ele>
        <time>2021-08-27T09:19:58.000Z</time>
      </trkpt>
      <trkpt lat="49.79657" lon="4.83739">
        <ele>231</ele>
        <time>2021-08-27T09:19:59.000Z</time>
      </trkpt>
      <trkpt lat="49.7965" lon="4.83739">
        <ele>231</ele>
        <time>2021-08-27T09:20:00.000Z</time>
      </trkpt>
      <trkpt lat="49.79644" lon="4.83739">
        <ele>231</ele>
        <time>2021-08-27T09:20:01.000Z</time>
      </trkpt>
      <trkpt lat="49.79638" lon="4.83738">
        <ele>230</ele>
        <time>2021-08-27T09:20:02.000Z</time>
      </trkpt>
      <trkpt lat="49.79632" lon="4.83737">
        <ele>230</ele>
        <time>2021-08-27T09:20:03.000Z</time>
      </trkpt>
      <trkpt lat="49.79626" lon="4.83736">
        <ele>230</ele>
        <time>2021-08-27T09:20:04.000Z</time>
      </trkpt>
      <trkpt lat="49.7962" lon="4.83736">
        <ele>230</ele>
        <time>2021-08-27T09:20:05.000Z</time>
      </trkpt>
      <trkpt lat="49.79614" lon="4.83735">
        <ele>229</ele>
        <time>2021-08-27T09:20:06.000Z</time>
      </trkpt>
      <trkpt lat="49.79608" lon="4.83735">
        <ele>229</ele>
        <time>2021-08-27T09:20:07.000Z</time>
      </trkpt>
      <trkpt lat="49.79602" lon="4.83734">
        <ele>229</ele>
        <time>2021-08-27T09:20:08.000Z</time>
      </trkpt>
      <trkpt lat="49.79596" lon="4.83734">
        <ele>228</ele>
        <time>2021-08-27T09:20:09.000Z</time>
      </trkpt>
      <trkpt lat="49.7959" lon="4.83733">
        <ele>228</ele>
        <time>2021-08-27T09:20:10.000Z</time>
      </trkpt>
      <trkpt lat="49.79584" lon="4.83733">
        <ele>228</ele>
        <time>2021-08-27T09:20:11.000Z</time>
      </trkpt>
      <trkpt lat="49.79577" lon="4.83733">
        <ele>228</ele>
        <time>2021-08-27T09:20:12.000Z</time>
      </trkpt>
      <trkpt lat="49.79571" lon="4.83732">
        <ele>228</ele>
        <time>2021-08-27T09:20:13.000Z</time>
      </trkpt>
      <trkpt lat="49.79564" lon="4.83731">
        <ele>227</ele>
        <time>2021-08-27T09:20:14.000Z</time>
      </trkpt>
      <trkpt lat="49.79558" lon="4.83729">
        <ele>227</ele>
        <time>2021-08-27T09:20:15.000Z</time>
      </trkpt>
      <trkpt lat="49.79552" lon="4.83727">
        <ele>227</ele>
        <time>2021-08-27T09:20:16.000Z</time>
      </trkpt>
      <trkpt lat="49.79545" lon="4.83726">
        <ele>227</ele>
        <time>2021-08-27T09:20:17.000Z</time>
      </trkpt>
      <trkpt lat="49.7954" lon="4.83725">
        <ele>226</ele>
        <time>2021-08-27T09:20:18.000Z</time>
      </trkpt>
      <trkpt lat="49.79534" lon="4.83724">
        <ele>226</ele>
        <time>2021-08-27T09:20:19.000Z</time>
      </trkpt>
      <trkpt lat="49.79527" lon="4.83723">
        <ele>226</ele>
        <time>2021-08-27T09:20:20.000Z</time>
      </trkpt>
      <trkpt lat="49.79521" lon="4.83721">
        <ele>226</ele>
        <time>2021-08-27T09:20:21.000Z</time>
      </trkpt>
      <trkpt lat="49.79514" lon="4.8372">
        <ele>226</ele>
        <time>2021-08-27T09:20:22.000Z</time>
      </trkpt>
      <trkpt lat="49.79509" lon="4.83718">
        <ele>226</ele>
        <time>2021-08-27T09:20:23.000Z</time>
      </trkpt>
      <trkpt lat="49.79504" lon="4.83717">
        <ele>226</ele>
        <time>2021-08-27T09:20:24.000Z</time>
      </trkpt>
      <trkpt lat="49.79499" lon="4.83716">
        <ele>226</ele>
        <time>2021-08-27T09:20:25.000Z</time>
      </trkpt>
      <trkpt lat="49.79494" lon="4.83716">
        <ele>226</ele>
        <time>2021-08-27T09:20:26.000Z</time>
      </trkpt>
      <trkpt lat="49.79489" lon="4.83716">
        <ele>225</ele>
        <time>2021-08-27T09:20:27.000Z</time>
      </trkpt>
      <trkpt lat="49.79483" lon="4.83715">
        <ele>225</ele>
        <time>2021-08-27T09:20:28.000Z</time>
      </trkpt>
      <trkpt lat="49.79478" lon="4.83715">
        <ele>225</ele>
        <time>2021-08-27T09:20:29.000Z</time>
      </trkpt>
      <trkpt lat="49.79472" lon="4.83714">
        <ele>225</ele>
        <time>2021-08-27T09:20:30.000Z</time>
      </trkpt>
      <trkpt lat="49.79467" lon="4.83713">
        <ele>225</ele>
        <time>2021-08-27T09:20:31.000Z</time>
      </trkpt>
      <trkpt lat="49.79461" lon="4.83711">
        <ele>225</ele>
        <time>2021-08-27T09:20:32.000Z</time>
      </trkpt>
      <trkpt lat="49.79455" lon="4.83709">
        <ele>225</ele>
        <time>2021-08-27T09:20:33.000Z</time>
      </trkpt>
      <trkpt lat="49.79449" lon="4.83708">
        <ele>225</ele>
        <time>2021-08-27T09:20:34.000Z</time>
      </trkpt>
      <trkpt lat="49.79444" lon="4.83707">
        <ele>225</ele>
        <time>2021-08-27T09:20:35.000Z</time>
      </trkpt>
      <trkpt lat="49.79439" lon="4.83705">
        <ele>225</ele>
        <time>2021-08-27T09:20:36.000Z</time>
      </trkpt>
      <trkpt lat="49.79433" lon="4.83704">
        <ele>225</ele>
        <time>2021-08-27T09:20:37.000Z</time>
      </trkpt>
      <trkpt lat="49.79428" lon="4.83703">
        <ele>225</ele>
        <time>2021-08-27T09:20:38.000Z</time>
      </trkpt>
      <trkpt lat="49.79422" lon="4.83703">
        <ele>225</ele>
        <time>2021-08-27T09:20:39.000Z</time>
      </trkpt>
      <trkpt lat="49.79417" lon="4.83702">
        <ele>225</ele>
        <time>2021-08-27T09:20:40.000Z</time>
      </trkpt>
      <trkpt lat="49.79412" lon="4.83702">
        <ele>225</ele>
        <time>2021-08-27T09:20:41.000Z</time>
      </trkpt>
      <trkpt lat="49.79407" lon="4.83703">
        <ele>225</ele>
        <time>2021-08-27T09:20:42.000Z</time>
      </trkpt>
      <trkpt lat="49.79401" lon="4.83702">
        <ele>225</ele>
        <time>2021-08-27T09:20:43.000Z</time>
      </trkpt>
      <trkpt lat="49.79395" lon="4.83702">
        <ele>225</ele>
        <time>2021-08-27T09:20:44.000Z</time>
      </trkpt>
      <trkpt lat="49.79388" lon="4.83703">
        <ele>224</ele>
        <time>2021-08-27T09:20:45.000Z</time>
      </trkpt>
      <trkpt lat="49.79381" lon="4.83704">
        <ele>224</ele>
        <time>2021-08-27T09:20:46.000Z</time>
      </trkpt>
      <trkpt lat="49.79374" lon="4.83706">
        <ele>224</ele>
        <time>2021-08-27T09:20:47.000Z</time>
      </trkpt>
      <trkpt lat="49.79367" lon="4.83708">
        <ele>224</ele>
        <time>2021-08-27T09:20:48.000Z</time>
      </trkpt>
      <trkpt lat="49.79361" lon="4.83713">
        <ele>224</ele>
        <time>2021-08-27T09:20:49.000Z</time>
      </trkpt>
      <trkpt lat="49.79355" lon="4.83717">
        <ele>224</ele>
        <time>2021-08-27T09:20:50.000Z</time>
      </trkpt>
      <trkpt lat="49.79349" lon="4.83721">
        <ele>224</ele>
        <time>2021-08-27T09:20:51.000Z</time>
      </trkpt>
      <trkpt lat="49.79344" lon="4.83727">
        <ele>224</ele>
        <time>2021-08-27T09:20:52.000Z</time>
      </trkpt>
      <trkpt lat="49.79339" lon="4.83733">
        <ele>224</ele>
        <time>2021-08-27T09:20:53.000Z</time>
      </trkpt>
      <trkpt lat="49.79334" lon="4.8374">
        <ele>224</ele>
        <time>2021-08-27T09:20:54.000Z</time>
      </trkpt>
      <trkpt lat="49.79329" lon="4.83747">
        <ele>224</ele>
        <time>2021-08-27T09:20:55.000Z</time>
      </trkpt>
      <trkpt lat="49.79324" lon="4.83754">
        <ele>224</ele>
        <time>2021-08-27T09:20:56.000Z</time>
      </trkpt>
      <trkpt lat="49.7932" lon="4.83761">
        <ele>224</ele>
        <time>2021-08-27T09:20:57.000Z</time>
      </trkpt>
      <trkpt lat="49.79315" lon="4.83768">
        <ele>224</ele>
        <time>2021-08-27T09:20:58.000Z</time>
      </trkpt>
      <trkpt lat="49.79311" lon="4.83776">
        <ele>225</ele>
        <time>2021-08-27T09:20:59.000Z</time>
      </trkpt>
      <trkpt lat="49.79306" lon="4.83783">
        <ele>225</ele>
        <time>2021-08-27T09:21:00.000Z</time>
      </trkpt>
      <trkpt lat="49.79302" lon="4.8379">
        <ele>225</ele>
        <time>2021-08-27T09:21:01.000Z</time>
      </trkpt>
      <trkpt lat="49.79298" lon="4.83798">
        <ele>225</ele>
        <time>2021-08-27T09:21:02.000Z</time>
      </trkpt>
      <trkpt lat="49.79294" lon="4.83806">
        <ele>225</ele>
        <time>2021-08-27T09:21:03.000Z</time>
      </trkpt>
      <trkpt lat="49.7929" lon="4.83814">
        <ele>225</ele>
        <time>2021-08-27T09:21:04.000Z</time>
      </trkpt>
      <trkpt lat="49.79285" lon="4.83822">
        <ele>225</ele>
        <time>2021-08-27T09:21:05.000Z</time>
      </trkpt>
      <trkpt lat="49.79281" lon="4.83829">
        <ele>226</ele>
        <time>2021-08-27T09:21:06.000Z</time>
      </trkpt>
      <trkpt lat="49.79278" lon="4.83837">
        <ele>226</ele>
        <time>2021-08-27T09:21:07.000Z</time>
      </trkpt>
      <trkpt lat="49.79274" lon="4.83844">
        <ele>226</ele>
        <time>2021-08-27T09:21:08.000Z</time>
      </trkpt>
      <trkpt lat="49.79271" lon="4.83852">
        <ele>227</ele>
        <time>2021-08-27T09:21:09.000Z</time>
      </trkpt>
      <trkpt lat="49.79267" lon="4.83859">
        <ele>227</ele>
        <time>2021-08-27T09:21:10.000Z</time>
      </trkpt>
      <trkpt lat="49.79263" lon="4.83867">
        <ele>227</ele>
        <time>2021-08-27T09:21:11.000Z</time>
      </trkpt>
      <trkpt lat="49.79259" lon="4.83875">
        <ele>227</ele>
        <time>2021-08-27T09:21:12.000Z</time>
      </trkpt>
      <trkpt lat="49.79255" lon="4.83883">
        <ele>227</ele>
        <time>2021-08-27T09:21:13.000Z</time>
      </trkpt>
      <trkpt lat="49.79251" lon="4.83892">
        <ele>227</ele>
        <time>2021-08-27T09:21:14.000Z</time>
      </trkpt>
      <trkpt lat="49.79248" lon="4.839">
        <ele>227</ele>
        <time>2021-08-27T09:21:15.000Z</time>
      </trkpt>
      <trkpt lat="49.79245" lon="4.83908">
        <ele>227</ele>
        <time>2021-08-27T09:21:16.000Z</time>
      </trkpt>
      <trkpt lat="49.7924" lon="4.83917">
        <ele>227</ele>
        <time>2021-08-27T09:21:17.000Z</time>
      </trkpt>
      <trkpt lat="49.79237" lon="4.83925">
        <ele>227</ele>
        <time>2021-08-27T09:21:18.000Z</time>
      </trkpt>
      <trkpt lat="49.79233" lon="4.83934">
        <ele>227</ele>
        <time>2021-08-27T09:21:19.000Z</time>
      </trkpt>
      <trkpt lat="49.79229" lon="4.83942">
        <ele>227</ele>
        <time>2021-08-27T09:21:20.000Z</time>
      </trkpt>
      <trkpt lat="49.79226" lon="4.8395">
        <ele>227</ele>
        <time>2021-08-27T09:21:21.000Z</time>
      </trkpt>
      <trkpt lat="49.79222" lon="4.83958">
        <ele>227</ele>
        <time>2021-08-27T09:21:22.000Z</time>
      </trkpt>
      <trkpt lat="49.79218" lon="4.83967">
        <ele>227</ele>
        <time>2021-08-27T09:21:23.000Z</time>
      </trkpt>
      <trkpt lat="49.79215" lon="4.83975">
        <ele>226</ele>
        <time>2021-08-27T09:21:24.000Z</time>
      </trkpt>
      <trkpt lat="49.79211" lon="4.83983">
        <ele>226</ele>
        <time>2021-08-27T09:21:25.000Z</time>
      </trkpt>
      <trkpt lat="49.79207" lon="4.83991">
        <ele>226</ele>
        <time>2021-08-27T09:21:26.000Z</time>
      </trkpt>
      <trkpt lat="49.79203" lon="4.83998">
        <ele>226</ele>
        <time>2021-08-27T09:21:27.000Z</time>
      </trkpt>
      <trkpt lat="49.79199" lon="4.84006">
        <ele>226</ele>
        <time>2021-08-27T09:21:28.000Z</time>
      </trkpt>
      <trkpt lat="49.79195" lon="4.84013">
        <ele>226</ele>
        <time>2021-08-27T09:21:29.000Z</time>
      </trkpt>
      <trkpt lat="49.79192" lon="4.84021">
        <ele>226</ele>
        <time>2021-08-27T09:21:30.000Z</time>
      </trkpt>
      <trkpt lat="49.79188" lon="4.84028">
        <ele>226</ele>
        <time>2021-08-27T09:21:31.000Z</time>
      </trkpt>
      <trkpt lat="49.79185" lon="4.84035">
        <ele>225</ele>
        <time>2021-08-27T09:21:32.000Z</time>
      </trkpt>
      <trkpt lat="49.79181" lon="4.84042">
        <ele>225</ele>
        <time>2021-08-27T09:21:33.000Z</time>
      </trkpt>
      <trkpt lat="49.79178" lon="4.8405">
        <ele>225</ele>
        <time>2021-08-27T09:21:34.000Z</time>
      </trkpt>
      <trkpt lat="49.79175" lon="4.84057">
        <ele>225</ele>
        <time>2021-08-27T09:21:35.000Z</time>
      </trkpt>
      <trkpt lat="49.79171" lon="4.84064">
        <ele>225</ele>
        <time>2021-08-27T09:21:36.000Z</time>
      </trkpt>
      <trkpt lat="49.79167" lon="4.8407">
        <ele>225</ele>
        <time>2021-08-27T09:21:37.000Z</time>
      </trkpt>
      <trkpt lat="49.79163" lon="4.84078">
        <ele>225</ele>
        <time>2021-08-27T09:21:38.000Z</time>
      </trkpt>
      <trkpt lat="49.7916" lon="4.84085">
        <ele>225</ele>
        <time>2021-08-27T09:21:39.000Z</time>
      </trkpt>
      <trkpt lat="49.79156" lon="4.84093">
        <ele>225</ele>
        <time>2021-08-27T09:21:40.000Z</time>
      </trkpt>
      <trkpt lat="49.79152" lon="4.841">
        <ele>225</ele>
        <time>2021-08-27T09:21:41.000Z</time>
      </trkpt>
      <trkpt lat="49.79148" lon="4.84106">
        <ele>225</ele>
        <time>2021-08-27T09:21:42.000Z</time>
      </trkpt>
      <trkpt lat="49.79143" lon="4.84113">
        <ele>225</ele>
        <time>2021-08-27T09:21:43.000Z</time>
      </trkpt>
      <trkpt lat="49.79139" lon="4.8412">
        <ele>225</ele>
        <time>2021-08-27T09:21:44.000Z</time>
      </trkpt>
      <trkpt lat="49.79134" lon="4.84126">
        <ele>225</ele>
        <time>2021-08-27T09:21:45.000Z</time>
      </trkpt>
      <trkpt lat="49.79129" lon="4.84133">
        <ele>225</ele>
        <time>2021-08-27T09:21:46.000Z</time>
      </trkpt>
      <trkpt lat="49.79124" lon="4.84139">
        <ele>225</ele>
        <time>2021-08-27T09:21:47.000Z</time>
      </trkpt>
      <trkpt lat="49.79119" lon="4.84146">
        <ele>225</ele>
        <time>2021-08-27T09:21:48.000Z</time>
      </trkpt>
      <trkpt lat="49.79114" lon="4.84152">
        <ele>225</ele>
        <time>2021-08-27T09:21:49.000Z</time>
      </trkpt>
      <trkpt lat="49.79108" lon="4.84159">
        <ele>225</ele>
        <time>2021-08-27T09:21:50.000Z</time>
      </trkpt>
      <trkpt lat="49.79103" lon="4.84165">
        <ele>226</ele>
        <time>2021-08-27T09:21:51.000Z</time>
      </trkpt>
      <trkpt lat="49.79098" lon="4.84171">
        <ele>226</ele>
        <time>2021-08-27T09:21:52.000Z</time>
      </trkpt>
      <trkpt lat="49.79092" lon="4.84177">
        <ele>226</ele>
        <time>2021-08-27T09:21:53.000Z</time>
      </trkpt>
      <trkpt lat="49.79087" lon="4.84184">
        <ele>226</ele>
        <time>2021-08-27T09:21:54.000Z</time>
      </trkpt>
      <trkpt lat="49.79082" lon="4.8419">
        <ele>226</ele>
        <time>2021-08-27T09:21:55.000Z</time>
      </trkpt>
      <trkpt lat="49.79077" lon="4.84196">
        <ele>226</ele>
        <time>2021-08-27T09:21:56.000Z</time>
      </trkpt>
      <trkpt lat="49.79071" lon="4.84202">
        <ele>226</ele>
        <time>2021-08-27T09:21:57.000Z</time>
      </trkpt>
      <trkpt lat="49.79066" lon="4.84209">
        <ele>226</ele>
        <time>2021-08-27T09:21:58.000Z</time>
      </trkpt>
      <trkpt lat="49.79061" lon="4.84215">
        <ele>227</ele>
        <time>2021-08-27T09:21:59.000Z</time>
      </trkpt>
      <trkpt lat="49.79057" lon="4.84222">
        <ele>227</ele>
        <time>2021-08-27T09:22:00.000Z</time>
      </trkpt>
      <trkpt lat="49.79052" lon="4.84227">
        <ele>227</ele>
        <time>2021-08-27T09:22:01.000Z</time>
      </trkpt>
      <trkpt lat="49.79047" lon="4.84233">
        <ele>227</ele>
        <time>2021-08-27T09:22:02.000Z</time>
      </trkpt>
      <trkpt lat="49.79042" lon="4.84238">
        <ele>227</ele>
        <time>2021-08-27T09:22:03.000Z</time>
      </trkpt>
      <trkpt lat="49.79037" lon="4.84243">
        <ele>227</ele>
        <time>2021-08-27T09:22:04.000Z</time>
      </trkpt>
      <trkpt lat="49.79032" lon="4.84249">
        <ele>227</ele>
        <time>2021-08-27T09:22:05.000Z</time>
      </trkpt>
      <trkpt lat="49.79027" lon="4.84254">
        <ele>227</ele>
        <time>2021-08-27T09:22:06.000Z</time>
      </trkpt>
      <trkpt lat="49.79023" lon="4.84259">
        <ele>227</ele>
        <time>2021-08-27T09:22:07.000Z</time>
      </trkpt>
      <trkpt lat="49.79017" lon="4.84263">
        <ele>227</ele>
        <time>2021-08-27T09:22:08.000Z</time>
      </trkpt>
      <trkpt lat="49.79012" lon="4.84268">
        <ele>226</ele>
        <time>2021-08-27T09:22:09.000Z</time>
      </trkpt>
      <trkpt lat="49.79006" lon="4.84272">
        <ele>226</ele>
        <time>2021-08-27T09:22:10.000Z</time>
      </trkpt>
      <trkpt lat="49.79002" lon="4.84277">
        <ele>226</ele>
        <time>2021-08-27T09:22:11.000Z</time>
      </trkpt>
      <trkpt lat="49.78997" lon="4.84281">
        <ele>226</ele>
        <time>2021-08-27T09:22:12.000Z</time>
      </trkpt>
      <trkpt lat="49.78991" lon="4.84284">
        <ele>226</ele>
        <time>2021-08-27T09:22:13.000Z</time>
      </trkpt>
      <trkpt lat="49.78985" lon="4.84288">
        <ele>226</ele>
        <time>2021-08-27T09:22:14.000Z</time>
      </trkpt>
      <trkpt lat="49.78981" lon="4.84291">
        <ele>226</ele>
        <time>2021-08-27T09:22:15.000Z</time>
      </trkpt>
      <trkpt lat="49.78976" lon="4.84294">
        <ele>226</ele>
        <time>2021-08-27T09:22:16.000Z</time>
      </trkpt>
      <trkpt lat="49.78971" lon="4.84298">
        <ele>226</ele>
        <time>2021-08-27T09:22:17.000Z</time>
      </trkpt>
      <trkpt lat="49.78965" lon="4.84302">
        <ele>226</ele>
        <time>2021-08-27T09:22:18.000Z</time>
      </trkpt>
      <trkpt lat="49.7896" lon="4.84306">
        <ele>226</ele>
        <time>2021-08-27T09:22:19.000Z</time>
      </trkpt>
      <trkpt lat="49.78953" lon="4.84309">
        <ele>226</ele>
        <time>2021-08-27T09:22:20.000Z</time>
      </trkpt>
      <trkpt lat="49.78947" lon="4.84312">
        <ele>226</ele>
        <time>2021-08-27T09:22:21.000Z</time>
      </trkpt>
      <trkpt lat="49.78941" lon="4.84315">
        <ele>225</ele>
        <time>2021-08-27T09:22:22.000Z</time>
      </trkpt>
      <trkpt lat="49.78935" lon="4.84319">
        <ele>225</ele>
        <time>2021-08-27T09:22:23.000Z</time>
      </trkpt>
      <trkpt lat="49.78929" lon="4.84322">
        <ele>225</ele>
        <time>2021-08-27T09:22:24.000Z</time>
      </trkpt>
      <trkpt lat="49.78923" lon="4.84324">
        <ele>225</ele>
        <time>2021-08-27T09:22:25.000Z</time>
      </trkpt>
      <trkpt lat="49.78916" lon="4.84327">
        <ele>225</ele>
        <time>2021-08-27T09:22:26.000Z</time>
      </trkpt>
      <trkpt lat="49.7891" lon="4.8433">
        <ele>225</ele>
        <time>2021-08-27T09:22:27.000Z</time>
      </trkpt>
      <trkpt lat="49.78903" lon="4.84332">
        <ele>225</ele>
        <time>2021-08-27T09:22:28.000Z</time>
      </trkpt>
      <trkpt lat="49.78897" lon="4.84334">
        <ele>225</ele>
        <time>2021-08-27T09:22:29.000Z</time>
      </trkpt>
      <trkpt lat="49.78891" lon="4.84337">
        <ele>224</ele>
        <time>2021-08-27T09:22:30.000Z</time>
      </trkpt>
      <trkpt lat="49.78884" lon="4.84338">
        <ele>224</ele>
        <time>2021-08-27T09:22:31.000Z</time>
      </trkpt>
      <trkpt lat="49.78876" lon="4.84338">
        <ele>224</ele>
        <time>2021-08-27T09:22:32.000Z</time>
      </trkpt>
      <trkpt lat="49.78869" lon="4.84338">
        <ele>223</ele>
        <time>2021-08-27T09:22:33.000Z</time>
      </trkpt>
      <trkpt lat="49.78862" lon="4.84338">
        <ele>222</ele>
        <time>2021-08-27T09:22:34.000Z</time>
      </trkpt>
      <trkpt lat="49.78854" lon="4.84337">
        <ele>222</ele>
        <time>2021-08-27T09:22:35.000Z</time>
      </trkpt>
      <trkpt lat="49.78846" lon="4.84337">
        <ele>221</ele>
        <time>2021-08-27T09:22:36.000Z</time>
      </trkpt>
      <trkpt lat="49.78837" lon="4.84337">
        <ele>220</ele>
        <time>2021-08-27T09:22:37.000Z</time>
      </trkpt>
      <trkpt lat="49.7883" lon="4.84336">
        <ele>219</ele>
        <time>2021-08-27T09:22:38.000Z</time>
      </trkpt>
      <trkpt lat="49.78822" lon="4.84335">
        <ele>218</ele>
        <time>2021-08-27T09:22:39.000Z</time>
      </trkpt>
      <trkpt lat="49.78814" lon="4.84334">
        <ele>217</ele>
        <time>2021-08-27T09:22:40.000Z</time>
      </trkpt>
      <trkpt lat="49.78806" lon="4.84334">
        <ele>216</ele>
        <time>2021-08-27T09:22:41.000Z</time>
      </trkpt>
      <trkpt lat="49.78799" lon="4.84333">
        <ele>216</ele>
        <time>2021-08-27T09:22:42.000Z</time>
      </trkpt>
      <trkpt lat="49.78791" lon="4.84333">
        <ele>215</ele>
        <time>2021-08-27T09:22:43.000Z</time>
      </trkpt>
      <trkpt lat="49.78784" lon="4.84332">
        <ele>214</ele>
        <time>2021-08-27T09:22:44.000Z</time>
      </trkpt>
      <trkpt lat="49.78777" lon="4.84332">
        <ele>213</ele>
        <time>2021-08-27T09:22:45.000Z</time>
      </trkpt>
      <trkpt lat="49.78769" lon="4.84331">
        <ele>212</ele>
        <time>2021-08-27T09:22:46.000Z</time>
      </trkpt>
      <trkpt lat="49.78762" lon="4.8433">
        <ele>211</ele>
        <time>2021-08-27T09:22:47.000Z</time>
      </trkpt>
      <trkpt lat="49.78755" lon="4.8433">
        <ele>210</ele>
        <time>2021-08-27T09:22:48.000Z</time>
      </trkpt>
      <trkpt lat="49.78748" lon="4.84329">
        <ele>210</ele>
        <time>2021-08-27T09:22:49.000Z</time>
      </trkpt>
      <trkpt lat="49.7874" lon="4.84328">
        <ele>209</ele>
        <time>2021-08-27T09:22:50.000Z</time>
      </trkpt>
      <trkpt lat="49.78733" lon="4.84327">
        <ele>208</ele>
        <time>2021-08-27T09:22:51.000Z</time>
      </trkpt>
      <trkpt lat="49.78726" lon="4.84327">
        <ele>208</ele>
        <time>2021-08-27T09:22:52.000Z</time>
      </trkpt>
      <trkpt lat="49.78719" lon="4.84326">
        <ele>207</ele>
        <time>2021-08-27T09:22:53.000Z</time>
      </trkpt>
      <trkpt lat="49.78711" lon="4.84325">
        <ele>206</ele>
        <time>2021-08-27T09:22:54.000Z</time>
      </trkpt>
      <trkpt lat="49.78703" lon="4.84325">
        <ele>206</ele>
        <time>2021-08-27T09:22:55.000Z</time>
      </trkpt>
      <trkpt lat="49.78696" lon="4.84325">
        <ele>205</ele>
        <time>2021-08-27T09:22:56.000Z</time>
      </trkpt>
      <trkpt lat="49.78688" lon="4.84324">
        <ele>205</ele>
        <time>2021-08-27T09:22:57.000Z</time>
      </trkpt>
      <trkpt lat="49.78681" lon="4.84323">
        <ele>204</ele>
        <time>2021-08-27T09:22:58.000Z</time>
      </trkpt>
      <trkpt lat="49.78673" lon="4.84323">
        <ele>204</ele>
        <time>2021-08-27T09:22:59.000Z</time>
      </trkpt>
      <trkpt lat="49.78666" lon="4.84323">
        <ele>203</ele>
        <time>2021-08-27T09:23:00.000Z</time>
      </trkpt>
      <trkpt lat="49.7866" lon="4.84322">
        <ele>203</ele>
        <time>2021-08-27T09:23:01.000Z</time>
      </trkpt>
      <trkpt lat="49.78653" lon="4.84322">
        <ele>202</ele>
        <time>2021-08-27T09:23:02.000Z</time>
      </trkpt>
      <trkpt lat="49.78646" lon="4.84321">
        <ele>202</ele>
        <time>2021-08-27T09:23:03.000Z</time>
      </trkpt>
      <trkpt lat="49.78639" lon="4.84321">
        <ele>202</ele>
        <time>2021-08-27T09:23:04.000Z</time>
      </trkpt>
      <trkpt lat="49.78632" lon="4.8432">
        <ele>201</ele>
        <time>2021-08-27T09:23:05.000Z</time>
      </trkpt>
      <trkpt lat="49.78625" lon="4.84319">
        <ele>201</ele>
        <time>2021-08-27T09:23:06.000Z</time>
      </trkpt>
      <trkpt lat="49.78618" lon="4.84319">
        <ele>200</ele>
        <time>2021-08-27T09:23:07.000Z</time>
      </trkpt>
      <trkpt lat="49.78611" lon="4.84318">
        <ele>200</ele>
        <time>2021-08-27T09:23:08.000Z</time>
      </trkpt>
      <trkpt lat="49.78605" lon="4.84317">
        <ele>199</ele>
        <time>2021-08-27T09:23:09.000Z</time>
      </trkpt>
      <trkpt lat="49.78598" lon="4.84317">
        <ele>199</ele>
        <time>2021-08-27T09:23:10.000Z</time>
      </trkpt>
      <trkpt lat="49.78592" lon="4.84316">
        <ele>199</ele>
        <time>2021-08-27T09:23:11.000Z</time>
      </trkpt>
      <trkpt lat="49.78585" lon="4.84316">
        <ele>198</ele>
        <time>2021-08-27T09:23:12.000Z</time>
      </trkpt>
      <trkpt lat="49.78578" lon="4.84315">
        <ele>198</ele>
        <time>2021-08-27T09:23:13.000Z</time>
      </trkpt>
      <trkpt lat="49.78572" lon="4.84315">
        <ele>198</ele>
        <time>2021-08-27T09:23:14.000Z</time>
      </trkpt>
      <trkpt lat="49.78565" lon="4.84315">
        <ele>198</ele>
        <time>2021-08-27T09:23:15.000Z</time>
      </trkpt>
      <trkpt lat="49.78558" lon="4.84315">
        <ele>197</ele>
        <time>2021-08-27T09:23:16.000Z</time>
      </trkpt>
      <trkpt lat="49.78552" lon="4.84315">
        <ele>197</ele>
        <time>2021-08-27T09:23:17.000Z</time>
      </trkpt>
      <trkpt lat="49.78545" lon="4.84315">
        <ele>197</ele>
        <time>2021-08-27T09:23:18.000Z</time>
      </trkpt>
      <trkpt lat="49.78538" lon="4.84314">
        <ele>197</ele>
        <time>2021-08-27T09:23:19.000Z</time>
      </trkpt>
      <trkpt lat="49.78531" lon="4.84313">
        <ele>196</ele>
        <time>2021-08-27T09:23:20.000Z</time>
      </trkpt>
      <trkpt lat="49.78524" lon="4.84312">
        <ele>196</ele>
        <time>2021-08-27T09:23:21.000Z</time>
      </trkpt>
      <trkpt lat="49.78517" lon="4.84311">
        <ele>196</ele>
        <time>2021-08-27T09:23:22.000Z</time>
      </trkpt>
      <trkpt lat="49.78511" lon="4.84311">
        <ele>196</ele>
        <time>2021-08-27T09:23:23.000Z</time>
      </trkpt>
      <trkpt lat="49.78504" lon="4.8431">
        <ele>195</ele>
        <time>2021-08-27T09:23:24.000Z</time>
      </trkpt>
      <trkpt lat="49.78498" lon="4.8431">
        <ele>195</ele>
        <time>2021-08-27T09:23:25.000Z</time>
      </trkpt>
      <trkpt lat="49.78491" lon="4.8431">
        <ele>195</ele>
        <time>2021-08-27T09:23:26.000Z</time>
      </trkpt>
      <trkpt lat="49.78485" lon="4.8431">
        <ele>195</ele>
        <time>2021-08-27T09:23:27.000Z</time>
      </trkpt>
      <trkpt lat="49.78478" lon="4.84309">
        <ele>195</ele>
        <time>2021-08-27T09:23:28.000Z</time>
      </trkpt>
      <trkpt lat="49.78471" lon="4.84309">
        <ele>195</ele>
        <time>2021-08-27T09:23:29.000Z</time>
      </trkpt>
      <trkpt lat="49.78465" lon="4.84308">
        <ele>195</ele>
        <time>2021-08-27T09:23:30.000Z</time>
      </trkpt>
      <trkpt lat="49.78459" lon="4.84308">
        <ele>195</ele>
        <time>2021-08-27T09:23:31.000Z</time>
      </trkpt>
      <trkpt lat="49.78453" lon="4.84307">
        <ele>195</ele>
        <time>2021-08-27T09:23:32.000Z</time>
      </trkpt>
      <trkpt lat="49.78447" lon="4.84307">
        <ele>195</ele>
        <time>2021-08-27T09:23:33.000Z</time>
      </trkpt>
      <trkpt lat="49.78442" lon="4.84309">
        <ele>195</ele>
        <time>2021-08-27T09:23:34.000Z</time>
      </trkpt>
      <trkpt lat="49.78436" lon="4.84312">
        <ele>195</ele>
        <time>2021-08-27T09:23:35.000Z</time>
      </trkpt>
      <trkpt lat="49.78431" lon="4.84316">
        <ele>195</ele>
        <time>2021-08-27T09:23:36.000Z</time>
      </trkpt>
      <trkpt lat="49.78425" lon="4.84321">
        <ele>195</ele>
        <time>2021-08-27T09:23:37.000Z</time>
      </trkpt>
      <trkpt lat="49.7842" lon="4.84326">
        <ele>195</ele>
        <time>2021-08-27T09:23:38.000Z</time>
      </trkpt>
      <trkpt lat="49.78416" lon="4.84332">
        <ele>196</ele>
        <time>2021-08-27T09:23:39.000Z</time>
      </trkpt>
      <trkpt lat="49.78411" lon="4.84337">
        <ele>196</ele>
        <time>2021-08-27T09:23:40.000Z</time>
      </trkpt>
      <trkpt lat="49.78406" lon="4.84342">
        <ele>196</ele>
        <time>2021-08-27T09:23:41.000Z</time>
      </trkpt>
      <trkpt lat="49.78401" lon="4.84346">
        <ele>196</ele>
        <time>2021-08-27T09:23:42.000Z</time>
      </trkpt>
      <trkpt lat="49.78396" lon="4.84349">
        <ele>196</ele>
        <time>2021-08-27T09:23:43.000Z</time>
      </trkpt>
      <trkpt lat="49.78392" lon="4.84352">
        <ele>196</ele>
        <time>2021-08-27T09:23:44.000Z</time>
      </trkpt>
      <trkpt lat="49.78387" lon="4.84353">
        <ele>197</ele>
        <time>2021-08-27T09:23:45.000Z</time>
      </trkpt>
      <trkpt lat="49.78382" lon="4.84352">
        <ele>197</ele>
        <time>2021-08-27T09:23:46.000Z</time>
      </trkpt>
      <trkpt lat="49.78376" lon="4.8435">
        <ele>197</ele>
        <time>2021-08-27T09:23:47.000Z</time>
      </trkpt>
      <trkpt lat="49.78371" lon="4.84347">
        <ele>197</ele>
        <time>2021-08-27T09:23:48.000Z</time>
      </trkpt>
      <trkpt lat="49.78365" lon="4.84344">
        <ele>197</ele>
        <time>2021-08-27T09:23:49.000Z</time>
      </trkpt>
      <trkpt lat="49.78359" lon="4.84341">
        <ele>197</ele>
        <time>2021-08-27T09:23:50.000Z</time>
      </trkpt>
      <trkpt lat="49.78353" lon="4.84337">
        <ele>197</ele>
        <time>2021-08-27T09:23:51.000Z</time>
      </trkpt>
      <trkpt lat="49.78348" lon="4.84333">
        <ele>197</ele>
        <time>2021-08-27T09:23:52.000Z</time>
      </trkpt>
      <trkpt lat="49.78343" lon="4.84328">
        <ele>197</ele>
        <time>2021-08-27T09:23:53.000Z</time>
      </trkpt>
      <trkpt lat="49.78338" lon="4.84325">
        <ele>197</ele>
        <time>2021-08-27T09:23:54.000Z</time>
      </trkpt>
      <trkpt lat="49.78332" lon="4.84321">
        <ele>196</ele>
        <time>2021-08-27T09:23:55.000Z</time>
      </trkpt>
      <trkpt lat="49.78326" lon="4.84318">
        <ele>196</ele>
        <time>2021-08-27T09:23:56.000Z</time>
      </trkpt>
      <trkpt lat="49.78321" lon="4.84315">
        <ele>196</ele>
        <time>2021-08-27T09:23:57.000Z</time>
      </trkpt>
      <trkpt lat="49.78315" lon="4.84312">
        <ele>196</ele>
        <time>2021-08-27T09:23:58.000Z</time>
      </trkpt>
      <trkpt lat="49.78309" lon="4.84308">
        <ele>196</ele>
        <time>2021-08-27T09:23:59.000Z</time>
      </trkpt>
      <trkpt lat="49.78303" lon="4.84304">
        <ele>195</ele>
        <time>2021-08-27T09:24:00.000Z</time>
      </trkpt>
      <trkpt lat="49.78298" lon="4.84301">
        <ele>195</ele>
        <time>2021-08-27T09:24:01.000Z</time>
      </trkpt>
      <trkpt lat="49.78292" lon="4.84297">
        <ele>195</ele>
        <time>2021-08-27T09:24:02.000Z</time>
      </trkpt>
      <trkpt lat="49.78287" lon="4.84294">
        <ele>195</ele>
        <time>2021-08-27T09:24:03.000Z</time>
      </trkpt>
      <trkpt lat="49.78281" lon="4.8429">
        <ele>195</ele>
        <time>2021-08-27T09:24:04.000Z</time>
      </trkpt>
      <trkpt lat="49.78276" lon="4.84286">
        <ele>195</ele>
        <time>2021-08-27T09:24:05.000Z</time>
      </trkpt>
      <trkpt lat="49.78271" lon="4.84283">
        <ele>195</ele>
        <time>2021-08-27T09:24:06.000Z</time>
      </trkpt>
      <trkpt lat="49.78265" lon="4.84279">
        <ele>195</ele>
        <time>2021-08-27T09:24:07.000Z</time>
      </trkpt>
      <trkpt lat="49.7826" lon="4.84274">
        <ele>195</ele>
        <time>2021-08-27T09:24:08.000Z</time>
      </trkpt>
      <trkpt lat="49.78256" lon="4.84269">
        <ele>195</ele>
        <time>2021-08-27T09:24:09.000Z</time>
      </trkpt>
      <trkpt lat="49.78252" lon="4.84262">
        <ele>194</ele>
        <time>2021-08-27T09:24:10.000Z</time>
      </trkpt>
      <trkpt lat="49.78248" lon="4.84256">
        <ele>194</ele>
        <time>2021-08-27T09:24:11.000Z</time>
      </trkpt>
      <trkpt lat="49.78244" lon="4.8425">
        <ele>194</ele>
        <time>2021-08-27T09:24:12.000Z</time>
      </trkpt>
      <trkpt lat="49.78242" lon="4.84244">
        <ele>194</ele>
        <time>2021-08-27T09:24:13.000Z</time>
      </trkpt>
      <trkpt lat="49.7824" lon="4.84237">
        <ele>194</ele>
        <time>2021-08-27T09:24:14.000Z</time>
      </trkpt>
      <trkpt lat="49.78239" lon="4.84232">
        <ele>194</ele>
        <time>2021-08-27T09:24:15.000Z</time>
      </trkpt>
      <trkpt lat="49.78238" lon="4.84226">
        <ele>194</ele>
        <time>2021-08-27T09:24:16.000Z</time>
      </trkpt>
      <trkpt lat="49.78238" lon="4.8422">
        <ele>194</ele>
        <time>2021-08-27T09:24:17.000Z</time>
      </trkpt>
      <trkpt lat="49.78238" lon="4.84215">
        <ele>194</ele>
        <time>2021-08-27T09:24:18.000Z</time>
      </trkpt>
      <trkpt lat="49.78238" lon="4.84211">
        <ele>194</ele>
        <time>2021-08-27T09:24:19.000Z</time>
      </trkpt>
      <trkpt lat="49.78238" lon="4.84206">
        <ele>194</ele>
        <time>2021-08-27T09:24:20.000Z</time>
      </trkpt>
      <trkpt lat="49.78237" lon="4.84202">
        <ele>194</ele>
        <time>2021-08-27T09:24:21.000Z</time>
      </trkpt>
      <trkpt lat="49.78235" lon="4.84198">
        <ele>193</ele>
        <time>2021-08-27T09:24:22.000Z</time>
      </trkpt>
      <trkpt lat="49.78234" lon="4.84195">
        <ele>193</ele>
        <time>2021-08-27T09:24:23.000Z</time>
      </trkpt>
      <trkpt lat="49.78233" lon="4.84191">
        <ele>193</ele>
        <time>2021-08-27T09:24:24.000Z</time>
      </trkpt>
      <trkpt lat="49.78231" lon="4.84187">
        <ele>193</ele>
        <time>2021-08-27T09:24:25.000Z</time>
      </trkpt>
      <trkpt lat="49.7823" lon="4.84183">
        <ele>193</ele>
        <time>2021-08-27T09:24:26.000Z</time>
      </trkpt>
      <trkpt lat="49.78229" lon="4.84179">
        <ele>193</ele>
        <time>2021-08-27T09:24:27.000Z</time>
      </trkpt>
      <trkpt lat="49.78227" lon="4.84175">
        <ele>193</ele>
        <time>2021-08-27T09:24:28.000Z</time>
      </trkpt>
      <trkpt lat="49.78225" lon="4.84171">
        <ele>193</ele>
        <time>2021-08-27T09:24:29.000Z</time>
      </trkpt>
      <trkpt lat="49.78223" lon="4.84167">
        <ele>193</ele>
        <time>2021-08-27T09:24:30.000Z</time>
      </trkpt>
      <trkpt lat="49.78221" lon="4.84163">
        <ele>193</ele>
        <time>2021-08-27T09:24:31.000Z</time>
      </trkpt>
      <trkpt lat="49.78218" lon="4.84159">
        <ele>193</ele>
        <time>2021-08-27T09:24:32.000Z</time>
      </trkpt>
      <trkpt lat="49.78216" lon="4.84155">
        <ele>193</ele>
        <time>2021-08-27T09:24:33.000Z</time>
      </trkpt>
      <trkpt lat="49.78214" lon="4.84151">
        <ele>193</ele>
        <time>2021-08-27T09:24:34.000Z</time>
      </trkpt>
      <trkpt lat="49.78212" lon="4.84147">
        <ele>193</ele>
        <time>2021-08-27T09:24:35.000Z</time>
      </trkpt>
      <trkpt lat="49.7821" lon="4.84143">
        <ele>193</ele>
        <time>2021-08-27T09:24:36.000Z</time>
      </trkpt>
      <trkpt lat="49.78207" lon="4.84139">
        <ele>193</ele>
        <time>2021-08-27T09:24:37.000Z</time>
      </trkpt>
      <trkpt lat="49.78204" lon="4.84136">
        <ele>193</ele>
        <time>2021-08-27T09:24:38.000Z</time>
      </trkpt>
      <trkpt lat="49.78201" lon="4.84132">
        <ele>193</ele>
        <time>2021-08-27T09:24:39.000Z</time>
      </trkpt>
      <trkpt lat="49.78198" lon="4.84129">
        <ele>193</ele>
        <time>2021-08-27T09:24:40.000Z</time>
      </trkpt>
      <trkpt lat="49.78194" lon="4.84127">
        <ele>192</ele>
        <time>2021-08-27T09:24:41.000Z</time>
      </trkpt>
      <trkpt lat="49.78191" lon="4.84124">
        <ele>192</ele>
        <time>2021-08-27T09:24:42.000Z</time>
      </trkpt>
      <trkpt lat="49.78188" lon="4.84122">
        <ele>192</ele>
        <time>2021-08-27T09:24:43.000Z</time>
      </trkpt>
      <trkpt lat="49.78185" lon="4.8412">
        <ele>192</ele>
        <time>2021-08-27T09:24:44.000Z</time>
      </trkpt>
      <trkpt lat="49.78183" lon="4.84118">
        <ele>192</ele>
        <time>2021-08-27T09:24:45.000Z</time>
      </trkpt>
      <trkpt lat="49.78181" lon="4.84117">
        <ele>193</ele>
        <time>2021-08-27T09:24:46.000Z</time>
      </trkpt>
      <trkpt lat="49.78178" lon="4.84115">
        <ele>193</ele>
        <time>2021-08-27T09:24:47.000Z</time>
      </trkpt>
      <trkpt lat="49.78176" lon="4.84113">
        <ele>193</ele>
        <time>2021-08-27T09:24:48.000Z</time>
      </trkpt>
      <trkpt lat="49.78172" lon="4.84111">
        <ele>193</ele>
        <time>2021-08-27T09:24:49.000Z</time>
      </trkpt>
      <trkpt lat="49.78169" lon="4.84109">
        <ele>193</ele>
        <time>2021-08-27T09:24:50.000Z</time>
      </trkpt>
      <trkpt lat="49.78166" lon="4.84108">
        <ele>193</ele>
        <time>2021-08-27T09:24:51.000Z</time>
      </trkpt>
      <trkpt lat="49.78163" lon="4.84106">
        <ele>194</ele>
        <time>2021-08-27T09:24:52.000Z</time>
      </trkpt>
      <trkpt lat="49.78159" lon="4.84105">
        <ele>194</ele>
        <time>2021-08-27T09:24:53.000Z</time>
      </trkpt>
      <trkpt lat="49.78156" lon="4.84103">
        <ele>194</ele>
        <time>2021-08-27T09:24:54.000Z</time>
      </trkpt>
      <trkpt lat="49.78153" lon="4.84101">
        <ele>194</ele>
        <time>2021-08-27T09:24:55.000Z</time>
      </trkpt>
      <trkpt lat="49.78149" lon="4.84099">
        <ele>194</ele>
        <time>2021-08-27T09:24:56.000Z</time>
      </trkpt>
      <trkpt lat="49.78146" lon="4.84097">
        <ele>195</ele>
        <time>2021-08-27T09:24:57.000Z</time>
      </trkpt>
      <trkpt lat="49.78143" lon="4.84095">
        <ele>195</ele>
        <time>2021-08-27T09:24:58.000Z</time>
      </trkpt>
      <trkpt lat="49.7814" lon="4.84094">
        <ele>195</ele>
        <time>2021-08-27T09:24:59.000Z</time>
      </trkpt>
      <trkpt lat="49.78137" lon="4.84092">
        <ele>195</ele>
        <time>2021-08-27T09:25:00.000Z</time>
      </trkpt>
      <trkpt lat="49.78135" lon="4.84091">
        <ele>195</ele>
        <time>2021-08-27T09:25:01.000Z</time>
      </trkpt>
      <trkpt lat="49.78132" lon="4.84089">
        <ele>195</ele>
        <time>2021-08-27T09:25:02.000Z</time>
      </trkpt>
      <trkpt lat="49.78129" lon="4.84088">
        <ele>195</ele>
        <time>2021-08-27T09:25:03.000Z</time>
      </trkpt>
      <trkpt lat="49.78126" lon="4.84086">
        <ele>195</ele>
        <time>2021-08-27T09:25:04.000Z</time>
      </trkpt>
      <trkpt lat="49.78123" lon="4.84084">
        <ele>195</ele>
        <time>2021-08-27T09:25:05.000Z</time>
      </trkpt>
      <trkpt lat="49.78119" lon="4.84083">
        <ele>195</ele>
        <time>2021-08-27T09:25:06.000Z</time>
      </trkpt>
      <trkpt lat="49.78116" lon="4.84081">
        <ele>196</ele>
        <time>2021-08-27T09:25:07.000Z</time>
      </trkpt>
      <trkpt lat="49.78113" lon="4.84079">
        <ele>196</ele>
        <time>2021-08-27T09:25:08.000Z</time>
      </trkpt>
      <trkpt lat="49.7811" lon="4.84077">
        <ele>196</ele>
        <time>2021-08-27T09:25:09.000Z</time>
      </trkpt>
      <trkpt lat="49.78106" lon="4.84075">
        <ele>196</ele>
        <time>2021-08-27T09:25:10.000Z</time>
      </trkpt>
      <trkpt lat="49.78103" lon="4.84072">
        <ele>196</ele>
        <time>2021-08-27T09:25:11.000Z</time>
      </trkpt>
      <trkpt lat="49.78101" lon="4.8407">
        <ele>196</ele>
        <time>2021-08-27T09:25:12.000Z</time>
      </trkpt>
      <trkpt lat="49.78098" lon="4.84068">
        <ele>196</ele>
        <time>2021-08-27T09:25:13.000Z</time>
      </trkpt>
      <trkpt lat="49.78095" lon="4.84067">
        <ele>196</ele>
        <time>2021-08-27T09:25:14.000Z</time>
      </trkpt>
      <trkpt lat="49.78092" lon="4.84066">
        <ele>196</ele>
        <time>2021-08-27T09:25:15.000Z</time>
      </trkpt>
      <trkpt lat="49.78089" lon="4.84064">
        <ele>196</ele>
        <time>2021-08-27T09:25:16.000Z</time>
      </trkpt>
      <trkpt lat="49.78086" lon="4.84063">
        <ele>196</ele>
        <time>2021-08-27T09:25:17.000Z</time>
      </trkpt>
      <trkpt lat="49.78083" lon="4.84061">
        <ele>196</ele>
        <time>2021-08-27T09:25:18.000Z</time>
      </trkpt>
      <trkpt lat="49.7808" lon="4.84059">
        <ele>196</ele>
        <time>2021-08-27T09:25:19.000Z</time>
      </trkpt>
      <trkpt lat="49.78077" lon="4.84058">
        <ele>196</ele>
        <time>2021-08-27T09:25:20.000Z</time>
      </trkpt>
      <trkpt lat="49.78074" lon="4.84056">
        <ele>196</ele>
        <time>2021-08-27T09:25:21.000Z</time>
      </trkpt>
      <trkpt lat="49.78071" lon="4.84054">
        <ele>196</ele>
        <time>2021-08-27T09:25:22.000Z</time>
      </trkpt>
      <trkpt lat="49.78067" lon="4.84052">
        <ele>196</ele>
        <time>2021-08-27T09:25:23.000Z</time>
      </trkpt>
      <trkpt lat="49.78064" lon="4.8405">
        <ele>197</ele>
        <time>2021-08-27T09:25:24.000Z</time>
      </trkpt>
      <trkpt lat="49.78061" lon="4.84048">
        <ele>197</ele>
        <time>2021-08-27T09:25:25.000Z</time>
      </trkpt>
      <trkpt lat="49.78057" lon="4.84046">
        <ele>197</ele>
        <time>2021-08-27T09:25:26.000Z</time>
      </trkpt>
      <trkpt lat="49.78054" lon="4.84044">
        <ele>197</ele>
        <time>2021-08-27T09:25:27.000Z</time>
      </trkpt>
      <trkpt lat="49.78051" lon="4.84042">
        <ele>197</ele>
        <time>2021-08-27T09:25:28.000Z</time>
      </trkpt>
      <trkpt lat="49.78048" lon="4.8404">
        <ele>198</ele>
        <time>2021-08-27T09:25:29.000Z</time>
      </trkpt>
      <trkpt lat="49.78045" lon="4.84038">
        <ele>198</ele>
        <time>2021-08-27T09:25:30.000Z</time>
      </trkpt>
      <trkpt lat="49.78041" lon="4.84036">
        <ele>198</ele>
        <time>2021-08-27T09:25:31.000Z</time>
      </trkpt>
      <trkpt lat="49.78037" lon="4.84035">
        <ele>198</ele>
        <time>2021-08-27T09:25:32.000Z</time>
      </trkpt>
      <trkpt lat="49.78034" lon="4.84033">
        <ele>199</ele>
        <time>2021-08-27T09:25:33.000Z</time>
      </trkpt>
      <trkpt lat="49.7803" lon="4.84031">
        <ele>199</ele>
        <time>2021-08-27T09:25:34.000Z</time>
      </trkpt>
      <trkpt lat="49.78026" lon="4.84029">
        <ele>199</ele>
        <time>2021-08-27T09:25:35.000Z</time>
      </trkpt>
      <trkpt lat="49.78022" lon="4.84026">
        <ele>199</ele>
        <time>2021-08-27T09:25:36.000Z</time>
      </trkpt>
      <trkpt lat="49.78018" lon="4.84023">
        <ele>199</ele>
        <time>2021-08-27T09:25:37.000Z</time>
      </trkpt>
      <trkpt lat="49.78015" lon="4.8402">
        <ele>199</ele>
        <time>2021-08-27T09:25:38.000Z</time>
      </trkpt>
      <trkpt lat="49.78011" lon="4.84017">
        <ele>200</ele>
        <time>2021-08-27T09:25:39.000Z</time>
      </trkpt>
      <trkpt lat="49.78008" lon="4.84014">
        <ele>200</ele>
        <time>2021-08-27T09:25:40.000Z</time>
      </trkpt>
      <trkpt lat="49.78005" lon="4.84011">
        <ele>200</ele>
        <time>2021-08-27T09:25:41.000Z</time>
      </trkpt>
      <trkpt lat="49.78002" lon="4.84008">
        <ele>200</ele>
        <time>2021-08-27T09:25:42.000Z</time>
      </trkpt>
      <trkpt lat="49.77998" lon="4.84005">
        <ele>200</ele>
        <time>2021-08-27T09:25:43.000Z</time>
      </trkpt>
      <trkpt lat="49.77996" lon="4.84001">
        <ele>200</ele>
        <time>2021-08-27T09:25:44.000Z</time>
      </trkpt>
      <trkpt lat="49.77992" lon="4.83998">
        <ele>200</ele>
        <time>2021-08-27T09:25:45.000Z</time>
      </trkpt>
      <trkpt lat="49.7799" lon="4.83994">
        <ele>200</ele>
        <time>2021-08-27T09:25:46.000Z</time>
      </trkpt>
      <trkpt lat="49.77988" lon="4.8399">
        <ele>200</ele>
        <time>2021-08-27T09:25:47.000Z</time>
      </trkpt>
      <trkpt lat="49.77985" lon="4.83986">
        <ele>200</ele>
        <time>2021-08-27T09:25:48.000Z</time>
      </trkpt>
      <trkpt lat="49.77982" lon="4.83982">
        <ele>200</ele>
        <time>2021-08-27T09:25:49.000Z</time>
      </trkpt>
      <trkpt lat="49.7798" lon="4.83978">
        <ele>200</ele>
        <time>2021-08-27T09:25:50.000Z</time>
      </trkpt>
      <trkpt lat="49.77977" lon="4.83974">
        <ele>200</ele>
        <time>2021-08-27T09:25:51.000Z</time>
      </trkpt>
      <trkpt lat="49.77975" lon="4.83969">
        <ele>200</ele>
        <time>2021-08-27T09:25:52.000Z</time>
      </trkpt>
      <trkpt lat="49.77972" lon="4.83966">
        <ele>200</ele>
        <time>2021-08-27T09:25:53.000Z</time>
      </trkpt>
      <trkpt lat="49.77969" lon="4.83962">
        <ele>200</ele>
        <time>2021-08-27T09:25:54.000Z</time>
      </trkpt>
      <trkpt lat="49.77966" lon="4.83957">
        <ele>200</ele>
        <time>2021-08-27T09:25:55.000Z</time>
      </trkpt>
      <trkpt lat="49.77963" lon="4.83953">
        <ele>200</ele>
        <time>2021-08-27T09:25:56.000Z</time>
      </trkpt>
      <trkpt lat="49.7796" lon="4.83949">
        <ele>200</ele>
        <time>2021-08-27T09:25:57.000Z</time>
      </trkpt>
      <trkpt lat="49.77957" lon="4.83945">
        <ele>200</ele>
        <time>2021-08-27T09:25:58.000Z</time>
      </trkpt>
      <trkpt lat="49.77955" lon="4.83941">
        <ele>200</ele>
        <time>2021-08-27T09:25:59.000Z</time>
      </trkpt>
      <trkpt lat="49.77952" lon="4.83937">
        <ele>200</ele>
        <time>2021-08-27T09:26:00.000Z</time>
      </trkpt>
      <trkpt lat="49.77949" lon="4.83933">
        <ele>200</ele>
        <time>2021-08-27T09:26:01.000Z</time>
      </trkpt>
      <trkpt lat="49.77946" lon="4.8393">
        <ele>200</ele>
        <time>2021-08-27T09:26:02.000Z</time>
      </trkpt>
      <trkpt lat="49.77943" lon="4.83926">
        <ele>200</ele>
        <time>2021-08-27T09:26:03.000Z</time>
      </trkpt>
      <trkpt lat="49.7794" lon="4.83922">
        <ele>200</ele>
        <time>2021-08-27T09:26:04.000Z</time>
      </trkpt>
      <trkpt lat="49.77938" lon="4.83918">
        <ele>200</ele>
        <time>2021-08-27T09:26:05.000Z</time>
      </trkpt>
      <trkpt lat="49.77935" lon="4.83914">
        <ele>200</ele>
        <time>2021-08-27T09:26:06.000Z</time>
      </trkpt>
      <trkpt lat="49.77932" lon="4.8391">
        <ele>200</ele>
        <time>2021-08-27T09:26:07.000Z</time>
      </trkpt>
      <trkpt lat="49.77929" lon="4.83906">
        <ele>200</ele>
        <time>2021-08-27T09:26:08.000Z</time>
      </trkpt>
      <trkpt lat="49.77926" lon="4.83903">
        <ele>200</ele>
        <time>2021-08-27T09:26:09.000Z</time>
      </trkpt>
      <trkpt lat="49.77924" lon="4.83899">
        <ele>200</ele>
        <time>2021-08-27T09:26:10.000Z</time>
      </trkpt>
      <trkpt lat="49.77921" lon="4.83895">
        <ele>200</ele>
        <time>2021-08-27T09:26:11.000Z</time>
      </trkpt>
      <trkpt lat="49.77918" lon="4.83891">
        <ele>200</ele>
        <time>2021-08-27T09:26:12.000Z</time>
      </trkpt>
      <trkpt lat="49.77916" lon="4.83887">
        <ele>200</ele>
        <time>2021-08-27T09:26:13.000Z</time>
      </trkpt>
      <trkpt lat="49.77913" lon="4.83883">
        <ele>200</ele>
        <time>2021-08-27T09:26:14.000Z</time>
      </trkpt>
      <trkpt lat="49.7791" lon="4.83879">
        <ele>200</ele>
        <time>2021-08-27T09:26:15.000Z</time>
      </trkpt>
      <trkpt lat="49.77907" lon="4.83876">
        <ele>200</ele>
        <time>2021-08-27T09:26:16.000Z</time>
      </trkpt>
      <trkpt lat="49.77905" lon="4.83872">
        <ele>200</ele>
        <time>2021-08-27T09:26:17.000Z</time>
      </trkpt>
      <trkpt lat="49.77902" lon="4.83868">
        <ele>200</ele>
        <time>2021-08-27T09:26:18.000Z</time>
      </trkpt>
      <trkpt lat="49.77899" lon="4.83865">
        <ele>200</ele>
        <time>2021-08-27T09:26:19.000Z</time>
      </trkpt>
      <trkpt lat="49.77896" lon="4.83861">
        <ele>200</ele>
        <time>2021-08-27T09:26:20.000Z</time>
      </trkpt>
      <trkpt lat="49.77894" lon="4.83858">
        <ele>200</ele>
        <time>2021-08-27T09:26:21.000Z</time>
      </trkpt>
      <trkpt lat="49.77891" lon="4.83854">
        <ele>200</ele>
        <time>2021-08-27T09:26:22.000Z</time>
      </trkpt>
      <trkpt lat="49.77888" lon="4.8385">
        <ele>200</ele>
        <time>2021-08-27T09:26:23.000Z</time>
      </trkpt>
      <trkpt lat="49.77886" lon="4.83847">
        <ele>200</ele>
        <time>2021-08-27T09:26:24.000Z</time>
      </trkpt>
      <trkpt lat="49.77883" lon="4.83843">
        <ele>200</ele>
        <time>2021-08-27T09:26:25.000Z</time>
      </trkpt>
      <trkpt lat="49.77881" lon="4.8384">
        <ele>200</ele>
        <time>2021-08-27T09:26:26.000Z</time>
      </trkpt>
      <trkpt lat="49.77878" lon="4.83836">
        <ele>200</ele>
        <time>2021-08-27T09:26:27.000Z</time>
      </trkpt>
      <trkpt lat="49.77875" lon="4.83833">
        <ele>200</ele>
        <time>2021-08-27T09:26:28.000Z</time>
      </trkpt>
      <trkpt lat="49.77873" lon="4.83829">
        <ele>201</ele>
        <time>2021-08-27T09:26:29.000Z</time>
      </trkpt>
      <trkpt lat="49.77871" lon="4.83826">
        <ele>201</ele>
        <time>2021-08-27T09:26:30.000Z</time>
      </trkpt>
      <trkpt lat="49.77868" lon="4.83823">
        <ele>201</ele>
        <time>2021-08-27T09:26:31.000Z</time>
      </trkpt>
      <trkpt lat="49.77865" lon="4.83822">
        <ele>201</ele>
        <time>2021-08-27T09:26:32.000Z</time>
      </trkpt>
      <trkpt lat="49.77863" lon="4.83822">
        <ele>201</ele>
        <time>2021-08-27T09:26:33.000Z</time>
      </trkpt>
      <trkpt lat="49.7786" lon="4.83823">
        <ele>201</ele>
        <time>2021-08-27T09:26:34.000Z</time>
      </trkpt>
      <trkpt lat="49.77858" lon="4.83824">
        <ele>201</ele>
        <time>2021-08-27T09:26:35.000Z</time>
      </trkpt>
      <trkpt lat="49.77856" lon="4.83825">
        <ele>201</ele>
        <time>2021-08-27T09:26:36.000Z</time>
      </trkpt>
      <trkpt lat="49.77855" lon="4.83825">
        <ele>201</ele>
        <time>2021-08-27T09:26:37.000Z</time>
      </trkpt>
      <trkpt lat="49.77853" lon="4.83825">
        <ele>201</ele>
        <time>2021-08-27T09:26:38.000Z</time>
      </trkpt>
      <trkpt lat="49.77852" lon="4.83824">
        <ele>201</ele>
        <time>2021-08-27T09:26:39.000Z</time>
      </trkpt>
      <trkpt lat="49.77851" lon="4.83824">
        <ele>201</ele>
        <time>2021-08-27T09:26:40.000Z</time>
      </trkpt>
      <trkpt lat="49.7785" lon="4.83825">
        <ele>201</ele>
        <time>2021-08-27T09:26:41.000Z</time>
      </trkpt>
      <trkpt lat="49.77849" lon="4.83824">
        <ele>201</ele>
        <time>2021-08-27T09:26:42.000Z</time>
      </trkpt>
      <trkpt lat="49.77848" lon="4.83824">
        <ele>202</ele>
        <time>2021-08-27T09:26:43.000Z</time>
      </trkpt>
      <trkpt lat="49.77846" lon="4.83824">
        <ele>202</ele>
        <time>2021-08-27T09:26:44.000Z</time>
      </trkpt>
      <trkpt lat="49.77845" lon="4.83823">
        <ele>202</ele>
        <time>2021-08-27T09:26:45.000Z</time>
      </trkpt>
      <trkpt lat="49.77843" lon="4.83823">
        <ele>202</ele>
        <time>2021-08-27T09:26:46.000Z</time>
      </trkpt>
      <trkpt lat="49.77842" lon="4.83823">
        <ele>202</ele>
        <time>2021-08-27T09:26:47.000Z</time>
      </trkpt>
      <trkpt lat="49.7784" lon="4.83822">
        <ele>202</ele>
        <time>2021-08-27T09:26:48.000Z</time>
      </trkpt>
      <trkpt lat="49.77838" lon="4.83822">
        <ele>203</ele>
        <time>2021-08-27T09:26:49.000Z</time>
      </trkpt>
      <trkpt lat="49.77836" lon="4.83821">
        <ele>203</ele>
        <time>2021-08-27T09:26:50.000Z</time>
      </trkpt>
      <trkpt lat="49.77834" lon="4.8382">
        <ele>203</ele>
        <time>2021-08-27T09:26:51.000Z</time>
      </trkpt>
      <trkpt lat="49.77831" lon="4.8382">
        <ele>204</ele>
        <time>2021-08-27T09:26:52.000Z</time>
      </trkpt>
      <trkpt lat="49.77829" lon="4.83819">
        <ele>204</ele>
        <time>2021-08-27T09:26:53.000Z</time>
      </trkpt>
      <trkpt lat="49.77827" lon="4.83819">
        <ele>204</ele>
        <time>2021-08-27T09:26:54.000Z</time>
      </trkpt>
      <trkpt lat="49.77825" lon="4.83818">
        <ele>205</ele>
        <time>2021-08-27T09:26:55.000Z</time>
      </trkpt>
      <trkpt lat="49.77824" lon="4.83817">
        <ele>206</ele>
        <time>2021-08-27T09:26:56.000Z</time>
      </trkpt>
      <trkpt lat="49.77821" lon="4.83817">
        <ele>206</ele>
        <time>2021-08-27T09:26:57.000Z</time>
      </trkpt>
      <trkpt lat="49.77819" lon="4.83816">
        <ele>207</ele>
        <time>2021-08-27T09:26:58.000Z</time>
      </trkpt>
      <trkpt lat="49.77817" lon="4.83816">
        <ele>207</ele>
        <time>2021-08-27T09:26:59.000Z</time>
      </trkpt>
      <trkpt lat="49.77815" lon="4.83815">
        <ele>208</ele>
        <time>2021-08-27T09:27:00.000Z</time>
      </trkpt>
      <trkpt lat="49.77812" lon="4.83814">
        <ele>208</ele>
        <time>2021-08-27T09:27:01.000Z</time>
      </trkpt>
      <trkpt lat="49.7781" lon="4.83814">
        <ele>209</ele>
        <time>2021-08-27T09:27:02.000Z</time>
      </trkpt>
      <trkpt lat="49.77808" lon="4.83814">
        <ele>209</ele>
        <time>2021-08-27T09:27:03.000Z</time>
      </trkpt>
      <trkpt lat="49.77806" lon="4.83815">
        <ele>209</ele>
        <time>2021-08-27T09:27:04.000Z</time>
      </trkpt>
      <trkpt lat="49.77803" lon="4.83815">
        <ele>210</ele>
        <time>2021-08-27T09:27:05.000Z</time>
      </trkpt>
      <trkpt lat="49.778" lon="4.83813">
        <ele>210</ele>
        <time>2021-08-27T09:27:06.000Z</time>
      </trkpt>
      <trkpt lat="49.77798" lon="4.83813">
        <ele>210</ele>
        <time>2021-08-27T09:27:07.000Z</time>
      </trkpt>
      <trkpt lat="49.77795" lon="4.83812">
        <ele>211</ele>
        <time>2021-08-27T09:27:08.000Z</time>
      </trkpt>
      <trkpt lat="49.77793" lon="4.83811">
        <ele>211</ele>
        <time>2021-08-27T09:27:09.000Z</time>
      </trkpt>
      <trkpt lat="49.77791" lon="4.8381">
        <ele>211</ele>
        <time>2021-08-27T09:27:10.000Z</time>
      </trkpt>
      <trkpt lat="49.77788" lon="4.8381">
        <ele>211</ele>
        <time>2021-08-27T09:27:11.000Z</time>
      </trkpt>
      <trkpt lat="49.77786" lon="4.83809">
        <ele>212</ele>
        <time>2021-08-27T09:27:12.000Z</time>
      </trkpt>
      <trkpt lat="49.77783" lon="4.83809">
        <ele>212</ele>
        <time>2021-08-27T09:27:13.000Z</time>
      </trkpt>
      <trkpt lat="49.77781" lon="4.83809">
        <ele>212</ele>
        <time>2021-08-27T09:27:14.000Z</time>
      </trkpt>
      <trkpt lat="49.77779" lon="4.83809">
        <ele>213</ele>
        <time>2021-08-27T09:27:15.000Z</time>
      </trkpt>
      <trkpt lat="49.77777" lon="4.83808">
        <ele>213</ele>
        <time>2021-08-27T09:27:16.000Z</time>
      </trkpt>
      <trkpt lat="49.77775" lon="4.83808">
        <ele>214</ele>
        <time>2021-08-27T09:27:17.000Z</time>
      </trkpt>
      <trkpt lat="49.77774" lon="4.83808">
        <ele>214</ele>
        <time>2021-08-27T09:27:18.000Z</time>
      </trkpt>
      <trkpt lat="49.77772" lon="4.83807">
        <ele>214</ele>
        <time>2021-08-27T09:27:19.000Z</time>
      </trkpt>
      <trkpt lat="49.7777" lon="4.83807">
        <ele>214</ele>
        <time>2021-08-27T09:27:20.000Z</time>
      </trkpt>
      <trkpt lat="49.77769" lon="4.83807">
        <ele>215</ele>
        <time>2021-08-27T09:27:21.000Z</time>
      </trkpt>
      <trkpt lat="49.77767" lon="4.83806">
        <ele>215</ele>
        <time>2021-08-27T09:27:22.000Z</time>
      </trkpt>
      <trkpt lat="49.77765" lon="4.83806">
        <ele>215</ele>
        <time>2021-08-27T09:27:23.000Z</time>
      </trkpt>
      <trkpt lat="49.77763" lon="4.83805">
        <ele>215</ele>
        <time>2021-08-27T09:27:24.000Z</time>
      </trkpt>
      <trkpt lat="49.77761" lon="4.83804">
        <ele>215</ele>
        <time>2021-08-27T09:27:25.000Z</time>
      </trkpt>
      <trkpt lat="49.77759" lon="4.83803">
        <ele>215</ele>
        <time>2021-08-27T09:27:26.000Z</time>
      </trkpt>
      <trkpt lat="49.77757" lon="4.83803">
        <ele>216</ele>
        <time>2021-08-27T09:27:27.000Z</time>
      </trkpt>
      <trkpt lat="49.77755" lon="4.83802">
        <ele>216</ele>
        <time>2021-08-27T09:27:28.000Z</time>
      </trkpt>
      <trkpt lat="49.77752" lon="4.83801">
        <ele>216</ele>
        <time>2021-08-27T09:27:29.000Z</time>
      </trkpt>
      <trkpt lat="49.7775" lon="4.838">
        <ele>216</ele>
        <time>2021-08-27T09:27:30.000Z</time>
      </trkpt>
      <trkpt lat="49.77749" lon="4.838">
        <ele>216</ele>
        <time>2021-08-27T09:27:31.000Z</time>
      </trkpt>
      <trkpt lat="49.77747" lon="4.838">
        <ele>216</ele>
        <time>2021-08-27T09:27:32.000Z</time>
      </trkpt>
      <trkpt lat="49.77745" lon="4.83799">
        <ele>216</ele>
        <time>2021-08-27T09:27:33.000Z</time>
      </trkpt>
      <trkpt lat="49.77743" lon="4.83798">
        <ele>216</ele>
        <time>2021-08-27T09:27:34.000Z</time>
      </trkpt>
      <trkpt lat="49.77741" lon="4.83798">
        <ele>216</ele>
        <time>2021-08-27T09:27:35.000Z</time>
      </trkpt>
      <trkpt lat="49.77739" lon="4.83797">
        <ele>216</ele>
        <time>2021-08-27T09:27:36.000Z</time>
      </trkpt>
      <trkpt lat="49.77737" lon="4.83797">
        <ele>216</ele>
        <time>2021-08-27T09:27:37.000Z</time>
      </trkpt>
      <trkpt lat="49.77736" lon="4.83797">
        <ele>217</ele>
        <time>2021-08-27T09:27:38.000Z</time>
      </trkpt>
      <trkpt lat="49.77734" lon="4.83796">
        <ele>217</ele>
        <time>2021-08-27T09:27:39.000Z</time>
      </trkpt>
      <trkpt lat="49.77732" lon="4.83796">
        <ele>217</ele>
        <time>2021-08-27T09:27:40.000Z</time>
      </trkpt>
      <trkpt lat="49.77731" lon="4.83795">
        <ele>217</ele>
        <time>2021-08-27T09:27:41.000Z</time>
      </trkpt>
      <trkpt lat="49.77728" lon="4.83794">
        <ele>217</ele>
        <time>2021-08-27T09:27:42.000Z</time>
      </trkpt>
      <trkpt lat="49.77726" lon="4.83794">
        <ele>217</ele>
        <time>2021-08-27T09:27:43.000Z</time>
      </trkpt>
      <trkpt lat="49.77724" lon="4.83794">
        <ele>217</ele>
        <time>2021-08-27T09:27:44.000Z</time>
      </trkpt>
      <trkpt lat="49.77722" lon="4.83793">
        <ele>218</ele>
        <time>2021-08-27T09:27:45.000Z</time>
      </trkpt>
      <trkpt lat="49.77721" lon="4.83792">
        <ele>218</ele>
        <time>2021-08-27T09:27:46.000Z</time>
      </trkpt>
      <trkpt lat="49.7772" lon="4.83791">
        <ele>218</ele>
        <time>2021-08-27T09:27:47.000Z</time>
      </trkpt>
      <trkpt lat="49.77718" lon="4.83791">
        <ele>219</ele>
        <time>2021-08-27T09:27:48.000Z</time>
      </trkpt>
      <trkpt lat="49.77716" lon="4.8379">
        <ele>219</ele>
        <time>2021-08-27T09:27:49.000Z</time>
      </trkpt>
      <trkpt lat="49.77714" lon="4.83789">
        <ele>219</ele>
        <time>2021-08-27T09:27:50.000Z</time>
      </trkpt>
      <trkpt lat="49.77713" lon="4.83788">
        <ele>219</ele>
        <time>2021-08-27T09:27:51.000Z</time>
      </trkpt>
      <trkpt lat="49.77712" lon="4.83786">
        <ele>220</ele>
        <time>2021-08-27T09:27:52.000Z</time>
      </trkpt>
      <trkpt lat="49.77711" lon="4.83784">
        <ele>220</ele>
        <time>2021-08-27T09:27:53.000Z</time>
      </trkpt>
      <trkpt lat="49.77711" lon="4.83782">
        <ele>220</ele>
        <time>2021-08-27T09:27:54.000Z</time>
      </trkpt>
      <trkpt lat="49.7771" lon="4.83778">
        <ele>221</ele>
        <time>2021-08-27T09:27:55.000Z</time>
      </trkpt>
      <trkpt lat="49.77709" lon="4.83775">
        <ele>221</ele>
        <time>2021-08-27T09:27:56.000Z</time>
      </trkpt>
      <trkpt lat="49.77708" lon="4.83771">
        <ele>221</ele>
        <time>2021-08-27T09:27:57.000Z</time>
      </trkpt>
      <trkpt lat="49.77707" lon="4.83768">
        <ele>221</ele>
        <time>2021-08-27T09:27:58.000Z</time>
      </trkpt>
      <trkpt lat="49.77705" lon="4.83764">
        <ele>221</ele>
        <time>2021-08-27T09:27:59.000Z</time>
      </trkpt>
      <trkpt lat="49.77704" lon="4.8376">
        <ele>222</ele>
        <time>2021-08-27T09:28:00.000Z</time>
      </trkpt>
      <trkpt lat="49.77702" lon="4.83757">
        <ele>222</ele>
        <time>2021-08-27T09:28:01.000Z</time>
      </trkpt>
      <trkpt lat="49.77701" lon="4.83753">
        <ele>222</ele>
        <time>2021-08-27T09:28:02.000Z</time>
      </trkpt>
      <trkpt lat="49.77699" lon="4.83749">
        <ele>222</ele>
        <time>2021-08-27T09:28:03.000Z</time>
      </trkpt>
      <trkpt lat="49.77698" lon="4.83745">
        <ele>222</ele>
        <time>2021-08-27T09:28:04.000Z</time>
      </trkpt>
      <trkpt lat="49.77697" lon="4.83741">
        <ele>222</ele>
        <time>2021-08-27T09:28:05.000Z</time>
      </trkpt>
      <trkpt lat="49.77696" lon="4.83737">
        <ele>222</ele>
        <time>2021-08-27T09:28:06.000Z</time>
      </trkpt>
      <trkpt lat="49.77695" lon="4.83733">
        <ele>223</ele>
        <time>2021-08-27T09:28:07.000Z</time>
      </trkpt>
      <trkpt lat="49.77693" lon="4.8373">
        <ele>223</ele>
        <time>2021-08-27T09:28:08.000Z</time>
      </trkpt>
      <trkpt lat="49.77693" lon="4.83726">
        <ele>223</ele>
        <time>2021-08-27T09:28:09.000Z</time>
      </trkpt>
      <trkpt lat="49.77692" lon="4.83723">
        <ele>223</ele>
        <time>2021-08-27T09:28:10.000Z</time>
      </trkpt>
      <trkpt lat="49.77691" lon="4.8372">
        <ele>223</ele>
        <time>2021-08-27T09:28:11.000Z</time>
      </trkpt>
      <trkpt lat="49.7769" lon="4.83716">
        <ele>224</ele>
        <time>2021-08-27T09:28:12.000Z</time>
      </trkpt>
      <trkpt lat="49.7769" lon="4.83712">
        <ele>224</ele>
        <time>2021-08-27T09:28:13.000Z</time>
      </trkpt>
      <trkpt lat="49.77689" lon="4.83708">
        <ele>224</ele>
        <time>2021-08-27T09:28:14.000Z</time>
      </trkpt>
      <trkpt lat="49.77688" lon="4.83704">
        <ele>224</ele>
        <time>2021-08-27T09:28:15.000Z</time>
      </trkpt>
      <trkpt lat="49.77687" lon="4.83699">
        <ele>225</ele>
        <time>2021-08-27T09:28:16.000Z</time>
      </trkpt>
      <trkpt lat="49.77686" lon="4.83695">
        <ele>225</ele>
        <time>2021-08-27T09:28:17.000Z</time>
      </trkpt>
      <trkpt lat="49.77686" lon="4.83691">
        <ele>225</ele>
        <time>2021-08-27T09:28:18.000Z</time>
      </trkpt>
      <trkpt lat="49.77685" lon="4.83686">
        <ele>225</ele>
        <time>2021-08-27T09:28:19.000Z</time>
      </trkpt>
      <trkpt lat="49.77684" lon="4.83683">
        <ele>225</ele>
        <time>2021-08-27T09:28:20.000Z</time>
      </trkpt>
      <trkpt lat="49.77683" lon="4.83678">
        <ele>225</ele>
        <time>2021-08-27T09:28:21.000Z</time>
      </trkpt>
      <trkpt lat="49.77682" lon="4.83673">
        <ele>225</ele>
        <time>2021-08-27T09:28:22.000Z</time>
      </trkpt>
      <trkpt lat="49.77681" lon="4.83669">
        <ele>225</ele>
        <time>2021-08-27T09:28:23.000Z</time>
      </trkpt>
      <trkpt lat="49.7768" lon="4.83664">
        <ele>225</ele>
        <time>2021-08-27T09:28:24.000Z</time>
      </trkpt>
      <trkpt lat="49.77679" lon="4.8366">
        <ele>226</ele>
        <time>2021-08-27T09:28:25.000Z</time>
      </trkpt>
      <trkpt lat="49.77678" lon="4.83656">
        <ele>226</ele>
        <time>2021-08-27T09:28:26.000Z</time>
      </trkpt>
      <trkpt lat="49.77676" lon="4.83651">
        <ele>226</ele>
        <time>2021-08-27T09:28:27.000Z</time>
      </trkpt>
      <trkpt lat="49.77675" lon="4.83646">
        <ele>226</ele>
        <time>2021-08-27T09:28:28.000Z</time>
      </trkpt>
      <trkpt lat="49.77674" lon="4.83641">
        <ele>226</ele>
        <time>2021-08-27T09:28:29.000Z</time>
      </trkpt>
      <trkpt lat="49.77672" lon="4.83636">
        <ele>226</ele>
        <time>2021-08-27T09:28:30.000Z</time>
      </trkpt>
      <trkpt lat="49.77671" lon="4.83632">
        <ele>226</ele>
        <time>2021-08-27T09:28:31.000Z</time>
      </trkpt>
      <trkpt lat="49.7767" lon="4.83628">
        <ele>226</ele>
        <time>2021-08-27T09:28:32.000Z</time>
      </trkpt>
      <trkpt lat="49.77669" lon="4.83623">
        <ele>226</ele>
        <time>2021-08-27T09:28:33.000Z</time>
      </trkpt>
      <trkpt lat="49.77668" lon="4.83618">
        <ele>226</ele>
        <time>2021-08-27T09:28:34.000Z</time>
      </trkpt>
      <trkpt lat="49.77667" lon="4.83612">
        <ele>226</ele>
        <time>2021-08-27T09:28:35.000Z</time>
      </trkpt>
      <trkpt lat="49.77666" lon="4.83607">
        <ele>226</ele>
        <time>2021-08-27T09:28:36.000Z</time>
      </trkpt>
      <trkpt lat="49.77664" lon="4.83603">
        <ele>226</ele>
        <time>2021-08-27T09:28:37.000Z</time>
      </trkpt>
      <trkpt lat="49.77662" lon="4.83599">
        <ele>226</ele>
        <time>2021-08-27T09:28:38.000Z</time>
      </trkpt>
      <trkpt lat="49.7766" lon="4.83595">
        <ele>226</ele>
        <time>2021-08-27T09:28:39.000Z</time>
      </trkpt>
      <trkpt lat="49.77658" lon="4.83591">
        <ele>227</ele>
        <time>2021-08-27T09:28:40.000Z</time>
      </trkpt>
      <trkpt lat="49.77656" lon="4.83587">
        <ele>227</ele>
        <time>2021-08-27T09:28:41.000Z</time>
      </trkpt>
      <trkpt lat="49.77654" lon="4.83583">
        <ele>227</ele>
        <time>2021-08-27T09:28:42.000Z</time>
      </trkpt>
      <trkpt lat="49.77652" lon="4.83579">
        <ele>227</ele>
        <time>2021-08-27T09:28:43.000Z</time>
      </trkpt>
      <trkpt lat="49.7765" lon="4.83575">
        <ele>227</ele>
        <time>2021-08-27T09:28:44.000Z</time>
      </trkpt>
      <trkpt lat="49.77648" lon="4.83571">
        <ele>227</ele>
        <time>2021-08-27T09:28:45.000Z</time>
      </trkpt>
      <trkpt lat="49.77645" lon="4.83567">
        <ele>227</ele>
        <time>2021-08-27T09:28:46.000Z</time>
      </trkpt>
      <trkpt lat="49.77643" lon="4.83563">
        <ele>227</ele>
        <time>2021-08-27T09:28:47.000Z</time>
      </trkpt>
      <trkpt lat="49.77641" lon="4.83559">
        <ele>227</ele>
        <time>2021-08-27T09:28:48.000Z</time>
      </trkpt>
      <trkpt lat="49.77639" lon="4.83555">
        <ele>227</ele>
        <time>2021-08-27T09:28:49.000Z</time>
      </trkpt>
      <trkpt lat="49.77636" lon="4.83551">
        <ele>227</ele>
        <time>2021-08-27T09:28:50.000Z</time>
      </trkpt>
      <trkpt lat="49.77634" lon="4.83547">
        <ele>226</ele>
        <time>2021-08-27T09:28:51.000Z</time>
      </trkpt>
      <trkpt lat="49.77632" lon="4.83543">
        <ele>226</ele>
        <time>2021-08-27T09:28:52.000Z</time>
      </trkpt>
      <trkpt lat="49.7763" lon="4.83538">
        <ele>226</ele>
        <time>2021-08-27T09:28:53.000Z</time>
      </trkpt>
      <trkpt lat="49.77628" lon="4.83534">
        <ele>226</ele>
        <time>2021-08-27T09:28:54.000Z</time>
      </trkpt>
      <trkpt lat="49.77626" lon="4.83531">
        <ele>226</ele>
        <time>2021-08-27T09:28:55.000Z</time>
      </trkpt>
      <trkpt lat="49.77624" lon="4.83527">
        <ele>226</ele>
        <time>2021-08-27T09:28:56.000Z</time>
      </trkpt>
      <trkpt lat="49.77621" lon="4.83523">
        <ele>226</ele>
        <time>2021-08-27T09:28:57.000Z</time>
      </trkpt>
      <trkpt lat="49.77619" lon="4.8352">
        <ele>226</ele>
        <time>2021-08-27T09:28:58.000Z</time>
      </trkpt>
      <trkpt lat="49.77617" lon="4.83516">
        <ele>226</ele>
        <time>2021-08-27T09:28:59.000Z</time>
      </trkpt>
      <trkpt lat="49.77615" lon="4.83513">
        <ele>226</ele>
        <time>2021-08-27T09:29:00.000Z</time>
      </trkpt>
      <trkpt lat="49.77612" lon="4.8351">
        <ele>226</ele>
        <time>2021-08-27T09:29:01.000Z</time>
      </trkpt>
      <trkpt lat="49.7761" lon="4.83507">
        <ele>226</ele>
        <time>2021-08-27T09:29:02.000Z</time>
      </trkpt>
      <trkpt lat="49.77607" lon="4.83504">
        <ele>226</ele>
        <time>2021-08-27T09:29:03.000Z</time>
      </trkpt>
      <trkpt lat="49.77605" lon="4.83501">
        <ele>226</ele>
        <time>2021-08-27T09:29:04.000Z</time>
      </trkpt>
      <trkpt lat="49.77602" lon="4.83499">
        <ele>226</ele>
        <time>2021-08-27T09:29:05.000Z</time>
      </trkpt>
      <trkpt lat="49.776" lon="4.83496">
        <ele>226</ele>
        <time>2021-08-27T09:29:06.000Z</time>
      </trkpt>
      <trkpt lat="49.77597" lon="4.83493">
        <ele>227</ele>
        <time>2021-08-27T09:29:07.000Z</time>
      </trkpt>
      <trkpt lat="49.77595" lon="4.83491">
        <ele>227</ele>
        <time>2021-08-27T09:29:08.000Z</time>
      </trkpt>
      <trkpt lat="49.77592" lon="4.83488">
        <ele>227</ele>
        <time>2021-08-27T09:29:09.000Z</time>
      </trkpt>
      <trkpt lat="49.7759" lon="4.83486">
        <ele>227</ele>
        <time>2021-08-27T09:29:10.000Z</time>
      </trkpt>
      <trkpt lat="49.77588" lon="4.83484">
        <ele>227</ele>
        <time>2021-08-27T09:29:11.000Z</time>
      </trkpt>
      <trkpt lat="49.77586" lon="4.83483">
        <ele>227</ele>
        <time>2021-08-27T09:29:12.000Z</time>
      </trkpt>
      <trkpt lat="49.77583" lon="4.83481">
        <ele>228</ele>
        <time>2021-08-27T09:29:13.000Z</time>
      </trkpt>
      <trkpt lat="49.77581" lon="4.8348">
        <ele>228</ele>
        <time>2021-08-27T09:29:14.000Z</time>
      </trkpt>
      <trkpt lat="49.77579" lon="4.83479">
        <ele>228</ele>
        <time>2021-08-27T09:29:15.000Z</time>
      </trkpt>
      <trkpt lat="49.77577" lon="4.83478">
        <ele>228</ele>
        <time>2021-08-27T09:29:16.000Z</time>
      </trkpt>
      <trkpt lat="49.77574" lon="4.83477">
        <ele>229</ele>
        <time>2021-08-27T09:29:17.000Z</time>
      </trkpt>
      <trkpt lat="49.77571" lon="4.83475">
        <ele>229</ele>
        <time>2021-08-27T09:29:18.000Z</time>
      </trkpt>
      <trkpt lat="49.77568" lon="4.83474">
        <ele>229</ele>
        <time>2021-08-27T09:29:19.000Z</time>
      </trkpt>
      <trkpt lat="49.77566" lon="4.83473">
        <ele>229</ele>
        <time>2021-08-27T09:29:20.000Z</time>
      </trkpt>
      <trkpt lat="49.77563" lon="4.83472">
        <ele>230</ele>
        <time>2021-08-27T09:29:21.000Z</time>
      </trkpt>
      <trkpt lat="49.7756" lon="4.8347">
        <ele>230</ele>
        <time>2021-08-27T09:29:22.000Z</time>
      </trkpt>
      <trkpt lat="49.77557" lon="4.83469">
        <ele>230</ele>
        <time>2021-08-27T09:29:23.000Z</time>
      </trkpt>
      <trkpt lat="49.77554" lon="4.83468">
        <ele>230</ele>
        <time>2021-08-27T09:29:24.000Z</time>
      </trkpt>
      <trkpt lat="49.77551" lon="4.83467">
        <ele>230</ele>
        <time>2021-08-27T09:29:25.000Z</time>
      </trkpt>
      <trkpt lat="49.77549" lon="4.83466">
        <ele>231</ele>
        <time>2021-08-27T09:29:26.000Z</time>
      </trkpt>
      <trkpt lat="49.77546" lon="4.83465">
        <ele>231</ele>
        <time>2021-08-27T09:29:27.000Z</time>
      </trkpt>
      <trkpt lat="49.77543" lon="4.83464">
        <ele>231</ele>
        <time>2021-08-27T09:29:28.000Z</time>
      </trkpt>
      <trkpt lat="49.7754" lon="4.83463">
        <ele>232</ele>
        <time>2021-08-27T09:29:29.000Z</time>
      </trkpt>
      <trkpt lat="49.77537" lon="4.83462">
        <ele>232</ele>
        <time>2021-08-27T09:29:30.000Z</time>
      </trkpt>
      <trkpt lat="49.77534" lon="4.83461">
        <ele>232</ele>
        <time>2021-08-27T09:29:31.000Z</time>
      </trkpt>
      <trkpt lat="49.77531" lon="4.83461">
        <ele>233</ele>
        <time>2021-08-27T09:29:32.000Z</time>
      </trkpt>
      <trkpt lat="49.77528" lon="4.83461">
        <ele>233</ele>
        <time>2021-08-27T09:29:33.000Z</time>
      </trkpt>
      <trkpt lat="49.77524" lon="4.83461">
        <ele>234</ele>
        <time>2021-08-27T09:29:34.000Z</time>
      </trkpt>
      <trkpt lat="49.77521" lon="4.83461">
        <ele>234</ele>
        <time>2021-08-27T09:29:35.000Z</time>
      </trkpt>
      <trkpt lat="49.77518" lon="4.8346">
        <ele>234</ele>
        <time>2021-08-27T09:29:36.000Z</time>
      </trkpt>
      <trkpt lat="49.77515" lon="4.83461">
        <ele>235</ele>
        <time>2021-08-27T09:29:37.000Z</time>
      </trkpt>
      <trkpt lat="49.77512" lon="4.83461">
        <ele>235</ele>
        <time>2021-08-27T09:29:38.000Z</time>
      </trkpt>
      <trkpt lat="49.77509" lon="4.83461">
        <ele>236</ele>
        <time>2021-08-27T09:29:39.000Z</time>
      </trkpt>
      <trkpt lat="49.77507" lon="4.83461">
        <ele>236</ele>
        <time>2021-08-27T09:29:40.000Z</time>
      </trkpt>
      <trkpt lat="49.77503" lon="4.8346">
        <ele>237</ele>
        <time>2021-08-27T09:29:41.000Z</time>
      </trkpt>
      <trkpt lat="49.77499" lon="4.8346">
        <ele>237</ele>
        <time>2021-08-27T09:29:42.000Z</time>
      </trkpt>
      <trkpt lat="49.77496" lon="4.8346">
        <ele>237</ele>
        <time>2021-08-27T09:29:43.000Z</time>
      </trkpt>
      <trkpt lat="49.77492" lon="4.8346">
        <ele>238</ele>
        <time>2021-08-27T09:29:44.000Z</time>
      </trkpt>
      <trkpt lat="49.77489" lon="4.83461">
        <ele>238</ele>
        <time>2021-08-27T09:29:45.000Z</time>
      </trkpt>
      <trkpt lat="49.77485" lon="4.83461">
        <ele>239</ele>
        <time>2021-08-27T09:29:46.000Z</time>
      </trkpt>
      <trkpt lat="49.77482" lon="4.83462">
        <ele>239</ele>
        <time>2021-08-27T09:29:47.000Z</time>
      </trkpt>
      <trkpt lat="49.77479" lon="4.83462">
        <ele>240</ele>
        <time>2021-08-27T09:29:48.000Z</time>
      </trkpt>
      <trkpt lat="49.77476" lon="4.83462">
        <ele>240</ele>
        <time>2021-08-27T09:29:49.000Z</time>
      </trkpt>
      <trkpt lat="49.77474" lon="4.83462">
        <ele>240</ele>
        <time>2021-08-27T09:29:50.000Z</time>
      </trkpt>
      <trkpt lat="49.7747" lon="4.83462">
        <ele>241</ele>
        <time>2021-08-27T09:29:51.000Z</time>
      </trkpt>
      <trkpt lat="49.77467" lon="4.83462">
        <ele>241</ele>
        <time>2021-08-27T09:29:52.000Z</time>
      </trkpt>
      <trkpt lat="49.77464" lon="4.83462">
        <ele>241</ele>
        <time>2021-08-27T09:29:53.000Z</time>
      </trkpt>
      <trkpt lat="49.7746" lon="4.83462">
        <ele>242</ele>
        <time>2021-08-27T09:29:54.000Z</time>
      </trkpt>
      <trkpt lat="49.77458" lon="4.83462">
        <ele>242</ele>
        <time>2021-08-27T09:29:55.000Z</time>
      </trkpt>
      <trkpt lat="49.77454" lon="4.83462">
        <ele>242</ele>
        <time>2021-08-27T09:29:56.000Z</time>
      </trkpt>
      <trkpt lat="49.77451" lon="4.83462">
        <ele>243</ele>
        <time>2021-08-27T09:29:57.000Z</time>
      </trkpt>
      <trkpt lat="49.77447" lon="4.83461">
        <ele>243</ele>
        <time>2021-08-27T09:29:58.000Z</time>
      </trkpt>
      <trkpt lat="49.77444" lon="4.8346">
        <ele>243</ele>
        <time>2021-08-27T09:29:59.000Z</time>
      </trkpt>
      <trkpt lat="49.77441" lon="4.8346">
        <ele>244</ele>
        <time>2021-08-27T09:30:00.000Z</time>
      </trkpt>
      <trkpt lat="49.77438" lon="4.83459">
        <ele>244</ele>
        <time>2021-08-27T09:30:01.000Z</time>
      </trkpt>
      <trkpt lat="49.77435" lon="4.83459">
        <ele>244</ele>
        <time>2021-08-27T09:30:02.000Z</time>
      </trkpt>
      <trkpt lat="49.77432" lon="4.83459">
        <ele>244</ele>
        <time>2021-08-27T09:30:03.000Z</time>
      </trkpt>
      <trkpt lat="49.77429" lon="4.83459">
        <ele>245</ele>
        <time>2021-08-27T09:30:04.000Z</time>
      </trkpt>
      <trkpt lat="49.77426" lon="4.8346">
        <ele>245</ele>
        <time>2021-08-27T09:30:05.000Z</time>
      </trkpt>
      <trkpt lat="49.77423" lon="4.83461">
        <ele>245</ele>
        <time>2021-08-27T09:30:06.000Z</time>
      </trkpt>
      <trkpt lat="49.7742" lon="4.83463">
        <ele>245</ele>
        <time>2021-08-27T09:30:07.000Z</time>
      </trkpt>
      <trkpt lat="49.77417" lon="4.83465">
        <ele>245</ele>
        <time>2021-08-27T09:30:08.000Z</time>
      </trkpt>
      <trkpt lat="49.77415" lon="4.83467">
        <ele>246</ele>
        <time>2021-08-27T09:30:09.000Z</time>
      </trkpt>
      <trkpt lat="49.77413" lon="4.83469">
        <ele>246</ele>
        <time>2021-08-27T09:30:10.000Z</time>
      </trkpt>
      <trkpt lat="49.77412" lon="4.83471">
        <ele>246</ele>
        <time>2021-08-27T09:30:11.000Z</time>
      </trkpt>
      <trkpt lat="49.7741" lon="4.83472">
        <ele>246</ele>
        <time>2021-08-27T09:30:12.000Z</time>
      </trkpt>
      <trkpt lat="49.77408" lon="4.83473">
        <ele>246</ele>
        <time>2021-08-27T09:30:13.000Z</time>
      </trkpt>
      <trkpt lat="49.77406" lon="4.83474">
        <ele>246</ele>
        <time>2021-08-27T09:30:14.000Z</time>
      </trkpt>
      <trkpt lat="49.77404" lon="4.83475">
        <ele>247</ele>
        <time>2021-08-27T09:30:15.000Z</time>
      </trkpt>
      <trkpt lat="49.77402" lon="4.83475">
        <ele>247</ele>
        <time>2021-08-27T09:30:16.000Z</time>
      </trkpt>
      <trkpt lat="49.774" lon="4.83476">
        <ele>247</ele>
        <time>2021-08-27T09:30:17.000Z</time>
      </trkpt>
      <trkpt lat="49.77398" lon="4.83477">
        <ele>247</ele>
        <time>2021-08-27T09:30:18.000Z</time>
      </trkpt>
      <trkpt lat="49.77397" lon="4.83477">
        <ele>247</ele>
        <time>2021-08-27T09:30:19.000Z</time>
      </trkpt>
      <trkpt lat="49.77395" lon="4.83478">
        <ele>248</ele>
        <time>2021-08-27T09:30:20.000Z</time>
      </trkpt>
      <trkpt lat="49.77393" lon="4.83478">
        <ele>248</ele>
        <time>2021-08-27T09:30:21.000Z</time>
      </trkpt>
      <trkpt lat="49.77392" lon="4.83479">
        <ele>248</ele>
        <time>2021-08-27T09:30:22.000Z</time>
      </trkpt>
      <trkpt lat="49.7739" lon="4.83479">
        <ele>248</ele>
        <time>2021-08-27T09:30:23.000Z</time>
      </trkpt>
      <trkpt lat="49.77388" lon="4.83479">
        <ele>249</ele>
        <time>2021-08-27T09:30:24.000Z</time>
      </trkpt>
      <trkpt lat="49.77387" lon="4.83479">
        <ele>249</ele>
        <time>2021-08-27T09:30:25.000Z</time>
      </trkpt>
      <trkpt lat="49.77385" lon="4.83479">
        <ele>249</ele>
        <time>2021-08-27T09:30:26.000Z</time>
      </trkpt>
      <trkpt lat="49.77383" lon="4.8348">
        <ele>249</ele>
        <time>2021-08-27T09:30:27.000Z</time>
      </trkpt>
      <trkpt lat="49.77381" lon="4.83481">
        <ele>249</ele>
        <time>2021-08-27T09:30:28.000Z</time>
      </trkpt>
      <trkpt lat="49.77379" lon="4.83481">
        <ele>250</ele>
        <time>2021-08-27T09:30:29.000Z</time>
      </trkpt>
      <trkpt lat="49.77377" lon="4.83481">
        <ele>250</ele>
        <time>2021-08-27T09:30:30.000Z</time>
      </trkpt>
      <trkpt lat="49.77374" lon="4.83482">
        <ele>250</ele>
        <time>2021-08-27T09:30:31.000Z</time>
      </trkpt>
      <trkpt lat="49.77371" lon="4.83481">
        <ele>250</ele>
        <time>2021-08-27T09:30:32.000Z</time>
      </trkpt>
      <trkpt lat="49.77368" lon="4.83481">
        <ele>250</ele>
        <time>2021-08-27T09:30:33.000Z</time>
      </trkpt>
      <trkpt lat="49.77366" lon="4.83481">
        <ele>250</ele>
        <time>2021-08-27T09:30:34.000Z</time>
      </trkpt>
      <trkpt lat="49.77364" lon="4.83481">
        <ele>250</ele>
        <time>2021-08-27T09:30:35.000Z</time>
      </trkpt>
      <trkpt lat="49.77361" lon="4.8348">
        <ele>250</ele>
        <time>2021-08-27T09:30:36.000Z</time>
      </trkpt>
      <trkpt lat="49.77359" lon="4.83479">
        <ele>250</ele>
        <time>2021-08-27T09:30:37.000Z</time>
      </trkpt>
      <trkpt lat="49.77356" lon="4.83478">
        <ele>250</ele>
        <time>2021-08-27T09:30:38.000Z</time>
      </trkpt>
      <trkpt lat="49.77353" lon="4.83477">
        <ele>250</ele>
        <time>2021-08-27T09:30:39.000Z</time>
      </trkpt>
      <trkpt lat="49.77351" lon="4.83476">
        <ele>250</ele>
        <time>2021-08-27T09:30:40.000Z</time>
      </trkpt>
      <trkpt lat="49.77349" lon="4.83475">
        <ele>250</ele>
        <time>2021-08-27T09:30:41.000Z</time>
      </trkpt>
      <trkpt lat="49.77347" lon="4.83473">
        <ele>250</ele>
        <time>2021-08-27T09:30:42.000Z</time>
      </trkpt>
      <trkpt lat="49.77345" lon="4.83473">
        <ele>250</ele>
        <time>2021-08-27T09:30:43.000Z</time>
      </trkpt>
      <trkpt lat="49.77343" lon="4.83471">
        <ele>250</ele>
        <time>2021-08-27T09:30:44.000Z</time>
      </trkpt>
      <trkpt lat="49.77341" lon="4.8347">
        <ele>250</ele>
        <time>2021-08-27T09:30:45.000Z</time>
      </trkpt>
      <trkpt lat="49.77338" lon="4.83468">
        <ele>250</ele>
        <time>2021-08-27T09:30:46.000Z</time>
      </trkpt>
      <trkpt lat="49.77336" lon="4.83466">
        <ele>250</ele>
        <time>2021-08-27T09:30:47.000Z</time>
      </trkpt>
      <trkpt lat="49.77334" lon="4.83464">
        <ele>250</ele>
        <time>2021-08-27T09:30:48.000Z</time>
      </trkpt>
      <trkpt lat="49.77332" lon="4.83462">
        <ele>250</ele>
        <time>2021-08-27T09:30:49.000Z</time>
      </trkpt>
      <trkpt lat="49.7733" lon="4.8346">
        <ele>250</ele>
        <time>2021-08-27T09:30:50.000Z</time>
      </trkpt>
      <trkpt lat="49.77328" lon="4.83458">
        <ele>250</ele>
        <time>2021-08-27T09:30:51.000Z</time>
      </trkpt>
      <trkpt lat="49.77325" lon="4.83456">
        <ele>251</ele>
        <time>2021-08-27T09:30:52.000Z</time>
      </trkpt>
      <trkpt lat="49.77323" lon="4.83453">
        <ele>251</ele>
        <time>2021-08-27T09:30:53.000Z</time>
      </trkpt>
      <trkpt lat="49.77321" lon="4.83451">
        <ele>251</ele>
        <time>2021-08-27T09:30:54.000Z</time>
      </trkpt>
      <trkpt lat="49.77319" lon="4.83449">
        <ele>251</ele>
        <time>2021-08-27T09:30:55.000Z</time>
      </trkpt>
      <trkpt lat="49.77317" lon="4.83447">
        <ele>251</ele>
        <time>2021-08-27T09:30:56.000Z</time>
      </trkpt>
      <trkpt lat="49.77315" lon="4.83446">
        <ele>251</ele>
        <time>2021-08-27T09:30:57.000Z</time>
      </trkpt>
      <trkpt lat="49.77313" lon="4.83444">
        <ele>251</ele>
        <time>2021-08-27T09:30:58.000Z</time>
      </trkpt>
      <trkpt lat="49.77311" lon="4.83442">
        <ele>251</ele>
        <time>2021-08-27T09:30:59.000Z</time>
      </trkpt>
      <trkpt lat="49.77309" lon="4.8344">
        <ele>251</ele>
        <time>2021-08-27T09:31:00.000Z</time>
      </trkpt>
      <trkpt lat="49.77307" lon="4.83438">
        <ele>251</ele>
        <time>2021-08-27T09:31:01.000Z</time>
      </trkpt>
      <trkpt lat="49.77305" lon="4.83435">
        <ele>251</ele>
        <time>2021-08-27T09:31:02.000Z</time>
      </trkpt>
      <trkpt lat="49.77303" lon="4.83433">
        <ele>251</ele>
        <time>2021-08-27T09:31:03.000Z</time>
      </trkpt>
      <trkpt lat="49.77301" lon="4.83431">
        <ele>251</ele>
        <time>2021-08-27T09:31:04.000Z</time>
      </trkpt>
      <trkpt lat="49.77298" lon="4.83427">
        <ele>251</ele>
        <time>2021-08-27T09:31:05.000Z</time>
      </trkpt>
      <trkpt lat="49.77296" lon="4.83424">
        <ele>251</ele>
        <time>2021-08-27T09:31:06.000Z</time>
      </trkpt>
      <trkpt lat="49.77295" lon="4.83421">
        <ele>251</ele>
        <time>2021-08-27T09:31:07.000Z</time>
      </trkpt>
      <trkpt lat="49.77293" lon="4.83419">
        <ele>251</ele>
        <time>2021-08-27T09:31:08.000Z</time>
      </trkpt>
      <trkpt lat="49.77292" lon="4.83417">
        <ele>251</ele>
        <time>2021-08-27T09:31:09.000Z</time>
      </trkpt>
      <trkpt lat="49.7729" lon="4.83415">
        <ele>251</ele>
        <time>2021-08-27T09:31:10.000Z</time>
      </trkpt>
      <trkpt lat="49.77288" lon="4.83412">
        <ele>251</ele>
        <time>2021-08-27T09:31:11.000Z</time>
      </trkpt>
      <trkpt lat="49.77285" lon="4.8341">
        <ele>251</ele>
        <time>2021-08-27T09:31:12.000Z</time>
      </trkpt>
      <trkpt lat="49.77283" lon="4.83407">
        <ele>251</ele>
        <time>2021-08-27T09:31:13.000Z</time>
      </trkpt>
      <trkpt lat="49.77281" lon="4.83405">
        <ele>251</ele>
        <time>2021-08-27T09:31:14.000Z</time>
      </trkpt>
      <trkpt lat="49.77278" lon="4.83402">
        <ele>251</ele>
        <time>2021-08-27T09:31:15.000Z</time>
      </trkpt>
      <trkpt lat="49.77275" lon="4.834">
        <ele>251</ele>
        <time>2021-08-27T09:31:16.000Z</time>
      </trkpt>
      <trkpt lat="49.77273" lon="4.83398">
        <ele>251</ele>
        <time>2021-08-27T09:31:17.000Z</time>
      </trkpt>
      <trkpt lat="49.7727" lon="4.83396">
        <ele>251</ele>
        <time>2021-08-27T09:31:18.000Z</time>
      </trkpt>
      <trkpt lat="49.7727" lon="4.83396">
        <ele>252</ele>
        <time>2021-08-27T09:31:19.000Z</time>
      </trkpt>
      <trkpt lat="49.77269" lon="4.83395">
        <ele>252</ele>
        <time>2021-08-27T09:31:20.000Z</time>
      </trkpt>
      <trkpt lat="49.77267" lon="4.83393">
        <ele>252</ele>
        <time>2021-08-27T09:31:21.000Z</time>
      </trkpt>
      <trkpt lat="49.77264" lon="4.83391">
        <ele>252</ele>
        <time>2021-08-27T09:31:22.000Z</time>
      </trkpt>
      <trkpt lat="49.77262" lon="4.8339">
        <ele>252</ele>
        <time>2021-08-27T09:31:23.000Z</time>
      </trkpt>
      <trkpt lat="49.7726" lon="4.83388">
        <ele>252</ele>
        <time>2021-08-27T09:31:24.000Z</time>
      </trkpt>
      <trkpt lat="49.77258" lon="4.83386">
        <ele>253</ele>
        <time>2021-08-27T09:31:25.000Z</time>
      </trkpt>
      <trkpt lat="49.77256" lon="4.83384">
        <ele>253</ele>
        <time>2021-08-27T09:31:26.000Z</time>
      </trkpt>
      <trkpt lat="49.77255" lon="4.83383">
        <ele>253</ele>
        <time>2021-08-27T09:31:27.000Z</time>
      </trkpt>
      <trkpt lat="49.77253" lon="4.83382">
        <ele>253</ele>
        <time>2021-08-27T09:31:28.000Z</time>
      </trkpt>
      <trkpt lat="49.77252" lon="4.8338">
        <ele>253</ele>
        <time>2021-08-27T09:31:29.000Z</time>
      </trkpt>
      <trkpt lat="49.7725" lon="4.8338">
        <ele>253</ele>
        <time>2021-08-27T09:31:30.000Z</time>
      </trkpt>
      <trkpt lat="49.77249" lon="4.8338">
        <ele>254</ele>
        <time>2021-08-27T09:31:31.000Z</time>
      </trkpt>
      <trkpt lat="49.77247" lon="4.83379">
        <ele>254</ele>
        <time>2021-08-27T09:31:32.000Z</time>
      </trkpt>
      <trkpt lat="49.77246" lon="4.83378">
        <ele>254</ele>
        <time>2021-08-27T09:31:33.000Z</time>
      </trkpt>
      <trkpt lat="49.77244" lon="4.83378">
        <ele>254</ele>
        <time>2021-08-27T09:31:34.000Z</time>
      </trkpt>
      <trkpt lat="49.77242" lon="4.83377">
        <ele>254</ele>
        <time>2021-08-27T09:31:35.000Z</time>
      </trkpt>
      <trkpt lat="49.77241" lon="4.83376">
        <ele>254</ele>
        <time>2021-08-27T09:31:36.000Z</time>
      </trkpt>
      <trkpt lat="49.77239" lon="4.83376">
        <ele>254</ele>
        <time>2021-08-27T09:31:37.000Z</time>
      </trkpt>
      <trkpt lat="49.77237" lon="4.83375">
        <ele>254</ele>
        <time>2021-08-27T09:31:38.000Z</time>
      </trkpt>
      <trkpt lat="49.77236" lon="4.83375">
        <ele>255</ele>
        <time>2021-08-27T09:31:39.000Z</time>
      </trkpt>
      <trkpt lat="49.77234" lon="4.83374">
        <ele>255</ele>
        <time>2021-08-27T09:31:40.000Z</time>
      </trkpt>
      <trkpt lat="49.77232" lon="4.83374">
        <ele>255</ele>
        <time>2021-08-27T09:31:41.000Z</time>
      </trkpt>
      <trkpt lat="49.77231" lon="4.83374">
        <ele>255</ele>
        <time>2021-08-27T09:31:42.000Z</time>
      </trkpt>
      <trkpt lat="49.77228" lon="4.83374">
        <ele>255</ele>
        <time>2021-08-27T09:31:43.000Z</time>
      </trkpt>
      <trkpt lat="49.77226" lon="4.83374">
        <ele>256</ele>
        <time>2021-08-27T09:31:44.000Z</time>
      </trkpt>
      <trkpt lat="49.77224" lon="4.83373">
        <ele>256</ele>
        <time>2021-08-27T09:31:45.000Z</time>
      </trkpt>
      <trkpt lat="49.77222" lon="4.83373">
        <ele>256</ele>
        <time>2021-08-27T09:31:46.000Z</time>
      </trkpt>
      <trkpt lat="49.7722" lon="4.83373">
        <ele>257</ele>
        <time>2021-08-27T09:31:47.000Z</time>
      </trkpt>
      <trkpt lat="49.77218" lon="4.83372">
        <ele>257</ele>
        <time>2021-08-27T09:31:48.000Z</time>
      </trkpt>
      <trkpt lat="49.77216" lon="4.83373">
        <ele>258</ele>
        <time>2021-08-27T09:31:49.000Z</time>
      </trkpt>
      <trkpt lat="49.77214" lon="4.83373">
        <ele>258</ele>
        <time>2021-08-27T09:31:50.000Z</time>
      </trkpt>
      <trkpt lat="49.77212" lon="4.83373">
        <ele>258</ele>
        <time>2021-08-27T09:31:51.000Z</time>
      </trkpt>
      <trkpt lat="49.77211" lon="4.83373">
        <ele>258</ele>
        <time>2021-08-27T09:31:52.000Z</time>
      </trkpt>
      <trkpt lat="49.77209" lon="4.83373">
        <ele>259</ele>
        <time>2021-08-27T09:31:53.000Z</time>
      </trkpt>
      <trkpt lat="49.77207" lon="4.83372">
        <ele>259</ele>
        <time>2021-08-27T09:31:54.000Z</time>
      </trkpt>
      <trkpt lat="49.77205" lon="4.83372">
        <ele>259</ele>
        <time>2021-08-27T09:31:55.000Z</time>
      </trkpt>
      <trkpt lat="49.77203" lon="4.83371">
        <ele>259</ele>
        <time>2021-08-27T09:31:56.000Z</time>
      </trkpt>
      <trkpt lat="49.77201" lon="4.83371">
        <ele>259</ele>
        <time>2021-08-27T09:31:57.000Z</time>
      </trkpt>
      <trkpt lat="49.77199" lon="4.8337">
        <ele>259</ele>
        <time>2021-08-27T09:31:58.000Z</time>
      </trkpt>
      <trkpt lat="49.77197" lon="4.8337">
        <ele>259</ele>
        <time>2021-08-27T09:31:59.000Z</time>
      </trkpt>
      <trkpt lat="49.77195" lon="4.8337">
        <ele>259</ele>
        <time>2021-08-27T09:32:00.000Z</time>
      </trkpt>
      <trkpt lat="49.77193" lon="4.8337">
        <ele>259</ele>
        <time>2021-08-27T09:32:01.000Z</time>
      </trkpt>
      <trkpt lat="49.77191" lon="4.83369">
        <ele>259</ele>
        <time>2021-08-27T09:32:02.000Z</time>
      </trkpt>
      <trkpt lat="49.7719" lon="4.8337">
        <ele>259</ele>
        <time>2021-08-27T09:32:03.000Z</time>
      </trkpt>
      <trkpt lat="49.77188" lon="4.8337">
        <ele>259</ele>
        <time>2021-08-27T09:32:04.000Z</time>
      </trkpt>
      <trkpt lat="49.77186" lon="4.8337">
        <ele>260</ele>
        <time>2021-08-27T09:32:05.000Z</time>
      </trkpt>
      <trkpt lat="49.77184" lon="4.8337">
        <ele>260</ele>
        <time>2021-08-27T09:32:06.000Z</time>
      </trkpt>
      <trkpt lat="49.77182" lon="4.83371">
        <ele>260</ele>
        <time>2021-08-27T09:32:07.000Z</time>
      </trkpt>
      <trkpt lat="49.77179" lon="4.83371">
        <ele>260</ele>
        <time>2021-08-27T09:32:08.000Z</time>
      </trkpt>
      <trkpt lat="49.77178" lon="4.83372">
        <ele>260</ele>
        <time>2021-08-27T09:32:09.000Z</time>
      </trkpt>
      <trkpt lat="49.77176" lon="4.83373">
        <ele>261</ele>
        <time>2021-08-27T09:32:10.000Z</time>
      </trkpt>
      <trkpt lat="49.77174" lon="4.83373">
        <ele>261</ele>
        <time>2021-08-27T09:32:11.000Z</time>
      </trkpt>
      <trkpt lat="49.77173" lon="4.83375">
        <ele>261</ele>
        <time>2021-08-27T09:32:12.000Z</time>
      </trkpt>
      <trkpt lat="49.77171" lon="4.83376">
        <ele>261</ele>
        <time>2021-08-27T09:32:13.000Z</time>
      </trkpt>
      <trkpt lat="49.77169" lon="4.83377">
        <ele>261</ele>
        <time>2021-08-27T09:32:14.000Z</time>
      </trkpt>
      <trkpt lat="49.77168" lon="4.83378">
        <ele>261</ele>
        <time>2021-08-27T09:32:15.000Z</time>
      </trkpt>
      <trkpt lat="49.77167" lon="4.83379">
        <ele>262</ele>
        <time>2021-08-27T09:32:16.000Z</time>
      </trkpt>
      <trkpt lat="49.77165" lon="4.83379">
        <ele>262</ele>
        <time>2021-08-27T09:32:17.000Z</time>
      </trkpt>
      <trkpt lat="49.77163" lon="4.8338">
        <ele>262</ele>
        <time>2021-08-27T09:32:18.000Z</time>
      </trkpt>
      <trkpt lat="49.77161" lon="4.83381">
        <ele>262</ele>
        <time>2021-08-27T09:32:19.000Z</time>
      </trkpt>
      <trkpt lat="49.77159" lon="4.83382">
        <ele>263</ele>
        <time>2021-08-27T09:32:20.000Z</time>
      </trkpt>
      <trkpt lat="49.77158" lon="4.83383">
        <ele>263</ele>
        <time>2021-08-27T09:32:21.000Z</time>
      </trkpt>
      <trkpt lat="49.77156" lon="4.83384">
        <ele>264</ele>
        <time>2021-08-27T09:32:22.000Z</time>
      </trkpt>
      <trkpt lat="49.77154" lon="4.83385">
        <ele>264</ele>
        <time>2021-08-27T09:32:23.000Z</time>
      </trkpt>
      <trkpt lat="49.77152" lon="4.83386">
        <ele>264</ele>
        <time>2021-08-27T09:32:24.000Z</time>
      </trkpt>
      <trkpt lat="49.7715" lon="4.83386">
        <ele>265</ele>
        <time>2021-08-27T09:32:25.000Z</time>
      </trkpt>
      <trkpt lat="49.77148" lon="4.83387">
        <ele>265</ele>
        <time>2021-08-27T09:32:26.000Z</time>
      </trkpt>
      <trkpt lat="49.77146" lon="4.83389">
        <ele>266</ele>
        <time>2021-08-27T09:32:27.000Z</time>
      </trkpt>
      <trkpt lat="49.77143" lon="4.8339">
        <ele>266</ele>
        <time>2021-08-27T09:32:28.000Z</time>
      </trkpt>
      <trkpt lat="49.77141" lon="4.8339">
        <ele>266</ele>
        <time>2021-08-27T09:32:29.000Z</time>
      </trkpt>
      <trkpt lat="49.77139" lon="4.83391">
        <ele>267</ele>
        <time>2021-08-27T09:32:30.000Z</time>
      </trkpt>
      <trkpt lat="49.77137" lon="4.83393">
        <ele>267</ele>
        <time>2021-08-27T09:32:31.000Z</time>
      </trkpt>
      <trkpt lat="49.77135" lon="4.83393">
        <ele>267</ele>
        <time>2021-08-27T09:32:32.000Z</time>
      </trkpt>
      <trkpt lat="49.77133" lon="4.83394">
        <ele>267</ele>
        <time>2021-08-27T09:32:33.000Z</time>
      </trkpt>
      <trkpt lat="49.77131" lon="4.83395">
        <ele>268</ele>
        <time>2021-08-27T09:32:34.000Z</time>
      </trkpt>
      <trkpt lat="49.77129" lon="4.83396">
        <ele>268</ele>
        <time>2021-08-27T09:32:35.000Z</time>
      </trkpt>
      <trkpt lat="49.77127" lon="4.83397">
        <ele>268</ele>
        <time>2021-08-27T09:32:36.000Z</time>
      </trkpt>
      <trkpt lat="49.77126" lon="4.83398">
        <ele>268</ele>
        <time>2021-08-27T09:32:37.000Z</time>
      </trkpt>
      <trkpt lat="49.77124" lon="4.83399">
        <ele>269</ele>
        <time>2021-08-27T09:32:38.000Z</time>
      </trkpt>
      <trkpt lat="49.77122" lon="4.83399">
        <ele>269</ele>
        <time>2021-08-27T09:32:39.000Z</time>
      </trkpt>
      <trkpt lat="49.7712" lon="4.834">
        <ele>269</ele>
        <time>2021-08-27T09:32:40.000Z</time>
      </trkpt>
      <trkpt lat="49.77118" lon="4.83402">
        <ele>269</ele>
        <time>2021-08-27T09:32:41.000Z</time>
      </trkpt>
      <trkpt lat="49.77116" lon="4.83404">
        <ele>269</ele>
        <time>2021-08-27T09:32:42.000Z</time>
      </trkpt>
      <trkpt lat="49.77114" lon="4.83405">
        <ele>269</ele>
        <time>2021-08-27T09:32:43.000Z</time>
      </trkpt>
      <trkpt lat="49.77111" lon="4.83405">
        <ele>270</ele>
        <time>2021-08-27T09:32:44.000Z</time>
      </trkpt>
      <trkpt lat="49.77109" lon="4.83405">
        <ele>270</ele>
        <time>2021-08-27T09:32:45.000Z</time>
      </trkpt>
      <trkpt lat="49.77106" lon="4.83405">
        <ele>270</ele>
        <time>2021-08-27T09:32:46.000Z</time>
      </trkpt>
      <trkpt lat="49.77104" lon="4.83405">
        <ele>271</ele>
        <time>2021-08-27T09:32:47.000Z</time>
      </trkpt>
      <trkpt lat="49.77102" lon="4.83405">
        <ele>271</ele>
        <time>2021-08-27T09:32:48.000Z</time>
      </trkpt>
      <trkpt lat="49.77099" lon="4.83404">
        <ele>271</ele>
        <time>2021-08-27T09:32:49.000Z</time>
      </trkpt>
      <trkpt lat="49.77096" lon="4.83403">
        <ele>271</ele>
        <time>2021-08-27T09:32:50.000Z</time>
      </trkpt>
      <trkpt lat="49.77093" lon="4.83401">
        <ele>271</ele>
        <time>2021-08-27T09:32:51.000Z</time>
      </trkpt>
      <trkpt lat="49.7709" lon="4.834">
        <ele>271</ele>
        <time>2021-08-27T09:32:52.000Z</time>
      </trkpt>
      <trkpt lat="49.77087" lon="4.83398">
        <ele>271</ele>
        <time>2021-08-27T09:32:53.000Z</time>
      </trkpt>
      <trkpt lat="49.77084" lon="4.83398">
        <ele>271</ele>
        <time>2021-08-27T09:32:54.000Z</time>
      </trkpt>
      <trkpt lat="49.77081" lon="4.83398">
        <ele>271</ele>
        <time>2021-08-27T09:32:55.000Z</time>
      </trkpt>
      <trkpt lat="49.77079" lon="4.83397">
        <ele>271</ele>
        <time>2021-08-27T09:32:56.000Z</time>
      </trkpt>
      <trkpt lat="49.77077" lon="4.83396">
        <ele>270</ele>
        <time>2021-08-27T09:32:57.000Z</time>
      </trkpt>
      <trkpt lat="49.77074" lon="4.83395">
        <ele>270</ele>
        <time>2021-08-27T09:32:58.000Z</time>
      </trkpt>
      <trkpt lat="49.77071" lon="4.83393">
        <ele>270</ele>
        <time>2021-08-27T09:32:59.000Z</time>
      </trkpt>
      <trkpt lat="49.77068" lon="4.83392">
        <ele>270</ele>
        <time>2021-08-27T09:33:00.000Z</time>
      </trkpt>
      <trkpt lat="49.77066" lon="4.83391">
        <ele>270</ele>
        <time>2021-08-27T09:33:01.000Z</time>
      </trkpt>
      <trkpt lat="49.77063" lon="4.83389">
        <ele>270</ele>
        <time>2021-08-27T09:33:02.000Z</time>
      </trkpt>
      <trkpt lat="49.7706" lon="4.83388">
        <ele>270</ele>
        <time>2021-08-27T09:33:03.000Z</time>
      </trkpt>
      <trkpt lat="49.77056" lon="4.83387">
        <ele>270</ele>
        <time>2021-08-27T09:33:04.000Z</time>
      </trkpt>
      <trkpt lat="49.77054" lon="4.83385">
        <ele>270</ele>
        <time>2021-08-27T09:33:05.000Z</time>
      </trkpt>
      <trkpt lat="49.77051" lon="4.83383">
        <ele>270</ele>
        <time>2021-08-27T09:33:06.000Z</time>
      </trkpt>
      <trkpt lat="49.77048" lon="4.83382">
        <ele>270</ele>
        <time>2021-08-27T09:33:07.000Z</time>
      </trkpt>
      <trkpt lat="49.77044" lon="4.8338">
        <ele>270</ele>
        <time>2021-08-27T09:33:08.000Z</time>
      </trkpt>
      <trkpt lat="49.77041" lon="4.83379">
        <ele>270</ele>
        <time>2021-08-27T09:33:09.000Z</time>
      </trkpt>
      <trkpt lat="49.77038" lon="4.83378">
        <ele>270</ele>
        <time>2021-08-27T09:33:10.000Z</time>
      </trkpt>
      <trkpt lat="49.77035" lon="4.83376">
        <ele>270</ele>
        <time>2021-08-27T09:33:11.000Z</time>
      </trkpt>
      <trkpt lat="49.77031" lon="4.83374">
        <ele>270</ele>
        <time>2021-08-27T09:33:12.000Z</time>
      </trkpt>
      <trkpt lat="49.77028" lon="4.83372">
        <ele>269</ele>
        <time>2021-08-27T09:33:13.000Z</time>
      </trkpt>
      <trkpt lat="49.77025" lon="4.83371">
        <ele>269</ele>
        <time>2021-08-27T09:33:14.000Z</time>
      </trkpt>
      <trkpt lat="49.77022" lon="4.83369">
        <ele>269</ele>
        <time>2021-08-27T09:33:15.000Z</time>
      </trkpt>
      <trkpt lat="49.77019" lon="4.83367">
        <ele>269</ele>
        <time>2021-08-27T09:33:16.000Z</time>
      </trkpt>
      <trkpt lat="49.77016" lon="4.83366">
        <ele>269</ele>
        <time>2021-08-27T09:33:17.000Z</time>
      </trkpt>
      <trkpt lat="49.77012" lon="4.83364">
        <ele>269</ele>
        <time>2021-08-27T09:33:18.000Z</time>
      </trkpt>
      <trkpt lat="49.77009" lon="4.83363">
        <ele>269</ele>
        <time>2021-08-27T09:33:19.000Z</time>
      </trkpt>
      <trkpt lat="49.77006" lon="4.83361">
        <ele>269</ele>
        <time>2021-08-27T09:33:20.000Z</time>
      </trkpt>
      <trkpt lat="49.77004" lon="4.83359">
        <ele>269</ele>
        <time>2021-08-27T09:33:21.000Z</time>
      </trkpt>
      <trkpt lat="49.77" lon="4.83357">
        <ele>269</ele>
        <time>2021-08-27T09:33:22.000Z</time>
      </trkpt>
      <trkpt lat="49.76998" lon="4.83354">
        <ele>269</ele>
        <time>2021-08-27T09:33:23.000Z</time>
      </trkpt>
      <trkpt lat="49.76995" lon="4.83352">
        <ele>269</ele>
        <time>2021-08-27T09:33:24.000Z</time>
      </trkpt>
      <trkpt lat="49.76992" lon="4.83348">
        <ele>269</ele>
        <time>2021-08-27T09:33:25.000Z</time>
      </trkpt>
      <trkpt lat="49.7699" lon="4.83345">
        <ele>269</ele>
        <time>2021-08-27T09:33:26.000Z</time>
      </trkpt>
      <trkpt lat="49.76987" lon="4.83342">
        <ele>269</ele>
        <time>2021-08-27T09:33:27.000Z</time>
      </trkpt>
      <trkpt lat="49.76985" lon="4.83339">
        <ele>269</ele>
        <time>2021-08-27T09:33:28.000Z</time>
      </trkpt>
      <trkpt lat="49.76983" lon="4.83335">
        <ele>269</ele>
        <time>2021-08-27T09:33:29.000Z</time>
      </trkpt>
      <trkpt lat="49.76981" lon="4.83332">
        <ele>269</ele>
        <time>2021-08-27T09:33:30.000Z</time>
      </trkpt>
      <trkpt lat="49.76979" lon="4.83328">
        <ele>269</ele>
        <time>2021-08-27T09:33:31.000Z</time>
      </trkpt>
      <trkpt lat="49.76977" lon="4.83324">
        <ele>269</ele>
        <time>2021-08-27T09:33:32.000Z</time>
      </trkpt>
      <trkpt lat="49.76976" lon="4.83321">
        <ele>268</ele>
        <time>2021-08-27T09:33:33.000Z</time>
      </trkpt>
      <trkpt lat="49.76975" lon="4.83318">
        <ele>268</ele>
        <time>2021-08-27T09:33:34.000Z</time>
      </trkpt>
      <trkpt lat="49.76974" lon="4.83315">
        <ele>268</ele>
        <time>2021-08-27T09:33:35.000Z</time>
      </trkpt>
      <trkpt lat="49.76973" lon="4.83312">
        <ele>268</ele>
        <time>2021-08-27T09:33:36.000Z</time>
      </trkpt>
      <trkpt lat="49.76972" lon="4.83308">
        <ele>268</ele>
        <time>2021-08-27T09:33:37.000Z</time>
      </trkpt>
      <trkpt lat="49.7697" lon="4.83305">
        <ele>268</ele>
        <time>2021-08-27T09:33:38.000Z</time>
      </trkpt>
      <trkpt lat="49.76969" lon="4.83301">
        <ele>268</ele>
        <time>2021-08-27T09:33:39.000Z</time>
      </trkpt>
      <trkpt lat="49.76967" lon="4.83297">
        <ele>268</ele>
        <time>2021-08-27T09:33:40.000Z</time>
      </trkpt>
      <trkpt lat="49.76966" lon="4.83294">
        <ele>268</ele>
        <time>2021-08-27T09:33:41.000Z</time>
      </trkpt>
      <trkpt lat="49.76964" lon="4.8329">
        <ele>268</ele>
        <time>2021-08-27T09:33:42.000Z</time>
      </trkpt>
      <trkpt lat="49.76962" lon="4.83287">
        <ele>268</ele>
        <time>2021-08-27T09:33:43.000Z</time>
      </trkpt>
      <trkpt lat="49.76961" lon="4.83283">
        <ele>268</ele>
        <time>2021-08-27T09:33:44.000Z</time>
      </trkpt>
      <trkpt lat="49.76959" lon="4.83279">
        <ele>269</ele>
        <time>2021-08-27T09:33:45.000Z</time>
      </trkpt>
      <trkpt lat="49.76957" lon="4.83275">
        <ele>269</ele>
        <time>2021-08-27T09:33:46.000Z</time>
      </trkpt>
      <trkpt lat="49.76956" lon="4.83271">
        <ele>269</ele>
        <time>2021-08-27T09:33:47.000Z</time>
      </trkpt>
      <trkpt lat="49.76954" lon="4.83266">
        <ele>269</ele>
        <time>2021-08-27T09:33:48.000Z</time>
      </trkpt>
      <trkpt lat="49.76952" lon="4.83262">
        <ele>269</ele>
        <time>2021-08-27T09:33:49.000Z</time>
      </trkpt>
      <trkpt lat="49.76951" lon="4.83258">
        <ele>269</ele>
        <time>2021-08-27T09:33:50.000Z</time>
      </trkpt>
      <trkpt lat="49.76949" lon="4.83254">
        <ele>269</ele>
        <time>2021-08-27T09:33:51.000Z</time>
      </trkpt>
      <trkpt lat="49.76948" lon="4.83251">
        <ele>269</ele>
        <time>2021-08-27T09:33:52.000Z</time>
      </trkpt>
      <trkpt lat="49.76946" lon="4.83247">
        <ele>269</ele>
        <time>2021-08-27T09:33:53.000Z</time>
      </trkpt>
      <trkpt lat="49.76944" lon="4.83243">
        <ele>269</ele>
        <time>2021-08-27T09:33:54.000Z</time>
      </trkpt>
      <trkpt lat="49.76943" lon="4.83239">
        <ele>269</ele>
        <time>2021-08-27T09:33:55.000Z</time>
      </trkpt>
      <trkpt lat="49.76941" lon="4.83235">
        <ele>269</ele>
        <time>2021-08-27T09:33:56.000Z</time>
      </trkpt>
      <trkpt lat="49.76939" lon="4.83231">
        <ele>269</ele>
        <time>2021-08-27T09:33:57.000Z</time>
      </trkpt>
      <trkpt lat="49.76937" lon="4.83227">
        <ele>269</ele>
        <time>2021-08-27T09:33:58.000Z</time>
      </trkpt>
      <trkpt lat="49.76934" lon="4.83223">
        <ele>269</ele>
        <time>2021-08-27T09:33:59.000Z</time>
      </trkpt>
      <trkpt lat="49.76932" lon="4.83219">
        <ele>269</ele>
        <time>2021-08-27T09:34:00.000Z</time>
      </trkpt>
      <trkpt lat="49.7693" lon="4.83214">
        <ele>269</ele>
        <time>2021-08-27T09:34:01.000Z</time>
      </trkpt>
      <trkpt lat="49.76929" lon="4.83208">
        <ele>269</ele>
        <time>2021-08-27T09:34:02.000Z</time>
      </trkpt>
      <trkpt lat="49.76928" lon="4.83203">
        <ele>269</ele>
        <time>2021-08-27T09:34:03.000Z</time>
      </trkpt>
      <trkpt lat="49.76929" lon="4.83197">
        <ele>270</ele>
        <time>2021-08-27T09:34:04.000Z</time>
      </trkpt>
      <trkpt lat="49.7693" lon="4.83191">
        <ele>270</ele>
        <time>2021-08-27T09:34:05.000Z</time>
      </trkpt>
      <trkpt lat="49.76931" lon="4.83186">
        <ele>270</ele>
        <time>2021-08-27T09:34:06.000Z</time>
      </trkpt>
      <trkpt lat="49.76933" lon="4.83182">
        <ele>270</ele>
        <time>2021-08-27T09:34:07.000Z</time>
      </trkpt>
      <trkpt lat="49.76935" lon="4.83177">
        <ele>270</ele>
        <time>2021-08-27T09:34:08.000Z</time>
      </trkpt>
      <trkpt lat="49.76937" lon="4.83174">
        <ele>270</ele>
        <time>2021-08-27T09:34:09.000Z</time>
      </trkpt>
      <trkpt lat="49.76938" lon="4.8317">
        <ele>270</ele>
        <time>2021-08-27T09:34:10.000Z</time>
      </trkpt>
      <trkpt lat="49.76939" lon="4.83165">
        <ele>270</ele>
        <time>2021-08-27T09:34:11.000Z</time>
      </trkpt>
      <trkpt lat="49.7694" lon="4.83161">
        <ele>270</ele>
        <time>2021-08-27T09:34:12.000Z</time>
      </trkpt>
      <trkpt lat="49.7694" lon="4.83156">
        <ele>270</ele>
        <time>2021-08-27T09:34:13.000Z</time>
      </trkpt>
      <trkpt lat="49.7694" lon="4.83152">
        <ele>270</ele>
        <time>2021-08-27T09:34:14.000Z</time>
      </trkpt>
      <trkpt lat="49.76938" lon="4.83146">
        <ele>270</ele>
        <time>2021-08-27T09:34:15.000Z</time>
      </trkpt>
      <trkpt lat="49.76937" lon="4.83141">
        <ele>271</ele>
        <time>2021-08-27T09:34:16.000Z</time>
      </trkpt>
      <trkpt lat="49.76936" lon="4.83136">
        <ele>270</ele>
        <time>2021-08-27T09:34:17.000Z</time>
      </trkpt>
      <trkpt lat="49.76934" lon="4.83131">
        <ele>270</ele>
        <time>2021-08-27T09:34:18.000Z</time>
      </trkpt>
      <trkpt lat="49.76932" lon="4.83126">
        <ele>270</ele>
        <time>2021-08-27T09:34:19.000Z</time>
      </trkpt>
      <trkpt lat="49.7693" lon="4.83121">
        <ele>270</ele>
        <time>2021-08-27T09:34:20.000Z</time>
      </trkpt>
      <trkpt lat="49.76927" lon="4.83115">
        <ele>270</ele>
        <time>2021-08-27T09:34:21.000Z</time>
      </trkpt>
      <trkpt lat="49.76924" lon="4.8311">
        <ele>270</ele>
        <time>2021-08-27T09:34:22.000Z</time>
      </trkpt>
      <trkpt lat="49.76922" lon="4.83105">
        <ele>270</ele>
        <time>2021-08-27T09:34:23.000Z</time>
      </trkpt>
      <trkpt lat="49.76919" lon="4.83099">
        <ele>270</ele>
        <time>2021-08-27T09:34:24.000Z</time>
      </trkpt>
      <trkpt lat="49.76917" lon="4.83094">
        <ele>270</ele>
        <time>2021-08-27T09:34:25.000Z</time>
      </trkpt>
      <trkpt lat="49.76914" lon="4.83089">
        <ele>269</ele>
        <time>2021-08-27T09:34:26.000Z</time>
      </trkpt>
      <trkpt lat="49.76912" lon="4.83083">
        <ele>269</ele>
        <time>2021-08-27T09:34:27.000Z</time>
      </trkpt>
      <trkpt lat="49.7691" lon="4.83078">
        <ele>269</ele>
        <time>2021-08-27T09:34:28.000Z</time>
      </trkpt>
      <trkpt lat="49.76907" lon="4.83072">
        <ele>269</ele>
        <time>2021-08-27T09:34:29.000Z</time>
      </trkpt>
      <trkpt lat="49.76905" lon="4.83066">
        <ele>269</ele>
        <time>2021-08-27T09:34:30.000Z</time>
      </trkpt>
      <trkpt lat="49.76902" lon="4.83061">
        <ele>269</ele>
        <time>2021-08-27T09:34:31.000Z</time>
      </trkpt>
      <trkpt lat="49.769" lon="4.83055">
        <ele>269</ele>
        <time>2021-08-27T09:34:32.000Z</time>
      </trkpt>
      <trkpt lat="49.76897" lon="4.83049">
        <ele>269</ele>
        <time>2021-08-27T09:34:33.000Z</time>
      </trkpt>
      <trkpt lat="49.76895" lon="4.83043">
        <ele>268</ele>
        <time>2021-08-27T09:34:34.000Z</time>
      </trkpt>
      <trkpt lat="49.76892" lon="4.83038">
        <ele>268</ele>
        <time>2021-08-27T09:34:35.000Z</time>
      </trkpt>
      <trkpt lat="49.7689" lon="4.83033">
        <ele>268</ele>
        <time>2021-08-27T09:34:36.000Z</time>
      </trkpt>
      <trkpt lat="49.76887" lon="4.83027">
        <ele>268</ele>
        <time>2021-08-27T09:34:37.000Z</time>
      </trkpt>
      <trkpt lat="49.76885" lon="4.83021">
        <ele>268</ele>
        <time>2021-08-27T09:34:38.000Z</time>
      </trkpt>
      <trkpt lat="49.76883" lon="4.83016">
        <ele>267</ele>
        <time>2021-08-27T09:34:39.000Z</time>
      </trkpt>
      <trkpt lat="49.7688" lon="4.83011">
        <ele>267</ele>
        <time>2021-08-27T09:34:40.000Z</time>
      </trkpt>
      <trkpt lat="49.76878" lon="4.83005">
        <ele>267</ele>
        <time>2021-08-27T09:34:41.000Z</time>
      </trkpt>
      <trkpt lat="49.76875" lon="4.82999">
        <ele>267</ele>
        <time>2021-08-27T09:34:42.000Z</time>
      </trkpt>
      <trkpt lat="49.76873" lon="4.82993">
        <ele>266</ele>
        <time>2021-08-27T09:34:43.000Z</time>
      </trkpt>
      <trkpt lat="49.7687" lon="4.82988">
        <ele>266</ele>
        <time>2021-08-27T09:34:44.000Z</time>
      </trkpt>
      <trkpt lat="49.76868" lon="4.82982">
        <ele>266</ele>
        <time>2021-08-27T09:34:45.000Z</time>
      </trkpt>
      <trkpt lat="49.76865" lon="4.82976">
        <ele>266</ele>
        <time>2021-08-27T09:34:46.000Z</time>
      </trkpt>
      <trkpt lat="49.76863" lon="4.8297">
        <ele>266</ele>
        <time>2021-08-27T09:34:47.000Z</time>
      </trkpt>
      <trkpt lat="49.7686" lon="4.82964">
        <ele>266</ele>
        <time>2021-08-27T09:34:48.000Z</time>
      </trkpt>
      <trkpt lat="49.76858" lon="4.82959">
        <ele>265</ele>
        <time>2021-08-27T09:34:49.000Z</time>
      </trkpt>
      <trkpt lat="49.76856" lon="4.82953">
        <ele>265</ele>
        <time>2021-08-27T09:34:50.000Z</time>
      </trkpt>
      <trkpt lat="49.76854" lon="4.82948">
        <ele>265</ele>
        <time>2021-08-27T09:34:51.000Z</time>
      </trkpt>
      <trkpt lat="49.76851" lon="4.82943">
        <ele>265</ele>
        <time>2021-08-27T09:34:52.000Z</time>
      </trkpt>
      <trkpt lat="49.76849" lon="4.82937">
        <ele>265</ele>
        <time>2021-08-27T09:34:53.000Z</time>
      </trkpt>
      <trkpt lat="49.76847" lon="4.82932">
        <ele>265</ele>
        <time>2021-08-27T09:34:54.000Z</time>
      </trkpt>
      <trkpt lat="49.76845" lon="4.82926">
        <ele>264</ele>
        <time>2021-08-27T09:34:55.000Z</time>
      </trkpt>
      <trkpt lat="49.76842" lon="4.82921">
        <ele>264</ele>
        <time>2021-08-27T09:34:56.000Z</time>
      </trkpt>
      <trkpt lat="49.7684" lon="4.82915">
        <ele>264</ele>
        <time>2021-08-27T09:34:57.000Z</time>
      </trkpt>
      <trkpt lat="49.76837" lon="4.82909">
        <ele>264</ele>
        <time>2021-08-27T09:34:58.000Z</time>
      </trkpt>
      <trkpt lat="49.76834" lon="4.82902">
        <ele>264</ele>
        <time>2021-08-27T09:34:59.000Z</time>
      </trkpt>
      <trkpt lat="49.76831" lon="4.82896">
        <ele>264</ele>
        <time>2021-08-27T09:35:00.000Z</time>
      </trkpt>
      <trkpt lat="49.76828" lon="4.8289">
        <ele>263</ele>
        <time>2021-08-27T09:35:01.000Z</time>
      </trkpt>
      <trkpt lat="49.76826" lon="4.82884">
        <ele>263</ele>
        <time>2021-08-27T09:35:02.000Z</time>
      </trkpt>
      <trkpt lat="49.76823" lon="4.82878">
        <ele>263</ele>
        <time>2021-08-27T09:35:03.000Z</time>
      </trkpt>
      <trkpt lat="49.7682" lon="4.82873">
        <ele>263</ele>
        <time>2021-08-27T09:35:04.000Z</time>
      </trkpt>
      <trkpt lat="49.76818" lon="4.82867">
        <ele>263</ele>
        <time>2021-08-27T09:35:05.000Z</time>
      </trkpt>
      <trkpt lat="49.76815" lon="4.82862">
        <ele>263</ele>
        <time>2021-08-27T09:35:06.000Z</time>
      </trkpt>
      <trkpt lat="49.76813" lon="4.82857">
        <ele>263</ele>
        <time>2021-08-27T09:35:07.000Z</time>
      </trkpt>
      <trkpt lat="49.7681" lon="4.82851">
        <ele>263</ele>
        <time>2021-08-27T09:35:08.000Z</time>
      </trkpt>
      <trkpt lat="49.76807" lon="4.82845">
        <ele>263</ele>
        <time>2021-08-27T09:35:09.000Z</time>
      </trkpt>
      <trkpt lat="49.76804" lon="4.82839">
        <ele>262</ele>
        <time>2021-08-27T09:35:10.000Z</time>
      </trkpt>
      <trkpt lat="49.76801" lon="4.82833">
        <ele>262</ele>
        <time>2021-08-27T09:35:11.000Z</time>
      </trkpt>
      <trkpt lat="49.76798" lon="4.82827">
        <ele>262</ele>
        <time>2021-08-27T09:35:12.000Z</time>
      </trkpt>
      <trkpt lat="49.76795" lon="4.82821">
        <ele>262</ele>
        <time>2021-08-27T09:35:13.000Z</time>
      </trkpt>
      <trkpt lat="49.76792" lon="4.82814">
        <ele>262</ele>
        <time>2021-08-27T09:35:14.000Z</time>
      </trkpt>
      <trkpt lat="49.76788" lon="4.82808">
        <ele>262</ele>
        <time>2021-08-27T09:35:15.000Z</time>
      </trkpt>
      <trkpt lat="49.76785" lon="4.82801">
        <ele>261</ele>
        <time>2021-08-27T09:35:16.000Z</time>
      </trkpt>
      <trkpt lat="49.76782" lon="4.82794">
        <ele>261</ele>
        <time>2021-08-27T09:35:17.000Z</time>
      </trkpt>
      <trkpt lat="49.76778" lon="4.82787">
        <ele>261</ele>
        <time>2021-08-27T09:35:18.000Z</time>
      </trkpt>
      <trkpt lat="49.76775" lon="4.8278">
        <ele>261</ele>
        <time>2021-08-27T09:35:19.000Z</time>
      </trkpt>
      <trkpt lat="49.76772" lon="4.82773">
        <ele>260</ele>
        <time>2021-08-27T09:35:20.000Z</time>
      </trkpt>
      <trkpt lat="49.76768" lon="4.82765">
        <ele>260</ele>
        <time>2021-08-27T09:35:21.000Z</time>
      </trkpt>
      <trkpt lat="49.76765" lon="4.82757">
        <ele>260</ele>
        <time>2021-08-27T09:35:22.000Z</time>
      </trkpt>
      <trkpt lat="49.76762" lon="4.82749">
        <ele>259</ele>
        <time>2021-08-27T09:35:23.000Z</time>
      </trkpt>
      <trkpt lat="49.76758" lon="4.82742">
        <ele>259</ele>
        <time>2021-08-27T09:35:24.000Z</time>
      </trkpt>
      <trkpt lat="49.76755" lon="4.82734">
        <ele>259</ele>
        <time>2021-08-27T09:35:25.000Z</time>
      </trkpt>
      <trkpt lat="49.76752" lon="4.82726">
        <ele>259</ele>
        <time>2021-08-27T09:35:26.000Z</time>
      </trkpt>
      <trkpt lat="49.76748" lon="4.82718">
        <ele>258</ele>
        <time>2021-08-27T09:35:27.000Z</time>
      </trkpt>
      <trkpt lat="49.76745" lon="4.82711">
        <ele>258</ele>
        <time>2021-08-27T09:35:28.000Z</time>
      </trkpt>
      <trkpt lat="49.76741" lon="4.82703">
        <ele>258</ele>
        <time>2021-08-27T09:35:29.000Z</time>
      </trkpt>
      <trkpt lat="49.76738" lon="4.82695">
        <ele>258</ele>
        <time>2021-08-27T09:35:30.000Z</time>
      </trkpt>
      <trkpt lat="49.76735" lon="4.82687">
        <ele>258</ele>
        <time>2021-08-27T09:35:31.000Z</time>
      </trkpt>
      <trkpt lat="49.76732" lon="4.82679">
        <ele>258</ele>
        <time>2021-08-27T09:35:32.000Z</time>
      </trkpt>
      <trkpt lat="49.7673" lon="4.82671">
        <ele>257</ele>
        <time>2021-08-27T09:35:33.000Z</time>
      </trkpt>
      <trkpt lat="49.76727" lon="4.82663">
        <ele>257</ele>
        <time>2021-08-27T09:35:34.000Z</time>
      </trkpt>
      <trkpt lat="49.76725" lon="4.82655">
        <ele>257</ele>
        <time>2021-08-27T09:35:35.000Z</time>
      </trkpt>
      <trkpt lat="49.76723" lon="4.82647">
        <ele>257</ele>
        <time>2021-08-27T09:35:36.000Z</time>
      </trkpt>
      <trkpt lat="49.7672" lon="4.82639">
        <ele>257</ele>
        <time>2021-08-27T09:35:37.000Z</time>
      </trkpt>
      <trkpt lat="49.76718" lon="4.82631">
        <ele>257</ele>
        <time>2021-08-27T09:35:38.000Z</time>
      </trkpt>
      <trkpt lat="49.76716" lon="4.82624">
        <ele>257</ele>
        <time>2021-08-27T09:35:39.000Z</time>
      </trkpt>
      <trkpt lat="49.76714" lon="4.82616">
        <ele>257</ele>
        <time>2021-08-27T09:35:40.000Z</time>
      </trkpt>
      <trkpt lat="49.76712" lon="4.82609">
        <ele>256</ele>
        <time>2021-08-27T09:35:41.000Z</time>
      </trkpt>
      <trkpt lat="49.7671" lon="4.82601">
        <ele>256</ele>
        <time>2021-08-27T09:35:42.000Z</time>
      </trkpt>
      <trkpt lat="49.76709" lon="4.82594">
        <ele>256</ele>
        <time>2021-08-27T09:35:43.000Z</time>
      </trkpt>
      <trkpt lat="49.76707" lon="4.82588">
        <ele>256</ele>
        <time>2021-08-27T09:35:44.000Z</time>
      </trkpt>
      <trkpt lat="49.76705" lon="4.82581">
        <ele>256</ele>
        <time>2021-08-27T09:35:45.000Z</time>
      </trkpt>
      <trkpt lat="49.76703" lon="4.82574">
        <ele>256</ele>
        <time>2021-08-27T09:35:46.000Z</time>
      </trkpt>
      <trkpt lat="49.76702" lon="4.82566">
        <ele>256</ele>
        <time>2021-08-27T09:35:47.000Z</time>
      </trkpt>
      <trkpt lat="49.767" lon="4.82559">
        <ele>256</ele>
        <time>2021-08-27T09:35:48.000Z</time>
      </trkpt>
      <trkpt lat="49.76698" lon="4.82552">
        <ele>256</ele>
        <time>2021-08-27T09:35:49.000Z</time>
      </trkpt>
      <trkpt lat="49.76697" lon="4.82546">
        <ele>255</ele>
        <time>2021-08-27T09:35:50.000Z</time>
      </trkpt>
      <trkpt lat="49.76695" lon="4.82539">
        <ele>255</ele>
        <time>2021-08-27T09:35:51.000Z</time>
      </trkpt>
      <trkpt lat="49.76694" lon="4.82532">
        <ele>255</ele>
        <time>2021-08-27T09:35:52.000Z</time>
      </trkpt>
      <trkpt lat="49.76692" lon="4.82525">
        <ele>255</ele>
        <time>2021-08-27T09:35:53.000Z</time>
      </trkpt>
      <trkpt lat="49.7669" lon="4.82518">
        <ele>255</ele>
        <time>2021-08-27T09:35:54.000Z</time>
      </trkpt>
      <trkpt lat="49.76688" lon="4.82511">
        <ele>255</ele>
        <time>2021-08-27T09:35:55.000Z</time>
      </trkpt>
      <trkpt lat="49.76687" lon="4.82504">
        <ele>255</ele>
        <time>2021-08-27T09:35:56.000Z</time>
      </trkpt>
      <trkpt lat="49.76685" lon="4.82497">
        <ele>255</ele>
        <time>2021-08-27T09:35:57.000Z</time>
      </trkpt>
      <trkpt lat="49.76683" lon="4.8249">
        <ele>255</ele>
        <time>2021-08-27T09:35:58.000Z</time>
      </trkpt>
      <trkpt lat="49.76681" lon="4.82483">
        <ele>255</ele>
        <time>2021-08-27T09:35:59.000Z</time>
      </trkpt>
      <trkpt lat="49.76679" lon="4.82476">
        <ele>255</ele>
        <time>2021-08-27T09:36:00.000Z</time>
      </trkpt>
      <trkpt lat="49.76677" lon="4.82469">
        <ele>255</ele>
        <time>2021-08-27T09:36:01.000Z</time>
      </trkpt>
      <trkpt lat="49.76675" lon="4.82461">
        <ele>255</ele>
        <time>2021-08-27T09:36:02.000Z</time>
      </trkpt>
      <trkpt lat="49.76672" lon="4.82454">
        <ele>255</ele>
        <time>2021-08-27T09:36:03.000Z</time>
      </trkpt>
      <trkpt lat="49.7667" lon="4.82447">
        <ele>255</ele>
        <time>2021-08-27T09:36:04.000Z</time>
      </trkpt>
      <trkpt lat="49.76668" lon="4.8244">
        <ele>254</ele>
        <time>2021-08-27T09:36:05.000Z</time>
      </trkpt>
      <trkpt lat="49.76666" lon="4.82433">
        <ele>254</ele>
        <time>2021-08-27T09:36:06.000Z</time>
      </trkpt>
      <trkpt lat="49.76664" lon="4.82425">
        <ele>254</ele>
        <time>2021-08-27T09:36:07.000Z</time>
      </trkpt>
      <trkpt lat="49.76663" lon="4.82419">
        <ele>254</ele>
        <time>2021-08-27T09:36:08.000Z</time>
      </trkpt>
      <trkpt lat="49.76661" lon="4.82412">
        <ele>254</ele>
        <time>2021-08-27T09:36:09.000Z</time>
      </trkpt>
      <trkpt lat="49.7666" lon="4.82405">
        <ele>254</ele>
        <time>2021-08-27T09:36:10.000Z</time>
      </trkpt>
      <trkpt lat="49.76659" lon="4.82398">
        <ele>254</ele>
        <time>2021-08-27T09:36:11.000Z</time>
      </trkpt>
      <trkpt lat="49.76658" lon="4.82391">
        <ele>254</ele>
        <time>2021-08-27T09:36:12.000Z</time>
      </trkpt>
      <trkpt lat="49.76657" lon="4.82384">
        <ele>254</ele>
        <time>2021-08-27T09:36:13.000Z</time>
      </trkpt>
      <trkpt lat="49.76656" lon="4.82376">
        <ele>254</ele>
        <time>2021-08-27T09:36:14.000Z</time>
      </trkpt>
      <trkpt lat="49.76655" lon="4.82368">
        <ele>253</ele>
        <time>2021-08-27T09:36:15.000Z</time>
      </trkpt>
      <trkpt lat="49.76654" lon="4.8236">
        <ele>253</ele>
        <time>2021-08-27T09:36:16.000Z</time>
      </trkpt>
      <trkpt lat="49.76654" lon="4.82352">
        <ele>253</ele>
        <time>2021-08-27T09:36:17.000Z</time>
      </trkpt>
      <trkpt lat="49.76653" lon="4.82344">
        <ele>253</ele>
        <time>2021-08-27T09:36:18.000Z</time>
      </trkpt>
      <trkpt lat="49.76652" lon="4.82337">
        <ele>253</ele>
        <time>2021-08-27T09:36:19.000Z</time>
      </trkpt>
      <trkpt lat="49.76652" lon="4.82329">
        <ele>253</ele>
        <time>2021-08-27T09:36:20.000Z</time>
      </trkpt>
      <trkpt lat="49.76651" lon="4.82322">
        <ele>253</ele>
        <time>2021-08-27T09:36:21.000Z</time>
      </trkpt>
      <trkpt lat="49.76651" lon="4.82314">
        <ele>253</ele>
        <time>2021-08-27T09:36:22.000Z</time>
      </trkpt>
      <trkpt lat="49.76651" lon="4.82307">
        <ele>253</ele>
        <time>2021-08-27T09:36:23.000Z</time>
      </trkpt>
      <trkpt lat="49.76651" lon="4.82299">
        <ele>253</ele>
        <time>2021-08-27T09:36:24.000Z</time>
      </trkpt>
      <trkpt lat="49.76651" lon="4.82291">
        <ele>253</ele>
        <time>2021-08-27T09:36:25.000Z</time>
      </trkpt>
      <trkpt lat="49.76651" lon="4.82284">
        <ele>253</ele>
        <time>2021-08-27T09:36:26.000Z</time>
      </trkpt>
      <trkpt lat="49.76651" lon="4.82276">
        <ele>253</ele>
        <time>2021-08-27T09:36:27.000Z</time>
      </trkpt>
      <trkpt lat="49.7665" lon="4.82268">
        <ele>252</ele>
        <time>2021-08-27T09:36:28.000Z</time>
      </trkpt>
      <trkpt lat="49.76649" lon="4.82261">
        <ele>252</ele>
        <time>2021-08-27T09:36:29.000Z</time>
      </trkpt>
      <trkpt lat="49.76647" lon="4.82254">
        <ele>252</ele>
        <time>2021-08-27T09:36:30.000Z</time>
      </trkpt>
      <trkpt lat="49.76646" lon="4.82247">
        <ele>252</ele>
        <time>2021-08-27T09:36:31.000Z</time>
      </trkpt>
      <trkpt lat="49.76645" lon="4.8224">
        <ele>252</ele>
        <time>2021-08-27T09:36:32.000Z</time>
      </trkpt>
      <trkpt lat="49.76643" lon="4.82233">
        <ele>252</ele>
        <time>2021-08-27T09:36:33.000Z</time>
      </trkpt>
      <trkpt lat="49.76642" lon="4.82226">
        <ele>252</ele>
        <time>2021-08-27T09:36:34.000Z</time>
      </trkpt>
      <trkpt lat="49.7664" lon="4.82219">
        <ele>252</ele>
        <time>2021-08-27T09:36:35.000Z</time>
      </trkpt>
      <trkpt lat="49.76639" lon="4.82212">
        <ele>252</ele>
        <time>2021-08-27T09:36:36.000Z</time>
      </trkpt>
      <trkpt lat="49.76637" lon="4.82205">
        <ele>252</ele>
        <time>2021-08-27T09:36:37.000Z</time>
      </trkpt>
      <trkpt lat="49.76636" lon="4.82198">
        <ele>253</ele>
        <time>2021-08-27T09:36:38.000Z</time>
      </trkpt>
      <trkpt lat="49.76634" lon="4.82191">
        <ele>253</ele>
        <time>2021-08-27T09:36:39.000Z</time>
      </trkpt>
      <trkpt lat="49.76632" lon="4.82184">
        <ele>253</ele>
        <time>2021-08-27T09:36:40.000Z</time>
      </trkpt>
      <trkpt lat="49.7663" lon="4.82178">
        <ele>253</ele>
        <time>2021-08-27T09:36:41.000Z</time>
      </trkpt>
      <trkpt lat="49.76628" lon="4.82172">
        <ele>253</ele>
        <time>2021-08-27T09:36:42.000Z</time>
      </trkpt>
      <trkpt lat="49.76627" lon="4.82165">
        <ele>253</ele>
        <time>2021-08-27T09:36:43.000Z</time>
      </trkpt>
      <trkpt lat="49.76625" lon="4.82158">
        <ele>253</ele>
        <time>2021-08-27T09:36:44.000Z</time>
      </trkpt>
      <trkpt lat="49.76624" lon="4.82151">
        <ele>253</ele>
        <time>2021-08-27T09:36:45.000Z</time>
      </trkpt>
      <trkpt lat="49.76622" lon="4.82145">
        <ele>253</ele>
        <time>2021-08-27T09:36:46.000Z</time>
      </trkpt>
      <trkpt lat="49.76621" lon="4.82138">
        <ele>253</ele>
        <time>2021-08-27T09:36:47.000Z</time>
      </trkpt>
      <trkpt lat="49.76619" lon="4.82132">
        <ele>253</ele>
        <time>2021-08-27T09:36:48.000Z</time>
      </trkpt>
      <trkpt lat="49.76617" lon="4.82125">
        <ele>253</ele>
        <time>2021-08-27T09:36:49.000Z</time>
      </trkpt>
      <trkpt lat="49.76615" lon="4.82119">
        <ele>253</ele>
        <time>2021-08-27T09:36:50.000Z</time>
      </trkpt>
      <trkpt lat="49.76614" lon="4.82113">
        <ele>253</ele>
        <time>2021-08-27T09:36:51.000Z</time>
      </trkpt>
      <trkpt lat="49.76612" lon="4.82106">
        <ele>253</ele>
        <time>2021-08-27T09:36:52.000Z</time>
      </trkpt>
      <trkpt lat="49.7661" lon="4.821">
        <ele>253</ele>
        <time>2021-08-27T09:36:53.000Z</time>
      </trkpt>
      <trkpt lat="49.76608" lon="4.82093">
        <ele>253</ele>
        <time>2021-08-27T09:36:54.000Z</time>
      </trkpt>
      <trkpt lat="49.76607" lon="4.82087">
        <ele>253</ele>
        <time>2021-08-27T09:36:55.000Z</time>
      </trkpt>
      <trkpt lat="49.76605" lon="4.8208">
        <ele>253</ele>
        <time>2021-08-27T09:36:56.000Z</time>
      </trkpt>
      <trkpt lat="49.76604" lon="4.82074">
        <ele>253</ele>
        <time>2021-08-27T09:36:57.000Z</time>
      </trkpt>
      <trkpt lat="49.76602" lon="4.82068">
        <ele>253</ele>
        <time>2021-08-27T09:36:58.000Z</time>
      </trkpt>
      <trkpt lat="49.76601" lon="4.82061">
        <ele>253</ele>
        <time>2021-08-27T09:36:59.000Z</time>
      </trkpt>
      <trkpt lat="49.766" lon="4.82055">
        <ele>253</ele>
        <time>2021-08-27T09:37:00.000Z</time>
      </trkpt>
      <trkpt lat="49.76599" lon="4.82049">
        <ele>253</ele>
        <time>2021-08-27T09:37:01.000Z</time>
      </trkpt>
      <trkpt lat="49.76598" lon="4.82042">
        <ele>253</ele>
        <time>2021-08-27T09:37:02.000Z</time>
      </trkpt>
      <trkpt lat="49.76597" lon="4.82036">
        <ele>253</ele>
        <time>2021-08-27T09:37:03.000Z</time>
      </trkpt>
      <trkpt lat="49.76595" lon="4.82029">
        <ele>253</ele>
        <time>2021-08-27T09:37:04.000Z</time>
      </trkpt>
      <trkpt lat="49.76594" lon="4.82023">
        <ele>252</ele>
        <time>2021-08-27T09:37:05.000Z</time>
      </trkpt>
      <trkpt lat="49.76594" lon="4.82016">
        <ele>252</ele>
        <time>2021-08-27T09:37:06.000Z</time>
      </trkpt>
      <trkpt lat="49.76592" lon="4.8201">
        <ele>252</ele>
        <time>2021-08-27T09:37:07.000Z</time>
      </trkpt>
      <trkpt lat="49.76591" lon="4.82006">
        <ele>252</ele>
        <time>2021-08-27T09:37:08.000Z</time>
      </trkpt>
      <trkpt lat="49.76589" lon="4.82003">
        <ele>252</ele>
        <time>2021-08-27T09:37:09.000Z</time>
      </trkpt>
      <trkpt lat="49.76587" lon="4.82002">
        <ele>252</ele>
        <time>2021-08-27T09:37:10.000Z</time>
      </trkpt>
      <trkpt lat="49.76584" lon="4.82001">
        <ele>252</ele>
        <time>2021-08-27T09:37:11.000Z</time>
      </trkpt>
      <trkpt lat="49.76581" lon="4.82003">
        <ele>252</ele>
        <time>2021-08-27T09:37:12.000Z</time>
      </trkpt>
      <trkpt lat="49.76578" lon="4.82005">
        <ele>252</ele>
        <time>2021-08-27T09:37:13.000Z</time>
      </trkpt>
      <trkpt lat="49.76574" lon="4.82008">
        <ele>252</ele>
        <time>2021-08-27T09:37:14.000Z</time>
      </trkpt>
      <trkpt lat="49.7657" lon="4.82011">
        <ele>253</ele>
        <time>2021-08-27T09:37:15.000Z</time>
      </trkpt>
      <trkpt lat="49.76566" lon="4.82015">
        <ele>253</ele>
        <time>2021-08-27T09:37:16.000Z</time>
      </trkpt>
      <trkpt lat="49.76562" lon="4.82019">
        <ele>253</ele>
        <time>2021-08-27T09:37:17.000Z</time>
      </trkpt>
      <trkpt lat="49.76558" lon="4.82023">
        <ele>253</ele>
        <time>2021-08-27T09:37:18.000Z</time>
      </trkpt>
      <trkpt lat="49.76554" lon="4.82027">
        <ele>253</ele>
        <time>2021-08-27T09:37:19.000Z</time>
      </trkpt>
      <trkpt lat="49.76549" lon="4.82028">
        <ele>252</ele>
        <time>2021-08-27T09:37:20.000Z</time>
      </trkpt>
      <trkpt lat="49.76545" lon="4.82027">
        <ele>252</ele>
        <time>2021-08-27T09:37:21.000Z</time>
      </trkpt>
      <trkpt lat="49.7654" lon="4.82024">
        <ele>252</ele>
        <time>2021-08-27T09:37:22.000Z</time>
      </trkpt>
      <trkpt lat="49.76538" lon="4.82018">
        <ele>252</ele>
        <time>2021-08-27T09:37:23.000Z</time>
      </trkpt>
      <trkpt lat="49.76536" lon="4.82012">
        <ele>252</ele>
        <time>2021-08-27T09:37:24.000Z</time>
      </trkpt>
      <trkpt lat="49.76534" lon="4.82006">
        <ele>252</ele>
        <time>2021-08-27T09:37:25.000Z</time>
      </trkpt>
      <trkpt lat="49.76532" lon="4.82">
        <ele>252</ele>
        <time>2021-08-27T09:37:26.000Z</time>
      </trkpt>
      <trkpt lat="49.7653" lon="4.81994">
        <ele>252</ele>
        <time>2021-08-27T09:37:27.000Z</time>
      </trkpt>
      <trkpt lat="49.76529" lon="4.81988">
        <ele>252</ele>
        <time>2021-08-27T09:37:28.000Z</time>
      </trkpt>
      <trkpt lat="49.76526" lon="4.81982">
        <ele>253</ele>
        <time>2021-08-27T09:37:29.000Z</time>
      </trkpt>
      <trkpt lat="49.76525" lon="4.81977">
        <ele>253</ele>
        <time>2021-08-27T09:37:30.000Z</time>
      </trkpt>
      <trkpt lat="49.76523" lon="4.81972">
        <ele>253</ele>
        <time>2021-08-27T09:37:31.000Z</time>
      </trkpt>
      <trkpt lat="49.76522" lon="4.81966">
        <ele>253</ele>
        <time>2021-08-27T09:37:32.000Z</time>
      </trkpt>
      <trkpt lat="49.7652" lon="4.81961">
        <ele>253</ele>
        <time>2021-08-27T09:37:33.000Z</time>
      </trkpt>
      <trkpt lat="49.76518" lon="4.81956">
        <ele>253</ele>
        <time>2021-08-27T09:37:34.000Z</time>
      </trkpt>
      <trkpt lat="49.76517" lon="4.81951">
        <ele>253</ele>
        <time>2021-08-27T09:37:35.000Z</time>
      </trkpt>
      <trkpt lat="49.76515" lon="4.81945">
        <ele>253</ele>
        <time>2021-08-27T09:37:36.000Z</time>
      </trkpt>
      <trkpt lat="49.76514" lon="4.8194">
        <ele>253</ele>
        <time>2021-08-27T09:37:37.000Z</time>
      </trkpt>
      <trkpt lat="49.76512" lon="4.81934">
        <ele>253</ele>
        <time>2021-08-27T09:37:38.000Z</time>
      </trkpt>
      <trkpt lat="49.7651" lon="4.81929">
        <ele>254</ele>
        <time>2021-08-27T09:37:39.000Z</time>
      </trkpt>
      <trkpt lat="49.76509" lon="4.81923">
        <ele>254</ele>
        <time>2021-08-27T09:37:40.000Z</time>
      </trkpt>
      <trkpt lat="49.76507" lon="4.81918">
        <ele>254</ele>
        <time>2021-08-27T09:37:41.000Z</time>
      </trkpt>
      <trkpt lat="49.76506" lon="4.81913">
        <ele>254</ele>
        <time>2021-08-27T09:37:42.000Z</time>
      </trkpt>
      <trkpt lat="49.76504" lon="4.81907">
        <ele>254</ele>
        <time>2021-08-27T09:37:43.000Z</time>
      </trkpt>
      <trkpt lat="49.76503" lon="4.81902">
        <ele>254</ele>
        <time>2021-08-27T09:37:44.000Z</time>
      </trkpt>
      <trkpt lat="49.76502" lon="4.81896">
        <ele>254</ele>
        <time>2021-08-27T09:37:45.000Z</time>
      </trkpt>
      <trkpt lat="49.765" lon="4.81891">
        <ele>254</ele>
        <time>2021-08-27T09:37:46.000Z</time>
      </trkpt>
      <trkpt lat="49.76499" lon="4.81885">
        <ele>254</ele>
        <time>2021-08-27T09:37:47.000Z</time>
      </trkpt>
      <trkpt lat="49.76498" lon="4.8188">
        <ele>254</ele>
        <time>2021-08-27T09:37:48.000Z</time>
      </trkpt>
      <trkpt lat="49.76496" lon="4.81875">
        <ele>255</ele>
        <time>2021-08-27T09:37:49.000Z</time>
      </trkpt>
      <trkpt lat="49.76495" lon="4.81869">
        <ele>255</ele>
        <time>2021-08-27T09:37:50.000Z</time>
      </trkpt>
      <trkpt lat="49.76494" lon="4.81864">
        <ele>255</ele>
        <time>2021-08-27T09:37:51.000Z</time>
      </trkpt>
      <trkpt lat="49.76493" lon="4.81858">
        <ele>255</ele>
        <time>2021-08-27T09:37:52.000Z</time>
      </trkpt>
      <trkpt lat="49.76492" lon="4.81853">
        <ele>255</ele>
        <time>2021-08-27T09:37:53.000Z</time>
      </trkpt>
      <trkpt lat="49.7649" lon="4.81847">
        <ele>255</ele>
        <time>2021-08-27T09:37:54.000Z</time>
      </trkpt>
      <trkpt lat="49.76489" lon="4.81842">
        <ele>255</ele>
        <time>2021-08-27T09:37:55.000Z</time>
      </trkpt>
      <trkpt lat="49.76488" lon="4.81836">
        <ele>255</ele>
        <time>2021-08-27T09:37:56.000Z</time>
      </trkpt>
      <trkpt lat="49.76487" lon="4.8183">
        <ele>255</ele>
        <time>2021-08-27T09:37:57.000Z</time>
      </trkpt>
      <trkpt lat="49.76485" lon="4.81825">
        <ele>255</ele>
        <time>2021-08-27T09:37:58.000Z</time>
      </trkpt>
      <trkpt lat="49.76484" lon="4.81819">
        <ele>255</ele>
        <time>2021-08-27T09:37:59.000Z</time>
      </trkpt>
      <trkpt lat="49.76483" lon="4.81814">
        <ele>255</ele>
        <time>2021-08-27T09:38:00.000Z</time>
      </trkpt>
      <trkpt lat="49.76482" lon="4.81809">
        <ele>256</ele>
        <time>2021-08-27T09:38:01.000Z</time>
      </trkpt>
      <trkpt lat="49.7648" lon="4.81804">
        <ele>256</ele>
        <time>2021-08-27T09:38:02.000Z</time>
      </trkpt>
      <trkpt lat="49.7648" lon="4.818">
        <ele>256</ele>
        <time>2021-08-27T09:38:03.000Z</time>
      </trkpt>
      <trkpt lat="49.76478" lon="4.81796">
        <ele>256</ele>
        <time>2021-08-27T09:38:04.000Z</time>
      </trkpt>
      <trkpt lat="49.76478" lon="4.81793">
        <ele>256</ele>
        <time>2021-08-27T09:38:05.000Z</time>
      </trkpt>
      <trkpt lat="49.76477" lon="4.81789">
        <ele>256</ele>
        <time>2021-08-27T09:38:06.000Z</time>
      </trkpt>
      <trkpt lat="49.76476" lon="4.81786">
        <ele>256</ele>
        <time>2021-08-27T09:38:07.000Z</time>
      </trkpt>
      <trkpt lat="49.76475" lon="4.81782">
        <ele>256</ele>
        <time>2021-08-27T09:38:08.000Z</time>
      </trkpt>
      <trkpt lat="49.76474" lon="4.81778">
        <ele>257</ele>
        <time>2021-08-27T09:38:09.000Z</time>
      </trkpt>
      <trkpt lat="49.76473" lon="4.81774">
        <ele>257</ele>
        <time>2021-08-27T09:38:10.000Z</time>
      </trkpt>
      <trkpt lat="49.76472" lon="4.8177">
        <ele>257</ele>
        <time>2021-08-27T09:38:11.000Z</time>
      </trkpt>
      <trkpt lat="49.76471" lon="4.81766">
        <ele>257</ele>
        <time>2021-08-27T09:38:12.000Z</time>
      </trkpt>
      <trkpt lat="49.7647" lon="4.81762">
        <ele>257</ele>
        <time>2021-08-27T09:38:13.000Z</time>
      </trkpt>
      <trkpt lat="49.76469" lon="4.81758">
        <ele>257</ele>
        <time>2021-08-27T09:38:14.000Z</time>
      </trkpt>
      <trkpt lat="49.76468" lon="4.81755">
        <ele>257</ele>
        <time>2021-08-27T09:38:15.000Z</time>
      </trkpt>
      <trkpt lat="49.76467" lon="4.81751">
        <ele>258</ele>
        <time>2021-08-27T09:38:16.000Z</time>
      </trkpt>
      <trkpt lat="49.76466" lon="4.81748">
        <ele>258</ele>
        <time>2021-08-27T09:38:17.000Z</time>
      </trkpt>
      <trkpt lat="49.76465" lon="4.81744">
        <ele>258</ele>
        <time>2021-08-27T09:38:18.000Z</time>
      </trkpt>
      <trkpt lat="49.76464" lon="4.8174">
        <ele>258</ele>
        <time>2021-08-27T09:38:19.000Z</time>
      </trkpt>
      <trkpt lat="49.76463" lon="4.81736">
        <ele>258</ele>
        <time>2021-08-27T09:38:20.000Z</time>
      </trkpt>
      <trkpt lat="49.76462" lon="4.81732">
        <ele>258</ele>
        <time>2021-08-27T09:38:21.000Z</time>
      </trkpt>
      <trkpt lat="49.76461" lon="4.81728">
        <ele>258</ele>
        <time>2021-08-27T09:38:22.000Z</time>
      </trkpt>
      <trkpt lat="49.7646" lon="4.81724">
        <ele>259</ele>
        <time>2021-08-27T09:38:23.000Z</time>
      </trkpt>
      <trkpt lat="49.76459" lon="4.8172">
        <ele>259</ele>
        <time>2021-08-27T09:38:24.000Z</time>
      </trkpt>
      <trkpt lat="49.76458" lon="4.81716">
        <ele>259</ele>
        <time>2021-08-27T09:38:25.000Z</time>
      </trkpt>
      <trkpt lat="49.76457" lon="4.81712">
        <ele>259</ele>
        <time>2021-08-27T09:38:26.000Z</time>
      </trkpt>
      <trkpt lat="49.76456" lon="4.81709">
        <ele>259</ele>
        <time>2021-08-27T09:38:27.000Z</time>
      </trkpt>
      <trkpt lat="49.76455" lon="4.81705">
        <ele>259</ele>
        <time>2021-08-27T09:38:28.000Z</time>
      </trkpt>
      <trkpt lat="49.76454" lon="4.81701">
        <ele>259</ele>
        <time>2021-08-27T09:38:29.000Z</time>
      </trkpt>
      <trkpt lat="49.76453" lon="4.81698">
        <ele>259</ele>
        <time>2021-08-27T09:38:30.000Z</time>
      </trkpt>
      <trkpt lat="49.76452" lon="4.81694">
        <ele>259</ele>
        <time>2021-08-27T09:38:31.000Z</time>
      </trkpt>
      <trkpt lat="49.76451" lon="4.8169">
        <ele>259</ele>
        <time>2021-08-27T09:38:32.000Z</time>
      </trkpt>
      <trkpt lat="49.7645" lon="4.81686">
        <ele>259</ele>
        <time>2021-08-27T09:38:33.000Z</time>
      </trkpt>
      <trkpt lat="49.76449" lon="4.81683">
        <ele>259</ele>
        <time>2021-08-27T09:38:34.000Z</time>
      </trkpt>
      <trkpt lat="49.76448" lon="4.81679">
        <ele>260</ele>
        <time>2021-08-27T09:38:35.000Z</time>
      </trkpt>
      <trkpt lat="49.76447" lon="4.81676">
        <ele>260</ele>
        <time>2021-08-27T09:38:36.000Z</time>
      </trkpt>
      <trkpt lat="49.76446" lon="4.81672">
        <ele>260</ele>
        <time>2021-08-27T09:38:37.000Z</time>
      </trkpt>
      <trkpt lat="49.76445" lon="4.81669">
        <ele>260</ele>
        <time>2021-08-27T09:38:38.000Z</time>
      </trkpt>
      <trkpt lat="49.76444" lon="4.81666">
        <ele>260</ele>
        <time>2021-08-27T09:38:39.000Z</time>
      </trkpt>
      <trkpt lat="49.76443" lon="4.81662">
        <ele>260</ele>
        <time>2021-08-27T09:38:40.000Z</time>
      </trkpt>
      <trkpt lat="49.76443" lon="4.81659">
        <ele>260</ele>
        <time>2021-08-27T09:38:41.000Z</time>
      </trkpt>
      <trkpt lat="49.76442" lon="4.81655">
        <ele>260</ele>
        <time>2021-08-27T09:38:42.000Z</time>
      </trkpt>
      <trkpt lat="49.76441" lon="4.81652">
        <ele>261</ele>
        <time>2021-08-27T09:38:43.000Z</time>
      </trkpt>
      <trkpt lat="49.7644" lon="4.81649">
        <ele>261</ele>
        <time>2021-08-27T09:38:44.000Z</time>
      </trkpt>
      <trkpt lat="49.7644" lon="4.81647">
        <ele>261</ele>
        <time>2021-08-27T09:38:45.000Z</time>
      </trkpt>
      <trkpt lat="49.76439" lon="4.81644">
        <ele>261</ele>
        <time>2021-08-27T09:38:46.000Z</time>
      </trkpt>
      <trkpt lat="49.76439" lon="4.81641">
        <ele>261</ele>
        <time>2021-08-27T09:38:47.000Z</time>
      </trkpt>
      <trkpt lat="49.76438" lon="4.81638">
        <ele>261</ele>
        <time>2021-08-27T09:38:48.000Z</time>
      </trkpt>
      <trkpt lat="49.76438" lon="4.81635">
        <ele>261</ele>
        <time>2021-08-27T09:38:49.000Z</time>
      </trkpt>
      <trkpt lat="49.76438" lon="4.81632">
        <ele>261</ele>
        <time>2021-08-27T09:38:50.000Z</time>
      </trkpt>
      <trkpt lat="49.76437" lon="4.81629">
        <ele>261</ele>
        <time>2021-08-27T09:38:51.000Z</time>
      </trkpt>
      <trkpt lat="49.76436" lon="4.81626">
        <ele>262</ele>
        <time>2021-08-27T09:38:52.000Z</time>
      </trkpt>
      <trkpt lat="49.76436" lon="4.81623">
        <ele>262</ele>
        <time>2021-08-27T09:38:53.000Z</time>
      </trkpt>
      <trkpt lat="49.76436" lon="4.81621">
        <ele>262</ele>
        <time>2021-08-27T09:38:54.000Z</time>
      </trkpt>
      <trkpt lat="49.76435" lon="4.81619">
        <ele>262</ele>
        <time>2021-08-27T09:38:55.000Z</time>
      </trkpt>
      <trkpt lat="49.76434" lon="4.81616">
        <ele>262</ele>
        <time>2021-08-27T09:38:56.000Z</time>
      </trkpt>
      <trkpt lat="49.76434" lon="4.81613">
        <ele>262</ele>
        <time>2021-08-27T09:38:57.000Z</time>
      </trkpt>
      <trkpt lat="49.76434" lon="4.8161">
        <ele>262</ele>
        <time>2021-08-27T09:38:58.000Z</time>
      </trkpt>
      <trkpt lat="49.76433" lon="4.81607">
        <ele>262</ele>
        <time>2021-08-27T09:38:59.000Z</time>
      </trkpt>
      <trkpt lat="49.76433" lon="4.81605">
        <ele>262</ele>
        <time>2021-08-27T09:39:00.000Z</time>
      </trkpt>
      <trkpt lat="49.76433" lon="4.81603">
        <ele>263</ele>
        <time>2021-08-27T09:39:01.000Z</time>
      </trkpt>
      <trkpt lat="49.76432" lon="4.81601">
        <ele>263</ele>
        <time>2021-08-27T09:39:02.000Z</time>
      </trkpt>
      <trkpt lat="49.76432" lon="4.81599">
        <ele>263</ele>
        <time>2021-08-27T09:39:03.000Z</time>
      </trkpt>
      <trkpt lat="49.76431" lon="4.81597">
        <ele>263</ele>
        <time>2021-08-27T09:39:04.000Z</time>
      </trkpt>
      <trkpt lat="49.76431" lon="4.81594">
        <ele>263</ele>
        <time>2021-08-27T09:39:05.000Z</time>
      </trkpt>
      <trkpt lat="49.7643" lon="4.81592">
        <ele>263</ele>
        <time>2021-08-27T09:39:06.000Z</time>
      </trkpt>
      <trkpt lat="49.7643" lon="4.81589">
        <ele>263</ele>
        <time>2021-08-27T09:39:07.000Z</time>
      </trkpt>
      <trkpt lat="49.7643" lon="4.81586">
        <ele>264</ele>
        <time>2021-08-27T09:39:08.000Z</time>
      </trkpt>
      <trkpt lat="49.7643" lon="4.81584">
        <ele>264</ele>
        <time>2021-08-27T09:39:09.000Z</time>
      </trkpt>
      <trkpt lat="49.76429" lon="4.81582">
        <ele>264</ele>
        <time>2021-08-27T09:39:10.000Z</time>
      </trkpt>
      <trkpt lat="49.76429" lon="4.8158">
        <ele>264</ele>
        <time>2021-08-27T09:39:11.000Z</time>
      </trkpt>
      <trkpt lat="49.76428" lon="4.81578">
        <ele>264</ele>
        <time>2021-08-27T09:39:12.000Z</time>
      </trkpt>
      <trkpt lat="49.76427" lon="4.81576">
        <ele>264</ele>
        <time>2021-08-27T09:39:13.000Z</time>
      </trkpt>
      <trkpt lat="49.76427" lon="4.81574">
        <ele>264</ele>
        <time>2021-08-27T09:39:14.000Z</time>
      </trkpt>
      <trkpt lat="49.76426" lon="4.81571">
        <ele>264</ele>
        <time>2021-08-27T09:39:15.000Z</time>
      </trkpt>
      <trkpt lat="49.76426" lon="4.81569">
        <ele>264</ele>
        <time>2021-08-27T09:39:16.000Z</time>
      </trkpt>
      <trkpt lat="49.76425" lon="4.81566">
        <ele>265</ele>
        <time>2021-08-27T09:39:17.000Z</time>
      </trkpt>
      <trkpt lat="49.76424" lon="4.81564">
        <ele>265</ele>
        <time>2021-08-27T09:39:18.000Z</time>
      </trkpt>
      <trkpt lat="49.76424" lon="4.81562">
        <ele>265</ele>
        <time>2021-08-27T09:39:19.000Z</time>
      </trkpt>
      <trkpt lat="49.76423" lon="4.81559">
        <ele>265</ele>
        <time>2021-08-27T09:39:20.000Z</time>
      </trkpt>
      <trkpt lat="49.76423" lon="4.81557">
        <ele>265</ele>
        <time>2021-08-27T09:39:21.000Z</time>
      </trkpt>
      <trkpt lat="49.76421" lon="4.81555">
        <ele>266</ele>
        <time>2021-08-27T09:39:22.000Z</time>
      </trkpt>
      <trkpt lat="49.7642" lon="4.81552">
        <ele>266</ele>
        <time>2021-08-27T09:39:23.000Z</time>
      </trkpt>
      <trkpt lat="49.7642" lon="4.8155">
        <ele>266</ele>
        <time>2021-08-27T09:39:24.000Z</time>
      </trkpt>
      <trkpt lat="49.76419" lon="4.81547">
        <ele>267</ele>
        <time>2021-08-27T09:39:25.000Z</time>
      </trkpt>
      <trkpt lat="49.76418" lon="4.81545">
        <ele>267</ele>
        <time>2021-08-27T09:39:26.000Z</time>
      </trkpt>
      <trkpt lat="49.76416" lon="4.81543">
        <ele>267</ele>
        <time>2021-08-27T09:39:27.000Z</time>
      </trkpt>
      <trkpt lat="49.76415" lon="4.8154">
        <ele>268</ele>
        <time>2021-08-27T09:39:28.000Z</time>
      </trkpt>
      <trkpt lat="49.76414" lon="4.81538">
        <ele>268</ele>
        <time>2021-08-27T09:39:29.000Z</time>
      </trkpt>
      <trkpt lat="49.76412" lon="4.81536">
        <ele>268</ele>
        <time>2021-08-27T09:39:30.000Z</time>
      </trkpt>
      <trkpt lat="49.7641" lon="4.81533">
        <ele>268</ele>
        <time>2021-08-27T09:39:31.000Z</time>
      </trkpt>
      <trkpt lat="49.76408" lon="4.81531">
        <ele>268</ele>
        <time>2021-08-27T09:39:32.000Z</time>
      </trkpt>
      <trkpt lat="49.76407" lon="4.81529">
        <ele>269</ele>
        <time>2021-08-27T09:39:33.000Z</time>
      </trkpt>
      <trkpt lat="49.76405" lon="4.81526">
        <ele>269</ele>
        <time>2021-08-27T09:39:34.000Z</time>
      </trkpt>
      <trkpt lat="49.76404" lon="4.81523">
        <ele>269</ele>
        <time>2021-08-27T09:39:35.000Z</time>
      </trkpt>
      <trkpt lat="49.76402" lon="4.8152">
        <ele>270</ele>
        <time>2021-08-27T09:39:36.000Z</time>
      </trkpt>
      <trkpt lat="49.764" lon="4.81517">
        <ele>270</ele>
        <time>2021-08-27T09:39:37.000Z</time>
      </trkpt>
      <trkpt lat="49.76399" lon="4.81514">
        <ele>270</ele>
        <time>2021-08-27T09:39:38.000Z</time>
      </trkpt>
      <trkpt lat="49.76397" lon="4.8151">
        <ele>270</ele>
        <time>2021-08-27T09:39:39.000Z</time>
      </trkpt>
      <trkpt lat="49.76396" lon="4.81507">
        <ele>271</ele>
        <time>2021-08-27T09:39:40.000Z</time>
      </trkpt>
      <trkpt lat="49.76394" lon="4.81504">
        <ele>271</ele>
        <time>2021-08-27T09:39:41.000Z</time>
      </trkpt>
      <trkpt lat="49.76392" lon="4.81501">
        <ele>271</ele>
        <time>2021-08-27T09:39:42.000Z</time>
      </trkpt>
      <trkpt lat="49.7639" lon="4.81499">
        <ele>271</ele>
        <time>2021-08-27T09:39:43.000Z</time>
      </trkpt>
      <trkpt lat="49.76388" lon="4.81496">
        <ele>272</ele>
        <time>2021-08-27T09:39:44.000Z</time>
      </trkpt>
      <trkpt lat="49.76386" lon="4.81493">
        <ele>272</ele>
        <time>2021-08-27T09:39:45.000Z</time>
      </trkpt>
      <trkpt lat="49.76385" lon="4.81491">
        <ele>272</ele>
        <time>2021-08-27T09:39:46.000Z</time>
      </trkpt>
      <trkpt lat="49.76383" lon="4.81488">
        <ele>272</ele>
        <time>2021-08-27T09:39:47.000Z</time>
      </trkpt>
      <trkpt lat="49.76381" lon="4.81485">
        <ele>273</ele>
        <time>2021-08-27T09:39:48.000Z</time>
      </trkpt>
      <trkpt lat="49.76379" lon="4.81483">
        <ele>273</ele>
        <time>2021-08-27T09:39:49.000Z</time>
      </trkpt>
      <trkpt lat="49.76377" lon="4.81481">
        <ele>273</ele>
        <time>2021-08-27T09:39:50.000Z</time>
      </trkpt>
      <trkpt lat="49.76375" lon="4.81478">
        <ele>273</ele>
        <time>2021-08-27T09:39:51.000Z</time>
      </trkpt>
      <trkpt lat="49.76373" lon="4.81476">
        <ele>274</ele>
        <time>2021-08-27T09:39:52.000Z</time>
      </trkpt>
      <trkpt lat="49.76371" lon="4.81475">
        <ele>274</ele>
        <time>2021-08-27T09:39:53.000Z</time>
      </trkpt>
      <trkpt lat="49.76368" lon="4.81473">
        <ele>274</ele>
        <time>2021-08-27T09:39:54.000Z</time>
      </trkpt>
      <trkpt lat="49.76366" lon="4.81472">
        <ele>274</ele>
        <time>2021-08-27T09:39:55.000Z</time>
      </trkpt>
      <trkpt lat="49.76364" lon="4.8147">
        <ele>274</ele>
        <time>2021-08-27T09:39:56.000Z</time>
      </trkpt>
      <trkpt lat="49.76361" lon="4.81469">
        <ele>275</ele>
        <time>2021-08-27T09:39:57.000Z</time>
      </trkpt>
      <trkpt lat="49.76359" lon="4.81468">
        <ele>275</ele>
        <time>2021-08-27T09:39:58.000Z</time>
      </trkpt>
      <trkpt lat="49.76357" lon="4.81468">
        <ele>275</ele>
        <time>2021-08-27T09:39:59.000Z</time>
      </trkpt>
      <trkpt lat="49.76354" lon="4.81467">
        <ele>275</ele>
        <time>2021-08-27T09:40:00.000Z</time>
      </trkpt>
      <trkpt lat="49.76352" lon="4.81467">
        <ele>275</ele>
        <time>2021-08-27T09:40:01.000Z</time>
      </trkpt>
      <trkpt lat="49.76349" lon="4.81466">
        <ele>276</ele>
        <time>2021-08-27T09:40:02.000Z</time>
      </trkpt>
      <trkpt lat="49.76347" lon="4.81465">
        <ele>276</ele>
        <time>2021-08-27T09:40:03.000Z</time>
      </trkpt>
      <trkpt lat="49.76344" lon="4.81465">
        <ele>276</ele>
        <time>2021-08-27T09:40:04.000Z</time>
      </trkpt>
      <trkpt lat="49.76342" lon="4.81464">
        <ele>276</ele>
        <time>2021-08-27T09:40:05.000Z</time>
      </trkpt>
      <trkpt lat="49.7634" lon="4.81464">
        <ele>276</ele>
        <time>2021-08-27T09:40:06.000Z</time>
      </trkpt>
      <trkpt lat="49.76337" lon="4.81463">
        <ele>276</ele>
        <time>2021-08-27T09:40:07.000Z</time>
      </trkpt>
      <trkpt lat="49.76334" lon="4.81462">
        <ele>276</ele>
        <time>2021-08-27T09:40:08.000Z</time>
      </trkpt>
      <trkpt lat="49.76331" lon="4.81462">
        <ele>276</ele>
        <time>2021-08-27T09:40:09.000Z</time>
      </trkpt>
      <trkpt lat="49.76328" lon="4.81461">
        <ele>276</ele>
        <time>2021-08-27T09:40:10.000Z</time>
      </trkpt>
      <trkpt lat="49.76324" lon="4.81461">
        <ele>276</ele>
        <time>2021-08-27T09:40:11.000Z</time>
      </trkpt>
      <trkpt lat="49.76321" lon="4.8146">
        <ele>276</ele>
        <time>2021-08-27T09:40:12.000Z</time>
      </trkpt>
      <trkpt lat="49.76317" lon="4.8146">
        <ele>276</ele>
        <time>2021-08-27T09:40:13.000Z</time>
      </trkpt>
      <trkpt lat="49.76313" lon="4.81459">
        <ele>277</ele>
        <time>2021-08-27T09:40:14.000Z</time>
      </trkpt>
      <trkpt lat="49.76309" lon="4.81458">
        <ele>277</ele>
        <time>2021-08-27T09:40:15.000Z</time>
      </trkpt>
      <trkpt lat="49.76304" lon="4.81458">
        <ele>276</ele>
        <time>2021-08-27T09:40:16.000Z</time>
      </trkpt>
      <trkpt lat="49.763" lon="4.81457">
        <ele>276</ele>
        <time>2021-08-27T09:40:17.000Z</time>
      </trkpt>
      <trkpt lat="49.76295" lon="4.81456">
        <ele>276</ele>
        <time>2021-08-27T09:40:18.000Z</time>
      </trkpt>
      <trkpt lat="49.7629" lon="4.81456">
        <ele>276</ele>
        <time>2021-08-27T09:40:19.000Z</time>
      </trkpt>
      <trkpt lat="49.76284" lon="4.81456">
        <ele>276</ele>
        <time>2021-08-27T09:40:20.000Z</time>
      </trkpt>
      <trkpt lat="49.76278" lon="4.81455">
        <ele>276</ele>
        <time>2021-08-27T09:40:21.000Z</time>
      </trkpt>
      <trkpt lat="49.76272" lon="4.81453">
        <ele>276</ele>
        <time>2021-08-27T09:40:22.000Z</time>
      </trkpt>
      <trkpt lat="49.76265" lon="4.81452">
        <ele>276</ele>
        <time>2021-08-27T09:40:23.000Z</time>
      </trkpt>
      <trkpt lat="49.76258" lon="4.81451">
        <ele>276</ele>
        <time>2021-08-27T09:40:24.000Z</time>
      </trkpt>
      <trkpt lat="49.76252" lon="4.8145">
        <ele>275</ele>
        <time>2021-08-27T09:40:25.000Z</time>
      </trkpt>
      <trkpt lat="49.76245" lon="4.81449">
        <ele>275</ele>
        <time>2021-08-27T09:40:26.000Z</time>
      </trkpt>
      <trkpt lat="49.76238" lon="4.81448">
        <ele>275</ele>
        <time>2021-08-27T09:40:27.000Z</time>
      </trkpt>
      <trkpt lat="49.76231" lon="4.81449">
        <ele>275</ele>
        <time>2021-08-27T09:40:28.000Z</time>
      </trkpt>
      <trkpt lat="49.76224" lon="4.81449">
        <ele>275</ele>
        <time>2021-08-27T09:40:29.000Z</time>
      </trkpt>
      <trkpt lat="49.76217" lon="4.8145">
        <ele>275</ele>
        <time>2021-08-27T09:40:30.000Z</time>
      </trkpt>
      <trkpt lat="49.7621" lon="4.8145">
        <ele>274</ele>
        <time>2021-08-27T09:40:31.000Z</time>
      </trkpt>
      <trkpt lat="49.76203" lon="4.8145">
        <ele>274</ele>
        <time>2021-08-27T09:40:32.000Z</time>
      </trkpt>
      <trkpt lat="49.76195" lon="4.81449">
        <ele>274</ele>
        <time>2021-08-27T09:40:33.000Z</time>
      </trkpt>
      <trkpt lat="49.76188" lon="4.81448">
        <ele>274</ele>
        <time>2021-08-27T09:40:34.000Z</time>
      </trkpt>
      <trkpt lat="49.7618" lon="4.81447">
        <ele>273</ele>
        <time>2021-08-27T09:40:35.000Z</time>
      </trkpt>
      <trkpt lat="49.76174" lon="4.81446">
        <ele>273</ele>
        <time>2021-08-27T09:40:36.000Z</time>
      </trkpt>
      <trkpt lat="49.76167" lon="4.81445">
        <ele>273</ele>
        <time>2021-08-27T09:40:37.000Z</time>
      </trkpt>
      <trkpt lat="49.7616" lon="4.81445">
        <ele>272</ele>
        <time>2021-08-27T09:40:38.000Z</time>
      </trkpt>
      <trkpt lat="49.76154" lon="4.81443">
        <ele>272</ele>
        <time>2021-08-27T09:40:39.000Z</time>
      </trkpt>
      <trkpt lat="49.76148" lon="4.81441">
        <ele>272</ele>
        <time>2021-08-27T09:40:40.000Z</time>
      </trkpt>
      <trkpt lat="49.76142" lon="4.8144">
        <ele>272</ele>
        <time>2021-08-27T09:40:41.000Z</time>
      </trkpt>
      <trkpt lat="49.76135" lon="4.81439">
        <ele>272</ele>
        <time>2021-08-27T09:40:42.000Z</time>
      </trkpt>
      <trkpt lat="49.76129" lon="4.81438">
        <ele>271</ele>
        <time>2021-08-27T09:40:43.000Z</time>
      </trkpt>
      <trkpt lat="49.76123" lon="4.81437">
        <ele>271</ele>
        <time>2021-08-27T09:40:44.000Z</time>
      </trkpt>
      <trkpt lat="49.76117" lon="4.81436">
        <ele>271</ele>
        <time>2021-08-27T09:40:45.000Z</time>
      </trkpt>
      <trkpt lat="49.76111" lon="4.81434">
        <ele>271</ele>
        <time>2021-08-27T09:40:46.000Z</time>
      </trkpt>
      <trkpt lat="49.76105" lon="4.81431">
        <ele>271</ele>
        <time>2021-08-27T09:40:47.000Z</time>
      </trkpt>
      <trkpt lat="49.76099" lon="4.81428">
        <ele>271</ele>
        <time>2021-08-27T09:40:48.000Z</time>
      </trkpt>
      <trkpt lat="49.76093" lon="4.81424">
        <ele>271</ele>
        <time>2021-08-27T09:40:49.000Z</time>
      </trkpt>
      <trkpt lat="49.76087" lon="4.81421">
        <ele>271</ele>
        <time>2021-08-27T09:40:50.000Z</time>
      </trkpt>
      <trkpt lat="49.76082" lon="4.81417">
        <ele>271</ele>
        <time>2021-08-27T09:40:51.000Z</time>
      </trkpt>
      <trkpt lat="49.76076" lon="4.81414">
        <ele>271</ele>
        <time>2021-08-27T09:40:52.000Z</time>
      </trkpt>
      <trkpt lat="49.76071" lon="4.8141">
        <ele>271</ele>
        <time>2021-08-27T09:40:53.000Z</time>
      </trkpt>
      <trkpt lat="49.76065" lon="4.81406">
        <ele>270</ele>
        <time>2021-08-27T09:40:54.000Z</time>
      </trkpt>
      <trkpt lat="49.7606" lon="4.81403">
        <ele>270</ele>
        <time>2021-08-27T09:40:55.000Z</time>
      </trkpt>
      <trkpt lat="49.76055" lon="4.81399">
        <ele>270</ele>
        <time>2021-08-27T09:40:56.000Z</time>
      </trkpt>
      <trkpt lat="49.76049" lon="4.81395">
        <ele>270</ele>
        <time>2021-08-27T09:40:57.000Z</time>
      </trkpt>
      <trkpt lat="49.76044" lon="4.81392">
        <ele>270</ele>
        <time>2021-08-27T09:40:58.000Z</time>
      </trkpt>
      <trkpt lat="49.76039" lon="4.81388">
        <ele>270</ele>
        <time>2021-08-27T09:40:59.000Z</time>
      </trkpt>
      <trkpt lat="49.76034" lon="4.81385">
        <ele>269</ele>
        <time>2021-08-27T09:41:00.000Z</time>
      </trkpt>
      <trkpt lat="49.76029" lon="4.81381">
        <ele>269</ele>
        <time>2021-08-27T09:41:01.000Z</time>
      </trkpt>
      <trkpt lat="49.76024" lon="4.81378">
        <ele>269</ele>
        <time>2021-08-27T09:41:02.000Z</time>
      </trkpt>
      <trkpt lat="49.76019" lon="4.81375">
        <ele>269</ele>
        <time>2021-08-27T09:41:03.000Z</time>
      </trkpt>
      <trkpt lat="49.76015" lon="4.81372">
        <ele>269</ele>
        <time>2021-08-27T09:41:04.000Z</time>
      </trkpt>
      <trkpt lat="49.7601" lon="4.81369">
        <ele>269</ele>
        <time>2021-08-27T09:41:05.000Z</time>
      </trkpt>
      <trkpt lat="49.76006" lon="4.81367">
        <ele>269</ele>
        <time>2021-08-27T09:41:06.000Z</time>
      </trkpt>
      <trkpt lat="49.76002" lon="4.81364">
        <ele>268</ele>
        <time>2021-08-27T09:41:07.000Z</time>
      </trkpt>
      <trkpt lat="49.75997" lon="4.8136">
        <ele>268</ele>
        <time>2021-08-27T09:41:08.000Z</time>
      </trkpt>
      <trkpt lat="49.75992" lon="4.81358">
        <ele>268</ele>
        <time>2021-08-27T09:41:09.000Z</time>
      </trkpt>
      <trkpt lat="49.75987" lon="4.81356">
        <ele>268</ele>
        <time>2021-08-27T09:41:10.000Z</time>
      </trkpt>
      <trkpt lat="49.75982" lon="4.81353">
        <ele>268</ele>
        <time>2021-08-27T09:41:11.000Z</time>
      </trkpt>
      <trkpt lat="49.75977" lon="4.81349">
        <ele>268</ele>
        <time>2021-08-27T09:41:12.000Z</time>
      </trkpt>
      <trkpt lat="49.75973" lon="4.81347">
        <ele>268</ele>
        <time>2021-08-27T09:41:13.000Z</time>
      </trkpt>
      <trkpt lat="49.75969" lon="4.81344">
        <ele>268</ele>
        <time>2021-08-27T09:41:14.000Z</time>
      </trkpt>
      <trkpt lat="49.75964" lon="4.81342">
        <ele>268</ele>
        <time>2021-08-27T09:41:15.000Z</time>
      </trkpt>
      <trkpt lat="49.75959" lon="4.8134">
        <ele>268</ele>
        <time>2021-08-27T09:41:16.000Z</time>
      </trkpt>
      <trkpt lat="49.75953" lon="4.81339">
        <ele>267</ele>
        <time>2021-08-27T09:41:17.000Z</time>
      </trkpt>
      <trkpt lat="49.75949" lon="4.81337">
        <ele>267</ele>
        <time>2021-08-27T09:41:18.000Z</time>
      </trkpt>
      <trkpt lat="49.75944" lon="4.81335">
        <ele>267</ele>
        <time>2021-08-27T09:41:19.000Z</time>
      </trkpt>
      <trkpt lat="49.75939" lon="4.81332">
        <ele>267</ele>
        <time>2021-08-27T09:41:20.000Z</time>
      </trkpt>
      <trkpt lat="49.75934" lon="4.81331">
        <ele>267</ele>
        <time>2021-08-27T09:41:21.000Z</time>
      </trkpt>
      <trkpt lat="49.75929" lon="4.81331">
        <ele>267</ele>
        <time>2021-08-27T09:41:22.000Z</time>
      </trkpt>
      <trkpt lat="49.75923" lon="4.8133">
        <ele>267</ele>
        <time>2021-08-27T09:41:23.000Z</time>
      </trkpt>
      <trkpt lat="49.75917" lon="4.8133">
        <ele>267</ele>
        <time>2021-08-27T09:41:24.000Z</time>
      </trkpt>
      <trkpt lat="49.75911" lon="4.81331">
        <ele>267</ele>
        <time>2021-08-27T09:41:25.000Z</time>
      </trkpt>
      <trkpt lat="49.75905" lon="4.81333">
        <ele>267</ele>
        <time>2021-08-27T09:41:26.000Z</time>
      </trkpt>
      <trkpt lat="49.75899" lon="4.81335">
        <ele>267</ele>
        <time>2021-08-27T09:41:27.000Z</time>
      </trkpt>
      <trkpt lat="49.75894" lon="4.81338">
        <ele>267</ele>
        <time>2021-08-27T09:41:28.000Z</time>
      </trkpt>
      <trkpt lat="49.75888" lon="4.81341">
        <ele>267</ele>
        <time>2021-08-27T09:41:29.000Z</time>
      </trkpt>
      <trkpt lat="49.75882" lon="4.81344">
        <ele>267</ele>
        <time>2021-08-27T09:41:30.000Z</time>
      </trkpt>
      <trkpt lat="49.75876" lon="4.81347">
        <ele>266</ele>
        <time>2021-08-27T09:41:31.000Z</time>
      </trkpt>
      <trkpt lat="49.7587" lon="4.8135">
        <ele>266</ele>
        <time>2021-08-27T09:41:32.000Z</time>
      </trkpt>
      <trkpt lat="49.75864" lon="4.81353">
        <ele>266</ele>
        <time>2021-08-27T09:41:33.000Z</time>
      </trkpt>
      <trkpt lat="49.75858" lon="4.81358">
        <ele>265</ele>
        <time>2021-08-27T09:41:34.000Z</time>
      </trkpt>
      <trkpt lat="49.75852" lon="4.81363">
        <ele>265</ele>
        <time>2021-08-27T09:41:35.000Z</time>
      </trkpt>
      <trkpt lat="49.75846" lon="4.81369">
        <ele>265</ele>
        <time>2021-08-27T09:41:36.000Z</time>
      </trkpt>
      <trkpt lat="49.75841" lon="4.81375">
        <ele>265</ele>
        <time>2021-08-27T09:41:37.000Z</time>
      </trkpt>
      <trkpt lat="49.75835" lon="4.81381">
        <ele>264</ele>
        <time>2021-08-27T09:41:38.000Z</time>
      </trkpt>
      <trkpt lat="49.7583" lon="4.81388">
        <ele>264</ele>
        <time>2021-08-27T09:41:39.000Z</time>
      </trkpt>
      <trkpt lat="49.75825" lon="4.81394">
        <ele>264</ele>
        <time>2021-08-27T09:41:40.000Z</time>
      </trkpt>
      <trkpt lat="49.7582" lon="4.81401">
        <ele>263</ele>
        <time>2021-08-27T09:41:41.000Z</time>
      </trkpt>
      <trkpt lat="49.75814" lon="4.81407">
        <ele>263</ele>
        <time>2021-08-27T09:41:42.000Z</time>
      </trkpt>
      <trkpt lat="49.75808" lon="4.81413">
        <ele>263</ele>
        <time>2021-08-27T09:41:43.000Z</time>
      </trkpt>
      <trkpt lat="49.75802" lon="4.81418">
        <ele>262</ele>
        <time>2021-08-27T09:41:44.000Z</time>
      </trkpt>
      <trkpt lat="49.75797" lon="4.81424">
        <ele>262</ele>
        <time>2021-08-27T09:41:45.000Z</time>
      </trkpt>
      <trkpt lat="49.75791" lon="4.81429">
        <ele>262</ele>
        <time>2021-08-27T09:41:46.000Z</time>
      </trkpt>
      <trkpt lat="49.75785" lon="4.81434">
        <ele>261</ele>
        <time>2021-08-27T09:41:47.000Z</time>
      </trkpt>
      <trkpt lat="49.75779" lon="4.81437">
        <ele>261</ele>
        <time>2021-08-27T09:41:48.000Z</time>
      </trkpt>
      <trkpt lat="49.75773" lon="4.81441">
        <ele>261</ele>
        <time>2021-08-27T09:41:49.000Z</time>
      </trkpt>
      <trkpt lat="49.75766" lon="4.81446">
        <ele>260</ele>
        <time>2021-08-27T09:41:50.000Z</time>
      </trkpt>
      <trkpt lat="49.75761" lon="4.8145">
        <ele>260</ele>
        <time>2021-08-27T09:41:51.000Z</time>
      </trkpt>
      <trkpt lat="49.75755" lon="4.81454">
        <ele>259</ele>
        <time>2021-08-27T09:41:52.000Z</time>
      </trkpt>
      <trkpt lat="49.75749" lon="4.81457">
        <ele>259</ele>
        <time>2021-08-27T09:41:53.000Z</time>
      </trkpt>
      <trkpt lat="49.75743" lon="4.8146">
        <ele>258</ele>
        <time>2021-08-27T09:41:54.000Z</time>
      </trkpt>
      <trkpt lat="49.75737" lon="4.81462">
        <ele>257</ele>
        <time>2021-08-27T09:41:55.000Z</time>
      </trkpt>
      <trkpt lat="49.75731" lon="4.81464">
        <ele>257</ele>
        <time>2021-08-27T09:41:56.000Z</time>
      </trkpt>
      <trkpt lat="49.75726" lon="4.81466">
        <ele>256</ele>
        <time>2021-08-27T09:41:57.000Z</time>
      </trkpt>
      <trkpt lat="49.7572" lon="4.81468">
        <ele>256</ele>
        <time>2021-08-27T09:41:58.000Z</time>
      </trkpt>
      <trkpt lat="49.75714" lon="4.8147">
        <ele>255</ele>
        <time>2021-08-27T09:41:59.000Z</time>
      </trkpt>
      <trkpt lat="49.75709" lon="4.8147">
        <ele>255</ele>
        <time>2021-08-27T09:42:00.000Z</time>
      </trkpt>
      <trkpt lat="49.75703" lon="4.81472">
        <ele>254</ele>
        <time>2021-08-27T09:42:01.000Z</time>
      </trkpt>
      <trkpt lat="49.75698" lon="4.81473">
        <ele>254</ele>
        <time>2021-08-27T09:42:02.000Z</time>
      </trkpt>
      <trkpt lat="49.75692" lon="4.81475">
        <ele>253</ele>
        <time>2021-08-27T09:42:03.000Z</time>
      </trkpt>
      <trkpt lat="49.75686" lon="4.81477">
        <ele>253</ele>
        <time>2021-08-27T09:42:04.000Z</time>
      </trkpt>
      <trkpt lat="49.7568" lon="4.81479">
        <ele>252</ele>
        <time>2021-08-27T09:42:05.000Z</time>
      </trkpt>
      <trkpt lat="49.75674" lon="4.81481">
        <ele>252</ele>
        <time>2021-08-27T09:42:06.000Z</time>
      </trkpt>
      <trkpt lat="49.75668" lon="4.81484">
        <ele>251</ele>
        <time>2021-08-27T09:42:07.000Z</time>
      </trkpt>
      <trkpt lat="49.75662" lon="4.81486">
        <ele>251</ele>
        <time>2021-08-27T09:42:08.000Z</time>
      </trkpt>
      <trkpt lat="49.75656" lon="4.81488">
        <ele>250</ele>
        <time>2021-08-27T09:42:09.000Z</time>
      </trkpt>
      <trkpt lat="49.75649" lon="4.8149">
        <ele>250</ele>
        <time>2021-08-27T09:42:10.000Z</time>
      </trkpt>
      <trkpt lat="49.75643" lon="4.81493">
        <ele>249</ele>
        <time>2021-08-27T09:42:11.000Z</time>
      </trkpt>
      <trkpt lat="49.75638" lon="4.81495">
        <ele>249</ele>
        <time>2021-08-27T09:42:12.000Z</time>
      </trkpt>
      <trkpt lat="49.75632" lon="4.81498">
        <ele>248</ele>
        <time>2021-08-27T09:42:13.000Z</time>
      </trkpt>
      <trkpt lat="49.75626" lon="4.81501">
        <ele>248</ele>
        <time>2021-08-27T09:42:14.000Z</time>
      </trkpt>
      <trkpt lat="49.7562" lon="4.81505">
        <ele>248</ele>
        <time>2021-08-27T09:42:15.000Z</time>
      </trkpt>
      <trkpt lat="49.75614" lon="4.81509">
        <ele>247</ele>
        <time>2021-08-27T09:42:16.000Z</time>
      </trkpt>
      <trkpt lat="49.75609" lon="4.81514">
        <ele>247</ele>
        <time>2021-08-27T09:42:17.000Z</time>
      </trkpt>
      <trkpt lat="49.75603" lon="4.81518">
        <ele>247</ele>
        <time>2021-08-27T09:42:18.000Z</time>
      </trkpt>
      <trkpt lat="49.75598" lon="4.81523">
        <ele>246</ele>
        <time>2021-08-27T09:42:19.000Z</time>
      </trkpt>
      <trkpt lat="49.75592" lon="4.81528">
        <ele>246</ele>
        <time>2021-08-27T09:42:20.000Z</time>
      </trkpt>
      <trkpt lat="49.75587" lon="4.81533">
        <ele>246</ele>
        <time>2021-08-27T09:42:21.000Z</time>
      </trkpt>
      <trkpt lat="49.75582" lon="4.81539">
        <ele>245</ele>
        <time>2021-08-27T09:42:22.000Z</time>
      </trkpt>
      <trkpt lat="49.75577" lon="4.81545">
        <ele>245</ele>
        <time>2021-08-27T09:42:23.000Z</time>
      </trkpt>
      <trkpt lat="49.75572" lon="4.81551">
        <ele>245</ele>
        <time>2021-08-27T09:42:24.000Z</time>
      </trkpt>
      <trkpt lat="49.75567" lon="4.81557">
        <ele>244</ele>
        <time>2021-08-27T09:42:25.000Z</time>
      </trkpt>
      <trkpt lat="49.75563" lon="4.81564">
        <ele>244</ele>
        <time>2021-08-27T09:42:26.000Z</time>
      </trkpt>
      <trkpt lat="49.75558" lon="4.81571">
        <ele>243</ele>
        <time>2021-08-27T09:42:27.000Z</time>
      </trkpt>
      <trkpt lat="49.75553" lon="4.81578">
        <ele>243</ele>
        <time>2021-08-27T09:42:28.000Z</time>
      </trkpt>
      <trkpt lat="49.75548" lon="4.81585">
        <ele>243</ele>
        <time>2021-08-27T09:42:29.000Z</time>
      </trkpt>
      <trkpt lat="49.75544" lon="4.81594">
        <ele>242</ele>
        <time>2021-08-27T09:42:30.000Z</time>
      </trkpt>
      <trkpt lat="49.75539" lon="4.81601">
        <ele>242</ele>
        <time>2021-08-27T09:42:31.000Z</time>
      </trkpt>
      <trkpt lat="49.75534" lon="4.81608">
        <ele>241</ele>
        <time>2021-08-27T09:42:32.000Z</time>
      </trkpt>
      <trkpt lat="49.75528" lon="4.81613">
        <ele>241</ele>
        <time>2021-08-27T09:42:33.000Z</time>
      </trkpt>
      <trkpt lat="49.75522" lon="4.81619">
        <ele>240</ele>
        <time>2021-08-27T09:42:34.000Z</time>
      </trkpt>
      <trkpt lat="49.75516" lon="4.81625">
        <ele>240</ele>
        <time>2021-08-27T09:42:35.000Z</time>
      </trkpt>
      <trkpt lat="49.7551" lon="4.8163">
        <ele>239</ele>
        <time>2021-08-27T09:42:36.000Z</time>
      </trkpt>
      <trkpt lat="49.75503" lon="4.81636">
        <ele>239</ele>
        <time>2021-08-27T09:42:37.000Z</time>
      </trkpt>
      <trkpt lat="49.75496" lon="4.81641">
        <ele>238</ele>
        <time>2021-08-27T09:42:38.000Z</time>
      </trkpt>
      <trkpt lat="49.75489" lon="4.81646">
        <ele>238</ele>
        <time>2021-08-27T09:42:39.000Z</time>
      </trkpt>
      <trkpt lat="49.75482" lon="4.81651">
        <ele>237</ele>
        <time>2021-08-27T09:42:40.000Z</time>
      </trkpt>
      <trkpt lat="49.75474" lon="4.81654">
        <ele>237</ele>
        <time>2021-08-27T09:42:41.000Z</time>
      </trkpt>
      <trkpt lat="49.75467" lon="4.81657">
        <ele>236</ele>
        <time>2021-08-27T09:42:42.000Z</time>
      </trkpt>
      <trkpt lat="49.7546" lon="4.81661">
        <ele>236</ele>
        <time>2021-08-27T09:42:43.000Z</time>
      </trkpt>
      <trkpt lat="49.75453" lon="4.81666">
        <ele>235</ele>
        <time>2021-08-27T09:42:44.000Z</time>
      </trkpt>
      <trkpt lat="49.75445" lon="4.81671">
        <ele>234</ele>
        <time>2021-08-27T09:42:45.000Z</time>
      </trkpt>
      <trkpt lat="49.75438" lon="4.81676">
        <ele>234</ele>
        <time>2021-08-27T09:42:46.000Z</time>
      </trkpt>
      <trkpt lat="49.75431" lon="4.81681">
        <ele>233</ele>
        <time>2021-08-27T09:42:47.000Z</time>
      </trkpt>
      <trkpt lat="49.75425" lon="4.81686">
        <ele>233</ele>
        <time>2021-08-27T09:42:48.000Z</time>
      </trkpt>
      <trkpt lat="49.75419" lon="4.8169">
        <ele>232</ele>
        <time>2021-08-27T09:42:49.000Z</time>
      </trkpt>
      <trkpt lat="49.75413" lon="4.81694">
        <ele>232</ele>
        <time>2021-08-27T09:42:50.000Z</time>
      </trkpt>
      <trkpt lat="49.75406" lon="4.81699">
        <ele>231</ele>
        <time>2021-08-27T09:42:51.000Z</time>
      </trkpt>
      <trkpt lat="49.75399" lon="4.81703">
        <ele>231</ele>
        <time>2021-08-27T09:42:52.000Z</time>
      </trkpt>
      <trkpt lat="49.75393" lon="4.81708">
        <ele>230</ele>
        <time>2021-08-27T09:42:53.000Z</time>
      </trkpt>
      <trkpt lat="49.75387" lon="4.81713">
        <ele>230</ele>
        <time>2021-08-27T09:42:54.000Z</time>
      </trkpt>
      <trkpt lat="49.75382" lon="4.81718">
        <ele>229</ele>
        <time>2021-08-27T09:42:55.000Z</time>
      </trkpt>
      <trkpt lat="49.75377" lon="4.81723">
        <ele>229</ele>
        <time>2021-08-27T09:42:56.000Z</time>
      </trkpt>
      <trkpt lat="49.75372" lon="4.81728">
        <ele>228</ele>
        <time>2021-08-27T09:42:57.000Z</time>
      </trkpt>
      <trkpt lat="49.75367" lon="4.81733">
        <ele>228</ele>
        <time>2021-08-27T09:42:58.000Z</time>
      </trkpt>
      <trkpt lat="49.75362" lon="4.81738">
        <ele>227</ele>
        <time>2021-08-27T09:42:59.000Z</time>
      </trkpt>
      <trkpt lat="49.75357" lon="4.81743">
        <ele>226</ele>
        <time>2021-08-27T09:43:00.000Z</time>
      </trkpt>
      <trkpt lat="49.75352" lon="4.81746">
        <ele>226</ele>
        <time>2021-08-27T09:43:01.000Z</time>
      </trkpt>
      <trkpt lat="49.75348" lon="4.81748">
        <ele>225</ele>
        <time>2021-08-27T09:43:02.000Z</time>
      </trkpt>
      <trkpt lat="49.75343" lon="4.8175">
        <ele>225</ele>
        <time>2021-08-27T09:43:03.000Z</time>
      </trkpt>
      <trkpt lat="49.75338" lon="4.81752">
        <ele>225</ele>
        <time>2021-08-27T09:43:04.000Z</time>
      </trkpt>
      <trkpt lat="49.75334" lon="4.81752">
        <ele>224</ele>
        <time>2021-08-27T09:43:05.000Z</time>
      </trkpt>
      <trkpt lat="49.75329" lon="4.81752">
        <ele>224</ele>
        <time>2021-08-27T09:43:06.000Z</time>
      </trkpt>
      <trkpt lat="49.75324" lon="4.81753">
        <ele>224</ele>
        <time>2021-08-27T09:43:07.000Z</time>
      </trkpt>
      <trkpt lat="49.75319" lon="4.81754">
        <ele>224</ele>
        <time>2021-08-27T09:43:08.000Z</time>
      </trkpt>
      <trkpt lat="49.75314" lon="4.81755">
        <ele>223</ele>
        <time>2021-08-27T09:43:09.000Z</time>
      </trkpt>
      <trkpt lat="49.75308" lon="4.81755">
        <ele>223</ele>
        <time>2021-08-27T09:43:10.000Z</time>
      </trkpt>
      <trkpt lat="49.75303" lon="4.81756">
        <ele>223</ele>
        <time>2021-08-27T09:43:11.000Z</time>
      </trkpt>
      <trkpt lat="49.75297" lon="4.81756">
        <ele>222</ele>
        <time>2021-08-27T09:43:12.000Z</time>
      </trkpt>
      <trkpt lat="49.75291" lon="4.81757">
        <ele>222</ele>
        <time>2021-08-27T09:43:13.000Z</time>
      </trkpt>
      <trkpt lat="49.75285" lon="4.81757">
        <ele>222</ele>
        <time>2021-08-27T09:43:14.000Z</time>
      </trkpt>
      <trkpt lat="49.75279" lon="4.81757">
        <ele>221</ele>
        <time>2021-08-27T09:43:15.000Z</time>
      </trkpt>
      <trkpt lat="49.75273" lon="4.81755">
        <ele>221</ele>
        <time>2021-08-27T09:43:16.000Z</time>
      </trkpt>
      <trkpt lat="49.75267" lon="4.81753">
        <ele>221</ele>
        <time>2021-08-27T09:43:17.000Z</time>
      </trkpt>
      <trkpt lat="49.7526" lon="4.81749">
        <ele>220</ele>
        <time>2021-08-27T09:43:18.000Z</time>
      </trkpt>
      <trkpt lat="49.75254" lon="4.81745">
        <ele>220</ele>
        <time>2021-08-27T09:43:19.000Z</time>
      </trkpt>
      <trkpt lat="49.75249" lon="4.81741">
        <ele>219</ele>
        <time>2021-08-27T09:43:20.000Z</time>
      </trkpt>
      <trkpt lat="49.75243" lon="4.81737">
        <ele>219</ele>
        <time>2021-08-27T09:43:21.000Z</time>
      </trkpt>
      <trkpt lat="49.75237" lon="4.81732">
        <ele>219</ele>
        <time>2021-08-27T09:43:22.000Z</time>
      </trkpt>
      <trkpt lat="49.75231" lon="4.81728">
        <ele>219</ele>
        <time>2021-08-27T09:43:23.000Z</time>
      </trkpt>
      <trkpt lat="49.75225" lon="4.81723">
        <ele>218</ele>
        <time>2021-08-27T09:43:24.000Z</time>
      </trkpt>
      <trkpt lat="49.75219" lon="4.81718">
        <ele>218</ele>
        <time>2021-08-27T09:43:25.000Z</time>
      </trkpt>
      <trkpt lat="49.75213" lon="4.81712">
        <ele>218</ele>
        <time>2021-08-27T09:43:26.000Z</time>
      </trkpt>
      <trkpt lat="49.75207" lon="4.81707">
        <ele>218</ele>
        <time>2021-08-27T09:43:27.000Z</time>
      </trkpt>
      <trkpt lat="49.75202" lon="4.81704">
        <ele>217</ele>
        <time>2021-08-27T09:43:28.000Z</time>
      </trkpt>
      <trkpt lat="49.75196" lon="4.81702">
        <ele>217</ele>
        <time>2021-08-27T09:43:29.000Z</time>
      </trkpt>
      <trkpt lat="49.75191" lon="4.81702">
        <ele>217</ele>
        <time>2021-08-27T09:43:30.000Z</time>
      </trkpt>
      <trkpt lat="49.75186" lon="4.81704">
        <ele>217</ele>
        <time>2021-08-27T09:43:31.000Z</time>
      </trkpt>
      <trkpt lat="49.7518" lon="4.81707">
        <ele>216</ele>
        <time>2021-08-27T09:43:32.000Z</time>
      </trkpt>
      <trkpt lat="49.75175" lon="4.81711">
        <ele>216</ele>
        <time>2021-08-27T09:43:33.000Z</time>
      </trkpt>
      <trkpt lat="49.75168" lon="4.81717">
        <ele>216</ele>
        <time>2021-08-27T09:43:34.000Z</time>
      </trkpt>
      <trkpt lat="49.75162" lon="4.81723">
        <ele>215</ele>
        <time>2021-08-27T09:43:35.000Z</time>
      </trkpt>
      <trkpt lat="49.75156" lon="4.8173">
        <ele>214</ele>
        <time>2021-08-27T09:43:36.000Z</time>
      </trkpt>
      <trkpt lat="49.75152" lon="4.81734">
        <ele>214</ele>
        <time>2021-08-27T09:43:37.000Z</time>
      </trkpt>
      <trkpt lat="49.75148" lon="4.81739">
        <ele>213</ele>
        <time>2021-08-27T09:43:38.000Z</time>
      </trkpt>
      <trkpt lat="49.75144" lon="4.81742">
        <ele>213</ele>
        <time>2021-08-27T09:43:39.000Z</time>
      </trkpt>
      <trkpt lat="49.75142" lon="4.81746">
        <ele>212</ele>
        <time>2021-08-27T09:43:40.000Z</time>
      </trkpt>
      <trkpt lat="49.75141" lon="4.81751">
        <ele>212</ele>
        <time>2021-08-27T09:43:41.000Z</time>
      </trkpt>
      <trkpt lat="49.75141" lon="4.81757">
        <ele>211</ele>
        <time>2021-08-27T09:43:42.000Z</time>
      </trkpt>
      <trkpt lat="49.75142" lon="4.81763">
        <ele>210</ele>
        <time>2021-08-27T09:43:43.000Z</time>
      </trkpt>
      <trkpt lat="49.75145" lon="4.81768">
        <ele>210</ele>
        <time>2021-08-27T09:43:44.000Z</time>
      </trkpt>
      <trkpt lat="49.75148" lon="4.81772">
        <ele>210</ele>
        <time>2021-08-27T09:43:45.000Z</time>
      </trkpt>
      <trkpt lat="49.7515" lon="4.81777">
        <ele>209</ele>
        <time>2021-08-27T09:43:46.000Z</time>
      </trkpt>
      <trkpt lat="49.75153" lon="4.81782">
        <ele>209</ele>
        <time>2021-08-27T09:43:47.000Z</time>
      </trkpt>
      <trkpt lat="49.75155" lon="4.81786">
        <ele>209</ele>
        <time>2021-08-27T09:43:48.000Z</time>
      </trkpt>
      <trkpt lat="49.75157" lon="4.81791">
        <ele>208</ele>
        <time>2021-08-27T09:43:49.000Z</time>
      </trkpt>
      <trkpt lat="49.7516" lon="4.81795">
        <ele>208</ele>
        <time>2021-08-27T09:43:50.000Z</time>
      </trkpt>
      <trkpt lat="49.75163" lon="4.818">
        <ele>208</ele>
        <time>2021-08-27T09:43:51.000Z</time>
      </trkpt>
      <trkpt lat="49.75165" lon="4.81805">
        <ele>208</ele>
        <time>2021-08-27T09:43:52.000Z</time>
      </trkpt>
      <trkpt lat="49.75169" lon="4.81809">
        <ele>208</ele>
        <time>2021-08-27T09:43:53.000Z</time>
      </trkpt>
      <trkpt lat="49.75172" lon="4.81813">
        <ele>207</ele>
        <time>2021-08-27T09:43:54.000Z</time>
      </trkpt>
      <trkpt lat="49.75175" lon="4.81818">
        <ele>207</ele>
        <time>2021-08-27T09:43:55.000Z</time>
      </trkpt>
      <trkpt lat="49.75178" lon="4.81824">
        <ele>207</ele>
        <time>2021-08-27T09:43:56.000Z</time>
      </trkpt>
      <trkpt lat="49.7518" lon="4.81829">
        <ele>206</ele>
        <time>2021-08-27T09:43:57.000Z</time>
      </trkpt>
      <trkpt lat="49.75183" lon="4.81835">
        <ele>206</ele>
        <time>2021-08-27T09:43:58.000Z</time>
      </trkpt>
      <trkpt lat="49.75187" lon="4.81841">
        <ele>206</ele>
        <time>2021-08-27T09:43:59.000Z</time>
      </trkpt>
      <trkpt lat="49.7519" lon="4.81847">
        <ele>206</ele>
        <time>2021-08-27T09:44:00.000Z</time>
      </trkpt>
      <trkpt lat="49.75193" lon="4.81852">
        <ele>206</ele>
        <time>2021-08-27T09:44:01.000Z</time>
      </trkpt>
      <trkpt lat="49.75197" lon="4.81858">
        <ele>205</ele>
        <time>2021-08-27T09:44:02.000Z</time>
      </trkpt>
      <trkpt lat="49.752" lon="4.81863">
        <ele>205</ele>
        <time>2021-08-27T09:44:03.000Z</time>
      </trkpt>
      <trkpt lat="49.75204" lon="4.81868">
        <ele>205</ele>
        <time>2021-08-27T09:44:04.000Z</time>
      </trkpt>
      <trkpt lat="49.75207" lon="4.81873">
        <ele>205</ele>
        <time>2021-08-27T09:44:05.000Z</time>
      </trkpt>
      <trkpt lat="49.75211" lon="4.81878">
        <ele>205</ele>
        <time>2021-08-27T09:44:06.000Z</time>
      </trkpt>
      <trkpt lat="49.75215" lon="4.81883">
        <ele>205</ele>
        <time>2021-08-27T09:44:07.000Z</time>
      </trkpt>
      <trkpt lat="49.75219" lon="4.81888">
        <ele>204</ele>
        <time>2021-08-27T09:44:08.000Z</time>
      </trkpt>
      <trkpt lat="49.75222" lon="4.81892">
        <ele>204</ele>
        <time>2021-08-27T09:44:09.000Z</time>
      </trkpt>
      <trkpt lat="49.75226" lon="4.81897">
        <ele>204</ele>
        <time>2021-08-27T09:44:10.000Z</time>
      </trkpt>
      <trkpt lat="49.7523" lon="4.81902">
        <ele>203</ele>
        <time>2021-08-27T09:44:11.000Z</time>
      </trkpt>
      <trkpt lat="49.75234" lon="4.81906">
        <ele>203</ele>
        <time>2021-08-27T09:44:12.000Z</time>
      </trkpt>
      <trkpt lat="49.75238" lon="4.81909">
        <ele>203</ele>
        <time>2021-08-27T09:44:13.000Z</time>
      </trkpt>
      <trkpt lat="49.75242" lon="4.81913">
        <ele>203</ele>
        <time>2021-08-27T09:44:14.000Z</time>
      </trkpt>
      <trkpt lat="49.75246" lon="4.81918">
        <ele>202</ele>
        <time>2021-08-27T09:44:15.000Z</time>
      </trkpt>
      <trkpt lat="49.75249" lon="4.81924">
        <ele>202</ele>
        <time>2021-08-27T09:44:16.000Z</time>
      </trkpt>
      <trkpt lat="49.75253" lon="4.8193">
        <ele>202</ele>
        <time>2021-08-27T09:44:17.000Z</time>
      </trkpt>
      <trkpt lat="49.75256" lon="4.81936">
        <ele>201</ele>
        <time>2021-08-27T09:44:18.000Z</time>
      </trkpt>
      <trkpt lat="49.7526" lon="4.81941">
        <ele>201</ele>
        <time>2021-08-27T09:44:19.000Z</time>
      </trkpt>
      <trkpt lat="49.75265" lon="4.81946">
        <ele>201</ele>
        <time>2021-08-27T09:44:20.000Z</time>
      </trkpt>
      <trkpt lat="49.75269" lon="4.81951">
        <ele>201</ele>
        <time>2021-08-27T09:44:21.000Z</time>
      </trkpt>
      <trkpt lat="49.75274" lon="4.81955">
        <ele>200</ele>
        <time>2021-08-27T09:44:22.000Z</time>
      </trkpt>
      <trkpt lat="49.75278" lon="4.81959">
        <ele>200</ele>
        <time>2021-08-27T09:44:23.000Z</time>
      </trkpt>
      <trkpt lat="49.75283" lon="4.81963">
        <ele>200</ele>
        <time>2021-08-27T09:44:24.000Z</time>
      </trkpt>
      <trkpt lat="49.75288" lon="4.81967">
        <ele>199</ele>
        <time>2021-08-27T09:44:25.000Z</time>
      </trkpt>
      <trkpt lat="49.75292" lon="4.81971">
        <ele>199</ele>
        <time>2021-08-27T09:44:26.000Z</time>
      </trkpt>
      <trkpt lat="49.75297" lon="4.81975">
        <ele>199</ele>
        <time>2021-08-27T09:44:27.000Z</time>
      </trkpt>
      <trkpt lat="49.75302" lon="4.81979">
        <ele>199</ele>
        <time>2021-08-27T09:44:28.000Z</time>
      </trkpt>
      <trkpt lat="49.75307" lon="4.81982">
        <ele>199</ele>
        <time>2021-08-27T09:44:29.000Z</time>
      </trkpt>
      <trkpt lat="49.75312" lon="4.81985">
        <ele>198</ele>
        <time>2021-08-27T09:44:30.000Z</time>
      </trkpt>
      <trkpt lat="49.75316" lon="4.81989">
        <ele>198</ele>
        <time>2021-08-27T09:44:31.000Z</time>
      </trkpt>
      <trkpt lat="49.75321" lon="4.81992">
        <ele>198</ele>
        <time>2021-08-27T09:44:32.000Z</time>
      </trkpt>
      <trkpt lat="49.75326" lon="4.81995">
        <ele>198</ele>
        <time>2021-08-27T09:44:33.000Z</time>
      </trkpt>
      <trkpt lat="49.7533" lon="4.81998">
        <ele>198</ele>
        <time>2021-08-27T09:44:34.000Z</time>
      </trkpt>
      <trkpt lat="49.75335" lon="4.82001">
        <ele>198</ele>
        <time>2021-08-27T09:44:35.000Z</time>
      </trkpt>
      <trkpt lat="49.7534" lon="4.82004">
        <ele>197</ele>
        <time>2021-08-27T09:44:36.000Z</time>
      </trkpt>
      <trkpt lat="49.75344" lon="4.82006">
        <ele>197</ele>
        <time>2021-08-27T09:44:37.000Z</time>
      </trkpt>
      <trkpt lat="49.75349" lon="4.82009">
        <ele>197</ele>
        <time>2021-08-27T09:44:38.000Z</time>
      </trkpt>
      <trkpt lat="49.75353" lon="4.82012">
        <ele>197</ele>
        <time>2021-08-27T09:44:39.000Z</time>
      </trkpt>
      <trkpt lat="49.75358" lon="4.82015">
        <ele>197</ele>
        <time>2021-08-27T09:44:40.000Z</time>
      </trkpt>
      <trkpt lat="49.75363" lon="4.82017">
        <ele>197</ele>
        <time>2021-08-27T09:44:41.000Z</time>
      </trkpt>
      <trkpt lat="49.75368" lon="4.8202">
        <ele>197</ele>
        <time>2021-08-27T09:44:42.000Z</time>
      </trkpt>
      <trkpt lat="49.75373" lon="4.82023">
        <ele>196</ele>
        <time>2021-08-27T09:44:43.000Z</time>
      </trkpt>
      <trkpt lat="49.75378" lon="4.82026">
        <ele>196</ele>
        <time>2021-08-27T09:44:44.000Z</time>
      </trkpt>
      <trkpt lat="49.75383" lon="4.82029">
        <ele>196</ele>
        <time>2021-08-27T09:44:45.000Z</time>
      </trkpt>
      <trkpt lat="49.75387" lon="4.82033">
        <ele>196</ele>
        <time>2021-08-27T09:44:46.000Z</time>
      </trkpt>
      <trkpt lat="49.75392" lon="4.82036">
        <ele>196</ele>
        <time>2021-08-27T09:44:47.000Z</time>
      </trkpt>
      <trkpt lat="49.75397" lon="4.8204">
        <ele>196</ele>
        <time>2021-08-27T09:44:48.000Z</time>
      </trkpt>
      <trkpt lat="49.75402" lon="4.82043">
        <ele>196</ele>
        <time>2021-08-27T09:44:49.000Z</time>
      </trkpt>
      <trkpt lat="49.75406" lon="4.82047">
        <ele>195</ele>
        <time>2021-08-27T09:44:50.000Z</time>
      </trkpt>
      <trkpt lat="49.75411" lon="4.82052">
        <ele>195</ele>
        <time>2021-08-27T09:44:51.000Z</time>
      </trkpt>
      <trkpt lat="49.75415" lon="4.82057">
        <ele>195</ele>
        <time>2021-08-27T09:44:52.000Z</time>
      </trkpt>
      <trkpt lat="49.7542" lon="4.82061">
        <ele>195</ele>
        <time>2021-08-27T09:44:53.000Z</time>
      </trkpt>
      <trkpt lat="49.75424" lon="4.82065">
        <ele>195</ele>
        <time>2021-08-27T09:44:54.000Z</time>
      </trkpt>
      <trkpt lat="49.75429" lon="4.8207">
        <ele>195</ele>
        <time>2021-08-27T09:44:55.000Z</time>
      </trkpt>
      <trkpt lat="49.75433" lon="4.82075">
        <ele>195</ele>
        <time>2021-08-27T09:44:56.000Z</time>
      </trkpt>
      <trkpt lat="49.75438" lon="4.82079">
        <ele>194</ele>
        <time>2021-08-27T09:44:57.000Z</time>
      </trkpt>
      <trkpt lat="49.75442" lon="4.82083">
        <ele>194</ele>
        <time>2021-08-27T09:44:58.000Z</time>
      </trkpt>
      <trkpt lat="49.75446" lon="4.82087">
        <ele>194</ele>
        <time>2021-08-27T09:44:59.000Z</time>
      </trkpt>
      <trkpt lat="49.7545" lon="4.82091">
        <ele>194</ele>
        <time>2021-08-27T09:45:00.000Z</time>
      </trkpt>
      <trkpt lat="49.75455" lon="4.82095">
        <ele>194</ele>
        <time>2021-08-27T09:45:01.000Z</time>
      </trkpt>
      <trkpt lat="49.75459" lon="4.821">
        <ele>194</ele>
        <time>2021-08-27T09:45:02.000Z</time>
      </trkpt>
      <trkpt lat="49.75463" lon="4.82106">
        <ele>193</ele>
        <time>2021-08-27T09:45:03.000Z</time>
      </trkpt>
      <trkpt lat="49.75468" lon="4.82111">
        <ele>193</ele>
        <time>2021-08-27T09:45:04.000Z</time>
      </trkpt>
      <trkpt lat="49.75472" lon="4.82117">
        <ele>193</ele>
        <time>2021-08-27T09:45:05.000Z</time>
      </trkpt>
      <trkpt lat="49.75477" lon="4.82122">
        <ele>193</ele>
        <time>2021-08-27T09:45:06.000Z</time>
      </trkpt>
      <trkpt lat="49.75481" lon="4.82129">
        <ele>192</ele>
        <time>2021-08-27T09:45:07.000Z</time>
      </trkpt>
      <trkpt lat="49.75486" lon="4.82135">
        <ele>192</ele>
        <time>2021-08-27T09:45:08.000Z</time>
      </trkpt>
      <trkpt lat="49.7549" lon="4.82142">
        <ele>192</ele>
        <time>2021-08-27T09:45:09.000Z</time>
      </trkpt>
      <trkpt lat="49.75494" lon="4.82149">
        <ele>192</ele>
        <time>2021-08-27T09:45:10.000Z</time>
      </trkpt>
      <trkpt lat="49.75497" lon="4.82156">
        <ele>191</ele>
        <time>2021-08-27T09:45:11.000Z</time>
      </trkpt>
      <trkpt lat="49.75501" lon="4.82163">
        <ele>191</ele>
        <time>2021-08-27T09:45:12.000Z</time>
      </trkpt>
      <trkpt lat="49.75505" lon="4.8217">
        <ele>191</ele>
        <time>2021-08-27T09:45:13.000Z</time>
      </trkpt>
      <trkpt lat="49.75509" lon="4.82177">
        <ele>191</ele>
        <time>2021-08-27T09:45:14.000Z</time>
      </trkpt>
      <trkpt lat="49.75512" lon="4.82184">
        <ele>191</ele>
        <time>2021-08-27T09:45:15.000Z</time>
      </trkpt>
      <trkpt lat="49.75515" lon="4.82191">
        <ele>191</ele>
        <time>2021-08-27T09:45:16.000Z</time>
      </trkpt>
      <trkpt lat="49.75519" lon="4.82199">
        <ele>191</ele>
        <time>2021-08-27T09:45:17.000Z</time>
      </trkpt>
      <trkpt lat="49.75522" lon="4.82205">
        <ele>191</ele>
        <time>2021-08-27T09:45:18.000Z</time>
      </trkpt>
      <trkpt lat="49.75526" lon="4.82212">
        <ele>190</ele>
        <time>2021-08-27T09:45:19.000Z</time>
      </trkpt>
      <trkpt lat="49.75529" lon="4.8222">
        <ele>190</ele>
        <time>2021-08-27T09:45:20.000Z</time>
      </trkpt>
      <trkpt lat="49.75532" lon="4.82226">
        <ele>190</ele>
        <time>2021-08-27T09:45:21.000Z</time>
      </trkpt>
      <trkpt lat="49.75536" lon="4.82233">
        <ele>190</ele>
        <time>2021-08-27T09:45:22.000Z</time>
      </trkpt>
      <trkpt lat="49.75539" lon="4.8224">
        <ele>190</ele>
        <time>2021-08-27T09:45:23.000Z</time>
      </trkpt>
      <trkpt lat="49.75543" lon="4.82247">
        <ele>190</ele>
        <time>2021-08-27T09:45:24.000Z</time>
      </trkpt>
      <trkpt lat="49.75546" lon="4.82253">
        <ele>190</ele>
        <time>2021-08-27T09:45:25.000Z</time>
      </trkpt>
      <trkpt lat="49.75548" lon="4.8226">
        <ele>189</ele>
        <time>2021-08-27T09:45:26.000Z</time>
      </trkpt>
      <trkpt lat="49.75548" lon="4.82267">
        <ele>189</ele>
        <time>2021-08-27T09:45:27.000Z</time>
      </trkpt>
      <trkpt lat="49.75546" lon="4.82274">
        <ele>189</ele>
        <time>2021-08-27T09:45:28.000Z</time>
      </trkpt>
      <trkpt lat="49.75543" lon="4.82279">
        <ele>189</ele>
        <time>2021-08-27T09:45:29.000Z</time>
      </trkpt>
      <trkpt lat="49.75538" lon="4.82282">
        <ele>189</ele>
        <time>2021-08-27T09:45:30.000Z</time>
      </trkpt>
      <trkpt lat="49.75533" lon="4.82281">
        <ele>189</ele>
        <time>2021-08-27T09:45:31.000Z</time>
      </trkpt>
      <trkpt lat="49.75529" lon="4.82278">
        <ele>189</ele>
        <time>2021-08-27T09:45:32.000Z</time>
      </trkpt>
      <trkpt lat="49.75524" lon="4.82275">
        <ele>189</ele>
        <time>2021-08-27T09:45:33.000Z</time>
      </trkpt>
      <trkpt lat="49.75518" lon="4.82273">
        <ele>189</ele>
        <time>2021-08-27T09:45:34.000Z</time>
      </trkpt>
      <trkpt lat="49.75513" lon="4.8227">
        <ele>188</ele>
        <time>2021-08-27T09:45:35.000Z</time>
      </trkpt>
      <trkpt lat="49.75508" lon="4.82268">
        <ele>188</ele>
        <time>2021-08-27T09:45:36.000Z</time>
      </trkpt>
      <trkpt lat="49.75503" lon="4.82265">
        <ele>188</ele>
        <time>2021-08-27T09:45:37.000Z</time>
      </trkpt>
      <trkpt lat="49.75497" lon="4.82262">
        <ele>188</ele>
        <time>2021-08-27T09:45:38.000Z</time>
      </trkpt>
      <trkpt lat="49.75492" lon="4.82258">
        <ele>188</ele>
        <time>2021-08-27T09:45:39.000Z</time>
      </trkpt>
      <trkpt lat="49.75487" lon="4.82254">
        <ele>188</ele>
        <time>2021-08-27T09:45:40.000Z</time>
      </trkpt>
      <trkpt lat="49.75483" lon="4.8225">
        <ele>188</ele>
        <time>2021-08-27T09:45:41.000Z</time>
      </trkpt>
      <trkpt lat="49.75478" lon="4.82245">
        <ele>188</ele>
        <time>2021-08-27T09:45:42.000Z</time>
      </trkpt>
      <trkpt lat="49.75474" lon="4.8224">
        <ele>188</ele>
        <time>2021-08-27T09:45:43.000Z</time>
      </trkpt>
      <trkpt lat="49.7547" lon="4.82235">
        <ele>188</ele>
        <time>2021-08-27T09:45:44.000Z</time>
      </trkpt>
      <trkpt lat="49.75465" lon="4.82231">
        <ele>188</ele>
        <time>2021-08-27T09:45:45.000Z</time>
      </trkpt>
      <trkpt lat="49.75461" lon="4.82227">
        <ele>188</ele>
        <time>2021-08-27T09:45:46.000Z</time>
      </trkpt>
      <trkpt lat="49.75456" lon="4.82224">
        <ele>188</ele>
        <time>2021-08-27T09:45:47.000Z</time>
      </trkpt>
      <trkpt lat="49.75452" lon="4.82221">
        <ele>188</ele>
        <time>2021-08-27T09:45:48.000Z</time>
      </trkpt>
      <trkpt lat="49.75447" lon="4.82219">
        <ele>188</ele>
        <time>2021-08-27T09:45:49.000Z</time>
      </trkpt>
      <trkpt lat="49.75443" lon="4.82216">
        <ele>188</ele>
        <time>2021-08-27T09:45:50.000Z</time>
      </trkpt>
      <trkpt lat="49.75438" lon="4.82214">
        <ele>188</ele>
        <time>2021-08-27T09:45:51.000Z</time>
      </trkpt>
      <trkpt lat="49.75434" lon="4.82212">
        <ele>188</ele>
        <time>2021-08-27T09:45:52.000Z</time>
      </trkpt>
      <trkpt lat="49.75429" lon="4.8221">
        <ele>188</ele>
        <time>2021-08-27T09:45:53.000Z</time>
      </trkpt>
      <trkpt lat="49.75425" lon="4.82207">
        <ele>188</ele>
        <time>2021-08-27T09:45:54.000Z</time>
      </trkpt>
      <trkpt lat="49.7542" lon="4.82204">
        <ele>188</ele>
        <time>2021-08-27T09:45:55.000Z</time>
      </trkpt>
      <trkpt lat="49.75416" lon="4.82202">
        <ele>188</ele>
        <time>2021-08-27T09:45:56.000Z</time>
      </trkpt>
      <trkpt lat="49.75411" lon="4.822">
        <ele>188</ele>
        <time>2021-08-27T09:45:57.000Z</time>
      </trkpt>
      <trkpt lat="49.75407" lon="4.82198">
        <ele>188</ele>
        <time>2021-08-27T09:45:58.000Z</time>
      </trkpt>
      <trkpt lat="49.75402" lon="4.82196">
        <ele>188</ele>
        <time>2021-08-27T09:45:59.000Z</time>
      </trkpt>
      <trkpt lat="49.75398" lon="4.82195">
        <ele>188</ele>
        <time>2021-08-27T09:46:00.000Z</time>
      </trkpt>
      <trkpt lat="49.75393" lon="4.82194">
        <ele>188</ele>
        <time>2021-08-27T09:46:01.000Z</time>
      </trkpt>
      <trkpt lat="49.75389" lon="4.82195">
        <ele>188</ele>
        <time>2021-08-27T09:46:02.000Z</time>
      </trkpt>
      <trkpt lat="49.75386" lon="4.82197">
        <ele>188</ele>
        <time>2021-08-27T09:46:03.000Z</time>
      </trkpt>
      <trkpt lat="49.75383" lon="4.82201">
        <ele>188</ele>
        <time>2021-08-27T09:46:04.000Z</time>
      </trkpt>
      <trkpt lat="49.75381" lon="4.82204">
        <ele>188</ele>
        <time>2021-08-27T09:46:05.000Z</time>
      </trkpt>
      <trkpt lat="49.75379" lon="4.82206">
        <ele>188</ele>
        <time>2021-08-27T09:46:06.000Z</time>
      </trkpt>
      <trkpt lat="49.75376" lon="4.82206">
        <ele>188</ele>
        <time>2021-08-27T09:46:07.000Z</time>
      </trkpt>
      <trkpt lat="49.75375" lon="4.82206">
        <ele>188</ele>
        <time>2021-08-27T09:46:08.000Z</time>
      </trkpt>
      <trkpt lat="49.75375" lon="4.82206">
        <ele>188</ele>
        <time>2021-08-27T09:46:09.000Z</time>
      </trkpt>
      <trkpt lat="49.75375" lon="4.82205">
        <ele>188</ele>
        <time>2021-08-27T09:46:10.000Z</time>
      </trkpt>
      <trkpt lat="49.75375" lon="4.82205">
        <ele>188</ele>
        <time>2021-08-27T09:46:11.000Z</time>
      </trkpt>
      <trkpt lat="49.75375" lon="4.82205">
        <ele>188</ele>
        <time>2021-08-27T09:46:12.000Z</time>
      </trkpt>
      <trkpt lat="49.75375" lon="4.82205">
        <ele>188</ele>
        <time>2021-08-27T09:46:13.000Z</time>
      </trkpt>
      <trkpt lat="49.75375" lon="4.82205">
        <ele>188</ele>
        <time>2021-08-27T09:46:14.000Z</time>
      </trkpt>
    </trkseg>
  </trk>
</gpx>